<?xml version='1.0' encoding='UTF-8'?><gpx version="1.1" creator="JPX - https://github.com/jenetics/jpx" xmlns="http://www.topografix.com/GPX/1/1"><trk><trkseg><trkpt lat="42.457650739672054" lon="14.136130714350749"><ele>158.0</ele><time>2026-03-29T07:52:51Z</time></trkpt><trkpt lat="42.45755090942068" lon="14.13617386549865"><ele>158.0</ele><time>2026-03-29T07:52:53Z</time></trkpt><trkpt lat="42.457484210486136" lon="14.136185345468752"><ele>158.0</ele><time>2026-03-29T07:52:54Z</time></trkpt><trkpt lat="42.4574116588378" lon="14.136166283242497"><ele>158.0</ele><time>2026-03-29T07:52:55Z</time></trkpt><trkpt lat="42.45733927988852" lon="14.136173819318453"><ele>158.0</ele><time>2026-03-29T07:52:56Z</time></trkpt><trkpt lat="42.4572281434368" lon="14.136177969241107"><ele>158.0</ele><time>2026-03-29T07:52:57.999Z</time></trkpt><trkpt lat="42.457155453557505" lon="14.1361792091563"><ele>159.5</ele><time>2026-03-29T07:52:58.999Z</time></trkpt><trkpt lat="42.45707393090439" lon="14.136180599736294"><ele>161.0</ele><time>2026-03-29T07:52:59.999Z</time></trkpt><trkpt lat="42.4570039462816" lon="14.136181793507394"><ele>162.5</ele><time>2026-03-29T07:53:00.999Z</time></trkpt><trkpt lat="42.45693789638793" lon="14.136190928239586"><ele>164.0</ele><time>2026-03-29T07:53:01.999Z</time></trkpt><trkpt lat="42.45682484006117" lon="14.136223853993492"><ele>165.5</ele><time>2026-03-29T07:53:03.999Z</time></trkpt><trkpt lat="42.456756210698714" lon="14.136226128416565"><ele>167.0</ele><time>2026-03-29T07:53:04.999Z</time></trkpt><trkpt lat="42.45666868494385" lon="14.13624268734858"><ele>167.0</ele><time>2026-03-29T07:53:05.999Z</time></trkpt><trkpt lat="42.4565896439406" lon="14.136240433923437"><ele>167.0</ele><time>2026-03-29T07:53:06.999Z</time></trkpt><trkpt lat="42.4565016507131" lon="14.136228587551608"><ele>167.0</ele><time>2026-03-29T07:53:07.999Z</time></trkpt><trkpt lat="42.45641870616741" lon="14.136206275575999"><ele>167.0</ele><time>2026-03-29T07:53:08.999Z</time></trkpt><trkpt lat="42.45633029748242" lon="14.136178349371272"><ele>167.0</ele><time>2026-03-29T07:53:09.999Z</time></trkpt><trkpt lat="42.456245469681534" lon="14.136149076092044"><ele>167.0</ele><time>2026-03-29T07:53:10.999Z</time></trkpt><trkpt lat="42.456166501887694" lon="14.13611466869455"><ele>169.6</ele><time>2026-03-29T07:53:11.999Z</time></trkpt><trkpt lat="42.456102273477484" lon="14.136085350863757"><ele>172.2</ele><time>2026-03-29T07:53:12.999Z</time></trkpt><trkpt lat="42.45600748315474" lon="14.13603178803194"><ele>174.8</ele><time>2026-03-29T07:53:14.999Z</time></trkpt><trkpt lat="42.45596077163604" lon="14.135970025673522"><ele>177.4</ele><time>2026-03-29T07:53:17.999Z</time></trkpt><trkpt lat="42.45603924344514" lon="14.135804613573494"><ele>180.0</ele><time>2026-03-29T07:53:19.999Z</time></trkpt><trkpt lat="42.45608273233136" lon="14.135715112192536"><ele>182.8</ele><time>2026-03-29T07:53:20.999Z</time></trkpt><trkpt lat="42.456131458603565" lon="14.135610637577667"><ele>185.6</ele><time>2026-03-29T07:53:21.999Z</time></trkpt><trkpt lat="42.45618108742411" lon="14.135490813295839"><ele>188.39999999999998</ele><time>2026-03-29T07:53:22.999Z</time></trkpt><trkpt lat="42.45621982397472" lon="14.135363945978517"><ele>191.2</ele><time>2026-03-29T07:53:23.999Z</time></trkpt><trkpt lat="42.456269923343434" lon="14.135249323144746"><ele>194.0</ele><time>2026-03-29T07:53:24.999Z</time></trkpt><trkpt lat="42.456311770067686" lon="14.13511319918866"><ele>188.79999999999998</ele><time>2026-03-29T07:53:25.999Z</time></trkpt><trkpt lat="42.456354400322475" lon="14.134974250742687"><ele>183.6</ele><time>2026-03-29T07:53:26.999Z</time></trkpt><trkpt lat="42.456399500258215" lon="14.134827252662824"><ele>178.4</ele><time>2026-03-29T07:53:27.999Z</time></trkpt><trkpt lat="42.45643960536326" lon="14.13469766916995"><ele>173.2</ele><time>2026-03-29T07:53:28.999Z</time></trkpt><trkpt lat="42.45647862419116" lon="14.13457308911559"><ele>168.0</ele><time>2026-03-29T07:53:29.999Z</time></trkpt><trkpt lat="42.456504575428774" lon="14.134436636658869"><ele>168.0</ele><time>2026-03-29T07:53:30.999Z</time></trkpt><trkpt lat="42.45654761587043" lon="14.134305995132372"><ele>168.0</ele><time>2026-03-29T07:53:31.999Z</time></trkpt><trkpt lat="42.456586322790606" lon="14.134172592797476"><ele>168.0</ele><time>2026-03-29T07:53:32.999Z</time></trkpt><trkpt lat="42.45662922224408" lon="14.134032971207377"><ele>168.0</ele><time>2026-03-29T07:53:33.999Z</time></trkpt><trkpt lat="42.45666908517104" lon="14.133885421103495"><ele>168.0</ele><time>2026-03-29T07:53:34.999Z</time></trkpt><trkpt lat="42.45670198895252" lon="14.133730711321132"><ele>168.0</ele><time>2026-03-29T07:53:35.999Z</time></trkpt><trkpt lat="42.456746925218425" lon="14.133583484418066"><ele>168.0</ele><time>2026-03-29T07:53:36.999Z</time></trkpt><trkpt lat="42.45677240927177" lon="14.133433490332656"><ele>168.0</ele><time>2026-03-29T07:53:37.999Z</time></trkpt><trkpt lat="42.45679296420631" lon="14.133292226453205"><ele>168.0</ele><time>2026-03-29T07:53:38.999Z</time></trkpt><trkpt lat="42.45681088762658" lon="14.133151524724312"><ele>168.0</ele><time>2026-03-29T07:53:39.999Z</time></trkpt><trkpt lat="42.45682906764206" lon="14.1330000816285"><ele>167.5</ele><time>2026-03-29T07:53:40.999Z</time></trkpt><trkpt lat="42.45684751751582" lon="14.132828849536857"><ele>167.0</ele><time>2026-03-29T07:53:41.999Z</time></trkpt><trkpt lat="42.45685802111947" lon="14.132653895390968"><ele>166.5</ele><time>2026-03-29T07:53:42.999Z</time></trkpt><trkpt lat="42.45689873458513" lon="14.132486537463045"><ele>166.0</ele><time>2026-03-29T07:53:43.999Z</time></trkpt><trkpt lat="42.45694932024576" lon="14.132327174881793"><ele>166.0</ele><time>2026-03-29T07:53:44.999Z</time></trkpt><trkpt lat="42.45702219583628" lon="14.13219450652797"><ele>166.0</ele><time>2026-03-29T07:53:45.999Z</time></trkpt><trkpt lat="42.45708304965513" lon="14.132046855264607"><ele>166.0</ele><time>2026-03-29T07:53:46.999Z</time></trkpt><trkpt lat="42.45713249498466" lon="14.131884986266687"><ele>166.0</ele><time>2026-03-29T07:53:47.999Z</time></trkpt><trkpt lat="42.45719955132468" lon="14.13174113664116"><ele>164.5</ele><time>2026-03-29T07:53:48.999Z</time></trkpt><trkpt lat="42.45726081638163" lon="14.131594396832602"><ele>163.0</ele><time>2026-03-29T07:53:49.999Z</time></trkpt><trkpt lat="42.45731810568453" lon="14.131449836587906"><ele>161.5</ele><time>2026-03-29T07:53:50.999Z</time></trkpt><trkpt lat="42.457379927642094" lon="14.131307284094902"><ele>160.0</ele><time>2026-03-29T07:53:51.999Z</time></trkpt><trkpt lat="42.45744432542852" lon="14.131166592756434"><ele>160.0</ele><time>2026-03-29T07:53:52.999Z</time></trkpt><trkpt lat="42.45750307041564" lon="14.131024438431327"><ele>160.0</ele><time>2026-03-29T07:53:53.999Z</time></trkpt><trkpt lat="42.45757191592025" lon="14.130881527519087"><ele>160.0</ele><time>2026-03-29T07:53:54.999Z</time></trkpt><trkpt lat="42.45765562787303" lon="14.130758540506708"><ele>160.0</ele><time>2026-03-29T07:53:55.999Z</time></trkpt><trkpt lat="42.457736901080544" lon="14.130632207172226"><ele>160.25</ele><time>2026-03-29T07:53:56.999Z</time></trkpt><trkpt lat="42.457820811104995" lon="14.130515189765488"><ele>160.5</ele><time>2026-03-29T07:53:57.999Z</time></trkpt><trkpt lat="42.457913621462396" lon="14.130419529369531"><ele>160.75</ele><time>2026-03-29T07:53:58.999Z</time></trkpt><trkpt lat="42.4580130652488" lon="14.130325289181023"><ele>161.0</ele><time>2026-03-29T07:53:59.999Z</time></trkpt><trkpt lat="42.458110222967626" lon="14.13022994048183"><ele>160.75</ele><time>2026-03-29T07:54:00.999Z</time></trkpt><trkpt lat="42.45820428654442" lon="14.130117665699755"><ele>160.5</ele><time>2026-03-29T07:54:01.998Z</time></trkpt><trkpt lat="42.458295907694534" lon="14.130006934847618"><ele>160.25</ele><time>2026-03-29T07:54:02.998Z</time></trkpt><trkpt lat="42.4583793019619" lon="14.129878266016043"><ele>160.0</ele><time>2026-03-29T07:54:04Z</time></trkpt><trkpt lat="42.45845781897714" lon="14.129749208353799"><ele>160.0</ele><time>2026-03-29T07:54:05.001Z</time></trkpt><trkpt lat="42.458526603388506" lon="14.129609611262277"><ele>160.0</ele><time>2026-03-29T07:54:06Z</time></trkpt><trkpt lat="42.45858045561574" lon="14.129466117868514"><ele>160.0</ele><time>2026-03-29T07:54:07Z</time></trkpt><trkpt lat="42.45863824420614" lon="14.129313905790088"><ele>160.0</ele><time>2026-03-29T07:54:08.001Z</time></trkpt><trkpt lat="42.45868457925677" lon="14.12915507902816"><ele>158.75</ele><time>2026-03-29T07:54:09Z</time></trkpt><trkpt lat="42.45871435659709" lon="14.12898031754023"><ele>157.5</ele><time>2026-03-29T07:54:10Z</time></trkpt><trkpt lat="42.45872264876241" lon="14.12879734395209"><ele>156.25</ele><time>2026-03-29T07:54:11Z</time></trkpt><trkpt lat="42.45871544887201" lon="14.128611814518996"><ele>155.0</ele><time>2026-03-29T07:54:12Z</time></trkpt><trkpt lat="42.45868534867964" lon="14.128449634721488"><ele>155.0</ele><time>2026-03-29T07:54:13Z</time></trkpt><trkpt lat="42.45864464526349" lon="14.128303184690315"><ele>155.0</ele><time>2026-03-29T07:54:14Z</time></trkpt><trkpt lat="42.4586043134284" lon="14.12816543091881"><ele>155.0</ele><time>2026-03-29T07:54:15Z</time></trkpt><trkpt lat="42.45855353595226" lon="14.128041411822203"><ele>155.0</ele><time>2026-03-29T07:54:16Z</time></trkpt><trkpt lat="42.4585212990305" lon="14.127907988864083"><ele>155.0</ele><time>2026-03-29T07:54:17Z</time></trkpt><trkpt lat="42.45847632457458" lon="14.12778831107363"><ele>157.0</ele><time>2026-03-29T07:54:18Z</time></trkpt><trkpt lat="42.45842352025005" lon="14.127647797866278"><ele>159.0</ele><time>2026-03-29T07:54:19Z</time></trkpt><trkpt lat="42.45835620119811" lon="14.127504219018196"><ele>161.0</ele><time>2026-03-29T07:54:20Z</time></trkpt><trkpt lat="42.458293982902354" lon="14.127363622237572"><ele>163.0</ele><time>2026-03-29T07:54:21Z</time></trkpt><trkpt lat="42.4582265715501" lon="14.127252761960907"><ele>161.6</ele><time>2026-03-29T07:54:22Z</time></trkpt><trkpt lat="42.45814763476169" lon="14.127168329713259"><ele>160.20000000000002</ele><time>2026-03-29T07:54:23Z</time></trkpt><trkpt lat="42.458058359370106" lon="14.127101538614504"><ele>158.8</ele><time>2026-03-29T07:54:24Z</time></trkpt><trkpt lat="42.45797696161058" lon="14.127035001615738"><ele>157.4</ele><time>2026-03-29T07:54:25Z</time></trkpt><trkpt lat="42.4579134376647" lon="14.126915582824012"><ele>156.0</ele><time>2026-03-29T07:54:26Z</time></trkpt><trkpt lat="42.45784739525189" lon="14.126797426235353"><ele>156.0</ele><time>2026-03-29T07:54:27Z</time></trkpt><trkpt lat="42.45776798708119" lon="14.126681276182634"><ele>156.0</ele><time>2026-03-29T07:54:28Z</time></trkpt><trkpt lat="42.457701758361715" lon="14.126546984559404"><ele>156.0</ele><time>2026-03-29T07:54:29Z</time></trkpt><trkpt lat="42.457641480020534" lon="14.126411993148956"><ele>156.0</ele><time>2026-03-29T07:54:30Z</time></trkpt><trkpt lat="42.457573507201914" lon="14.126283589341872"><ele>158.2</ele><time>2026-03-29T07:54:31Z</time></trkpt><trkpt lat="42.45750949461136" lon="14.126150295324175"><ele>160.39999999999998</ele><time>2026-03-29T07:54:32Z</time></trkpt><trkpt lat="42.457447571906116" lon="14.126026879826407"><ele>162.6</ele><time>2026-03-29T07:54:33Z</time></trkpt><trkpt lat="42.45739195640368" lon="14.125904559283041"><ele>164.79999999999998</ele><time>2026-03-29T07:54:34Z</time></trkpt><trkpt lat="42.45734598191384" lon="14.12577264803033"><ele>167.0</ele><time>2026-03-29T07:54:35Z</time></trkpt><trkpt lat="42.45730653362234" lon="14.12562525104798"><ele>167.8</ele><time>2026-03-29T07:54:36Z</time></trkpt><trkpt lat="42.457276830797696" lon="14.125468201564114"><ele>168.6</ele><time>2026-03-29T07:54:37Z</time></trkpt><trkpt lat="42.457250458876466" lon="14.12532482452843"><ele>169.4</ele><time>2026-03-29T07:54:38Z</time></trkpt><trkpt lat="42.4572356247393" lon="14.12518563212469"><ele>170.20000000000002</ele><time>2026-03-29T07:54:39Z</time></trkpt><trkpt lat="42.457231037420726" lon="14.12504004936347"><ele>171.0</ele><time>2026-03-29T07:54:40Z</time></trkpt><trkpt lat="42.457230653170086" lon="14.124887572422702"><ele>171.0</ele><time>2026-03-29T07:54:41Z</time></trkpt><trkpt lat="42.45723189088408" lon="14.124728642308414"><ele>171.0</ele><time>2026-03-29T07:54:42Z</time></trkpt><trkpt lat="42.45724094011382" lon="14.124573036821289"><ele>171.0</ele><time>2026-03-29T07:54:43Z</time></trkpt><trkpt lat="42.45726139381718" lon="14.124403125595542"><ele>171.0</ele><time>2026-03-29T07:54:44Z</time></trkpt><trkpt lat="42.457304727209106" lon="14.124227651973314"><ele>169.25</ele><time>2026-03-29T07:54:45Z</time></trkpt><trkpt lat="42.457352854978076" lon="14.124041275834117"><ele>167.5</ele><time>2026-03-29T07:54:46Z</time></trkpt><trkpt lat="42.45739624546978" lon="14.123866083521284"><ele>165.75</ele><time>2026-03-29T07:54:47Z</time></trkpt><trkpt lat="42.457450138899" lon="14.123689784549537"><ele>164.0</ele><time>2026-03-29T07:54:48Z</time></trkpt><trkpt lat="42.45750296148154" lon="14.123515989177031"><ele>164.0</ele><time>2026-03-29T07:54:49Z</time></trkpt><trkpt lat="42.45755854243371" lon="14.123335449736016"><ele>164.0</ele><time>2026-03-29T07:54:50Z</time></trkpt><trkpt lat="42.457614807552865" lon="14.123154927780792"><ele>164.0</ele><time>2026-03-29T07:54:51Z</time></trkpt><trkpt lat="42.45766960601332" lon="14.122964010097132"><ele>164.0</ele><time>2026-03-29T07:54:52Z</time></trkpt><trkpt lat="42.457720449857504" lon="14.122780837034268"><ele>163.5</ele><time>2026-03-29T07:54:53Z</time></trkpt><trkpt lat="42.457774814561795" lon="14.122601197735834"><ele>163.0</ele><time>2026-03-29T07:54:54Z</time></trkpt><trkpt lat="42.45782809228502" lon="14.122441723827786"><ele>162.5</ele><time>2026-03-29T07:54:55Z</time></trkpt><trkpt lat="42.457889511946775" lon="14.122278635202413"><ele>162.0</ele><time>2026-03-29T07:54:56Z</time></trkpt><trkpt lat="42.45796624303953" lon="14.122119155741855"><ele>161.5</ele><time>2026-03-29T07:54:57Z</time></trkpt><trkpt lat="42.45806992090094" lon="14.121984145945415"><ele>161.0</ele><time>2026-03-29T07:54:58Z</time></trkpt><trkpt lat="42.45817681383056" lon="14.121850018546747"><ele>160.5</ele><time>2026-03-29T07:54:59Z</time></trkpt><trkpt lat="42.45827439549283" lon="14.121711779155829"><ele>160.0</ele><time>2026-03-29T07:55:00Z</time></trkpt><trkpt lat="42.458393422709634" lon="14.12160447075036"><ele>160.0</ele><time>2026-03-29T07:55:01Z</time></trkpt><trkpt lat="42.45849832137276" lon="14.1214665230902"><ele>160.0</ele><time>2026-03-29T07:55:02Z</time></trkpt><trkpt lat="42.45862546096082" lon="14.121348390485629"><ele>160.0</ele><time>2026-03-29T07:55:03Z</time></trkpt><trkpt lat="42.458742945734976" lon="14.121223845913581"><ele>160.0</ele><time>2026-03-29T07:55:04Z</time></trkpt><trkpt lat="42.458858132413575" lon="14.121100613192443"><ele>160.0</ele><time>2026-03-29T07:55:05Z</time></trkpt><trkpt lat="42.458971336974315" lon="14.120976717485327"><ele>160.0</ele><time>2026-03-29T07:55:06Z</time></trkpt><trkpt lat="42.45908485536564" lon="14.12085543737086"><ele>160.0</ele><time>2026-03-29T07:55:07Z</time></trkpt><trkpt lat="42.459196248362254" lon="14.120731544217314"><ele>160.0</ele><time>2026-03-29T07:55:08Z</time></trkpt><trkpt lat="42.45930932974532" lon="14.120609907562212"><ele>160.0</ele><time>2026-03-29T07:55:09Z</time></trkpt><trkpt lat="42.459427213592065" lon="14.120518005460365"><ele>160.0</ele><time>2026-03-29T07:55:10Z</time></trkpt><trkpt lat="42.45953377074389" lon="14.1204108128506"><ele>160.0</ele><time>2026-03-29T07:55:11Z</time></trkpt><trkpt lat="42.45963590930905" lon="14.12030806515474"><ele>160.0</ele><time>2026-03-29T07:55:11.999Z</time></trkpt><trkpt lat="42.45970950719275" lon="14.120207338004883"><ele>160.0</ele><time>2026-03-29T07:55:12.999Z</time></trkpt><trkpt lat="42.45977832420527" lon="14.120139873486444"><ele>160.0</ele><time>2026-03-29T07:55:13.999Z</time></trkpt><trkpt lat="42.45983641074008" lon="14.120092298127766"><ele>160.0</ele><time>2026-03-29T07:55:14.999Z</time></trkpt><trkpt lat="42.45989862393225" lon="14.120066361106733"><ele>160.0</ele><time>2026-03-29T07:55:15.999Z</time></trkpt><trkpt lat="42.45997576752422" lon="14.12005272433159"><ele>160.0</ele><time>2026-03-29T07:55:16.999Z</time></trkpt><trkpt lat="42.46005530103112" lon="14.120038707939809"><ele>160.0</ele><time>2026-03-29T07:55:17.999Z</time></trkpt><trkpt lat="42.460117451060825" lon="14.1199788521154"><ele>160.0</ele><time>2026-03-29T07:55:18.999Z</time></trkpt><trkpt lat="42.46017341806262" lon="14.119889591196657"><ele>160.0</ele><time>2026-03-29T07:55:19.999Z</time></trkpt><trkpt lat="42.46019339543402" lon="14.119760678950811"><ele>160.0</ele><time>2026-03-29T07:55:20.999Z</time></trkpt><trkpt lat="42.460118583885084" lon="14.119624052973036"><ele>160.0</ele><time>2026-03-29T07:55:21.999Z</time></trkpt><trkpt lat="42.46022432803098" lon="14.119471430228856"><ele>160.0</ele><time>2026-03-29T07:55:22.999Z</time></trkpt><trkpt lat="42.46029079162696" lon="14.119321205135586"><ele>160.0</ele><time>2026-03-29T07:55:23.999Z</time></trkpt><trkpt lat="42.4603438475885" lon="14.119151381113156"><ele>160.0</ele><time>2026-03-29T07:55:24.999Z</time></trkpt><trkpt lat="42.46039829691553" lon="14.118982159576253"><ele>160.0</ele><time>2026-03-29T07:55:25.999Z</time></trkpt><trkpt lat="42.460447730011666" lon="14.118808303309908"><ele>160.25</ele><time>2026-03-29T07:55:26.999Z</time></trkpt><trkpt lat="42.46048808173533" lon="14.118642188922694"><ele>160.5</ele><time>2026-03-29T07:55:27.999Z</time></trkpt><trkpt lat="42.46051294915164" lon="14.118473148120028"><ele>160.75</ele><time>2026-03-29T07:55:28.999Z</time></trkpt><trkpt lat="42.460513537701345" lon="14.118295032067364"><ele>161.0</ele><time>2026-03-29T07:55:29.999Z</time></trkpt><trkpt lat="42.46048987506412" lon="14.118129512077173"><ele>160.75</ele><time>2026-03-29T07:55:30.999Z</time></trkpt><trkpt lat="42.46044061981927" lon="14.117978389365112"><ele>160.5</ele><time>2026-03-29T07:55:31.999Z</time></trkpt><trkpt lat="42.46036715782278" lon="14.117836390507529"><ele>160.25</ele><time>2026-03-29T07:55:32.999Z</time></trkpt><trkpt lat="42.460252262043724" lon="14.117723707903965"><ele>160.0</ele><time>2026-03-29T07:55:33.999Z</time></trkpt><trkpt lat="42.46012887105932" lon="14.117639199388499"><ele>160.0</ele><time>2026-03-29T07:55:34.999Z</time></trkpt><trkpt lat="42.46000175103326" lon="14.11755284267867"><ele>160.0</ele><time>2026-03-29T07:55:35.999Z</time></trkpt><trkpt lat="42.45987934122607" lon="14.117452489978698"><ele>160.0</ele><time>2026-03-29T07:55:36.999Z</time></trkpt><trkpt lat="42.45977114921514" lon="14.117356438939295"><ele>160.0</ele><time>2026-03-29T07:55:37.999Z</time></trkpt><trkpt lat="42.45966869544173" lon="14.117271009746254"><ele>160.75</ele><time>2026-03-29T07:55:38.999Z</time></trkpt><trkpt lat="42.45956669564271" lon="14.117189839518833"><ele>161.5</ele><time>2026-03-29T07:55:39.999Z</time></trkpt><trkpt lat="42.45946520242302" lon="14.117107930052697"><ele>162.25</ele><time>2026-03-29T07:55:40.999Z</time></trkpt><trkpt lat="42.459360819652474" lon="14.117026083493876"><ele>163.0</ele><time>2026-03-29T07:55:41.999Z</time></trkpt><trkpt lat="42.45925791661595" lon="14.11694337117097"><ele>163.0</ele><time>2026-03-29T07:55:42.999Z</time></trkpt><trkpt lat="42.45914514477638" lon="14.116856710832792"><ele>163.0</ele><time>2026-03-29T07:55:43.999Z</time></trkpt><trkpt lat="42.45902968058099" lon="14.116768008793391"><ele>163.0</ele><time>2026-03-29T07:55:44.999Z</time></trkpt><trkpt lat="42.458917101914196" lon="14.116663822349441"><ele>163.0</ele><time>2026-03-29T07:55:45.999Z</time></trkpt><trkpt lat="42.458809811285946" lon="14.116539933086646"><ele>164.0</ele><time>2026-03-29T07:55:46.999Z</time></trkpt><trkpt lat="42.45869509447128" lon="14.116415364353418"><ele>165.0</ele><time>2026-03-29T07:55:47.999Z</time></trkpt><trkpt lat="42.45857641613905" lon="14.116296173699224"><ele>166.0</ele><time>2026-03-29T07:55:48.999Z</time></trkpt><trkpt lat="42.458464787309" lon="14.11616048449524"><ele>167.0</ele><time>2026-03-29T07:55:49.999Z</time></trkpt><trkpt lat="42.45836021354082" lon="14.116031451849413"><ele>167.0</ele><time>2026-03-29T07:55:50.999Z</time></trkpt><trkpt lat="42.45825524721943" lon="14.115905776431093"><ele>167.0</ele><time>2026-03-29T07:55:51.999Z</time></trkpt><trkpt lat="42.458152068148145" lon="14.115791364913475"><ele>167.0</ele><time>2026-03-29T07:55:52.999Z</time></trkpt><trkpt lat="42.458044695645576" lon="14.115675833609837"><ele>167.0</ele><time>2026-03-29T07:55:53.999Z</time></trkpt><trkpt lat="42.45794574499983" lon="14.11557412946543"><ele>167.0</ele><time>2026-03-29T07:55:54.999Z</time></trkpt><trkpt lat="42.45787391838549" lon="14.115454108980932"><ele>167.0</ele><time>2026-03-29T07:55:55.999Z</time></trkpt><trkpt lat="42.45781915135799" lon="14.11531405869717"><ele>167.0</ele><time>2026-03-29T07:55:56.999Z</time></trkpt><trkpt lat="42.45780831638995" lon="14.115156661897803"><ele>167.0</ele><time>2026-03-29T07:55:57.999Z</time></trkpt><trkpt lat="42.45782798390191" lon="14.11500358880257"><ele>167.25</ele><time>2026-03-29T07:55:58.999Z</time></trkpt><trkpt lat="42.45786901621157" lon="14.114856672998576"><ele>167.5</ele><time>2026-03-29T07:55:59.999Z</time></trkpt><trkpt lat="42.4578923592402" lon="14.114692388392783"><ele>167.75</ele><time>2026-03-29T07:56:00.999Z</time></trkpt><trkpt lat="42.45792943866727" lon="14.114531614786703"><ele>168.0</ele><time>2026-03-29T07:56:01.999Z</time></trkpt><trkpt lat="42.457944655583425" lon="14.114360612503583"><ele>168.0</ele><time>2026-03-29T07:56:02.999Z</time></trkpt><trkpt lat="42.457941752835296" lon="14.11418088841158"><ele>168.0</ele><time>2026-03-29T07:56:03.999Z</time></trkpt><trkpt lat="42.45792401557327" lon="14.114004266059302"><ele>168.0</ele><time>2026-03-29T07:56:04.999Z</time></trkpt><trkpt lat="42.45791653144633" lon="14.113844694562038"><ele>168.0</ele><time>2026-03-29T07:56:05.999Z</time></trkpt><trkpt lat="42.457938888119244" lon="14.113700614600635"><ele>169.75</ele><time>2026-03-29T07:56:06.999Z</time></trkpt><trkpt lat="42.45794365564181" lon="14.113544436039474"><ele>171.5</ele><time>2026-03-29T07:56:07.999Z</time></trkpt><trkpt lat="42.45801128696149" lon="14.113399745843052"><ele>173.25</ele><time>2026-03-29T07:56:08.999Z</time></trkpt><trkpt lat="42.45806056309746" lon="14.113244744892839"><ele>175.0</ele><time>2026-03-29T07:56:10.001Z</time></trkpt><trkpt lat="42.45810801200784" lon="14.113099048848214"><ele>175.0</ele><time>2026-03-29T07:56:11.001Z</time></trkpt><trkpt lat="42.458133309905804" lon="14.112934921988762"><ele>175.0</ele><time>2026-03-29T07:56:12.001Z</time></trkpt><trkpt lat="42.458125649980424" lon="14.112751344258953"><ele>175.0</ele><time>2026-03-29T07:56:13.001Z</time></trkpt><trkpt lat="42.458097943066036" lon="14.112560299119016"><ele>175.0</ele><time>2026-03-29T07:56:14.001Z</time></trkpt><trkpt lat="42.45805879975146" lon="14.112369242978458"><ele>175.5</ele><time>2026-03-29T07:56:15.001Z</time></trkpt><trkpt lat="42.45801318850769" lon="14.11218427297037"><ele>176.0</ele><time>2026-03-29T07:56:16.001Z</time></trkpt><trkpt lat="42.45796943114123" lon="14.112011336056801"><ele>176.5</ele><time>2026-03-29T07:56:17.001Z</time></trkpt><trkpt lat="42.457923090688325" lon="14.111841767488029"><ele>177.0</ele><time>2026-03-29T07:56:18.001Z</time></trkpt><trkpt lat="42.457880481545345" lon="14.111676656799853"><ele>176.6</ele><time>2026-03-29T07:56:19.001Z</time></trkpt><trkpt lat="42.45784240332524" lon="14.111511429086933"><ele>176.2</ele><time>2026-03-29T07:56:20.001Z</time></trkpt><trkpt lat="42.457806626369205" lon="14.111366354965583"><ele>175.8</ele><time>2026-03-29T07:56:21.001Z</time></trkpt><trkpt lat="42.45777275846742" lon="14.1112286084737"><ele>175.4</ele><time>2026-03-29T07:56:22.001Z</time></trkpt><trkpt lat="42.45774088381968" lon="14.111105555546626"><ele>175.0</ele><time>2026-03-29T07:56:23.001Z</time></trkpt><trkpt lat="42.457716065550876" lon="14.111013958040983"><ele>175.0</ele><time>2026-03-29T07:56:24.001Z</time></trkpt><trkpt lat="42.4576986671826" lon="14.110898024058757"><ele>175.0</ele><time>2026-03-29T07:56:26.001Z</time></trkpt><trkpt lat="42.45778477169647" lon="14.11080836092644"><ele>175.0</ele><time>2026-03-29T07:56:28Z</time></trkpt><trkpt lat="42.45784537709273" lon="14.110860843393917"><ele>175.0</ele><time>2026-03-29T07:56:29Z</time></trkpt><trkpt lat="42.45787556671539" lon="14.110960848854686"><ele>175.0</ele><time>2026-03-29T07:56:30Z</time></trkpt><trkpt lat="42.457895932415326" lon="14.111069738741877"><ele>175.0</ele><time>2026-03-29T07:56:31Z</time></trkpt><trkpt lat="42.45792122302908" lon="14.11115487109004"><ele>172.4</ele><time>2026-03-29T07:56:32Z</time></trkpt><trkpt lat="42.45801099755219" lon="14.11127390911106"><ele>169.8</ele><time>2026-03-29T07:56:34Z</time></trkpt><trkpt lat="42.45806953187905" lon="14.11131311506713"><ele>167.2</ele><time>2026-03-29T07:56:35Z</time></trkpt><trkpt lat="42.4581402539225" lon="14.11132166907921"><ele>164.6</ele><time>2026-03-29T07:56:36Z</time></trkpt><trkpt lat="42.45822673649536" lon="14.111297470523079"><ele>162.0</ele><time>2026-03-29T07:56:37Z</time></trkpt><trkpt lat="42.458315645259866" lon="14.11121642939739"><ele>162.0</ele><time>2026-03-29T07:56:38Z</time></trkpt><trkpt lat="42.458398493999475" lon="14.11108893860754"><ele>162.0</ele><time>2026-03-29T07:56:39Z</time></trkpt><trkpt lat="42.458468808273345" lon="14.110943345984614"><ele>162.0</ele><time>2026-03-29T07:56:40Z</time></trkpt><trkpt lat="42.458553481630716" lon="14.11081674155285"><ele>162.0</ele><time>2026-03-29T07:56:41Z</time></trkpt><trkpt lat="42.458637767215436" lon="14.110673642638055"><ele>161.0</ele><time>2026-03-29T07:56:42Z</time></trkpt><trkpt lat="42.45871233950003" lon="14.110517613615041"><ele>160.0</ele><time>2026-03-29T07:56:43Z</time></trkpt><trkpt lat="42.458799602607904" lon="14.110371362964344"><ele>159.0</ele><time>2026-03-29T07:56:44Z</time></trkpt><trkpt lat="42.45888241507503" lon="14.110234246319994"><ele>158.0</ele><time>2026-03-29T07:56:45Z</time></trkpt><trkpt lat="42.45896421914934" lon="14.110098212786214"><ele>157.75</ele><time>2026-03-29T07:56:46Z</time></trkpt><trkpt lat="42.45906474575112" lon="14.1099777676628"><ele>157.5</ele><time>2026-03-29T07:56:47Z</time></trkpt><trkpt lat="42.45915951307106" lon="14.109842332136058"><ele>157.25</ele><time>2026-03-29T07:56:48Z</time></trkpt><trkpt lat="42.4592412137405" lon="14.109705945889539"><ele>157.0</ele><time>2026-03-29T07:56:49Z</time></trkpt><trkpt lat="42.45933944260852" lon="14.109592170111162"><ele>155.75</ele><time>2026-03-29T07:56:50Z</time></trkpt><trkpt lat="42.45945057433597" lon="14.109478268086516"><ele>154.5</ele><time>2026-03-29T07:56:51Z</time></trkpt><trkpt lat="42.45957128000531" lon="14.109363558648937"><ele>153.25</ele><time>2026-03-29T07:56:52Z</time></trkpt><trkpt lat="42.45968906946285" lon="14.109254378219289"><ele>152.0</ele><time>2026-03-29T07:56:53Z</time></trkpt><trkpt lat="42.459800836077456" lon="14.109133871292013"><ele>153.66666666666666</ele><time>2026-03-29T07:56:54Z</time></trkpt><trkpt lat="42.45990374275634" lon="14.108964649175903"><ele>155.33333333333334</ele><time>2026-03-29T07:56:55Z</time></trkpt><trkpt lat="42.45999326750182" lon="14.108761545681107"><ele>157.0</ele><time>2026-03-29T07:56:56Z</time></trkpt><trkpt lat="42.460057411336344" lon="14.10854580927426"><ele>157.0</ele><time>2026-03-29T07:56:57Z</time></trkpt><trkpt lat="42.46012164719319" lon="14.10833496001221"><ele>157.0</ele><time>2026-03-29T07:56:58Z</time></trkpt><trkpt lat="42.4601964573536" lon="14.108141720827875"><ele>157.0</ele><time>2026-03-29T07:56:59Z</time></trkpt><trkpt lat="42.46027208138952" lon="14.107951202082187"><ele>158.0</ele><time>2026-03-29T07:57:00Z</time></trkpt><trkpt lat="42.46032827787176" lon="14.10773751148818"><ele>159.0</ele><time>2026-03-29T07:57:01Z</time></trkpt><trkpt lat="42.46036491667639" lon="14.107505688001437"><ele>160.0</ele><time>2026-03-29T07:57:02Z</time></trkpt><trkpt lat="42.460385133879534" lon="14.107289499754994"><ele>154.66666666666669</ele><time>2026-03-29T07:57:03Z</time></trkpt><trkpt lat="42.46045442008061" lon="14.107095600998804"><ele>149.33333333333334</ele><time>2026-03-29T07:57:04Z</time></trkpt><trkpt lat="42.46052996281332" lon="14.106914955504356"><ele>144.0</ele><time>2026-03-29T07:57:05Z</time></trkpt><trkpt lat="42.4606008873443" lon="14.106749338589989"><ele>144.0</ele><time>2026-03-29T07:57:06Z</time></trkpt><trkpt lat="42.460688533491115" lon="14.106615645509498"><ele>144.0</ele><time>2026-03-29T07:57:07Z</time></trkpt><trkpt lat="42.46079537410563" lon="14.106512631801918"><ele>144.0</ele><time>2026-03-29T07:57:08Z</time></trkpt><trkpt lat="42.46093211924786" lon="14.106473872571932"><ele>144.0</ele><time>2026-03-29T07:57:09Z</time></trkpt><trkpt lat="42.46106123653483" lon="14.106406957742893"><ele>142.33333333333334</ele><time>2026-03-29T07:57:10Z</time></trkpt><trkpt lat="42.461198369236776" lon="14.106353242686295"><ele>140.66666666666669</ele><time>2026-03-29T07:57:11Z</time></trkpt><trkpt lat="42.461334012143965" lon="14.10624048865527"><ele>139.0</ele><time>2026-03-29T07:57:12Z</time></trkpt><trkpt lat="42.46146816912901" lon="14.106097624686953"><ele>139.0</ele><time>2026-03-29T07:57:13Z</time></trkpt><trkpt lat="42.46159709055145" lon="14.105944234274425"><ele>139.0</ele><time>2026-03-29T07:57:14Z</time></trkpt><trkpt lat="42.46172944623344" lon="14.105805302888363"><ele>139.0</ele><time>2026-03-29T07:57:15Z</time></trkpt><trkpt lat="42.46185880659204" lon="14.10567998356088"><ele>137.5</ele><time>2026-03-29T07:57:16Z</time></trkpt><trkpt lat="42.461987190590364" lon="14.105557173613994"><ele>136.0</ele><time>2026-03-29T07:57:17Z</time></trkpt><trkpt lat="42.46210452819368" lon="14.10543968936063"><ele>134.5</ele><time>2026-03-29T07:57:18Z</time></trkpt><trkpt lat="42.46220793215235" lon="14.105340276683304"><ele>133.0</ele><time>2026-03-29T07:57:19Z</time></trkpt><trkpt lat="42.46230695215802" lon="14.105247685625665"><ele>133.0</ele><time>2026-03-29T07:57:20Z</time></trkpt><trkpt lat="42.46239113888358" lon="14.105161941070069"><ele>133.0</ele><time>2026-03-29T07:57:21Z</time></trkpt><trkpt lat="42.46245911315922" lon="14.105083596889381"><ele>133.0</ele><time>2026-03-29T07:57:22Z</time></trkpt><trkpt lat="42.46251534296659" lon="14.105007225940756"><ele>133.0</ele><time>2026-03-29T07:57:23Z</time></trkpt><trkpt lat="42.46256690294691" lon="14.104922098609999"><ele>133.0</ele><time>2026-03-29T07:57:23.999Z</time></trkpt><trkpt lat="42.462625977423194" lon="14.104830174058687"><ele>133.0</ele><time>2026-03-29T07:57:24.999Z</time></trkpt><trkpt lat="42.46271998647062" lon="14.104810368285827"><ele>132.66666666666669</ele><time>2026-03-29T07:57:25.999Z</time></trkpt><trkpt lat="42.46279265945368" lon="14.104766823161034"><ele>132.33333333333334</ele><time>2026-03-29T07:57:26.999Z</time></trkpt><trkpt lat="42.46286352174789" lon="14.104705909882544"><ele>132.0</ele><time>2026-03-29T07:57:27.999Z</time></trkpt><trkpt lat="42.462924354863816" lon="14.10463477308604"><ele>131.66666666666666</ele><time>2026-03-29T07:57:28.999Z</time></trkpt><trkpt lat="42.462984471476375" lon="14.104564360543701"><ele>131.33333333333331</ele><time>2026-03-29T07:57:29.999Z</time></trkpt><trkpt lat="42.46304120122608" lon="14.104499080453778"><ele>131.0</ele><time>2026-03-29T07:57:30.999Z</time></trkpt><trkpt lat="42.46309547201339" lon="14.104442822290295"><ele>130.6</ele><time>2026-03-29T07:57:31.999Z</time></trkpt><trkpt lat="42.46318008011577" lon="14.104342484868846"><ele>130.2</ele><time>2026-03-29T07:57:33.999Z</time></trkpt><trkpt lat="42.46325646681241" lon="14.104264861164479"><ele>129.8</ele><time>2026-03-29T07:57:35.999Z</time></trkpt><trkpt lat="42.46333883325937" lon="14.104182191522773"><ele>129.4</ele><time>2026-03-29T07:57:37.999Z</time></trkpt><trkpt lat="42.46344699921532" lon="14.104118951984109"><ele>129.0</ele><time>2026-03-29T07:57:39.999Z</time></trkpt><trkpt lat="42.46350887587267" lon="14.104100626270155"><ele>129.0</ele><time>2026-03-29T07:57:40.999Z</time></trkpt><trkpt lat="42.463575298030854" lon="14.104115025895346"><ele>129.0</ele><time>2026-03-29T07:57:41.999Z</time></trkpt><trkpt lat="42.46363746587244" lon="14.1040763198597"><ele>129.0</ele><time>2026-03-29T07:57:42.999Z</time></trkpt><trkpt lat="42.46371846977816" lon="14.104079255846942"><ele>129.0</ele><time>2026-03-29T07:57:43.999Z</time></trkpt><trkpt lat="42.46380210435192" lon="14.104061730653056"><ele>129.0</ele><time>2026-03-29T07:57:44.999Z</time></trkpt><trkpt lat="42.463893161348416" lon="14.104044944645283"><ele>129.0</ele><time>2026-03-29T07:57:45.999Z</time></trkpt><trkpt lat="42.46398385802539" lon="14.104029580378077"><ele>127.5</ele><time>2026-03-29T07:57:46.999Z</time></trkpt><trkpt lat="42.46406691556031" lon="14.10401716966035"><ele>126.0</ele><time>2026-03-29T07:57:47.999Z</time></trkpt><trkpt lat="42.464152001971115" lon="14.10400459069175"><ele>124.5</ele><time>2026-03-29T07:57:48.999Z</time></trkpt><trkpt lat="42.46424024440729" lon="14.103970207650866"><ele>123.0</ele><time>2026-03-29T07:57:49.999Z</time></trkpt><trkpt lat="42.46433595696346" lon="14.103970463125572"><ele>121.5</ele><time>2026-03-29T07:57:50.999Z</time></trkpt><trkpt lat="42.46440199873577" lon="14.103931190044744"><ele>120.0</ele><time>2026-03-29T07:57:51.999Z</time></trkpt><trkpt lat="42.46446573993425" lon="14.103912659133144"><ele>120.0</ele><time>2026-03-29T07:57:52.999Z</time></trkpt><trkpt lat="42.46457233529802" lon="14.103859488184794"><ele>120.0</ele><time>2026-03-29T07:57:54.999Z</time></trkpt><trkpt lat="42.464678593438414" lon="14.103811474825019"><ele>120.0</ele><time>2026-03-29T07:57:56.999Z</time></trkpt><trkpt lat="42.464781640750445" lon="14.103748353016766"><ele>120.0</ele><time>2026-03-29T07:57:58.999Z</time></trkpt><trkpt lat="42.464808137060125" lon="14.103663698258913"><ele>120.0</ele><time>2026-03-29T07:57:59.999Z</time></trkpt><trkpt lat="42.46474366582483" lon="14.103491445068148"><ele>120.0</ele><time>2026-03-29T07:58:01.999Z</time></trkpt><trkpt lat="42.46468493104712" lon="14.10344046242019"><ele>120.0</ele><time>2026-03-29T07:58:02.999Z</time></trkpt><trkpt lat="42.464622731971886" lon="14.10341875781854"><ele>120.0</ele><time>2026-03-29T07:58:03.999Z</time></trkpt><trkpt lat="42.46455819767966" lon="14.10339284341333"><ele>120.0</ele><time>2026-03-29T07:58:04.999Z</time></trkpt><trkpt lat="42.4644954298789" lon="14.10337071313151"><ele>120.0</ele><time>2026-03-29T07:58:05.999Z</time></trkpt><trkpt lat="42.464401912684934" lon="14.10328758229392"><ele>120.0</ele><time>2026-03-29T07:58:07.999Z</time></trkpt><trkpt lat="42.46439090099309" lon="14.103137743649809"><ele>119.6</ele><time>2026-03-29T07:58:09.999Z</time></trkpt><trkpt lat="42.464509223662105" lon="14.103075605102774"><ele>119.2</ele><time>2026-03-29T07:58:11.999Z</time></trkpt><trkpt lat="42.46457327866765" lon="14.103104962704576"><ele>118.80000000000001</ele><time>2026-03-29T07:58:12.999Z</time></trkpt><trkpt lat="42.464671571106585" lon="14.10319509468095"><ele>118.4</ele><time>2026-03-29T07:58:15.001Z</time></trkpt><trkpt lat="42.46471766102249" lon="14.103253499840328"><ele>118.0</ele><time>2026-03-29T07:58:17.001Z</time></trkpt><trkpt lat="42.46475993755679" lon="14.103081073483862"><ele>117.4</ele><time>2026-03-29T07:58:19.001Z</time></trkpt><trkpt lat="42.46474152767177" lon="14.102886878840927"><ele>116.80000000000001</ele><time>2026-03-29T07:58:21.001Z</time></trkpt><trkpt lat="42.464736104136165" lon="14.102757938214669"><ele>116.2</ele><time>2026-03-29T07:58:22.001Z</time></trkpt><trkpt lat="42.46471018451135" lon="14.102635012770982"><ele>115.6</ele><time>2026-03-29T07:58:23.001Z</time></trkpt><trkpt lat="42.46469003148284" lon="14.102496574020531"><ele>115.0</ele><time>2026-03-29T07:58:24.001Z</time></trkpt><trkpt lat="42.46465144325569" lon="14.10234060361379"><ele>111.5</ele><time>2026-03-29T07:58:25.001Z</time></trkpt><trkpt lat="42.46459626770338" lon="14.102194411308064"><ele>108.0</ele><time>2026-03-29T07:58:26.001Z</time></trkpt><trkpt lat="42.464539103457284" lon="14.102049916368044"><ele>104.5</ele><time>2026-03-29T07:58:27.001Z</time></trkpt><trkpt lat="42.46448219935988" lon="14.10189092910287"><ele>101.0</ele><time>2026-03-29T07:58:28.001Z</time></trkpt><trkpt lat="42.4644573704509" lon="14.10171475753083"><ele>101.25</ele><time>2026-03-29T07:58:29.001Z</time></trkpt><trkpt lat="42.464427717264115" lon="14.101543018381525"><ele>101.5</ele><time>2026-03-29T07:58:30.001Z</time></trkpt><trkpt lat="42.46437227757485" lon="14.101381050728552"><ele>101.75</ele><time>2026-03-29T07:58:31.001Z</time></trkpt><trkpt lat="42.464306590380204" lon="14.101228384201326"><ele>102.0</ele><time>2026-03-29T07:58:32.001Z</time></trkpt><trkpt lat="42.46421995551141" lon="14.10108526443569"><ele>102.0</ele><time>2026-03-29T07:58:33Z</time></trkpt><trkpt lat="42.46414397656929" lon="14.10093789436082"><ele>102.0</ele><time>2026-03-29T07:58:34Z</time></trkpt><trkpt lat="42.46409881055148" lon="14.100769108663297"><ele>102.0</ele><time>2026-03-29T07:58:35Z</time></trkpt><trkpt lat="42.464049162577716" lon="14.100607536264153"><ele>102.0</ele><time>2026-03-29T07:58:36Z</time></trkpt><trkpt lat="42.46396997346076" lon="14.100475503722805"><ele>104.0</ele><time>2026-03-29T07:58:37Z</time></trkpt><trkpt lat="42.46385523590021" lon="14.100387244770817"><ele>106.0</ele><time>2026-03-29T07:58:38Z</time></trkpt><trkpt lat="42.46372086282746" lon="14.100325643819838"><ele>108.0</ele><time>2026-03-29T07:58:39Z</time></trkpt><trkpt lat="42.463604281185745" lon="14.100232910319496"><ele>110.0</ele><time>2026-03-29T07:58:40Z</time></trkpt><trkpt lat="42.46350327184355" lon="14.100091670443375"><ele>109.0</ele><time>2026-03-29T07:58:41Z</time></trkpt><trkpt lat="42.46341637982023" lon="14.099943119467863"><ele>108.0</ele><time>2026-03-29T07:58:42Z</time></trkpt><trkpt lat="42.4633340994047" lon="14.099798525000825"><ele>107.0</ele><time>2026-03-29T07:58:43Z</time></trkpt><trkpt lat="42.46325478524747" lon="14.099655289211155"><ele>106.0</ele><time>2026-03-29T07:58:44Z</time></trkpt><trkpt lat="42.46317023155304" lon="14.099509301563451"><ele>106.0</ele><time>2026-03-29T07:58:45Z</time></trkpt><trkpt lat="42.4630748034679" lon="14.099370355369112"><ele>106.0</ele><time>2026-03-29T07:58:46Z</time></trkpt><trkpt lat="42.46295903240104" lon="14.099251610938412"><ele>106.0</ele><time>2026-03-29T07:58:47Z</time></trkpt><trkpt lat="42.46282949278938" lon="14.099150583095115"><ele>106.0</ele><time>2026-03-29T07:58:48Z</time></trkpt><trkpt lat="42.46269056784446" lon="14.099041003671717"><ele>103.0</ele><time>2026-03-29T07:58:49Z</time></trkpt><trkpt lat="42.46255467875888" lon="14.09892984567465"><ele>100.0</ele><time>2026-03-29T07:58:50Z</time></trkpt><trkpt lat="42.46241798384461" lon="14.098803830214798"><ele>97.0</ele><time>2026-03-29T07:58:51Z</time></trkpt><trkpt lat="42.462295544014644" lon="14.098675680097443"><ele>97.0</ele><time>2026-03-29T07:58:52Z</time></trkpt><trkpt lat="42.46218099301493" lon="14.098546181362442"><ele>97.0</ele><time>2026-03-29T07:58:53Z</time></trkpt><trkpt lat="42.46206695176429" lon="14.098413600768074"><ele>97.0</ele><time>2026-03-29T07:58:54Z</time></trkpt><trkpt lat="42.461961263672755" lon="14.098279081023694"><ele>97.0</ele><time>2026-03-29T07:58:55Z</time></trkpt><trkpt lat="42.461863478193564" lon="14.098119267819417"><ele>91.33333333333334</ele><time>2026-03-29T07:58:56Z</time></trkpt><trkpt lat="42.46177197826382" lon="14.097946355406851"><ele>85.66666666666667</ele><time>2026-03-29T07:58:57Z</time></trkpt><trkpt lat="42.46168811458832" lon="14.09776670572801"><ele>80.0</ele><time>2026-03-29T07:58:58Z</time></trkpt><trkpt lat="42.4616139353001" lon="14.097588029114037"><ele>81.0</ele><time>2026-03-29T07:58:59Z</time></trkpt><trkpt lat="42.461540970795475" lon="14.09739764711934"><ele>82.0</ele><time>2026-03-29T07:59:00Z</time></trkpt><trkpt lat="42.46146545669559" lon="14.097215862662075"><ele>83.0</ele><time>2026-03-29T07:59:01Z</time></trkpt><trkpt lat="42.46138297738601" lon="14.097028939222398"><ele>83.0</ele><time>2026-03-29T07:59:02Z</time></trkpt><trkpt lat="42.4613035862156" lon="14.096834511250503"><ele>83.0</ele><time>2026-03-29T07:59:03Z</time></trkpt><trkpt lat="42.46123258333959" lon="14.096633679963007"><ele>83.0</ele><time>2026-03-29T07:59:04Z</time></trkpt><trkpt lat="42.461182523789255" lon="14.096431986733654"><ele>77.66666666666667</ele><time>2026-03-29T07:59:05Z</time></trkpt><trkpt lat="42.46118660090485" lon="14.096224120609016"><ele>72.33333333333333</ele><time>2026-03-29T07:59:06Z</time></trkpt><trkpt lat="42.461193583006896" lon="14.096008744440796"><ele>67.0</ele><time>2026-03-29T07:59:07Z</time></trkpt><trkpt lat="42.4612121729414" lon="14.09578241371956"><ele>67.5</ele><time>2026-03-29T07:59:08Z</time></trkpt><trkpt lat="42.46121811740068" lon="14.095553900191685"><ele>68.0</ele><time>2026-03-29T07:59:09Z</time></trkpt><trkpt lat="42.46372086282746" lon="14.100325643819838"><ele>74.0</ele><time>2026-03-29T07:58:39Z</time></trkpt><trkpt lat="42.463604281185745" lon="14.100232910319496"><ele>80.0</ele><time>2026-03-29T07:58:40Z</time></trkpt><trkpt lat="42.46350327184355" lon="14.100091670443375"><ele>86.0</ele><time>2026-03-29T07:58:41Z</time></trkpt><trkpt lat="42.46341637982023" lon="14.099943119467863"><ele>92.0</ele><time>2026-03-29T07:58:42Z</time></trkpt><trkpt lat="42.4633340994047" lon="14.099798525000825"><ele>95.5</ele><time>2026-03-29T07:58:43Z</time></trkpt><trkpt lat="42.46325478524747" lon="14.099655289211155"><ele>99.0</ele><time>2026-03-29T07:58:44Z</time></trkpt><trkpt lat="42.46317023155304" lon="14.099509301563451"><ele>102.5</ele><time>2026-03-29T07:58:45Z</time></trkpt><trkpt lat="42.4630748034679" lon="14.099370355369112"><ele>106.0</ele><time>2026-03-29T07:58:46Z</time></trkpt><trkpt lat="42.46295903240104" lon="14.099251610938412"><ele>103.0</ele><time>2026-03-29T07:58:47Z</time></trkpt><trkpt lat="42.46282949278938" lon="14.099150583095115"><ele>100.0</ele><time>2026-03-29T07:58:48Z</time></trkpt><trkpt lat="42.46269056784446" lon="14.099041003671717"><ele>97.0</ele><time>2026-03-29T07:58:49Z</time></trkpt><trkpt lat="42.46255467875888" lon="14.09892984567465"><ele>97.0</ele><time>2026-03-29T07:58:50Z</time></trkpt><trkpt lat="42.46241798384461" lon="14.098803830214798"><ele>97.0</ele><time>2026-03-29T07:58:51Z</time></trkpt><trkpt lat="42.462295544014644" lon="14.098675680097443"><ele>97.0</ele><time>2026-03-29T07:58:52Z</time></trkpt><trkpt lat="42.46218099301493" lon="14.098546181362442"><ele>92.75</ele><time>2026-03-29T07:58:53Z</time></trkpt><trkpt lat="42.46206695176429" lon="14.098413600768074"><ele>88.5</ele><time>2026-03-29T07:58:54Z</time></trkpt><trkpt lat="42.461961263672755" lon="14.098279081023694"><ele>84.25</ele><time>2026-03-29T07:58:55Z</time></trkpt><trkpt lat="42.461863478193564" lon="14.098119267819417"><ele>80.0</ele><time>2026-03-29T07:58:56Z</time></trkpt><trkpt lat="42.46177197826382" lon="14.097946355406851"><ele>80.0</ele><time>2026-03-29T07:58:57Z</time></trkpt><trkpt lat="42.46168811458832" lon="14.09776670572801"><ele>80.0</ele><time>2026-03-29T07:58:58Z</time></trkpt><trkpt lat="42.4616139353001" lon="14.097588029114037"><ele>80.0</ele><time>2026-03-29T07:58:59Z</time></trkpt><trkpt lat="42.461540970795475" lon="14.09739764711934"><ele>81.0</ele><time>2026-03-29T07:59:00Z</time></trkpt><trkpt lat="42.46146545669559" lon="14.097215862662075"><ele>82.0</ele><time>2026-03-29T07:59:01Z</time></trkpt><trkpt lat="42.46138297738601" lon="14.097028939222398"><ele>83.0</ele><time>2026-03-29T07:59:02Z</time></trkpt><trkpt lat="42.4613035862156" lon="14.096834511250503"><ele>78.33333333333334</ele><time>2026-03-29T07:59:03Z</time></trkpt><trkpt lat="42.46123258333959" lon="14.096633679963007"><ele>73.66666666666667</ele><time>2026-03-29T07:59:04Z</time></trkpt><trkpt lat="42.461182523789255" lon="14.096431986733654"><ele>69.0</ele><time>2026-03-29T07:59:05Z</time></trkpt><trkpt lat="42.46118660090485" lon="14.096224120609016"><ele>68.66666666666667</ele><time>2026-03-29T07:59:06Z</time></trkpt><trkpt lat="42.461193583006896" lon="14.096008744440796"><ele>68.33333333333334</ele><time>2026-03-29T07:59:07Z</time></trkpt><trkpt lat="42.4612121729414" lon="14.09578241371956"><ele>68.0</ele><time>2026-03-29T07:59:08Z</time></trkpt><trkpt lat="42.46121811740068" lon="14.095553900191685"><ele>68.0</ele><time>2026-03-29T07:59:09Z</time></trkpt><trkpt lat="42.46123377730125" lon="14.09533701242432"><ele>68.0</ele><time>2026-03-29T07:59:10Z</time></trkpt><trkpt lat="42.4612645825304" lon="14.095122937467403"><ele>68.0</ele><time>2026-03-29T07:59:11Z</time></trkpt><trkpt lat="42.46128107454797" lon="14.09492049297981"><ele>68.0</ele><time>2026-03-29T07:59:12Z</time></trkpt><trkpt lat="42.46128152996888" lon="14.094718191672682"><ele>68.0</ele><time>2026-03-29T07:59:13Z</time></trkpt><trkpt lat="42.46128417423609" lon="14.094534633850953"><ele>68.0</ele><time>2026-03-29T07:59:14Z</time></trkpt><trkpt lat="42.461270060652986" lon="14.094370538138909"><ele>68.0</ele><time>2026-03-29T07:59:15Z</time></trkpt><trkpt lat="42.46123422845657" lon="14.094224283026833"><ele>68.0</ele><time>2026-03-29T07:59:16Z</time></trkpt><trkpt lat="42.46119015823428" lon="14.094107825817114"><ele>68.0</ele><time>2026-03-29T07:59:17Z</time></trkpt><trkpt lat="42.46117014763147" lon="14.094016125191125"><ele>68.0</ele><time>2026-03-29T07:59:18Z</time></trkpt><trkpt lat="42.4611907012908" lon="14.093930040442158"><ele>68.0</ele><time>2026-03-29T07:59:19Z</time></trkpt><trkpt lat="42.46125608857847" lon="14.093837767148552"><ele>68.0</ele><time>2026-03-29T07:59:20Z</time></trkpt><trkpt lat="42.461333287699226" lon="14.093739374307852"><ele>68.0</ele><time>2026-03-29T07:59:21Z</time></trkpt><trkpt lat="42.46139702138884" lon="14.093629137915181"><ele>65.25</ele><time>2026-03-29T07:59:22Z</time></trkpt><trkpt lat="42.46154337016257" lon="14.093644857905977"><ele>62.5</ele><time>2026-03-29T07:59:23Z</time></trkpt><trkpt lat="42.46167364297981" lon="14.093607820097558"><ele>59.75</ele><time>2026-03-29T07:59:24Z</time></trkpt><trkpt lat="42.46181360747598" lon="14.093612479030183"><ele>57.0</ele><time>2026-03-29T07:59:25Z</time></trkpt><trkpt lat="42.461957670692584" lon="14.09359949215294"><ele>57.0</ele><time>2026-03-29T07:59:26Z</time></trkpt><trkpt lat="42.462105019703664" lon="14.093574711454561"><ele>57.0</ele><time>2026-03-29T07:59:27Z</time></trkpt><trkpt lat="42.46226223319097" lon="14.093557582212695"><ele>57.0</ele><time>2026-03-29T07:59:28Z</time></trkpt><trkpt lat="42.462421658259444" lon="14.093534408615078"><ele>56.0</ele><time>2026-03-29T07:59:29Z</time></trkpt><trkpt lat="42.46257551161598" lon="14.093515826752862"><ele>55.0</ele><time>2026-03-29T07:59:30Z</time></trkpt><trkpt lat="42.462728548318665" lon="14.093492445199736"><ele>54.0</ele><time>2026-03-29T07:59:31Z</time></trkpt><trkpt lat="42.46287627032148" lon="14.093471860891023"><ele>54.0</ele><time>2026-03-29T07:59:31.999Z</time></trkpt><trkpt lat="42.463018275435076" lon="14.093453791224457"><ele>54.00000000000001</ele><time>2026-03-29T07:59:32.999Z</time></trkpt><trkpt lat="42.46314545091354" lon="14.093428425392986"><ele>54.00000000000001</ele><time>2026-03-29T07:59:33.999Z</time></trkpt><trkpt lat="42.463242156699394" lon="14.093412400375543"><ele>54.0</ele><time>2026-03-29T07:59:34.999Z</time></trkpt><trkpt lat="42.463315485299255" lon="14.093400497603692"><ele>54.0</ele><time>2026-03-29T07:59:35.999Z</time></trkpt><trkpt lat="42.463396647275324" lon="14.09339399939119"><ele>54.0</ele><time>2026-03-29T07:59:37.999Z</time></trkpt><trkpt lat="42.4634969980291" lon="14.093411429030425"><ele>54.00000000000001</ele><time>2026-03-29T07:59:39.999Z</time></trkpt><trkpt lat="42.46355566218035" lon="14.093244575863144"><ele>54.00000000000001</ele><time>2026-03-29T07:59:40.999Z</time></trkpt><trkpt lat="42.46361204378586" lon="14.093155331460625"><ele>54.0</ele><time>2026-03-29T07:59:41.999Z</time></trkpt><trkpt lat="42.46370240022979" lon="14.093118046813357"><ele>54.0</ele><time>2026-03-29T07:59:42.999Z</time></trkpt><trkpt lat="42.463819011675156" lon="14.093140988206747"><ele>53.25</ele><time>2026-03-29T07:59:43.999Z</time></trkpt><trkpt lat="42.46394377031583" lon="14.093199369330515"><ele>52.5</ele><time>2026-03-29T07:59:44.999Z</time></trkpt><trkpt lat="42.46406782842683" lon="14.093269534382536"><ele>51.75</ele><time>2026-03-29T07:59:45.999Z</time></trkpt><trkpt lat="42.46420645648053" lon="14.093321054066955"><ele>51.0</ele><time>2026-03-29T07:59:46.999Z</time></trkpt><trkpt lat="42.46436772195244" lon="14.093337095070158"><ele>51.0</ele><time>2026-03-29T07:59:47.999Z</time></trkpt><trkpt lat="42.464529277625275" lon="14.093324285499008"><ele>51.0</ele><time>2026-03-29T07:59:48.999Z</time></trkpt><trkpt lat="42.46468087599032" lon="14.093292417429579"><ele>51.0</ele><time>2026-03-29T07:59:49.999Z</time></trkpt><trkpt lat="42.46482077358176" lon="14.093241712257592"><ele>49.0</ele><time>2026-03-29T07:59:50.999Z</time></trkpt><trkpt lat="42.464955566865974" lon="14.093176646577291"><ele>47.0</ele><time>2026-03-29T07:59:51.999Z</time></trkpt><trkpt lat="42.465074325904645" lon="14.093085981019918"><ele>45.0</ele><time>2026-03-29T07:59:52.999Z</time></trkpt><trkpt lat="42.465192883614655" lon="14.092978511540153"><ele>43.0</ele><time>2026-03-29T07:59:53.999Z</time></trkpt><trkpt lat="42.46531340929473" lon="14.092855421546659"><ele>43.0</ele><time>2026-03-29T07:59:54.999Z</time></trkpt><trkpt lat="42.46543304402901" lon="14.092714626260642"><ele>43.0</ele><time>2026-03-29T07:59:55.999Z</time></trkpt><trkpt lat="42.46554444058204" lon="14.092560574933982"><ele>43.0</ele><time>2026-03-29T07:59:56.999Z</time></trkpt><trkpt lat="42.46563952924559" lon="14.092394112258392"><ele>42.333333333333336</ele><time>2026-03-29T07:59:57.998Z</time></trkpt><trkpt lat="42.46572058322921" lon="14.092206536791451"><ele>41.666666666666664</ele><time>2026-03-29T07:59:58.998Z</time></trkpt><trkpt lat="42.46579287423416" lon="14.092023804976254"><ele>41.0</ele><time>2026-03-29T07:59:59.998Z</time></trkpt><trkpt lat="42.465864341635324" lon="14.091856490306432"><ele>41.0</ele><time>2026-03-29T08:00:00.998Z</time></trkpt><trkpt lat="42.46594661050657" lon="14.091680114887989"><ele>41.0</ele><time>2026-03-29T08:00:01.998Z</time></trkpt><trkpt lat="42.46604006671272" lon="14.091511352886629"><ele>41.0</ele><time>2026-03-29T08:00:02.998Z</time></trkpt><trkpt lat="42.46614047685842" lon="14.09134592787365"><ele>40.666666666666664</ele><time>2026-03-29T08:00:03.998Z</time></trkpt><trkpt lat="42.46624328042743" lon="14.091187461451394"><ele>40.333333333333336</ele><time>2026-03-29T08:00:04.998Z</time></trkpt><trkpt lat="42.46634894080359" lon="14.091030325921428"><ele>40.0</ele><time>2026-03-29T08:00:05.998Z</time></trkpt><trkpt lat="42.4664520192458" lon="14.090879887263071"><ele>40.0</ele><time>2026-03-29T08:00:06.998Z</time></trkpt><trkpt lat="42.46656208400279" lon="14.090728915016792"><ele>40.0</ele><time>2026-03-29T08:00:07.998Z</time></trkpt><trkpt lat="42.466671359036546" lon="14.090590095729517"><ele>40.0</ele><time>2026-03-29T08:00:08.998Z</time></trkpt><trkpt lat="42.46678198523121" lon="14.090450145515169"><ele>40.0</ele><time>2026-03-29T08:00:09.998Z</time></trkpt><trkpt lat="42.46689429140032" lon="14.09031602685176"><ele>40.0</ele><time>2026-03-29T08:00:10.998Z</time></trkpt><trkpt lat="42.467011813336946" lon="14.090186966458182"><ele>40.0</ele><time>2026-03-29T08:00:11.998Z</time></trkpt><trkpt lat="42.46712252425486" lon="14.0900497263399"><ele>40.0</ele><time>2026-03-29T08:00:12.998Z</time></trkpt><trkpt lat="42.467229352850936" lon="14.089915369268446"><ele>40.0</ele><time>2026-03-29T08:00:13.998Z</time></trkpt><trkpt lat="42.46734085185198" lon="14.089780841973587"><ele>40.0</ele><time>2026-03-29T08:00:14.998Z</time></trkpt><trkpt lat="42.467444436648215" lon="14.089646431415728"><ele>40.0</ele><time>2026-03-29T08:00:15.998Z</time></trkpt><trkpt lat="42.46755211023465" lon="14.089509720390176"><ele>40.0</ele><time>2026-03-29T08:00:16.998Z</time></trkpt><trkpt lat="42.46765471858133" lon="14.089380678002208"><ele>40.0</ele><time>2026-03-29T08:00:17.998Z</time></trkpt><trkpt lat="42.467759843241105" lon="14.089248584382931"><ele>40.0</ele><time>2026-03-29T08:00:18.998Z</time></trkpt><trkpt lat="42.46786537444261" lon="14.089114218292158"><ele>40.0</ele><time>2026-03-29T08:00:19.998Z</time></trkpt><trkpt lat="42.467973770988806" lon="14.08898228757298"><ele>40.0</ele><time>2026-03-29T08:00:21Z</time></trkpt><trkpt lat="42.46807961828938" lon="14.088854793212898"><ele>40.0</ele><time>2026-03-29T08:00:22Z</time></trkpt><trkpt lat="42.46818931137507" lon="14.08872500721442"><ele>40.0</ele><time>2026-03-29T08:00:23Z</time></trkpt><trkpt lat="42.46830102297978" lon="14.088590508749407"><ele>40.0</ele><time>2026-03-29T08:00:24Z</time></trkpt><trkpt lat="42.46841147393945" lon="14.088461713451867"><ele>40.0</ele><time>2026-03-29T08:00:25Z</time></trkpt><trkpt lat="42.46852539734302" lon="14.088321546154702"><ele>40.0</ele><time>2026-03-29T08:00:26Z</time></trkpt><trkpt lat="42.46863642535094" lon="14.088189361006076"><ele>40.0</ele><time>2026-03-29T08:00:27Z</time></trkpt><trkpt lat="42.46874556694185" lon="14.088047711845993"><ele>40.25</ele><time>2026-03-29T08:00:28Z</time></trkpt><trkpt lat="42.46884991212932" lon="14.087910818485112"><ele>40.5</ele><time>2026-03-29T08:00:29Z</time></trkpt><trkpt lat="42.468948467865864" lon="14.087778782793004"><ele>40.75</ele><time>2026-03-29T08:00:30Z</time></trkpt><trkpt lat="42.469047413764265" lon="14.087658578424747"><ele>41.0</ele><time>2026-03-29T08:00:31Z</time></trkpt><trkpt lat="42.469150414937005" lon="14.087538209492418"><ele>41.5</ele><time>2026-03-29T08:00:32Z</time></trkpt><trkpt lat="42.4692542657413" lon="14.087418008487619"><ele>42.0</ele><time>2026-03-29T08:00:33Z</time></trkpt><trkpt lat="42.46935999671238" lon="14.087288192981752"><ele>42.5</ele><time>2026-03-29T08:00:34Z</time></trkpt><trkpt lat="42.469458017795446" lon="14.087161642239947"><ele>43.0</ele><time>2026-03-29T08:00:35Z</time></trkpt><trkpt lat="42.46955759204317" lon="14.087037665264232"><ele>42.5</ele><time>2026-03-29T08:00:36Z</time></trkpt><trkpt lat="42.46966189436247" lon="14.086914428598943"><ele>42.0</ele><time>2026-03-29T08:00:37Z</time></trkpt><trkpt lat="42.46976160879907" lon="14.086784485105722"><ele>41.5</ele><time>2026-03-29T08:00:38Z</time></trkpt><trkpt lat="42.46986631266483" lon="14.086656527213249"><ele>41.0</ele><time>2026-03-29T08:00:39Z</time></trkpt><trkpt lat="42.469972002672165" lon="14.086529738277939"><ele>41.0</ele><time>2026-03-29T08:00:40Z</time></trkpt><trkpt lat="42.470078237311334" lon="14.086399311041362"><ele>41.0</ele><time>2026-03-29T08:00:41Z</time></trkpt><trkpt lat="42.4701802239807" lon="14.086273031403199"><ele>41.0</ele><time>2026-03-29T08:00:42Z</time></trkpt><trkpt lat="42.47028026411871" lon="14.086140827010727"><ele>41.0</ele><time>2026-03-29T08:00:43Z</time></trkpt><trkpt lat="42.47038422550227" lon="14.086010546148083"><ele>41.0</ele><time>2026-03-29T08:00:44Z</time></trkpt><trkpt lat="42.47048062121055" lon="14.085888831039197"><ele>41.0</ele><time>2026-03-29T08:00:45Z</time></trkpt><trkpt lat="42.47057738074462" lon="14.085772859624146"><ele>41.0</ele><time>2026-03-29T08:00:46Z</time></trkpt><trkpt lat="42.47067542305432" lon="14.08565641242354"><ele>41.0</ele><time>2026-03-29T08:00:46.999Z</time></trkpt><trkpt lat="42.470774895232594" lon="14.085541855097413"><ele>41.0</ele><time>2026-03-29T08:00:47.999Z</time></trkpt><trkpt lat="42.47087318211459" lon="14.085416648640642"><ele>41.0</ele><time>2026-03-29T08:00:48.999Z</time></trkpt><trkpt lat="42.470970024715264" lon="14.085294286817374"><ele>41.0</ele><time>2026-03-29T08:00:49.999Z</time></trkpt><trkpt lat="42.471073901199475" lon="14.085178644284712"><ele>41.0</ele><time>2026-03-29T08:00:50.999Z</time></trkpt><trkpt lat="42.47118172509939" lon="14.085075954259501"><ele>40.75</ele><time>2026-03-29T08:00:51.999Z</time></trkpt><trkpt lat="42.471297577500124" lon="14.084983976363207"><ele>40.5</ele><time>2026-03-29T08:00:52.999Z</time></trkpt><trkpt lat="42.47141153348316" lon="14.084899477199007"><ele>40.25</ele><time>2026-03-29T08:00:53.999Z</time></trkpt><trkpt lat="42.47151568772664" lon="14.084825242825303"><ele>40.0</ele><time>2026-03-29T08:00:54.999Z</time></trkpt><trkpt lat="42.47161811008985" lon="14.08476646667596"><ele>40.5</ele><time>2026-03-29T08:00:55.999Z</time></trkpt><trkpt lat="42.471719674664925" lon="14.084720495262095"><ele>41.0</ele><time>2026-03-29T08:00:56.999Z</time></trkpt><trkpt lat="42.471811692567385" lon="14.084654722721234"><ele>41.5</ele><time>2026-03-29T08:00:57.999Z</time></trkpt><trkpt lat="42.47192510423304" lon="14.08459079728804"><ele>42.0</ele><time>2026-03-29T08:00:58.999Z</time></trkpt><trkpt lat="42.47205133911325" lon="14.084508310456117"><ele>41.75</ele><time>2026-03-29T08:00:59.999Z</time></trkpt><trkpt lat="42.47217853561152" lon="14.084423423721091"><ele>41.5</ele><time>2026-03-29T08:01:00.999Z</time></trkpt><trkpt lat="42.47229968505697" lon="14.084345111015402"><ele>41.25</ele><time>2026-03-29T08:01:01.999Z</time></trkpt><trkpt lat="42.47241458661184" lon="14.08426076479033"><ele>41.0</ele><time>2026-03-29T08:01:02.999Z</time></trkpt><trkpt lat="42.47253345344585" lon="14.08418956797327"><ele>41.0</ele><time>2026-03-29T08:01:03.999Z</time></trkpt><trkpt lat="42.472657285477915" lon="14.084107550492828"><ele>41.0</ele><time>2026-03-29T08:01:04.999Z</time></trkpt><trkpt lat="42.47278431898374" lon="14.084041211746774"><ele>41.0</ele><time>2026-03-29T08:01:05.999Z</time></trkpt><trkpt lat="42.47290574106508" lon="14.083959599258863"><ele>41.0</ele><time>2026-03-29T08:01:06.999Z</time></trkpt><trkpt lat="42.47302070840609" lon="14.083862331689327"><ele>41.0</ele><time>2026-03-29T08:01:07.999Z</time></trkpt><trkpt lat="42.47313117392569" lon="14.083753266409971"><ele>41.0</ele><time>2026-03-29T08:01:08.999Z</time></trkpt><trkpt lat="42.47322934453971" lon="14.083644583581188"><ele>41.0</ele><time>2026-03-29T08:01:09.999Z</time></trkpt><trkpt lat="42.473333555386624" lon="14.083562724448571"><ele>41.0</ele><time>2026-03-29T08:01:10.999Z</time></trkpt><trkpt lat="42.473435580656584" lon="14.083455851909696"><ele>41.0</ele><time>2026-03-29T08:01:11.999Z</time></trkpt><trkpt lat="42.4735547738739" lon="14.083383128763213"><ele>41.0</ele><time>2026-03-29T08:01:12.999Z</time></trkpt><trkpt lat="42.473674465556776" lon="14.083303697013324"><ele>41.0</ele><time>2026-03-29T08:01:13.999Z</time></trkpt><trkpt lat="42.47379165844959" lon="14.083225573282972"><ele>41.0</ele><time>2026-03-29T08:01:14.999Z</time></trkpt><trkpt lat="42.47391941979768" lon="14.083150905464356"><ele>40.5</ele><time>2026-03-29T08:01:15.999Z</time></trkpt><trkpt lat="42.47404618834861" lon="14.08308159953924"><ele>40.0</ele><time>2026-03-29T08:01:16.999Z</time></trkpt><trkpt lat="42.47417236237102" lon="14.08302460914094"><ele>39.5</ele><time>2026-03-29T08:01:17.999Z</time></trkpt><trkpt lat="42.474299409506564" lon="14.082975383189888"><ele>39.0</ele><time>2026-03-29T08:01:18.999Z</time></trkpt><trkpt lat="42.47442246562699" lon="14.082903137628303"><ele>39.0</ele><time>2026-03-29T08:01:19.999Z</time></trkpt><trkpt lat="42.47454394910969" lon="14.082821105937564"><ele>39.0</ele><time>2026-03-29T08:01:20.999Z</time></trkpt><trkpt lat="42.47465889382193" lon="14.082731585849261"><ele>39.0</ele><time>2026-03-29T08:01:21.999Z</time></trkpt><trkpt lat="42.4747868605209" lon="14.08266702724416"><ele>39.0</ele><time>2026-03-29T08:01:22.999Z</time></trkpt><trkpt lat="42.4748948711882" lon="14.082571472465816"><ele>38.5</ele><time>2026-03-29T08:01:23.999Z</time></trkpt><trkpt lat="42.47501176592145" lon="14.082497691789113"><ele>38.0</ele><time>2026-03-29T08:01:24.999Z</time></trkpt><trkpt lat="42.4751283460606" lon="14.082417112999996"><ele>37.5</ele><time>2026-03-29T08:01:25.999Z</time></trkpt><trkpt lat="42.47524638136463" lon="14.082348280776754"><ele>37.0</ele><time>2026-03-29T08:01:26.999Z</time></trkpt><trkpt lat="42.47537045955011" lon="14.082302060325013"><ele>35.75</ele><time>2026-03-29T08:01:27.999Z</time></trkpt><trkpt lat="42.47550800715551" lon="14.082278399582705"><ele>34.5</ele><time>2026-03-29T08:01:28.999Z</time></trkpt><trkpt lat="42.47563935508882" lon="14.082286249430767"><ele>33.25</ele><time>2026-03-29T08:01:29.999Z</time></trkpt><trkpt lat="42.47577212692365" lon="14.082320084647613"><ele>32.0</ele><time>2026-03-29T08:01:30.999Z</time></trkpt><trkpt lat="42.47590384443814" lon="14.082360541168393"><ele>32.0</ele><time>2026-03-29T08:01:31.999Z</time></trkpt><trkpt lat="42.47603560890926" lon="14.082411796280168"><ele>32.0</ele><time>2026-03-29T08:01:32.999Z</time></trkpt><trkpt lat="42.47617061896653" lon="14.082478934273077"><ele>32.0</ele><time>2026-03-29T08:01:33.999Z</time></trkpt><trkpt lat="42.4763075786517" lon="14.082541144784344"><ele>32.0</ele><time>2026-03-29T08:01:34.999Z</time></trkpt><trkpt lat="42.47644989597938" lon="14.082597400590883"><ele>31.25</ele><time>2026-03-29T08:01:35.999Z</time></trkpt><trkpt lat="42.47658926149727" lon="14.082657407712055"><ele>30.5</ele><time>2026-03-29T08:01:36.999Z</time></trkpt><trkpt lat="42.476719167403424" lon="14.082710916265228"><ele>29.75</ele><time>2026-03-29T08:01:37.999Z</time></trkpt><trkpt lat="42.47685362128108" lon="14.082764953876321"><ele>29.0</ele><time>2026-03-29T08:01:38.999Z</time></trkpt><trkpt lat="42.47699606365454" lon="14.082825964065346"><ele>29.0</ele><time>2026-03-29T08:01:39.999Z</time></trkpt><trkpt lat="42.47714715095932" lon="14.082888802641305"><ele>29.0</ele><time>2026-03-29T08:01:40.999Z</time></trkpt><trkpt lat="42.477303798326986" lon="14.082948530834274"><ele>29.0</ele><time>2026-03-29T08:01:41.999Z</time></trkpt><trkpt lat="42.47746899845774" lon="14.083010289876299"><ele>29.0</ele><time>2026-03-29T08:01:42.999Z</time></trkpt><trkpt lat="42.47763385928945" lon="14.083078958706901"><ele>29.0</ele><time>2026-03-29T08:01:43.999Z</time></trkpt><trkpt lat="42.47780356516434" lon="14.083149600299386"><ele>29.0</ele><time>2026-03-29T08:01:44.998Z</time></trkpt><trkpt lat="42.47798122201338" lon="14.08321736050483"><ele>28.333333333333332</ele><time>2026-03-29T08:01:45.998Z</time></trkpt><trkpt lat="42.47816587056448" lon="14.08329635376165"><ele>27.666666666666664</ele><time>2026-03-29T08:01:46.998Z</time></trkpt><trkpt lat="42.47835267022759" lon="14.083372350066256"><ele>27.0</ele><time>2026-03-29T08:01:47.998Z</time></trkpt><trkpt lat="42.47854057630103" lon="14.083448062639977"><ele>27.0</ele><time>2026-03-29T08:01:48.998Z</time></trkpt><trkpt lat="42.47872057503003" lon="14.083523835887004"><ele>27.0</ele><time>2026-03-29T08:01:49.998Z</time></trkpt><trkpt lat="42.478897117083896" lon="14.083593090797066"><ele>27.0</ele><time>2026-03-29T08:01:50.998Z</time></trkpt><trkpt lat="42.479077146845796" lon="14.08366759593776"><ele>27.0</ele><time>2026-03-29T08:01:51.998Z</time></trkpt><trkpt lat="42.47925362747123" lon="14.08374759760231"><ele>27.0</ele><time>2026-03-29T08:01:52.998Z</time></trkpt><trkpt lat="42.47942916790789" lon="14.083818300624776"><ele>27.0</ele><time>2026-03-29T08:01:53.998Z</time></trkpt><trkpt lat="42.47961338308188" lon="14.08388545844845"><ele>27.0</ele><time>2026-03-29T08:01:54.998Z</time></trkpt><trkpt lat="42.47979698466615" lon="14.083959853685112"><ele>27.0</ele><time>2026-03-29T08:01:55.998Z</time></trkpt><trkpt lat="42.479972242382644" lon="14.084031004902702"><ele>27.0</ele><time>2026-03-29T08:01:56.998Z</time></trkpt><trkpt lat="42.480150358249844" lon="14.084105918992726"><ele>27.333333333333336</ele><time>2026-03-29T08:01:57.998Z</time></trkpt><trkpt lat="42.48033180765739" lon="14.084183045945274"><ele>27.666666666666668</ele><time>2026-03-29T08:01:58.998Z</time></trkpt><trkpt lat="42.48051095518412" lon="14.084269071833356"><ele>28.0</ele><time>2026-03-29T08:01:59.998Z</time></trkpt><trkpt lat="42.48068782303054" lon="14.084376163142066"><ele>28.0</ele><time>2026-03-29T08:02:00.998Z</time></trkpt><trkpt lat="42.48087894797893" lon="14.084501642051157"><ele>28.0</ele><time>2026-03-29T08:02:01.998Z</time></trkpt><trkpt lat="42.481070421063826" lon="14.084609610861976"><ele>28.0</ele><time>2026-03-29T08:02:02.998Z</time></trkpt><trkpt lat="42.48125098238613" lon="14.084696809243164"><ele>28.333333333333336</ele><time>2026-03-29T08:02:03.998Z</time></trkpt><trkpt lat="42.48141548711913" lon="14.08478694837932"><ele>28.666666666666664</ele><time>2026-03-29T08:02:04.998Z</time></trkpt><trkpt lat="42.48156709149345" lon="14.08488369825106"><ele>29.0</ele><time>2026-03-29T08:02:05.998Z</time></trkpt><trkpt lat="42.481712921834" lon="14.084973048840778"><ele>29.0</ele><time>2026-03-29T08:02:06.998Z</time></trkpt><trkpt lat="42.48185627334239" lon="14.085048656322106"><ele>29.0</ele><time>2026-03-29T08:02:07.998Z</time></trkpt><trkpt lat="42.48199116901738" lon="14.085117699952024"><ele>29.0</ele><time>2026-03-29T08:02:08.998Z</time></trkpt><trkpt lat="42.48211979840304" lon="14.085193601343779"><ele>29.0</ele><time>2026-03-29T08:02:09.998Z</time></trkpt><trkpt lat="42.482241549314985" lon="14.085261564216207"><ele>29.5</ele><time>2026-03-29T08:02:10.998Z</time></trkpt><trkpt lat="42.48235731965345" lon="14.085325512069177"><ele>30.0</ele><time>2026-03-29T08:02:11.998Z</time></trkpt><trkpt lat="42.4824684379249" lon="14.0853840619065"><ele>30.5</ele><time>2026-03-29T08:02:12.998Z</time></trkpt><trkpt lat="42.4825717902003" lon="14.085437725690962"><ele>31.0</ele><time>2026-03-29T08:02:13.998Z</time></trkpt><trkpt lat="42.48267103632829" lon="14.085492778018255"><ele>31.0</ele><time>2026-03-29T08:02:14.998Z</time></trkpt><trkpt lat="42.482764975912424" lon="14.085543116669315"><ele>31.0</ele><time>2026-03-29T08:02:15.998Z</time></trkpt><trkpt lat="42.482867495783616" lon="14.085602816413296"><ele>31.0</ele><time>2026-03-29T08:02:16.998Z</time></trkpt><trkpt lat="42.482969452641036" lon="14.085666236889956"><ele>31.0</ele><time>2026-03-29T08:02:17.998Z</time></trkpt><trkpt lat="42.483066055051125" lon="14.085741716916655"><ele>31.0</ele><time>2026-03-29T08:02:18.998Z</time></trkpt><trkpt lat="42.4831546831098" lon="14.085816004675328"><ele>33.0</ele><time>2026-03-29T08:02:19.998Z</time></trkpt><trkpt lat="42.48323453978243" lon="14.085907179466663"><ele>35.0</ele><time>2026-03-29T08:02:20.998Z</time></trkpt><trkpt lat="42.48332469189469" lon="14.086019497075602"><ele>37.0</ele><time>2026-03-29T08:02:21.998Z</time></trkpt><trkpt lat="42.48341390214806" lon="14.086153741317718"><ele>39.0</ele><time>2026-03-29T08:02:22.998Z</time></trkpt><trkpt lat="42.483500601917854" lon="14.086315217794498"><ele>39.0</ele><time>2026-03-29T08:02:23.998Z</time></trkpt><trkpt lat="42.48357809968797" lon="14.086492474492248"><ele>39.0</ele><time>2026-03-29T08:02:24.998Z</time></trkpt><trkpt lat="42.48364185061067" lon="14.086692573182997"><ele>39.0</ele><time>2026-03-29T08:02:25.998Z</time></trkpt><trkpt lat="42.48370563005521" lon="14.086906784258218"><ele>39.333333333333336</ele><time>2026-03-29T08:02:27Z</time></trkpt><trkpt lat="42.48377496978935" lon="14.087119541010633"><ele>39.66666666666667</ele><time>2026-03-29T08:02:28Z</time></trkpt><trkpt lat="42.48384794364854" lon="14.087332333382943"><ele>40.0</ele><time>2026-03-29T08:02:29Z</time></trkpt><trkpt lat="42.48391141590746" lon="14.08753798333245"><ele>40.0</ele><time>2026-03-29T08:02:30Z</time></trkpt><trkpt lat="42.4839757610234" lon="14.087745259722197"><ele>40.0</ele><time>2026-03-29T08:02:31Z</time></trkpt><trkpt lat="42.484048821806226" lon="14.08794606220446"><ele>40.0</ele><time>2026-03-29T08:02:32Z</time></trkpt><trkpt lat="42.48413521944391" lon="14.088142416573925"><ele>37.333333333333336</ele><time>2026-03-29T08:02:33Z</time></trkpt><trkpt lat="42.484243693608356" lon="14.088326976074327"><ele>34.666666666666664</ele><time>2026-03-29T08:02:34Z</time></trkpt><trkpt lat="42.48436710250082" lon="14.088496126777533"><ele>32.0</ele><time>2026-03-29T08:02:35Z</time></trkpt><trkpt lat="42.48447730186113" lon="14.088651245718452"><ele>32.0</ele><time>2026-03-29T08:02:36Z</time></trkpt><trkpt lat="42.48457443593327" lon="14.088797755524674"><ele>32.0</ele><time>2026-03-29T08:02:37Z</time></trkpt><trkpt lat="42.484670630002405" lon="14.088932265828431"><ele>32.0</ele><time>2026-03-29T08:02:38Z</time></trkpt><trkpt lat="42.484775959124356" lon="14.089019114705946"><ele>32.0</ele><time>2026-03-29T08:02:39Z</time></trkpt><trkpt lat="42.48488877062989" lon="14.089031766970045"><ele>34.5</ele><time>2026-03-29T08:02:40Z</time></trkpt><trkpt lat="42.4850009101209" lon="14.088992752388974"><ele>37.0</ele><time>2026-03-29T08:02:41Z</time></trkpt><trkpt lat="42.48509253382799" lon="14.08889308818194"><ele>39.5</ele><time>2026-03-29T08:02:42Z</time></trkpt><trkpt lat="42.48516653252835" lon="14.088758277271554"><ele>42.0</ele><time>2026-03-29T08:02:43Z</time></trkpt><trkpt lat="42.48520861448315" lon="14.088582233567706"><ele>42.0</ele><time>2026-03-29T08:02:44Z</time></trkpt><trkpt lat="42.48524899848793" lon="14.088397425916904"><ele>42.0</ele><time>2026-03-29T08:02:45Z</time></trkpt><trkpt lat="42.48529800212478" lon="14.088211709992711"><ele>42.0</ele><time>2026-03-29T08:02:46Z</time></trkpt><trkpt lat="42.48536854245093" lon="14.088033061524028"><ele>42.0</ele><time>2026-03-29T08:02:47Z</time></trkpt><trkpt lat="42.4854476403037" lon="14.08786236077874"><ele>44.66666666666667</ele><time>2026-03-29T08:02:48Z</time></trkpt><trkpt lat="42.48555110364857" lon="14.087700872052311"><ele>47.333333333333336</ele><time>2026-03-29T08:02:49Z</time></trkpt><trkpt lat="42.48566332952126" lon="14.087549348081817"><ele>50.0</ele><time>2026-03-29T08:02:50Z</time></trkpt><trkpt lat="42.48577653051448" lon="14.087392884111456"><ele>52.0</ele><time>2026-03-29T08:02:51Z</time></trkpt><trkpt lat="42.48588659249115" lon="14.087227054011286"><ele>54.0</ele><time>2026-03-29T08:02:52Z</time></trkpt><trkpt lat="42.48599147787367" lon="14.087081558811331"><ele>56.0</ele><time>2026-03-29T08:02:53Z</time></trkpt><trkpt lat="42.486081812847054" lon="14.086958298954771"><ele>58.0</ele><time>2026-03-29T08:02:53.999Z</time></trkpt><trkpt lat="42.48616259388206" lon="14.08684219085185"><ele>58.0</ele><time>2026-03-29T08:02:54.999Z</time></trkpt><trkpt lat="42.486202275832056" lon="14.086741470311393"><ele>58.0</ele><time>2026-03-29T08:02:55.999Z</time></trkpt><trkpt lat="42.48618983037391" lon="14.08662953970358"><ele>58.0</ele><time>2026-03-29T08:02:56.999Z</time></trkpt><trkpt lat="42.486132802776915" lon="14.086521374202134"><ele>58.0</ele><time>2026-03-29T08:02:57.999Z</time></trkpt><trkpt lat="42.486048087551985" lon="14.086466061854921"><ele>58.0</ele><time>2026-03-29T08:02:58.999Z</time></trkpt><trkpt lat="42.485950530370665" lon="14.086474204957721"><ele>58.0</ele><time>2026-03-29T08:02:59.999Z</time></trkpt><trkpt lat="42.48585296468037" lon="14.086547808491135"><ele>58.0</ele><time>2026-03-29T08:03:00.999Z</time></trkpt><trkpt lat="42.485761046407355" lon="14.086651430628528"><ele>58.0</ele><time>2026-03-29T08:03:01.999Z</time></trkpt><trkpt lat="42.48565827131179" lon="14.086764628401012"><ele>58.0</ele><time>2026-03-29T08:03:02.999Z</time></trkpt><trkpt lat="42.485547346187616" lon="14.086863379478846"><ele>58.0</ele><time>2026-03-29T08:03:03.999Z</time></trkpt><trkpt lat="42.485429424492075" lon="14.086970568846136"><ele>58.0</ele><time>2026-03-29T08:03:04.999Z</time></trkpt><trkpt lat="42.485321217813535" lon="14.087100788551817"><ele>58.0</ele><time>2026-03-29T08:03:05.999Z</time></trkpt><trkpt lat="42.48522823443099" lon="14.087209018678763"><ele>58.0</ele><time>2026-03-29T08:03:06.999Z</time></trkpt><trkpt lat="42.485134857470946" lon="14.087291199354564"><ele>58.599999999999994</ele><time>2026-03-29T08:03:07.999Z</time></trkpt><trkpt lat="42.485039634324664" lon="14.087340605229926"><ele>59.199999999999996</ele><time>2026-03-29T08:03:08.999Z</time></trkpt><trkpt lat="42.48493979133543" lon="14.087323411548603"><ele>59.8</ele><time>2026-03-29T08:03:09.999Z</time></trkpt><trkpt lat="42.484855460167324" lon="14.087249711628616"><ele>60.4</ele><time>2026-03-29T08:03:10.999Z</time></trkpt><trkpt lat="42.48480468931897" lon="14.087141653811377"><ele>61.0</ele><time>2026-03-29T08:03:11.999Z</time></trkpt><trkpt lat="42.48478517650353" lon="14.087015030918584"><ele>61.0</ele><time>2026-03-29T08:03:12.999Z</time></trkpt><trkpt lat="42.484788060797705" lon="14.08689242469691"><ele>61.0</ele><time>2026-03-29T08:03:13.999Z</time></trkpt><trkpt lat="42.48482154546681" lon="14.08674318046951"><ele>61.0</ele><time>2026-03-29T08:03:14.999Z</time></trkpt><trkpt lat="42.484895043156044" lon="14.086611107903448"><ele>61.0</ele><time>2026-03-29T08:03:15.999Z</time></trkpt><trkpt lat="42.48495373063687" lon="14.086447511686272"><ele>62.33333333333333</ele><time>2026-03-29T08:03:16.999Z</time></trkpt><trkpt lat="42.48503101640632" lon="14.086279464815645"><ele>63.66666666666667</ele><time>2026-03-29T08:03:17.999Z</time></trkpt><trkpt lat="42.485107848738615" lon="14.086103321319237"><ele>65.0</ele><time>2026-03-29T08:03:18.999Z</time></trkpt><trkpt lat="42.48519378573314" lon="14.085917500000175"><ele>65.33333333333334</ele><time>2026-03-29T08:03:19.999Z</time></trkpt><trkpt lat="42.48527844444063" lon="14.085723130217636"><ele>65.66666666666667</ele><time>2026-03-29T08:03:20.999Z</time></trkpt><trkpt lat="42.48536292560833" lon="14.085521926605946"><ele>66.0</ele><time>2026-03-29T08:03:21.999Z</time></trkpt><trkpt lat="42.48543739258529" lon="14.085333461438209"><ele>67.0</ele><time>2026-03-29T08:03:22.999Z</time></trkpt><trkpt lat="42.485518053811944" lon="14.085142215517818"><ele>68.0</ele><time>2026-03-29T08:03:23.999Z</time></trkpt><trkpt lat="42.48560246069319" lon="14.084945532482127"><ele>69.0</ele><time>2026-03-29T08:03:24.999Z</time></trkpt><trkpt lat="42.485688352315165" lon="14.084751287246666"><ele>69.66666666666667</ele><time>2026-03-29T08:03:25.999Z</time></trkpt><trkpt lat="42.485771610208275" lon="14.084549402150154"><ele>70.33333333333334</ele><time>2026-03-29T08:03:26.999Z</time></trkpt><trkpt lat="42.48585765502648" lon="14.084351068852616"><ele>71.0</ele><time>2026-03-29T08:03:27.999Z</time></trkpt><trkpt lat="42.485944506506065" lon="14.08415612038532"><ele>71.33333333333334</ele><time>2026-03-29T08:03:28.999Z</time></trkpt><trkpt lat="42.48602857916916" lon="14.083962976753847"><ele>71.66666666666667</ele><time>2026-03-29T08:03:29.999Z</time></trkpt><trkpt lat="42.486101849566374" lon="14.083782295472881"><ele>72.0</ele><time>2026-03-29T08:03:30.999Z</time></trkpt><trkpt lat="42.48616005823381" lon="14.083600727663063"><ele>72.0</ele><time>2026-03-29T08:03:31.999Z</time></trkpt><trkpt lat="42.48620271272744" lon="14.08339897902764"><ele>72.0</ele><time>2026-03-29T08:03:32.999Z</time></trkpt><trkpt lat="42.4862338503465" lon="14.083187064144102"><ele>72.0</ele><time>2026-03-29T08:03:33.999Z</time></trkpt><trkpt lat="42.486257040254024" lon="14.082971944255789"><ele>76.33333333333333</ele><time>2026-03-29T08:03:34.999Z</time></trkpt><trkpt lat="42.48629257251569" lon="14.082754251471457"><ele>80.66666666666666</ele><time>2026-03-29T08:03:35.999Z</time></trkpt><trkpt lat="42.48632372413813" lon="14.082534440319174"><ele>85.0</ele><time>2026-03-29T08:03:36.999Z</time></trkpt><trkpt lat="42.48635474565963" lon="14.082315546752987"><ele>85.25</ele><time>2026-03-29T08:03:37.999Z</time></trkpt><trkpt lat="42.48638319343439" lon="14.08211481347805"><ele>85.5</ele><time>2026-03-29T08:03:38.999Z</time></trkpt><trkpt lat="42.486405063881016" lon="14.081911374462232"><ele>85.75</ele><time>2026-03-29T08:03:39.999Z</time></trkpt><trkpt lat="42.486398425186536" lon="14.081712815146512"><ele>86.0</ele><time>2026-03-29T08:03:40.999Z</time></trkpt><trkpt lat="42.486388349807356" lon="14.081508237747187"><ele>86.33333333333334</ele><time>2026-03-29T08:03:41.999Z</time></trkpt><trkpt lat="42.48634204304497" lon="14.081299033885523"><ele>86.66666666666667</ele><time>2026-03-29T08:03:42.999Z</time></trkpt><trkpt lat="42.48627549442659" lon="14.081096208045038"><ele>87.0</ele><time>2026-03-29T08:03:43.999Z</time></trkpt><trkpt lat="42.48619909597195" lon="14.08090649788726"><ele>86.5</ele><time>2026-03-29T08:03:44.999Z</time></trkpt><trkpt lat="42.48615270648646" lon="14.080739279629759"><ele>86.0</ele><time>2026-03-29T08:03:45.999Z</time></trkpt><trkpt lat="42.486109969547854" lon="14.080588429905047"><ele>85.5</ele><time>2026-03-29T08:03:46.999Z</time></trkpt><trkpt lat="42.4860762886015" lon="14.080443721365404"><ele>85.0</ele><time>2026-03-29T08:03:47.999Z</time></trkpt><trkpt lat="42.48609811648739" lon="14.080288893135906"><ele>85.0</ele><time>2026-03-29T08:03:48.999Z</time></trkpt><trkpt lat="42.4861448297274" lon="14.080149400623883"><ele>85.0</ele><time>2026-03-29T08:03:49.998Z</time></trkpt><trkpt lat="42.48624071184966" lon="14.08005977588766"><ele>85.0</ele><time>2026-03-29T08:03:50.998Z</time></trkpt><trkpt lat="42.486347820025586" lon="14.079962108465654"><ele>85.0</ele><time>2026-03-29T08:03:51.998Z</time></trkpt><trkpt lat="42.48646749520982" lon="14.079854270486114"><ele>86.0</ele><time>2026-03-29T08:03:52.998Z</time></trkpt><trkpt lat="42.48660397587009" lon="14.079764789471303"><ele>87.0</ele><time>2026-03-29T08:03:53.998Z</time></trkpt><trkpt lat="42.486746336762295" lon="14.079661366541185"><ele>88.0</ele><time>2026-03-29T08:03:54.998Z</time></trkpt><trkpt lat="42.486891674091545" lon="14.079553170494592"><ele>88.0</ele><time>2026-03-29T08:03:55.998Z</time></trkpt><trkpt lat="42.48702835029603" lon="14.079451948252057"><ele>88.0</ele><time>2026-03-29T08:03:56.998Z</time></trkpt><trkpt lat="42.487154842586186" lon="14.07936690419552"><ele>88.0</ele><time>2026-03-29T08:03:57.998Z</time></trkpt><trkpt lat="42.48726262869649" lon="14.079285924905735"><ele>88.0</ele><time>2026-03-29T08:03:58.998Z</time></trkpt><trkpt lat="42.48736513183556" lon="14.079207722736232"><ele>89.4</ele><time>2026-03-29T08:03:59.998Z</time></trkpt><trkpt lat="42.487461726434546" lon="14.079151599502389"><ele>90.80000000000001</ele><time>2026-03-29T08:04:00.998Z</time></trkpt><trkpt lat="42.48755955772491" lon="14.07914195871083"><ele>92.2</ele><time>2026-03-29T08:04:01.998Z</time></trkpt><trkpt lat="42.48765406920416" lon="14.079152983340146"><ele>93.6</ele><time>2026-03-29T08:04:02.998Z</time></trkpt><trkpt lat="42.487739841178914" lon="14.079117224947318"><ele>95.0</ele><time>2026-03-29T08:04:03.998Z</time></trkpt><trkpt lat="42.487808260762456" lon="14.079025346303755"><ele>95.5</ele><time>2026-03-29T08:04:04.998Z</time></trkpt><trkpt lat="42.487869433724406" lon="14.078900485558853"><ele>96.0</ele><time>2026-03-29T08:04:05.998Z</time></trkpt><trkpt lat="42.48795441823459" lon="14.07878934512856"><ele>96.5</ele><time>2026-03-29T08:04:06.998Z</time></trkpt><trkpt lat="42.48806536720515" lon="14.078707645476827"><ele>97.0</ele><time>2026-03-29T08:04:07.998Z</time></trkpt><trkpt lat="42.48818229550022" lon="14.07860194646557"><ele>97.5</ele><time>2026-03-29T08:04:08.998Z</time></trkpt><trkpt lat="42.48829801054526" lon="14.078530998791091"><ele>98.0</ele><time>2026-03-29T08:04:09.998Z</time></trkpt><trkpt lat="42.48841214901249" lon="14.078446552789174"><ele>98.5</ele><time>2026-03-29T08:04:10.998Z</time></trkpt><trkpt lat="42.48853003216788" lon="14.078352158927302"><ele>99.0</ele><time>2026-03-29T08:04:11.998Z</time></trkpt><trkpt lat="42.48865307602697" lon="14.07826149027591"><ele>99.5</ele><time>2026-03-29T08:04:12.998Z</time></trkpt><trkpt lat="42.488769637767675" lon="14.07817108908136"><ele>100.0</ele><time>2026-03-29T08:04:13.998Z</time></trkpt><trkpt lat="42.48887996090933" lon="14.078056803766662"><ele>100.5</ele><time>2026-03-29T08:04:14.998Z</time></trkpt><trkpt lat="42.48897982821824" lon="14.07791414595759"><ele>101.0</ele><time>2026-03-29T08:04:15.998Z</time></trkpt><trkpt lat="42.48907463354071" lon="14.077749300973315"><ele>101.0</ele><time>2026-03-29T08:04:16.998Z</time></trkpt><trkpt lat="42.489160540836174" lon="14.077572898525892"><ele>101.0</ele><time>2026-03-29T08:04:17.998Z</time></trkpt><trkpt lat="42.48926252349616" lon="14.07740147662661"><ele>101.0</ele><time>2026-03-29T08:04:18.998Z</time></trkpt><trkpt lat="42.48935481460877" lon="14.07721968424195"><ele>100.66666666666666</ele><time>2026-03-29T08:04:19.998Z</time></trkpt><trkpt lat="42.48943089303921" lon="14.077036061623748"><ele>100.33333333333334</ele><time>2026-03-29T08:04:20.998Z</time></trkpt><trkpt lat="42.489514171043936" lon="14.076875668146013"><ele>100.0</ele><time>2026-03-29T08:04:21.998Z</time></trkpt><trkpt lat="42.48960034035489" lon="14.076704406958978"><ele>101.33333333333334</ele><time>2026-03-29T08:04:22.998Z</time></trkpt><trkpt lat="42.48970380186495" lon="14.076538647241623"><ele>102.66666666666666</ele><time>2026-03-29T08:04:23.998Z</time></trkpt><trkpt lat="42.48979679555737" lon="14.076357723328696"><ele>104.0</ele><time>2026-03-29T08:04:24.998Z</time></trkpt><trkpt lat="42.48989073906345" lon="14.076174951564244"><ele>104.0</ele><time>2026-03-29T08:04:25.998Z</time></trkpt><trkpt lat="42.48998609843732" lon="14.075988375909278"><ele>104.0</ele><time>2026-03-29T08:04:26.998Z</time></trkpt><trkpt lat="42.49008468346646" lon="14.075795357031726"><ele>104.0</ele><time>2026-03-29T08:04:27.998Z</time></trkpt><trkpt lat="42.490183541838334" lon="14.07560180295506"><ele>104.33333333333333</ele><time>2026-03-29T08:04:28.998Z</time></trkpt><trkpt lat="42.490271297791395" lon="14.075394779778115"><ele>104.66666666666666</ele><time>2026-03-29T08:04:29.998Z</time></trkpt><trkpt lat="42.49037063932121" lon="14.075199508235965"><ele>105.0</ele><time>2026-03-29T08:04:30.998Z</time></trkpt><trkpt lat="42.49047126892153" lon="14.075005812265273"><ele>106.0</ele><time>2026-03-29T08:04:32Z</time></trkpt><trkpt lat="42.49057624175585" lon="14.074808251990028"><ele>107.0</ele><time>2026-03-29T08:04:33Z</time></trkpt><trkpt lat="42.49069298229902" lon="14.074630226844434"><ele>108.0</ele><time>2026-03-29T08:04:34Z</time></trkpt><trkpt lat="42.490805571399875" lon="14.074438919208035"><ele>108.0</ele><time>2026-03-29T08:04:35Z</time></trkpt><trkpt lat="42.49091307270258" lon="14.074242285594975"><ele>108.0</ele><time>2026-03-29T08:04:36Z</time></trkpt><trkpt lat="42.49103477703999" lon="14.074057815801618"><ele>108.0</ele><time>2026-03-29T08:04:37Z</time></trkpt><trkpt lat="42.49116069567129" lon="14.073875400602747"><ele>108.33333333333334</ele><time>2026-03-29T08:04:38Z</time></trkpt><trkpt lat="42.49128463499094" lon="14.073692065660966"><ele>108.66666666666667</ele><time>2026-03-29T08:04:39Z</time></trkpt><trkpt lat="42.491414973924854" lon="14.073510236257974"><ele>109.0</ele><time>2026-03-29T08:04:40Z</time></trkpt><trkpt lat="42.49154437073684" lon="14.073325855999963"><ele>109.66666666666667</ele><time>2026-03-29T08:04:41Z</time></trkpt><trkpt lat="42.49168038525784" lon="14.07315683590345"><ele>110.33333333333334</ele><time>2026-03-29T08:04:42Z</time></trkpt><trkpt lat="42.491797421122584" lon="14.072953165832283"><ele>111.0</ele><time>2026-03-29T08:04:43Z</time></trkpt><trkpt lat="42.491924346497655" lon="14.072768886701294"><ele>111.0</ele><time>2026-03-29T08:04:44Z</time></trkpt><trkpt lat="42.492047907516266" lon="14.072591231144303"><ele>111.0</ele><time>2026-03-29T08:04:45Z</time></trkpt><trkpt lat="42.492157720243576" lon="14.072430286701897"><ele>111.0</ele><time>2026-03-29T08:04:46Z</time></trkpt><trkpt lat="42.49227194207801" lon="14.07227211405524"><ele>111.66666666666666</ele><time>2026-03-29T08:04:47Z</time></trkpt><trkpt lat="42.49238949284226" lon="14.07210326390542"><ele>112.33333333333333</ele><time>2026-03-29T08:04:48Z</time></trkpt><trkpt lat="42.492504850040234" lon="14.071934119657026"><ele>113.0</ele><time>2026-03-29T08:04:49Z</time></trkpt><trkpt lat="42.4926198666237" lon="14.071765490049353"><ele>114.0</ele><time>2026-03-29T08:04:50Z</time></trkpt><trkpt lat="42.49273893879765" lon="14.071594693163824"><ele>115.0</ele><time>2026-03-29T08:04:51Z</time></trkpt><trkpt lat="42.49285622273481" lon="14.071421877305223"><ele>116.0</ele><time>2026-03-29T08:04:52Z</time></trkpt><trkpt lat="42.492976589412486" lon="14.071245831686909"><ele>117.0</ele><time>2026-03-29T08:04:53Z</time></trkpt><trkpt lat="42.493095157959615" lon="14.07107359106246"><ele>118.0</ele><time>2026-03-29T08:04:54Z</time></trkpt><trkpt lat="42.493221001684965" lon="14.070893166387167"><ele>119.0</ele><time>2026-03-29T08:04:55Z</time></trkpt><trkpt lat="42.49334006553702" lon="14.070717528650551"><ele>119.66666666666666</ele><time>2026-03-29T08:04:56Z</time></trkpt><trkpt lat="42.49346566192605" lon="14.070534265353098"><ele>120.33333333333334</ele><time>2026-03-29T08:04:57Z</time></trkpt><trkpt lat="42.49359905831205" lon="14.070374723530223"><ele>121.0</ele><time>2026-03-29T08:04:58Z</time></trkpt><trkpt lat="42.49371670542582" lon="14.070181218388807"><ele>121.33333333333334</ele><time>2026-03-29T08:04:58.999Z</time></trkpt><trkpt lat="42.493842238322756" lon="14.070000438873947"><ele>121.66666666666666</ele><time>2026-03-29T08:04:59.999Z</time></trkpt><trkpt lat="42.493961511200666" lon="14.06981871049868"><ele>122.0</ele><time>2026-03-29T08:05:00.999Z</time></trkpt><trkpt lat="42.49408622028865" lon="14.069635454289688"><ele>123.33333333333333</ele><time>2026-03-29T08:05:01.999Z</time></trkpt><trkpt lat="42.494211781469424" lon="14.06946183799388"><ele>124.66666666666666</ele><time>2026-03-29T08:05:02.999Z</time></trkpt><trkpt lat="42.49433698884842" lon="14.069283029075384"><ele>126.0</ele><time>2026-03-29T08:05:03.999Z</time></trkpt><trkpt lat="42.49445383714876" lon="14.06910623741885"><ele>127.0</ele><time>2026-03-29T08:05:04.999Z</time></trkpt><trkpt lat="42.494575627956756" lon="14.068929796915489"><ele>128.0</ele><time>2026-03-29T08:05:05.999Z</time></trkpt><trkpt lat="42.494696162080125" lon="14.06875591926494"><ele>129.0</ele><time>2026-03-29T08:05:06.999Z</time></trkpt><trkpt lat="42.49481385541619" lon="14.0685834279173"><ele>130.66666666666666</ele><time>2026-03-29T08:05:07.999Z</time></trkpt><trkpt lat="42.49492829920865" lon="14.068414470092769"><ele>132.33333333333331</ele><time>2026-03-29T08:05:08.999Z</time></trkpt><trkpt lat="42.49505448232957" lon="14.068266137792039"><ele>134.0</ele><time>2026-03-29T08:05:09.999Z</time></trkpt><trkpt lat="42.495169779083845" lon="14.068101670840733"><ele>136.33333333333331</ele><time>2026-03-29T08:05:10.999Z</time></trkpt><trkpt lat="42.49527327805861" lon="14.067933227430723"><ele>138.66666666666666</ele><time>2026-03-29T08:05:11.999Z</time></trkpt><trkpt lat="42.49539628674365" lon="14.067792880904058"><ele>141.0</ele><time>2026-03-29T08:05:12.999Z</time></trkpt><trkpt lat="42.49554855008206" lon="14.067701888696197"><ele>142.0</ele><time>2026-03-29T08:05:13.999Z</time></trkpt><trkpt lat="42.49569453227936" lon="14.067602850696984"><ele>143.0</ele><time>2026-03-29T08:05:14.999Z</time></trkpt><trkpt lat="42.49584207339272" lon="14.06750523671512"><ele>144.0</ele><time>2026-03-29T08:05:15.999Z</time></trkpt><trkpt lat="42.49599452552451" lon="14.067440842522997"><ele>147.0</ele><time>2026-03-29T08:05:16.999Z</time></trkpt><trkpt lat="42.49615739060883" lon="14.067393055220307"><ele>150.0</ele><time>2026-03-29T08:05:17.999Z</time></trkpt><trkpt lat="42.4963234820215" lon="14.067394688570744"><ele>153.0</ele><time>2026-03-29T08:05:18.999Z</time></trkpt><trkpt lat="42.49649229165278" lon="14.067401813313563"><ele>153.66666666666666</ele><time>2026-03-29T08:05:19.999Z</time></trkpt><trkpt lat="42.49666653536688" lon="14.067411255030764"><ele>154.33333333333331</ele><time>2026-03-29T08:05:20.999Z</time></trkpt><trkpt lat="42.496839499923496" lon="14.067452507023555"><ele>155.0</ele><time>2026-03-29T08:05:21.999Z</time></trkpt><trkpt lat="42.49701692406459" lon="14.067490949276038"><ele>154.33333333333331</ele><time>2026-03-29T08:05:22.999Z</time></trkpt><trkpt lat="42.497184697306146" lon="14.067520631778901"><ele>153.66666666666666</ele><time>2026-03-29T08:05:23.999Z</time></trkpt><trkpt lat="42.497350197140285" lon="14.067543802092151"><ele>153.0</ele><time>2026-03-29T08:05:24.999Z</time></trkpt><trkpt lat="42.497517960958525" lon="14.067568040226499"><ele>153.0</ele><time>2026-03-29T08:05:25.999Z</time></trkpt><trkpt lat="42.49768586839875" lon="14.067599581583046"><ele>153.0</ele><time>2026-03-29T08:05:26.999Z</time></trkpt><trkpt lat="42.497851366655375" lon="14.067631322668886"><ele>153.0</ele><time>2026-03-29T08:05:27.999Z</time></trkpt><trkpt lat="42.49800158356946" lon="14.067658593199422"><ele>155.66666666666666</ele><time>2026-03-29T08:05:28.999Z</time></trkpt><trkpt lat="42.49815246348613" lon="14.067681117748382"><ele>158.33333333333331</ele><time>2026-03-29T08:05:29.999Z</time></trkpt><trkpt lat="42.49830527861013" lon="14.067676753940955"><ele>161.0</ele><time>2026-03-29T08:05:30.999Z</time></trkpt><trkpt lat="42.49846547950107" lon="14.067631774996492"><ele>161.0</ele><time>2026-03-29T08:05:31.999Z</time></trkpt><trkpt lat="42.498620639152485" lon="14.067561385850693"><ele>161.0</ele><time>2026-03-29T08:05:32.999Z</time></trkpt><trkpt lat="42.498774802968434" lon="14.067468669068845"><ele>161.0</ele><time>2026-03-29T08:05:33.999Z</time></trkpt><trkpt lat="42.498925611311144" lon="14.067369001940957"><ele>163.66666666666666</ele><time>2026-03-29T08:05:34.999Z</time></trkpt><trkpt lat="42.49908489128678" lon="14.06726818027306"><ele>166.33333333333334</ele><time>2026-03-29T08:05:35.999Z</time></trkpt><trkpt lat="42.499249346443776" lon="14.067173135227177"><ele>169.0</ele><time>2026-03-29T08:05:36.999Z</time></trkpt><trkpt lat="42.499420051149485" lon="14.067096304236204"><ele>168.33333333333334</ele><time>2026-03-29T08:05:37.999Z</time></trkpt><trkpt lat="42.4995983035787" lon="14.067035992392189"><ele>167.66666666666666</ele><time>2026-03-29T08:05:38.999Z</time></trkpt><trkpt lat="42.49978184312578" lon="14.06699697655251"><ele>167.0</ele><time>2026-03-29T08:05:39.999Z</time></trkpt><trkpt lat="42.499971231175145" lon="14.066995023279484"><ele>167.0</ele><time>2026-03-29T08:05:40.999Z</time></trkpt><trkpt lat="42.50016501524406" lon="14.067015618672707"><ele>167.0</ele><time>2026-03-29T08:05:41.999Z</time></trkpt><trkpt lat="42.50036098723431" lon="14.067042959700677"><ele>167.0</ele><time>2026-03-29T08:05:42.999Z</time></trkpt><trkpt lat="42.50056263101594" lon="14.06706420553529"><ele>166.33333333333331</ele><time>2026-03-29T08:05:43.999Z</time></trkpt><trkpt lat="42.500763439723826" lon="14.067080625332597"><ele>165.66666666666666</ele><time>2026-03-29T08:05:44.999Z</time></trkpt><trkpt lat="42.50095968322964" lon="14.06710237227023"><ele>165.0</ele><time>2026-03-29T08:05:45.999Z</time></trkpt><trkpt lat="42.50115118632794" lon="14.067120123113721"><ele>165.33333333333334</ele><time>2026-03-29T08:05:46.999Z</time></trkpt><trkpt lat="42.50132711373684" lon="14.067135999489691"><ele>165.66666666666669</ele><time>2026-03-29T08:05:47.999Z</time></trkpt><trkpt lat="42.50150701383997" lon="14.067156837764369"><ele>166.0</ele><time>2026-03-29T08:05:48.999Z</time></trkpt><trkpt lat="42.50168598097464" lon="14.067173397108029"><ele>166.0</ele><time>2026-03-29T08:05:49.999Z</time></trkpt><trkpt lat="42.50186765240848" lon="14.067176312106895"><ele>166.0</ele><time>2026-03-29T08:05:50.999Z</time></trkpt><trkpt lat="42.50205012806432" lon="14.067161264593352"><ele>166.0</ele><time>2026-03-29T08:05:51.999Z</time></trkpt><trkpt lat="42.50223330764897" lon="14.067126463571652"><ele>168.0</ele><time>2026-03-29T08:05:52.999Z</time></trkpt><trkpt lat="42.502418372580834" lon="14.067076015323703"><ele>170.0</ele><time>2026-03-29T08:05:53.998Z</time></trkpt><trkpt lat="42.502600004686684" lon="14.067016392697704"><ele>172.0</ele><time>2026-03-29T08:05:54.998Z</time></trkpt><trkpt lat="42.50278694350431" lon="14.066952820638857"><ele>172.0</ele><time>2026-03-29T08:05:55.998Z</time></trkpt><trkpt lat="42.502973601466" lon="14.066892106891393"><ele>172.0</ele><time>2026-03-29T08:05:56.998Z</time></trkpt><trkpt lat="42.50316587864654" lon="14.066839616639085"><ele>172.0</ele><time>2026-03-29T08:05:57.998Z</time></trkpt><trkpt lat="42.503356319636204" lon="14.066787792537918"><ele>172.0</ele><time>2026-03-29T08:05:58.998Z</time></trkpt><trkpt lat="42.50354617092897" lon="14.066733254937601"><ele>172.0</ele><time>2026-03-29T08:05:59.998Z</time></trkpt><trkpt lat="42.503731153230035" lon="14.066680222586362"><ele>172.0</ele><time>2026-03-29T08:06:00.998Z</time></trkpt><trkpt lat="42.503898421892245" lon="14.066634992037043"><ele>173.0</ele><time>2026-03-29T08:06:01.998Z</time></trkpt><trkpt lat="42.50406268351827" lon="14.066587912580719"><ele>174.0</ele><time>2026-03-29T08:06:02.998Z</time></trkpt><trkpt lat="42.504227915714864" lon="14.066536107891777"><ele>175.0</ele><time>2026-03-29T08:06:03.998Z</time></trkpt><trkpt lat="42.50438999155447" lon="14.066472259193093"><ele>175.0</ele><time>2026-03-29T08:06:04.998Z</time></trkpt><trkpt lat="42.50455228335778" lon="14.066392823593482"><ele>175.0</ele><time>2026-03-29T08:06:05.998Z</time></trkpt><trkpt lat="42.50470356776616" lon="14.066295612821348"><ele>175.0</ele><time>2026-03-29T08:06:06.998Z</time></trkpt><trkpt lat="42.50484697912684" lon="14.066204780598998"><ele>176.33333333333334</ele><time>2026-03-29T08:06:07.998Z</time></trkpt><trkpt lat="42.50500215166033" lon="14.066126233082821"><ele>177.66666666666666</ele><time>2026-03-29T08:06:08.998Z</time></trkpt><trkpt lat="42.50515084349577" lon="14.066018767804518"><ele>179.0</ele><time>2026-03-29T08:06:09.998Z</time></trkpt><trkpt lat="42.50529983514421" lon="14.065883682004406"><ele>178.33333333333331</ele><time>2026-03-29T08:06:10.998Z</time></trkpt><trkpt lat="42.505436696431865" lon="14.06573797788596"><ele>177.66666666666666</ele><time>2026-03-29T08:06:11.998Z</time></trkpt><trkpt lat="42.50555923107381" lon="14.065596842706636"><ele>177.0</ele><time>2026-03-29T08:06:12.998Z</time></trkpt><trkpt lat="42.50567181119895" lon="14.065461278427396"><ele>177.0</ele><time>2026-03-29T08:06:13.998Z</time></trkpt><trkpt lat="42.50579162664716" lon="14.065353220233703"><ele>177.0</ele><time>2026-03-29T08:06:14.998Z</time></trkpt><trkpt lat="42.50589960295881" lon="14.06523030239264"><ele>177.0</ele><time>2026-03-29T08:06:15.998Z</time></trkpt><trkpt lat="42.50600348587979" lon="14.065086318691284"><ele>177.0</ele><time>2026-03-29T08:06:16.998Z</time></trkpt><trkpt lat="42.50612059717836" lon="14.064951836432275"><ele>176.0</ele><time>2026-03-29T08:06:17.998Z</time></trkpt><trkpt lat="42.50624040355423" lon="14.064815358900056"><ele>175.0</ele><time>2026-03-29T08:06:18.998Z</time></trkpt><trkpt lat="42.50636201486679" lon="14.064680982953275"><ele>174.0</ele><time>2026-03-29T08:06:19.998Z</time></trkpt><trkpt lat="42.50648149701966" lon="14.064544890038539"><ele>174.0</ele><time>2026-03-29T08:06:20.998Z</time></trkpt><trkpt lat="42.50659283060328" lon="14.064424329803288"><ele>174.0</ele><time>2026-03-29T08:06:21.998Z</time></trkpt><trkpt lat="42.50669808598924" lon="14.064302220349342"><ele>174.0</ele><time>2026-03-29T08:06:22.998Z</time></trkpt><trkpt lat="42.50680134967242" lon="14.0641856265754"><ele>174.0</ele><time>2026-03-29T08:06:23.998Z</time></trkpt><trkpt lat="42.506910396271174" lon="14.06406852470605"><ele>174.5</ele><time>2026-03-29T08:06:24.998Z</time></trkpt><trkpt lat="42.50701450298535" lon="14.063960669469356"><ele>175.0</ele><time>2026-03-29T08:06:25.998Z</time></trkpt><trkpt lat="42.507113467262116" lon="14.063853918886801"><ele>175.5</ele><time>2026-03-29T08:06:26.998Z</time></trkpt><trkpt lat="42.507234775681496" lon="14.063758776785487"><ele>176.0</ele><time>2026-03-29T08:06:27.998Z</time></trkpt><trkpt lat="42.50733994375166" lon="14.063667612557705"><ele>176.0</ele><time>2026-03-29T08:06:28.998Z</time></trkpt><trkpt lat="42.50745483459808" lon="14.063570510937922"><ele>176.0</ele><time>2026-03-29T08:06:29.998Z</time></trkpt><trkpt lat="42.50756978290813" lon="14.06345921555141"><ele>176.0</ele><time>2026-03-29T08:06:30.998Z</time></trkpt><trkpt lat="42.50769929358739" lon="14.063360758394095"><ele>176.0</ele><time>2026-03-29T08:06:31.998Z</time></trkpt><trkpt lat="42.50781730532169" lon="14.063254603049653"><ele>175.5</ele><time>2026-03-29T08:06:32.998Z</time></trkpt><trkpt lat="42.50794268409235" lon="14.063152448274645"><ele>175.0</ele><time>2026-03-29T08:06:33.998Z</time></trkpt><trkpt lat="42.508068551484286" lon="14.06305520447917"><ele>174.5</ele><time>2026-03-29T08:06:34.998Z</time></trkpt><trkpt lat="42.5081989403053" lon="14.062955143202302"><ele>174.0</ele><time>2026-03-29T08:06:35.998Z</time></trkpt><trkpt lat="42.50832693882674" lon="14.062853180135626"><ele>174.0</ele><time>2026-03-29T08:06:36.998Z</time></trkpt><trkpt lat="42.50846227878581" lon="14.062746723430461"><ele>174.0</ele><time>2026-03-29T08:06:38Z</time></trkpt><trkpt lat="42.5086033358958" lon="14.062635910171982"><ele>174.0</ele><time>2026-03-29T08:06:39Z</time></trkpt><trkpt lat="42.508749284543654" lon="14.062521494395044"><ele>174.33333333333334</ele><time>2026-03-29T08:06:40Z</time></trkpt><trkpt lat="42.50888237788596" lon="14.062404728736285"><ele>174.66666666666669</ele><time>2026-03-29T08:06:41Z</time></trkpt><trkpt lat="42.50902199381964" lon="14.06232043841328"><ele>175.0</ele><time>2026-03-29T08:06:42Z</time></trkpt><trkpt lat="42.50913774722515" lon="14.06220295219952"><ele>175.0</ele><time>2026-03-29T08:06:43Z</time></trkpt><trkpt lat="42.50925137786053" lon="14.062123738064084"><ele>175.0</ele><time>2026-03-29T08:06:44Z</time></trkpt><trkpt lat="42.509364488445094" lon="14.06202748650715"><ele>175.0</ele><time>2026-03-29T08:06:45Z</time></trkpt><trkpt lat="42.50949431038886" lon="14.061928181593219"><ele>175.0</ele><time>2026-03-29T08:06:46Z</time></trkpt><trkpt lat="42.509621490143005" lon="14.061831233088588"><ele>176.25</ele><time>2026-03-29T08:06:47Z</time></trkpt><trkpt lat="42.50975247305836" lon="14.06173703561648"><ele>177.5</ele><time>2026-03-29T08:06:48Z</time></trkpt><trkpt lat="42.5098823646175" lon="14.06163385922479"><ele>178.75</ele><time>2026-03-29T08:06:49Z</time></trkpt><trkpt lat="42.510003613783255" lon="14.061524451574206"><ele>180.0</ele><time>2026-03-29T08:06:50Z</time></trkpt><trkpt lat="42.51012715343432" lon="14.061426309410255"><ele>180.33333333333334</ele><time>2026-03-29T08:06:51Z</time></trkpt><trkpt lat="42.51025922667026" lon="14.061314981732009"><ele>180.66666666666669</ele><time>2026-03-29T08:06:52Z</time></trkpt><trkpt lat="42.510401301437824" lon="14.061222127789792"><ele>181.0</ele><time>2026-03-29T08:06:53Z</time></trkpt><trkpt lat="42.51053389831904" lon="14.061090217955531"><ele>182.33333333333334</ele><time>2026-03-29T08:06:54Z</time></trkpt><trkpt lat="42.510682457743215" lon="14.060980843053498"><ele>183.66666666666666</ele><time>2026-03-29T08:06:55Z</time></trkpt><trkpt lat="42.51082832129916" lon="14.060870456533076"><ele>185.0</ele><time>2026-03-29T08:06:56Z</time></trkpt><trkpt lat="42.51097592027674" lon="14.060749835021966"><ele>186.0</ele><time>2026-03-29T08:06:57Z</time></trkpt><trkpt lat="42.51112011062548" lon="14.060629156434901"><ele>187.0</ele><time>2026-03-29T08:06:58Z</time></trkpt><trkpt lat="42.511266679749454" lon="14.060507824172177"><ele>188.0</ele><time>2026-03-29T08:06:59Z</time></trkpt><trkpt lat="42.511412508943295" lon="14.060380282802772"><ele>189.66666666666666</ele><time>2026-03-29T08:07:00Z</time></trkpt><trkpt lat="42.51155084093231" lon="14.060231191812216"><ele>191.33333333333331</ele><time>2026-03-29T08:07:01Z</time></trkpt><trkpt lat="42.51166869450508" lon="14.060055033710242"><ele>193.0</ele><time>2026-03-29T08:07:02Z</time></trkpt><trkpt lat="42.51177184026224" lon="14.059858531653763"><ele>194.66666666666666</ele><time>2026-03-29T08:07:03Z</time></trkpt><trkpt lat="42.51185427572506" lon="14.05964222994404"><ele>196.33333333333331</ele><time>2026-03-29T08:07:04Z</time></trkpt><trkpt lat="42.51191435076474" lon="14.059414188051035"><ele>198.0</ele><time>2026-03-29T08:07:05Z</time></trkpt><trkpt lat="42.511961180053376" lon="14.05917653360773"><ele>199.0</ele><time>2026-03-29T08:07:06Z</time></trkpt><trkpt lat="42.512024037642284" lon="14.0589431257893"><ele>200.0</ele><time>2026-03-29T08:07:06.999Z</time></trkpt><trkpt lat="42.51207570057288" lon="14.058730534959254"><ele>201.0</ele><time>2026-03-29T08:07:07.999Z</time></trkpt><trkpt lat="42.51211137120502" lon="14.05853653346055"><ele>205.33333333333331</ele><time>2026-03-29T08:07:08.999Z</time></trkpt><trkpt lat="42.51213996959453" lon="14.058328305921282"><ele>209.66666666666666</ele><time>2026-03-29T08:07:09.999Z</time></trkpt><trkpt lat="42.512140686095805" lon="14.058102205513395"><ele>214.0</ele><time>2026-03-29T08:07:10.999Z</time></trkpt><trkpt lat="42.512109254404194" lon="14.057867070520457"><ele>216.33333333333331</ele><time>2026-03-29T08:07:11.999Z</time></trkpt><trkpt lat="42.51208114000066" lon="14.057637970329559"><ele>218.66666666666669</ele><time>2026-03-29T08:07:12.999Z</time></trkpt><trkpt lat="42.512074553623314" lon="14.057433969637069"><ele>221.0</ele><time>2026-03-29T08:07:13.999Z</time></trkpt><trkpt lat="42.51208727957494" lon="14.05723661818844"><ele>221.33333333333334</ele><time>2026-03-29T08:07:14.999Z</time></trkpt><trkpt lat="42.51213281732666" lon="14.057040963455227"><ele>221.66666666666669</ele><time>2026-03-29T08:07:15.999Z</time></trkpt><trkpt lat="42.512182308941426" lon="14.056835701793213"><ele>222.0</ele><time>2026-03-29T08:07:16.999Z</time></trkpt><trkpt lat="42.51220135376782" lon="14.056618022400096"><ele>222.0</ele><time>2026-03-29T08:07:17.999Z</time></trkpt><trkpt lat="42.51221701231351" lon="14.056394223275932"><ele>222.0</ele><time>2026-03-29T08:07:18.999Z</time></trkpt><trkpt lat="42.51221091872283" lon="14.056169898119071"><ele>222.0</ele><time>2026-03-29T08:07:19.999Z</time></trkpt><trkpt lat="42.51220629597586" lon="14.055974980206608"><ele>222.0</ele><time>2026-03-29T08:07:20.999Z</time></trkpt><trkpt lat="42.51222787807982" lon="14.055807560215186"><ele>222.0</ele><time>2026-03-29T08:07:21.999Z</time></trkpt><trkpt lat="42.51225184845009" lon="14.055683619075841"><ele>222.0</ele><time>2026-03-29T08:07:22.999Z</time></trkpt><trkpt lat="42.512299052881545" lon="14.055607894556895"><ele>222.0</ele><time>2026-03-29T08:07:23.999Z</time></trkpt><trkpt lat="42.51235916873919" lon="14.055525428570688"><ele>222.0</ele><time>2026-03-29T08:07:24.999Z</time></trkpt><trkpt lat="42.512461810175736" lon="14.055530432184097"><ele>222.75</ele><time>2026-03-29T08:07:25.999Z</time></trkpt><trkpt lat="42.51256849901415" lon="14.055541105224126"><ele>223.5</ele><time>2026-03-29T08:07:26.999Z</time></trkpt><trkpt lat="42.51268152631651" lon="14.055597988085545"><ele>224.25</ele><time>2026-03-29T08:07:27.999Z</time></trkpt><trkpt lat="42.512801594204475" lon="14.055668346787444"><ele>225.0</ele><time>2026-03-29T08:07:28.999Z</time></trkpt><trkpt lat="42.51292337991669" lon="14.055739289398753"><ele>227.0</ele><time>2026-03-29T08:07:29.999Z</time></trkpt><trkpt lat="42.51305304086088" lon="14.055810123482342"><ele>229.0</ele><time>2026-03-29T08:07:30.999Z</time></trkpt><trkpt lat="42.513190553467204" lon="14.05586066745948"><ele>231.0</ele><time>2026-03-29T08:07:31.999Z</time></trkpt><trkpt lat="42.51332875436239" lon="14.055892278866578"><ele>233.0</ele><time>2026-03-29T08:07:32.999Z</time></trkpt><trkpt lat="42.513451453757305" lon="14.055911055456471"><ele>233.0</ele><time>2026-03-29T08:07:33.999Z</time></trkpt><trkpt lat="42.51356511451497" lon="14.055916613940061"><ele>233.0</ele><time>2026-03-29T08:07:34.999Z</time></trkpt><trkpt lat="42.51366873826304" lon="14.055890441691135"><ele>233.0</ele><time>2026-03-29T08:07:35.999Z</time></trkpt><trkpt lat="42.513761717885906" lon="14.055818719833267"><ele>233.0</ele><time>2026-03-29T08:07:36.999Z</time></trkpt><trkpt lat="42.51382906987447" lon="14.055709057666007"><ele>233.0</ele><time>2026-03-29T08:07:37.999Z</time></trkpt><trkpt lat="42.51385857764889" lon="14.055554334122899"><ele>236.0</ele><time>2026-03-29T08:07:38.999Z</time></trkpt><trkpt lat="42.51385531176554" lon="14.055385113999751"><ele>239.0</ele><time>2026-03-29T08:07:39.999Z</time></trkpt><trkpt lat="42.51382761644748" lon="14.055210277656425"><ele>242.0</ele><time>2026-03-29T08:07:40.999Z</time></trkpt><trkpt lat="42.513821994757095" lon="14.055022637095954"><ele>245.0</ele><time>2026-03-29T08:07:41.999Z</time></trkpt><trkpt lat="42.513829525142256" lon="14.054834916670842"><ele>245.0</ele><time>2026-03-29T08:07:42.999Z</time></trkpt><trkpt lat="42.513867903152686" lon="14.054674298004258"><ele>245.0</ele><time>2026-03-29T08:07:43.999Z</time></trkpt><trkpt lat="42.51391550414218" lon="14.054522254564594"><ele>245.0</ele><time>2026-03-29T08:07:44.999Z</time></trkpt><trkpt lat="42.5139844345519" lon="14.054379703627614"><ele>245.0</ele><time>2026-03-29T08:07:45.999Z</time></trkpt><trkpt lat="42.51406749776289" lon="14.054233807810455"><ele>242.75</ele><time>2026-03-29T08:07:46.999Z</time></trkpt><trkpt lat="42.514173599664886" lon="14.054114530563057"><ele>240.5</ele><time>2026-03-29T08:07:47.999Z</time></trkpt><trkpt lat="42.51426599288828" lon="14.053974213671587"><ele>238.25</ele><time>2026-03-29T08:07:48.999Z</time></trkpt><trkpt lat="42.514374646846655" lon="14.053862003618095"><ele>236.0</ele><time>2026-03-29T08:07:49.999Z</time></trkpt><trkpt lat="42.51450123080964" lon="14.05381665294022"><ele>239.0</ele><time>2026-03-29T08:07:50.999Z</time></trkpt><trkpt lat="42.51462669873683" lon="14.053760410948348"><ele>242.0</ele><time>2026-03-29T08:07:51.999Z</time></trkpt><trkpt lat="42.51475996377718" lon="14.053687362064723"><ele>245.0</ele><time>2026-03-29T08:07:52.999Z</time></trkpt><trkpt lat="42.5149001415342" lon="14.0536067186258"><ele>248.0</ele><time>2026-03-29T08:07:53.999Z</time></trkpt><trkpt lat="42.5150425557308" lon="14.05349706217685"><ele>248.0</ele><time>2026-03-29T08:07:54.999Z</time></trkpt><trkpt lat="42.515179830915145" lon="14.053380088620337"><ele>248.0</ele><time>2026-03-29T08:07:55.999Z</time></trkpt><trkpt lat="42.51531898414812" lon="14.053249401418544"><ele>248.0</ele><time>2026-03-29T08:07:56.999Z</time></trkpt><trkpt lat="42.51545230472436" lon="14.053109728626817"><ele>250.5</ele><time>2026-03-29T08:07:57.999Z</time></trkpt><trkpt lat="42.515564535916056" lon="14.052974977797597"><ele>253.0</ele><time>2026-03-29T08:07:58.999Z</time></trkpt><trkpt lat="42.515679535921365" lon="14.052879961038244"><ele>255.5</ele><time>2026-03-29T08:07:59.999Z</time></trkpt><trkpt lat="42.51577450847496" lon="14.052758964422527"><ele>258.0</ele><time>2026-03-29T08:08:00.999Z</time></trkpt><trkpt lat="42.515875948055424" lon="14.052684914880455"><ele>258.0</ele><time>2026-03-29T08:08:01.999Z</time></trkpt><trkpt lat="42.5159567819206" lon="14.052626479803687"><ele>258.0</ele><time>2026-03-29T08:08:02.999Z</time></trkpt><trkpt lat="42.51602318222539" lon="14.052585688668518"><ele>258.0</ele><time>2026-03-29T08:08:03.999Z</time></trkpt><trkpt lat="42.51608791507614" lon="14.05261035706272"><ele>258.0</ele><time>2026-03-29T08:08:04.999Z</time></trkpt><trkpt lat="42.516161985543675" lon="14.052689252733238"><ele>258.0</ele><time>2026-03-29T08:08:06.998Z</time></trkpt><trkpt lat="42.51620474133346" lon="14.052765061751218"><ele>258.0</ele><time>2026-03-29T08:08:08.998Z</time></trkpt><trkpt lat="42.51629093773274" lon="14.05277573803277"><ele>257.6</ele><time>2026-03-29T08:08:11.998Z</time></trkpt><trkpt lat="42.51634355993426" lon="14.0526327259879"><ele>257.20000000000005</ele><time>2026-03-29T08:08:12.998Z</time></trkpt><trkpt lat="42.5163553307793" lon="14.05252504856063"><ele>256.8</ele><time>2026-03-29T08:08:13.998Z</time></trkpt><trkpt lat="42.516375219485035" lon="14.05238864810677"><ele>256.40000000000003</ele><time>2026-03-29T08:08:14.998Z</time></trkpt><trkpt lat="42.51639223555696" lon="14.052251275896875"><ele>256.0</ele><time>2026-03-29T08:08:15.998Z</time></trkpt><trkpt lat="42.51643644489782" lon="14.052108416335935"><ele>256.0</ele><time>2026-03-29T08:08:16.998Z</time></trkpt><trkpt lat="42.516480188323904" lon="14.051942567363248"><ele>256.0</ele><time>2026-03-29T08:08:17.998Z</time></trkpt><trkpt lat="42.51653070380421" lon="14.051769099706782"><ele>256.0</ele><time>2026-03-29T08:08:18.998Z</time></trkpt><trkpt lat="42.51658742031625" lon="14.051590977748747"><ele>256.0</ele><time>2026-03-29T08:08:19.998Z</time></trkpt><trkpt lat="42.51664910749716" lon="14.051406115912044"><ele>256.66666666666663</ele><time>2026-03-29T08:08:20.998Z</time></trkpt><trkpt lat="42.516713610210296" lon="14.051209001296144"><ele>257.3333333333333</ele><time>2026-03-29T08:08:21.998Z</time></trkpt><trkpt lat="42.51678121264311" lon="14.050994501983165"><ele>258.0</ele><time>2026-03-29T08:08:22.998Z</time></trkpt><trkpt lat="42.516831869045596" lon="14.05076680422302"><ele>258.3333333333333</ele><time>2026-03-29T08:08:23.998Z</time></trkpt><trkpt lat="42.51691169524799" lon="14.050555256689941"><ele>258.66666666666663</ele><time>2026-03-29T08:08:24.998Z</time></trkpt><trkpt lat="42.51697621591473" lon="14.050332764910047"><ele>259.0</ele><time>2026-03-29T08:08:25.998Z</time></trkpt><trkpt lat="42.51704642327077" lon="14.050099786670655"><ele>254.66666666666666</ele><time>2026-03-29T08:08:26.998Z</time></trkpt><trkpt lat="42.51711602194981" lon="14.049870411475926"><ele>250.33333333333331</ele><time>2026-03-29T08:08:27.998Z</time></trkpt><trkpt lat="42.517181805750724" lon="14.049661117139966"><ele>246.0</ele><time>2026-03-29T08:08:28.998Z</time></trkpt><trkpt lat="42.517243664494266" lon="14.049468809851302"><ele>246.0</ele><time>2026-03-29T08:08:29.998Z</time></trkpt><trkpt lat="42.51731127444356" lon="14.049261013134855"><ele>246.0</ele><time>2026-03-29T08:08:30.998Z</time></trkpt><trkpt lat="42.51737668467071" lon="14.049061324023087"><ele>246.0</ele><time>2026-03-29T08:08:31.998Z</time></trkpt><trkpt lat="42.51744688629809" lon="14.048857024910292"><ele>249.0</ele><time>2026-03-29T08:08:32.998Z</time></trkpt><trkpt lat="42.517528658680824" lon="14.04864245798109"><ele>252.0</ele><time>2026-03-29T08:08:33.998Z</time></trkpt><trkpt lat="42.51759565275451" lon="14.048420883342587"><ele>255.0</ele><time>2026-03-29T08:08:34.998Z</time></trkpt><trkpt lat="42.51768752359381" lon="14.04822255839581"><ele>256.0</ele><time>2026-03-29T08:08:35.998Z</time></trkpt><trkpt lat="42.51776202382767" lon="14.048022707228432"><ele>257.0</ele><time>2026-03-29T08:08:36.998Z</time></trkpt><trkpt lat="42.517837719551174" lon="14.04782467746408"><ele>258.0</ele><time>2026-03-29T08:08:37.998Z</time></trkpt><trkpt lat="42.517913803148836" lon="14.047637985251654"><ele>253.66666666666669</ele><time>2026-03-29T08:08:38.998Z</time></trkpt><trkpt lat="42.518004896632206" lon="14.047460373551825"><ele>249.33333333333334</ele><time>2026-03-29T08:08:39.998Z</time></trkpt><trkpt lat="42.51811312300783" lon="14.047278735200175"><ele>245.0</ele><time>2026-03-29T08:08:40.998Z</time></trkpt><trkpt lat="42.51822713512215" lon="14.047090282073196"><ele>245.0</ele><time>2026-03-29T08:08:41.998Z</time></trkpt><trkpt lat="42.518345230824366" lon="14.046892474084066"><ele>245.0</ele><time>2026-03-29T08:08:42.998Z</time></trkpt><trkpt lat="42.51845601903042" lon="14.046705588726997"><ele>245.0</ele><time>2026-03-29T08:08:44Z</time></trkpt><trkpt lat="42.51854758333995" lon="14.046511072683197"><ele>244.0</ele><time>2026-03-29T08:08:45Z</time></trkpt><trkpt lat="42.51864981635462" lon="14.046338569791347"><ele>243.0</ele><time>2026-03-29T08:08:46Z</time></trkpt><trkpt lat="42.51874767266636" lon="14.046163667414941"><ele>242.0</ele><time>2026-03-29T08:08:47Z</time></trkpt><trkpt lat="42.51884044571067" lon="14.045993431564392"><ele>242.33333333333334</ele><time>2026-03-29T08:08:48Z</time></trkpt><trkpt lat="42.51893703479394" lon="14.045815301762783"><ele>242.66666666666669</ele><time>2026-03-29T08:08:49Z</time></trkpt><trkpt lat="42.51905014105645" lon="14.045648150597161"><ele>243.0</ele><time>2026-03-29T08:08:50Z</time></trkpt><trkpt lat="42.519153480943345" lon="14.045466666736184"><ele>243.0</ele><time>2026-03-29T08:08:51Z</time></trkpt><trkpt lat="42.519258404633774" lon="14.04530006004605"><ele>243.0</ele><time>2026-03-29T08:08:52Z</time></trkpt><trkpt lat="42.51936987713817" lon="14.04515911507063"><ele>243.0</ele><time>2026-03-29T08:08:53Z</time></trkpt><trkpt lat="42.519498542894475" lon="14.045021051010298"><ele>245.66666666666669</ele><time>2026-03-29T08:08:54Z</time></trkpt><trkpt lat="42.519645825523355" lon="14.04487379889468"><ele>248.33333333333334</ele><time>2026-03-29T08:08:55Z</time></trkpt><trkpt lat="42.519761631556044" lon="14.04473366749738"><ele>251.0</ele><time>2026-03-29T08:08:56Z</time></trkpt><trkpt lat="42.51991286216189" lon="14.044624639950017"><ele>251.0</ele><time>2026-03-29T08:08:57Z</time></trkpt><trkpt lat="42.52004996125126" lon="14.044483240385658"><ele>251.0</ele><time>2026-03-29T08:08:58Z</time></trkpt><trkpt lat="42.52019434596618" lon="14.04436439032821"><ele>251.0</ele><time>2026-03-29T08:08:59Z</time></trkpt><trkpt lat="42.52033590427808" lon="14.044251452785717"><ele>250.0</ele><time>2026-03-29T08:09:00Z</time></trkpt><trkpt lat="42.520463918057246" lon="14.04414529959852"><ele>249.0</ele><time>2026-03-29T08:09:01Z</time></trkpt><trkpt lat="42.52059338266261" lon="14.044055017002423"><ele>248.0</ele><time>2026-03-29T08:09:02Z</time></trkpt><trkpt lat="42.52071603292151" lon="14.043941524767678"><ele>247.0</ele><time>2026-03-29T08:09:03Z</time></trkpt><trkpt lat="42.52083050186362" lon="14.043855692092437"><ele>250.25</ele><time>2026-03-29T08:09:04Z</time></trkpt><trkpt lat="42.52094253572514" lon="14.043818887616062"><ele>253.5</ele><time>2026-03-29T08:09:05Z</time></trkpt><trkpt lat="42.5210586364503" lon="14.043823705780198"><ele>256.75</ele><time>2026-03-29T08:09:06Z</time></trkpt><trkpt lat="42.52117095772051" lon="14.043878916432154"><ele>260.0</ele><time>2026-03-29T08:09:07Z</time></trkpt><trkpt lat="42.52127327344166" lon="14.04392904776332"><ele>260.33333333333337</ele><time>2026-03-29T08:09:08Z</time></trkpt><trkpt lat="42.52136478517784" lon="14.043973818543295"><ele>260.6666666666667</ele><time>2026-03-29T08:09:09Z</time></trkpt><trkpt lat="42.52145092383869" lon="14.044015647465159"><ele>261.0</ele><time>2026-03-29T08:09:10Z</time></trkpt><trkpt lat="42.52153543958659" lon="14.044029462078749"><ele>261.3333333333333</ele><time>2026-03-29T08:09:11Z</time></trkpt><trkpt lat="42.52161213813449" lon="14.044004256266241"><ele>261.66666666666663</ele><time>2026-03-29T08:09:12Z</time></trkpt><trkpt lat="42.521671400836325" lon="14.043924924214542"><ele>262.0</ele><time>2026-03-29T08:09:13Z</time></trkpt><trkpt lat="42.521685751902474" lon="14.043812710626893"><ele>262.0</ele><time>2026-03-29T08:09:14Z</time></trkpt><trkpt lat="42.52166832615128" lon="14.043707615651813"><ele>262.0</ele><time>2026-03-29T08:09:15Z</time></trkpt><trkpt lat="42.52159952659879" lon="14.043639664143287"><ele>262.0</ele><time>2026-03-29T08:09:16Z</time></trkpt><trkpt lat="42.52152356923219" lon="14.043582427097396"><ele>262.0</ele><time>2026-03-29T08:09:17Z</time></trkpt><trkpt lat="42.521428905108884" lon="14.043517822756305"><ele>262.0</ele><time>2026-03-29T08:09:18Z</time></trkpt><trkpt lat="42.52132920767305" lon="14.043443798970747"><ele>261.5</ele><time>2026-03-29T08:09:18.999Z</time></trkpt><trkpt lat="42.52122605208741" lon="14.043353837656015"><ele>261.0</ele><time>2026-03-29T08:09:19.999Z</time></trkpt><trkpt lat="42.521110788084776" lon="14.043268469135244"><ele>260.5</ele><time>2026-03-29T08:09:20.999Z</time></trkpt><trkpt lat="42.52099314328182" lon="14.043207770195943"><ele>260.0</ele><time>2026-03-29T08:09:21.999Z</time></trkpt><trkpt lat="42.52085866655728" lon="14.04317682258886"><ele>264.33333333333337</ele><time>2026-03-29T08:09:22.999Z</time></trkpt><trkpt lat="42.52071279133869" lon="14.043165128583762"><ele>268.6666666666667</ele><time>2026-03-29T08:09:23.999Z</time></trkpt><trkpt lat="42.52056410315908" lon="14.043133410616402"><ele>273.0</ele><time>2026-03-29T08:09:24.999Z</time></trkpt><trkpt lat="42.520410824337254" lon="14.043098731955496"><ele>272.6666666666667</ele><time>2026-03-29T08:09:25.999Z</time></trkpt><trkpt lat="42.52024767643853" lon="14.043054564237698"><ele>272.33333333333337</ele><time>2026-03-29T08:09:26.999Z</time></trkpt><trkpt lat="42.5200900296703" lon="14.043023737795185"><ele>272.0</ele><time>2026-03-29T08:09:27.999Z</time></trkpt><trkpt lat="42.51994813643163" lon="14.042996974211356"><ele>272.0</ele><time>2026-03-29T08:09:28.999Z</time></trkpt><trkpt lat="42.519820712696806" lon="14.042966069729601"><ele>272.0</ele><time>2026-03-29T08:09:29.999Z</time></trkpt><trkpt lat="42.51970293309194" lon="14.042916419292283"><ele>272.0</ele><time>2026-03-29T08:09:30.999Z</time></trkpt><trkpt lat="42.51961545274886" lon="14.042795972747621"><ele>272.0</ele><time>2026-03-29T08:09:31.999Z</time></trkpt><trkpt lat="42.51952533858979" lon="14.04266129939561"><ele>272.25</ele><time>2026-03-29T08:09:32.999Z</time></trkpt><trkpt lat="42.51946659506998" lon="14.042491072983715"><ele>272.5</ele><time>2026-03-29T08:09:33.999Z</time></trkpt><trkpt lat="42.51938024128681" lon="14.04232533782986"><ele>272.75</ele><time>2026-03-29T08:09:34.999Z</time></trkpt><trkpt lat="42.519290112402764" lon="14.042163402576868"><ele>273.0</ele><time>2026-03-29T08:09:35.999Z</time></trkpt><trkpt lat="42.51919290088985" lon="14.042010874964339"><ele>273.0</ele><time>2026-03-29T08:09:36.999Z</time></trkpt><trkpt lat="42.51912531137318" lon="14.041850354461289"><ele>273.0</ele><time>2026-03-29T08:09:37.999Z</time></trkpt><trkpt lat="42.519058364287424" lon="14.041691604919393"><ele>273.0</ele><time>2026-03-29T08:09:38.999Z</time></trkpt><trkpt lat="42.51901058337736" lon="14.041508265602785"><ele>273.0</ele><time>2026-03-29T08:09:39.999Z</time></trkpt><trkpt lat="42.518985554658386" lon="14.041309614790798"><ele>274.75</ele><time>2026-03-29T08:09:40.999Z</time></trkpt><trkpt lat="42.518965015873796" lon="14.041123588709697"><ele>276.5</ele><time>2026-03-29T08:09:41.999Z</time></trkpt><trkpt lat="42.518945331867485" lon="14.040958952809426"><ele>278.25</ele><time>2026-03-29T08:09:42.999Z</time></trkpt><trkpt lat="42.51891114902942" lon="14.040799692887894"><ele>280.0</ele><time>2026-03-29T08:09:43.999Z</time></trkpt><trkpt lat="42.518879428230726" lon="14.040631917084823"><ele>282.0</ele><time>2026-03-29T08:09:44.999Z</time></trkpt><trkpt lat="42.518829260550234" lon="14.0404588816696"><ele>284.0</ele><time>2026-03-29T08:09:45.999Z</time></trkpt><trkpt lat="42.51877668326384" lon="14.040284588699931"><ele>286.0</ele><time>2026-03-29T08:09:46.999Z</time></trkpt><trkpt lat="42.51873014303685" lon="14.040095815297601"><ele>288.0</ele><time>2026-03-29T08:09:47.999Z</time></trkpt><trkpt lat="42.5187099574314" lon="14.039901090046325"><ele>284.0</ele><time>2026-03-29T08:09:48.999Z</time></trkpt><trkpt lat="42.51869109231174" lon="14.03970688821363"><ele>280.0</ele><time>2026-03-29T08:09:49.999Z</time></trkpt><trkpt lat="42.51868243788049" lon="14.039499046082204"><ele>276.0</ele><time>2026-03-29T08:09:50.999Z</time></trkpt><trkpt lat="42.518667391098234" lon="14.039305129391124"><ele>272.0</ele><time>2026-03-29T08:09:51.999Z</time></trkpt><trkpt lat="42.51870660111897" lon="14.039138130542751"><ele>277.25</ele><time>2026-03-29T08:09:52.999Z</time></trkpt><trkpt lat="42.5187533583627" lon="14.038966573638225"><ele>282.5</ele><time>2026-03-29T08:09:53.999Z</time></trkpt><trkpt lat="42.51881462912693" lon="14.038781234818535"><ele>287.75</ele><time>2026-03-29T08:09:54.999Z</time></trkpt><trkpt lat="42.518868950061574" lon="14.038584978086037"><ele>293.0</ele><time>2026-03-29T08:09:55.999Z</time></trkpt><trkpt lat="42.5189276612934" lon="14.038390645367812"><ele>291.0</ele><time>2026-03-29T08:09:56.999Z</time></trkpt><trkpt lat="42.51897902816296" lon="14.03819834552757"><ele>289.0</ele><time>2026-03-29T08:09:57.999Z</time></trkpt><trkpt lat="42.519034941714374" lon="14.038034456651532"><ele>287.0</ele><time>2026-03-29T08:09:58.999Z</time></trkpt><trkpt lat="42.519094681327445" lon="14.037870732592422"><ele>285.0</ele><time>2026-03-29T08:09:59.999Z</time></trkpt><trkpt lat="42.51917870575222" lon="14.037714042779038"><ele>285.0</ele><time>2026-03-29T08:10:00.999Z</time></trkpt><trkpt lat="42.51928249081366" lon="14.037542950231044"><ele>285.0</ele><time>2026-03-29T08:10:01.999Z</time></trkpt><trkpt lat="42.51938034559645" lon="14.03737096745567"><ele>285.0</ele><time>2026-03-29T08:10:02.999Z</time></trkpt><trkpt lat="42.519487995631906" lon="14.037193050490504"><ele>289.6666666666667</ele><time>2026-03-29T08:10:03.999Z</time></trkpt><trkpt lat="42.519582158563445" lon="14.037009172590839"><ele>294.33333333333337</ele><time>2026-03-29T08:10:04.999Z</time></trkpt><trkpt lat="42.519665733458424" lon="14.03684645446917"><ele>299.0</ele><time>2026-03-29T08:10:05.999Z</time></trkpt><trkpt lat="42.51975486002191" lon="14.036689913272337"><ele>295.0</ele><time>2026-03-29T08:10:06.999Z</time></trkpt><trkpt lat="42.51984777646489" lon="14.036537341061832"><ele>291.0</ele><time>2026-03-29T08:10:07.999Z</time></trkpt><trkpt lat="42.519946189367055" lon="14.036385785223581"><ele>287.0</ele><time>2026-03-29T08:10:08.999Z</time></trkpt><trkpt lat="42.52005156326422" lon="14.036227190103968"><ele>287.0</ele><time>2026-03-29T08:10:09.999Z</time></trkpt><trkpt lat="42.520160127876615" lon="14.036056975426558"><ele>287.0</ele><time>2026-03-29T08:10:10.999Z</time></trkpt><trkpt lat="42.52027070252046" lon="14.03588168102264"><ele>287.0</ele><time>2026-03-29T08:10:11.999Z</time></trkpt><trkpt lat="42.52037373905908" lon="14.035707701546716"><ele>290.33333333333337</ele><time>2026-03-29T08:10:12.999Z</time></trkpt><trkpt lat="42.5205069915973" lon="14.03554534110034"><ele>293.6666666666667</ele><time>2026-03-29T08:10:13.999Z</time></trkpt><trkpt lat="42.520631446489325" lon="14.035359862921043"><ele>297.0</ele><time>2026-03-29T08:10:14.999Z</time></trkpt><trkpt lat="42.520770789387036" lon="14.03520163506377"><ele>297.0</ele><time>2026-03-29T08:10:15.999Z</time></trkpt><trkpt lat="42.52089177429836" lon="14.035051610460915"><ele>297.0</ele><time>2026-03-29T08:10:16.999Z</time></trkpt><trkpt lat="42.521001131417115" lon="14.034888779254171"><ele>297.0</ele><time>2026-03-29T08:10:17.998Z</time></trkpt><trkpt lat="42.52109905436429" lon="14.034689806615392"><ele>297.6666666666667</ele><time>2026-03-29T08:10:18.998Z</time></trkpt><trkpt lat="42.52118692866786" lon="14.03447169925195"><ele>298.33333333333337</ele><time>2026-03-29T08:10:19.998Z</time></trkpt><trkpt lat="42.521278037245125" lon="14.034278693847023"><ele>299.0</ele><time>2026-03-29T08:10:20.998Z</time></trkpt><trkpt lat="42.52135268519946" lon="14.03408823387859"><ele>299.0</ele><time>2026-03-29T08:10:21.998Z</time></trkpt><trkpt lat="42.52143069385529" lon="14.033922403236875"><ele>299.0</ele><time>2026-03-29T08:10:22.998Z</time></trkpt><trkpt lat="42.521510983342054" lon="14.033771623760146"><ele>299.0</ele><time>2026-03-29T08:10:23.998Z</time></trkpt><trkpt lat="42.521602185347604" lon="14.033647009610037"><ele>299.0</ele><time>2026-03-29T08:10:24.998Z</time></trkpt><trkpt lat="42.521709322109665" lon="14.033528707228463"><ele>299.0</ele><time>2026-03-29T08:10:25.998Z</time></trkpt><trkpt lat="42.521831339475256" lon="14.033428517077278"><ele>299.0</ele><time>2026-03-29T08:10:26.998Z</time></trkpt><trkpt lat="42.52196742329559" lon="14.033339405374932"><ele>299.0</ele><time>2026-03-29T08:10:27.998Z</time></trkpt><trkpt lat="42.52210777868668" lon="14.033235585989294"><ele>299.75</ele><time>2026-03-29T08:10:28.998Z</time></trkpt><trkpt lat="42.52224461969367" lon="14.033155998787441"><ele>300.5</ele><time>2026-03-29T08:10:29.998Z</time></trkpt><trkpt lat="42.522367754609036" lon="14.033075910431618"><ele>301.25</ele><time>2026-03-29T08:10:30.998Z</time></trkpt><trkpt lat="42.522479070904154" lon="14.032959304668228"><ele>302.0</ele><time>2026-03-29T08:10:31.998Z</time></trkpt><trkpt lat="42.52258636779621" lon="14.032812852195292"><ele>302.0</ele><time>2026-03-29T08:10:32.998Z</time></trkpt><trkpt lat="42.52266927933309" lon="14.032639881371354"><ele>302.0</ele><time>2026-03-29T08:10:33.998Z</time></trkpt><trkpt lat="42.522770031325756" lon="14.03249424974445"><ele>302.0</ele><time>2026-03-29T08:10:34.998Z</time></trkpt><trkpt lat="42.52285349654938" lon="14.032333450571848"><ele>302.0</ele><time>2026-03-29T08:10:35.998Z</time></trkpt><trkpt lat="42.52292630545431" lon="14.0321460213205"><ele>303.6666666666667</ele><time>2026-03-29T08:10:36.998Z</time></trkpt><trkpt lat="42.52300645974424" lon="14.031951950844963"><ele>305.3333333333333</ele><time>2026-03-29T08:10:37.998Z</time></trkpt><trkpt lat="42.5230971931059" lon="14.031752858669536"><ele>307.0</ele><time>2026-03-29T08:10:38.998Z</time></trkpt><trkpt lat="42.52317312500865" lon="14.031555208505072"><ele>307.25</ele><time>2026-03-29T08:10:39.998Z</time></trkpt><trkpt lat="42.52324286479039" lon="14.031371708335753"><ele>307.5</ele><time>2026-03-29T08:10:40.998Z</time></trkpt><trkpt lat="42.52328574747634" lon="14.031181032511247"><ele>307.75</ele><time>2026-03-29T08:10:41.998Z</time></trkpt><trkpt lat="42.523339609979786" lon="14.031002013536247"><ele>308.0</ele><time>2026-03-29T08:10:42.998Z</time></trkpt><trkpt lat="42.523373020247845" lon="14.030821488447604"><ele>307.0</ele><time>2026-03-29T08:10:43.998Z</time></trkpt><trkpt lat="42.523412486737456" lon="14.030624674092984"><ele>306.0</ele><time>2026-03-29T08:10:44.998Z</time></trkpt><trkpt lat="42.523446059133335" lon="14.03044743975988"><ele>305.0</ele><time>2026-03-29T08:10:45.998Z</time></trkpt><trkpt lat="42.523492751137475" lon="14.030283840975166"><ele>304.0</ele><time>2026-03-29T08:10:46.998Z</time></trkpt><trkpt lat="42.52354750291969" lon="14.030133733716987"><ele>304.0</ele><time>2026-03-29T08:10:47.998Z</time></trkpt><trkpt lat="42.52361764121671" lon="14.029990269262395"><ele>304.0</ele><time>2026-03-29T08:10:48.998Z</time></trkpt><trkpt lat="42.52370884292746" lon="14.029851579302408"><ele>304.0</ele><time>2026-03-29T08:10:50Z</time></trkpt><trkpt lat="42.52381153515944" lon="14.029703168961323"><ele>304.0</ele><time>2026-03-29T08:10:51Z</time></trkpt><trkpt lat="42.523916390172786" lon="14.029552179209865"><ele>304.5</ele><time>2026-03-29T08:10:52Z</time></trkpt><trkpt lat="42.52401295521447" lon="14.029408678246561"><ele>305.0</ele><time>2026-03-29T08:10:53Z</time></trkpt><trkpt lat="42.524108694615016" lon="14.029266404230984"><ele>305.5</ele><time>2026-03-29T08:10:54Z</time></trkpt><trkpt lat="42.524211688602726" lon="14.029113349607716"><ele>306.0</ele><time>2026-03-29T08:10:55Z</time></trkpt><trkpt lat="42.5243117635729" lon="14.028964633841548"><ele>306.0</ele><time>2026-03-29T08:10:56Z</time></trkpt><trkpt lat="42.52439544351422" lon="14.028805858660187"><ele>306.0</ele><time>2026-03-29T08:10:57Z</time></trkpt><trkpt lat="42.52448557634076" lon="14.028661650973817"><ele>306.0</ele><time>2026-03-29T08:10:58Z</time></trkpt><trkpt lat="42.52457138115514" lon="14.028505117008216"><ele>306.0</ele><time>2026-03-29T08:10:59Z</time></trkpt><trkpt lat="42.52465593006571" lon="14.02834131250787"><ele>308.25</ele><time>2026-03-29T08:11:00Z</time></trkpt><trkpt lat="42.524728622282176" lon="14.028169802704276"><ele>310.5</ele><time>2026-03-29T08:11:01Z</time></trkpt><trkpt lat="42.52479528681352" lon="14.028005084208761"><ele>312.75</ele><time>2026-03-29T08:11:02Z</time></trkpt><trkpt lat="42.52487014484206" lon="14.027860084709724"><ele>315.0</ele><time>2026-03-29T08:11:03Z</time></trkpt><trkpt lat="42.5249322389758" lon="14.027699917048578"><ele>315.0</ele><time>2026-03-29T08:11:04Z</time></trkpt><trkpt lat="42.52499041556544" lon="14.027532417088304"><ele>315.0</ele><time>2026-03-29T08:11:05Z</time></trkpt><trkpt lat="42.525031656030976" lon="14.0273522581896"><ele>315.0</ele><time>2026-03-29T08:11:06Z</time></trkpt><trkpt lat="42.52507883598386" lon="14.02717817481022"><ele>315.0</ele><time>2026-03-29T08:11:07Z</time></trkpt><trkpt lat="42.5251316602551" lon="14.027031922050014"><ele>315.0</ele><time>2026-03-29T08:11:08Z</time></trkpt><trkpt lat="42.52518879988397" lon="14.026906263747605"><ele>315.0</ele><time>2026-03-29T08:11:09Z</time></trkpt><trkpt lat="42.52526441860567" lon="14.026792053701346"><ele>315.0</ele><time>2026-03-29T08:11:10Z</time></trkpt><trkpt lat="42.52535438655062" lon="14.026674812666183"><ele>315.0</ele><time>2026-03-29T08:11:11Z</time></trkpt><trkpt lat="42.52543819956547" lon="14.02654600070702"><ele>315.0</ele><time>2026-03-29T08:11:12Z</time></trkpt><trkpt lat="42.52550520338122" lon="14.02642910185078"><ele>315.0</ele><time>2026-03-29T08:11:13Z</time></trkpt><trkpt lat="42.52555846029907" lon="14.026312818967051"><ele>315.0</ele><time>2026-03-29T08:11:14Z</time></trkpt><trkpt lat="42.52559796231052" lon="14.026181632137307"><ele>315.0</ele><time>2026-03-29T08:11:15Z</time></trkpt><trkpt lat="42.52562520429605" lon="14.026051903713439"><ele>315.0</ele><time>2026-03-29T08:11:16Z</time></trkpt><trkpt lat="42.525642886410665" lon="14.025905609502486"><ele>315.4</ele><time>2026-03-29T08:11:17Z</time></trkpt><trkpt lat="42.52565501300232" lon="14.025744453408464"><ele>315.8</ele><time>2026-03-29T08:11:18Z</time></trkpt><trkpt lat="42.52565990447529" lon="14.02559487868695"><ele>316.2</ele><time>2026-03-29T08:11:19Z</time></trkpt><trkpt lat="42.525659899431176" lon="14.025464209569506"><ele>316.6</ele><time>2026-03-29T08:11:20Z</time></trkpt><trkpt lat="42.52565130422088" lon="14.025343045432766"><ele>317.0</ele><time>2026-03-29T08:11:21Z</time></trkpt><trkpt lat="42.525648408785564" lon="14.025244666717333"><ele>317.0</ele><time>2026-03-29T08:11:22Z</time></trkpt><trkpt lat="42.52570069225553" lon="14.025156200348915"><ele>317.0</ele><time>2026-03-29T08:11:24Z</time></trkpt><trkpt lat="42.52563343799673" lon="14.025134560407832"><ele>317.0</ele><time>2026-03-29T08:11:36.999Z</time></trkpt><trkpt lat="42.525626521080355" lon="14.025009660049545"><ele>317.0</ele><time>2026-03-29T08:11:39.999Z</time></trkpt><trkpt lat="42.52559466348077" lon="14.024844672189635"><ele>317.0</ele><time>2026-03-29T08:11:41.999Z</time></trkpt><trkpt lat="42.52557136457579" lon="14.02474694415338"><ele>317.0</ele><time>2026-03-29T08:11:42.999Z</time></trkpt><trkpt lat="42.52548875534783" lon="14.024658564338955"><ele>318.0</ele><time>2026-03-29T08:11:44.999Z</time></trkpt><trkpt lat="42.52555399140823" lon="14.024615825374328"><ele>319.0</ele><time>2026-03-29T08:11:45.999Z</time></trkpt><trkpt lat="42.5255805560044" lon="14.02451575101544"><ele>320.0</ele><time>2026-03-29T08:11:46.999Z</time></trkpt><trkpt lat="42.52566974980783" lon="14.02453836502115"><ele>321.0</ele><time>2026-03-29T08:11:48.999Z</time></trkpt><trkpt lat="42.52581899467997" lon="14.024521697826335"><ele>322.0</ele><time>2026-03-29T08:11:50.999Z</time></trkpt><trkpt lat="42.525905559265695" lon="14.024511926367"><ele>322.0</ele><time>2026-03-29T08:11:51.999Z</time></trkpt><trkpt lat="42.526000512900104" lon="14.024499888260848"><ele>322.0</ele><time>2026-03-29T08:11:52.999Z</time></trkpt><trkpt lat="42.52610251615002" lon="14.024460959857265"><ele>322.0</ele><time>2026-03-29T08:11:53.999Z</time></trkpt><trkpt lat="42.526203482142456" lon="14.024467554832533"><ele>322.0</ele><time>2026-03-29T08:11:54.999Z</time></trkpt><trkpt lat="42.526296117973935" lon="14.024455239406496"><ele>322.0</ele><time>2026-03-29T08:11:55.999Z</time></trkpt><trkpt lat="42.526390687032695" lon="14.02444266695693"><ele>321.3333333333333</ele><time>2026-03-29T08:11:56.999Z</time></trkpt><trkpt lat="42.52647853634285" lon="14.024430987877796"><ele>320.66666666666663</ele><time>2026-03-29T08:11:57.999Z</time></trkpt><trkpt lat="42.52655278000304" lon="14.024398032058738"><ele>320.0</ele><time>2026-03-29T08:11:58.999Z</time></trkpt><trkpt lat="42.52661934774214" lon="14.024396821641293"><ele>319.3333333333333</ele><time>2026-03-29T08:11:59.999Z</time></trkpt><trkpt lat="42.52668875067883" lon="14.024371884209831"><ele>318.6666666666667</ele><time>2026-03-29T08:12:00.999Z</time></trkpt><trkpt lat="42.52677500008093" lon="14.024314452540876"><ele>318.0</ele><time>2026-03-29T08:12:01.999Z</time></trkpt><trkpt lat="42.52686906491821" lon="14.02421799992167"><ele>316.8</ele><time>2026-03-29T08:12:02.999Z</time></trkpt><trkpt lat="42.52696209604932" lon="14.024101887556625"><ele>315.6</ele><time>2026-03-29T08:12:03.999Z</time></trkpt><trkpt lat="42.52705110560094" lon="14.024015033162977"><ele>314.4</ele><time>2026-03-29T08:12:04.999Z</time></trkpt><trkpt lat="42.527131322342946" lon="14.023935413978998"><ele>313.2</ele><time>2026-03-29T08:12:05.999Z</time></trkpt><trkpt lat="42.52721102628673" lon="14.023871345257568"><ele>312.0</ele><time>2026-03-29T08:12:06.999Z</time></trkpt><trkpt lat="42.52729125123945" lon="14.023801384365093"><ele>312.0</ele><time>2026-03-29T08:12:07.999Z</time></trkpt><trkpt lat="42.52736607875594" lon="14.02374421486538"><ele>312.0</ele><time>2026-03-29T08:12:08.999Z</time></trkpt><trkpt lat="42.52744189968645" lon="14.023701566463007"><ele>312.0</ele><time>2026-03-29T08:12:09.999Z</time></trkpt><trkpt lat="42.52750426791653" lon="14.023637861340545"><ele>312.0</ele><time>2026-03-29T08:12:10.999Z</time></trkpt><trkpt lat="42.527563193165406" lon="14.023555300938481"><ele>312.0</ele><time>2026-03-29T08:12:11.999Z</time></trkpt><trkpt lat="42.527626723497825" lon="14.023430821077133"><ele>312.0</ele><time>2026-03-29T08:12:12.999Z</time></trkpt><trkpt lat="42.527692587677244" lon="14.02331091284923"><ele>312.8</ele><time>2026-03-29T08:12:13.999Z</time></trkpt><trkpt lat="42.527753193261745" lon="14.023200578034386"><ele>313.6</ele><time>2026-03-29T08:12:14.999Z</time></trkpt><trkpt lat="42.52780694444064" lon="14.02307962453219"><ele>314.40000000000003</ele><time>2026-03-29T08:12:15.999Z</time></trkpt><trkpt lat="42.527864636547484" lon="14.022973641498824"><ele>315.2</ele><time>2026-03-29T08:12:16.999Z</time></trkpt><trkpt lat="42.52792211666252" lon="14.022877030169376"><ele>316.0</ele><time>2026-03-29T08:12:17.999Z</time></trkpt><trkpt lat="42.5279719851185" lon="14.02278215845564"><ele>313.0</ele><time>2026-03-29T08:12:18.999Z</time></trkpt><trkpt lat="42.528031105729056" lon="14.022680575814643"><ele>310.0</ele><time>2026-03-29T08:12:19.999Z</time></trkpt><trkpt lat="42.528072710081986" lon="14.022593969032906"><ele>307.0</ele><time>2026-03-29T08:12:20.999Z</time></trkpt><trkpt lat="42.52816903388331" lon="14.022501745065169"><ele>304.0</ele><time>2026-03-29T08:12:22.999Z</time></trkpt><trkpt lat="42.52827844564425" lon="14.022424387191187"><ele>301.0</ele><time>2026-03-29T08:12:24.999Z</time></trkpt><trkpt lat="42.52834583222002" lon="14.022410707328206"><ele>301.0</ele><time>2026-03-29T08:12:25.999Z</time></trkpt><trkpt lat="42.52841744634537" lon="14.022420933768888"><ele>301.0</ele><time>2026-03-29T08:12:26.998Z</time></trkpt><trkpt lat="42.52854515330643" lon="14.022399690590266"><ele>301.0</ele><time>2026-03-29T08:12:28.998Z</time></trkpt><trkpt lat="42.52861523453" lon="14.022364393224597"><ele>301.0</ele><time>2026-03-29T08:12:29.998Z</time></trkpt><trkpt lat="42.528673048275074" lon="14.022298784033707"><ele>301.0</ele><time>2026-03-29T08:12:30.998Z</time></trkpt><trkpt lat="42.52873876591456" lon="14.02224297111072"><ele>301.0</ele><time>2026-03-29T08:12:31.998Z</time></trkpt><trkpt lat="42.52879319136752" lon="14.022181400173427"><ele>298.16666666666663</ele><time>2026-03-29T08:12:32.998Z</time></trkpt><trkpt lat="42.52884927475515" lon="14.02212397669734"><ele>295.3333333333333</ele><time>2026-03-29T08:12:33.998Z</time></trkpt><trkpt lat="42.52888384180028" lon="14.022029596956797"><ele>292.5</ele><time>2026-03-29T08:12:34.998Z</time></trkpt><trkpt lat="42.52889943380031" lon="14.02193206073432"><ele>289.6666666666667</ele><time>2026-03-29T08:12:35.998Z</time></trkpt><trkpt lat="42.52892630169712" lon="14.021829116371933"><ele>286.83333333333337</ele><time>2026-03-29T08:12:36.998Z</time></trkpt><trkpt lat="42.52895303433509" lon="14.021713767780295"><ele>284.0</ele><time>2026-03-29T08:12:37.998Z</time></trkpt><trkpt lat="42.528995043380526" lon="14.021629832734527"><ele>284.0</ele><time>2026-03-29T08:12:38.998Z</time></trkpt><trkpt lat="42.52902167242507" lon="14.021546889777072"><ele>284.0</ele><time>2026-03-29T08:12:39.998Z</time></trkpt><trkpt lat="42.52908256100595" lon="14.021437941080267"><ele>284.0</ele><time>2026-03-29T08:12:41.998Z</time></trkpt><trkpt lat="42.529172314875844" lon="14.021324213647809"><ele>284.0</ele><time>2026-03-29T08:12:43.998Z</time></trkpt><trkpt lat="42.529228373949756" lon="14.021250226196749"><ele>284.0</ele><time>2026-03-29T08:12:44.998Z</time></trkpt><trkpt lat="42.529274341077084" lon="14.021181525273255"><ele>284.0</ele><time>2026-03-29T08:12:45.998Z</time></trkpt><trkpt lat="42.529328000595626" lon="14.021086770307535"><ele>284.0</ele><time>2026-03-29T08:12:46.998Z</time></trkpt><trkpt lat="42.529384232169804" lon="14.020979720265352"><ele>284.0</ele><time>2026-03-29T08:12:47.998Z</time></trkpt><trkpt lat="42.52943495240936" lon="14.020878594881843"><ele>284.0</ele><time>2026-03-29T08:12:48.998Z</time></trkpt><trkpt lat="42.52948718469579" lon="14.020782281628676"><ele>284.0</ele><time>2026-03-29T08:12:49.998Z</time></trkpt><trkpt lat="42.52953143592552" lon="14.020714035021195"><ele>284.0</ele><time>2026-03-29T08:12:50.998Z</time></trkpt><trkpt lat="42.529595760771564" lon="14.020631586266203"><ele>284.0</ele><time>2026-03-29T08:12:51.998Z</time></trkpt><trkpt lat="42.52966954444691" lon="14.020531776644379"><ele>280.59999999999997</ele><time>2026-03-29T08:12:52.998Z</time></trkpt><trkpt lat="42.52975008538103" lon="14.02046918462747"><ele>277.2</ele><time>2026-03-29T08:12:53.998Z</time></trkpt><trkpt lat="42.52984285505178" lon="14.020427028620443"><ele>273.79999999999995</ele><time>2026-03-29T08:12:55Z</time></trkpt><trkpt lat="42.52992903704838" lon="14.02036117788962"><ele>270.4</ele><time>2026-03-29T08:12:56Z</time></trkpt><trkpt lat="42.530015914135205" lon="14.02032066131241"><ele>267.0</ele><time>2026-03-29T08:12:57Z</time></trkpt><trkpt lat="42.53009611236928" lon="14.020280891902276"><ele>267.0</ele><time>2026-03-29T08:12:58Z</time></trkpt><trkpt lat="42.530170228551434" lon="14.020251672239194"><ele>267.0</ele><time>2026-03-29T08:12:59Z</time></trkpt><trkpt lat="42.530250985018256" lon="14.020212178320758"><ele>267.0</ele><time>2026-03-29T08:13:00Z</time></trkpt><trkpt lat="42.530338784096315" lon="14.02016532898005"><ele>267.0</ele><time>2026-03-29T08:13:01Z</time></trkpt><trkpt lat="42.53041172800686" lon="14.020121291442337"><ele>267.0</ele><time>2026-03-29T08:13:02Z</time></trkpt><trkpt lat="42.5304825066376" lon="14.020076786865213"><ele>267.0</ele><time>2026-03-29T08:13:03Z</time></trkpt><trkpt lat="42.530542365010525" lon="14.020036454077019"><ele>265.0</ele><time>2026-03-29T08:13:04Z</time></trkpt><trkpt lat="42.530631912440604" lon="14.01997589640416"><ele>263.0</ele><time>2026-03-29T08:13:06Z</time></trkpt><trkpt lat="42.53072813631617" lon="14.01992134601073"><ele>261.0</ele><time>2026-03-29T08:13:08Z</time></trkpt><trkpt lat="42.53081982683308" lon="14.019836853102497"><ele>259.0</ele><time>2026-03-29T08:13:10Z</time></trkpt><trkpt lat="42.53091941466031" lon="14.019725102641651"><ele>257.0</ele><time>2026-03-29T08:13:12Z</time></trkpt><trkpt lat="42.5309704204872" lon="14.01967292880209"><ele>257.0</ele><time>2026-03-29T08:13:13Z</time></trkpt><trkpt lat="42.53103806251344" lon="14.01964412715121"><ele>257.0</ele><time>2026-03-29T08:13:14Z</time></trkpt><trkpt lat="42.53112891751777" lon="14.019599675482771"><ele>257.0</ele><time>2026-03-29T08:13:16Z</time></trkpt><trkpt lat="42.53123448103447" lon="14.019545025023634"><ele>257.0</ele><time>2026-03-29T08:13:18Z</time></trkpt><trkpt lat="42.53131333464581" lon="14.01944952512382"><ele>257.0</ele><time>2026-03-29T08:13:20Z</time></trkpt><trkpt lat="42.531405003462744" lon="14.019362769043958"><ele>253.50000000000003</ele><time>2026-03-29T08:13:22Z</time></trkpt><trkpt lat="42.5314724538179" lon="14.019255572919079"><ele>250.0</ele><time>2026-03-29T08:13:24Z</time></trkpt><trkpt lat="42.53151546926658" lon="14.01912871661126"><ele>246.5</ele><time>2026-03-29T08:13:26Z</time></trkpt><trkpt lat="42.53156129231828" lon="14.01903536442298"><ele>243.0</ele><time>2026-03-29T08:13:28Z</time></trkpt><trkpt lat="42.53157859128065" lon="14.018948231999909"><ele>239.50000000000003</ele><time>2026-03-29T08:13:42.999Z</time></trkpt><trkpt lat="42.53158711374981" lon="14.018836881151563"><ele>236.0</ele><time>2026-03-29T08:13:44.999Z</time></trkpt><trkpt lat="42.531592291872535" lon="14.01872601510657"><ele>234.60000000000002</ele><time>2026-03-29T08:13:46.999Z</time></trkpt><trkpt lat="42.531594543602246" lon="14.018600218623268"><ele>233.20000000000002</ele><time>2026-03-29T08:13:48.999Z</time></trkpt><trkpt lat="42.531594179653844" lon="14.018472194218763"><ele>231.79999999999998</ele><time>2026-03-29T08:13:50.999Z</time></trkpt><trkpt lat="42.53159610422258" lon="14.01833401049389"><ele>230.39999999999998</ele><time>2026-03-29T08:13:52.999Z</time></trkpt><trkpt lat="42.53160285978636" lon="14.018167495972294"><ele>229.0</ele><time>2026-03-29T08:13:54.999Z</time></trkpt><trkpt lat="42.531615816025806" lon="14.017993066248389"><ele>227.83333333333331</ele><time>2026-03-29T08:13:56.999Z</time></trkpt><trkpt lat="42.53162458717209" lon="14.017904063741758"><ele>226.66666666666666</ele><time>2026-03-29T08:13:57.999Z</time></trkpt><trkpt lat="42.53163029882041" lon="14.01781732639183"><ele>225.5</ele><time>2026-03-29T08:13:58.999Z</time></trkpt><trkpt lat="42.531640044215415" lon="14.017645939944776"><ele>224.33333333333331</ele><time>2026-03-29T08:14:00.999Z</time></trkpt><trkpt lat="42.53164353305263" lon="14.01755635370536"><ele>223.16666666666666</ele><time>2026-03-29T08:14:01.999Z</time></trkpt><trkpt lat="42.53164375353015" lon="14.017468805992584"><ele>222.0</ele><time>2026-03-29T08:14:02.999Z</time></trkpt><trkpt lat="42.53163670140104" lon="14.017311017111439"><ele>220.2</ele><time>2026-03-29T08:14:04.999Z</time></trkpt><trkpt lat="42.53162250231888" lon="14.017189831586064"><ele>218.39999999999998</ele><time>2026-03-29T08:14:06.999Z</time></trkpt><trkpt lat="42.53161347237288" lon="14.017074699447726"><ele>216.60000000000002</ele><time>2026-03-29T08:14:08.999Z</time></trkpt><trkpt lat="42.531608764533665" lon="14.016962407373754"><ele>214.8</ele><time>2026-03-29T08:14:10.999Z</time></trkpt><trkpt lat="42.53174732160001" lon="14.016993736334818"><ele>213.0</ele><time>2026-03-29T08:14:15.999Z</time></trkpt><trkpt lat="42.53178502341247" lon="14.017067856287"><ele>212.99999999999997</ele><time>2026-03-29T08:14:17.999Z</time></trkpt><trkpt lat="42.531817805433235" lon="14.017144213180286"><ele>213.0</ele><time>2026-03-29T08:14:19.999Z</time></trkpt><trkpt lat="42.53186371327442" lon="14.01722912076507"><ele>213.0</ele><time>2026-03-29T08:14:22.999Z</time></trkpt><trkpt lat="42.53191976516286" lon="14.017311722485639"><ele>213.0</ele><time>2026-03-29T08:14:24.999Z</time></trkpt><trkpt lat="42.53195935084292" lon="14.0173836568591"><ele>213.0</ele><time>2026-03-29T08:14:26.999Z</time></trkpt><trkpt lat="42.53200019471571" lon="14.017456131628242"><ele>212.99999999999997</ele><time>2026-03-29T08:14:28.999Z</time></trkpt><trkpt lat="42.53205532435496" lon="14.017547770164002"><ele>213.0</ele><time>2026-03-29T08:14:30.999Z</time></trkpt><trkpt lat="42.532121296631786" lon="14.017664244929382"><ele>210.42857142857142</ele><time>2026-03-29T08:14:32.999Z</time></trkpt><trkpt lat="42.532165500349834" lon="14.017739624387785"><ele>207.85714285714286</ele><time>2026-03-29T08:14:33.999Z</time></trkpt><trkpt lat="42.532209026977895" lon="14.01781661281946"><ele>205.28571428571428</ele><time>2026-03-29T08:14:34.999Z</time></trkpt><trkpt lat="42.53225190782841" lon="14.01788849498865"><ele>202.71428571428572</ele><time>2026-03-29T08:14:35.999Z</time></trkpt><trkpt lat="42.53229143501817" lon="14.017960278015808"><ele>200.14285714285714</ele><time>2026-03-29T08:14:36.999Z</time></trkpt><trkpt lat="42.532334313949036" lon="14.01804187005437"><ele>197.57142857142856</ele><time>2026-03-29T08:14:37.998Z</time></trkpt><trkpt lat="42.53238760171861" lon="14.01811914402541"><ele>195.0</ele><time>2026-03-29T08:14:38.998Z</time></trkpt><trkpt lat="42.53243872804814" lon="14.0181814495687"><ele>195.0</ele><time>2026-03-29T08:14:39.998Z</time></trkpt><trkpt lat="42.53249231448301" lon="14.018258208890058"><ele>195.0</ele><time>2026-03-29T08:14:40.998Z</time></trkpt><trkpt lat="42.53255155089548" lon="14.018320071050274"><ele>195.0</ele><time>2026-03-29T08:14:41.998Z</time></trkpt><trkpt lat="42.532600186822066" lon="14.018380155806708"><ele>195.0</ele><time>2026-03-29T08:14:42.998Z</time></trkpt><trkpt lat="42.53265318858025" lon="14.018466201351764"><ele>195.0</ele><time>2026-03-29T08:14:43.998Z</time></trkpt><trkpt lat="42.53269761983751" lon="14.01855033470336"><ele>195.0</ele><time>2026-03-29T08:14:44.998Z</time></trkpt><trkpt lat="42.532744436821524" lon="14.018643089463813"><ele>196.66666666666666</ele><time>2026-03-29T08:14:45.998Z</time></trkpt><trkpt lat="42.53278206945767" lon="14.018733212137613"><ele>198.33333333333331</ele><time>2026-03-29T08:14:46.998Z</time></trkpt><trkpt lat="42.5328066251159" lon="14.01881239239441"><ele>200.0</ele><time>2026-03-29T08:14:47.998Z</time></trkpt><trkpt lat="42.53283198543643" lon="14.018894335330017"><ele>201.66666666666666</ele><time>2026-03-29T08:14:48.998Z</time></trkpt><trkpt lat="42.53286402482866" lon="14.018968944561113"><ele>203.33333333333331</ele><time>2026-03-29T08:14:49.998Z</time></trkpt><trkpt lat="42.53292182298843" lon="14.019084661714135"><ele>205.0</ele><time>2026-03-29T08:14:51.998Z</time></trkpt><trkpt lat="42.53295911836856" lon="14.01918275998919"><ele>200.99999999999997</ele><time>2026-03-29T08:14:53.998Z</time></trkpt><trkpt lat="42.533012779700925" lon="14.019269627977579"><ele>197.0</ele><time>2026-03-29T08:14:55.998Z</time></trkpt><trkpt lat="42.53310358603354" lon="14.019259068622807"><ele>193.0</ele><time>2026-03-29T08:14:57.998Z</time></trkpt><trkpt lat="42.53315165363046" lon="14.019175516325806"><ele>189.0</ele><time>2026-03-29T08:14:58.998Z</time></trkpt><trkpt lat="42.533196995413206" lon="14.019096334817206"><ele>185.0</ele><time>2026-03-29T08:14:59.998Z</time></trkpt><trkpt lat="42.53324621145057" lon="14.019004133707229"><ele>181.0</ele><time>2026-03-29T08:15:01Z</time></trkpt><trkpt lat="42.53327919400525" lon="14.018902153473631"><ele>181.0</ele><time>2026-03-29T08:15:02Z</time></trkpt><trkpt lat="42.53333078476105" lon="14.01879433538603"><ele>181.0</ele><time>2026-03-29T08:15:03Z</time></trkpt><trkpt lat="42.53337456047426" lon="14.018707281746412"><ele>181.0</ele><time>2026-03-29T08:15:04Z</time></trkpt><trkpt lat="42.53341226935499" lon="14.018622046463888"><ele>181.0</ele><time>2026-03-29T08:15:05Z</time></trkpt><trkpt lat="42.53347878239242" lon="14.018496836719633"><ele>181.0</ele><time>2026-03-29T08:15:07Z</time></trkpt><trkpt lat="42.53351249734865" lon="14.018352538189863"><ele>179.4</ele><time>2026-03-29T08:15:09Z</time></trkpt><trkpt lat="42.533572937059816" lon="14.018226730161759"><ele>177.8</ele><time>2026-03-29T08:15:11Z</time></trkpt><trkpt lat="42.53358602110888" lon="14.01814301962738"><ele>176.20000000000002</ele><time>2026-03-29T08:15:12Z</time></trkpt><trkpt lat="42.533643888356586" lon="14.017991784275267"><ele>174.60000000000002</ele><time>2026-03-29T08:15:14Z</time></trkpt><trkpt lat="42.5336378836022" lon="14.017899053609785"><ele>173.0</ele><time>2026-03-29T08:15:15Z</time></trkpt><trkpt lat="42.5336512164505" lon="14.017734011544887"><ele>173.0</ele><time>2026-03-29T08:15:17Z</time></trkpt><trkpt lat="42.53363811874976" lon="14.017642779912416"><ele>173.0</ele><time>2026-03-29T08:15:18Z</time></trkpt><trkpt lat="42.53362410737864" lon="14.017549891117929"><ele>173.0</ele><time>2026-03-29T08:15:19Z</time></trkpt><trkpt lat="42.53360143933601" lon="14.017414073859339"><ele>173.0</ele><time>2026-03-29T08:15:21Z</time></trkpt><trkpt lat="42.533576313424525" lon="14.017265527941484"><ele>173.0</ele><time>2026-03-29T08:15:23Z</time></trkpt><trkpt lat="42.53355386829579" lon="14.017133179059446"><ele>170.0</ele><time>2026-03-29T08:15:25Z</time></trkpt><trkpt lat="42.53356890325125" lon="14.017027038376371"><ele>167.0</ele><time>2026-03-29T08:15:27Z</time></trkpt><trkpt lat="42.533700226460205" lon="14.01700182545173"><ele>164.0</ele><time>2026-03-29T08:15:29Z</time></trkpt><trkpt lat="42.53378157129356" lon="14.016958692122445"><ele>161.0</ele><time>2026-03-29T08:15:30Z</time></trkpt><trkpt lat="42.53388699658928" lon="14.01694703565588"><ele>158.0</ele><time>2026-03-29T08:15:31Z</time></trkpt><trkpt lat="42.533980440058905" lon="14.01690482941547"><ele>154.4</ele><time>2026-03-29T08:15:32Z</time></trkpt><trkpt lat="42.534064136173726" lon="14.01685943197567"><ele>150.8</ele><time>2026-03-29T08:15:33Z</time></trkpt><trkpt lat="42.53414827195381" lon="14.016802415146229"><ele>147.2</ele><time>2026-03-29T08:15:34Z</time></trkpt><trkpt lat="42.53422636263506" lon="14.016748032544573"><ele>143.6</ele><time>2026-03-29T08:15:35Z</time></trkpt><trkpt lat="42.53431236354098" lon="14.01668783214796"><ele>140.0</ele><time>2026-03-29T08:15:36Z</time></trkpt><trkpt lat="42.5344020028226" lon="14.016622706490402"><ele>136.0</ele><time>2026-03-29T08:15:37Z</time></trkpt><trkpt lat="42.53451119218654" lon="14.016588171229724"><ele>132.0</ele><time>2026-03-29T08:15:38Z</time></trkpt><trkpt lat="42.53461886558324" lon="14.01656938864998"><ele>128.0</ele><time>2026-03-29T08:15:39Z</time></trkpt><trkpt lat="42.53471132359764" lon="14.016570281109486"><ele>124.0</ele><time>2026-03-29T08:15:40Z</time></trkpt><trkpt lat="42.534793964427045" lon="14.0165898563955"><ele>120.0</ele><time>2026-03-29T08:15:41Z</time></trkpt><trkpt lat="42.53486644001119" lon="14.016628213585722"><ele>120.5</ele><time>2026-03-29T08:15:42Z</time></trkpt><trkpt lat="42.5349336401265" lon="14.016689882804409"><ele>121.0</ele><time>2026-03-29T08:15:43Z</time></trkpt><trkpt lat="42.53499119488429" lon="14.016785587390027"><ele>121.5</ele><time>2026-03-29T08:15:44Z</time></trkpt><trkpt lat="42.535026551646766" lon="14.016890359432782"><ele>122.0</ele><time>2026-03-29T08:15:45Z</time></trkpt><trkpt lat="42.535058644392585" lon="14.01699572797812"><ele>122.5</ele><time>2026-03-29T08:15:46Z</time></trkpt><trkpt lat="42.535088463555965" lon="14.017102235880891"><ele>123.0</ele><time>2026-03-29T08:15:47Z</time></trkpt><trkpt lat="42.53512835770509" lon="14.017251078079482"><ele>123.0</ele><time>2026-03-29T08:15:49Z</time></trkpt><trkpt lat="42.53516294158471" lon="14.017409437308503"><ele>123.00000000000001</ele><time>2026-03-29T08:15:51Z</time></trkpt><trkpt lat="42.53520505284747" lon="14.017547726285711"><ele>123.00000000000001</ele><time>2026-03-29T08:15:53Z</time></trkpt><trkpt lat="42.53523107555478" lon="14.01766260080106"><ele>123.0</ele><time>2026-03-29T08:15:54.999Z</time></trkpt><trkpt lat="42.535272439036746" lon="14.017738015864936"><ele>123.0</ele><time>2026-03-29T08:15:56.999Z</time></trkpt><trkpt lat="42.53534109863765" lon="14.017734661372979"><ele>120.0</ele><time>2026-03-29T08:15:58.999Z</time></trkpt><trkpt lat="42.535416458874465" lon="14.01761229151504"><ele>117.0</ele><time>2026-03-29T08:16:00.999Z</time></trkpt><trkpt lat="42.53545097852843" lon="14.017533192795618"><ele>114.0</ele><time>2026-03-29T08:16:01.999Z</time></trkpt><trkpt lat="42.53549300976061" lon="14.017438237608813"><ele>111.0</ele><time>2026-03-29T08:16:02.999Z</time></trkpt><trkpt lat="42.53553453345208" lon="14.017330227933348"><ele>108.0</ele><time>2026-03-29T08:16:03.999Z</time></trkpt><trkpt lat="42.53559034049955" lon="14.017232547295992"><ele>105.0</ele><time>2026-03-29T08:16:04.999Z</time></trkpt><trkpt lat="42.535629168087894" lon="14.017129753640276"><ele>105.0</ele><time>2026-03-29T08:16:05.999Z</time></trkpt><trkpt lat="42.53564493135275" lon="14.017034070072022"><ele>105.0</ele><time>2026-03-29T08:16:06.999Z</time></trkpt><trkpt lat="42.535688991036544" lon="14.016919007017488"><ele>105.0</ele><time>2026-03-29T08:16:07.999Z</time></trkpt><trkpt lat="42.53574723877735" lon="14.016815697372918"><ele>105.0</ele><time>2026-03-29T08:16:08.999Z</time></trkpt><trkpt lat="42.53579028868337" lon="14.016705875790656"><ele>105.0</ele><time>2026-03-29T08:16:09.999Z</time></trkpt><trkpt lat="42.53581532750333" lon="14.01658565843896"><ele>105.0</ele><time>2026-03-29T08:16:10.999Z</time></trkpt><trkpt lat="42.5358591230739" lon="14.016492607991205"><ele>104.0</ele><time>2026-03-29T08:16:11.999Z</time></trkpt><trkpt lat="42.535881988867665" lon="14.016407965675265"><ele>103.0</ele><time>2026-03-29T08:16:12.999Z</time></trkpt><trkpt lat="42.53591293916241" lon="14.016253760776838"><ele>102.0</ele><time>2026-03-29T08:16:14.999Z</time></trkpt><trkpt lat="42.53593317716995" lon="14.016115326381428"><ele>101.0</ele><time>2026-03-29T08:16:16.999Z</time></trkpt><trkpt lat="42.53595827333133" lon="14.016011940855256"><ele>100.0</ele><time>2026-03-29T08:16:18.999Z</time></trkpt><trkpt lat="42.535953338243736" lon="14.01591998535355"><ele>99.0</ele><time>2026-03-29T08:16:20.999Z</time></trkpt><trkpt lat="42.53599154739889" lon="14.015842532826778"><ele>99.0</ele><time>2026-03-29T08:16:23.999Z</time></trkpt><trkpt lat="42.5361228601462" lon="14.015833869018271"><ele>99.0</ele><time>2026-03-29T08:16:25.999Z</time></trkpt><trkpt lat="42.53624090648239" lon="14.015857513036545"><ele>99.0</ele><time>2026-03-29T08:16:27.999Z</time></trkpt><trkpt lat="42.536317574171086" lon="14.015991017375542"><ele>99.0</ele><time>2026-03-29T08:16:29.999Z</time></trkpt><trkpt lat="42.53632566544179" lon="14.016123843035032"><ele>96.33333333333333</ele><time>2026-03-29T08:16:31.999Z</time></trkpt><trkpt lat="42.536322633539214" lon="14.01627119593097"><ele>93.66666666666667</ele><time>2026-03-29T08:16:33.999Z</time></trkpt><trkpt lat="42.53631695668269" lon="14.01636460994239"><ele>91.0</ele><time>2026-03-29T08:16:34.999Z</time></trkpt><trkpt lat="42.536310700218785" lon="14.016475481505886"><ele>88.33333333333334</ele><time>2026-03-29T08:16:35.999Z</time></trkpt><trkpt lat="42.53631838345988" lon="14.016591206501298"><ele>85.66666666666667</ele><time>2026-03-29T08:16:36.999Z</time></trkpt><trkpt lat="42.53630946805246" lon="14.016704086024816"><ele>83.0</ele><time>2026-03-29T08:16:37.999Z</time></trkpt><trkpt lat="42.5362994278052" lon="14.016823906113872"><ele>82.66666666666667</ele><time>2026-03-29T08:16:38.999Z</time></trkpt><trkpt lat="42.53629191245758" lon="14.016941735316482"><ele>82.33333333333334</ele><time>2026-03-29T08:16:39.999Z</time></trkpt><trkpt lat="42.53628711780407" lon="14.017060155884849"><ele>82.0</ele><time>2026-03-29T08:16:40.999Z</time></trkpt><trkpt lat="42.536283376026596" lon="14.017165788703377"><ele>81.66666666666667</ele><time>2026-03-29T08:16:41.999Z</time></trkpt><trkpt lat="42.53627901089661" lon="14.017254176035804"><ele>81.33333333333333</ele><time>2026-03-29T08:16:42.999Z</time></trkpt><trkpt lat="42.53627941925495" lon="14.017398910757416"><ele>81.0</ele><time>2026-03-29T08:16:44.999Z</time></trkpt><trkpt lat="42.53627357920915" lon="14.01753124302371"><ele>80.5</ele><time>2026-03-29T08:16:46.999Z</time></trkpt><trkpt lat="42.536268452402204" lon="14.017633702430196"><ele>80.0</ele><time>2026-03-29T08:16:48.999Z</time></trkpt><trkpt lat="42.53626393410435" lon="14.017736351871992"><ele>79.5</ele><time>2026-03-29T08:16:50.999Z</time></trkpt><trkpt lat="42.53626654116838" lon="14.017872070768382"><ele>79.0</ele><time>2026-03-29T08:16:52.998Z</time></trkpt><trkpt lat="42.53626842511106" lon="14.017976633574925"><ele>78.5</ele><time>2026-03-29T08:16:53.998Z</time></trkpt><trkpt lat="42.5362694562012" lon="14.018093491395001"><ele>78.0</ele><time>2026-03-29T08:16:54.998Z</time></trkpt><trkpt lat="42.536265159432176" lon="14.018212763972183"><ele>77.0</ele><time>2026-03-29T08:16:55.998Z</time></trkpt><trkpt lat="42.5362580758766" lon="14.018320760480803"><ele>76.0</ele><time>2026-03-29T08:16:56.998Z</time></trkpt><trkpt lat="42.5362524242091" lon="14.018433498664914"><ele>75.0</ele><time>2026-03-29T08:16:57.998Z</time></trkpt><trkpt lat="42.536250126799125" lon="14.018544963767411"><ele>74.0</ele><time>2026-03-29T08:16:58.998Z</time></trkpt><trkpt lat="42.536246314703014" lon="14.01865380421031"><ele>73.0</ele><time>2026-03-29T08:16:59.998Z</time></trkpt><trkpt lat="42.53624215949746" lon="14.018753090717631"><ele>72.0</ele><time>2026-03-29T08:17:00.998Z</time></trkpt><trkpt lat="42.5362315103233" lon="14.018848162408073"><ele>72.0</ele><time>2026-03-29T08:17:01.998Z</time></trkpt><trkpt lat="42.536237375477754" lon="14.018936923225588"><ele>72.0</ele><time>2026-03-29T08:17:02.998Z</time></trkpt><trkpt lat="42.536246331032736" lon="14.01904070455851"><ele>72.0</ele><time>2026-03-29T08:17:03.998Z</time></trkpt><trkpt lat="42.53625288544362" lon="14.019154226709167"><ele>72.0</ele><time>2026-03-29T08:17:04.998Z</time></trkpt><trkpt lat="42.536258382810864" lon="14.019250096658713"><ele>72.0</ele><time>2026-03-29T08:17:05.998Z</time></trkpt><trkpt lat="42.53626858685325" lon="14.019355610121117"><ele>72.0</ele><time>2026-03-29T08:17:07Z</time></trkpt><trkpt lat="42.536300969763715" lon="14.019536506190542"><ele>71.33333333333333</ele><time>2026-03-29T08:17:09Z</time></trkpt><trkpt lat="42.53631772346492" lon="14.019645638843933"><ele>70.66666666666667</ele><time>2026-03-29T08:17:10Z</time></trkpt><trkpt lat="42.53636670152777" lon="14.019769361566135"><ele>70.0</ele><time>2026-03-29T08:17:11Z</time></trkpt><trkpt lat="42.53638066350901" lon="14.01986906757955"><ele>69.33333333333334</ele><time>2026-03-29T08:17:12Z</time></trkpt><trkpt lat="42.53642278505723" lon="14.019979335618508"><ele>68.66666666666667</ele><time>2026-03-29T08:17:13Z</time></trkpt><trkpt lat="42.536450263360294" lon="14.020101935026327"><ele>68.0</ele><time>2026-03-29T08:17:14Z</time></trkpt><trkpt lat="42.536471173716784" lon="14.020205558903388"><ele>67.66666666666667</ele><time>2026-03-29T08:17:15Z</time></trkpt><trkpt lat="42.536499067582035" lon="14.020315382215463"><ele>67.33333333333334</ele><time>2026-03-29T08:17:16Z</time></trkpt><trkpt lat="42.53651641347809" lon="14.020424018643869"><ele>67.0</ele><time>2026-03-29T08:17:17Z</time></trkpt><trkpt lat="42.53652019578144" lon="14.02053818235145"><ele>66.66666666666667</ele><time>2026-03-29T08:17:18Z</time></trkpt><trkpt lat="42.536532385760765" lon="14.020650736595968"><ele>66.33333333333333</ele><time>2026-03-29T08:17:19Z</time></trkpt><trkpt lat="42.536559297846246" lon="14.020773034809478"><ele>66.0</ele><time>2026-03-29T08:17:20Z</time></trkpt><trkpt lat="42.536587661559665" lon="14.02088077317572"><ele>66.0</ele><time>2026-03-29T08:17:21Z</time></trkpt><trkpt lat="42.53661562758709" lon="14.020983514269924"><ele>66.0</ele><time>2026-03-29T08:17:22Z</time></trkpt><trkpt lat="42.53664466035605" lon="14.02108798410548"><ele>66.0</ele><time>2026-03-29T08:17:23Z</time></trkpt><trkpt lat="42.536655971652436" lon="14.021199428857285"><ele>66.0</ele><time>2026-03-29T08:17:24Z</time></trkpt><trkpt lat="42.53668528762975" lon="14.021317286276718"><ele>66.0</ele><time>2026-03-29T08:17:25Z</time></trkpt><trkpt lat="42.53671908115388" lon="14.0214288076931"><ele>66.0</ele><time>2026-03-29T08:17:26Z</time></trkpt><trkpt lat="42.53670719780195" lon="14.021560476538822"><ele>65.8</ele><time>2026-03-29T08:17:27Z</time></trkpt><trkpt lat="42.53670774995995" lon="14.021691072336266"><ele>65.6</ele><time>2026-03-29T08:17:28Z</time></trkpt><trkpt lat="42.536714147885135" lon="14.021830519494252"><ele>65.4</ele><time>2026-03-29T08:17:29Z</time></trkpt><trkpt lat="42.536708494426136" lon="14.021959934899169"><ele>65.2</ele><time>2026-03-29T08:17:30Z</time></trkpt><trkpt lat="42.53668896184506" lon="14.022098069610017"><ele>65.0</ele><time>2026-03-29T08:17:31Z</time></trkpt><trkpt lat="42.53667271742032" lon="14.02223150773186"><ele>65.0</ele><time>2026-03-29T08:17:32Z</time></trkpt><trkpt lat="42.53666658837988" lon="14.022348927906066"><ele>65.0</ele><time>2026-03-29T08:17:33Z</time></trkpt><trkpt lat="42.53665259950716" lon="14.022495549610655"><ele>65.0</ele><time>2026-03-29T08:17:34Z</time></trkpt><trkpt lat="42.53663792404488" lon="14.022643977400943"><ele>65.0</ele><time>2026-03-29T08:17:35Z</time></trkpt><trkpt lat="42.53662691385068" lon="14.022779798765992"><ele>65.0</ele><time>2026-03-29T08:17:36Z</time></trkpt><trkpt lat="42.53661521888658" lon="14.022919060164527"><ele>64.6</ele><time>2026-03-29T08:17:37Z</time></trkpt><trkpt lat="42.536594935419565" lon="14.023065713091803"><ele>64.2</ele><time>2026-03-29T08:17:38Z</time></trkpt><trkpt lat="42.53658605931309" lon="14.02320767166746"><ele>63.8</ele><time>2026-03-29T08:17:39Z</time></trkpt><trkpt lat="42.536579698989556" lon="14.023342533054864"><ele>63.4</ele><time>2026-03-29T08:17:40Z</time></trkpt><trkpt lat="42.53658850708499" lon="14.023471456884412"><ele>63.0</ele><time>2026-03-29T08:17:41Z</time></trkpt><trkpt lat="42.53659953879715" lon="14.023608983302816"><ele>63.0</ele><time>2026-03-29T08:17:42Z</time></trkpt><trkpt lat="42.53661830453718" lon="14.023738366115907"><ele>63.0</ele><time>2026-03-29T08:17:43Z</time></trkpt><trkpt lat="42.536643088707706" lon="14.023864354801345"><ele>63.0</ele><time>2026-03-29T08:17:44Z</time></trkpt><trkpt lat="42.53666640744459" lon="14.023992510995177"><ele>63.0</ele><time>2026-03-29T08:17:45Z</time></trkpt><trkpt lat="42.536690221537775" lon="14.024110951753611"><ele>63.0</ele><time>2026-03-29T08:17:46Z</time></trkpt><trkpt lat="42.53671074307098" lon="14.024239180804344"><ele>63.0</ele><time>2026-03-29T08:17:47Z</time></trkpt><trkpt lat="42.536727603112745" lon="14.02438810042952"><ele>63.0</ele><time>2026-03-29T08:17:48Z</time></trkpt><trkpt lat="42.53674938030837" lon="14.024537682639155"><ele>63.0</ele><time>2026-03-29T08:17:49Z</time></trkpt><trkpt lat="42.53677270857432" lon="14.024672373531388"><ele>63.0</ele><time>2026-03-29T08:17:50Z</time></trkpt><trkpt lat="42.53679962563297" lon="14.024798011000383"><ele>63.0</ele><time>2026-03-29T08:17:51Z</time></trkpt><trkpt lat="42.536819919634716" lon="14.02491958366682"><ele>62.833333333333336</ele><time>2026-03-29T08:17:52Z</time></trkpt><trkpt lat="42.53684402558538" lon="14.025029428148502"><ele>62.66666666666667</ele><time>2026-03-29T08:17:53Z</time></trkpt><trkpt lat="42.536868886911016" lon="14.025149900834652"><ele>62.5</ele><time>2026-03-29T08:17:54Z</time></trkpt><trkpt lat="42.53687687623185" lon="14.025264113425976"><ele>62.333333333333336</ele><time>2026-03-29T08:17:55Z</time></trkpt><trkpt lat="42.53691542113652" lon="14.025388004143498"><ele>62.16666666666667</ele><time>2026-03-29T08:17:56Z</time></trkpt><trkpt lat="42.53692554812972" lon="14.025507474336806"><ele>62.0</ele><time>2026-03-29T08:17:57Z</time></trkpt><trkpt lat="42.53694696891995" lon="14.025602422535407"><ele>62.0</ele><time>2026-03-29T08:17:58Z</time></trkpt><trkpt lat="42.53697128135353" lon="14.025737048428407"><ele>62.0</ele><time>2026-03-29T08:18:00Z</time></trkpt><trkpt lat="42.53698972182567" lon="14.025888113918485"><ele>62.0</ele><time>2026-03-29T08:18:02Z</time></trkpt><trkpt lat="42.53699212228353" lon="14.026044467030825"><ele>62.0</ele><time>2026-03-29T08:18:04Z</time></trkpt><trkpt lat="42.53698378072748" lon="14.026147416355672"><ele>62.0</ele><time>2026-03-29T08:18:05Z</time></trkpt><trkpt lat="42.536970536129004" lon="14.026232870320454"><ele>62.16666666666667</ele><time>2026-03-29T08:18:06Z</time></trkpt><trkpt lat="42.5369472007781" lon="14.026329631568224"><ele>62.333333333333336</ele><time>2026-03-29T08:18:06.999Z</time></trkpt><trkpt lat="42.536917322837425" lon="14.026417769272626"><ele>62.5</ele><time>2026-03-29T08:18:07.999Z</time></trkpt><trkpt lat="42.53688852561674" lon="14.026504948525634"><ele>62.66666666666667</ele><time>2026-03-29T08:18:08.999Z</time></trkpt><trkpt lat="42.5368637227763" lon="14.026613842023144"><ele>62.833333333333336</ele><time>2026-03-29T08:18:09.999Z</time></trkpt><trkpt lat="42.53683437965992" lon="14.026729720023678"><ele>63.0</ele><time>2026-03-29T08:18:10.999Z</time></trkpt><trkpt lat="42.53680227968194" lon="14.026851691077125"><ele>63.333333333333336</ele><time>2026-03-29T08:18:11.999Z</time></trkpt><trkpt lat="42.53678093834777" lon="14.026959447315116"><ele>63.66666666666667</ele><time>2026-03-29T08:18:12.999Z</time></trkpt><trkpt lat="42.536744642893886" lon="14.02705631395338"><ele>64.0</ele><time>2026-03-29T08:18:13.999Z</time></trkpt><trkpt lat="42.5367330730668" lon="14.027159613776155"><ele>64.33333333333334</ele><time>2026-03-29T08:18:14.999Z</time></trkpt><trkpt lat="42.53670611580782" lon="14.027244289565763"><ele>64.66666666666667</ele><time>2026-03-29T08:18:15.999Z</time></trkpt><trkpt lat="42.536674639036875" lon="14.027336357734592"><ele>65.0</ele><time>2026-03-29T08:18:16.999Z</time></trkpt><trkpt lat="42.536638807200184" lon="14.027437745926889"><ele>65.83333333333334</ele><time>2026-03-29T08:18:17.999Z</time></trkpt><trkpt lat="42.53659579622419" lon="14.027538254305354"><ele>66.66666666666667</ele><time>2026-03-29T08:18:18.999Z</time></trkpt><trkpt lat="42.53655839545102" lon="14.027627699840187"><ele>67.5</ele><time>2026-03-29T08:18:19.999Z</time></trkpt><trkpt lat="42.53652013266064" lon="14.02772349944899"><ele>68.33333333333333</ele><time>2026-03-29T08:18:20.999Z</time></trkpt><trkpt lat="42.536470088910804" lon="14.027827438257395"><ele>69.16666666666666</ele><time>2026-03-29T08:18:21.999Z</time></trkpt><trkpt lat="42.53642612388715" lon="14.027925592970844"><ele>70.0</ele><time>2026-03-29T08:18:22.999Z</time></trkpt><trkpt lat="42.536388247091146" lon="14.028004595279048"><ele>70.0</ele><time>2026-03-29T08:18:23.999Z</time></trkpt><trkpt lat="42.53634197310287" lon="14.028078015156359"><ele>70.0</ele><time>2026-03-29T08:18:24.999Z</time></trkpt><trkpt lat="42.53629888286343" lon="14.028152123759082"><ele>70.0</ele><time>2026-03-29T08:18:25.999Z</time></trkpt><trkpt lat="42.53623966624126" lon="14.02823613679889"><ele>70.0</ele><time>2026-03-29T08:18:26.999Z</time></trkpt><trkpt lat="42.53618359457665" lon="14.028330107899766"><ele>70.0</ele><time>2026-03-29T08:18:27.999Z</time></trkpt><trkpt lat="42.536123848024026" lon="14.028430794394378"><ele>70.0</ele><time>2026-03-29T08:18:28.999Z</time></trkpt><trkpt lat="42.53607196011966" lon="14.028530150468685"><ele>68.66666666666666</ele><time>2026-03-29T08:18:29.999Z</time></trkpt><trkpt lat="42.53601997353614" lon="14.02862331280786"><ele>67.33333333333333</ele><time>2026-03-29T08:18:30.999Z</time></trkpt><trkpt lat="42.53596988599005" lon="14.028713698505305"><ele>66.0</ele><time>2026-03-29T08:18:31.999Z</time></trkpt><trkpt lat="42.53592334512763" lon="14.028799580257122"><ele>64.66666666666667</ele><time>2026-03-29T08:18:32.999Z</time></trkpt><trkpt lat="42.53587371398136" lon="14.028883887001925"><ele>63.333333333333336</ele><time>2026-03-29T08:18:33.999Z</time></trkpt><trkpt lat="42.535826956600836" lon="14.028968397239446"><ele>62.0</ele><time>2026-03-29T08:18:34.999Z</time></trkpt><trkpt lat="42.53577966476717" lon="14.029058071446755"><ele>62.400000000000006</ele><time>2026-03-29T08:18:35.999Z</time></trkpt><trkpt lat="42.53574862291105" lon="14.02916416287646"><ele>62.800000000000004</ele><time>2026-03-29T08:18:36.999Z</time></trkpt><trkpt lat="42.53573557176688" lon="14.029288100223646"><ele>63.2</ele><time>2026-03-29T08:18:37.999Z</time></trkpt><trkpt lat="42.53574275433164" lon="14.029430781641482"><ele>63.6</ele><time>2026-03-29T08:18:38.999Z</time></trkpt><trkpt lat="42.53575819639665" lon="14.029583359785896"><ele>64.0</ele><time>2026-03-29T08:18:39.999Z</time></trkpt><trkpt lat="42.53577772847221" lon="14.029741222120048"><ele>64.0</ele><time>2026-03-29T08:18:40.999Z</time></trkpt><trkpt lat="42.53579695777292" lon="14.02990903806663"><ele>64.0</ele><time>2026-03-29T08:18:41.999Z</time></trkpt><trkpt lat="42.5358121841297" lon="14.030073477451786"><ele>64.0</ele><time>2026-03-29T08:18:42.999Z</time></trkpt><trkpt lat="42.535828151893696" lon="14.030224076651901"><ele>64.0</ele><time>2026-03-29T08:18:43.999Z</time></trkpt><trkpt lat="42.535847446862434" lon="14.030365918732588"><ele>63.400000000000006</ele><time>2026-03-29T08:18:44.999Z</time></trkpt><trkpt lat="42.53586364263136" lon="14.03050474904644"><ele>62.800000000000004</ele><time>2026-03-29T08:18:45.999Z</time></trkpt><trkpt lat="42.53588009084088" lon="14.03064112061062"><ele>62.199999999999996</ele><time>2026-03-29T08:18:46.999Z</time></trkpt><trkpt lat="42.535886771384334" lon="14.030772388105792"><ele>61.599999999999994</ele><time>2026-03-29T08:18:47.999Z</time></trkpt><trkpt lat="42.53589385615518" lon="14.030910182251912"><ele>61.0</ele><time>2026-03-29T08:18:48.999Z</time></trkpt><trkpt lat="42.53589325751067" lon="14.031043230923867"><ele>60.49999999999999</ele><time>2026-03-29T08:18:49.999Z</time></trkpt><trkpt lat="42.53589010278483" lon="14.031177645811036"><ele>60.0</ele><time>2026-03-29T08:18:50.999Z</time></trkpt><trkpt lat="42.53588621771986" lon="14.031296822390416"><ele>59.5</ele><time>2026-03-29T08:18:51.999Z</time></trkpt><trkpt lat="42.5358795665883" lon="14.031405417593616"><ele>59.0</ele><time>2026-03-29T08:18:52.999Z</time></trkpt><trkpt lat="42.535868664144225" lon="14.031510149918851"><ele>58.49999999999999</ele><time>2026-03-29T08:18:53.999Z</time></trkpt><trkpt lat="42.535861777450556" lon="14.031635062378976"><ele>58.0</ele><time>2026-03-29T08:18:55.999Z</time></trkpt><trkpt lat="42.53581410920553" lon="14.03171808436845"><ele>57.99999999999999</ele><time>2026-03-29T08:19:32Z</time></trkpt><trkpt lat="42.53585023777593" lon="14.031638615234737"><ele>58.0</ele><time>2026-03-29T08:20:30.999Z</time></trkpt><trkpt lat="42.53584271401436" lon="14.031730829410385"><ele>58.0</ele><time>2026-03-29T08:22:37.999Z</time></trkpt><trkpt lat="42.53581366072966" lon="14.03181125312968"><ele>58.0</ele><time>2026-03-29T08:22:38.999Z</time></trkpt><trkpt lat="42.53575388120078" lon="14.031902641928832"><ele>57.99999999999999</ele><time>2026-03-29T08:22:39.999Z</time></trkpt><trkpt lat="42.5357159021795" lon="14.032023000275093"><ele>58.0</ele><time>2026-03-29T08:22:40.999Z</time></trkpt><trkpt lat="42.53566761305636" lon="14.032129157227018"><ele>57.83333333333333</ele><time>2026-03-29T08:22:41.999Z</time></trkpt><trkpt lat="42.535632602887105" lon="14.032233074771185"><ele>57.666666666666664</ele><time>2026-03-29T08:22:42.999Z</time></trkpt><trkpt lat="42.53560838705581" lon="14.032334672789954"><ele>57.5</ele><time>2026-03-29T08:22:43.999Z</time></trkpt><trkpt lat="42.53558601214483" lon="14.032444451995767"><ele>57.33333333333333</ele><time>2026-03-29T08:22:44.999Z</time></trkpt><trkpt lat="42.535563097479894" lon="14.032541644198934"><ele>57.166666666666664</ele><time>2026-03-29T08:22:45.999Z</time></trkpt><trkpt lat="42.53554071309012" lon="14.032668682610407"><ele>57.0</ele><time>2026-03-29T08:22:46.999Z</time></trkpt><trkpt lat="42.535513176652586" lon="14.032797002261908"><ele>57.400000000000006</ele><time>2026-03-29T08:22:47.999Z</time></trkpt><trkpt lat="42.535486009543284" lon="14.032958499745662"><ele>57.800000000000004</ele><time>2026-03-29T08:22:48.999Z</time></trkpt><trkpt lat="42.5354634760162" lon="14.033098079837016"><ele>58.2</ele><time>2026-03-29T08:22:49.999Z</time></trkpt><trkpt lat="42.53544688848553" lon="14.03322340159707"><ele>58.6</ele><time>2026-03-29T08:22:50.999Z</time></trkpt><trkpt lat="42.53542461847551" lon="14.033361635458173"><ele>59.0</ele><time>2026-03-29T08:22:51.999Z</time></trkpt><trkpt lat="42.53539429848037" lon="14.033512380380444"><ele>58.800000000000004</ele><time>2026-03-29T08:22:52.999Z</time></trkpt><trkpt lat="42.53535762054198" lon="14.033646717807116"><ele>58.60000000000001</ele><time>2026-03-29T08:22:53.999Z</time></trkpt><trkpt lat="42.53532471772158" lon="14.033779057416567"><ele>58.4</ele><time>2026-03-29T08:22:54.999Z</time></trkpt><trkpt lat="42.53530003369214" lon="14.033919435021904"><ele>58.2</ele><time>2026-03-29T08:22:55.999Z</time></trkpt><trkpt lat="42.535274922507085" lon="14.034058039820403"><ele>58.0</ele><time>2026-03-29T08:22:56.999Z</time></trkpt><trkpt lat="42.53524957737201" lon="14.034195413242138"><ele>58.0</ele><time>2026-03-29T08:22:57.999Z</time></trkpt><trkpt lat="42.53522544024027" lon="14.034330458201476"><ele>58.0</ele><time>2026-03-29T08:22:58.999Z</time></trkpt><trkpt lat="42.53519406177622" lon="14.034473128609921"><ele>58.0</ele><time>2026-03-29T08:22:59.999Z</time></trkpt><trkpt lat="42.535160035338684" lon="14.034634006547206"><ele>58.0</ele><time>2026-03-29T08:23:00.999Z</time></trkpt><trkpt lat="42.53512851669073" lon="14.034795750025912"><ele>58.0</ele><time>2026-03-29T08:23:01.999Z</time></trkpt><trkpt lat="42.535094288436966" lon="14.03495066213423"><ele>58.0</ele><time>2026-03-29T08:23:02.999Z</time></trkpt><trkpt lat="42.53506225793664" lon="14.035094753836683"><ele>58.0</ele><time>2026-03-29T08:23:03.999Z</time></trkpt><trkpt lat="42.53503694862319" lon="14.035236264183084"><ele>58.0</ele><time>2026-03-29T08:23:04.999Z</time></trkpt><trkpt lat="42.535018225938664" lon="14.03538401230859"><ele>58.0</ele><time>2026-03-29T08:23:05.999Z</time></trkpt><trkpt lat="42.53500154666184" lon="14.035519354355817"><ele>58.8</ele><time>2026-03-29T08:23:06.999Z</time></trkpt><trkpt lat="42.53498880186973" lon="14.035634689229829"><ele>59.599999999999994</ele><time>2026-03-29T08:23:07.999Z</time></trkpt><trkpt lat="42.534977559119355" lon="14.035751293884537"><ele>60.400000000000006</ele><time>2026-03-29T08:23:08.999Z</time></trkpt><trkpt lat="42.53499325364845" lon="14.035885797003917"><ele>61.2</ele><time>2026-03-29T08:23:09.999Z</time></trkpt><trkpt lat="42.535017709748004" lon="14.036012419822578"><ele>62.0</ele><time>2026-03-29T08:23:10.999Z</time></trkpt><trkpt lat="42.53503993602594" lon="14.036160421708953"><ele>63.0</ele><time>2026-03-29T08:23:11.999Z</time></trkpt><trkpt lat="42.53506770125322" lon="14.036308454558437"><ele>64.0</ele><time>2026-03-29T08:23:12.999Z</time></trkpt><trkpt lat="42.53509322376045" lon="14.036454752416452"><ele>65.0</ele><time>2026-03-29T08:23:13.999Z</time></trkpt><trkpt lat="42.53511709130987" lon="14.036579113586576"><ele>66.0</ele><time>2026-03-29T08:23:14.999Z</time></trkpt><trkpt lat="42.53514159185219" lon="14.036709935983675"><ele>67.0</ele><time>2026-03-29T08:23:15.999Z</time></trkpt><trkpt lat="42.53517289853266" lon="14.036822626507876"><ele>67.0</ele><time>2026-03-29T08:23:16.999Z</time></trkpt><trkpt lat="42.535204566421065" lon="14.03692734361041"><ele>67.0</ele><time>2026-03-29T08:23:17.998Z</time></trkpt><trkpt lat="42.53522331841767" lon="14.037042311920585"><ele>67.0</ele><time>2026-03-29T08:23:18.998Z</time></trkpt><trkpt lat="42.53523333446844" lon="14.037158566764395"><ele>67.0</ele><time>2026-03-29T08:23:19.998Z</time></trkpt><trkpt lat="42.53521327493689" lon="14.037253042873795"><ele>67.0</ele><time>2026-03-29T08:23:20.998Z</time></trkpt><trkpt lat="42.535207128531674" lon="14.03734462243454"><ele>67.0</ele><time>2026-03-29T08:23:21.998Z</time></trkpt><trkpt lat="42.53516583420216" lon="14.037440343660196"><ele>66.33333333333333</ele><time>2026-03-29T08:23:22.998Z</time></trkpt><trkpt lat="42.53511557250335" lon="14.037532265783307"><ele>65.66666666666666</ele><time>2026-03-29T08:23:23.998Z</time></trkpt><trkpt lat="42.53506228381133" lon="14.037620723953355"><ele>65.0</ele><time>2026-03-29T08:23:25Z</time></trkpt><trkpt lat="42.535013477918696" lon="14.037719038875066"><ele>64.33333333333333</ele><time>2026-03-29T08:23:26Z</time></trkpt><trkpt lat="42.534984764112174" lon="14.03783176524771"><ele>63.666666666666664</ele><time>2026-03-29T08:23:27Z</time></trkpt><trkpt lat="42.53497265472747" lon="14.037957259331785"><ele>63.0</ele><time>2026-03-29T08:23:28Z</time></trkpt><trkpt lat="42.53497693455636" lon="14.038100856188459"><ele>63.0</ele><time>2026-03-29T08:23:29Z</time></trkpt><trkpt lat="42.53499885010727" lon="14.038276783015963"><ele>63.0</ele><time>2026-03-29T08:23:30Z</time></trkpt><trkpt lat="42.53501886440688" lon="14.038472426694963"><ele>63.0</ele><time>2026-03-29T08:23:31Z</time></trkpt><trkpt lat="42.535024582429976" lon="14.038676377611347"><ele>63.0</ele><time>2026-03-29T08:23:32Z</time></trkpt><trkpt lat="42.53503012019831" lon="14.03889117809482"><ele>61.5</ele><time>2026-03-29T08:23:33Z</time></trkpt><trkpt lat="42.53503559003985" lon="14.03910229934871"><ele>60.0</ele><time>2026-03-29T08:23:34Z</time></trkpt><trkpt lat="42.53503637203897" lon="14.039296129349403"><ele>58.5</ele><time>2026-03-29T08:23:35Z</time></trkpt><trkpt lat="42.535037167492995" lon="14.039462949593181"><ele>57.0</ele><time>2026-03-29T08:23:36Z</time></trkpt><trkpt lat="42.53503353772133" lon="14.039619867377143"><ele>56.75</ele><time>2026-03-29T08:23:37Z</time></trkpt><trkpt lat="42.535034388835165" lon="14.039761918943123"><ele>56.5</ele><time>2026-03-29T08:23:38Z</time></trkpt><trkpt lat="42.53503923238455" lon="14.039913346225877"><ele>56.25</ele><time>2026-03-29T08:23:39Z</time></trkpt><trkpt lat="42.53504144497384" lon="14.04006882535979"><ele>56.0</ele><time>2026-03-29T08:23:40Z</time></trkpt><trkpt lat="42.53503940101222" lon="14.040240189522972"><ele>55.8</ele><time>2026-03-29T08:23:40.999Z</time></trkpt><trkpt lat="42.53503337715724" lon="14.040406249587344"><ele>55.599999999999994</ele><time>2026-03-29T08:23:41.999Z</time></trkpt><trkpt lat="42.53502462267575" lon="14.040559905855824"><ele>55.4</ele><time>2026-03-29T08:23:42.999Z</time></trkpt><trkpt lat="42.535025414784315" lon="14.040705833453494"><ele>55.2</ele><time>2026-03-29T08:23:43.999Z</time></trkpt><trkpt lat="42.53502859936197" lon="14.040842849862727"><ele>55.0</ele><time>2026-03-29T08:23:44.999Z</time></trkpt><trkpt lat="42.535022164884765" lon="14.040979922182634"><ele>55.4</ele><time>2026-03-29T08:23:45.999Z</time></trkpt><trkpt lat="42.535029690300355" lon="14.041117062078689"><ele>55.8</ele><time>2026-03-29T08:23:46.999Z</time></trkpt><trkpt lat="42.53504036912651" lon="14.041265192971176"><ele>56.2</ele><time>2026-03-29T08:23:47.999Z</time></trkpt><trkpt lat="42.535027946377106" lon="14.041413455142834"><ele>56.6</ele><time>2026-03-29T08:23:48.999Z</time></trkpt><trkpt lat="42.535038633311565" lon="14.041577738052412"><ele>57.0</ele><time>2026-03-29T08:23:49.999Z</time></trkpt><trkpt lat="42.53502888085888" lon="14.041758450741133"><ele>57.75</ele><time>2026-03-29T08:23:50.999Z</time></trkpt><trkpt lat="42.53501192510069" lon="14.041949563002353"><ele>58.5</ele><time>2026-03-29T08:23:51.999Z</time></trkpt><trkpt lat="42.53498810275113" lon="14.042133914349725"><ele>59.25</ele><time>2026-03-29T08:23:52.999Z</time></trkpt><trkpt lat="42.534976471198846" lon="14.042297077847978"><ele>60.0</ele><time>2026-03-29T08:23:53.999Z</time></trkpt><trkpt lat="42.53498268269864" lon="14.042454972337389"><ele>60.25</ele><time>2026-03-29T08:23:54.999Z</time></trkpt><trkpt lat="42.535011749015496" lon="14.042622957152787"><ele>60.5</ele><time>2026-03-29T08:23:55.999Z</time></trkpt><trkpt lat="42.53505923608691" lon="14.042807292491096"><ele>60.75</ele><time>2026-03-29T08:23:56.999Z</time></trkpt><trkpt lat="42.535094969477505" lon="14.042997903701998"><ele>61.0</ele><time>2026-03-29T08:23:57.999Z</time></trkpt><trkpt lat="42.535132040572414" lon="14.043188934296996"><ele>60.5</ele><time>2026-03-29T08:23:58.999Z</time></trkpt><trkpt lat="42.53517141351717" lon="14.043385868215674"><ele>60.0</ele><time>2026-03-29T08:23:59.999Z</time></trkpt><trkpt lat="42.53520224648083" lon="14.04358286442026"><ele>59.5</ele><time>2026-03-29T08:24:00.999Z</time></trkpt><trkpt lat="42.53524163336781" lon="14.043773064575957"><ele>59.0</ele><time>2026-03-29T08:24:01.999Z</time></trkpt><trkpt lat="42.53526554355391" lon="14.043966022747082"><ele>58.5</ele><time>2026-03-29T08:24:02.999Z</time></trkpt><trkpt lat="42.53529455560546" lon="14.044152584910227"><ele>58.0</ele><time>2026-03-29T08:24:03.999Z</time></trkpt><trkpt lat="42.535326937566275" lon="14.044317830830948"><ele>57.5</ele><time>2026-03-29T08:24:04.999Z</time></trkpt><trkpt lat="42.53535643115458" lon="14.044480490423675"><ele>57.0</ele><time>2026-03-29T08:24:05.999Z</time></trkpt><trkpt lat="42.53538623664131" lon="14.04464490348091"><ele>57.25</ele><time>2026-03-29T08:24:06.999Z</time></trkpt><trkpt lat="42.535403484679335" lon="14.044813876370723"><ele>57.5</ele><time>2026-03-29T08:24:07.999Z</time></trkpt><trkpt lat="42.535396611055084" lon="14.044989826753177"><ele>57.75</ele><time>2026-03-29T08:24:08.999Z</time></trkpt><trkpt lat="42.53538107445251" lon="14.045146230766932"><ele>58.0</ele><time>2026-03-29T08:24:09.999Z</time></trkpt><trkpt lat="42.535387976190876" lon="14.045300901567897"><ele>60.25</ele><time>2026-03-29T08:24:10.999Z</time></trkpt><trkpt lat="42.53541229293294" lon="14.045475405041593"><ele>62.5</ele><time>2026-03-29T08:24:11.999Z</time></trkpt><trkpt lat="42.53543800137227" lon="14.045648238859396"><ele>64.75</ele><time>2026-03-29T08:24:12.999Z</time></trkpt><trkpt lat="42.53545943492566" lon="14.045831145290261"><ele>67.0</ele><time>2026-03-29T08:24:13.999Z</time></trkpt><trkpt lat="42.53547776938498" lon="14.04601571976082"><ele>68.0</ele><time>2026-03-29T08:24:14.999Z</time></trkpt><trkpt lat="42.535501177870934" lon="14.046210163211565"><ele>69.0</ele><time>2026-03-29T08:24:15.999Z</time></trkpt><trkpt lat="42.53551839960048" lon="14.046400478257079"><ele>70.0</ele><time>2026-03-29T08:24:16.999Z</time></trkpt><trkpt lat="42.53552660872231" lon="14.046602221498967"><ele>71.0</ele><time>2026-03-29T08:24:17.999Z</time></trkpt><trkpt lat="42.53553254288916" lon="14.046790959435642"><ele>71.0</ele><time>2026-03-29T08:24:18.999Z</time></trkpt><trkpt lat="42.53553458169584" lon="14.046983410456495"><ele>71.0</ele><time>2026-03-29T08:24:19.999Z</time></trkpt><trkpt lat="42.53554213182203" lon="14.047174069798006"><ele>71.0</ele><time>2026-03-29T08:24:20.999Z</time></trkpt><trkpt lat="42.535561354890206" lon="14.04735298336137"><ele>71.0</ele><time>2026-03-29T08:24:21.999Z</time></trkpt><trkpt lat="42.535586827685954" lon="14.047528918293418"><ele>70.5</ele><time>2026-03-29T08:24:22.999Z</time></trkpt><trkpt lat="42.5356104894342" lon="14.047715420292175"><ele>70.0</ele><time>2026-03-29T08:24:23.999Z</time></trkpt><trkpt lat="42.535635640829874" lon="14.047893978536866"><ele>69.5</ele><time>2026-03-29T08:24:24.999Z</time></trkpt><trkpt lat="42.53565072519153" lon="14.04807329590344"><ele>69.0</ele><time>2026-03-29T08:24:25.999Z</time></trkpt><trkpt lat="42.535657127799375" lon="14.048249981653536"><ele>69.75</ele><time>2026-03-29T08:24:26.999Z</time></trkpt><trkpt lat="42.53565411438896" lon="14.048432862708415"><ele>70.5</ele><time>2026-03-29T08:24:27.999Z</time></trkpt><trkpt lat="42.53565540975797" lon="14.048605406477254"><ele>71.25</ele><time>2026-03-29T08:24:28.999Z</time></trkpt><trkpt lat="42.53565190579432" lon="14.048752803294596"><ele>72.0</ele><time>2026-03-29T08:24:29.999Z</time></trkpt><trkpt lat="42.53565250712051" lon="14.048897677759923"><ele>72.0</ele><time>2026-03-29T08:24:30.999Z</time></trkpt><trkpt lat="42.53567331005299" lon="14.049025743751919"><ele>72.0</ele><time>2026-03-29T08:24:31.998Z</time></trkpt><trkpt lat="42.53572104261132" lon="14.049147143363424"><ele>72.0</ele><time>2026-03-29T08:24:32.998Z</time></trkpt><trkpt lat="42.535793312249886" lon="14.049265509525048"><ele>72.0</ele><time>2026-03-29T08:24:33.998Z</time></trkpt><trkpt lat="42.53587824670365" lon="14.049376726776888"><ele>72.0</ele><time>2026-03-29T08:24:34.998Z</time></trkpt><trkpt lat="42.53594823843594" lon="14.049473041869803"><ele>72.0</ele><time>2026-03-29T08:24:35.998Z</time></trkpt><trkpt lat="42.53599564093013" lon="14.049587205666718"><ele>72.0</ele><time>2026-03-29T08:24:36.998Z</time></trkpt><trkpt lat="42.53602476884292" lon="14.049716052982756"><ele>72.0</ele><time>2026-03-29T08:24:37.998Z</time></trkpt><trkpt lat="42.53601487854678" lon="14.04984167911205"><ele>72.0</ele><time>2026-03-29T08:24:38.998Z</time></trkpt><trkpt lat="42.53600795423809" lon="14.049964088474"><ele>72.0</ele><time>2026-03-29T08:24:39.998Z</time></trkpt><trkpt lat="42.53595545573895" lon="14.050061715393108"><ele>72.5</ele><time>2026-03-29T08:24:40.998Z</time></trkpt><trkpt lat="42.53589530144917" lon="14.050173561746037"><ele>73.0</ele><time>2026-03-29T08:24:41.998Z</time></trkpt><trkpt lat="42.53582874252178" lon="14.050306277278873"><ele>73.5</ele><time>2026-03-29T08:24:42.998Z</time></trkpt><trkpt lat="42.535740734083234" lon="14.050429788666472"><ele>74.0</ele><time>2026-03-29T08:24:43.998Z</time></trkpt><trkpt lat="42.5356803757901" lon="14.050557619572261"><ele>74.0</ele><time>2026-03-29T08:24:44.998Z</time></trkpt><trkpt lat="42.53563304506594" lon="14.050690448952995"><ele>74.0</ele><time>2026-03-29T08:24:45.998Z</time></trkpt><trkpt lat="42.535598539601615" lon="14.050822670484079"><ele>74.0</ele><time>2026-03-29T08:24:46.998Z</time></trkpt><trkpt lat="42.535601366300284" lon="14.050955682976577"><ele>74.0</ele><time>2026-03-29T08:24:47.998Z</time></trkpt><trkpt lat="42.5356238461632" lon="14.051074105312246"><ele>74.0</ele><time>2026-03-29T08:24:48.998Z</time></trkpt><trkpt lat="42.53565911712143" lon="14.051185547336278"><ele>75.0</ele><time>2026-03-29T08:24:49.998Z</time></trkpt><trkpt lat="42.535721226199136" lon="14.051243471777067"><ele>76.0</ele><time>2026-03-29T08:24:50.998Z</time></trkpt><trkpt lat="42.535809979128445" lon="14.051263754413082"><ele>77.0</ele><time>2026-03-29T08:24:51.998Z</time></trkpt><trkpt lat="42.535910471316626" lon="14.051239852683318"><ele>78.0</ele><time>2026-03-29T08:24:52.998Z</time></trkpt><trkpt lat="42.536018746897405" lon="14.051213089841337"><ele>79.0</ele><time>2026-03-29T08:24:53.998Z</time></trkpt><trkpt lat="42.53613249005509" lon="14.051193691807667"><ele>81.25</ele><time>2026-03-29T08:24:54.998Z</time></trkpt><trkpt lat="42.53626637329508" lon="14.051174962901015"><ele>83.5</ele><time>2026-03-29T08:24:55.998Z</time></trkpt><trkpt lat="42.53639088567015" lon="14.05117343088064"><ele>85.75</ele><time>2026-03-29T08:24:56.998Z</time></trkpt><trkpt lat="42.536510514747825" lon="14.051136763552064"><ele>88.0</ele><time>2026-03-29T08:24:57.998Z</time></trkpt><trkpt lat="42.536634978879675" lon="14.051133915106542"><ele>88.0</ele><time>2026-03-29T08:24:58.998Z</time></trkpt><trkpt lat="42.536759467162376" lon="14.051103122943392"><ele>88.0</ele><time>2026-03-29T08:24:59.998Z</time></trkpt><trkpt lat="42.536884675791136" lon="14.05102672913884"><ele>88.0</ele><time>2026-03-29T08:25:00.998Z</time></trkpt><trkpt lat="42.53699689538423" lon="14.050921700050031"><ele>88.0</ele><time>2026-03-29T08:25:01.998Z</time></trkpt><trkpt lat="42.53712379663461" lon="14.050844848462827"><ele>90.25</ele><time>2026-03-29T08:25:02.998Z</time></trkpt><trkpt lat="42.537238227288086" lon="14.05075320621542"><ele>92.5</ele><time>2026-03-29T08:25:03.998Z</time></trkpt><trkpt lat="42.537354607744554" lon="14.050639653665488"><ele>94.75</ele><time>2026-03-29T08:25:04.998Z</time></trkpt><trkpt lat="42.53747991987403" lon="14.050550460834103"><ele>97.0</ele><time>2026-03-29T08:25:05.998Z</time></trkpt><trkpt lat="42.53758343228893" lon="14.050459495529237"><ele>97.0</ele><time>2026-03-29T08:25:06.998Z</time></trkpt><trkpt lat="42.53768247345485" lon="14.050405295986604"><ele>97.0</ele><time>2026-03-29T08:25:07.998Z</time></trkpt><trkpt lat="42.53775365475552" lon="14.050323432435682"><ele>97.0</ele><time>2026-03-29T08:25:08.998Z</time></trkpt><trkpt lat="42.537832985898945" lon="14.050265613885717"><ele>97.0</ele><time>2026-03-29T08:25:09.998Z</time></trkpt><trkpt lat="42.53792088858669" lon="14.050206594249405"><ele>97.0</ele><time>2026-03-29T08:25:10.998Z</time></trkpt><trkpt lat="42.53801685945458" lon="14.05017189880361"><ele>98.8</ele><time>2026-03-29T08:25:11.998Z</time></trkpt><trkpt lat="42.538097675991665" lon="14.05010572312406"><ele>100.6</ele><time>2026-03-29T08:25:12.998Z</time></trkpt><trkpt lat="42.53818080242101" lon="14.050085428249552"><ele>102.39999999999999</ele><time>2026-03-29T08:25:13.998Z</time></trkpt><trkpt lat="42.53825523189886" lon="14.050025431003018"><ele>104.19999999999999</ele><time>2026-03-29T08:25:14.998Z</time></trkpt><trkpt lat="42.538346811556714" lon="14.049998893771322"><ele>106.0</ele><time>2026-03-29T08:25:15.998Z</time></trkpt><trkpt lat="42.53843581492757" lon="14.049949829628117"><ele>106.66666666666667</ele><time>2026-03-29T08:25:16.998Z</time></trkpt><trkpt lat="42.538521137037506" lon="14.049904848002802"><ele>107.33333333333334</ele><time>2026-03-29T08:25:17.998Z</time></trkpt><trkpt lat="42.53859370212332" lon="14.049859652518416"><ele>108.0</ele><time>2026-03-29T08:25:18.998Z</time></trkpt><trkpt lat="42.53866332540764" lon="14.04987008628563"><ele>108.66666666666666</ele><time>2026-03-29T08:25:19.998Z</time></trkpt><trkpt lat="42.53872418679527" lon="14.049923368011875"><ele>109.33333333333333</ele><time>2026-03-29T08:25:20.998Z</time></trkpt><trkpt lat="42.538781426458435" lon="14.050017837089923"><ele>110.0</ele><time>2026-03-29T08:25:21.998Z</time></trkpt><trkpt lat="42.5387864675601" lon="14.05016261764879"><ele>111.0</ele><time>2026-03-29T08:25:22.998Z</time></trkpt><trkpt lat="42.538818993078884" lon="14.050317060616726"><ele>112.0</ele><time>2026-03-29T08:25:23.998Z</time></trkpt><trkpt lat="42.53883958657142" lon="14.050486841416898"><ele>113.0</ele><time>2026-03-29T08:25:24.998Z</time></trkpt><trkpt lat="42.53887773757208" lon="14.050669472846483"><ele>114.0</ele><time>2026-03-29T08:25:25.998Z</time></trkpt><trkpt lat="42.538909301668845" lon="14.05084314645766"><ele>114.25</ele><time>2026-03-29T08:25:26.998Z</time></trkpt><trkpt lat="42.53892367600473" lon="14.050998689103498"><ele>114.5</ele><time>2026-03-29T08:25:27.998Z</time></trkpt><trkpt lat="42.53893926566224" lon="14.051156577847516"><ele>114.75</ele><time>2026-03-29T08:25:28.998Z</time></trkpt><trkpt lat="42.53896919876566" lon="14.05132122108637"><ele>115.0</ele><time>2026-03-29T08:25:29.998Z</time></trkpt><trkpt lat="42.53901400171724" lon="14.051512810010239"><ele>115.5</ele><time>2026-03-29T08:25:30.999Z</time></trkpt><trkpt lat="42.539052432405875" lon="14.051696082367247"><ele>116.0</ele><time>2026-03-29T08:25:31.999Z</time></trkpt><trkpt lat="42.5390932497673" lon="14.051863643290423"><ele>116.5</ele><time>2026-03-29T08:25:32.999Z</time></trkpt><trkpt lat="42.53913275866892" lon="14.052016123555141"><ele>117.0</ele><time>2026-03-29T08:25:33.999Z</time></trkpt><trkpt lat="42.5391617925692" lon="14.052153521317331"><ele>117.0</ele><time>2026-03-29T08:25:35Z</time></trkpt><trkpt lat="42.53919277216119" lon="14.052264937465997"><ele>117.0</ele><time>2026-03-29T08:25:35.999Z</time></trkpt><trkpt lat="42.539239853029024" lon="14.052351406209027"><ele>117.0</ele><time>2026-03-29T08:25:37Z</time></trkpt><trkpt lat="42.53931427749743" lon="14.05238725831285"><ele>117.0</ele><time>2026-03-29T08:25:38Z</time></trkpt><trkpt lat="42.53940286232243" lon="14.052379148098598"><ele>117.0</ele><time>2026-03-29T08:25:39Z</time></trkpt><trkpt lat="42.53950632832774" lon="14.052343719602234"><ele>117.0</ele><time>2026-03-29T08:25:40Z</time></trkpt><trkpt lat="42.539620310688086" lon="14.052293126476862"><ele>118.0</ele><time>2026-03-29T08:25:41Z</time></trkpt><trkpt lat="42.53974380745735" lon="14.05226012755748"><ele>119.0</ele><time>2026-03-29T08:25:42Z</time></trkpt><trkpt lat="42.53987782676625" lon="14.052220680794576"><ele>120.0</ele><time>2026-03-29T08:25:43Z</time></trkpt><trkpt lat="42.54001367925722" lon="14.0521814199201"><ele>121.0</ele><time>2026-03-29T08:25:44Z</time></trkpt><trkpt lat="42.540158453939696" lon="14.052141475887298"><ele>121.0</ele><time>2026-03-29T08:25:45Z</time></trkpt><trkpt lat="42.54030714341332" lon="14.052111579499316"><ele>121.0</ele><time>2026-03-29T08:25:46Z</time></trkpt><trkpt lat="42.540452478521665" lon="14.052073731133257"><ele>121.0</ele><time>2026-03-29T08:25:47Z</time></trkpt><trkpt lat="42.54058900744356" lon="14.052045284094957"><ele>121.0</ele><time>2026-03-29T08:25:47.999Z</time></trkpt><trkpt lat="42.540718100522184" lon="14.052009862524294"><ele>121.5</ele><time>2026-03-29T08:25:48.999Z</time></trkpt><trkpt lat="42.540847731097685" lon="14.051974870464436"><ele>122.0</ele><time>2026-03-29T08:25:49.999Z</time></trkpt><trkpt lat="42.54097952389472" lon="14.051935944880514"><ele>122.5</ele><time>2026-03-29T08:25:50.999Z</time></trkpt><trkpt lat="42.54111181284547" lon="14.051903532429673"><ele>123.0</ele><time>2026-03-29T08:25:51.999Z</time></trkpt><trkpt lat="42.541245794365004" lon="14.051870686563712"><ele>123.25</ele><time>2026-03-29T08:25:52.999Z</time></trkpt><trkpt lat="42.541380020759874" lon="14.051834470461806"><ele>123.5</ele><time>2026-03-29T08:25:53.999Z</time></trkpt><trkpt lat="42.541503688569335" lon="14.051801381562765"><ele>123.75</ele><time>2026-03-29T08:25:54.999Z</time></trkpt><trkpt lat="42.54162218825412" lon="14.051775016963733"><ele>124.0</ele><time>2026-03-29T08:25:55.999Z</time></trkpt><trkpt lat="42.54172900855464" lon="14.051753357232483"><ele>124.0</ele><time>2026-03-29T08:25:56.999Z</time></trkpt><trkpt lat="42.541839910929234" lon="14.05172320505486"><ele>124.0</ele><time>2026-03-29T08:25:57.999Z</time></trkpt><trkpt lat="42.54195841013626" lon="14.051682875407229"><ele>124.0</ele><time>2026-03-29T08:25:58.999Z</time></trkpt><trkpt lat="42.54208591830389" lon="14.051622527013995"><ele>124.0</ele><time>2026-03-29T08:25:59.999Z</time></trkpt><trkpt lat="42.542222508980785" lon="14.05155526400591"><ele>128.25</ele><time>2026-03-29T08:26:00.999Z</time></trkpt><trkpt lat="42.54235653287966" lon="14.051484795836544"><ele>132.5</ele><time>2026-03-29T08:26:01.999Z</time></trkpt><trkpt lat="42.54250124877135" lon="14.05143256663941"><ele>136.75</ele><time>2026-03-29T08:26:02.999Z</time></trkpt><trkpt lat="42.54264236967143" lon="14.051364485025662"><ele>141.0</ele><time>2026-03-29T08:26:03.999Z</time></trkpt><trkpt lat="42.54276925287251" lon="14.051274735384913"><ele>141.0</ele><time>2026-03-29T08:26:04.999Z</time></trkpt><trkpt lat="42.54289163169337" lon="14.051214848384118"><ele>141.0</ele><time>2026-03-29T08:26:05.999Z</time></trkpt><trkpt lat="42.54299886120622" lon="14.051150853405424"><ele>141.0</ele><time>2026-03-29T08:26:06.999Z</time></trkpt><trkpt lat="42.54310583904793" lon="14.051101242122243"><ele>141.0</ele><time>2026-03-29T08:26:07.999Z</time></trkpt><trkpt lat="42.5431988268165" lon="14.050993104445622"><ele>141.0</ele><time>2026-03-29T08:26:08.999Z</time></trkpt><trkpt lat="42.543290486641375" lon="14.050887391441945"><ele>141.0</ele><time>2026-03-29T08:26:09.999Z</time></trkpt><trkpt lat="42.5433950531627" lon="14.050810976443726"><ele>141.0</ele><time>2026-03-29T08:26:10.999Z</time></trkpt><trkpt lat="42.54348993483073" lon="14.050746378473091"><ele>141.0</ele><time>2026-03-29T08:26:11.999Z</time></trkpt><trkpt lat="42.54359318433395" lon="14.050701518918602"><ele>140.5</ele><time>2026-03-29T08:26:12.999Z</time></trkpt><trkpt lat="42.543709194931616" lon="14.050660482740229"><ele>140.0</ele><time>2026-03-29T08:26:13.999Z</time></trkpt><trkpt lat="42.543823543724926" lon="14.050618898646148"><ele>139.5</ele><time>2026-03-29T08:26:14.999Z</time></trkpt><trkpt lat="42.543932857288326" lon="14.050572915721522"><ele>139.0</ele><time>2026-03-29T08:26:15.999Z</time></trkpt><trkpt lat="42.54404347448089" lon="14.050503759810587"><ele>140.0</ele><time>2026-03-29T08:26:16.999Z</time></trkpt><trkpt lat="42.54416785752987" lon="14.050453542418076"><ele>141.0</ele><time>2026-03-29T08:26:17.999Z</time></trkpt><trkpt lat="42.54429025317821" lon="14.050418304148701"><ele>142.0</ele><time>2026-03-29T08:26:18.999Z</time></trkpt><trkpt lat="42.54440523474702" lon="14.050371244392469"><ele>143.0</ele><time>2026-03-29T08:26:19.999Z</time></trkpt><trkpt lat="42.54452328657221" lon="14.050321953140797"><ele>143.5</ele><time>2026-03-29T08:26:20.999Z</time></trkpt><trkpt lat="42.5446447910308" lon="14.050265181723129"><ele>144.0</ele><time>2026-03-29T08:26:21.999Z</time></trkpt><trkpt lat="42.54475971834799" lon="14.050183437303497"><ele>144.5</ele><time>2026-03-29T08:26:22.999Z</time></trkpt><trkpt lat="42.544882209150366" lon="14.050140175406518"><ele>145.0</ele><time>2026-03-29T08:26:23.999Z</time></trkpt><trkpt lat="42.54499377449573" lon="14.050073391768688"><ele>145.0</ele><time>2026-03-29T08:26:24.999Z</time></trkpt><trkpt lat="42.545107832042326" lon="14.049976205430733"><ele>145.0</ele><time>2026-03-29T08:26:25.999Z</time></trkpt><trkpt lat="42.54523579740685" lon="14.049886261203012"><ele>145.0</ele><time>2026-03-29T08:26:26.999Z</time></trkpt><trkpt lat="42.5453705855799" lon="14.049794749894462"><ele>145.0</ele><time>2026-03-29T08:26:27.999Z</time></trkpt><trkpt lat="42.54551174687255" lon="14.049712171244776"><ele>146.0</ele><time>2026-03-29T08:26:28.999Z</time></trkpt><trkpt lat="42.5456324715858" lon="14.04962948340112"><ele>147.0</ele><time>2026-03-29T08:26:29.999Z</time></trkpt><trkpt lat="42.545755666602126" lon="14.049554363867298"><ele>148.0</ele><time>2026-03-29T08:26:30.999Z</time></trkpt><trkpt lat="42.545873168766484" lon="14.049491547916622"><ele>149.0</ele><time>2026-03-29T08:26:31.999Z</time></trkpt><trkpt lat="42.54598884365504" lon="14.049430424090714"><ele>149.0</ele><time>2026-03-29T08:26:32.999Z</time></trkpt><trkpt lat="42.54609078957532" lon="14.04937775262894"><ele>149.0</ele><time>2026-03-29T08:26:33.999Z</time></trkpt><trkpt lat="42.5461696979451" lon="14.049337219199996"><ele>149.0</ele><time>2026-03-29T08:26:34.999Z</time></trkpt><trkpt lat="42.546232816511996" lon="14.049303636549245"><ele>149.0</ele><time>2026-03-29T08:26:35.999Z</time></trkpt><trkpt lat="42.54630262118558" lon="14.049264285645393"><ele>149.0</ele><time>2026-03-29T08:26:36.999Z</time></trkpt><trkpt lat="42.54637296314717" lon="14.049220616917262"><ele>149.0</ele><time>2026-03-29T08:26:37.999Z</time></trkpt><trkpt lat="42.546459402901554" lon="14.049149735034291"><ele>150.25</ele><time>2026-03-29T08:26:38.999Z</time></trkpt><trkpt lat="42.54654924894367" lon="14.0490542608907"><ele>151.5</ele><time>2026-03-29T08:26:39.999Z</time></trkpt><trkpt lat="42.54664396802847" lon="14.04894770080002"><ele>152.75</ele><time>2026-03-29T08:26:40.999Z</time></trkpt><trkpt lat="42.546745550846495" lon="14.048823242629393"><ele>154.0</ele><time>2026-03-29T08:26:41.999Z</time></trkpt><trkpt lat="42.54683711954436" lon="14.048677505668223"><ele>154.0</ele><time>2026-03-29T08:26:42.999Z</time></trkpt><trkpt lat="42.546950391010476" lon="14.048561522792333"><ele>154.0</ele><time>2026-03-29T08:26:43.999Z</time></trkpt><trkpt lat="42.54704053957675" lon="14.048441964562238"><ele>154.0</ele><time>2026-03-29T08:26:44.999Z</time></trkpt><trkpt lat="42.54712839815428" lon="14.048320674827593"><ele>154.0</ele><time>2026-03-29T08:26:45.999Z</time></trkpt><trkpt lat="42.54721500992814" lon="14.048194911962556"><ele>154.0</ele><time>2026-03-29T08:26:46.999Z</time></trkpt><trkpt lat="42.54728916747473" lon="14.048051868245961"><ele>154.0</ele><time>2026-03-29T08:26:47.999Z</time></trkpt><trkpt lat="42.54738160131237" lon="14.047929769546958"><ele>154.0</ele><time>2026-03-29T08:26:48.999Z</time></trkpt><trkpt lat="42.547462133189796" lon="14.0477975396746"><ele>154.0</ele><time>2026-03-29T08:26:49.999Z</time></trkpt><trkpt lat="42.5475342868394" lon="14.047675464684836"><ele>154.0</ele><time>2026-03-29T08:26:50.998Z</time></trkpt><trkpt lat="42.547606944318794" lon="14.047552032882807"><ele>154.0</ele><time>2026-03-29T08:26:51.998Z</time></trkpt><trkpt lat="42.547681683350135" lon="14.047421812718797"><ele>154.0</ele><time>2026-03-29T08:26:52.998Z</time></trkpt><trkpt lat="42.54775878377659" lon="14.047281559254845"><ele>154.0</ele><time>2026-03-29T08:26:53.998Z</time></trkpt><trkpt lat="42.547836952943165" lon="14.047133114508474"><ele>152.75</ele><time>2026-03-29T08:26:54.998Z</time></trkpt><trkpt lat="42.547899532438144" lon="14.046971141629847"><ele>151.5</ele><time>2026-03-29T08:26:55.998Z</time></trkpt><trkpt lat="42.54797340584729" lon="14.046841368864047"><ele>150.25</ele><time>2026-03-29T08:26:56.998Z</time></trkpt><trkpt lat="42.5480395506801" lon="14.046717666719559"><ele>149.0</ele><time>2026-03-29T08:26:57.998Z</time></trkpt><trkpt lat="42.548107975271954" lon="14.046583791263432"><ele>152.0</ele><time>2026-03-29T08:26:58.998Z</time></trkpt><trkpt lat="42.54818296905772" lon="14.046449718112191"><ele>155.0</ele><time>2026-03-29T08:26:59.998Z</time></trkpt><trkpt lat="42.54825053084881" lon="14.04630969928451"><ele>158.0</ele><time>2026-03-29T08:27:00.998Z</time></trkpt><trkpt lat="42.54832042632602" lon="14.046159192088037"><ele>161.0</ele><time>2026-03-29T08:27:01.998Z</time></trkpt><trkpt lat="42.548383052165796" lon="14.04601276035674"><ele>161.0</ele><time>2026-03-29T08:27:02.998Z</time></trkpt><trkpt lat="42.54844561358824" lon="14.045873313551736"><ele>161.0</ele><time>2026-03-29T08:27:03.998Z</time></trkpt><trkpt lat="42.548498406495256" lon="14.045730670253533"><ele>161.0</ele><time>2026-03-29T08:27:04.998Z</time></trkpt><trkpt lat="42.548567919369425" lon="14.045610627976139"><ele>161.0</ele><time>2026-03-29T08:27:05.998Z</time></trkpt><trkpt lat="42.54863053145126" lon="14.045477673773918"><ele>161.5</ele><time>2026-03-29T08:27:06.998Z</time></trkpt><trkpt lat="42.548711462510134" lon="14.045356882137296"><ele>162.0</ele><time>2026-03-29T08:27:07.998Z</time></trkpt><trkpt lat="42.548784067269665" lon="14.045223530390514"><ele>162.5</ele><time>2026-03-29T08:27:08.998Z</time></trkpt><trkpt lat="42.548861032415516" lon="14.04508909240618"><ele>163.0</ele><time>2026-03-29T08:27:09.998Z</time></trkpt><trkpt lat="42.54894850353515" lon="14.04496782897632"><ele>165.0</ele><time>2026-03-29T08:27:10.998Z</time></trkpt><trkpt lat="42.54903970526577" lon="14.044858872669083"><ele>167.0</ele><time>2026-03-29T08:27:11.998Z</time></trkpt><trkpt lat="42.54912603561188" lon="14.044765078371281"><ele>169.0</ele><time>2026-03-29T08:27:12.998Z</time></trkpt><trkpt lat="42.54922269023502" lon="14.04468165769086"><ele>171.0</ele><time>2026-03-29T08:27:13.998Z</time></trkpt><trkpt lat="42.54931952644238" lon="14.04460666598106"><ele>171.0</ele><time>2026-03-29T08:27:14.998Z</time></trkpt><trkpt lat="42.54942047378107" lon="14.04464275103348"><ele>171.0</ele><time>2026-03-29T08:27:15.998Z</time></trkpt><trkpt lat="42.54953125131714" lon="14.044659704012236"><ele>171.0</ele><time>2026-03-29T08:27:16.998Z</time></trkpt><trkpt lat="42.54962488048417" lon="14.044693477807197"><ele>171.0</ele><time>2026-03-29T08:27:17.998Z</time></trkpt><trkpt lat="42.54970279914414" lon="14.044753946405853"><ele>171.0</ele><time>2026-03-29T08:27:18.998Z</time></trkpt><trkpt lat="42.549785161736665" lon="14.044834950402183"><ele>170.5</ele><time>2026-03-29T08:27:19.998Z</time></trkpt><trkpt lat="42.54984490132835" lon="14.044968146639087"><ele>170.0</ele><time>2026-03-29T08:27:20.998Z</time></trkpt><trkpt lat="42.54989245651297" lon="14.045104986386216"><ele>169.5</ele><time>2026-03-29T08:27:21.998Z</time></trkpt><trkpt lat="42.5499410689561" lon="14.045276085989165"><ele>169.0</ele><time>2026-03-29T08:27:22.998Z</time></trkpt><trkpt lat="42.549979923696036" lon="14.045458422056994"><ele>169.0</ele><time>2026-03-29T08:27:23.998Z</time></trkpt><trkpt lat="42.55003979163702" lon="14.045655964362947"><ele>169.0</ele><time>2026-03-29T08:27:24.998Z</time></trkpt><trkpt lat="42.55010570480048" lon="14.04583124010629"><ele>169.0</ele><time>2026-03-29T08:27:25.998Z</time></trkpt><trkpt lat="42.550172825458205" lon="14.046001914790745"><ele>169.0</ele><time>2026-03-29T08:27:26.998Z</time></trkpt><trkpt lat="42.55023828041385" lon="14.046143902773725"><ele>169.0</ele><time>2026-03-29T08:27:27.998Z</time></trkpt><trkpt lat="42.55030468877236" lon="14.046273070713385"><ele>169.0</ele><time>2026-03-29T08:27:28.998Z</time></trkpt><trkpt lat="42.550375759343545" lon="14.046385043766982"><ele>169.0</ele><time>2026-03-29T08:27:29.998Z</time></trkpt><trkpt lat="42.550429264956335" lon="14.046489382730519"><ele>169.0</ele><time>2026-03-29T08:27:30.998Z</time></trkpt><trkpt lat="42.55047040285005" lon="14.046576331696876"><ele>169.0</ele><time>2026-03-29T08:27:31.998Z</time></trkpt><trkpt lat="42.55051078917856" lon="14.04665512879507"><ele>169.0</ele><time>2026-03-29T08:27:33.998Z</time></trkpt><trkpt lat="42.55054737005632" lon="14.046727692625486"><ele>169.0</ele><time>2026-03-29T08:27:35.998Z</time></trkpt><trkpt lat="42.5506133832292" lon="14.046741852745152"><ele>169.0</ele><time>2026-03-29T08:27:38Z</time></trkpt><trkpt lat="42.55066746634311" lon="14.046614077723623"><ele>169.0</ele><time>2026-03-29T08:27:40Z</time></trkpt><trkpt lat="42.55066898288128" lon="14.046492505628054"><ele>169.0</ele><time>2026-03-29T08:27:41Z</time></trkpt><trkpt lat="42.55069274016343" lon="14.046371993979074"><ele>169.0</ele><time>2026-03-29T08:27:42Z</time></trkpt><trkpt lat="42.55071386304872" lon="14.046246016823444"><ele>169.79999999999998</ele><time>2026-03-29T08:27:43Z</time></trkpt><trkpt lat="42.55073940611408" lon="14.046135428761856"><ele>170.6</ele><time>2026-03-29T08:27:44Z</time></trkpt><trkpt lat="42.55076658993631" lon="14.045991170506499"><ele>171.4</ele><time>2026-03-29T08:27:45Z</time></trkpt><trkpt lat="42.55080420183777" lon="14.045864169141245"><ele>172.2</ele><time>2026-03-29T08:27:46Z</time></trkpt><trkpt lat="42.550863925328365" lon="14.045754249226016"><ele>173.0</ele><time>2026-03-29T08:27:47Z</time></trkpt><trkpt lat="42.55094841251244" lon="14.045639805760949"><ele>172.0</ele><time>2026-03-29T08:27:48Z</time></trkpt><trkpt lat="42.55104475812129" lon="14.045497933086118"><ele>171.0</ele><time>2026-03-29T08:27:49Z</time></trkpt><trkpt lat="42.5511454618652" lon="14.045343668768261"><ele>170.0</ele><time>2026-03-29T08:27:50Z</time></trkpt><trkpt lat="42.551222565012594" lon="14.045184592105386"><ele>169.0</ele><time>2026-03-29T08:27:51Z</time></trkpt><trkpt lat="42.55132623118751" lon="14.04502174200363"><ele>172.75</ele><time>2026-03-29T08:27:52Z</time></trkpt><trkpt lat="42.55143161648725" lon="14.044858174595722"><ele>176.5</ele><time>2026-03-29T08:27:53Z</time></trkpt><trkpt lat="42.55153078722287" lon="14.044706010500636"><ele>180.25</ele><time>2026-03-29T08:27:54Z</time></trkpt><trkpt lat="42.55163430415206" lon="14.044589581570332"><ele>184.0</ele><time>2026-03-29T08:27:55Z</time></trkpt><trkpt lat="42.55174582792984" lon="14.044466598027954"><ele>184.0</ele><time>2026-03-29T08:27:56Z</time></trkpt><trkpt lat="42.55186932607131" lon="14.044335770412074"><ele>184.0</ele><time>2026-03-29T08:27:57Z</time></trkpt><trkpt lat="42.55198824852253" lon="14.044190607126824"><ele>184.0</ele><time>2026-03-29T08:27:58Z</time></trkpt><trkpt lat="42.552116594857836" lon="14.044067597509015"><ele>183.5</ele><time>2026-03-29T08:27:59Z</time></trkpt><trkpt lat="42.55223721369278" lon="14.043947219833466"><ele>183.0</ele><time>2026-03-29T08:28:00Z</time></trkpt><trkpt lat="42.552348573954816" lon="14.043840916806207"><ele>182.5</ele><time>2026-03-29T08:28:01Z</time></trkpt><trkpt lat="42.55244533963334" lon="14.043728415327188"><ele>182.0</ele><time>2026-03-29T08:28:01.999Z</time></trkpt><trkpt lat="42.55253112252745" lon="14.043615936709115"><ele>182.0</ele><time>2026-03-29T08:28:02.999Z</time></trkpt><trkpt lat="42.55260606625458" lon="14.043504652190542"><ele>182.0</ele><time>2026-03-29T08:28:03.999Z</time></trkpt><trkpt lat="42.55269185316927" lon="14.043390679306222"><ele>182.0</ele><time>2026-03-29T08:28:04.999Z</time></trkpt><trkpt lat="42.55278052067318" lon="14.04324627171602"><ele>182.0</ele><time>2026-03-29T08:28:05.999Z</time></trkpt><trkpt lat="42.55285946598929" lon="14.043084037479856"><ele>183.0</ele><time>2026-03-29T08:28:06.999Z</time></trkpt><trkpt lat="42.552935203497945" lon="14.042905891078501"><ele>184.0</ele><time>2026-03-29T08:28:07.999Z</time></trkpt><trkpt lat="42.552998309221906" lon="14.042741678602235"><ele>185.0</ele><time>2026-03-29T08:28:08.999Z</time></trkpt><trkpt lat="42.55306873734365" lon="14.042574799980503"><ele>186.0</ele><time>2026-03-29T08:28:09.999Z</time></trkpt><trkpt lat="42.55313766125674" lon="14.042402036876556"><ele>186.0</ele><time>2026-03-29T08:28:10.999Z</time></trkpt><trkpt lat="42.55322098425014" lon="14.042243982166081"><ele>186.0</ele><time>2026-03-29T08:28:11.999Z</time></trkpt><trkpt lat="42.55327547398197" lon="14.042074967657795"><ele>186.0</ele><time>2026-03-29T08:28:12.999Z</time></trkpt><trkpt lat="42.55334226916275" lon="14.041931447089874"><ele>186.0</ele><time>2026-03-29T08:28:13.999Z</time></trkpt><trkpt lat="42.553401219356125" lon="14.04178262446173"><ele>186.0</ele><time>2026-03-29T08:28:14.999Z</time></trkpt><trkpt lat="42.553481198228994" lon="14.041647575331801"><ele>186.0</ele><time>2026-03-29T08:28:15.999Z</time></trkpt><trkpt lat="42.5535580921128" lon="14.041508437513375"><ele>186.0</ele><time>2026-03-29T08:28:16.999Z</time></trkpt><trkpt lat="42.55364977886898" lon="14.041373663398577"><ele>186.0</ele><time>2026-03-29T08:28:17.999Z</time></trkpt><trkpt lat="42.55374191890049" lon="14.041223542831572"><ele>185.33333333333334</ele><time>2026-03-29T08:28:18.999Z</time></trkpt><trkpt lat="42.553851580383395" lon="14.04108176711462"><ele>184.66666666666669</ele><time>2026-03-29T08:28:19.999Z</time></trkpt><trkpt lat="42.553969687406884" lon="14.040956935984607"><ele>184.0</ele><time>2026-03-29T08:28:20.999Z</time></trkpt><trkpt lat="42.554085079319144" lon="14.040811747423435"><ele>186.75</ele><time>2026-03-29T08:28:21.999Z</time></trkpt><trkpt lat="42.55418930177989" lon="14.040680612479617"><ele>189.5</ele><time>2026-03-29T08:28:22.999Z</time></trkpt><trkpt lat="42.55428710954847" lon="14.040557548663918"><ele>192.25</ele><time>2026-03-29T08:28:23.999Z</time></trkpt><trkpt lat="42.554391354044604" lon="14.040425367797095"><ele>195.0</ele><time>2026-03-29T08:28:24.999Z</time></trkpt><trkpt lat="42.5544977666552" lon="14.040287079665257"><ele>195.5</ele><time>2026-03-29T08:28:25.999Z</time></trkpt><trkpt lat="42.554601793660645" lon="14.040150743307517"><ele>196.0</ele><time>2026-03-29T08:28:26.999Z</time></trkpt><trkpt lat="42.554704937609976" lon="14.040016887510374"><ele>196.5</ele><time>2026-03-29T08:28:27.999Z</time></trkpt><trkpt lat="42.55481594055889" lon="14.039876775650185"><ele>197.0</ele><time>2026-03-29T08:28:28.999Z</time></trkpt><trkpt lat="42.55492714886764" lon="14.039735912622483"><ele>197.0</ele><time>2026-03-29T08:28:29.999Z</time></trkpt><trkpt lat="42.55503030793776" lon="14.039596555423698"><ele>197.0</ele><time>2026-03-29T08:28:30.999Z</time></trkpt><trkpt lat="42.555129478827254" lon="14.039453724181872"><ele>197.0</ele><time>2026-03-29T08:28:31.999Z</time></trkpt><trkpt lat="42.555223400765186" lon="14.039308769315213"><ele>197.0</ele><time>2026-03-29T08:28:32.999Z</time></trkpt><trkpt lat="42.55530338004608" lon="14.03917505898576"><ele>198.5</ele><time>2026-03-29T08:28:33.999Z</time></trkpt><trkpt lat="42.555356803253694" lon="14.039029739423146"><ele>200.0</ele><time>2026-03-29T08:28:34.999Z</time></trkpt><trkpt lat="42.55542010593522" lon="14.038887331967741"><ele>201.5</ele><time>2026-03-29T08:28:35.999Z</time></trkpt><trkpt lat="42.55547152794034" lon="14.038729873637756"><ele>203.0</ele><time>2026-03-29T08:28:36.999Z</time></trkpt><trkpt lat="42.55550416210509" lon="14.03854625302438"><ele>197.75</ele><time>2026-03-29T08:28:37.999Z</time></trkpt><trkpt lat="42.555524701887975" lon="14.038357294459656"><ele>192.5</ele><time>2026-03-29T08:28:38.999Z</time></trkpt><trkpt lat="42.55552433460799" lon="14.038184733872695"><ele>187.25</ele><time>2026-03-29T08:28:39.999Z</time></trkpt><trkpt lat="42.55550076598513" lon="14.03802910342772"><ele>182.0</ele><time>2026-03-29T08:28:40.999Z</time></trkpt><trkpt lat="42.555459822788066" lon="14.03788495093711"><ele>180.5</ele><time>2026-03-29T08:28:41.999Z</time></trkpt><trkpt lat="42.55539746726174" lon="14.037748432169815"><ele>179.0</ele><time>2026-03-29T08:28:42.999Z</time></trkpt><trkpt lat="42.555311661074725" lon="14.037627970896686"><ele>177.5</ele><time>2026-03-29T08:28:43.999Z</time></trkpt><trkpt lat="42.555208140081966" lon="14.037537078692898"><ele>176.0</ele><time>2026-03-29T08:28:44.999Z</time></trkpt><trkpt lat="42.555087018360105" lon="14.03747174229177"><ele>175.25</ele><time>2026-03-29T08:28:45.999Z</time></trkpt><trkpt lat="42.55495360210529" lon="14.037428246775152"><ele>174.5</ele><time>2026-03-29T08:28:46.999Z</time></trkpt><trkpt lat="42.55481190787898" lon="14.037395664795563"><ele>173.75</ele><time>2026-03-29T08:28:47.999Z</time></trkpt><trkpt lat="42.55468242984242" lon="14.037361863569108"><ele>173.0</ele><time>2026-03-29T08:28:48.999Z</time></trkpt><trkpt lat="42.55456407526269" lon="14.037321887264"><ele>178.25</ele><time>2026-03-29T08:28:49.999Z</time></trkpt><trkpt lat="42.554447056097864" lon="14.037281904285031"><ele>183.5</ele><time>2026-03-29T08:28:50.999Z</time></trkpt><trkpt lat="42.55433205995866" lon="14.037224729722617"><ele>188.75</ele><time>2026-03-29T08:28:51.999Z</time></trkpt><trkpt lat="42.55422909362433" lon="14.037143283471895"><ele>194.0</ele><time>2026-03-29T08:28:52.999Z</time></trkpt><trkpt lat="42.55414410556598" lon="14.03704668610651"><ele>194.0</ele><time>2026-03-29T08:28:53.999Z</time></trkpt><trkpt lat="42.55408425528612" lon="14.036899825516059"><ele>194.0</ele><time>2026-03-29T08:28:54.999Z</time></trkpt><trkpt lat="42.554025741139924" lon="14.036740712231243"><ele>194.0</ele><time>2026-03-29T08:28:55.999Z</time></trkpt><trkpt lat="42.55397380837836" lon="14.036576830959818"><ele>194.0</ele><time>2026-03-29T08:28:56.999Z</time></trkpt><trkpt lat="42.553902766307274" lon="14.036425607372582"><ele>194.79999999999998</ele><time>2026-03-29T08:28:57.999Z</time></trkpt><trkpt lat="42.55384169032803" lon="14.036285031693907"><ele>195.6</ele><time>2026-03-29T08:28:58.999Z</time></trkpt><trkpt lat="42.55376361073141" lon="14.036176315242809"><ele>196.4</ele><time>2026-03-29T08:28:59.998Z</time></trkpt><trkpt lat="42.55367855691244" lon="14.036084009259238"><ele>197.2</ele><time>2026-03-29T08:29:00.998Z</time></trkpt><trkpt lat="42.553594746383574" lon="14.036001297992112"><ele>198.0</ele><time>2026-03-29T08:29:01.998Z</time></trkpt><trkpt lat="42.553520894387674" lon="14.035903143764212"><ele>198.8</ele><time>2026-03-29T08:29:02.998Z</time></trkpt><trkpt lat="42.55346123872604" lon="14.035790157145723"><ele>199.60000000000002</ele><time>2026-03-29T08:29:03.998Z</time></trkpt><trkpt lat="42.55345064657715" lon="14.035654567523574"><ele>200.39999999999998</ele><time>2026-03-29T08:29:04.998Z</time></trkpt><trkpt lat="42.553464054977425" lon="14.03552916377891"><ele>201.2</ele><time>2026-03-29T08:29:05.998Z</time></trkpt><trkpt lat="42.55349359064219" lon="14.03541358420557"><ele>202.0</ele><time>2026-03-29T08:29:06.998Z</time></trkpt><trkpt lat="42.55354630604149" lon="14.035297997537771"><ele>202.0</ele><time>2026-03-29T08:29:07.998Z</time></trkpt><trkpt lat="42.553603221025384" lon="14.035167280208366"><ele>202.0</ele><time>2026-03-29T08:29:08.998Z</time></trkpt><trkpt lat="42.55366398748003" lon="14.03503160085382"><ele>202.0</ele><time>2026-03-29T08:29:09.998Z</time></trkpt><trkpt lat="42.55371273304673" lon="14.034880896804014"><ele>202.0</ele><time>2026-03-29T08:29:10.998Z</time></trkpt><trkpt lat="42.55377991965758" lon="14.034739940245542"><ele>201.25</ele><time>2026-03-29T08:29:11.998Z</time></trkpt><trkpt lat="42.55385252250481" lon="14.034593125243848"><ele>200.5</ele><time>2026-03-29T08:29:12.998Z</time></trkpt><trkpt lat="42.55391752730966" lon="14.034446315829598"><ele>199.75</ele><time>2026-03-29T08:29:13.998Z</time></trkpt><trkpt lat="42.55398976438179" lon="14.034299823967574"><ele>199.0</ele><time>2026-03-29T08:29:14.998Z</time></trkpt><trkpt lat="42.554057781572325" lon="14.034151016452867"><ele>202.75</ele><time>2026-03-29T08:29:15.998Z</time></trkpt><trkpt lat="42.55412779809006" lon="14.034015883954009"><ele>206.5</ele><time>2026-03-29T08:29:16.998Z</time></trkpt><trkpt lat="42.554194305695496" lon="14.033876180528027"><ele>210.25</ele><time>2026-03-29T08:29:17.998Z</time></trkpt><trkpt lat="42.554285930108136" lon="14.033763378651708"><ele>214.0</ele><time>2026-03-29T08:29:18.998Z</time></trkpt><trkpt lat="42.55436882117314" lon="14.033635970633236"><ele>214.0</ele><time>2026-03-29T08:29:19.998Z</time></trkpt><trkpt lat="42.554478499058945" lon="14.033539511967744"><ele>214.0</ele><time>2026-03-29T08:29:20.998Z</time></trkpt><trkpt lat="42.55460744482532" lon="14.033466283477905"><ele>214.0</ele><time>2026-03-29T08:29:21.998Z</time></trkpt><trkpt lat="42.55472698917242" lon="14.03337462799747"><ele>214.0</ele><time>2026-03-29T08:29:22.998Z</time></trkpt><trkpt lat="42.554824562925404" lon="14.033271438306192"><ele>215.0</ele><time>2026-03-29T08:29:23.998Z</time></trkpt><trkpt lat="42.554922948623954" lon="14.033164526507122"><ele>216.0</ele><time>2026-03-29T08:29:24.998Z</time></trkpt><trkpt lat="42.5550192022575" lon="14.033024314051351"><ele>217.0</ele><time>2026-03-29T08:29:25.998Z</time></trkpt><trkpt lat="42.55511040532128" lon="14.032874480685866"><ele>218.0</ele><time>2026-03-29T08:29:26.998Z</time></trkpt><trkpt lat="42.55521789905768" lon="14.032737192231524"><ele>218.0</ele><time>2026-03-29T08:29:27.998Z</time></trkpt><trkpt lat="42.55532484870287" lon="14.0325751735058"><ele>218.0</ele><time>2026-03-29T08:29:28.998Z</time></trkpt><trkpt lat="42.555423905061154" lon="14.032425112150259"><ele>218.0</ele><time>2026-03-29T08:29:29.998Z</time></trkpt><trkpt lat="42.55551270329979" lon="14.032290591364388"><ele>218.0</ele><time>2026-03-29T08:29:30.998Z</time></trkpt><trkpt lat="42.55558640927154" lon="14.03214845507102"><ele>215.4</ele><time>2026-03-29T08:29:31.998Z</time></trkpt><trkpt lat="42.555664052788885" lon="14.032028503612342"><ele>212.8</ele><time>2026-03-29T08:29:32.998Z</time></trkpt><trkpt lat="42.555735527634404" lon="14.031911866366704"><ele>210.2</ele><time>2026-03-29T08:29:33.998Z</time></trkpt><trkpt lat="42.55579012468076" lon="14.031797404488264"><ele>207.6</ele><time>2026-03-29T08:29:34.998Z</time></trkpt><trkpt lat="42.555818640945425" lon="14.03165901466581"><ele>205.0</ele><time>2026-03-29T08:29:35.998Z</time></trkpt><trkpt lat="42.55582431468747" lon="14.031499710067523"><ele>204.0</ele><time>2026-03-29T08:29:36.998Z</time></trkpt><trkpt lat="42.55580694182844" lon="14.031328432235554"><ele>203.0</ele><time>2026-03-29T08:29:37.998Z</time></trkpt><trkpt lat="42.555802627135016" lon="14.031168531937398"><ele>202.0</ele><time>2026-03-29T08:29:38.998Z</time></trkpt><trkpt lat="42.55576600959256" lon="14.031025726588545"><ele>201.0</ele><time>2026-03-29T08:29:39.998Z</time></trkpt><trkpt lat="42.55572997811073" lon="14.03090087132687"><ele>199.5</ele><time>2026-03-29T08:29:40.998Z</time></trkpt><trkpt lat="42.555658879523605" lon="14.030774754701108"><ele>198.0</ele><time>2026-03-29T08:29:42Z</time></trkpt><trkpt lat="42.55556194257139" lon="14.030643614636"><ele>196.5</ele><time>2026-03-29T08:29:43Z</time></trkpt><trkpt lat="42.555457371285534" lon="14.030535050520655"><ele>195.0</ele><time>2026-03-29T08:29:44Z</time></trkpt><trkpt lat="42.55538827254436" lon="14.030405070282129"><ele>202.25</ele><time>2026-03-29T08:29:45Z</time></trkpt><trkpt lat="42.55532609959596" lon="14.030254163367967"><ele>209.5</ele><time>2026-03-29T08:29:46Z</time></trkpt><trkpt lat="42.55527700431671" lon="14.030080053410405"><ele>216.75</ele><time>2026-03-29T08:29:47Z</time></trkpt><trkpt lat="42.55522881169711" lon="14.02991436968847"><ele>224.0</ele><time>2026-03-29T08:29:48Z</time></trkpt><trkpt lat="42.55518362483308" lon="14.029745973463202"><ele>224.0</ele><time>2026-03-29T08:29:49Z</time></trkpt><trkpt lat="42.55515031984681" lon="14.029585726430726"><ele>224.0</ele><time>2026-03-29T08:29:50Z</time></trkpt><trkpt lat="42.555126610563114" lon="14.029426830719139"><ele>224.0</ele><time>2026-03-29T08:29:51Z</time></trkpt><trkpt lat="42.5551168298352" lon="14.029260580386314"><ele>224.0</ele><time>2026-03-29T08:29:52Z</time></trkpt><trkpt lat="42.55512812431495" lon="14.029083649999464"><ele>224.0</ele><time>2026-03-29T08:29:53Z</time></trkpt><trkpt lat="42.555150038705015" lon="14.028896942041778"><ele>224.0</ele><time>2026-03-29T08:29:54Z</time></trkpt><trkpt lat="42.555164655530334" lon="14.028729905743967"><ele>224.0</ele><time>2026-03-29T08:29:55Z</time></trkpt><trkpt lat="42.55515927988948" lon="14.028574435307405"><ele>224.0</ele><time>2026-03-29T08:29:56Z</time></trkpt><trkpt lat="42.55515775023742" lon="14.028425587914148"><ele>223.25</ele><time>2026-03-29T08:29:57Z</time></trkpt><trkpt lat="42.5551379112788" lon="14.028275424602311"><ele>222.5</ele><time>2026-03-29T08:29:58Z</time></trkpt><trkpt lat="42.55509387926076" lon="14.02812374136963"><ele>221.75</ele><time>2026-03-29T08:29:59Z</time></trkpt><trkpt lat="42.55503268336944" lon="14.0279617079389"><ele>221.0</ele><time>2026-03-29T08:30:00Z</time></trkpt><trkpt lat="42.55496897287154" lon="14.027808815144134"><ele>221.0</ele><time>2026-03-29T08:30:01Z</time></trkpt><trkpt lat="42.554933285267616" lon="14.027650783576929"><ele>221.0</ele><time>2026-03-29T08:30:02Z</time></trkpt><trkpt lat="42.554896454449846" lon="14.027489606291978"><ele>221.0</ele><time>2026-03-29T08:30:03Z</time></trkpt><trkpt lat="42.554850194467974" lon="14.027327948447711"><ele>221.0</ele><time>2026-03-29T08:30:04Z</time></trkpt><trkpt lat="42.55483600325996" lon="14.027157346150029"><ele>220.25</ele><time>2026-03-29T08:30:05Z</time></trkpt><trkpt lat="42.55480825317118" lon="14.026984244741806"><ele>219.5</ele><time>2026-03-29T08:30:06Z</time></trkpt><trkpt lat="42.55478067146488" lon="14.026810785385608"><ele>218.75</ele><time>2026-03-29T08:30:07Z</time></trkpt><trkpt lat="42.55475220443217" lon="14.026631759077928"><ele>218.0</ele><time>2026-03-29T08:30:08Z</time></trkpt><trkpt lat="42.55472254131881" lon="14.026445209200029"><ele>218.0</ele><time>2026-03-29T08:30:09Z</time></trkpt><trkpt lat="42.554692086503515" lon="14.026252594121734"><ele>218.0</ele><time>2026-03-29T08:30:10Z</time></trkpt><trkpt lat="42.55464490777215" lon="14.026057709167013"><ele>218.0</ele><time>2026-03-29T08:30:11Z</time></trkpt><trkpt lat="42.554617227624426" lon="14.02585329326206"><ele>218.0</ele><time>2026-03-29T08:30:12Z</time></trkpt><trkpt lat="42.554606125494615" lon="14.025637143949398"><ele>218.33333333333334</ele><time>2026-03-29T08:30:12.999Z</time></trkpt><trkpt lat="42.55458406654904" lon="14.025407379112664"><ele>218.66666666666669</ele><time>2026-03-29T08:30:13.999Z</time></trkpt><trkpt lat="42.55456913104265" lon="14.025169963891457"><ele>219.0</ele><time>2026-03-29T08:30:14.999Z</time></trkpt><trkpt lat="42.55456405863738" lon="14.0249534551856"><ele>220.0</ele><time>2026-03-29T08:30:15.999Z</time></trkpt><trkpt lat="42.55455038266152" lon="14.02475187843494"><ele>221.0</ele><time>2026-03-29T08:30:16.999Z</time></trkpt><trkpt lat="42.55451223307717" lon="14.024575497120555"><ele>222.0</ele><time>2026-03-29T08:30:17.999Z</time></trkpt><trkpt lat="42.55448667341247" lon="14.024421907219338"><ele>223.0</ele><time>2026-03-29T08:30:18.999Z</time></trkpt><trkpt lat="42.55445663771738" lon="14.024274380186942"><ele>224.0</ele><time>2026-03-29T08:30:19.999Z</time></trkpt><trkpt lat="42.55445078361686" lon="14.024134310510643"><ele>225.0</ele><time>2026-03-29T08:30:20.999Z</time></trkpt><trkpt lat="42.5544389270668" lon="14.02402289477063"><ele>226.0</ele><time>2026-03-29T08:30:21.999Z</time></trkpt><trkpt lat="42.55443043799732" lon="14.023914017408181"><ele>227.0</ele><time>2026-03-29T08:30:22.999Z</time></trkpt><trkpt lat="42.554450319505214" lon="14.023791058714158"><ele>228.0</ele><time>2026-03-29T08:30:23.999Z</time></trkpt><trkpt lat="42.55448704542809" lon="14.023657165745421"><ele>228.0</ele><time>2026-03-29T08:30:24.999Z</time></trkpt><trkpt lat="42.554536807566855" lon="14.023518327536864"><ele>228.0</ele><time>2026-03-29T08:30:25.999Z</time></trkpt><trkpt lat="42.55459910672345" lon="14.023385997088768"><ele>228.0</ele><time>2026-03-29T08:30:26.999Z</time></trkpt><trkpt lat="42.55468296371163" lon="14.023270833040694"><ele>228.0</ele><time>2026-03-29T08:30:27.999Z</time></trkpt><trkpt lat="42.554784264210056" lon="14.023134761525682"><ele>229.75</ele><time>2026-03-29T08:30:28.999Z</time></trkpt><trkpt lat="42.55488327279829" lon="14.023016989032907"><ele>231.5</ele><time>2026-03-29T08:30:29.999Z</time></trkpt><trkpt lat="42.554965796208684" lon="14.022891908854797"><ele>233.25</ele><time>2026-03-29T08:30:30.999Z</time></trkpt><trkpt lat="42.55501885489093" lon="14.02273194950077"><ele>235.0</ele><time>2026-03-29T08:30:31.999Z</time></trkpt><trkpt lat="42.55505899945758" lon="14.022556532660918"><ele>236.66666666666666</ele><time>2026-03-29T08:30:32.999Z</time></trkpt><trkpt lat="42.555073688096684" lon="14.022360175287094"><ele>238.33333333333331</ele><time>2026-03-29T08:30:33.999Z</time></trkpt><trkpt lat="42.5550645284165" lon="14.022148315111654"><ele>240.0</ele><time>2026-03-29T08:30:34.999Z</time></trkpt><trkpt lat="42.555059184834846" lon="14.02192761408014"><ele>240.0</ele><time>2026-03-29T08:30:35.999Z</time></trkpt><trkpt lat="42.55506002689472" lon="14.021706461612421"><ele>240.0</ele><time>2026-03-29T08:30:36.999Z</time></trkpt><trkpt lat="42.555079358857135" lon="14.021485584357015"><ele>240.0</ele><time>2026-03-29T08:30:37.999Z</time></trkpt><trkpt lat="42.55506583456367" lon="14.021252378228258"><ele>241.66666666666669</ele><time>2026-03-29T08:30:38.999Z</time></trkpt><trkpt lat="42.55508160881464" lon="14.02102995657044"><ele>243.33333333333334</ele><time>2026-03-29T08:30:39.999Z</time></trkpt><trkpt lat="42.55508024771193" lon="14.020809888131023"><ele>245.0</ele><time>2026-03-29T08:30:40.999Z</time></trkpt><trkpt lat="42.5550739478797" lon="14.020581172734625"><ele>246.5</ele><time>2026-03-29T08:30:41.999Z</time></trkpt><trkpt lat="42.55506788077068" lon="14.020372485006078"><ele>248.0</ele><time>2026-03-29T08:30:42.999Z</time></trkpt><trkpt lat="42.5550682118203" lon="14.020177933659635"><ele>249.5</ele><time>2026-03-29T08:30:43.999Z</time></trkpt><trkpt lat="42.55507573792286" lon="14.019998620713615"><ele>251.0</ele><time>2026-03-29T08:30:44.999Z</time></trkpt><trkpt lat="42.5551015992327" lon="14.019838212453518"><ele>252.25</ele><time>2026-03-29T08:30:45.999Z</time></trkpt><trkpt lat="42.555154937895075" lon="14.019690741889786"><ele>253.5</ele><time>2026-03-29T08:30:46.999Z</time></trkpt><trkpt lat="42.555225888150645" lon="14.019556380423662"><ele>254.75</ele><time>2026-03-29T08:30:47.999Z</time></trkpt><trkpt lat="42.55532383227832" lon="14.019431105752295"><ele>256.0</ele><time>2026-03-29T08:30:48.999Z</time></trkpt><trkpt lat="42.555411303944084" lon="14.019296958060142"><ele>254.5</ele><time>2026-03-29T08:30:49.999Z</time></trkpt><trkpt lat="42.5554872557822" lon="14.019139539332265"><ele>253.0</ele><time>2026-03-29T08:30:50.999Z</time></trkpt><trkpt lat="42.55555624623065" lon="14.018979887099217"><ele>251.5</ele><time>2026-03-29T08:30:51.999Z</time></trkpt><trkpt lat="42.55560524530551" lon="14.018824059098316"><ele>250.0</ele><time>2026-03-29T08:30:52.999Z</time></trkpt><trkpt lat="42.55563779834906" lon="14.0186365788519"><ele>250.0</ele><time>2026-03-29T08:30:53.999Z</time></trkpt><trkpt lat="42.55565267749102" lon="14.018433699913437"><ele>250.0</ele><time>2026-03-29T08:30:54.999Z</time></trkpt><trkpt lat="42.555678656318925" lon="14.018228495934029"><ele>250.0</ele><time>2026-03-29T08:30:55.999Z</time></trkpt><trkpt lat="42.55568795291597" lon="14.018012294745589"><ele>252.0</ele><time>2026-03-29T08:30:56.999Z</time></trkpt><trkpt lat="42.555693493117616" lon="14.017814461068147"><ele>254.0</ele><time>2026-03-29T08:30:57.999Z</time></trkpt><trkpt lat="42.55570643321564" lon="14.017639651225364"><ele>256.0</ele><time>2026-03-29T08:30:58.999Z</time></trkpt><trkpt lat="42.55573186173365" lon="14.017465395092522"><ele>258.0</ele><time>2026-03-29T08:30:59.999Z</time></trkpt><trkpt lat="42.555781609855806" lon="14.017291420035932"><ele>260.3333333333333</ele><time>2026-03-29T08:31:00.999Z</time></trkpt><trkpt lat="42.55584915778738" lon="14.01711002442255"><ele>262.66666666666663</ele><time>2026-03-29T08:31:01.999Z</time></trkpt><trkpt lat="42.55592091780395" lon="14.016923147633493"><ele>265.0</ele><time>2026-03-29T08:31:02.999Z</time></trkpt><trkpt lat="42.55597735441634" lon="14.016716000057336"><ele>267.0</ele><time>2026-03-29T08:31:03.999Z</time></trkpt><trkpt lat="42.55604414757294" lon="14.016510631846533"><ele>269.0</ele><time>2026-03-29T08:31:04.999Z</time></trkpt><trkpt lat="42.556088979711085" lon="14.016294113143518"><ele>271.0</ele><time>2026-03-29T08:31:05.999Z</time></trkpt><trkpt lat="42.556134291753914" lon="14.016072895525989"><ele>271.0</ele><time>2026-03-29T08:31:06.999Z</time></trkpt><trkpt lat="42.556174842506515" lon="14.015840736874694"><ele>271.0</ele><time>2026-03-29T08:31:07.999Z</time></trkpt><trkpt lat="42.556211986930286" lon="14.015603222886506"><ele>271.0</ele><time>2026-03-29T08:31:08.999Z</time></trkpt><trkpt lat="42.55625000278784" lon="14.015364854460469"><ele>270.3333333333333</ele><time>2026-03-29T08:31:09.999Z</time></trkpt><trkpt lat="42.556309385537446" lon="14.015129433968955"><ele>269.6666666666667</ele><time>2026-03-29T08:31:10.999Z</time></trkpt><trkpt lat="42.55635412489339" lon="14.0149032270811"><ele>269.0</ele><time>2026-03-29T08:31:11.998Z</time></trkpt><trkpt lat="42.55640183872684" lon="14.01466438142687"><ele>269.0</ele><time>2026-03-29T08:31:12.998Z</time></trkpt><trkpt lat="42.55644813792868" lon="14.014432617060786"><ele>269.0</ele><time>2026-03-29T08:31:13.998Z</time></trkpt><trkpt lat="42.55648134692671" lon="14.014181729912924"><ele>269.0</ele><time>2026-03-29T08:31:14.998Z</time></trkpt><trkpt lat="42.55654814267251" lon="14.013939270370324"><ele>270.33333333333337</ele><time>2026-03-29T08:31:15.998Z</time></trkpt><trkpt lat="42.55659746244393" lon="14.013701292090571"><ele>271.6666666666667</ele><time>2026-03-29T08:31:16.998Z</time></trkpt><trkpt lat="42.55664211076447" lon="14.01349563423618"><ele>273.0</ele><time>2026-03-29T08:31:17.998Z</time></trkpt><trkpt lat="42.556684942338855" lon="14.013302555413853"><ele>273.0</ele><time>2026-03-29T08:31:18.998Z</time></trkpt><trkpt lat="42.5567074627474" lon="14.013126320469762"><ele>273.0</ele><time>2026-03-29T08:31:19.998Z</time></trkpt><trkpt lat="42.55672417095109" lon="14.012972586106587"><ele>273.0</ele><time>2026-03-29T08:31:20.998Z</time></trkpt><trkpt lat="42.55670835444787" lon="14.012824114592936"><ele>273.0</ele><time>2026-03-29T08:31:21.998Z</time></trkpt><trkpt lat="42.55665279965879" lon="14.012689522586427"><ele>273.0</ele><time>2026-03-29T08:31:22.998Z</time></trkpt><trkpt lat="42.55656181419825" lon="14.012570064324605"><ele>273.0</ele><time>2026-03-29T08:31:23.998Z</time></trkpt><trkpt lat="42.55644560463013" lon="14.012473912965826"><ele>273.0</ele><time>2026-03-29T08:31:24.998Z</time></trkpt><trkpt lat="42.55631227785627" lon="14.012388175546551"><ele>273.0</ele><time>2026-03-29T08:31:25.998Z</time></trkpt><trkpt lat="42.55617677602821" lon="14.01229985047876"><ele>275.6666666666667</ele><time>2026-03-29T08:31:26.998Z</time></trkpt><trkpt lat="42.5560343431893" lon="14.012213703328872"><ele>278.33333333333337</ele><time>2026-03-29T08:31:27.998Z</time></trkpt><trkpt lat="42.55588967782811" lon="14.012117099190842"><ele>281.0</ele><time>2026-03-29T08:31:28.998Z</time></trkpt><trkpt lat="42.555762484604685" lon="14.01201046375237"><ele>281.0</ele><time>2026-03-29T08:31:29.998Z</time></trkpt><trkpt lat="42.555653001038024" lon="14.011922415629508"><ele>281.0</ele><time>2026-03-29T08:31:30.998Z</time></trkpt><trkpt lat="42.555548988535776" lon="14.0118392695113"><ele>281.0</ele><time>2026-03-29T08:31:31.998Z</time></trkpt><trkpt lat="42.555460057571985" lon="14.011771784275625"><ele>281.0</ele><time>2026-03-29T08:31:32.998Z</time></trkpt><trkpt lat="42.55537015933598" lon="14.011731953715628"><ele>281.0</ele><time>2026-03-29T08:31:33.998Z</time></trkpt><trkpt lat="42.55527914935776" lon="14.011724717271303"><ele>285.40000000000003</ele><time>2026-03-29T08:31:34.998Z</time></trkpt><trkpt lat="42.55519938294783" lon="14.011768507085733"><ele>289.8</ele><time>2026-03-29T08:31:35.998Z</time></trkpt><trkpt lat="42.55513360034231" lon="14.01184674910109"><ele>294.20000000000005</ele><time>2026-03-29T08:31:36.998Z</time></trkpt><trkpt lat="42.555094642085095" lon="14.01196241447472"><ele>298.6</ele><time>2026-03-29T08:31:37.998Z</time></trkpt><trkpt lat="42.55508962952013" lon="14.012119484157884"><ele>303.0</ele><time>2026-03-29T08:31:38.998Z</time></trkpt><trkpt lat="42.55510815968495" lon="14.012287595720048"><ele>303.0</ele><time>2026-03-29T08:31:39.998Z</time></trkpt><trkpt lat="42.55513233251173" lon="14.012464802032568"><ele>303.0</ele><time>2026-03-29T08:31:40.998Z</time></trkpt><trkpt lat="42.55514623908076" lon="14.012650313348766"><ele>303.0</ele><time>2026-03-29T08:31:41.998Z</time></trkpt><trkpt lat="42.55515478540714" lon="14.012848937178221"><ele>303.0</ele><time>2026-03-29T08:31:42.998Z</time></trkpt><trkpt lat="42.555171177794186" lon="14.013052813997387"><ele>304.5</ele><time>2026-03-29T08:31:43.998Z</time></trkpt><trkpt lat="42.555190481792806" lon="14.013254422395324"><ele>306.0</ele><time>2026-03-29T08:31:44.998Z</time></trkpt><trkpt lat="42.55520897416572" lon="14.01343148179387"><ele>307.5</ele><time>2026-03-29T08:31:45.998Z</time></trkpt><trkpt lat="42.55521672145022" lon="14.013591658730945"><ele>309.0</ele><time>2026-03-29T08:31:46.998Z</time></trkpt><trkpt lat="42.55518954710426" lon="14.013731565069385"><ele>309.5</ele><time>2026-03-29T08:31:48Z</time></trkpt><trkpt lat="42.5551248832535" lon="14.013837621144422"><ele>310.0</ele><time>2026-03-29T08:31:49Z</time></trkpt><trkpt lat="42.55503302987136" lon="14.013913421042048"><ele>310.5</ele><time>2026-03-29T08:31:50Z</time></trkpt><trkpt lat="42.55492305234749" lon="14.013980161156718"><ele>311.0</ele><time>2026-03-29T08:31:51Z</time></trkpt><trkpt lat="42.55480655148312" lon="14.014062171492245"><ele>309.5</ele><time>2026-03-29T08:31:52Z</time></trkpt><trkpt lat="42.554690513848094" lon="14.014156789742856"><ele>308.0</ele><time>2026-03-29T08:31:53Z</time></trkpt><trkpt lat="42.55457164528726" lon="14.014256222610719"><ele>306.5</ele><time>2026-03-29T08:31:54Z</time></trkpt><trkpt lat="42.554446138274" lon="14.01435353891085"><ele>305.0</ele><time>2026-03-29T08:31:55Z</time></trkpt><trkpt lat="42.55432826084511" lon="14.014437539985668"><ele>308.2</ele><time>2026-03-29T08:31:56Z</time></trkpt><trkpt lat="42.55422377493043" lon="14.014511427650726"><ele>311.4</ele><time>2026-03-29T08:31:57Z</time></trkpt><trkpt lat="42.55411679870937" lon="14.014558125957658"><ele>314.6</ele><time>2026-03-29T08:31:58Z</time></trkpt><trkpt lat="42.55401052420515" lon="14.014546919358287"><ele>317.8</ele><time>2026-03-29T08:31:59Z</time></trkpt><trkpt lat="42.55392856354841" lon="14.014484481502185"><ele>321.0</ele><time>2026-03-29T08:32:00Z</time></trkpt><trkpt lat="42.553893259255474" lon="14.014371316027411"><ele>321.0</ele><time>2026-03-29T08:32:01Z</time></trkpt><trkpt lat="42.55387062952106" lon="14.01425519590937"><ele>321.0</ele><time>2026-03-29T08:32:02Z</time></trkpt><trkpt lat="42.553842612592156" lon="14.014113744294173"><ele>321.0</ele><time>2026-03-29T08:32:03Z</time></trkpt><trkpt lat="42.55380686089117" lon="14.013944916536495"><ele>321.0</ele><time>2026-03-29T08:32:04Z</time></trkpt><trkpt lat="42.55378058393631" lon="14.013772858884286"><ele>322.6666666666667</ele><time>2026-03-29T08:32:05Z</time></trkpt><trkpt lat="42.55374001952356" lon="14.013577394676227"><ele>324.33333333333337</ele><time>2026-03-29T08:32:06Z</time></trkpt><trkpt lat="42.553708062350275" lon="14.013363585023038"><ele>326.0</ele><time>2026-03-29T08:32:07Z</time></trkpt><trkpt lat="42.553672177930416" lon="14.013171506136656"><ele>326.0</ele><time>2026-03-29T08:32:08Z</time></trkpt><trkpt lat="42.553633738335456" lon="14.012965750194011"><ele>326.0</ele><time>2026-03-29T08:32:09Z</time></trkpt><trkpt lat="42.5535977825017" lon="14.012769193744866"><ele>326.0</ele><time>2026-03-29T08:32:10Z</time></trkpt><trkpt lat="42.55354546261999" lon="14.012569093270658"><ele>328.25</ele><time>2026-03-29T08:32:11Z</time></trkpt><trkpt lat="42.553510192142134" lon="14.012370046380083"><ele>330.5</ele><time>2026-03-29T08:32:12Z</time></trkpt><trkpt lat="42.553472996382254" lon="14.012175157480467"><ele>332.75</ele><time>2026-03-29T08:32:13Z</time></trkpt><trkpt lat="42.553436379832895" lon="14.011993900863033"><ele>335.0</ele><time>2026-03-29T08:32:14Z</time></trkpt><trkpt lat="42.55339846218764" lon="14.011800199449432"><ele>336.75</ele><time>2026-03-29T08:32:15Z</time></trkpt><trkpt lat="42.55334549580132" lon="14.011610731810745"><ele>338.5</ele><time>2026-03-29T08:32:16Z</time></trkpt><trkpt lat="42.55330118559694" lon="14.01142014941054"><ele>340.25</ele><time>2026-03-29T08:32:17Z</time></trkpt><trkpt lat="42.553257921192305" lon="14.011228809804646"><ele>342.0</ele><time>2026-03-29T08:32:18Z</time></trkpt><trkpt lat="42.553211362198404" lon="14.011037257567466"><ele>342.0</ele><time>2026-03-29T08:32:19Z</time></trkpt><trkpt lat="42.55315781870044" lon="14.010870302945937"><ele>342.0</ele><time>2026-03-29T08:32:20Z</time></trkpt><trkpt lat="42.55309547640947" lon="14.010745799177862"><ele>342.0</ele><time>2026-03-29T08:32:21Z</time></trkpt><trkpt lat="42.55300818495513" lon="14.010658008707681"><ele>342.0</ele><time>2026-03-29T08:32:22Z</time></trkpt><trkpt lat="42.55289916617426" lon="14.010599323495166"><ele>344.75</ele><time>2026-03-29T08:32:23Z</time></trkpt><trkpt lat="42.55276871909915" lon="14.010548083335307"><ele>347.5</ele><time>2026-03-29T08:32:24Z</time></trkpt><trkpt lat="42.552632338416565" lon="14.01048951428391"><ele>350.25</ele><time>2026-03-29T08:32:25Z</time></trkpt><trkpt lat="42.55249021588211" lon="14.01042324589428"><ele>353.0</ele><time>2026-03-29T08:32:25.999Z</time></trkpt><trkpt lat="42.55234492115073" lon="14.010364613032985"><ele>353.0</ele><time>2026-03-29T08:32:26.999Z</time></trkpt><trkpt lat="42.55222660694" lon="14.010304655574352"><ele>353.0</ele><time>2026-03-29T08:32:27.999Z</time></trkpt><trkpt lat="42.55212382052216" lon="14.010247115620519"><ele>353.0</ele><time>2026-03-29T08:32:28.999Z</time></trkpt><trkpt lat="42.55203900826403" lon="14.010170715785224"><ele>353.0</ele><time>2026-03-29T08:32:29.999Z</time></trkpt><trkpt lat="42.55195025281147" lon="14.010107182035101"><ele>353.0</ele><time>2026-03-29T08:32:30.999Z</time></trkpt><trkpt lat="42.551888282874145" lon="14.009990307522878"><ele>354.75</ele><time>2026-03-29T08:32:31.999Z</time></trkpt><trkpt lat="42.55186601358092" lon="14.00984393111833"><ele>356.5</ele><time>2026-03-29T08:32:32.999Z</time></trkpt><trkpt lat="42.551853595686225" lon="14.009679323902816"><ele>358.25</ele><time>2026-03-29T08:32:33.999Z</time></trkpt><trkpt lat="42.551833932507485" lon="14.00949581954852"><ele>360.0</ele><time>2026-03-29T08:32:34.999Z</time></trkpt><trkpt lat="42.55183171733277" lon="14.00929418528189"><ele>361.0</ele><time>2026-03-29T08:32:35.999Z</time></trkpt><trkpt lat="42.55182460336637" lon="14.009078767171754"><ele>362.0</ele><time>2026-03-29T08:32:36.999Z</time></trkpt><trkpt lat="42.551821587320845" lon="14.00885936551797"><ele>363.0</ele><time>2026-03-29T08:32:37.999Z</time></trkpt><trkpt lat="42.5518157085294" lon="14.008624815922616"><ele>363.0</ele><time>2026-03-29T08:32:38.999Z</time></trkpt><trkpt lat="42.55181243511909" lon="14.008378710264449"><ele>363.0</ele><time>2026-03-29T08:32:39.999Z</time></trkpt><trkpt lat="42.551800979336534" lon="14.00815695116008"><ele>363.0</ele><time>2026-03-29T08:32:40.999Z</time></trkpt><trkpt lat="42.55179778643893" lon="14.007933313115561"><ele>363.3333333333333</ele><time>2026-03-29T08:32:41.999Z</time></trkpt><trkpt lat="42.551803377477114" lon="14.007693244029245"><ele>363.66666666666663</ele><time>2026-03-29T08:32:42.999Z</time></trkpt><trkpt lat="42.55180994477357" lon="14.007452702483771"><ele>364.0</ele><time>2026-03-29T08:32:43.999Z</time></trkpt><trkpt lat="42.551823565524025" lon="14.007205391213109"><ele>365.3333333333333</ele><time>2026-03-29T08:32:44.999Z</time></trkpt><trkpt lat="42.55183728711354" lon="14.00693701686802"><ele>366.6666666666667</ele><time>2026-03-29T08:32:45.999Z</time></trkpt><trkpt lat="42.55185140453475" lon="14.006665060505771"><ele>368.0</ele><time>2026-03-29T08:32:46.999Z</time></trkpt><trkpt lat="42.55186104193499" lon="14.006423160107596"><ele>368.6666666666667</ele><time>2026-03-29T08:32:47.999Z</time></trkpt><trkpt lat="42.551869391622965" lon="14.006196737702329"><ele>369.3333333333333</ele><time>2026-03-29T08:32:48.999Z</time></trkpt><trkpt lat="42.551893029416505" lon="14.005966076699236"><ele>370.0</ele><time>2026-03-29T08:32:49.999Z</time></trkpt><trkpt lat="42.55190356484905" lon="14.005727235831191"><ele>370.3333333333333</ele><time>2026-03-29T08:32:50.999Z</time></trkpt><trkpt lat="42.55191420674628" lon="14.00548597955284"><ele>370.6666666666667</ele><time>2026-03-29T08:32:51.999Z</time></trkpt><trkpt lat="42.55192561085889" lon="14.00524543128614"><ele>371.0</ele><time>2026-03-29T08:32:52.999Z</time></trkpt><trkpt lat="42.551922048744984" lon="14.005007230337073"><ele>371.0</ele><time>2026-03-29T08:32:53.999Z</time></trkpt><trkpt lat="42.55195474417678" lon="14.004770461115658"><ele>371.0</ele><time>2026-03-29T08:32:54.999Z</time></trkpt><trkpt lat="42.5519755110318" lon="14.004534882229738"><ele>371.0</ele><time>2026-03-29T08:32:55.999Z</time></trkpt><trkpt lat="42.552005349516456" lon="14.00429346982077"><ele>371.0</ele><time>2026-03-29T08:32:56.999Z</time></trkpt><trkpt lat="42.55203994133983" lon="14.004041102236746"><ele>371.0</ele><time>2026-03-29T08:32:57.999Z</time></trkpt><trkpt lat="42.552075355661515" lon="14.003777658224799"><ele>371.0</ele><time>2026-03-29T08:32:58.999Z</time></trkpt><trkpt lat="42.552111115565765" lon="14.00351932865809"><ele>375.6666666666667</ele><time>2026-03-29T08:32:59.999Z</time></trkpt><trkpt lat="42.55214759539609" lon="14.003253802069807"><ele>380.33333333333337</ele><time>2026-03-29T08:33:00.999Z</time></trkpt><trkpt lat="42.552175461241916" lon="14.003011087693489"><ele>385.0</ele><time>2026-03-29T08:33:01.999Z</time></trkpt><trkpt lat="42.55219836570988" lon="14.00278762842257"><ele>385.0</ele><time>2026-03-29T08:33:02.999Z</time></trkpt><trkpt lat="42.55221753644921" lon="14.00257458021971"><ele>385.0</ele><time>2026-03-29T08:33:03.999Z</time></trkpt><trkpt lat="42.552217370381356" lon="14.002374564118705"><ele>385.0</ele><time>2026-03-29T08:33:04.999Z</time></trkpt><trkpt lat="42.55225485664748" lon="14.002192230977576"><ele>385.0</ele><time>2026-03-29T08:33:05.999Z</time></trkpt><trkpt lat="42.552281092522335" lon="14.002016896502916"><ele>384.0</ele><time>2026-03-29T08:33:06.999Z</time></trkpt><trkpt lat="42.55232459354765" lon="14.001864208924223"><ele>383.0</ele><time>2026-03-29T08:33:07.999Z</time></trkpt><trkpt lat="42.55238179794625" lon="14.001736843198698"><ele>382.0</ele><time>2026-03-29T08:33:08.999Z</time></trkpt><trkpt lat="42.55245868384219" lon="14.001646209697524"><ele>381.0</ele><time>2026-03-29T08:33:09.999Z</time></trkpt><trkpt lat="42.552553440606026" lon="14.001527996961816"><ele>380.25</ele><time>2026-03-29T08:33:10.999Z</time></trkpt><trkpt lat="42.552657454655744" lon="14.001398269948554"><ele>379.5</ele><time>2026-03-29T08:33:11.999Z</time></trkpt><trkpt lat="42.55276356832815" lon="14.001256916169474"><ele>378.75</ele><time>2026-03-29T08:33:12.999Z</time></trkpt><trkpt lat="42.55285586061698" lon="14.001127190181624"><ele>378.0</ele><time>2026-03-29T08:33:13.999Z</time></trkpt><trkpt lat="42.55293989473189" lon="14.001013088300924"><ele>377.75</ele><time>2026-03-29T08:33:14.999Z</time></trkpt><trkpt lat="42.55303126942497" lon="14.000892299392408"><ele>377.5</ele><time>2026-03-29T08:33:15.999Z</time></trkpt><trkpt lat="42.55312032581989" lon="14.000770424303326"><ele>377.25</ele><time>2026-03-29T08:33:16.999Z</time></trkpt><trkpt lat="42.55317594788951" lon="14.000594646613527"><ele>377.0</ele><time>2026-03-29T08:33:17.999Z</time></trkpt><trkpt lat="42.553280470525195" lon="14.000456109641508"><ele>378.0</ele><time>2026-03-29T08:33:18.999Z</time></trkpt><trkpt lat="42.5534098513557" lon="14.000310789490065"><ele>379.0</ele><time>2026-03-29T08:33:19.999Z</time></trkpt><trkpt lat="42.553519686090205" lon="14.000145875000563"><ele>380.0</ele><time>2026-03-29T08:33:20.999Z</time></trkpt><trkpt lat="42.55362880906596" lon="14.000009507341293"><ele>374.33333333333337</ele><time>2026-03-29T08:33:21.999Z</time></trkpt><trkpt lat="42.553718141459655" lon="13.999851183269918"><ele>368.6666666666667</ele><time>2026-03-29T08:33:22.999Z</time></trkpt><trkpt lat="42.553792828550485" lon="13.99967003862366"><ele>363.0</ele><time>2026-03-29T08:33:23.998Z</time></trkpt><trkpt lat="42.55389737616136" lon="13.999498030694804"><ele>363.0</ele><time>2026-03-29T08:33:24.998Z</time></trkpt><trkpt lat="42.553989125462635" lon="13.999315414125332"><ele>363.0</ele><time>2026-03-29T08:33:25.998Z</time></trkpt><trkpt lat="42.55407803031154" lon="13.999140889597042"><ele>363.0</ele><time>2026-03-29T08:33:26.998Z</time></trkpt><trkpt lat="42.55417593925344" lon="13.998971486485518"><ele>365.3333333333333</ele><time>2026-03-29T08:33:27.998Z</time></trkpt><trkpt lat="42.5542811319454" lon="13.998807141775398"><ele>367.66666666666663</ele><time>2026-03-29T08:33:28.998Z</time></trkpt><trkpt lat="42.55437200455507" lon="13.99863842097477"><ele>370.0</ele><time>2026-03-29T08:33:29.998Z</time></trkpt><trkpt lat="42.554477944960524" lon="13.998502403594737"><ele>365.3333333333333</ele><time>2026-03-29T08:33:30.998Z</time></trkpt><trkpt lat="42.554595646813354" lon="13.99836143949445"><ele>360.6666666666667</ele><time>2026-03-29T08:33:31.998Z</time></trkpt><trkpt lat="42.55471415208462" lon="13.998221183770811"><ele>356.0</ele><time>2026-03-29T08:33:32.998Z</time></trkpt><trkpt lat="42.55484058046087" lon="13.998081258376741"><ele>356.0</ele><time>2026-03-29T08:33:33.998Z</time></trkpt><trkpt lat="42.55497185715542" lon="13.997964657464577"><ele>356.0</ele><time>2026-03-29T08:33:34.998Z</time></trkpt><trkpt lat="42.55507989717272" lon="13.997825708590515"><ele>356.0</ele><time>2026-03-29T08:33:35.998Z</time></trkpt><trkpt lat="42.5551961089861" lon="13.99770584872547"><ele>356.0</ele><time>2026-03-29T08:33:36.998Z</time></trkpt><trkpt lat="42.5553089396566" lon="13.997586654283326"><ele>356.0</ele><time>2026-03-29T08:33:37.998Z</time></trkpt><trkpt lat="42.555434674540635" lon="13.997499052991602"><ele>356.0</ele><time>2026-03-29T08:33:38.998Z</time></trkpt><trkpt lat="42.555568793296715" lon="13.997404873324651"><ele>356.0</ele><time>2026-03-29T08:33:39.998Z</time></trkpt><trkpt lat="42.55569563139099" lon="13.997316246039642"><ele>354.5</ele><time>2026-03-29T08:33:40.998Z</time></trkpt><trkpt lat="42.55581561929841" lon="13.997232971321916"><ele>353.0</ele><time>2026-03-29T08:33:41.998Z</time></trkpt><trkpt lat="42.55592947679855" lon="13.997156008959754"><ele>351.5</ele><time>2026-03-29T08:33:42.998Z</time></trkpt><trkpt lat="42.55603751672496" lon="13.997068315121114"><ele>350.0</ele><time>2026-03-29T08:33:43.998Z</time></trkpt><trkpt lat="42.55615784997653" lon="13.997014026611073"><ele>350.0</ele><time>2026-03-29T08:33:44.998Z</time></trkpt><trkpt lat="42.556272874245884" lon="13.996938166121122"><ele>350.0</ele><time>2026-03-29T08:33:45.998Z</time></trkpt><trkpt lat="42.55637824712621" lon="13.996838371706252"><ele>350.0</ele><time>2026-03-29T08:33:46.998Z</time></trkpt><trkpt lat="42.55647841579551" lon="13.996746183834723"><ele>350.0</ele><time>2026-03-29T08:33:47.998Z</time></trkpt><trkpt lat="42.55657323871374" lon="13.996621697681425"><ele>350.0</ele><time>2026-03-29T08:33:48.998Z</time></trkpt><trkpt lat="42.55666226304525" lon="13.996479097023538"><ele>350.0</ele><time>2026-03-29T08:33:49.998Z</time></trkpt><trkpt lat="42.55674526370538" lon="13.996317131004803"><ele>350.0</ele><time>2026-03-29T08:33:50.998Z</time></trkpt><trkpt lat="42.55682575218603" lon="13.99615025321211"><ele>350.0</ele><time>2026-03-29T08:33:51.998Z</time></trkpt><trkpt lat="42.55690712877054" lon="13.99598483319643"><ele>350.75</ele><time>2026-03-29T08:33:53Z</time></trkpt><trkpt lat="42.5569768570685" lon="13.995836563440918"><ele>351.5</ele><time>2026-03-29T08:33:54Z</time></trkpt><trkpt lat="42.5570729352975" lon="13.995696162143835"><ele>352.25</ele><time>2026-03-29T08:33:55Z</time></trkpt><trkpt lat="42.55715231935008" lon="13.995544116983739"><ele>353.0</ele><time>2026-03-29T08:33:56Z</time></trkpt><trkpt lat="42.557222177352216" lon="13.995391004803396"><ele>353.0</ele><time>2026-03-29T08:33:57Z</time></trkpt><trkpt lat="42.55727216875234" lon="13.99522326432278"><ele>353.0</ele><time>2026-03-29T08:33:58Z</time></trkpt><trkpt lat="42.55733118957141" lon="13.99506828880028"><ele>353.0</ele><time>2026-03-29T08:33:59Z</time></trkpt><trkpt lat="42.55737427807151" lon="13.99492151172116"><ele>353.0</ele><time>2026-03-29T08:34:00Z</time></trkpt><trkpt lat="42.557426904134324" lon="13.994809321738826"><ele>353.0</ele><time>2026-03-29T08:34:01Z</time></trkpt><trkpt lat="42.55746713938384" lon="13.994694283156237"><ele>353.0</ele><time>2026-03-29T08:34:02Z</time></trkpt><trkpt lat="42.55750434992857" lon="13.994588845300543"><ele>353.0</ele><time>2026-03-29T08:34:03Z</time></trkpt><trkpt lat="42.557541481762996" lon="13.99448694940971"><ele>353.0</ele><time>2026-03-29T08:34:04Z</time></trkpt><trkpt lat="42.55756664468247" lon="13.994391128990106"><ele>353.0</ele><time>2026-03-29T08:34:05Z</time></trkpt><trkpt lat="42.55761619561283" lon="13.994311408934477"><ele>353.0</ele><time>2026-03-29T08:34:06Z</time></trkpt><trkpt lat="42.557682301602526" lon="13.994220791174644"><ele>353.0</ele><time>2026-03-29T08:34:07Z</time></trkpt><trkpt lat="42.5577855753239" lon="13.99418214988246"><ele>353.0</ele><time>2026-03-29T08:34:08Z</time></trkpt><trkpt lat="42.55788542532883" lon="13.994119816063487"><ele>353.0</ele><time>2026-03-29T08:34:09Z</time></trkpt><trkpt lat="42.55798288371902" lon="13.994039250912525"><ele>353.0</ele><time>2026-03-29T08:34:10Z</time></trkpt><trkpt lat="42.55808542117017" lon="13.993981812820735"><ele>353.0</ele><time>2026-03-29T08:34:11Z</time></trkpt><trkpt lat="42.55818465782839" lon="13.993922384655226"><ele>355.0</ele><time>2026-03-29T08:34:12Z</time></trkpt><trkpt lat="42.55828979084225" lon="13.993854030558118"><ele>357.0</ele><time>2026-03-29T08:34:13Z</time></trkpt><trkpt lat="42.558404915257654" lon="13.993812457643637"><ele>359.0</ele><time>2026-03-29T08:34:14Z</time></trkpt><trkpt lat="42.55850865084764" lon="13.993761406184829"><ele>361.0</ele><time>2026-03-29T08:34:15Z</time></trkpt><trkpt lat="42.5585928242911" lon="13.993727288905266"><ele>363.0</ele><time>2026-03-29T08:34:16Z</time></trkpt><trkpt lat="42.558667207871096" lon="13.993698813615612"><ele>364.79999999999995</ele><time>2026-03-29T08:34:17Z</time></trkpt><trkpt lat="42.55874405998271" lon="13.99376672842532"><ele>366.6</ele><time>2026-03-29T08:34:18Z</time></trkpt><trkpt lat="42.55884347097662" lon="13.993829109188189"><ele>368.4</ele><time>2026-03-29T08:34:19Z</time></trkpt><trkpt lat="42.558938335223736" lon="13.993927168744161"><ele>370.20000000000005</ele><time>2026-03-29T08:34:20Z</time></trkpt><trkpt lat="42.55903725754815" lon="13.994031260022226"><ele>372.0</ele><time>2026-03-29T08:34:21Z</time></trkpt><trkpt lat="42.55914719058214" lon="13.994139321890135"><ele>373.5</ele><time>2026-03-29T08:34:22Z</time></trkpt><trkpt lat="42.559261123765054" lon="13.99425101843211"><ele>375.0</ele><time>2026-03-29T08:34:23Z</time></trkpt><trkpt lat="42.55937894004875" lon="13.99437510120948"><ele>376.5</ele><time>2026-03-29T08:34:24Z</time></trkpt><trkpt lat="42.55949892767637" lon="13.994504922645447"><ele>378.0</ele><time>2026-03-29T08:34:25Z</time></trkpt><trkpt lat="42.5596267005404" lon="13.994630930766457"><ele>378.0</ele><time>2026-03-29T08:34:26Z</time></trkpt><trkpt lat="42.55976017190861" lon="13.99477345889733"><ele>378.0</ele><time>2026-03-29T08:34:27Z</time></trkpt><trkpt lat="42.55989523029742" lon="13.994920975182387"><ele>378.0</ele><time>2026-03-29T08:34:28Z</time></trkpt><trkpt lat="42.56002225641873" lon="13.995056785602475"><ele>377.75</ele><time>2026-03-29T08:34:29Z</time></trkpt><trkpt lat="42.56013619410699" lon="13.995185628927677"><ele>377.5</ele><time>2026-03-29T08:34:30Z</time></trkpt><trkpt lat="42.56024457309912" lon="13.995306382900747"><ele>377.25</ele><time>2026-03-29T08:34:31Z</time></trkpt><trkpt lat="42.560350940471146" lon="13.995415001136315"><ele>377.0</ele><time>2026-03-29T08:34:32Z</time></trkpt><trkpt lat="42.560451673172764" lon="13.995517170145519"><ele>377.0</ele><time>2026-03-29T08:34:33Z</time></trkpt><trkpt lat="42.56054243390393" lon="13.995617657661379"><ele>377.0</ele><time>2026-03-29T08:34:34Z</time></trkpt><trkpt lat="42.560635977031176" lon="13.995721405926762"><ele>377.0</ele><time>2026-03-29T08:34:34.999Z</time></trkpt><trkpt lat="42.56072454864494" lon="13.9958152631703"><ele>377.0</ele><time>2026-03-29T08:34:35.999Z</time></trkpt><trkpt lat="42.56081452939416" lon="13.995886131382193"><ele>377.0</ele><time>2026-03-29T08:34:36.999Z</time></trkpt><trkpt lat="42.560912096023905" lon="13.995916953073023"><ele>377.0</ele><time>2026-03-29T08:34:37.999Z</time></trkpt><trkpt lat="42.56101991234645" lon="13.99589288628993"><ele>377.0</ele><time>2026-03-29T08:34:38.999Z</time></trkpt><trkpt lat="42.56111303730688" lon="13.995827425818517"><ele>377.0</ele><time>2026-03-29T08:34:39.999Z</time></trkpt><trkpt lat="42.56118816704754" lon="13.99572819637783"><ele>377.0</ele><time>2026-03-29T08:34:40.999Z</time></trkpt><trkpt lat="42.56123801033146" lon="13.995585192228424"><ele>375.0</ele><time>2026-03-29T08:34:41.999Z</time></trkpt><trkpt lat="42.56128016131382" lon="13.995417974495163"><ele>373.0</ele><time>2026-03-29T08:34:42.999Z</time></trkpt><trkpt lat="42.56134343771658" lon="13.995252214775718"><ele>371.0</ele><time>2026-03-29T08:34:43.999Z</time></trkpt><trkpt lat="42.56139858246508" lon="13.995078970127793"><ele>369.0</ele><time>2026-03-29T08:34:44.999Z</time></trkpt><trkpt lat="42.561457647299406" lon="13.994894461001625"><ele>368.6666666666667</ele><time>2026-03-29T08:34:45.999Z</time></trkpt><trkpt lat="42.561519543987146" lon="13.994701581454235"><ele>368.33333333333337</ele><time>2026-03-29T08:34:46.999Z</time></trkpt><trkpt lat="42.56158410364209" lon="13.99450206274857"><ele>368.0</ele><time>2026-03-29T08:34:47.999Z</time></trkpt><trkpt lat="42.5616418625843" lon="13.994304633212163"><ele>369.5</ele><time>2026-03-29T08:34:48.999Z</time></trkpt><trkpt lat="42.561705408437334" lon="13.994130056918031"><ele>371.0</ele><time>2026-03-29T08:34:49.999Z</time></trkpt><trkpt lat="42.561781414394865" lon="13.993958621793004"><ele>372.5</ele><time>2026-03-29T08:34:50.999Z</time></trkpt><trkpt lat="42.56185690093147" lon="13.993801103199123"><ele>374.0</ele><time>2026-03-29T08:34:51.999Z</time></trkpt><trkpt lat="42.56193064421876" lon="13.993644430108251"><ele>374.0</ele><time>2026-03-29T08:34:52.999Z</time></trkpt><trkpt lat="42.562001378212514" lon="13.993482797428129"><ele>374.0</ele><time>2026-03-29T08:34:53.999Z</time></trkpt><trkpt lat="42.562066622241055" lon="13.993302853215537"><ele>374.0</ele><time>2026-03-29T08:34:54.999Z</time></trkpt><trkpt lat="42.56212414310364" lon="13.993113258842714"><ele>374.0</ele><time>2026-03-29T08:34:55.999Z</time></trkpt><trkpt lat="42.56218539709744" lon="13.992937426820484"><ele>369.75</ele><time>2026-03-29T08:34:56.999Z</time></trkpt><trkpt lat="42.56221138732506" lon="13.99274529149456"><ele>365.5</ele><time>2026-03-29T08:34:57.999Z</time></trkpt><trkpt lat="42.56224168738822" lon="13.99254604781238"><ele>361.25</ele><time>2026-03-29T08:34:58.999Z</time></trkpt><trkpt lat="42.562259744168365" lon="13.992337307200032"><ele>357.0</ele><time>2026-03-29T08:34:59.999Z</time></trkpt><trkpt lat="42.562289549850554" lon="13.992136689459691"><ele>357.0</ele><time>2026-03-29T08:35:00.999Z</time></trkpt><trkpt lat="42.56230313980452" lon="13.99194636985296"><ele>357.0</ele><time>2026-03-29T08:35:01.999Z</time></trkpt><trkpt lat="42.5623112260882" lon="13.991779855902337"><ele>357.0</ele><time>2026-03-29T08:35:02.999Z</time></trkpt><trkpt lat="42.562319018853614" lon="13.991620846832413"><ele>357.0</ele><time>2026-03-29T08:35:03.999Z</time></trkpt><trkpt lat="42.56233535062269" lon="13.991440041466685"><ele>357.0</ele><time>2026-03-29T08:35:04.999Z</time></trkpt><trkpt lat="42.56236568262786" lon="13.991224008555532"><ele>357.0</ele><time>2026-03-29T08:35:05.999Z</time></trkpt><trkpt lat="42.5624175668361" lon="13.990976977729673"><ele>357.0</ele><time>2026-03-29T08:35:06.999Z</time></trkpt><trkpt lat="42.562468376702064" lon="13.990724427113522"><ele>357.0</ele><time>2026-03-29T08:35:07.999Z</time></trkpt><trkpt lat="42.56249293814195" lon="13.990474027449075"><ele>357.0</ele><time>2026-03-29T08:35:08.999Z</time></trkpt><trkpt lat="42.56253427474778" lon="13.990211406358418"><ele>357.0</ele><time>2026-03-29T08:35:09.999Z</time></trkpt><trkpt lat="42.56259602902448" lon="13.989949463998158"><ele>358.0</ele><time>2026-03-29T08:35:10.999Z</time></trkpt><trkpt lat="42.56264605323636" lon="13.98968617845441"><ele>359.0</ele><time>2026-03-29T08:35:11.999Z</time></trkpt><trkpt lat="42.56270063462941" lon="13.989459378904922"><ele>360.0</ele><time>2026-03-29T08:35:12.999Z</time></trkpt><trkpt lat="42.56274540612967" lon="13.989234245196144"><ele>362.3333333333333</ele><time>2026-03-29T08:35:13.999Z</time></trkpt><trkpt lat="42.56280232109104" lon="13.98903086305638"><ele>364.66666666666663</ele><time>2026-03-29T08:35:14.999Z</time></trkpt><trkpt lat="42.56284967706599" lon="13.988829282269501"><ele>367.0</ele><time>2026-03-29T08:35:15.999Z</time></trkpt><trkpt lat="42.562871190021916" lon="13.988599295495145"><ele>362.0</ele><time>2026-03-29T08:35:16.999Z</time></trkpt><trkpt lat="42.562867607301804" lon="13.988351262119851"><ele>357.0</ele><time>2026-03-29T08:35:17.999Z</time></trkpt><trkpt lat="42.562884788814614" lon="13.98811639971761"><ele>352.0</ele><time>2026-03-29T08:35:18.999Z</time></trkpt><trkpt lat="42.562895817782916" lon="13.987903329927464"><ele>352.0</ele><time>2026-03-29T08:35:19.999Z</time></trkpt><trkpt lat="42.56292871649672" lon="13.987697671360253"><ele>352.0</ele><time>2026-03-29T08:35:20.999Z</time></trkpt><trkpt lat="42.56300305749716" lon="13.987524853188326"><ele>352.0</ele><time>2026-03-29T08:35:21.999Z</time></trkpt><trkpt lat="42.56309425848036" lon="13.9873725848399"><ele>352.0</ele><time>2026-03-29T08:35:22.999Z</time></trkpt><trkpt lat="42.56321303976599" lon="13.987222573845642"><ele>353.66666666666663</ele><time>2026-03-29T08:35:23.999Z</time></trkpt><trkpt lat="42.56334857573786" lon="13.987060779862123"><ele>355.3333333333333</ele><time>2026-03-29T08:35:24.999Z</time></trkpt><trkpt lat="42.56348888564603" lon="13.986895821485973"><ele>357.0</ele><time>2026-03-29T08:35:25.999Z</time></trkpt><trkpt lat="42.56361360665232" lon="13.986743451098345"><ele>356.6666666666667</ele><time>2026-03-29T08:35:26.999Z</time></trkpt><trkpt lat="42.56371897692349" lon="13.986581787456803"><ele>356.33333333333337</ele><time>2026-03-29T08:35:27.999Z</time></trkpt><trkpt lat="42.56381598269062" lon="13.986436231244946"><ele>356.0</ele><time>2026-03-29T08:35:28.999Z</time></trkpt><trkpt lat="42.563898502890254" lon="13.986261457093866"><ele>356.0</ele><time>2026-03-29T08:35:29.999Z</time></trkpt><trkpt lat="42.563979485938106" lon="13.986050988979903"><ele>356.0</ele><time>2026-03-29T08:35:30.999Z</time></trkpt><trkpt lat="42.56407943457787" lon="13.985831390766895"><ele>356.0</ele><time>2026-03-29T08:35:31.999Z</time></trkpt><trkpt lat="42.56416778718011" lon="13.985599340000208"><ele>357.33333333333337</ele><time>2026-03-29T08:35:32.998Z</time></trkpt><trkpt lat="42.56425142106933" lon="13.985383129974483"><ele>358.6666666666667</ele><time>2026-03-29T08:35:33.998Z</time></trkpt><trkpt lat="42.56433236303549" lon="13.985177495792588"><ele>360.0</ele><time>2026-03-29T08:35:34.998Z</time></trkpt><trkpt lat="42.564408586388716" lon="13.984991880956361"><ele>361.3333333333333</ele><time>2026-03-29T08:35:35.998Z</time></trkpt><trkpt lat="42.56447816885513" lon="13.984815508827975"><ele>362.66666666666663</ele><time>2026-03-29T08:35:36.998Z</time></trkpt><trkpt lat="42.56454365811278" lon="13.984634233401254"><ele>364.0</ele><time>2026-03-29T08:35:37.998Z</time></trkpt><trkpt lat="42.56457697583188" lon="13.98442642022159"><ele>361.66666666666663</ele><time>2026-03-29T08:35:38.998Z</time></trkpt><trkpt lat="42.56460325683033" lon="13.98422174347551"><ele>359.3333333333333</ele><time>2026-03-29T08:35:39.998Z</time></trkpt><trkpt lat="42.564666560407744" lon="13.98404342409781"><ele>357.0</ele><time>2026-03-29T08:35:40.998Z</time></trkpt><trkpt lat="42.564752615692846" lon="13.983864199113592"><ele>357.0</ele><time>2026-03-29T08:35:41.998Z</time></trkpt><trkpt lat="42.56486437644442" lon="13.983684172586301"><ele>357.0</ele><time>2026-03-29T08:35:42.998Z</time></trkpt><trkpt lat="42.56498187663881" lon="13.98351600673183"><ele>357.0</ele><time>2026-03-29T08:35:43.998Z</time></trkpt><trkpt lat="42.56509013022498" lon="13.983365550191383"><ele>356.25</ele><time>2026-03-29T08:35:44.998Z</time></trkpt><trkpt lat="42.565191868103376" lon="13.983224305386955"><ele>355.5</ele><time>2026-03-29T08:35:45.998Z</time></trkpt><trkpt lat="42.56529782568385" lon="13.983080407384769"><ele>354.75</ele><time>2026-03-29T08:35:46.998Z</time></trkpt><trkpt lat="42.56539907280265" lon="13.98293048056206"><ele>354.0</ele><time>2026-03-29T08:35:47.998Z</time></trkpt><trkpt lat="42.56553719693356" lon="13.98282614852248"><ele>354.0</ele><time>2026-03-29T08:35:48.998Z</time></trkpt><trkpt lat="42.56565674723789" lon="13.9827281769595"><ele>354.0</ele><time>2026-03-29T08:35:49.998Z</time></trkpt><trkpt lat="42.56576672656564" lon="13.982629940010792"><ele>354.0</ele><time>2026-03-29T08:35:50.998Z</time></trkpt><trkpt lat="42.56587540150534" lon="13.982544935315731"><ele>354.0</ele><time>2026-03-29T08:35:51.998Z</time></trkpt><trkpt lat="42.565975722979616" lon="13.98243089094695"><ele>354.75</ele><time>2026-03-29T08:35:52.998Z</time></trkpt><trkpt lat="42.5660573509187" lon="13.9822878846399"><ele>355.5</ele><time>2026-03-29T08:35:53.998Z</time></trkpt><trkpt lat="42.566139113648596" lon="13.98212597129992"><ele>356.25</ele><time>2026-03-29T08:35:54.998Z</time></trkpt><trkpt lat="42.56622616967638" lon="13.981998614270296"><ele>357.0</ele><time>2026-03-29T08:35:55.998Z</time></trkpt><trkpt lat="42.56631606012651" lon="13.981871608591463"><ele>357.0</ele><time>2026-03-29T08:35:56.998Z</time></trkpt><trkpt lat="42.56641980518956" lon="13.981746170688403"><ele>357.0</ele><time>2026-03-29T08:35:57.998Z</time></trkpt><trkpt lat="42.566543193634594" lon="13.98165177803004"><ele>357.0</ele><time>2026-03-29T08:35:59Z</time></trkpt><trkpt lat="42.56667718994425" lon="13.981556220180584"><ele>357.0</ele><time>2026-03-29T08:36:00Z</time></trkpt><trkpt lat="42.5668175686279" lon="13.981467360661133"><ele>357.0</ele><time>2026-03-29T08:36:01Z</time></trkpt><trkpt lat="42.56696085096846" lon="13.98137770646079"><ele>357.0</ele><time>2026-03-29T08:36:02Z</time></trkpt><trkpt lat="42.56710715966573" lon="13.981290283659087"><ele>357.0</ele><time>2026-03-29T08:36:03Z</time></trkpt><trkpt lat="42.56725353487259" lon="13.981212340538342"><ele>357.0</ele><time>2026-03-29T08:36:04Z</time></trkpt><trkpt lat="42.567404505737414" lon="13.981133762108747"><ele>357.0</ele><time>2026-03-29T08:36:05Z</time></trkpt><trkpt lat="42.56755094256516" lon="13.981062283867566"><ele>357.0</ele><time>2026-03-29T08:36:06Z</time></trkpt><trkpt lat="42.567690515498946" lon="13.980999782605114"><ele>357.0</ele><time>2026-03-29T08:36:07Z</time></trkpt><trkpt lat="42.56782635883104" lon="13.980938951425573"><ele>357.0</ele><time>2026-03-29T08:36:08Z</time></trkpt><trkpt lat="42.567954186667" lon="13.980871421488356"><ele>357.0</ele><time>2026-03-29T08:36:09Z</time></trkpt><trkpt lat="42.568086205559545" lon="13.980798591727744"><ele>357.0</ele><time>2026-03-29T08:36:10Z</time></trkpt><trkpt lat="42.56821131066573" lon="13.98070819035701"><ele>357.25</ele><time>2026-03-29T08:36:11Z</time></trkpt><trkpt lat="42.56833490779526" lon="13.980599049249077"><ele>357.5</ele><time>2026-03-29T08:36:12Z</time></trkpt><trkpt lat="42.56845904606177" lon="13.980481468541944"><ele>357.75</ele><time>2026-03-29T08:36:13Z</time></trkpt><trkpt lat="42.56858694076412" lon="13.980385036210267"><ele>358.0</ele><time>2026-03-29T08:36:14Z</time></trkpt><trkpt lat="42.56870966868675" lon="13.980269303037936"><ele>358.0</ele><time>2026-03-29T08:36:15Z</time></trkpt><trkpt lat="42.56882439287174" lon="13.980135863739713"><ele>358.0</ele><time>2026-03-29T08:36:16Z</time></trkpt><trkpt lat="42.56895499695129" lon="13.980037956993513"><ele>358.0</ele><time>2026-03-29T08:36:17Z</time></trkpt><trkpt lat="42.56908261414531" lon="13.979917613199083"><ele>362.0</ele><time>2026-03-29T08:36:18Z</time></trkpt><trkpt lat="42.56920989278291" lon="13.979795771566433"><ele>366.0</ele><time>2026-03-29T08:36:19Z</time></trkpt><trkpt lat="42.56932631707892" lon="13.979655835356647"><ele>370.0</ele><time>2026-03-29T08:36:20Z</time></trkpt><trkpt lat="42.569455800834795" lon="13.979550152876266"><ele>370.66666666666663</ele><time>2026-03-29T08:36:21Z</time></trkpt><trkpt lat="42.569574222396675" lon="13.979428597692642"><ele>371.3333333333333</ele><time>2026-03-29T08:36:22Z</time></trkpt><trkpt lat="42.56968769849653" lon="13.979284592611746"><ele>372.0</ele><time>2026-03-29T08:36:23Z</time></trkpt><trkpt lat="42.569823657646005" lon="13.979172316464044"><ele>372.0</ele><time>2026-03-29T08:36:24Z</time></trkpt><trkpt lat="42.56995348059273" lon="13.979032101481248"><ele>372.0</ele><time>2026-03-29T08:36:25Z</time></trkpt><trkpt lat="42.57008401923357" lon="13.978888542701625"><ele>372.0</ele><time>2026-03-29T08:36:26Z</time></trkpt><trkpt lat="42.57021826337141" lon="13.978746168374942"><ele>372.0</ele><time>2026-03-29T08:36:27Z</time></trkpt><trkpt lat="42.57035236768066" lon="13.978605202400912"><ele>372.0</ele><time>2026-03-29T08:36:28Z</time></trkpt><trkpt lat="42.57048182056919" lon="13.97847132152962"><ele>372.0</ele><time>2026-03-29T08:36:29Z</time></trkpt><trkpt lat="42.570600911047364" lon="13.978344428610557"><ele>371.75</ele><time>2026-03-29T08:36:30Z</time></trkpt><trkpt lat="42.570704523449024" lon="13.978235586397616"><ele>371.5</ele><time>2026-03-29T08:36:31Z</time></trkpt><trkpt lat="42.57080776880573" lon="13.978111148540131"><ele>371.25</ele><time>2026-03-29T08:36:32Z</time></trkpt><trkpt lat="42.570906927598756" lon="13.978023848812635"><ele>371.0</ele><time>2026-03-29T08:36:33Z</time></trkpt><trkpt lat="42.57100786355396" lon="13.977947691307525"><ele>371.0</ele><time>2026-03-29T08:36:34Z</time></trkpt><trkpt lat="42.57111127380555" lon="13.97785101622601"><ele>371.0</ele><time>2026-03-29T08:36:35Z</time></trkpt><trkpt lat="42.571217503429445" lon="13.977755033412711"><ele>371.0</ele><time>2026-03-29T08:36:36Z</time></trkpt><trkpt lat="42.57131776968577" lon="13.977632296927622"><ele>371.0</ele><time>2026-03-29T08:36:37Z</time></trkpt><trkpt lat="42.57139686950011" lon="13.97748030359589"><ele>370.75</ele><time>2026-03-29T08:36:38Z</time></trkpt><trkpt lat="42.571474786012644" lon="13.97730744613314"><ele>370.5</ele><time>2026-03-29T08:36:39Z</time></trkpt><trkpt lat="42.57154743166985" lon="13.977143195380314"><ele>370.25</ele><time>2026-03-29T08:36:40Z</time></trkpt><trkpt lat="42.57163031251249" lon="13.976979518792096"><ele>370.0</ele><time>2026-03-29T08:36:41Z</time></trkpt><trkpt lat="42.57171244926586" lon="13.976821804878512"><ele>373.0</ele><time>2026-03-29T08:36:42Z</time></trkpt><trkpt lat="42.57179393871643" lon="13.976664212504394"><ele>376.0</ele><time>2026-03-29T08:36:43Z</time></trkpt><trkpt lat="42.5718567255897" lon="13.976508458509926"><ele>379.0</ele><time>2026-03-29T08:36:44Z</time></trkpt><trkpt lat="42.57190921969042" lon="13.976333262380791"><ele>382.0</ele><time>2026-03-29T08:36:45Z</time></trkpt><trkpt lat="42.571953190888216" lon="13.976146016804417"><ele>382.0</ele><time>2026-03-29T08:36:45.999Z</time></trkpt><trkpt lat="42.571993258685566" lon="13.975953695805744"><ele>382.0</ele><time>2026-03-29T08:36:46.999Z</time></trkpt><trkpt lat="42.57204838642855" lon="13.975785204082998"><ele>382.0</ele><time>2026-03-29T08:36:47.999Z</time></trkpt><trkpt lat="42.57210863139933" lon="13.97562539277415"><ele>382.0</ele><time>2026-03-29T08:36:48.999Z</time></trkpt><trkpt lat="42.57219130603021" lon="13.975473339095668"><ele>381.75</ele><time>2026-03-29T08:36:49.999Z</time></trkpt><trkpt lat="42.572289189883804" lon="13.975320584664189"><ele>381.5</ele><time>2026-03-29T08:36:50.999Z</time></trkpt><trkpt lat="42.57239163797758" lon="13.97517481251257"><ele>381.25</ele><time>2026-03-29T08:36:51.999Z</time></trkpt><trkpt lat="42.57249234193143" lon="13.975025127473668"><ele>381.0</ele><time>2026-03-29T08:36:52.999Z</time></trkpt><trkpt lat="42.572585699354775" lon="13.974863546821208"><ele>381.0</ele><time>2026-03-29T08:36:53.999Z</time></trkpt><trkpt lat="42.57265642106826" lon="13.974675712186258"><ele>381.0</ele><time>2026-03-29T08:36:54.999Z</time></trkpt><trkpt lat="42.57272611702569" lon="13.97449075906674"><ele>381.0</ele><time>2026-03-29T08:36:55.999Z</time></trkpt><trkpt lat="42.57277904463609" lon="13.974291493344607"><ele>381.0</ele><time>2026-03-29T08:36:56.999Z</time></trkpt><trkpt lat="42.572850911045755" lon="13.974104001681933"><ele>381.0</ele><time>2026-03-29T08:36:57.999Z</time></trkpt><trkpt lat="42.572916223557435" lon="13.973909350743956"><ele>381.0</ele><time>2026-03-29T08:36:58.999Z</time></trkpt><trkpt lat="42.572982048089166" lon="13.9737123064952"><ele>379.6666666666667</ele><time>2026-03-29T08:36:59.999Z</time></trkpt><trkpt lat="42.57303720070462" lon="13.973506734644097"><ele>378.33333333333337</ele><time>2026-03-29T08:37:00.999Z</time></trkpt><trkpt lat="42.5731263849402" lon="13.973324133318211"><ele>377.0</ele><time>2026-03-29T08:37:01.999Z</time></trkpt><trkpt lat="42.57320692910814" lon="13.973138279148449"><ele>381.0</ele><time>2026-03-29T08:37:02.999Z</time></trkpt><trkpt lat="42.57329429310346" lon="13.972954527177583"><ele>385.0</ele><time>2026-03-29T08:37:03.999Z</time></trkpt><trkpt lat="42.57338085272306" lon="13.97277948302638"><ele>389.0</ele><time>2026-03-29T08:37:04.999Z</time></trkpt><trkpt lat="42.57345890933653" lon="13.972587074389924"><ele>391.5</ele><time>2026-03-29T08:37:05.999Z</time></trkpt><trkpt lat="42.573560582330956" lon="13.972428045033872"><ele>394.0</ele><time>2026-03-29T08:37:06.999Z</time></trkpt><trkpt lat="42.573635165984605" lon="13.972273390439934"><ele>396.5</ele><time>2026-03-29T08:37:07.999Z</time></trkpt><trkpt lat="42.573701087964" lon="13.972119756194818"><ele>399.0</ele><time>2026-03-29T08:37:08.999Z</time></trkpt><trkpt lat="42.57373851517242" lon="13.971948632461034"><ele>394.0</ele><time>2026-03-29T08:37:09.999Z</time></trkpt><trkpt lat="42.573778179320364" lon="13.971766402679181"><ele>389.0</ele><time>2026-03-29T08:37:10.999Z</time></trkpt><trkpt lat="42.57380279219969" lon="13.971565600006866"><ele>384.0</ele><time>2026-03-29T08:37:11.999Z</time></trkpt><trkpt lat="42.57383165450509" lon="13.971364027093239"><ele>379.0</ele><time>2026-03-29T08:37:12.999Z</time></trkpt><trkpt lat="42.57389547799227" lon="13.971169349059966"><ele>379.0</ele><time>2026-03-29T08:37:13.999Z</time></trkpt><trkpt lat="42.573964304671094" lon="13.970979268990641"><ele>379.0</ele><time>2026-03-29T08:37:14.999Z</time></trkpt><trkpt lat="42.574034720802615" lon="13.970790309891976"><ele>379.0</ele><time>2026-03-29T08:37:15.999Z</time></trkpt><trkpt lat="42.5740967534953" lon="13.970589724529287"><ele>382.66666666666663</ele><time>2026-03-29T08:37:16.999Z</time></trkpt><trkpt lat="42.574176050459656" lon="13.970400398628753"><ele>386.3333333333333</ele><time>2026-03-29T08:37:17.999Z</time></trkpt><trkpt lat="42.574270543492986" lon="13.97022514137644"><ele>390.0</ele><time>2026-03-29T08:37:18.999Z</time></trkpt><trkpt lat="42.574350105813124" lon="13.970033996947082"><ele>388.75</ele><time>2026-03-29T08:37:19.999Z</time></trkpt><trkpt lat="42.57442466875599" lon="13.969854349634499"><ele>387.5</ele><time>2026-03-29T08:37:20.999Z</time></trkpt><trkpt lat="42.57450516615511" lon="13.969708676593452"><ele>386.25</ele><time>2026-03-29T08:37:21.999Z</time></trkpt><trkpt lat="42.574606318502994" lon="13.969571765661058"><ele>385.0</ele><time>2026-03-29T08:37:22.999Z</time></trkpt><trkpt lat="42.57472885446625" lon="13.969449705898903"><ele>385.0</ele><time>2026-03-29T08:37:23.999Z</time></trkpt><trkpt lat="42.57486027614077" lon="13.969319817861813"><ele>385.0</ele><time>2026-03-29T08:37:24.999Z</time></trkpt><trkpt lat="42.57498953688741" lon="13.969196089367525"><ele>385.0</ele><time>2026-03-29T08:37:25.999Z</time></trkpt><trkpt lat="42.575116150042454" lon="13.969077081962583"><ele>386.25</ele><time>2026-03-29T08:37:26.999Z</time></trkpt><trkpt lat="42.575239634649506" lon="13.968958972708018"><ele>387.5</ele><time>2026-03-29T08:37:27.999Z</time></trkpt><trkpt lat="42.57535638514793" lon="13.968841959502202"><ele>388.75</ele><time>2026-03-29T08:37:28.999Z</time></trkpt><trkpt lat="42.575466277793964" lon="13.968713760901801"><ele>390.0</ele><time>2026-03-29T08:37:29.999Z</time></trkpt><trkpt lat="42.5755941791739" lon="13.968628019215638"><ele>390.0</ele><time>2026-03-29T08:37:30.999Z</time></trkpt><trkpt lat="42.575728422779264" lon="13.968544380657734"><ele>390.0</ele><time>2026-03-29T08:37:31.999Z</time></trkpt><trkpt lat="42.57586103457724" lon="13.968494693798661"><ele>390.0</ele><time>2026-03-29T08:37:32.999Z</time></trkpt><trkpt lat="42.57599461527022" lon="13.968432943449663"><ele>390.0</ele><time>2026-03-29T08:37:33.999Z</time></trkpt><trkpt lat="42.57611422544274" lon="13.968397843173264"><ele>390.75</ele><time>2026-03-29T08:37:34.999Z</time></trkpt><trkpt lat="42.576232313740675" lon="13.968337798116915"><ele>391.5</ele><time>2026-03-29T08:37:35.999Z</time></trkpt><trkpt lat="42.57634579190592" lon="13.96823060496082"><ele>392.25</ele><time>2026-03-29T08:37:36.999Z</time></trkpt><trkpt lat="42.57644999687657" lon="13.968105937832457"><ele>393.0</ele><time>2026-03-29T08:37:37.999Z</time></trkpt><trkpt lat="42.57655575835351" lon="13.96796198236622"><ele>393.0</ele><time>2026-03-29T08:37:38.999Z</time></trkpt><trkpt lat="42.57665927646638" lon="13.967818324557904"><ele>393.0</ele><time>2026-03-29T08:37:39.999Z</time></trkpt><trkpt lat="42.57676414491529" lon="13.967663124367752"><ele>393.0</ele><time>2026-03-29T08:37:40.999Z</time></trkpt><trkpt lat="42.576849025888535" lon="13.96750020755485"><ele>396.75</ele><time>2026-03-29T08:37:41.999Z</time></trkpt><trkpt lat="42.576915167350734" lon="13.967330193206442"><ele>400.5</ele><time>2026-03-29T08:37:42.998Z</time></trkpt><trkpt lat="42.57696304247274" lon="13.967160871973203"><ele>404.25</ele><time>2026-03-29T08:37:43.998Z</time></trkpt><trkpt lat="42.57699433863815" lon="13.96696924366569"><ele>408.0</ele><time>2026-03-29T08:37:44.998Z</time></trkpt><trkpt lat="42.57701658586635" lon="13.966784545657031"><ele>404.5</ele><time>2026-03-29T08:37:45.998Z</time></trkpt><trkpt lat="42.57706304766542" lon="13.966618940012749"><ele>401.0</ele><time>2026-03-29T08:37:46.998Z</time></trkpt><trkpt lat="42.577105484699196" lon="13.966455953229817"><ele>397.5</ele><time>2026-03-29T08:37:47.998Z</time></trkpt><trkpt lat="42.57716876999245" lon="13.966301090316597"><ele>394.0</ele><time>2026-03-29T08:37:48.998Z</time></trkpt><trkpt lat="42.57724370597646" lon="13.966145937582914"><ele>394.0</ele><time>2026-03-29T08:37:49.998Z</time></trkpt><trkpt lat="42.57730656184769" lon="13.965980743337479"><ele>394.0</ele><time>2026-03-29T08:37:50.998Z</time></trkpt><trkpt lat="42.5773765204868" lon="13.965841831012767"><ele>394.0</ele><time>2026-03-29T08:37:51.998Z</time></trkpt><trkpt lat="42.5774385485064" lon="13.965706881900678"><ele>394.0</ele><time>2026-03-29T08:37:52.998Z</time></trkpt><trkpt lat="42.57750495825062" lon="13.965565819653266"><ele>395.79999999999995</ele><time>2026-03-29T08:37:53.998Z</time></trkpt><trkpt lat="42.577579101177136" lon="13.96542363035523"><ele>397.59999999999997</ele><time>2026-03-29T08:37:54.998Z</time></trkpt><trkpt lat="42.577660747399165" lon="13.96530279636435"><ele>399.4</ele><time>2026-03-29T08:37:55.998Z</time></trkpt><trkpt lat="42.57773006664288" lon="13.965206276278298"><ele>401.2</ele><time>2026-03-29T08:37:56.998Z</time></trkpt><trkpt lat="42.57780642643851" lon="13.96512979897668"><ele>403.0</ele><time>2026-03-29T08:37:57.998Z</time></trkpt><trkpt lat="42.57790184679514" lon="13.965093485841063"><ele>404.4</ele><time>2026-03-29T08:37:58.998Z</time></trkpt><trkpt lat="42.57800519182019" lon="13.965079152029423"><ele>405.79999999999995</ele><time>2026-03-29T08:37:59.998Z</time></trkpt><trkpt lat="42.57810670964696" lon="13.965101322879345"><ele>407.2</ele><time>2026-03-29T08:38:00.998Z</time></trkpt><trkpt lat="42.57821685352675" lon="13.965141940963774"><ele>408.6</ele><time>2026-03-29T08:38:01.998Z</time></trkpt><trkpt lat="42.578314545198964" lon="13.965242726218975"><ele>410.0</ele><time>2026-03-29T08:38:02.998Z</time></trkpt><trkpt lat="42.578400123068576" lon="13.96538174497472"><ele>410.0</ele><time>2026-03-29T08:38:04Z</time></trkpt><trkpt lat="42.578467240230104" lon="13.965533225086242"><ele>410.0</ele><time>2026-03-29T08:38:05Z</time></trkpt><trkpt lat="42.57849575821405" lon="13.965705093471966"><ele>410.0</ele><time>2026-03-29T08:38:06Z</time></trkpt><trkpt lat="42.57854023724075" lon="13.965880587233913"><ele>410.0</ele><time>2026-03-29T08:38:07Z</time></trkpt><trkpt lat="42.5785583566378" lon="13.966072026238512"><ele>408.25</ele><time>2026-03-29T08:38:08Z</time></trkpt><trkpt lat="42.5785810230567" lon="13.966263848925115"><ele>406.5</ele><time>2026-03-29T08:38:09Z</time></trkpt><trkpt lat="42.57860242859551" lon="13.966450990771682"><ele>404.75</ele><time>2026-03-29T08:38:10Z</time></trkpt><trkpt lat="42.57862607964212" lon="13.966619189321298"><ele>403.0</ele><time>2026-03-29T08:38:11Z</time></trkpt><trkpt lat="42.57866756826554" lon="13.966767631750745"><ele>407.5</ele><time>2026-03-29T08:38:12Z</time></trkpt><trkpt lat="42.57874096154102" lon="13.966921564971736"><ele>412.0</ele><time>2026-03-29T08:38:13Z</time></trkpt><trkpt lat="42.57883660073812" lon="13.96707035990684"><ele>416.5</ele><time>2026-03-29T08:38:14Z</time></trkpt><trkpt lat="42.57894491826771" lon="13.967216114514189"><ele>421.0</ele><time>2026-03-29T08:38:15Z</time></trkpt><trkpt lat="42.57903301564501" lon="13.967359169502403"><ele>421.0</ele><time>2026-03-29T08:38:16Z</time></trkpt><trkpt lat="42.57911525407458" lon="13.967503082226983"><ele>421.0</ele><time>2026-03-29T08:38:17Z</time></trkpt><trkpt lat="42.57919626657533" lon="13.967649084328654"><ele>421.0</ele><time>2026-03-29T08:38:18Z</time></trkpt><trkpt lat="42.57927575675189" lon="13.967794338147415"><ele>421.0</ele><time>2026-03-29T08:38:19Z</time></trkpt><trkpt lat="42.57934961182505" lon="13.967927627714719"><ele>419.8</ele><time>2026-03-29T08:38:20Z</time></trkpt><trkpt lat="42.57941607606508" lon="13.968048868740336"><ele>418.6</ele><time>2026-03-29T08:38:21Z</time></trkpt><trkpt lat="42.57948045918809" lon="13.968162579260998"><ele>417.4</ele><time>2026-03-29T08:38:22Z</time></trkpt><trkpt lat="42.57953794277701" lon="13.968266315171887"><ele>416.2</ele><time>2026-03-29T08:38:23Z</time></trkpt><trkpt lat="42.579590961050634" lon="13.968370388726592"><ele>415.0</ele><time>2026-03-29T08:38:24Z</time></trkpt><trkpt lat="42.57963655561276" lon="13.968456036786288"><ele>414.0</ele><time>2026-03-29T08:38:25Z</time></trkpt><trkpt lat="42.57968069140759" lon="13.96853325308251"><ele>413.0</ele><time>2026-03-29T08:38:26Z</time></trkpt><trkpt lat="42.57975596205668" lon="13.96866419705284"><ele>412.0</ele><time>2026-03-29T08:38:28Z</time></trkpt><trkpt lat="42.5797913641335" lon="13.968847512029537"><ele>411.0</ele><time>2026-03-29T08:38:30Z</time></trkpt><trkpt lat="42.57979529742215" lon="13.96895267708073"><ele>410.0</ele><time>2026-03-29T08:38:31Z</time></trkpt><trkpt lat="42.579791116250455" lon="13.969076057187161"><ele>410.0</ele><time>2026-03-29T08:38:33Z</time></trkpt><trkpt lat="42.57994255128395" lon="13.969048143903679"><ele>410.0</ele><time>2026-03-29T08:38:35Z</time></trkpt><trkpt lat="42.57995052344299" lon="13.9689591718221"><ele>410.0</ele><time>2026-03-29T08:38:36Z</time></trkpt><trkpt lat="42.579925407761294" lon="13.968876674672584"><ele>410.0</ele><time>2026-03-29T08:38:37Z</time></trkpt><trkpt lat="42.579900341253236" lon="13.968695470714705"><ele>410.0</ele><time>2026-03-29T08:38:39Z</time></trkpt><trkpt lat="42.57991714561258" lon="13.968596484684943"><ele>409.99999999999994</ele><time>2026-03-29T08:38:40Z</time></trkpt><trkpt lat="42.57992309121043" lon="13.968497479470928"><ele>410.0</ele><time>2026-03-29T08:38:41Z</time></trkpt><trkpt lat="42.57994082727438" lon="13.96841055538121"><ele>410.0</ele><time>2026-03-29T08:38:42Z</time></trkpt><trkpt lat="42.57997003686793" lon="13.968318604173367"><ele>410.0</ele><time>2026-03-29T08:38:43Z</time></trkpt><trkpt lat="42.580009861135764" lon="13.968233754139641"><ele>409.99999999999994</ele><time>2026-03-29T08:38:44Z</time></trkpt><trkpt lat="42.58005597812437" lon="13.968138671937277"><ele>410.0</ele><time>2026-03-29T08:38:45Z</time></trkpt><trkpt lat="42.580087404301025" lon="13.968027486777245"><ele>410.8333333333333</ele><time>2026-03-29T08:38:46Z</time></trkpt><trkpt lat="42.58012823988804" lon="13.967947687753155"><ele>411.66666666666663</ele><time>2026-03-29T08:38:47Z</time></trkpt><trkpt lat="42.58016994556828" lon="13.967865447389068"><ele>412.5</ele><time>2026-03-29T08:38:48Z</time></trkpt><trkpt lat="42.580201132910396" lon="13.967764628667734"><ele>413.33333333333337</ele><time>2026-03-29T08:38:49Z</time></trkpt><trkpt lat="42.58023417157638" lon="13.967670287262063"><ele>414.1666666666667</ele><time>2026-03-29T08:38:50Z</time></trkpt><trkpt lat="42.58028251237371" lon="13.967587530955907"><ele>415.0</ele><time>2026-03-29T08:38:51Z</time></trkpt><trkpt lat="42.58031854075137" lon="13.967492445772548"><ele>411.33333333333337</ele><time>2026-03-29T08:38:52Z</time></trkpt><trkpt lat="42.58035639017149" lon="13.967402967848416"><ele>407.6666666666667</ele><time>2026-03-29T08:38:53Z</time></trkpt><trkpt lat="42.58039695604169" lon="13.96732272893733"><ele>404.0</ele><time>2026-03-29T08:38:54Z</time></trkpt><trkpt lat="42.58046443572319" lon="13.967215326580884"><ele>400.33333333333337</ele><time>2026-03-29T08:38:56Z</time></trkpt><trkpt lat="42.58053394374209" lon="13.967174897741303"><ele>396.6666666666667</ele><time>2026-03-29T08:38:58.999Z</time></trkpt><trkpt lat="42.58050621288933" lon="13.96729084143276"><ele>393.0</ele><time>2026-03-29T08:39:05.999Z</time></trkpt><trkpt lat="42.580489311666355" lon="13.967385302139252"><ele>393.0</ele><time>2026-03-29T08:39:06.999Z</time></trkpt><trkpt lat="42.58047067772255" lon="13.967480758245626"><ele>393.0</ele><time>2026-03-29T08:39:07.999Z</time></trkpt><trkpt lat="42.58044820264521" lon="13.967595891327976"><ele>393.0</ele><time>2026-03-29T08:39:08.999Z</time></trkpt><trkpt lat="42.58042084751237" lon="13.967733910533289"><ele>393.0</ele><time>2026-03-29T08:39:09.999Z</time></trkpt><trkpt lat="42.58038993943951" lon="13.967887175164453"><ele>393.0</ele><time>2026-03-29T08:39:10.999Z</time></trkpt><trkpt lat="42.58035489998703" lon="13.968055987105894"><ele>396.4</ele><time>2026-03-29T08:39:11.999Z</time></trkpt><trkpt lat="42.580319330637046" lon="13.968227773347976"><ele>399.79999999999995</ele><time>2026-03-29T08:39:12.999Z</time></trkpt><trkpt lat="42.58029430073052" lon="13.968368272516848"><ele>403.2</ele><time>2026-03-29T08:39:13.999Z</time></trkpt><trkpt lat="42.580282540206284" lon="13.968460651969714"><ele>406.6</ele><time>2026-03-29T08:39:14.999Z</time></trkpt><trkpt lat="42.58026750861226" lon="13.968571755684765"><ele>410.0</ele><time>2026-03-29T08:39:15.999Z</time></trkpt><trkpt lat="42.580290127774454" lon="13.96866343834785"><ele>410.0</ele><time>2026-03-29T08:39:17.999Z</time></trkpt><trkpt lat="42.58031654073045" lon="13.968768369807886"><ele>410.0</ele><time>2026-03-29T08:39:19.999Z</time></trkpt><trkpt lat="42.57981286621298" lon="13.968943706290233"><ele>410.0</ele><time>2026-03-29T08:39:24.999Z</time></trkpt><trkpt lat="42.579798829213914" lon="13.96879165685916"><ele>410.0</ele><time>2026-03-29T08:39:27.999Z</time></trkpt><trkpt lat="42.57978523365282" lon="13.968682757905102"><ele>410.0</ele><time>2026-03-29T08:39:28.999Z</time></trkpt><trkpt lat="42.57978179795624" lon="13.968561430506663"><ele>410.0</ele><time>2026-03-29T08:39:29.999Z</time></trkpt><trkpt lat="42.57981472150521" lon="13.968412228201558"><ele>410.0</ele><time>2026-03-29T08:39:30.999Z</time></trkpt><trkpt lat="42.5798430426035" lon="13.968273589697317"><ele>411.25</ele><time>2026-03-29T08:39:31.999Z</time></trkpt><trkpt lat="42.5798869060925" lon="13.968116672759884"><ele>412.5</ele><time>2026-03-29T08:39:32.999Z</time></trkpt><trkpt lat="42.57993335244839" lon="13.967954820500069"><ele>413.75</ele><time>2026-03-29T08:39:33.999Z</time></trkpt><trkpt lat="42.57998358349366" lon="13.967793830580376"><ele>415.0</ele><time>2026-03-29T08:39:34.999Z</time></trkpt><trkpt lat="42.58005830485366" lon="13.967611614201601"><ele>415.6666666666667</ele><time>2026-03-29T08:39:35.999Z</time></trkpt><trkpt lat="42.58011018840959" lon="13.967405359054327"><ele>416.33333333333337</ele><time>2026-03-29T08:39:36.999Z</time></trkpt><trkpt lat="42.58018709009191" lon="13.967227075839121"><ele>417.0</ele><time>2026-03-29T08:39:37.999Z</time></trkpt><trkpt lat="42.58025239000689" lon="13.967058487170279"><ele>417.0</ele><time>2026-03-29T08:39:38.999Z</time></trkpt><trkpt lat="42.58033657943655" lon="13.966925532796491"><ele>417.0</ele><time>2026-03-29T08:39:39.999Z</time></trkpt><trkpt lat="42.58044809072874" lon="13.966803626288927"><ele>417.0</ele><time>2026-03-29T08:39:40.999Z</time></trkpt><trkpt lat="42.58057016297907" lon="13.966679497663986"><ele>417.0</ele><time>2026-03-29T08:39:41.999Z</time></trkpt><trkpt lat="42.580698912529705" lon="13.96654930851796"><ele>414.66666666666663</ele><time>2026-03-29T08:39:42.999Z</time></trkpt><trkpt lat="42.58082751172355" lon="13.966422464756581"><ele>412.3333333333333</ele><time>2026-03-29T08:39:43.999Z</time></trkpt><trkpt lat="42.58095720501449" lon="13.966295501453622"><ele>410.0</ele><time>2026-03-29T08:39:44.999Z</time></trkpt><trkpt lat="42.58109098669073" lon="13.966168366603009"><ele>408.0</ele><time>2026-03-29T08:39:45.999Z</time></trkpt><trkpt lat="42.58121971262395" lon="13.966054589344628"><ele>406.0</ele><time>2026-03-29T08:39:46.999Z</time></trkpt><trkpt lat="42.58135147090202" lon="13.965952258812095"><ele>404.0</ele><time>2026-03-29T08:39:47.999Z</time></trkpt><trkpt lat="42.581481743782206" lon="13.965861019299338"><ele>404.0</ele><time>2026-03-29T08:39:48.999Z</time></trkpt><trkpt lat="42.58161420357726" lon="13.965781397604488"><ele>404.0</ele><time>2026-03-29T08:39:49.999Z</time></trkpt><trkpt lat="42.581736346121986" lon="13.965713095695605"><ele>404.0</ele><time>2026-03-29T08:39:50.999Z</time></trkpt><trkpt lat="42.581833277582085" lon="13.965632309418005"><ele>404.0</ele><time>2026-03-29T08:39:51.999Z</time></trkpt><trkpt lat="42.58192150399601" lon="13.965579109615419"><ele>403.99999999999994</ele><time>2026-03-29T08:39:52.999Z</time></trkpt><trkpt lat="42.582005037317245" lon="13.965520645561929"><ele>404.0</ele><time>2026-03-29T08:39:53.999Z</time></trkpt><trkpt lat="42.58208265539213" lon="13.965456577523163"><ele>404.0</ele><time>2026-03-29T08:39:54.999Z</time></trkpt><trkpt lat="42.58214418306292" lon="13.965384832004318"><ele>404.0</ele><time>2026-03-29T08:39:55.998Z</time></trkpt><trkpt lat="42.58219225172564" lon="13.965324355673967"><ele>403.99999999999994</ele><time>2026-03-29T08:39:56.998Z</time></trkpt><trkpt lat="42.58216722228666" lon="13.965208113943634"><ele>404.0</ele><time>2026-03-29T08:39:57.998Z</time></trkpt><trkpt lat="42.5821195872077" lon="13.965110218591942"><ele>404.0</ele><time>2026-03-29T08:39:58.998Z</time></trkpt><trkpt lat="42.58204947591924" lon="13.9650289651659"><ele>404.0</ele><time>2026-03-29T08:39:59.998Z</time></trkpt><trkpt lat="42.581948838895215" lon="13.964964398443295"><ele>404.0</ele><time>2026-03-29T08:40:00.998Z</time></trkpt><trkpt lat="42.58183437101137" lon="13.964902921467255"><ele>404.0</ele><time>2026-03-29T08:40:01.998Z</time></trkpt><trkpt lat="42.58171281493429" lon="13.964839293382582"><ele>404.0</ele><time>2026-03-29T08:40:02.998Z</time></trkpt><trkpt lat="42.58159230624521" lon="13.964756922574844"><ele>404.0</ele><time>2026-03-29T08:40:03.998Z</time></trkpt><trkpt lat="42.581463471392155" lon="13.96465138597042"><ele>404.0</ele><time>2026-03-29T08:40:04.998Z</time></trkpt><trkpt lat="42.581336609681074" lon="13.964538365048023"><ele>404.0</ele><time>2026-03-29T08:40:05.998Z</time></trkpt><trkpt lat="42.58121921615714" lon="13.964414241415433"><ele>404.5</ele><time>2026-03-29T08:40:06.998Z</time></trkpt><trkpt lat="42.581107994989246" lon="13.964291418832994"><ele>405.0</ele><time>2026-03-29T08:40:07.998Z</time></trkpt><trkpt lat="42.58100156150394" lon="13.964169955369709"><ele>405.5</ele><time>2026-03-29T08:40:08.998Z</time></trkpt><trkpt lat="42.58090360291129" lon="13.964035488030838"><ele>406.0</ele><time>2026-03-29T08:40:10Z</time></trkpt><trkpt lat="42.580812806065694" lon="13.963861311882047"><ele>406.0</ele><time>2026-03-29T08:40:11Z</time></trkpt><trkpt lat="42.58072880463575" lon="13.96366390864153"><ele>406.0</ele><time>2026-03-29T08:40:12Z</time></trkpt><trkpt lat="42.580648408101865" lon="13.963477477535665"><ele>406.0</ele><time>2026-03-29T08:40:13Z</time></trkpt><trkpt lat="42.580598680261424" lon="13.963288233403421"><ele>401.25</ele><time>2026-03-29T08:40:14Z</time></trkpt><trkpt lat="42.580569830211594" lon="13.963116337460843"><ele>396.5</ele><time>2026-03-29T08:40:15Z</time></trkpt><trkpt lat="42.5805700846693" lon="13.962937142301534"><ele>391.75</ele><time>2026-03-29T08:40:16Z</time></trkpt><trkpt lat="42.58058314221546" lon="13.962723923885948"><ele>387.0</ele><time>2026-03-29T08:40:17Z</time></trkpt><trkpt lat="42.580586325807545" lon="13.96249542097635"><ele>385.3333333333333</ele><time>2026-03-29T08:40:18Z</time></trkpt><trkpt lat="42.580599661670426" lon="13.962286908447958"><ele>383.66666666666663</ele><time>2026-03-29T08:40:19Z</time></trkpt><trkpt lat="42.580604033765354" lon="13.962085283382196"><ele>382.0</ele><time>2026-03-29T08:40:20Z</time></trkpt><trkpt lat="42.58060043284257" lon="13.961880013000817"><ele>381.5</ele><time>2026-03-29T08:40:21Z</time></trkpt><trkpt lat="42.58059645248912" lon="13.961678263646242"><ele>381.0</ele><time>2026-03-29T08:40:22Z</time></trkpt><trkpt lat="42.580597370913644" lon="13.961484445667287"><ele>380.5</ele><time>2026-03-29T08:40:23Z</time></trkpt><trkpt lat="42.580591502408225" lon="13.961305312861086"><ele>380.0</ele><time>2026-03-29T08:40:24Z</time></trkpt><trkpt lat="42.580577369883294" lon="13.961142105537666"><ele>380.0</ele><time>2026-03-29T08:40:25Z</time></trkpt><trkpt lat="42.58055574820868" lon="13.960997176215153"><ele>380.0</ele><time>2026-03-29T08:40:26Z</time></trkpt><trkpt lat="42.58052887521866" lon="13.96085163519897"><ele>380.0</ele><time>2026-03-29T08:40:27Z</time></trkpt><trkpt lat="42.580517480414564" lon="13.960713867364028"><ele>380.0</ele><time>2026-03-29T08:40:28Z</time></trkpt><trkpt lat="42.580503710848355" lon="13.960619093731498"><ele>380.0</ele><time>2026-03-29T08:40:29Z</time></trkpt><trkpt lat="42.5805118765555" lon="13.960525276894739"><ele>380.0</ele><time>2026-03-29T08:40:31Z</time></trkpt><trkpt lat="42.580587256383374" lon="13.9605481694581"><ele>380.0</ele><time>2026-03-29T08:40:33Z</time></trkpt><trkpt lat="42.580626478422104" lon="13.960737097721733"><ele>380.0</ele><time>2026-03-29T08:40:35Z</time></trkpt><trkpt lat="42.580658541341236" lon="13.96088107793669"><ele>380.0</ele><time>2026-03-29T08:40:36Z</time></trkpt><trkpt lat="42.58069873280945" lon="13.961041878139628"><ele>380.0</ele><time>2026-03-29T08:40:37Z</time></trkpt><trkpt lat="42.580738749721036" lon="13.961215625913034"><ele>380.0</ele><time>2026-03-29T08:40:38Z</time></trkpt><trkpt lat="42.58078274120526" lon="13.961393929189231"><ele>380.0</ele><time>2026-03-29T08:40:39Z</time></trkpt><trkpt lat="42.58083218759512" lon="13.961573874441578"><ele>380.0</ele><time>2026-03-29T08:40:40Z</time></trkpt><trkpt lat="42.58087382148118" lon="13.961748801794098"><ele>380.5</ele><time>2026-03-29T08:40:41Z</time></trkpt><trkpt lat="42.580903572395705" lon="13.96192584815053"><ele>381.0</ele><time>2026-03-29T08:40:42Z</time></trkpt><trkpt lat="42.58091260295219" lon="13.96209978133952"><ele>381.5</ele><time>2026-03-29T08:40:43Z</time></trkpt><trkpt lat="42.580907439319944" lon="13.962268783966312"><ele>382.0</ele><time>2026-03-29T08:40:44Z</time></trkpt><trkpt lat="42.580904318392484" lon="13.962396417736002"><ele>382.0</ele><time>2026-03-29T08:40:45Z</time></trkpt><trkpt lat="42.58094894734162" lon="13.962535815000692"><ele>382.0</ele><time>2026-03-29T08:40:47Z</time></trkpt><trkpt lat="42.581057345479906" lon="13.962481708400112"><ele>382.0</ele><time>2026-03-29T08:40:49Z</time></trkpt><trkpt lat="42.58109240260151" lon="13.962386918952365"><ele>382.0</ele><time>2026-03-29T08:40:50Z</time></trkpt><trkpt lat="42.58111447608841" lon="13.962252833015985"><ele>382.0</ele><time>2026-03-29T08:40:51Z</time></trkpt><trkpt lat="42.581117021052016" lon="13.962093465857826"><ele>382.0</ele><time>2026-03-29T08:40:52Z</time></trkpt><trkpt lat="42.581103415144426" lon="13.961916953467405"><ele>382.0</ele><time>2026-03-29T08:40:53Z</time></trkpt><trkpt lat="42.58108576548027" lon="13.961742917405621"><ele>382.0</ele><time>2026-03-29T08:40:54Z</time></trkpt><trkpt lat="42.58107370571251" lon="13.961563417879988"><ele>382.0</ele><time>2026-03-29T08:40:55Z</time></trkpt><trkpt lat="42.58105365310449" lon="13.96137364980951"><ele>381.3333333333333</ele><time>2026-03-29T08:40:56Z</time></trkpt><trkpt lat="42.58104934969503" lon="13.961169315390086"><ele>380.6666666666667</ele><time>2026-03-29T08:40:57Z</time></trkpt><trkpt lat="42.58103329788995" lon="13.960958282416453"><ele>380.0</ele><time>2026-03-29T08:40:58Z</time></trkpt><trkpt lat="42.58100688480471" lon="13.96074101336901"><ele>378.5</ele><time>2026-03-29T08:40:59Z</time></trkpt><trkpt lat="42.58099141499152" lon="13.960533544729097"><ele>377.0</ele><time>2026-03-29T08:41:00Z</time></trkpt><trkpt lat="42.5809815786094" lon="13.960330797642444"><ele>375.5</ele><time>2026-03-29T08:41:01Z</time></trkpt><trkpt lat="42.58096853654391" lon="13.960136576878355"><ele>374.0</ele><time>2026-03-29T08:41:02Z</time></trkpt><trkpt lat="42.58095507455111" lon="13.959949665083878"><ele>371.4</ele><time>2026-03-29T08:41:03Z</time></trkpt><trkpt lat="42.58094065826936" lon="13.959799535031419"><ele>368.79999999999995</ele><time>2026-03-29T08:41:04Z</time></trkpt><trkpt lat="42.58091201038396" lon="13.959676664577417"><ele>366.20000000000005</ele><time>2026-03-29T08:41:05Z</time></trkpt><trkpt lat="42.58085072875575" lon="13.959565569200132"><ele>363.6</ele><time>2026-03-29T08:41:06Z</time></trkpt><trkpt lat="42.58075462701466" lon="13.959471127444818"><ele>361.0</ele><time>2026-03-29T08:41:07Z</time></trkpt><trkpt lat="42.580634845644774" lon="13.959399142338025"><ele>361.0</ele><time>2026-03-29T08:41:07.999Z</time></trkpt><trkpt lat="42.5805164430322" lon="13.959353811099938"><ele>361.0</ele><time>2026-03-29T08:41:08.999Z</time></trkpt><trkpt lat="42.58042454603438" lon="13.959316286700995"><ele>361.0</ele><time>2026-03-29T08:41:09.999Z</time></trkpt><trkpt lat="42.58036202308828" lon="13.959286626761072"><ele>361.0</ele><time>2026-03-29T08:41:10.999Z</time></trkpt><trkpt lat="42.58032350618923" lon="13.959196573036648"><ele>361.0</ele><time>2026-03-29T08:41:12.999Z</time></trkpt><trkpt lat="42.580391329344295" lon="13.959111468554138"><ele>361.0</ele><time>2026-03-29T08:41:14.999Z</time></trkpt><trkpt lat="42.580448441682755" lon="13.959161668492614"><ele>361.0</ele><time>2026-03-29T08:41:15.999Z</time></trkpt><trkpt lat="42.580519400335845" lon="13.95916181729294"><ele>361.0</ele><time>2026-03-29T08:41:16.999Z</time></trkpt><trkpt lat="42.580610232724474" lon="13.959204553438129"><ele>361.0</ele><time>2026-03-29T08:41:17.999Z</time></trkpt><trkpt lat="42.5807220403206" lon="13.959244428690209"><ele>361.0</ele><time>2026-03-29T08:41:18.999Z</time></trkpt><trkpt lat="42.58083644189572" lon="13.959271348855983"><ele>361.0</ele><time>2026-03-29T08:41:19.999Z</time></trkpt><trkpt lat="42.58095485254907" lon="13.959296350430922"><ele>361.0</ele><time>2026-03-29T08:41:20.999Z</time></trkpt><trkpt lat="42.58106602395828" lon="13.959333188019265"><ele>361.0</ele><time>2026-03-29T08:41:21.999Z</time></trkpt><trkpt lat="42.58115453673511" lon="13.959402826111287"><ele>361.0</ele><time>2026-03-29T08:41:22.999Z</time></trkpt><trkpt lat="42.581219117549935" lon="13.95949841534562"><ele>361.0</ele><time>2026-03-29T08:41:23.999Z</time></trkpt><trkpt lat="42.58125814097548" lon="13.959597780428895"><ele>354.8333333333333</ele><time>2026-03-29T08:41:24.999Z</time></trkpt><trkpt lat="42.581292008885114" lon="13.95968275935065"><ele>348.66666666666663</ele><time>2026-03-29T08:41:25.999Z</time></trkpt><trkpt lat="42.58138518750524" lon="13.959732859504483"><ele>342.5</ele><time>2026-03-29T08:41:27.999Z</time></trkpt><trkpt lat="42.581445293671244" lon="13.959645953032535"><ele>336.3333333333333</ele><time>2026-03-29T08:41:28.999Z</time></trkpt><trkpt lat="42.5814608223952" lon="13.959553071352135"><ele>330.1666666666667</ele><time>2026-03-29T08:41:29.999Z</time></trkpt><trkpt lat="42.58144005918778" lon="13.95944583040654"><ele>324.0</ele><time>2026-03-29T08:41:30.999Z</time></trkpt><trkpt lat="42.58138584611642" lon="13.959335375329463"><ele>324.0</ele><time>2026-03-29T08:41:31.999Z</time></trkpt><trkpt lat="42.58131477411487" lon="13.959217956344201"><ele>324.0</ele><time>2026-03-29T08:41:32.999Z</time></trkpt><trkpt lat="42.58123821380234" lon="13.959116156440496"><ele>324.0</ele><time>2026-03-29T08:41:33.999Z</time></trkpt><trkpt lat="42.581148269939035" lon="13.959040894178738"><ele>324.0</ele><time>2026-03-29T08:41:34.999Z</time></trkpt><trkpt lat="42.581046399925015" lon="13.95897864612546"><ele>324.0</ele><time>2026-03-29T08:41:35.999Z</time></trkpt><trkpt lat="42.58093293992273" lon="13.95891633412106"><ele>329.25</ele><time>2026-03-29T08:41:36.999Z</time></trkpt><trkpt lat="42.58081381150071" lon="13.958852350031055"><ele>334.5</ele><time>2026-03-29T08:41:37.999Z</time></trkpt><trkpt lat="42.580689103427744" lon="13.958774009228128"><ele>339.75</ele><time>2026-03-29T08:41:38.999Z</time></trkpt><trkpt lat="42.58056218123574" lon="13.958668698184637"><ele>345.0</ele><time>2026-03-29T08:41:39.999Z</time></trkpt><trkpt lat="42.580439586214666" lon="13.958563442422637"><ele>341.25</ele><time>2026-03-29T08:41:40.999Z</time></trkpt><trkpt lat="42.58031685960496" lon="13.958473315814285"><ele>337.5</ele><time>2026-03-29T08:41:41.999Z</time></trkpt><trkpt lat="42.58019383826656" lon="13.958394364372365"><ele>333.75</ele><time>2026-03-29T08:41:42.999Z</time></trkpt><trkpt lat="42.580071890803836" lon="13.958331238040271"><ele>330.0</ele><time>2026-03-29T08:41:43.999Z</time></trkpt><trkpt lat="42.57996006189918" lon="13.958280150384294"><ele>328.8333333333333</ele><time>2026-03-29T08:41:44.999Z</time></trkpt><trkpt lat="42.57986220385381" lon="13.958242386837284"><ele>327.6666666666667</ele><time>2026-03-29T08:41:45.999Z</time></trkpt><trkpt lat="42.57977276608768" lon="13.958218052897633"><ele>326.5</ele><time>2026-03-29T08:41:46.999Z</time></trkpt><trkpt lat="42.57967295350838" lon="13.958170011864205"><ele>325.33333333333337</ele><time>2026-03-29T08:41:48.999Z</time></trkpt><trkpt lat="42.579694228928005" lon="13.958066935479138"><ele>324.1666666666667</ele><time>2026-03-29T08:41:50.999Z</time></trkpt><trkpt lat="42.57975725576229" lon="13.958038663384018"><ele>323.0</ele><time>2026-03-29T08:41:51.999Z</time></trkpt><trkpt lat="42.57983173375162" lon="13.958063478047297"><ele>323.0</ele><time>2026-03-29T08:41:52.999Z</time></trkpt><trkpt lat="42.579915504567175" lon="13.95809474487976"><ele>323.0</ele><time>2026-03-29T08:41:53.999Z</time></trkpt><trkpt lat="42.58001587765178" lon="13.95811419292417"><ele>323.0</ele><time>2026-03-29T08:41:54.999Z</time></trkpt><trkpt lat="42.58012281853734" lon="13.958142741282623"><ele>323.0</ele><time>2026-03-29T08:41:55.999Z</time></trkpt><trkpt lat="42.58023745498268" lon="13.958164891626554"><ele>323.0</ele><time>2026-03-29T08:41:56.999Z</time></trkpt><trkpt lat="42.58035901202316" lon="13.95819565427129"><ele>321.5</ele><time>2026-03-29T08:41:57.999Z</time></trkpt><trkpt lat="42.580475350661054" lon="13.958240451720046"><ele>320.0</ele><time>2026-03-29T08:41:58.999Z</time></trkpt><trkpt lat="42.58058543372936" lon="13.958304629579816"><ele>318.5</ele><time>2026-03-29T08:41:59.999Z</time></trkpt><trkpt lat="42.5806893916836" lon="13.95836808641268"><ele>317.0</ele><time>2026-03-29T08:42:00.999Z</time></trkpt><trkpt lat="42.58087852189642" lon="13.958431630443211"><ele>319.25</ele><time>2026-03-29T08:42:01.999Z</time></trkpt><trkpt lat="42.581021059681234" lon="13.958472301240407"><ele>321.5</ele><time>2026-03-29T08:42:02.999Z</time></trkpt><trkpt lat="42.581172451722395" lon="13.95847031184732"><ele>323.75</ele><time>2026-03-29T08:42:03.999Z</time></trkpt><trkpt lat="42.581313845068074" lon="13.958444342245025"><ele>326.0</ele><time>2026-03-29T08:42:04.998Z</time></trkpt><trkpt lat="42.58145360976291" lon="13.95844198983954"><ele>326.0</ele><time>2026-03-29T08:42:05.998Z</time></trkpt><trkpt lat="42.581606122434366" lon="13.95848471749651"><ele>326.0</ele><time>2026-03-29T08:42:06.998Z</time></trkpt><trkpt lat="42.5817638129788" lon="13.958564758353127"><ele>326.0</ele><time>2026-03-29T08:42:07.998Z</time></trkpt><trkpt lat="42.58192317184284" lon="13.958631475216286"><ele>320.0</ele><time>2026-03-29T08:42:08.998Z</time></trkpt><trkpt lat="42.58208952834601" lon="13.958674380631795"><ele>314.0</ele><time>2026-03-29T08:42:09.998Z</time></trkpt><trkpt lat="42.58225117574791" lon="13.958707112881203"><ele>308.0</ele><time>2026-03-29T08:42:10.998Z</time></trkpt><trkpt lat="42.582392341072634" lon="13.958775638791117"><ele>308.0</ele><time>2026-03-29T08:42:11.998Z</time></trkpt><trkpt lat="42.58251709249543" lon="13.958860861426498"><ele>308.0</ele><time>2026-03-29T08:42:12.998Z</time></trkpt><trkpt lat="42.58262077430552" lon="13.958955857414143"><ele>308.0</ele><time>2026-03-29T08:42:13.998Z</time></trkpt><trkpt lat="42.58269278285903" lon="13.959060772820724"><ele>308.0</ele><time>2026-03-29T08:42:14.998Z</time></trkpt><trkpt lat="42.58273553639498" lon="13.959171334932876"><ele>304.0</ele><time>2026-03-29T08:42:16Z</time></trkpt><trkpt lat="42.58270191354715" lon="13.959282948925749"><ele>300.0</ele><time>2026-03-29T08:42:17Z</time></trkpt><trkpt lat="42.582738130460314" lon="13.959449490129396"><ele>296.0</ele><time>2026-03-29T08:42:19Z</time></trkpt><trkpt lat="42.58283201958143" lon="13.959494505928202"><ele>292.0</ele><time>2026-03-29T08:42:21Z</time></trkpt><trkpt lat="42.5828731818199" lon="13.95942403064001"><ele>288.0</ele><time>2026-03-29T08:42:22Z</time></trkpt><trkpt lat="42.58288513976474" lon="13.959316178557799"><ele>285.6</ele><time>2026-03-29T08:42:23Z</time></trkpt><trkpt lat="42.58287647202878" lon="13.959195962645325"><ele>283.20000000000005</ele><time>2026-03-29T08:42:24Z</time></trkpt><trkpt lat="42.58286416597808" lon="13.959056669389446"><ele>280.8</ele><time>2026-03-29T08:42:25Z</time></trkpt><trkpt lat="42.582853780168676" lon="13.958893538662622"><ele>278.40000000000003</ele><time>2026-03-29T08:42:26Z</time></trkpt><trkpt lat="42.58281203606827" lon="13.958723210386589"><ele>276.0</ele><time>2026-03-29T08:42:27Z</time></trkpt><trkpt lat="42.58273948328658" lon="13.958552527683452"><ele>282.5</ele><time>2026-03-29T08:42:28Z</time></trkpt><trkpt lat="42.58265641075372" lon="13.958378360411947"><ele>289.0</ele><time>2026-03-29T08:42:29Z</time></trkpt><trkpt lat="42.582617657793826" lon="13.958194454965733"><ele>295.5</ele><time>2026-03-29T08:42:30Z</time></trkpt><trkpt lat="42.5825844558187" lon="13.958015450087617"><ele>302.0</ele><time>2026-03-29T08:42:31Z</time></trkpt><trkpt lat="42.58257145003409" lon="13.957837162739787"><ele>302.0</ele><time>2026-03-29T08:42:32Z</time></trkpt><trkpt lat="42.58258069645937" lon="13.957655274755565"><ele>302.0</ele><time>2026-03-29T08:42:33Z</time></trkpt><trkpt lat="42.58261289650736" lon="13.95746523849852"><ele>302.0</ele><time>2026-03-29T08:42:34Z</time></trkpt><trkpt lat="42.582656392428056" lon="13.957260789993686"><ele>302.0</ele><time>2026-03-29T08:42:35Z</time></trkpt><trkpt lat="42.5826877960392" lon="13.957073405632267"><ele>299.5</ele><time>2026-03-29T08:42:36Z</time></trkpt><trkpt lat="42.582721190714516" lon="13.956921295564461"><ele>297.0</ele><time>2026-03-29T08:42:37Z</time></trkpt><trkpt lat="42.58273553094089" lon="13.956765140744393"><ele>294.5</ele><time>2026-03-29T08:42:38Z</time></trkpt><trkpt lat="42.58271361846497" lon="13.956588512729132"><ele>292.0</ele><time>2026-03-29T08:42:39Z</time></trkpt><trkpt lat="42.5826544648436" lon="13.956392785791458"><ele>289.66666666666663</ele><time>2026-03-29T08:42:40Z</time></trkpt><trkpt lat="42.58256963500757" lon="13.956196335328853"><ele>287.3333333333333</ele><time>2026-03-29T08:42:41Z</time></trkpt><trkpt lat="42.58247228566343" lon="13.956010445152895"><ele>285.0</ele><time>2026-03-29T08:42:42Z</time></trkpt><trkpt lat="42.582377980952366" lon="13.955822457114463"><ele>282.3333333333333</ele><time>2026-03-29T08:42:43Z</time></trkpt><trkpt lat="42.58228963291958" lon="13.955634939923495"><ele>279.66666666666663</ele><time>2026-03-29T08:42:44Z</time></trkpt><trkpt lat="42.58221015210311" lon="13.955452043230268"><ele>277.0</ele><time>2026-03-29T08:42:45Z</time></trkpt><trkpt lat="42.58213566172816" lon="13.955279045936061"><ele>277.0</ele><time>2026-03-29T08:42:46Z</time></trkpt><trkpt lat="42.58206803169119" lon="13.95511690885243"><ele>277.0</ele><time>2026-03-29T08:42:47Z</time></trkpt><trkpt lat="42.582020035126696" lon="13.954962853931441"><ele>277.0</ele><time>2026-03-29T08:42:48Z</time></trkpt><trkpt lat="42.58199207592898" lon="13.954842908726505"><ele>277.0</ele><time>2026-03-29T08:42:49Z</time></trkpt><trkpt lat="42.58198820885214" lon="13.954736232671245"><ele>277.0</ele><time>2026-03-29T08:42:50Z</time></trkpt><trkpt lat="42.581996553220485" lon="13.954642120297256"><ele>277.75</ele><time>2026-03-29T08:42:51Z</time></trkpt><trkpt lat="42.58184416596307" lon="13.954537173749921"><ele>278.5</ele><time>2026-03-29T08:42:52Z</time></trkpt><trkpt lat="42.58175683842961" lon="13.954430405694463"><ele>279.25</ele><time>2026-03-29T08:42:53Z</time></trkpt><trkpt lat="42.58168040422116" lon="13.95429443714393"><ele>280.0</ele><time>2026-03-29T08:42:54Z</time></trkpt><trkpt lat="42.58160256964704" lon="13.954148090231778"><ele>278.25</ele><time>2026-03-29T08:42:55Z</time></trkpt><trkpt lat="42.58150934095832" lon="13.954007508037403"><ele>276.5</ele><time>2026-03-29T08:42:56Z</time></trkpt><trkpt lat="42.58139074408243" lon="13.953889570923069"><ele>274.75</ele><time>2026-03-29T08:42:57Z</time></trkpt><trkpt lat="42.58125101605638" lon="13.953789979607087"><ele>273.0</ele><time>2026-03-29T08:42:58Z</time></trkpt><trkpt lat="42.58109857399658" lon="13.953712848687697"><ele>273.0</ele><time>2026-03-29T08:42:59Z</time></trkpt><trkpt lat="42.580963175418624" lon="13.953635769036637"><ele>273.0</ele><time>2026-03-29T08:43:00Z</time></trkpt><trkpt lat="42.58084868325443" lon="13.95352380420346"><ele>273.0</ele><time>2026-03-29T08:43:01Z</time></trkpt><trkpt lat="42.580744295032865" lon="13.953369930056171"><ele>273.0</ele><time>2026-03-29T08:43:02Z</time></trkpt><trkpt lat="42.58064497880845" lon="13.953232991298325"><ele>274.25</ele><time>2026-03-29T08:43:03Z</time></trkpt><trkpt lat="42.58053786692503" lon="13.953119010811465"><ele>275.5</ele><time>2026-03-29T08:43:04Z</time></trkpt><trkpt lat="42.58040097608204" lon="13.953031559618802"><ele>276.75</ele><time>2026-03-29T08:43:05Z</time></trkpt><trkpt lat="42.58025424189477" lon="13.95297173495782"><ele>278.0</ele><time>2026-03-29T08:43:06Z</time></trkpt><trkpt lat="42.580118777148826" lon="13.952919343413063"><ele>278.0</ele><time>2026-03-29T08:43:07Z</time></trkpt><trkpt lat="42.58000431539792" lon="13.952830515504845"><ele>278.0</ele><time>2026-03-29T08:43:08Z</time></trkpt><trkpt lat="42.57992093426773" lon="13.95267677435693"><ele>278.0</ele><time>2026-03-29T08:43:09Z</time></trkpt><trkpt lat="42.579817642805644" lon="13.95253669435461"><ele>278.0</ele><time>2026-03-29T08:43:10Z</time></trkpt><trkpt lat="42.57972210792004" lon="13.952416947954905"><ele>279.25</ele><time>2026-03-29T08:43:11Z</time></trkpt><trkpt lat="42.57959838661725" lon="13.952345324157326"><ele>280.5</ele><time>2026-03-29T08:43:12Z</time></trkpt><trkpt lat="42.57946690481839" lon="13.95230437152989"><ele>281.75</ele><time>2026-03-29T08:43:13Z</time></trkpt><trkpt lat="42.57933803271113" lon="13.952270292492063"><ele>283.0</ele><time>2026-03-29T08:43:14Z</time></trkpt><trkpt lat="42.57921010136182" lon="13.952230327142747"><ele>283.0</ele><time>2026-03-29T08:43:15Z</time></trkpt><trkpt lat="42.57908925009718" lon="13.952185906954757"><ele>283.0</ele><time>2026-03-29T08:43:16Z</time></trkpt><trkpt lat="42.578971278018216" lon="13.952118991915205"><ele>283.0</ele><time>2026-03-29T08:43:17Z</time></trkpt><trkpt lat="42.57884555462186" lon="13.95202196880134"><ele>283.0</ele><time>2026-03-29T08:43:17.999Z</time></trkpt><trkpt lat="42.578721117145875" lon="13.95192045486591"><ele>283.0</ele><time>2026-03-29T08:43:18.999Z</time></trkpt><trkpt lat="42.57860086207235" lon="13.95181763820762"><ele>283.0</ele><time>2026-03-29T08:43:19.999Z</time></trkpt><trkpt lat="42.57848534377157" lon="13.951723568298599"><ele>283.0</ele><time>2026-03-29T08:43:20.999Z</time></trkpt><trkpt lat="42.578368495321264" lon="13.951634523851123"><ele>283.0</ele><time>2026-03-29T08:43:21.999Z</time></trkpt><trkpt lat="42.57825182214508" lon="13.9515521477456"><ele>282.25</ele><time>2026-03-29T08:43:22.999Z</time></trkpt><trkpt lat="42.57813065510413" lon="13.951479733411954"><ele>281.5</ele><time>2026-03-29T08:43:23.999Z</time></trkpt><trkpt lat="42.5780046094672" lon="13.951427478743865"><ele>280.75</ele><time>2026-03-29T08:43:24.999Z</time></trkpt><trkpt lat="42.57788685808502" lon="13.951386985292698"><ele>280.0</ele><time>2026-03-29T08:43:25.999Z</time></trkpt><trkpt lat="42.57778856961469" lon="13.951340151809818"><ele>280.0</ele><time>2026-03-29T08:43:26.999Z</time></trkpt><trkpt lat="42.57769501209904" lon="13.951280233089106"><ele>280.0</ele><time>2026-03-29T08:43:27.999Z</time></trkpt><trkpt lat="42.57760792489389" lon="13.951210427096745"><ele>280.0</ele><time>2026-03-29T08:43:28.999Z</time></trkpt><trkpt lat="42.57753604098941" lon="13.951100800471496"><ele>280.0</ele><time>2026-03-29T08:43:29.999Z</time></trkpt><trkpt lat="42.57750320524819" lon="13.950954017578958"><ele>280.0</ele><time>2026-03-29T08:43:30.999Z</time></trkpt><trkpt lat="42.57747626363016" lon="13.950798326295015"><ele>277.0</ele><time>2026-03-29T08:43:31.999Z</time></trkpt><trkpt lat="42.57744606374088" lon="13.95063088535136"><ele>274.0</ele><time>2026-03-29T08:43:32.999Z</time></trkpt><trkpt lat="42.57743302228539" lon="13.95044897742021"><ele>271.0</ele><time>2026-03-29T08:43:33.999Z</time></trkpt><trkpt lat="42.5774122293998" lon="13.950260064834309"><ele>268.0</ele><time>2026-03-29T08:43:34.999Z</time></trkpt><trkpt lat="42.57739185955096" lon="13.950079573919176"><ele>267.5</ele><time>2026-03-29T08:43:35.999Z</time></trkpt><trkpt lat="42.57739275937071" lon="13.949891910742855"><ele>267.0</ele><time>2026-03-29T08:43:36.999Z</time></trkpt><trkpt lat="42.57738449867631" lon="13.949706540490947"><ele>266.5</ele><time>2026-03-29T08:43:37.999Z</time></trkpt><trkpt lat="42.57737605753183" lon="13.949515713780432"><ele>266.0</ele><time>2026-03-29T08:43:38.999Z</time></trkpt><trkpt lat="42.57735159705592" lon="13.949313439162118"><ele>266.25</ele><time>2026-03-29T08:43:39.999Z</time></trkpt><trkpt lat="42.577351076058356" lon="13.949114338658246"><ele>266.5</ele><time>2026-03-29T08:43:40.999Z</time></trkpt><trkpt lat="42.57734314899646" lon="13.948931666619362"><ele>266.75</ele><time>2026-03-29T08:43:41.999Z</time></trkpt><trkpt lat="42.57735390962617" lon="13.948743445146409"><ele>267.0</ele><time>2026-03-29T08:43:42.999Z</time></trkpt><trkpt lat="42.57733957485026" lon="13.948565695452073"><ele>267.0</ele><time>2026-03-29T08:43:43.999Z</time></trkpt><trkpt lat="42.577366675154074" lon="13.948392028827561"><ele>267.0</ele><time>2026-03-29T08:43:44.999Z</time></trkpt><trkpt lat="42.57736391061882" lon="13.948221515663697"><ele>267.0</ele><time>2026-03-29T08:43:45.999Z</time></trkpt><trkpt lat="42.57738047378257" lon="13.948048753966253"><ele>267.0</ele><time>2026-03-29T08:43:46.999Z</time></trkpt><trkpt lat="42.577412456264184" lon="13.947873527974497"><ele>266.25</ele><time>2026-03-29T08:43:47.999Z</time></trkpt><trkpt lat="42.577429095540175" lon="13.947688786837327"><ele>265.5</ele><time>2026-03-29T08:43:48.999Z</time></trkpt><trkpt lat="42.57742401305698" lon="13.94751027990832"><ele>264.75</ele><time>2026-03-29T08:43:49.999Z</time></trkpt><trkpt lat="42.57743415885609" lon="13.94733949280319"><ele>264.0</ele><time>2026-03-29T08:43:50.999Z</time></trkpt><trkpt lat="42.57742416484067" lon="13.947178860705579"><ele>263.25</ele><time>2026-03-29T08:43:51.999Z</time></trkpt><trkpt lat="42.57738616086114" lon="13.947022717197397"><ele>262.5</ele><time>2026-03-29T08:43:52.999Z</time></trkpt><trkpt lat="42.57731988894258" lon="13.94685818984299"><ele>261.75</ele><time>2026-03-29T08:43:53.999Z</time></trkpt><trkpt lat="42.577233245558965" lon="13.94669747841168"><ele>261.0</ele><time>2026-03-29T08:43:54.999Z</time></trkpt><trkpt lat="42.57713181651638" lon="13.946551144692236"><ele>259.0</ele><time>2026-03-29T08:43:55.999Z</time></trkpt><trkpt lat="42.57705015999043" lon="13.946417152921423"><ele>257.0</ele><time>2026-03-29T08:43:56.999Z</time></trkpt><trkpt lat="42.57698845592068" lon="13.946267159786549"><ele>255.0</ele><time>2026-03-29T08:43:57.999Z</time></trkpt><trkpt lat="42.57693996852153" lon="13.946121446877775"><ele>253.0</ele><time>2026-03-29T08:43:58.999Z</time></trkpt><trkpt lat="42.57690837668816" lon="13.945977091550983"><ele>254.4</ele><time>2026-03-29T08:43:59.999Z</time></trkpt><trkpt lat="42.57687989341162" lon="13.94584557033536"><ele>255.8</ele><time>2026-03-29T08:44:00.999Z</time></trkpt><trkpt lat="42.5768411552673" lon="13.945738355405966"><ele>257.2</ele><time>2026-03-29T08:44:01.999Z</time></trkpt><trkpt lat="42.5767846322075" lon="13.945644175365963"><ele>258.6</ele><time>2026-03-29T08:44:02.999Z</time></trkpt><trkpt lat="42.57669877460775" lon="13.945579808953418"><ele>260.0</ele><time>2026-03-29T08:44:03.999Z</time></trkpt><trkpt lat="42.5765863975393" lon="13.945558209671933"><ele>260.0</ele><time>2026-03-29T08:44:04.999Z</time></trkpt><trkpt lat="42.57645706587434" lon="13.945565658720929"><ele>260.0</ele><time>2026-03-29T08:44:05.999Z</time></trkpt><trkpt lat="42.57631501601114" lon="13.945578802934515"><ele>260.0</ele><time>2026-03-29T08:44:06.999Z</time></trkpt><trkpt lat="42.5761639545185" lon="13.945557672082696"><ele>260.0</ele><time>2026-03-29T08:44:07.999Z</time></trkpt><trkpt lat="42.576006421412906" lon="13.94549525524511"><ele>261.33333333333337</ele><time>2026-03-29T08:44:08.999Z</time></trkpt><trkpt lat="42.57584110211057" lon="13.945439837973815"><ele>262.6666666666667</ele><time>2026-03-29T08:44:09.999Z</time></trkpt><trkpt lat="42.575683213339275" lon="13.945390668045112"><ele>264.0</ele><time>2026-03-29T08:44:10.999Z</time></trkpt><trkpt lat="42.57553515227731" lon="13.945344619493385"><ele>264.0</ele><time>2026-03-29T08:44:11.999Z</time></trkpt><trkpt lat="42.57539158141542" lon="13.945299622799864"><ele>264.0</ele><time>2026-03-29T08:44:12.999Z</time></trkpt><trkpt lat="42.57524830640708" lon="13.945256719719705"><ele>264.0</ele><time>2026-03-29T08:44:13.998Z</time></trkpt><trkpt lat="42.57511852103514" lon="13.945212715599842"><ele>264.0</ele><time>2026-03-29T08:44:14.998Z</time></trkpt><trkpt lat="42.575011604822464" lon="13.945166242961342"><ele>263.59999999999997</ele><time>2026-03-29T08:44:15.998Z</time></trkpt><trkpt lat="42.57492063214907" lon="13.945125760847661"><ele>263.2</ele><time>2026-03-29T08:44:16.998Z</time></trkpt><trkpt lat="42.574857465338525" lon="13.945103097610817"><ele>262.79999999999995</ele><time>2026-03-29T08:44:17.998Z</time></trkpt><trkpt lat="42.5747667024614" lon="13.94509248679135"><ele>262.4</ele><time>2026-03-29T08:44:19.998Z</time></trkpt><trkpt lat="42.574718155752436" lon="13.944905019733229"><ele>262.0</ele><time>2026-03-29T08:44:29Z</time></trkpt><trkpt lat="42.57474942087113" lon="13.944790680559407"><ele>260.0</ele><time>2026-03-29T08:44:30Z</time></trkpt><trkpt lat="42.57477675222297" lon="13.944665651270704"><ele>258.0</ele><time>2026-03-29T08:44:31Z</time></trkpt><trkpt lat="42.57480073815228" lon="13.944538543315005"><ele>256.0</ele><time>2026-03-29T08:44:32Z</time></trkpt><trkpt lat="42.574820941142676" lon="13.944403018840399"><ele>254.0</ele><time>2026-03-29T08:44:33Z</time></trkpt><trkpt lat="42.57484440304991" lon="13.944271582298663"><ele>252.0</ele><time>2026-03-29T08:44:34Z</time></trkpt><trkpt lat="42.57486500333173" lon="13.9441328686585"><ele>251.5</ele><time>2026-03-29T08:44:35Z</time></trkpt><trkpt lat="42.574881379368385" lon="13.944023651296256"><ele>251.0</ele><time>2026-03-29T08:44:36Z</time></trkpt><trkpt lat="42.574900036328" lon="13.943931612821293"><ele>250.5</ele><time>2026-03-29T08:44:37Z</time></trkpt><trkpt lat="42.57492227183426" lon="13.943830805351121"><ele>250.0</ele><time>2026-03-29T08:44:39Z</time></trkpt><trkpt lat="42.574939228834715" lon="13.943718476534075"><ele>249.5</ele><time>2026-03-29T08:44:43Z</time></trkpt><trkpt lat="42.57496935180797" lon="13.943814541881082"><ele>249.0</ele><time>2026-03-29T08:44:48Z</time></trkpt><trkpt lat="42.57489319263909" lon="13.943893887071656"><ele>249.0</ele><time>2026-03-29T08:44:51Z</time></trkpt><trkpt lat="42.57486239947448" lon="13.944040561725824"><ele>249.0</ele><time>2026-03-29T08:44:53Z</time></trkpt><trkpt lat="42.57484927857613" lon="13.94413451345422"><ele>249.0</ele><time>2026-03-29T08:44:54Z</time></trkpt><trkpt lat="42.57483796753945" lon="13.944223125432233"><ele>249.0</ele><time>2026-03-29T08:44:55Z</time></trkpt><trkpt lat="42.57480990871681" lon="13.944390349217503"><ele>249.0</ele><time>2026-03-29T08:44:57Z</time></trkpt><trkpt lat="42.574793743422475" lon="13.944481554763051"><ele>249.0</ele><time>2026-03-29T08:44:58Z</time></trkpt><trkpt lat="42.57477499442914" lon="13.944581536392802"><ele>249.5</ele><time>2026-03-29T08:44:59Z</time></trkpt><trkpt lat="42.57475776879505" lon="13.944676144797715"><ele>250.0</ele><time>2026-03-29T08:45:00Z</time></trkpt><trkpt lat="42.5747483443561" lon="13.94476729856039"><ele>250.5</ele><time>2026-03-29T08:45:01Z</time></trkpt><trkpt lat="42.57473465614294" lon="13.944857598594819"><ele>251.0</ele><time>2026-03-29T08:45:02Z</time></trkpt><trkpt lat="42.5747130801141" lon="13.945002620170552"><ele>251.5</ele><time>2026-03-29T08:45:04Z</time></trkpt><trkpt lat="42.57472122562187" lon="13.945095843918402"><ele>252.0</ele><time>2026-03-29T08:45:07Z</time></trkpt><trkpt lat="42.574704777505644" lon="13.945202610175063"><ele>254.0</ele><time>2026-03-29T08:51:21.999Z</time></trkpt><trkpt lat="42.5746424803973" lon="13.945270275038089"><ele>256.0</ele><time>2026-03-29T08:51:23.999Z</time></trkpt><trkpt lat="42.57459189186634" lon="13.94542199938998"><ele>258.0</ele><time>2026-03-29T08:51:25.999Z</time></trkpt><trkpt lat="42.5745683181691" lon="13.94554639028811"><ele>260.0</ele><time>2026-03-29T08:51:26.999Z</time></trkpt><trkpt lat="42.5745465712715" lon="13.945677164787146"><ele>262.0</ele><time>2026-03-29T08:51:27.999Z</time></trkpt><trkpt lat="42.57451591399487" lon="13.94583781004406"><ele>259.25</ele><time>2026-03-29T08:51:28.999Z</time></trkpt><trkpt lat="42.57446192517875" lon="13.946036091877541"><ele>256.5</ele><time>2026-03-29T08:51:29.999Z</time></trkpt><trkpt lat="42.57439224526534" lon="13.946215992531792"><ele>253.75</ele><time>2026-03-29T08:51:30.999Z</time></trkpt><trkpt lat="42.574325811487505" lon="13.946367457214377"><ele>251.0</ele><time>2026-03-29T08:51:31.999Z</time></trkpt><trkpt lat="42.57425176673281" lon="13.946514235984527"><ele>251.0</ele><time>2026-03-29T08:51:32.999Z</time></trkpt><trkpt lat="42.57416597019899" lon="13.946633167980233"><ele>251.0</ele><time>2026-03-29T08:51:33.999Z</time></trkpt><trkpt lat="42.57406407324939" lon="13.946733695117588"><ele>251.0</ele><time>2026-03-29T08:51:34.999Z</time></trkpt><trkpt lat="42.57393587263524" lon="13.946818975191654"><ele>251.0</ele><time>2026-03-29T08:51:35.999Z</time></trkpt><trkpt lat="42.573783606067124" lon="13.946889810455003"><ele>251.33333333333334</ele><time>2026-03-29T08:51:36.999Z</time></trkpt><trkpt lat="42.57363094574699" lon="13.94696038939023"><ele>251.66666666666669</ele><time>2026-03-29T08:51:37.999Z</time></trkpt><trkpt lat="42.573472321568104" lon="13.947038430993723"><ele>252.0</ele><time>2026-03-29T08:51:38.999Z</time></trkpt><trkpt lat="42.57331912668549" lon="13.947109553447895"><ele>252.0</ele><time>2026-03-29T08:51:39.999Z</time></trkpt><trkpt lat="42.57317116643356" lon="13.94717927389314"><ele>252.0</ele><time>2026-03-29T08:51:40.999Z</time></trkpt><trkpt lat="42.5730286150438" lon="13.947244210198681"><ele>252.0</ele><time>2026-03-29T08:51:41.999Z</time></trkpt><trkpt lat="42.57288672302038" lon="13.947304891114529"><ele>249.75</ele><time>2026-03-29T08:51:42.999Z</time></trkpt><trkpt lat="42.57274522008104" lon="13.94736478335307"><ele>247.5</ele><time>2026-03-29T08:51:43.999Z</time></trkpt><trkpt lat="42.57260994260323" lon="13.947431864740846"><ele>245.25</ele><time>2026-03-29T08:51:44.999Z</time></trkpt><trkpt lat="42.57247808886778" lon="13.947508110858037"><ele>243.0</ele><time>2026-03-29T08:51:45.999Z</time></trkpt><trkpt lat="42.572354493160994" lon="13.947603915996423"><ele>241.75</ele><time>2026-03-29T08:51:46.999Z</time></trkpt><trkpt lat="42.57224453329579" lon="13.947717576070005"><ele>240.5</ele><time>2026-03-29T08:51:47.999Z</time></trkpt><trkpt lat="42.572143585400944" lon="13.947834341167294"><ele>239.25</ele><time>2026-03-29T08:51:48.999Z</time></trkpt><trkpt lat="42.57204902683452" lon="13.94793591026603"><ele>238.0</ele><time>2026-03-29T08:51:49.999Z</time></trkpt><trkpt lat="42.57194625412945" lon="13.94800508788542"><ele>234.75</ele><time>2026-03-29T08:51:50.999Z</time></trkpt><trkpt lat="42.57182252699879" lon="13.94803687520269"><ele>231.5</ele><time>2026-03-29T08:51:51.999Z</time></trkpt><trkpt lat="42.571694691288016" lon="13.948036761700484"><ele>228.25</ele><time>2026-03-29T08:51:52.999Z</time></trkpt><trkpt lat="42.571569754331925" lon="13.947970761735354"><ele>225.0</ele><time>2026-03-29T08:51:53.999Z</time></trkpt><trkpt lat="42.571429814782874" lon="13.947932940835242"><ele>225.0</ele><time>2026-03-29T08:51:54.998Z</time></trkpt><trkpt lat="42.571283105809826" lon="13.947856806654446"><ele>225.0</ele><time>2026-03-29T08:51:55.998Z</time></trkpt><trkpt lat="42.57112218099278" lon="13.947790660862085"><ele>225.0</ele><time>2026-03-29T08:51:56.998Z</time></trkpt><trkpt lat="42.57096848375153" lon="13.947731111085046"><ele>227.75</ele><time>2026-03-29T08:51:57.998Z</time></trkpt><trkpt lat="42.5708287863244" lon="13.947674339103505"><ele>230.5</ele><time>2026-03-29T08:51:58.998Z</time></trkpt><trkpt lat="42.57070013815187" lon="13.947612646129468"><ele>233.25</ele><time>2026-03-29T08:51:59.998Z</time></trkpt><trkpt lat="42.5705891458437" lon="13.947514546635691"><ele>236.0</ele><time>2026-03-29T08:52:00.998Z</time></trkpt><trkpt lat="42.57046983387599" lon="13.94743456341665"><ele>236.0</ele><time>2026-03-29T08:52:01.998Z</time></trkpt><trkpt lat="42.57037083224215" lon="13.947316597952854"><ele>236.0</ele><time>2026-03-29T08:52:02.998Z</time></trkpt><trkpt lat="42.57028208964417" lon="13.947178246349097"><ele>236.0</ele><time>2026-03-29T08:52:03.998Z</time></trkpt><trkpt lat="42.57021067342284" lon="13.94702288599458"><ele>236.0</ele><time>2026-03-29T08:52:04.998Z</time></trkpt><trkpt lat="42.57013322234728" lon="13.946873821298858"><ele>233.0</ele><time>2026-03-29T08:52:05.998Z</time></trkpt><trkpt lat="42.57001913705779" lon="13.946760716816149"><ele>230.0</ele><time>2026-03-29T08:52:06.998Z</time></trkpt><trkpt lat="42.56987399357089" lon="13.94667252753874"><ele>227.0</ele><time>2026-03-29T08:52:07.998Z</time></trkpt><trkpt lat="42.569736866344755" lon="13.94658791514506"><ele>227.0</ele><time>2026-03-29T08:52:08.998Z</time></trkpt><trkpt lat="42.56963497927805" lon="13.94645480036042"><ele>227.0</ele><time>2026-03-29T08:52:09.998Z</time></trkpt><trkpt lat="42.569523858083784" lon="13.946327202729872"><ele>227.0</ele><time>2026-03-29T08:52:10.998Z</time></trkpt><trkpt lat="42.56942110422922" lon="13.946159922168796"><ele>227.0</ele><time>2026-03-29T08:52:11.998Z</time></trkpt><trkpt lat="42.56930753711389" lon="13.945987577802343"><ele>224.33333333333334</ele><time>2026-03-29T08:52:12.998Z</time></trkpt><trkpt lat="42.56919739374803" lon="13.945826749302281"><ele>221.66666666666669</ele><time>2026-03-29T08:52:13.998Z</time></trkpt><trkpt lat="42.56909176016218" lon="13.945675156709152"><ele>219.0</ele><time>2026-03-29T08:52:14.998Z</time></trkpt><trkpt lat="42.568993530512124" lon="13.945541116236386"><ele>219.0</ele><time>2026-03-29T08:52:15.998Z</time></trkpt><trkpt lat="42.56888207834868" lon="13.94542746976619"><ele>219.0</ele><time>2026-03-29T08:52:16.998Z</time></trkpt><trkpt lat="42.56874259326229" lon="13.945339353088489"><ele>219.0</ele><time>2026-03-29T08:52:17.998Z</time></trkpt><trkpt lat="42.56857545317906" lon="13.94527298326284"><ele>213.33333333333331</ele><time>2026-03-29T08:52:18.998Z</time></trkpt><trkpt lat="42.568386512980986" lon="13.94522952153737"><ele>207.66666666666666</ele><time>2026-03-29T08:52:19.998Z</time></trkpt><trkpt lat="42.56821701168039" lon="13.945190710424336"><ele>202.0</ele><time>2026-03-29T08:52:20.998Z</time></trkpt><trkpt lat="42.568072529204464" lon="13.94511944422503"><ele>202.0</ele><time>2026-03-29T08:52:21.998Z</time></trkpt><trkpt lat="42.56793396296864" lon="13.945075489037222"><ele>202.0</ele><time>2026-03-29T08:52:22.998Z</time></trkpt><trkpt lat="42.56781111543939" lon="13.944996657453402"><ele>202.0</ele><time>2026-03-29T08:52:23.998Z</time></trkpt><trkpt lat="42.56770665055157" lon="13.944873036247076"><ele>202.0</ele><time>2026-03-29T08:52:24.998Z</time></trkpt><trkpt lat="42.56759501940823" lon="13.944755898182397"><ele>202.0</ele><time>2026-03-29T08:52:25.998Z</time></trkpt><trkpt lat="42.56750747216898" lon="13.944594435342939"><ele>202.0</ele><time>2026-03-29T08:52:26.998Z</time></trkpt><trkpt lat="42.56744504418772" lon="13.944460038624287"><ele>202.0</ele><time>2026-03-29T08:52:27.998Z</time></trkpt><trkpt lat="42.567407231724374" lon="13.94433064923239"><ele>202.0</ele><time>2026-03-29T08:52:28.998Z</time></trkpt><trkpt lat="42.56739406365004" lon="13.944216386376723"><ele>202.5</ele><time>2026-03-29T08:52:29.998Z</time></trkpt><trkpt lat="42.567430494864055" lon="13.94410419147797"><ele>203.0</ele><time>2026-03-29T08:52:30.998Z</time></trkpt><trkpt lat="42.56750543038653" lon="13.944002627627833"><ele>203.5</ele><time>2026-03-29T08:52:31.998Z</time></trkpt><trkpt lat="42.567612208713825" lon="13.943898049404263"><ele>204.0</ele><time>2026-03-29T08:52:32.998Z</time></trkpt><trkpt lat="42.56772310473771" lon="13.943790604460627"><ele>204.0</ele><time>2026-03-29T08:52:33.998Z</time></trkpt><trkpt lat="42.56785010994373" lon="13.94371143086539"><ele>204.0</ele><time>2026-03-29T08:52:34.998Z</time></trkpt><trkpt lat="42.567980819796965" lon="13.943647396168986"><ele>204.0</ele><time>2026-03-29T08:52:35.998Z</time></trkpt><trkpt lat="42.568134872073" lon="13.943575564907931"><ele>204.0</ele><time>2026-03-29T08:52:36.998Z</time></trkpt><trkpt lat="42.56829032111886" lon="13.943559766053752"><ele>204.33333333333331</ele><time>2026-03-29T08:52:37.998Z</time></trkpt><trkpt lat="42.568439677760544" lon="13.943594599706019"><ele>204.66666666666666</ele><time>2026-03-29T08:52:38.998Z</time></trkpt><trkpt lat="42.56859846048932" lon="13.943623134439159"><ele>205.0</ele><time>2026-03-29T08:52:39.998Z</time></trkpt><trkpt lat="42.568734014265004" lon="13.94369485876992"><ele>205.0</ele><time>2026-03-29T08:52:40.998Z</time></trkpt><trkpt lat="42.56883815997193" lon="13.943758583950167"><ele>205.0</ele><time>2026-03-29T08:52:41.998Z</time></trkpt><trkpt lat="42.56891521047085" lon="13.943788994803231"><ele>205.0</ele><time>2026-03-29T08:52:43Z</time></trkpt><trkpt lat="42.569006724991056" lon="13.943767723222837"><ele>205.0</ele><time>2026-03-29T08:52:44Z</time></trkpt><trkpt lat="42.569087523254225" lon="13.943679349322574"><ele>205.0</ele><time>2026-03-29T08:52:45Z</time></trkpt><trkpt lat="42.56913323324481" lon="13.943551233611986"><ele>205.0</ele><time>2026-03-29T08:52:46Z</time></trkpt><trkpt lat="42.56914872489101" lon="13.943393516064555"><ele>205.0</ele><time>2026-03-29T08:52:47Z</time></trkpt><trkpt lat="42.56913999751802" lon="13.943203722031516"><ele>205.0</ele><time>2026-03-29T08:52:48Z</time></trkpt><trkpt lat="42.569146102405526" lon="13.942993739768564"><ele>205.0</ele><time>2026-03-29T08:52:49Z</time></trkpt><trkpt lat="42.56914735797508" lon="13.9427920762486"><ele>202.75</ele><time>2026-03-29T08:52:50Z</time></trkpt><trkpt lat="42.56914860509778" lon="13.942591769660481"><ele>200.5</ele><time>2026-03-29T08:52:51Z</time></trkpt><trkpt lat="42.56914865350619" lon="13.942397040642282"><ele>198.25</ele><time>2026-03-29T08:52:52Z</time></trkpt><trkpt lat="42.569134199581676" lon="13.942245966808393"><ele>196.0</ele><time>2026-03-29T08:52:53Z</time></trkpt><trkpt lat="42.569135712097946" lon="13.942116308624959"><ele>194.8</ele><time>2026-03-29T08:52:54Z</time></trkpt><trkpt lat="42.569113136759185" lon="13.942010582238675"><ele>193.60000000000002</ele><time>2026-03-29T08:52:55Z</time></trkpt><trkpt lat="42.56904832513353" lon="13.941905636025167"><ele>192.4</ele><time>2026-03-29T08:52:56Z</time></trkpt><trkpt lat="42.56894284645145" lon="13.941815644179801"><ele>191.2</ele><time>2026-03-29T08:52:57Z</time></trkpt><trkpt lat="42.56881372790848" lon="13.941770609375524"><ele>190.0</ele><time>2026-03-29T08:52:58Z</time></trkpt><trkpt lat="42.56865233299753" lon="13.941743667391588"><ele>191.0</ele><time>2026-03-29T08:52:59Z</time></trkpt><trkpt lat="42.56847502892596" lon="13.941712417198895"><ele>192.0</ele><time>2026-03-29T08:53:00Z</time></trkpt><trkpt lat="42.568306257940925" lon="13.94168373045061"><ele>193.0</ele><time>2026-03-29T08:53:01Z</time></trkpt><trkpt lat="42.56814421658872" lon="13.941671291593059"><ele>193.0</ele><time>2026-03-29T08:53:02Z</time></trkpt><trkpt lat="42.56798882531818" lon="13.94165128639472"><ele>193.0</ele><time>2026-03-29T08:53:03Z</time></trkpt><trkpt lat="42.56783928250912" lon="13.941586880707929"><ele>193.0</ele><time>2026-03-29T08:53:04Z</time></trkpt><trkpt lat="42.567692872766344" lon="13.941506334210699"><ele>188.0</ele><time>2026-03-29T08:53:05Z</time></trkpt><trkpt lat="42.567527595919" lon="13.941424030961945"><ele>183.0</ele><time>2026-03-29T08:53:06Z</time></trkpt><trkpt lat="42.56736770433072" lon="13.941308049460899"><ele>178.0</ele><time>2026-03-29T08:53:07Z</time></trkpt><trkpt lat="42.56720409281293" lon="13.94120036959246"><ele>178.0</ele><time>2026-03-29T08:53:08Z</time></trkpt><trkpt lat="42.56704600507201" lon="13.941101020471939"><ele>178.0</ele><time>2026-03-29T08:53:09Z</time></trkpt><trkpt lat="42.56690626028175" lon="13.941005313166212"><ele>178.0</ele><time>2026-03-29T08:53:10Z</time></trkpt><trkpt lat="42.56680290388331" lon="13.940922926688241"><ele>177.0</ele><time>2026-03-29T08:53:11Z</time></trkpt><trkpt lat="42.56671485212507" lon="13.940842664130708"><ele>176.0</ele><time>2026-03-29T08:53:12Z</time></trkpt><trkpt lat="42.5666631773489" lon="13.940716476167566"><ele>175.0</ele><time>2026-03-29T08:53:13Z</time></trkpt><trkpt lat="42.566633939970615" lon="13.940597440581818"><ele>174.0</ele><time>2026-03-29T08:53:13.999Z</time></trkpt><trkpt lat="42.566609677739386" lon="13.940458533112576"><ele>173.0</ele><time>2026-03-29T08:53:14.999Z</time></trkpt><trkpt lat="42.56661250918032" lon="13.940284041875127"><ele>173.0</ele><time>2026-03-29T08:53:15.999Z</time></trkpt><trkpt lat="42.56660012916344" lon="13.940085754920409"><ele>173.0</ele><time>2026-03-29T08:53:16.999Z</time></trkpt><trkpt lat="42.566585314322566" lon="13.939859662754971"><ele>173.0</ele><time>2026-03-29T08:53:17.999Z</time></trkpt><trkpt lat="42.56657513501551" lon="13.939631196964742"><ele>173.25</ele><time>2026-03-29T08:53:18.999Z</time></trkpt><trkpt lat="42.56657497792881" lon="13.939430734805754"><ele>173.5</ele><time>2026-03-29T08:53:19.999Z</time></trkpt><trkpt lat="42.566610044673055" lon="13.9392527854265"><ele>173.75</ele><time>2026-03-29T08:53:20.999Z</time></trkpt><trkpt lat="42.56665849084671" lon="13.939051966475434"><ele>174.0</ele><time>2026-03-29T08:53:21.999Z</time></trkpt><trkpt lat="42.56670471025777" lon="13.938813531189203"><ele>171.33333333333334</ele><time>2026-03-29T08:53:22.999Z</time></trkpt><trkpt lat="42.56677182396411" lon="13.93857408875671"><ele>168.66666666666669</ele><time>2026-03-29T08:53:23.999Z</time></trkpt><trkpt lat="42.56683828766241" lon="13.938351195199795"><ele>166.0</ele><time>2026-03-29T08:53:24.999Z</time></trkpt><trkpt lat="42.56690840285971" lon="13.93813356182059"><ele>166.0</ele><time>2026-03-29T08:53:25.999Z</time></trkpt><trkpt lat="42.56698275605822" lon="13.937927899030578"><ele>166.0</ele><time>2026-03-29T08:53:26.999Z</time></trkpt><trkpt lat="42.56705714893539" lon="13.937732608465511"><ele>166.0</ele><time>2026-03-29T08:53:27.999Z</time></trkpt><trkpt lat="42.567130036362066" lon="13.937544729564666"><ele>166.0</ele><time>2026-03-29T08:53:28.999Z</time></trkpt><trkpt lat="42.56719738727303" lon="13.937356551706086"><ele>166.0</ele><time>2026-03-29T08:53:29.999Z</time></trkpt><trkpt lat="42.56727338884295" lon="13.937168919761028"><ele>166.0</ele><time>2026-03-29T08:53:30.999Z</time></trkpt><trkpt lat="42.56735043525414" lon="13.93698706255732"><ele>166.0</ele><time>2026-03-29T08:53:31.999Z</time></trkpt><trkpt lat="42.56742988436385" lon="13.936814135700237"><ele>166.0</ele><time>2026-03-29T08:53:32.999Z</time></trkpt><trkpt lat="42.567503985697236" lon="13.936652424090841"><ele>166.0</ele><time>2026-03-29T08:53:33.999Z</time></trkpt><trkpt lat="42.56758504843785" lon="13.936536659810852"><ele>166.0</ele><time>2026-03-29T08:53:34.999Z</time></trkpt><trkpt lat="42.567636095993954" lon="13.936427913917418"><ele>165.75</ele><time>2026-03-29T08:53:35.999Z</time></trkpt><trkpt lat="42.567729173053884" lon="13.936360775906337"><ele>165.5</ele><time>2026-03-29T08:53:36.999Z</time></trkpt><trkpt lat="42.56786314903854" lon="13.936346294960272"><ele>165.25</ele><time>2026-03-29T08:53:37.999Z</time></trkpt><trkpt lat="42.56801049285523" lon="13.93629035226662"><ele>165.0</ele><time>2026-03-29T08:53:38.999Z</time></trkpt><trkpt lat="42.568173352237295" lon="13.93625065342471"><ele>165.0</ele><time>2026-03-29T08:53:39.999Z</time></trkpt><trkpt lat="42.5683306519866" lon="13.936198403880272"><ele>165.0</ele><time>2026-03-29T08:53:40.999Z</time></trkpt><trkpt lat="42.56848474188565" lon="13.936150170870373"><ele>165.0</ele><time>2026-03-29T08:53:41.999Z</time></trkpt><trkpt lat="42.56863376976679" lon="13.93610013272749"><ele>166.66666666666666</ele><time>2026-03-29T08:53:42.999Z</time></trkpt><trkpt lat="42.56878538361455" lon="13.936083748303082"><ele>168.33333333333331</ele><time>2026-03-29T08:53:43.999Z</time></trkpt><trkpt lat="42.56893265556789" lon="13.936037420338918"><ele>170.0</ele><time>2026-03-29T08:53:44.999Z</time></trkpt><trkpt lat="42.5690861646967" lon="13.936014331054631"><ele>170.0</ele><time>2026-03-29T08:53:45.999Z</time></trkpt><trkpt lat="42.569253852703646" lon="13.936026805870533"><ele>170.0</ele><time>2026-03-29T08:53:46.999Z</time></trkpt><trkpt lat="42.56941044670348" lon="13.93601787247074"><ele>170.0</ele><time>2026-03-29T08:53:47.999Z</time></trkpt><trkpt lat="42.56956708214783" lon="13.935991546051135"><ele>167.5</ele><time>2026-03-29T08:53:48.999Z</time></trkpt><trkpt lat="42.56971936813315" lon="13.93599144440299"><ele>165.0</ele><time>2026-03-29T08:53:49.999Z</time></trkpt><trkpt lat="42.5698605006778" lon="13.935988415824427"><ele>162.5</ele><time>2026-03-29T08:53:50.999Z</time></trkpt><trkpt lat="42.56997976066707" lon="13.935989087423168"><ele>160.0</ele><time>2026-03-29T08:53:51.999Z</time></trkpt><trkpt lat="42.570087012786374" lon="13.935992149133211"><ele>160.0</ele><time>2026-03-29T08:53:52.999Z</time></trkpt><trkpt lat="42.57017817714679" lon="13.93598639791993"><ele>160.0</ele><time>2026-03-29T08:53:53.999Z</time></trkpt><trkpt lat="42.57026464472487" lon="13.935945882745825"><ele>160.0</ele><time>2026-03-29T08:53:54.999Z</time></trkpt><trkpt lat="42.57034549298592" lon="13.935859437877758"><ele>160.0</ele><time>2026-03-29T08:53:55.999Z</time></trkpt><trkpt lat="42.57040120844828" lon="13.935739777471495"><ele>160.0</ele><time>2026-03-29T08:53:56.999Z</time></trkpt><trkpt lat="42.57043650482605" lon="13.935604190574702"><ele>155.8</ele><time>2026-03-29T08:53:57.999Z</time></trkpt><trkpt lat="42.57044041963189" lon="13.935475465952043"><ele>151.6</ele><time>2026-03-29T08:53:58.999Z</time></trkpt><trkpt lat="42.570439041023434" lon="13.935364038662563"><ele>147.4</ele><time>2026-03-29T08:53:59.999Z</time></trkpt><trkpt lat="42.570354158384816" lon="13.935282610909073"><ele>143.2</ele><time>2026-03-29T08:54:00.999Z</time></trkpt><trkpt lat="42.57027240955302" lon="13.93524466814374"><ele>139.0</ele><time>2026-03-29T08:54:01.999Z</time></trkpt><trkpt lat="42.570181364747505" lon="13.935215888228198"><ele>138.75</ele><time>2026-03-29T08:54:02.999Z</time></trkpt><trkpt lat="42.570076149450585" lon="13.935186715051048"><ele>138.5</ele><time>2026-03-29T08:54:03.999Z</time></trkpt><trkpt lat="42.569957612564714" lon="13.935147796588112"><ele>138.25</ele><time>2026-03-29T08:54:04.999Z</time></trkpt><trkpt lat="42.56984514260623" lon="13.935113277949947"><ele>138.0</ele><time>2026-03-29T08:54:05.999Z</time></trkpt><trkpt lat="42.56974035823928" lon="13.935091094971733"><ele>138.0</ele><time>2026-03-29T08:54:06.999Z</time></trkpt><trkpt lat="42.569639480119356" lon="13.935073978561867"><ele>138.0</ele><time>2026-03-29T08:54:07.999Z</time></trkpt><trkpt lat="42.56954185712745" lon="13.935054097124024"><ele>138.0</ele><time>2026-03-29T08:54:08.999Z</time></trkpt><trkpt lat="42.56944123150319" lon="13.935031083067969"><ele>138.0</ele><time>2026-03-29T08:54:09.999Z</time></trkpt><trkpt lat="42.56932776824248" lon="13.93500632317596"><ele>138.0</ele><time>2026-03-29T08:54:10.999Z</time></trkpt><trkpt lat="42.56919864992427" lon="13.934977598722137"><ele>139.0</ele><time>2026-03-29T08:54:11.999Z</time></trkpt><trkpt lat="42.56905286466005" lon="13.934958468005492"><ele>140.0</ele><time>2026-03-29T08:54:12.999Z</time></trkpt><trkpt lat="42.56892179230704" lon="13.934948426276756"><ele>141.0</ele><time>2026-03-29T08:54:13.999Z</time></trkpt><trkpt lat="42.56879568012741" lon="13.934943189449502"><ele>142.0</ele><time>2026-03-29T08:54:14.998Z</time></trkpt><trkpt lat="42.56867522843228" lon="13.934947902066986"><ele>142.0</ele><time>2026-03-29T08:54:15.998Z</time></trkpt><trkpt lat="42.56855326743002" lon="13.93495839364026"><ele>142.0</ele><time>2026-03-29T08:54:16.998Z</time></trkpt><trkpt lat="42.56842587526361" lon="13.93496350334848"><ele>142.0</ele><time>2026-03-29T08:54:17.998Z</time></trkpt><trkpt lat="42.56830236667442" lon="13.934936685909225"><ele>142.0</ele><time>2026-03-29T08:54:18.998Z</time></trkpt><trkpt lat="42.56817061978968" lon="13.934885065383428"><ele>142.0</ele><time>2026-03-29T08:54:19.998Z</time></trkpt><trkpt lat="42.568087761527416" lon="13.934826954191271"><ele>142.0</ele><time>2026-03-29T08:54:20.998Z</time></trkpt><trkpt lat="42.56800876353279" lon="13.934714857122923"><ele>142.0</ele><time>2026-03-29T08:54:21.998Z</time></trkpt><trkpt lat="42.567951766191825" lon="13.934589952312528"><ele>142.0</ele><time>2026-03-29T08:54:22.998Z</time></trkpt><trkpt lat="42.56789618572711" lon="13.93442842548635"><ele>142.0</ele><time>2026-03-29T08:54:23.998Z</time></trkpt><trkpt lat="42.56782399450598" lon="13.934234474328631"><ele>140.0</ele><time>2026-03-29T08:54:24.998Z</time></trkpt><trkpt lat="42.56776051665099" lon="13.934050416148574"><ele>138.0</ele><time>2026-03-29T08:54:25.998Z</time></trkpt><trkpt lat="42.56770503357375" lon="13.933856500612137"><ele>136.0</ele><time>2026-03-29T08:54:26.998Z</time></trkpt><trkpt lat="42.56766157716062" lon="13.933664384524162"><ele>136.0</ele><time>2026-03-29T08:54:27.998Z</time></trkpt><trkpt lat="42.56763369677437" lon="13.933480247948033"><ele>136.0</ele><time>2026-03-29T08:54:28.998Z</time></trkpt><trkpt lat="42.5676389999111" lon="13.93328341140812"><ele>136.0</ele><time>2026-03-29T08:54:29.998Z</time></trkpt><trkpt lat="42.567648173710886" lon="13.933053860743343"><ele>136.66666666666669</ele><time>2026-03-29T08:54:30.998Z</time></trkpt><trkpt lat="42.56764525991654" lon="13.93283487341766"><ele>137.33333333333334</ele><time>2026-03-29T08:54:31.998Z</time></trkpt><trkpt lat="42.56764175082472" lon="13.932633651444036"><ele>138.0</ele><time>2026-03-29T08:54:32.998Z</time></trkpt><trkpt lat="42.56760830893802" lon="13.932418139797706"><ele>138.66666666666666</ele><time>2026-03-29T08:54:33.998Z</time></trkpt><trkpt lat="42.56753760567729" lon="13.932196349483174"><ele>139.33333333333331</ele><time>2026-03-29T08:54:34.998Z</time></trkpt><trkpt lat="42.56745509043846" lon="13.93200109574898"><ele>140.0</ele><time>2026-03-29T08:54:35.998Z</time></trkpt><trkpt lat="42.56738803307826" lon="13.931826669641373"><ele>140.75</ele><time>2026-03-29T08:54:36.998Z</time></trkpt><trkpt lat="42.56737340885868" lon="13.931644735159052"><ele>141.5</ele><time>2026-03-29T08:54:37.998Z</time></trkpt><trkpt lat="42.56737016553068" lon="13.931452257368242"><ele>142.25</ele><time>2026-03-29T08:54:38.998Z</time></trkpt><trkpt lat="42.56737161421308" lon="13.931249479196524"><ele>143.0</ele><time>2026-03-29T08:54:39.998Z</time></trkpt><trkpt lat="42.56736050297856" lon="13.931050784761416"><ele>143.25</ele><time>2026-03-29T08:54:40.998Z</time></trkpt><trkpt lat="42.56736511907035" lon="13.930861422781282"><ele>143.5</ele><time>2026-03-29T08:54:41.998Z</time></trkpt><trkpt lat="42.567355675046514" lon="13.930670626704574"><ele>143.75</ele><time>2026-03-29T08:54:42.998Z</time></trkpt><trkpt lat="42.56734632768146" lon="13.930487373720963"><ele>144.0</ele><time>2026-03-29T08:54:43.998Z</time></trkpt><trkpt lat="42.56733750444708" lon="13.930299332965934"><ele>144.0</ele><time>2026-03-29T08:54:44.998Z</time></trkpt><trkpt lat="42.56729946177264" lon="13.930091381484573"><ele>144.0</ele><time>2026-03-29T08:54:45.998Z</time></trkpt><trkpt lat="42.567241997349505" lon="13.929864149133158"><ele>144.0</ele><time>2026-03-29T08:54:46.998Z</time></trkpt><trkpt lat="42.567167665012946" lon="13.929637775641142"><ele>143.0</ele><time>2026-03-29T08:54:47.998Z</time></trkpt><trkpt lat="42.56708550376786" lon="13.929421936825637"><ele>142.0</ele><time>2026-03-29T08:54:49Z</time></trkpt><trkpt lat="42.56700076094919" lon="13.929208230730703"><ele>141.0</ele><time>2026-03-29T08:54:50Z</time></trkpt><trkpt lat="42.56691900224105" lon="13.928998440486343"><ele>136.66666666666666</ele><time>2026-03-29T08:54:51Z</time></trkpt><trkpt lat="42.56684724984358" lon="13.928807753160388"><ele>132.33333333333331</ele><time>2026-03-29T08:54:52Z</time></trkpt><trkpt lat="42.5667745291898" lon="13.928613267722854"><ele>128.0</ele><time>2026-03-29T08:54:53Z</time></trkpt><trkpt lat="42.566705079413175" lon="13.928419388077375"><ele>128.33333333333331</ele><time>2026-03-29T08:54:54Z</time></trkpt><trkpt lat="42.566641166914366" lon="13.928224244124415"><ele>128.66666666666666</ele><time>2026-03-29T08:54:55Z</time></trkpt><trkpt lat="42.566584849158104" lon="13.92803465379471"><ele>129.0</ele><time>2026-03-29T08:54:56Z</time></trkpt><trkpt lat="42.566566177912364" lon="13.92782201153718"><ele>129.0</ele><time>2026-03-29T08:54:57Z</time></trkpt><trkpt lat="42.56653465410031" lon="13.927605979444374"><ele>129.0</ele><time>2026-03-29T08:54:58Z</time></trkpt><trkpt lat="42.56653184286327" lon="13.927389915913794"><ele>129.0</ele><time>2026-03-29T08:54:59Z</time></trkpt><trkpt lat="42.56654714361265" lon="13.927165337489525"><ele>131.0</ele><time>2026-03-29T08:55:00Z</time></trkpt><trkpt lat="42.56657691659473" lon="13.926944349208469"><ele>133.0</ele><time>2026-03-29T08:55:01Z</time></trkpt><trkpt lat="42.56662610690719" lon="13.926724027853506"><ele>135.0</ele><time>2026-03-29T08:55:02Z</time></trkpt><trkpt lat="42.5666952286329" lon="13.9265087071846"><ele>136.66666666666666</ele><time>2026-03-29T08:55:03Z</time></trkpt><trkpt lat="42.566772153915885" lon="13.926292915874004"><ele>138.33333333333331</ele><time>2026-03-29T08:55:04Z</time></trkpt><trkpt lat="42.56684256030893" lon="13.926075378946333"><ele>140.0</ele><time>2026-03-29T08:55:05Z</time></trkpt><trkpt lat="42.56691624936232" lon="13.925861176987674"><ele>139.33333333333331</ele><time>2026-03-29T08:55:06Z</time></trkpt><trkpt lat="42.56698932286457" lon="13.925650989483724"><ele>138.66666666666666</ele><time>2026-03-29T08:55:07Z</time></trkpt><trkpt lat="42.56705535592034" lon="13.925439767468452"><ele>138.0</ele><time>2026-03-29T08:55:08Z</time></trkpt><trkpt lat="42.56712239084132" lon="13.92523236609621"><ele>138.0</ele><time>2026-03-29T08:55:09Z</time></trkpt><trkpt lat="42.56717787915605" lon="13.925022279973259"><ele>138.0</ele><time>2026-03-29T08:55:10Z</time></trkpt><trkpt lat="42.567215499420925" lon="13.924805353098135"><ele>138.0</ele><time>2026-03-29T08:55:11Z</time></trkpt><trkpt lat="42.56723057169771" lon="13.924578786699913"><ele>138.0</ele><time>2026-03-29T08:55:12Z</time></trkpt><trkpt lat="42.56722547374956" lon="13.924348137008089"><ele>138.0</ele><time>2026-03-29T08:55:13Z</time></trkpt><trkpt lat="42.5672261765274" lon="13.924119623791464"><ele>138.0</ele><time>2026-03-29T08:55:14Z</time></trkpt><trkpt lat="42.5672506631314" lon="13.923892780067145"><ele>139.66666666666666</ele><time>2026-03-29T08:55:15Z</time></trkpt><trkpt lat="42.56724610198545" lon="13.92366646912742"><ele>141.33333333333331</ele><time>2026-03-29T08:55:16Z</time></trkpt><trkpt lat="42.56726313670399" lon="13.923439558654257"><ele>143.0</ele><time>2026-03-29T08:55:17Z</time></trkpt><trkpt lat="42.56726742615636" lon="13.923227972268876"><ele>146.0</ele><time>2026-03-29T08:55:18Z</time></trkpt><trkpt lat="42.567272988537674" lon="13.923040443134944"><ele>149.0</ele><time>2026-03-29T08:55:19Z</time></trkpt><trkpt lat="42.567278997891734" lon="13.92286618427846"><ele>152.0</ele><time>2026-03-29T08:55:20Z</time></trkpt><trkpt lat="42.567289350806696" lon="13.922698736501895"><ele>155.0</ele><time>2026-03-29T08:55:21Z</time></trkpt><trkpt lat="42.56729013407311" lon="13.922537816563914"><ele>156.0</ele><time>2026-03-29T08:55:22Z</time></trkpt><trkpt lat="42.567259838044976" lon="13.922385896329871"><ele>157.0</ele><time>2026-03-29T08:55:22.999Z</time></trkpt><trkpt lat="42.56720724354088" lon="13.922239031338226"><ele>158.0</ele><time>2026-03-29T08:55:23.999Z</time></trkpt><trkpt lat="42.56714726266675" lon="13.92211122742754"><ele>159.0</ele><time>2026-03-29T08:55:24.999Z</time></trkpt><trkpt lat="42.567070784927346" lon="13.922018004294694"><ele>161.75</ele><time>2026-03-29T08:55:25.999Z</time></trkpt><trkpt lat="42.56697191296545" lon="13.921948762828732"><ele>164.5</ele><time>2026-03-29T08:55:26.999Z</time></trkpt><trkpt lat="42.566852959149834" lon="13.921907850495053"><ele>167.25</ele><time>2026-03-29T08:55:27.999Z</time></trkpt><trkpt lat="42.5667291158457" lon="13.921910459958157"><ele>170.0</ele><time>2026-03-29T08:55:28.999Z</time></trkpt><trkpt lat="42.56659511499522" lon="13.921954024073665"><ele>170.0</ele><time>2026-03-29T08:55:29.999Z</time></trkpt><trkpt lat="42.56646644667573" lon="13.922040354115031"><ele>170.0</ele><time>2026-03-29T08:55:30.999Z</time></trkpt><trkpt lat="42.566356289229645" lon="13.922165447810801"><ele>170.0</ele><time>2026-03-29T08:55:31.999Z</time></trkpt><trkpt lat="42.56626532481565" lon="13.922325183432589"><ele>170.0</ele><time>2026-03-29T08:55:32.999Z</time></trkpt><trkpt lat="42.5661869474084" lon="13.922501060482942"><ele>171.5</ele><time>2026-03-29T08:55:33.999Z</time></trkpt><trkpt lat="42.566109151193416" lon="13.922671630993612"><ele>173.0</ele><time>2026-03-29T08:55:34.999Z</time></trkpt><trkpt lat="42.56602138655769" lon="13.922832815823694"><ele>174.5</ele><time>2026-03-29T08:55:35.999Z</time></trkpt><trkpt lat="42.56591110937353" lon="13.922971581460386"><ele>176.0</ele><time>2026-03-29T08:55:36.999Z</time></trkpt><trkpt lat="42.56578151105658" lon="13.92309720816787"><ele>176.0</ele><time>2026-03-29T08:55:37.999Z</time></trkpt><trkpt lat="42.565652379348" lon="13.923219097509824"><ele>176.0</ele><time>2026-03-29T08:55:38.999Z</time></trkpt><trkpt lat="42.565522517937495" lon="13.923344794744983"><ele>176.0</ele><time>2026-03-29T08:55:39.999Z</time></trkpt><trkpt lat="42.56539749614287" lon="13.923475990229912"><ele>180.66666666666666</ele><time>2026-03-29T08:55:40.999Z</time></trkpt><trkpt lat="42.56526649229478" lon="13.923612112004161"><ele>185.33333333333334</ele><time>2026-03-29T08:55:41.999Z</time></trkpt><trkpt lat="42.56513757000485" lon="13.923745630451654"><ele>190.0</ele><time>2026-03-29T08:55:42.999Z</time></trkpt><trkpt lat="42.56500960060046" lon="13.923887144402201"><ele>190.0</ele><time>2026-03-29T08:55:43.999Z</time></trkpt><trkpt lat="42.564879761099405" lon="13.924029511163814"><ele>190.0</ele><time>2026-03-29T08:55:44.999Z</time></trkpt><trkpt lat="42.56474976768003" lon="13.924167032105448"><ele>190.0</ele><time>2026-03-29T08:55:45.999Z</time></trkpt><trkpt lat="42.56463485546061" lon="13.924286167709848"><ele>190.0</ele><time>2026-03-29T08:55:46.999Z</time></trkpt><trkpt lat="42.56452777435221" lon="13.924390980057165"><ele>190.0</ele><time>2026-03-29T08:55:47.999Z</time></trkpt><trkpt lat="42.56441647051861" lon="13.92447367540868"><ele>190.0</ele><time>2026-03-29T08:55:48.999Z</time></trkpt><trkpt lat="42.56429186509637" lon="13.924522360405252"><ele>190.0</ele><time>2026-03-29T08:55:49.999Z</time></trkpt><trkpt lat="42.56415605876029" lon="13.924542375613171"><ele>190.0</ele><time>2026-03-29T08:55:50.999Z</time></trkpt><trkpt lat="42.56401765053526" lon="13.924545502405165"><ele>190.0</ele><time>2026-03-29T08:55:51.999Z</time></trkpt><trkpt lat="42.563887897488996" lon="13.92453134613595"><ele>190.0</ele><time>2026-03-29T08:55:52.999Z</time></trkpt><trkpt lat="42.5637762481433" lon="13.924506611210099"><ele>190.0</ele><time>2026-03-29T08:55:53.999Z</time></trkpt><trkpt lat="42.56366281984222" lon="13.924481799167252"><ele>190.5</ele><time>2026-03-29T08:55:54.999Z</time></trkpt><trkpt lat="42.56354244405881" lon="13.924475577974395"><ele>191.0</ele><time>2026-03-29T08:55:55.999Z</time></trkpt><trkpt lat="42.56341513933728" lon="13.92447183080973"><ele>191.5</ele><time>2026-03-29T08:55:56.999Z</time></trkpt><trkpt lat="42.563285177815814" lon="13.924454438633575"><ele>192.0</ele><time>2026-03-29T08:55:57.999Z</time></trkpt><trkpt lat="42.56315858715087" lon="13.924419897499293"><ele>192.0</ele><time>2026-03-29T08:55:58.999Z</time></trkpt><trkpt lat="42.56303483007772" lon="13.924372257688507"><ele>192.0</ele><time>2026-03-29T08:55:59.999Z</time></trkpt><trkpt lat="42.56291288368765" lon="13.924321761204105"><ele>192.0</ele><time>2026-03-29T08:56:00.999Z</time></trkpt><trkpt lat="42.56279608648069" lon="13.924262474704356"><ele>192.0</ele><time>2026-03-29T08:56:01.999Z</time></trkpt><trkpt lat="42.562677175684136" lon="13.924190645001717"><ele>198.5</ele><time>2026-03-29T08:56:02.999Z</time></trkpt><trkpt lat="42.562558053107736" lon="13.924116952390756"><ele>205.0</ele><time>2026-03-29T08:56:03.999Z</time></trkpt><trkpt lat="42.56243641599288" lon="13.924049670465953"><ele>211.5</ele><time>2026-03-29T08:56:04.999Z</time></trkpt><trkpt lat="42.56231798431827" lon="13.923982313474305"><ele>218.0</ele><time>2026-03-29T08:56:05.999Z</time></trkpt><trkpt lat="42.56220070941397" lon="13.923916015678895"><ele>218.0</ele><time>2026-03-29T08:56:06.999Z</time></trkpt><trkpt lat="42.56207992919358" lon="13.923845574030983"><ele>218.0</ele><time>2026-03-29T08:56:07.999Z</time></trkpt><trkpt lat="42.56195565210563" lon="13.923773796149646"><ele>218.0</ele><time>2026-03-29T08:56:08.999Z</time></trkpt><trkpt lat="42.561824395571705" lon="13.923700947228438"><ele>218.0</ele><time>2026-03-29T08:56:09.999Z</time></trkpt><trkpt lat="42.561693751760345" lon="13.923636795321382"><ele>216.0</ele><time>2026-03-29T08:56:10.999Z</time></trkpt><trkpt lat="42.56155245346428" lon="13.923571197283438"><ele>214.0</ele><time>2026-03-29T08:56:11.999Z</time></trkpt><trkpt lat="42.56141196514612" lon="13.92350359604624"><ele>212.0</ele><time>2026-03-29T08:56:12.999Z</time></trkpt><trkpt lat="42.56126482096273" lon="13.923445353116367"><ele>220.0</ele><time>2026-03-29T08:56:13.999Z</time></trkpt><trkpt lat="42.561116149473854" lon="13.92338667296953"><ele>228.0</ele><time>2026-03-29T08:56:14.999Z</time></trkpt><trkpt lat="42.56096439400983" lon="13.923328360880193"><ele>236.0</ele><time>2026-03-29T08:56:15.999Z</time></trkpt><trkpt lat="42.56081217684447" lon="13.92327217623375"><ele>236.0</ele><time>2026-03-29T08:56:16.999Z</time></trkpt><trkpt lat="42.56065475757099" lon="13.923210522085693"><ele>236.0</ele><time>2026-03-29T08:56:17.999Z</time></trkpt><trkpt lat="42.56051382641871" lon="13.923157812313935"><ele>236.0</ele><time>2026-03-29T08:56:18.999Z</time></trkpt><trkpt lat="42.560370492352455" lon="13.923122337350932"><ele>238.5</ele><time>2026-03-29T08:56:19.999Z</time></trkpt><trkpt lat="42.56022300842552" lon="13.923104492969923"><ele>241.0</ele><time>2026-03-29T08:56:20.998Z</time></trkpt><trkpt lat="42.560074741120665" lon="13.92310276956333"><ele>243.5</ele><time>2026-03-29T08:56:21.998Z</time></trkpt><trkpt lat="42.55993454875704" lon="13.923124905979265"><ele>246.0</ele><time>2026-03-29T08:56:22.998Z</time></trkpt><trkpt lat="42.55979846572799" lon="13.923173123336246"><ele>246.0</ele><time>2026-03-29T08:56:23.998Z</time></trkpt><trkpt lat="42.55967090258968" lon="13.923220235299427"><ele>246.0</ele><time>2026-03-29T08:56:24.998Z</time></trkpt><trkpt lat="42.55953603604022" lon="13.923281801831244"><ele>246.0</ele><time>2026-03-29T08:56:25.998Z</time></trkpt><trkpt lat="42.55940524665037" lon="13.923344065562809"><ele>246.0</ele><time>2026-03-29T08:56:26.998Z</time></trkpt><trkpt lat="42.559261325352296" lon="13.923402006857117"><ele>244.0</ele><time>2026-03-29T08:56:27.998Z</time></trkpt><trkpt lat="42.559112399727105" lon="13.923462600806063"><ele>242.0</ele><time>2026-03-29T08:56:28.998Z</time></trkpt><trkpt lat="42.55896481843494" lon="13.923540110388926"><ele>240.0</ele><time>2026-03-29T08:56:29.998Z</time></trkpt><trkpt lat="42.5588172920301" lon="13.923619447460801"><ele>243.66666666666669</ele><time>2026-03-29T08:56:30.998Z</time></trkpt><trkpt lat="42.55866073642416" lon="13.923700340332303"><ele>247.33333333333334</ele><time>2026-03-29T08:56:31.998Z</time></trkpt><trkpt lat="42.5585121675429" lon="13.92377510835437"><ele>251.0</ele><time>2026-03-29T08:56:32.998Z</time></trkpt><trkpt lat="42.5583779755133" lon="13.923845243951199"><ele>251.0</ele><time>2026-03-29T08:56:33.998Z</time></trkpt><trkpt lat="42.558248636097744" lon="13.923909234182926"><ele>251.0</ele><time>2026-03-29T08:56:34.998Z</time></trkpt><trkpt lat="42.55813306367392" lon="13.9239575794956"><ele>251.0</ele><time>2026-03-29T08:56:35.998Z</time></trkpt><trkpt lat="42.55801851340283" lon="13.924000404252634"><ele>251.0</ele><time>2026-03-29T08:56:36.998Z</time></trkpt><trkpt lat="42.5578999392925" lon="13.924062795798147"><ele>251.5</ele><time>2026-03-29T08:56:37.998Z</time></trkpt><trkpt lat="42.55776915265384" lon="13.924138307381881"><ele>252.0</ele><time>2026-03-29T08:56:38.998Z</time></trkpt><trkpt lat="42.55763570970309" lon="13.924203720273358"><ele>252.5</ele><time>2026-03-29T08:56:39.998Z</time></trkpt><trkpt lat="42.55749705115364" lon="13.924268329097153"><ele>253.0</ele><time>2026-03-29T08:56:40.998Z</time></trkpt><trkpt lat="42.557369301695836" lon="13.924341404703123"><ele>253.0</ele><time>2026-03-29T08:56:41.998Z</time></trkpt><trkpt lat="42.55723703099807" lon="13.924417235276167"><ele>253.0</ele><time>2026-03-29T08:56:42.998Z</time></trkpt><trkpt lat="42.55710251404462" lon="13.924497871577156"><ele>253.0</ele><time>2026-03-29T08:56:43.998Z</time></trkpt><trkpt lat="42.55697117036152" lon="13.924595817465459"><ele>253.0</ele><time>2026-03-29T08:56:44.998Z</time></trkpt><trkpt lat="42.55684753241997" lon="13.92472047717181"><ele>257.66666666666663</ele><time>2026-03-29T08:56:45.998Z</time></trkpt><trkpt lat="42.55672958772417" lon="13.924857842742254"><ele>262.3333333333333</ele><time>2026-03-29T08:56:46.998Z</time></trkpt><trkpt lat="42.55659798407488" lon="13.924982575726078"><ele>267.0</ele><time>2026-03-29T08:56:47.998Z</time></trkpt><trkpt lat="42.55647259515068" lon="13.925103150771692"><ele>267.0</ele><time>2026-03-29T08:56:48.998Z</time></trkpt><trkpt lat="42.556346661146335" lon="13.925238253265531"><ele>267.0</ele><time>2026-03-29T08:56:49.998Z</time></trkpt><trkpt lat="42.55621573956882" lon="13.925371294841964"><ele>267.0</ele><time>2026-03-29T08:56:50.998Z</time></trkpt><trkpt lat="42.55608915991153" lon="13.925498151109764"><ele>275.3333333333333</ele><time>2026-03-29T08:56:51.998Z</time></trkpt><trkpt lat="42.55596306344502" lon="13.92562388862396"><ele>283.66666666666663</ele><time>2026-03-29T08:56:52.998Z</time></trkpt><trkpt lat="42.55584034716329" lon="13.925752096706566"><ele>292.0</ele><time>2026-03-29T08:56:54Z</time></trkpt><trkpt lat="42.555722761158364" lon="13.925883710798102"><ele>290.0</ele><time>2026-03-29T08:56:55Z</time></trkpt><trkpt lat="42.555619268538344" lon="13.92600690280603"><ele>288.0</ele><time>2026-03-29T08:56:56Z</time></trkpt><trkpt lat="42.55553804980734" lon="13.926129616712103"><ele>286.0</ele><time>2026-03-29T08:56:57Z</time></trkpt><trkpt lat="42.55547446629591" lon="13.926263498009837"><ele>284.0</ele><time>2026-03-29T08:56:58Z</time></trkpt><trkpt lat="42.55542610703142" lon="13.926391688870412"><ele>284.0</ele><time>2026-03-29T08:56:59Z</time></trkpt><trkpt lat="42.555389347171975" lon="13.926512646106021"><ele>284.0</ele><time>2026-03-29T08:57:00Z</time></trkpt><trkpt lat="42.555354482602056" lon="13.926622118239134"><ele>284.0</ele><time>2026-03-29T08:57:01Z</time></trkpt><trkpt lat="42.555326615234875" lon="13.926714773297043"><ele>284.0</ele><time>2026-03-29T08:57:02Z</time></trkpt><trkpt lat="42.55528745087807" lon="13.92678701714812"><ele>284.0</ele><time>2026-03-29T08:57:03Z</time></trkpt><trkpt lat="42.555220563637945" lon="13.926815548675247"><ele>284.0</ele><time>2026-03-29T08:57:05Z</time></trkpt><trkpt lat="42.555133741172746" lon="13.926637186983491"><ele>288.8</ele><time>2026-03-29T08:57:07Z</time></trkpt><trkpt lat="42.55512816930754" lon="13.926542025007244"><ele>293.59999999999997</ele><time>2026-03-29T08:57:08Z</time></trkpt><trkpt lat="42.555120374548544" lon="13.92642494799401"><ele>298.4</ele><time>2026-03-29T08:57:09Z</time></trkpt><trkpt lat="42.55510470925325" lon="13.92628967562028"><ele>303.2</ele><time>2026-03-29T08:57:10Z</time></trkpt><trkpt lat="42.555089086087314" lon="13.926146363882687"><ele>308.0</ele><time>2026-03-29T08:57:11Z</time></trkpt><trkpt lat="42.555078635145954" lon="13.926004765104294"><ele>308.4</ele><time>2026-03-29T08:57:12Z</time></trkpt><trkpt lat="42.55506329333419" lon="13.925859729263973"><ele>308.8</ele><time>2026-03-29T08:57:13Z</time></trkpt><trkpt lat="42.555050956397906" lon="13.925726359435895"><ele>309.2</ele><time>2026-03-29T08:57:14Z</time></trkpt><trkpt lat="42.555035907579985" lon="13.925605706141237"><ele>309.6</ele><time>2026-03-29T08:57:15Z</time></trkpt><trkpt lat="42.5550172893152" lon="13.925477768632826"><ele>310.0</ele><time>2026-03-29T08:57:16Z</time></trkpt><trkpt lat="42.55499013396158" lon="13.925337575719174"><ele>310.0</ele><time>2026-03-29T08:57:17Z</time></trkpt><trkpt lat="42.55497989080133" lon="13.925176560131108"><ele>310.0</ele><time>2026-03-29T08:57:18Z</time></trkpt><trkpt lat="42.554984005927345" lon="13.92500454279736"><ele>310.0</ele><time>2026-03-29T08:57:19Z</time></trkpt><trkpt lat="42.55498347857296" lon="13.924821486198116"><ele>310.0</ele><time>2026-03-29T08:57:20Z</time></trkpt><trkpt lat="42.5550092937978" lon="13.924630393853626"><ele>310.0</ele><time>2026-03-29T08:57:21Z</time></trkpt><trkpt lat="42.555033298935136" lon="13.924427640483353"><ele>310.0</ele><time>2026-03-29T08:57:22Z</time></trkpt><trkpt lat="42.55506304219727" lon="13.924217553771022"><ele>310.0</ele><time>2026-03-29T08:57:23Z</time></trkpt><trkpt lat="42.555101585963776" lon="13.923999688821407"><ele>310.66666666666663</ele><time>2026-03-29T08:57:24Z</time></trkpt><trkpt lat="42.55514747304445" lon="13.923774609449366"><ele>311.3333333333333</ele><time>2026-03-29T08:57:25Z</time></trkpt><trkpt lat="42.5552078211063" lon="13.923566570697801"><ele>312.0</ele><time>2026-03-29T08:57:26Z</time></trkpt><trkpt lat="42.55523339820411" lon="13.923352549300994"><ele>314.0</ele><time>2026-03-29T08:57:27Z</time></trkpt><trkpt lat="42.55527280502946" lon="13.92313832691766"><ele>316.0</ele><time>2026-03-29T08:57:28Z</time></trkpt><trkpt lat="42.55530536270776" lon="13.922932395540391"><ele>318.0</ele><time>2026-03-29T08:57:29Z</time></trkpt><trkpt lat="42.55533149973585" lon="13.92274446974041"><ele>318.0</ele><time>2026-03-29T08:57:30Z</time></trkpt><trkpt lat="42.55535673594943" lon="13.922572424976378"><ele>318.0</ele><time>2026-03-29T08:57:31Z</time></trkpt><trkpt lat="42.55538011736588" lon="13.922404905226259"><ele>318.0</ele><time>2026-03-29T08:57:32Z</time></trkpt><trkpt lat="42.555386978618465" lon="13.922228087110327"><ele>318.0</ele><time>2026-03-29T08:57:33Z</time></trkpt><trkpt lat="42.555367651753535" lon="13.9220602707712"><ele>319.5</ele><time>2026-03-29T08:57:34Z</time></trkpt><trkpt lat="42.55531965656347" lon="13.921913785895006"><ele>321.0</ele><time>2026-03-29T08:57:35Z</time></trkpt><trkpt lat="42.55525214747076" lon="13.921799372337993"><ele>322.5</ele><time>2026-03-29T08:57:36Z</time></trkpt><trkpt lat="42.555161940625" lon="13.92171067324387"><ele>324.0</ele><time>2026-03-29T08:57:36.999Z</time></trkpt><trkpt lat="42.55504844853742" lon="13.921632132705975"><ele>324.5</ele><time>2026-03-29T08:57:37.999Z</time></trkpt><trkpt lat="42.55492478427681" lon="13.92156894798161"><ele>325.0</ele><time>2026-03-29T08:57:38.999Z</time></trkpt><trkpt lat="42.554799633861755" lon="13.92149568100709"><ele>325.5</ele><time>2026-03-29T08:57:39.999Z</time></trkpt><trkpt lat="42.554684197470344" lon="13.921410087103997"><ele>326.0</ele><time>2026-03-29T08:57:40.999Z</time></trkpt><trkpt lat="42.554583754107455" lon="13.921317481198122"><ele>329.75</ele><time>2026-03-29T08:57:41.999Z</time></trkpt><trkpt lat="42.554486905665684" lon="13.921200833205216"><ele>333.5</ele><time>2026-03-29T08:57:42.999Z</time></trkpt><trkpt lat="42.55440132063073" lon="13.92104569926979"><ele>337.25</ele><time>2026-03-29T08:57:43.999Z</time></trkpt><trkpt lat="42.554338210834956" lon="13.920867235104916"><ele>341.0</ele><time>2026-03-29T08:57:44.999Z</time></trkpt><trkpt lat="42.55429092588618" lon="13.920658349716179"><ele>341.0</ele><time>2026-03-29T08:57:45.999Z</time></trkpt><trkpt lat="42.55425890017331" lon="13.920431619959448"><ele>341.0</ele><time>2026-03-29T08:57:46.999Z</time></trkpt><trkpt lat="42.554229609739366" lon="13.920189931185822"><ele>341.0</ele><time>2026-03-29T08:57:47.999Z</time></trkpt><trkpt lat="42.55419555047628" lon="13.91995603864594"><ele>339.6666666666667</ele><time>2026-03-29T08:57:48.999Z</time></trkpt><trkpt lat="42.55416576948872" lon="13.919739734879474"><ele>338.3333333333333</ele><time>2026-03-29T08:57:49.999Z</time></trkpt><trkpt lat="42.55415007596429" lon="13.919523699226712"><ele>337.0</ele><time>2026-03-29T08:57:50.999Z</time></trkpt><trkpt lat="42.554132935980576" lon="13.919308967612617"><ele>336.25</ele><time>2026-03-29T08:57:51.999Z</time></trkpt><trkpt lat="42.554110058573386" lon="13.919104534755515"><ele>335.5</ele><time>2026-03-29T08:57:52.999Z</time></trkpt><trkpt lat="42.554089449921705" lon="13.91891730769627"><ele>334.75</ele><time>2026-03-29T08:57:53.999Z</time></trkpt><trkpt lat="42.55408647425124" lon="13.918754370290134"><ele>334.0</ele><time>2026-03-29T08:57:54.999Z</time></trkpt><trkpt lat="42.55410053338308" lon="13.91858720957809"><ele>333.3333333333333</ele><time>2026-03-29T08:57:55.999Z</time></trkpt><trkpt lat="42.55414039407733" lon="13.918398299953992"><ele>332.6666666666667</ele><time>2026-03-29T08:57:56.999Z</time></trkpt><trkpt lat="42.55420335288561" lon="13.918186331863584"><ele>332.0</ele><time>2026-03-29T08:57:57.999Z</time></trkpt><trkpt lat="42.554267307491834" lon="13.917969776020888"><ele>332.0</ele><time>2026-03-29T08:57:58.999Z</time></trkpt><trkpt lat="42.55432568972717" lon="13.917761696508876"><ele>332.0</ele><time>2026-03-29T08:57:59.999Z</time></trkpt><trkpt lat="42.554378963258635" lon="13.917570485829645"><ele>332.0</ele><time>2026-03-29T08:58:00.999Z</time></trkpt><trkpt lat="42.554415992831096" lon="13.917408490335779"><ele>332.0</ele><time>2026-03-29T08:58:01.999Z</time></trkpt><trkpt lat="42.55444330771911" lon="13.917272000119125"><ele>330.75</ele><time>2026-03-29T08:58:02.999Z</time></trkpt><trkpt lat="42.554450169818494" lon="13.91713244293536"><ele>329.5</ele><time>2026-03-29T08:58:03.999Z</time></trkpt><trkpt lat="42.554422454031055" lon="13.916969882021585"><ele>328.25</ele><time>2026-03-29T08:58:04.999Z</time></trkpt><trkpt lat="42.55436739460618" lon="13.916788823760752"><ele>327.0</ele><time>2026-03-29T08:58:05.999Z</time></trkpt><trkpt lat="42.55430562091121" lon="13.916596809999175"><ele>325.3333333333333</ele><time>2026-03-29T08:58:06.999Z</time></trkpt><trkpt lat="42.55425163930646" lon="13.916382928908051"><ele>323.66666666666663</ele><time>2026-03-29T08:58:07.999Z</time></trkpt><trkpt lat="42.55420176259486" lon="13.916181587031273"><ele>322.0</ele><time>2026-03-29T08:58:08.999Z</time></trkpt><trkpt lat="42.55415094465773" lon="13.915984454129019"><ele>322.75</ele><time>2026-03-29T08:58:09.999Z</time></trkpt><trkpt lat="42.55410495885362" lon="13.915791156111904"><ele>323.5</ele><time>2026-03-29T08:58:10.999Z</time></trkpt><trkpt lat="42.55408344827287" lon="13.915602551352823"><ele>324.25</ele><time>2026-03-29T08:58:11.999Z</time></trkpt><trkpt lat="42.55405763350723" lon="13.915430314344732"><ele>325.0</ele><time>2026-03-29T08:58:12.999Z</time></trkpt><trkpt lat="42.554050951552306" lon="13.915234995923853"><ele>324.75</ele><time>2026-03-29T08:58:13.999Z</time></trkpt><trkpt lat="42.55406358330781" lon="13.915052518909308"><ele>324.5</ele><time>2026-03-29T08:58:14.999Z</time></trkpt><trkpt lat="42.5540745910271" lon="13.914895284145098"><ele>324.25</ele><time>2026-03-29T08:58:15.999Z</time></trkpt><trkpt lat="42.55414021080114" lon="13.914775805351162"><ele>324.0</ele><time>2026-03-29T08:58:16.999Z</time></trkpt><trkpt lat="42.554202558627665" lon="13.914643203094231"><ele>324.0</ele><time>2026-03-29T08:58:17.999Z</time></trkpt><trkpt lat="42.55432215187571" lon="13.91456779477044"><ele>324.0</ele><time>2026-03-29T08:58:18.999Z</time></trkpt><trkpt lat="42.55445248393837" lon="13.914505109879768"><ele>324.0</ele><time>2026-03-29T08:58:19.999Z</time></trkpt><trkpt lat="42.55460670146433" lon="13.91443233502581"><ele>324.0</ele><time>2026-03-29T08:58:20.999Z</time></trkpt><trkpt lat="42.55476917360872" lon="13.91434253936741"><ele>324.5</ele><time>2026-03-29T08:58:21.999Z</time></trkpt><trkpt lat="42.55492792611846" lon="13.914266599402353"><ele>325.0</ele><time>2026-03-29T08:58:22.999Z</time></trkpt><trkpt lat="42.55504493416661" lon="13.914206780232993"><ele>325.5</ele><time>2026-03-29T08:58:23.999Z</time></trkpt><trkpt lat="42.55513808013897" lon="13.914145753400202"><ele>326.0</ele><time>2026-03-29T08:58:24.999Z</time></trkpt><trkpt lat="42.555225027251154" lon="13.914052378152983"><ele>323.25</ele><time>2026-03-29T08:58:25.999Z</time></trkpt><trkpt lat="42.555306811977864" lon="13.913915247820563"><ele>320.5</ele><time>2026-03-29T08:58:26.999Z</time></trkpt><trkpt lat="42.55537834224946" lon="13.913740799921877"><ele>317.75</ele><time>2026-03-29T08:58:27.999Z</time></trkpt><trkpt lat="42.55542316434271" lon="13.913527620362208"><ele>315.0</ele><time>2026-03-29T08:58:28.999Z</time></trkpt><trkpt lat="42.555445805955316" lon="13.913293418992142"><ele>313.3333333333333</ele><time>2026-03-29T08:58:29.999Z</time></trkpt><trkpt lat="42.555450547523336" lon="13.913054857177436"><ele>311.66666666666663</ele><time>2026-03-29T08:58:30.999Z</time></trkpt><trkpt lat="42.55546691857061" lon="13.912805860798372"><ele>310.0</ele><time>2026-03-29T08:58:31.999Z</time></trkpt><trkpt lat="42.555488326556144" lon="13.912549086829259"><ele>310.0</ele><time>2026-03-29T08:58:32.999Z</time></trkpt><trkpt lat="42.55550004670239" lon="13.912294295950952"><ele>310.0</ele><time>2026-03-29T08:58:33.999Z</time></trkpt><trkpt lat="42.55550844544276" lon="13.91206749728671"><ele>310.0</ele><time>2026-03-29T08:58:34.999Z</time></trkpt><trkpt lat="42.555509071370544" lon="13.911864439847216"><ele>313.3333333333333</ele><time>2026-03-29T08:58:35.998Z</time></trkpt><trkpt lat="42.55549147669953" lon="13.911671360641524"><ele>316.6666666666667</ele><time>2026-03-29T08:58:36.998Z</time></trkpt><trkpt lat="42.555442738899046" lon="13.911469368826474"><ele>320.0</ele><time>2026-03-29T08:58:37.998Z</time></trkpt><trkpt lat="42.5553698819467" lon="13.911275202340525"><ele>320.0</ele><time>2026-03-29T08:58:38.998Z</time></trkpt><trkpt lat="42.555273000164824" lon="13.911094553246706"><ele>320.0</ele><time>2026-03-29T08:58:39.998Z</time></trkpt><trkpt lat="42.55516352640815" lon="13.910913298015263"><ele>320.0</ele><time>2026-03-29T08:58:40.998Z</time></trkpt><trkpt lat="42.55504676462118" lon="13.910736536353731"><ele>324.6666666666667</ele><time>2026-03-29T08:58:41.998Z</time></trkpt><trkpt lat="42.55492808491822" lon="13.910551549968421"><ele>329.3333333333333</ele><time>2026-03-29T08:58:42.998Z</time></trkpt><trkpt lat="42.55480921295963" lon="13.910369712987778"><ele>334.0</ele><time>2026-03-29T08:58:43.998Z</time></trkpt><trkpt lat="42.554698747439154" lon="13.910205123040113"><ele>334.75</ele><time>2026-03-29T08:58:44.998Z</time></trkpt><trkpt lat="42.554597756600806" lon="13.910054497626223"><ele>335.5</ele><time>2026-03-29T08:58:45.998Z</time></trkpt><trkpt lat="42.55449388709615" lon="13.909934847230295"><ele>336.25</ele><time>2026-03-29T08:58:46.998Z</time></trkpt><trkpt lat="42.554362569545056" lon="13.909834525250806"><ele>337.0</ele><time>2026-03-29T08:58:47.998Z</time></trkpt><trkpt lat="42.55421284612219" lon="13.909742612357826"><ele>337.0</ele><time>2026-03-29T08:58:48.998Z</time></trkpt><trkpt lat="42.55405604328808" lon="13.909649356218246"><ele>337.0</ele><time>2026-03-29T08:58:49.998Z</time></trkpt><trkpt lat="42.553904779204714" lon="13.909554017651338"><ele>337.0</ele><time>2026-03-29T08:58:50.998Z</time></trkpt><trkpt lat="42.553753427185356" lon="13.909472748052965"><ele>332.3333333333333</ele><time>2026-03-29T08:58:51.998Z</time></trkpt><trkpt lat="42.55359120541347" lon="13.909392946102539"><ele>327.6666666666667</ele><time>2026-03-29T08:58:52.998Z</time></trkpt><trkpt lat="42.553428307992796" lon="13.909316119651495"><ele>323.0</ele><time>2026-03-29T08:58:53.998Z</time></trkpt><trkpt lat="42.55326827880072" lon="13.909250702384904"><ele>324.33333333333337</ele><time>2026-03-29T08:58:54.998Z</time></trkpt><trkpt lat="42.55311456576759" lon="13.90919258112294"><ele>325.6666666666667</ele><time>2026-03-29T08:58:55.998Z</time></trkpt><trkpt lat="42.552969455956315" lon="13.909124358673397"><ele>327.0</ele><time>2026-03-29T08:58:56.998Z</time></trkpt><trkpt lat="42.55284167070362" lon="13.909050495846484"><ele>327.0</ele><time>2026-03-29T08:58:57.998Z</time></trkpt><trkpt lat="42.55275696731807" lon="13.908984350752826"><ele>327.0</ele><time>2026-03-29T08:58:58.998Z</time></trkpt><trkpt lat="42.552704313135386" lon="13.908920121916763"><ele>327.0</ele><time>2026-03-29T08:59:00Z</time></trkpt><trkpt lat="42.55263084237056" lon="13.908784450179892"><ele>327.0</ele><time>2026-03-29T08:59:02Z</time></trkpt><trkpt lat="42.552641294244786" lon="13.908673896121051"><ele>327.0</ele><time>2026-03-29T08:59:05Z</time></trkpt><trkpt lat="42.55275845874726" lon="13.908802525111303"><ele>327.0</ele><time>2026-03-29T08:59:08Z</time></trkpt><trkpt lat="42.552807406076795" lon="13.908886811537378"><ele>327.0</ele><time>2026-03-29T08:59:09Z</time></trkpt><trkpt lat="42.552881643166046" lon="13.908958546986064"><ele>327.0</ele><time>2026-03-29T08:59:10Z</time></trkpt><trkpt lat="42.55295910363421" lon="13.909012228861052"><ele>327.0</ele><time>2026-03-29T08:59:11Z</time></trkpt><trkpt lat="42.553064483769205" lon="13.909061744460168"><ele>327.0</ele><time>2026-03-29T08:59:12Z</time></trkpt><trkpt lat="42.55318932019254" lon="13.909106627114554"><ele>329.5</ele><time>2026-03-29T08:59:13Z</time></trkpt><trkpt lat="42.55333959748508" lon="13.909151705994065"><ele>332.0</ele><time>2026-03-29T08:59:14Z</time></trkpt><trkpt lat="42.55346641366327" lon="13.90918629228961"><ele>334.5</ele><time>2026-03-29T08:59:15Z</time></trkpt><trkpt lat="42.55360905867644" lon="13.909234086582169"><ele>337.0</ele><time>2026-03-29T08:59:16Z</time></trkpt><trkpt lat="42.55376234235776" lon="13.909261307119388"><ele>337.0</ele><time>2026-03-29T08:59:17Z</time></trkpt><trkpt lat="42.55390974247631" lon="13.909303843099565"><ele>337.0</ele><time>2026-03-29T08:59:18Z</time></trkpt><trkpt lat="42.55405820083861" lon="13.909338041492651"><ele>337.0</ele><time>2026-03-29T08:59:19Z</time></trkpt><trkpt lat="42.55420660611947" lon="13.909366571058914"><ele>337.0</ele><time>2026-03-29T08:59:20Z</time></trkpt><trkpt lat="42.55441318035192" lon="13.909426315757734"><ele>337.0</ele><time>2026-03-29T08:59:21Z</time></trkpt><trkpt lat="42.554555075427835" lon="13.909459515240208"><ele>337.0</ele><time>2026-03-29T08:59:22Z</time></trkpt><trkpt lat="42.55468723583159" lon="13.909483899174502"><ele>339.75</ele><time>2026-03-29T08:59:23Z</time></trkpt><trkpt lat="42.55481934431775" lon="13.909517309039662"><ele>342.5</ele><time>2026-03-29T08:59:24Z</time></trkpt><trkpt lat="42.55494205036902" lon="13.909552905105915"><ele>345.25</ele><time>2026-03-29T08:59:25Z</time></trkpt><trkpt lat="42.555059204960266" lon="13.90957758461312"><ele>348.0</ele><time>2026-03-29T08:59:26Z</time></trkpt><trkpt lat="42.555174109892455" lon="13.909574190304465"><ele>348.0</ele><time>2026-03-29T08:59:26.999Z</time></trkpt><trkpt lat="42.55529888502301" lon="13.909537596620435"><ele>348.0</ele><time>2026-03-29T08:59:27.999Z</time></trkpt><trkpt lat="42.5554300391182" lon="13.909467745949"><ele>348.0</ele><time>2026-03-29T08:59:28.999Z</time></trkpt><trkpt lat="42.555560048063974" lon="13.909345218695258"><ele>348.0</ele><time>2026-03-29T08:59:29.999Z</time></trkpt><trkpt lat="42.55568419907174" lon="13.909205367720654"><ele>350.0</ele><time>2026-03-29T08:59:30.999Z</time></trkpt><trkpt lat="42.555793149417006" lon="13.909050045585458"><ele>352.0</ele><time>2026-03-29T08:59:31.999Z</time></trkpt><trkpt lat="42.555882308482914" lon="13.908861589821688"><ele>354.0</ele><time>2026-03-29T08:59:32.999Z</time></trkpt><trkpt lat="42.555950974771875" lon="13.908645973469628"><ele>354.0</ele><time>2026-03-29T08:59:33.999Z</time></trkpt><trkpt lat="42.55599970367732" lon="13.908416734610805"><ele>354.0</ele><time>2026-03-29T08:59:34.999Z</time></trkpt><trkpt lat="42.55602221600103" lon="13.908208039675452"><ele>354.0</ele><time>2026-03-29T08:59:35.999Z</time></trkpt><trkpt lat="42.55602604094823" lon="13.907997802739105"><ele>356.25</ele><time>2026-03-29T08:59:36.999Z</time></trkpt><trkpt lat="42.55599958447401" lon="13.907807470494507"><ele>358.5</ele><time>2026-03-29T08:59:37.999Z</time></trkpt><trkpt lat="42.55594971415403" lon="13.9076141879519"><ele>360.75</ele><time>2026-03-29T08:59:38.999Z</time></trkpt><trkpt lat="42.55592579875994" lon="13.907435981215624"><ele>363.0</ele><time>2026-03-29T08:59:39.999Z</time></trkpt><trkpt lat="42.55596885916895" lon="13.90726068380574"><ele>363.6666666666667</ele><time>2026-03-29T08:59:40.999Z</time></trkpt><trkpt lat="42.556011961359154" lon="13.90706624503861"><ele>364.33333333333337</ele><time>2026-03-29T08:59:41.999Z</time></trkpt><trkpt lat="42.55606348910526" lon="13.906850871771962"><ele>365.0</ele><time>2026-03-29T08:59:42.999Z</time></trkpt><trkpt lat="42.556110558246004" lon="13.906601587008382"><ele>365.0</ele><time>2026-03-29T08:59:43.999Z</time></trkpt><trkpt lat="42.55615462460432" lon="13.906371717734231"><ele>365.0</ele><time>2026-03-29T08:59:44.999Z</time></trkpt><trkpt lat="42.55618798104007" lon="13.906126267945707"><ele>365.0</ele><time>2026-03-29T08:59:45.999Z</time></trkpt><trkpt lat="42.55621043205396" lon="13.905875207407158"><ele>370.6666666666667</ele><time>2026-03-29T08:59:46.999Z</time></trkpt><trkpt lat="42.55622951469584" lon="13.905607818103897"><ele>376.3333333333333</ele><time>2026-03-29T08:59:47.999Z</time></trkpt><trkpt lat="42.556238850942734" lon="13.905360427211248"><ele>382.0</ele><time>2026-03-29T08:59:48.999Z</time></trkpt><trkpt lat="42.55623488471786" lon="13.905130041622026"><ele>383.3333333333333</ele><time>2026-03-29T08:59:49.999Z</time></trkpt><trkpt lat="42.556220726022694" lon="13.904897982521003"><ele>384.66666666666663</ele><time>2026-03-29T08:59:50.999Z</time></trkpt><trkpt lat="42.5561920980971" lon="13.904653239516787"><ele>386.0</ele><time>2026-03-29T08:59:51.999Z</time></trkpt><trkpt lat="42.556147309260034" lon="13.904401655379072"><ele>378.66666666666663</ele><time>2026-03-29T08:59:52.999Z</time></trkpt><trkpt lat="42.55608752256247" lon="13.904144699153678"><ele>371.3333333333333</ele><time>2026-03-29T08:59:53.999Z</time></trkpt><trkpt lat="42.55601684220759" lon="13.90390829998276"><ele>364.0</ele><time>2026-03-29T08:59:54.999Z</time></trkpt><trkpt lat="42.55595064313319" lon="13.903677186465194"><ele>364.0</ele><time>2026-03-29T08:59:55.999Z</time></trkpt><trkpt lat="42.55590135140691" lon="13.9034264187215"><ele>364.0</ele><time>2026-03-29T08:59:56.999Z</time></trkpt><trkpt lat="42.55586713324539" lon="13.903144328028588"><ele>364.0</ele><time>2026-03-29T08:59:57.999Z</time></trkpt><trkpt lat="42.55583525019412" lon="13.902853807145126"><ele>365.66666666666663</ele><time>2026-03-29T08:59:58.999Z</time></trkpt><trkpt lat="42.55580272248355" lon="13.90258736640285"><ele>367.3333333333333</ele><time>2026-03-29T08:59:59.999Z</time></trkpt><trkpt lat="42.55577278481434" lon="13.902337174451464"><ele>369.0</ele><time>2026-03-29T09:00:00.999Z</time></trkpt><trkpt lat="42.55574365135933" lon="13.902095917221413"><ele>369.0</ele><time>2026-03-29T09:00:01.999Z</time></trkpt><trkpt lat="42.55572584757509" lon="13.901847286250506"><ele>369.0</ele><time>2026-03-29T09:00:02.999Z</time></trkpt><trkpt lat="42.55572342480002" lon="13.901595065476355"><ele>369.0</ele><time>2026-03-29T09:00:03.999Z</time></trkpt><trkpt lat="42.555731479673945" lon="13.901353776303997"><ele>367.6666666666667</ele><time>2026-03-29T09:00:04.999Z</time></trkpt><trkpt lat="42.555737056107766" lon="13.90112230710998"><ele>366.33333333333337</ele><time>2026-03-29T09:00:05.999Z</time></trkpt><trkpt lat="42.55573507024082" lon="13.900880771494398"><ele>365.0</ele><time>2026-03-29T09:00:06.999Z</time></trkpt><trkpt lat="42.55571240648942" lon="13.900619096046777"><ele>362.33333333333337</ele><time>2026-03-29T09:00:07.999Z</time></trkpt><trkpt lat="42.555663566075125" lon="13.90034492611396"><ele>359.6666666666667</ele><time>2026-03-29T09:00:08.998Z</time></trkpt><trkpt lat="42.55560588068565" lon="13.90006545260197"><ele>357.0</ele><time>2026-03-29T09:00:09.998Z</time></trkpt><trkpt lat="42.55555872108432" lon="13.899803775363198"><ele>356.3333333333333</ele><time>2026-03-29T09:00:10.998Z</time></trkpt><trkpt lat="42.555517367988855" lon="13.899553912451156"><ele>355.66666666666663</ele><time>2026-03-29T09:00:11.998Z</time></trkpt><trkpt lat="42.55548126970652" lon="13.899314617088573"><ele>355.0</ele><time>2026-03-29T09:00:12.998Z</time></trkpt><trkpt lat="42.55544640420789" lon="13.89907793064743"><ele>355.3333333333333</ele><time>2026-03-29T09:00:13.998Z</time></trkpt><trkpt lat="42.55540911055676" lon="13.898855244262075"><ele>355.6666666666667</ele><time>2026-03-29T09:00:14.998Z</time></trkpt><trkpt lat="42.55536626439902" lon="13.898638679033843"><ele>356.0</ele><time>2026-03-29T09:00:15.998Z</time></trkpt><trkpt lat="42.55530300808229" lon="13.898433042121098"><ele>358.0</ele><time>2026-03-29T09:00:16.998Z</time></trkpt><trkpt lat="42.55521235475579" lon="13.898233470431686"><ele>360.0</ele><time>2026-03-29T09:00:17.998Z</time></trkpt><trkpt lat="42.55510590733224" lon="13.898062360419509"><ele>362.0</ele><time>2026-03-29T09:00:18.998Z</time></trkpt><trkpt lat="42.555005155092715" lon="13.897911056518918"><ele>362.0</ele><time>2026-03-29T09:00:19.998Z</time></trkpt><trkpt lat="42.55494522261967" lon="13.897755640947416"><ele>362.0</ele><time>2026-03-29T09:00:20.998Z</time></trkpt><trkpt lat="42.55490561819294" lon="13.897614275779917"><ele>362.0</ele><time>2026-03-29T09:00:21.998Z</time></trkpt><trkpt lat="42.55487957324128" lon="13.897455885779364"><ele>362.0</ele><time>2026-03-29T09:00:22.998Z</time></trkpt><trkpt lat="42.554851732275694" lon="13.897269251721463"><ele>363.5</ele><time>2026-03-29T09:00:23.998Z</time></trkpt><trkpt lat="42.5548465642468" lon="13.897072997266779"><ele>365.0</ele><time>2026-03-29T09:00:24.998Z</time></trkpt><trkpt lat="42.55484205459215" lon="13.896862764416907"><ele>366.5</ele><time>2026-03-29T09:00:25.998Z</time></trkpt><trkpt lat="42.55483507013789" lon="13.896671160527513"><ele>368.0</ele><time>2026-03-29T09:00:26.998Z</time></trkpt><trkpt lat="42.55485833841323" lon="13.896511804162783"><ele>368.0</ele><time>2026-03-29T09:00:27.998Z</time></trkpt><trkpt lat="42.55488725653778" lon="13.89636606511157"><ele>368.0</ele><time>2026-03-29T09:00:28.998Z</time></trkpt><trkpt lat="42.55493012871463" lon="13.896220067536968"><ele>368.0</ele><time>2026-03-29T09:00:29.998Z</time></trkpt><trkpt lat="42.55504735855517" lon="13.89612167010981"><ele>368.0</ele><time>2026-03-29T09:00:30.998Z</time></trkpt><trkpt lat="42.55517736900916" lon="13.896005964268081"><ele>365.75</ele><time>2026-03-29T09:00:31.998Z</time></trkpt><trkpt lat="42.55530745611785" lon="13.895877568770391"><ele>363.5</ele><time>2026-03-29T09:00:32.998Z</time></trkpt><trkpt lat="42.555438574727006" lon="13.895779689084243"><ele>361.25</ele><time>2026-03-29T09:00:33.998Z</time></trkpt><trkpt lat="42.55556699057022" lon="13.895728706150978"><ele>359.0</ele><time>2026-03-29T09:00:34.998Z</time></trkpt><trkpt lat="42.555687337343535" lon="13.895696204430534"><ele>359.0</ele><time>2026-03-29T09:00:35.998Z</time></trkpt><trkpt lat="42.55582913987522" lon="13.895700406815598"><ele>359.0</ele><time>2026-03-29T09:00:36.998Z</time></trkpt><trkpt lat="42.55597256406637" lon="13.895728672408014"><ele>359.0</ele><time>2026-03-29T09:00:37.998Z</time></trkpt><trkpt lat="42.55611304759566" lon="13.895758731409506"><ele>359.0</ele><time>2026-03-29T09:00:38.998Z</time></trkpt><trkpt lat="42.55623637315832" lon="13.89582963887793"><ele>357.6</ele><time>2026-03-29T09:00:39.998Z</time></trkpt><trkpt lat="42.5563508406711" lon="13.89591483292012"><ele>356.2</ele><time>2026-03-29T09:00:40.998Z</time></trkpt><trkpt lat="42.556436320741476" lon="13.895997455425569"><ele>354.8</ele><time>2026-03-29T09:00:41.998Z</time></trkpt><trkpt lat="42.556501720661416" lon="13.896053441103039"><ele>353.40000000000003</ele><time>2026-03-29T09:00:42.998Z</time></trkpt><trkpt lat="42.5565778641295" lon="13.896067926713517"><ele>352.0</ele><time>2026-03-29T09:00:43.998Z</time></trkpt><trkpt lat="42.55667208765585" lon="13.896029165600947"><ele>352.0</ele><time>2026-03-29T09:00:44.998Z</time></trkpt><trkpt lat="42.55676214563361" lon="13.89594344222447"><ele>352.0</ele><time>2026-03-29T09:00:45.998Z</time></trkpt><trkpt lat="42.556819706473355" lon="13.89583665656338"><ele>352.0</ele><time>2026-03-29T09:00:46.998Z</time></trkpt><trkpt lat="42.55684767242916" lon="13.895709615217628"><ele>352.0</ele><time>2026-03-29T09:00:47.998Z</time></trkpt><trkpt lat="42.556838155720115" lon="13.895572484209447"><ele>352.0</ele><time>2026-03-29T09:00:48.998Z</time></trkpt><trkpt lat="42.55678660707993" lon="13.895440268090562"><ele>352.0</ele><time>2026-03-29T09:00:49.998Z</time></trkpt><trkpt lat="42.55669203575987" lon="13.895333690954697"><ele>352.0</ele><time>2026-03-29T09:00:50.998Z</time></trkpt><trkpt lat="42.556565899069824" lon="13.895222870498914"><ele>352.0</ele><time>2026-03-29T09:00:51.998Z</time></trkpt><trkpt lat="42.55644408939464" lon="13.89511445685536"><ele>352.0</ele><time>2026-03-29T09:00:52.998Z</time></trkpt><trkpt lat="42.556328724350855" lon="13.894990806958813"><ele>351.0</ele><time>2026-03-29T09:00:53.998Z</time></trkpt><trkpt lat="42.5562099902107" lon="13.894871779087254"><ele>350.0</ele><time>2026-03-29T09:00:54.998Z</time></trkpt><trkpt lat="42.55610363070305" lon="13.894777350778156"><ele>349.0</ele><time>2026-03-29T09:00:55.998Z</time></trkpt><trkpt lat="42.55600605667823" lon="13.894710213283144"><ele>348.0</ele><time>2026-03-29T09:00:56.998Z</time></trkpt><trkpt lat="42.55589173044683" lon="13.894679725576848"><ele>348.0</ele><time>2026-03-29T09:00:57.998Z</time></trkpt><trkpt lat="42.55575778889675" lon="13.89469525254639"><ele>348.0</ele><time>2026-03-29T09:00:58.998Z</time></trkpt><trkpt lat="42.55563428733004" lon="13.894756105621118"><ele>348.0</ele><time>2026-03-29T09:00:59.998Z</time></trkpt><trkpt lat="42.55555390967882" lon="13.894791630314478"><ele>348.0</ele><time>2026-03-29T09:01:00.998Z</time></trkpt><trkpt lat="42.555459473232894" lon="13.894714503894889"><ele>348.0</ele><time>2026-03-29T09:01:02.998Z</time></trkpt><trkpt lat="42.55545394526833" lon="13.894625755099927"><ele>348.0</ele><time>2026-03-29T09:01:03.998Z</time></trkpt><trkpt lat="42.55548830720099" lon="13.894540072357728"><ele>348.0</ele><time>2026-03-29T09:01:04.998Z</time></trkpt><trkpt lat="42.55556275712687" lon="13.894467301090089"><ele>348.0</ele><time>2026-03-29T09:01:06Z</time></trkpt><trkpt lat="42.55567834542479" lon="13.894439336560714"><ele>348.0</ele><time>2026-03-29T09:01:07Z</time></trkpt><trkpt lat="42.55579838272918" lon="13.89434857729513"><ele>348.0</ele><time>2026-03-29T09:01:08Z</time></trkpt><trkpt lat="42.55592208147477" lon="13.894281252406053"><ele>348.0</ele><time>2026-03-29T09:01:09Z</time></trkpt><trkpt lat="42.556039632200225" lon="13.894177935071012"><ele>348.0</ele><time>2026-03-29T09:01:10Z</time></trkpt><trkpt lat="42.55616809100696" lon="13.894094153686392"><ele>348.0</ele><time>2026-03-29T09:01:11Z</time></trkpt><trkpt lat="42.55631613307724" lon="13.89407923977816"><ele>345.5</ele><time>2026-03-29T09:01:12Z</time></trkpt><trkpt lat="42.556467500452094" lon="13.894083460155503"><ele>343.0</ele><time>2026-03-29T09:01:13Z</time></trkpt><trkpt lat="42.556614576225535" lon="13.894100540616394"><ele>340.5</ele><time>2026-03-29T09:01:14Z</time></trkpt><trkpt lat="42.5567595213545" lon="13.894102887153366"><ele>338.0</ele><time>2026-03-29T09:01:15Z</time></trkpt><trkpt lat="42.556878218103094" lon="13.894128947406626"><ele>338.0</ele><time>2026-03-29T09:01:16Z</time></trkpt><trkpt lat="42.55698520873389" lon="13.894130754488858"><ele>338.0</ele><time>2026-03-29T09:01:17Z</time></trkpt><trkpt lat="42.55710015633191" lon="13.894076919546256"><ele>338.0</ele><time>2026-03-29T09:01:18Z</time></trkpt><trkpt lat="42.557205045645226" lon="13.893987004978788"><ele>338.0</ele><time>2026-03-29T09:01:19Z</time></trkpt><trkpt lat="42.55728089622114" lon="13.893919276177774"><ele>338.0</ele><time>2026-03-29T09:01:20Z</time></trkpt><trkpt lat="42.55734435865808" lon="13.893876299388088"><ele>336.75</ele><time>2026-03-29T09:01:21Z</time></trkpt><trkpt lat="42.55735205737519" lon="13.89369478047337"><ele>335.5</ele><time>2026-03-29T09:01:22Z</time></trkpt><trkpt lat="42.55737309184272" lon="13.893546567314603"><ele>334.25</ele><time>2026-03-29T09:01:23Z</time></trkpt><trkpt lat="42.55738334793513" lon="13.89338714158433"><ele>333.0</ele><time>2026-03-29T09:01:24Z</time></trkpt><trkpt lat="42.557383243019444" lon="13.893224648515035"><ele>333.0</ele><time>2026-03-29T09:01:25Z</time></trkpt><trkpt lat="42.557364399103506" lon="13.893054986400537"><ele>333.0</ele><time>2026-03-29T09:01:26Z</time></trkpt><trkpt lat="42.55733381304253" lon="13.892874878032877"><ele>333.0</ele><time>2026-03-29T09:01:27Z</time></trkpt><trkpt lat="42.55732127413573" lon="13.892681300558884"><ele>333.0</ele><time>2026-03-29T09:01:28Z</time></trkpt><trkpt lat="42.55730370625884" lon="13.892497415107705"><ele>335.25</ele><time>2026-03-29T09:01:29Z</time></trkpt><trkpt lat="42.5573008272412" lon="13.892332804461518"><ele>337.5</ele><time>2026-03-29T09:01:30Z</time></trkpt><trkpt lat="42.557323728297256" lon="13.892182386849287"><ele>339.75</ele><time>2026-03-29T09:01:31Z</time></trkpt><trkpt lat="42.557378544713174" lon="13.892029229362384"><ele>342.0</ele><time>2026-03-29T09:01:32Z</time></trkpt><trkpt lat="42.55744973542197" lon="13.891856909637042"><ele>342.0</ele><time>2026-03-29T09:01:33Z</time></trkpt><trkpt lat="42.55751460231866" lon="13.891676993150572"><ele>342.0</ele><time>2026-03-29T09:01:34Z</time></trkpt><trkpt lat="42.55758130776648" lon="13.891493793381612"><ele>342.0</ele><time>2026-03-29T09:01:35Z</time></trkpt><trkpt lat="42.5576431061374" lon="13.891301699929896"><ele>342.0</ele><time>2026-03-29T09:01:36Z</time></trkpt><trkpt lat="42.55768348851283" lon="13.891107305536503"><ele>342.0</ele><time>2026-03-29T09:01:37Z</time></trkpt><trkpt lat="42.557711485661066" lon="13.890913057726715"><ele>342.0</ele><time>2026-03-29T09:01:38Z</time></trkpt><trkpt lat="42.557742921971716" lon="13.890746715659205"><ele>342.0</ele><time>2026-03-29T09:01:39Z</time></trkpt><trkpt lat="42.557771748103065" lon="13.890585171247535"><ele>341.75</ele><time>2026-03-29T09:01:40Z</time></trkpt><trkpt lat="42.55777556856082" lon="13.890424262058385"><ele>341.5</ele><time>2026-03-29T09:01:41Z</time></trkpt><trkpt lat="42.557739558119515" lon="13.890262054616079"><ele>341.25</ele><time>2026-03-29T09:01:42Z</time></trkpt><trkpt lat="42.55767590110529" lon="13.890088677211448"><ele>341.0</ele><time>2026-03-29T09:01:43Z</time></trkpt><trkpt lat="42.55759778437332" lon="13.889917894437582"><ele>342.5</ele><time>2026-03-29T09:01:44Z</time></trkpt><trkpt lat="42.55752516926602" lon="13.889772186071601"><ele>344.0</ele><time>2026-03-29T09:01:45Z</time></trkpt><trkpt lat="42.55745691112805" lon="13.889633740305014"><ele>345.5</ele><time>2026-03-29T09:01:46Z</time></trkpt><trkpt lat="42.55738414684311" lon="13.889520762100835"><ele>347.0</ele><time>2026-03-29T09:01:47Z</time></trkpt><trkpt lat="42.5572925690679" lon="13.889448464452743"><ele>347.0</ele><time>2026-03-29T09:01:48Z</time></trkpt><trkpt lat="42.557175519291526" lon="13.889419013678511"><ele>347.0</ele><time>2026-03-29T09:01:49Z</time></trkpt><trkpt lat="42.55705230011112" lon="13.889435142600377"><ele>347.0</ele><time>2026-03-29T09:01:50Z</time></trkpt><trkpt lat="42.55693610642239" lon="13.889492355487635"><ele>347.0</ele><time>2026-03-29T09:01:51Z</time></trkpt><trkpt lat="42.5568164840313" lon="13.889528012882733"><ele>345.5</ele><time>2026-03-29T09:01:52Z</time></trkpt><trkpt lat="42.55668853102987" lon="13.889484145690172"><ele>344.0</ele><time>2026-03-29T09:01:53Z</time></trkpt><trkpt lat="42.5565563902705" lon="13.889391771366336"><ele>342.5</ele><time>2026-03-29T09:01:54Z</time></trkpt><trkpt lat="42.55643712590163" lon="13.889262246334381"><ele>341.0</ele><time>2026-03-29T09:01:55Z</time></trkpt><trkpt lat="42.55632095339996" lon="13.889138739299236"><ele>341.0</ele><time>2026-03-29T09:01:56Z</time></trkpt><trkpt lat="42.55621930858541" lon="13.888979104976626"><ele>341.0</ele><time>2026-03-29T09:01:57Z</time></trkpt><trkpt lat="42.55614209287089" lon="13.888782245465245"><ele>341.0</ele><time>2026-03-29T09:01:58Z</time></trkpt><trkpt lat="42.55608134441448" lon="13.888567921309601"><ele>345.5</ele><time>2026-03-29T09:01:58.999Z</time></trkpt><trkpt lat="42.55601135044196" lon="13.888378392723094"><ele>350.0</ele><time>2026-03-29T09:01:59.999Z</time></trkpt><trkpt lat="42.55595735416633" lon="13.88819822483474"><ele>354.5</ele><time>2026-03-29T09:02:00.999Z</time></trkpt><trkpt lat="42.555886531882585" lon="13.888042564454224"><ele>359.0</ele><time>2026-03-29T09:02:01.999Z</time></trkpt><trkpt lat="42.55581808080961" lon="13.887927575454276"><ele>359.0</ele><time>2026-03-29T09:02:02.999Z</time></trkpt><trkpt lat="42.55576388181477" lon="13.88783773611189"><ele>359.0</ele><time>2026-03-29T09:02:03.999Z</time></trkpt><trkpt lat="42.555718112714644" lon="13.887768127913642"><ele>359.0</ele><time>2026-03-29T09:02:04.999Z</time></trkpt><trkpt lat="42.55567800529981" lon="13.887696273936841"><ele>359.0</ele><time>2026-03-29T09:02:05.999Z</time></trkpt><trkpt lat="42.555633326508676" lon="13.887626245187153"><ele>359.0</ele><time>2026-03-29T09:02:06.999Z</time></trkpt><trkpt lat="42.55557044502616" lon="13.887588408060862"><ele>359.0</ele><time>2026-03-29T09:02:07.999Z</time></trkpt><trkpt lat="42.555489746791736" lon="13.887593950709961"><ele>359.0</ele><time>2026-03-29T09:02:08.999Z</time></trkpt><trkpt lat="42.55540772865361" lon="13.887692058490684"><ele>359.0</ele><time>2026-03-29T09:02:09.999Z</time></trkpt><trkpt lat="42.555287251369194" lon="13.887747809911298"><ele>359.0</ele><time>2026-03-29T09:02:10.999Z</time></trkpt><trkpt lat="42.555167979581434" lon="13.88778928489662"><ele>359.0</ele><time>2026-03-29T09:02:11.999Z</time></trkpt><trkpt lat="42.55504159596766" lon="13.8878371033996"><ele>359.0</ele><time>2026-03-29T09:02:12.999Z</time></trkpt><trkpt lat="42.5548958806659" lon="13.887846358069199"><ele>359.0</ele><time>2026-03-29T09:02:13.999Z</time></trkpt><trkpt lat="42.5547342459517" lon="13.887847756830753"><ele>359.0</ele><time>2026-03-29T09:02:14.999Z</time></trkpt><trkpt lat="42.55456307489544" lon="13.887844805492136"><ele>359.0</ele><time>2026-03-29T09:02:15.999Z</time></trkpt><trkpt lat="42.55439337946152" lon="13.887841889991162"><ele>359.75</ele><time>2026-03-29T09:02:16.999Z</time></trkpt><trkpt lat="42.55424282940138" lon="13.887834995706209"><ele>360.5</ele><time>2026-03-29T09:02:17.999Z</time></trkpt><trkpt lat="42.55410057417713" lon="13.887836370367307"><ele>361.25</ele><time>2026-03-29T09:02:18.999Z</time></trkpt><trkpt lat="42.55396332556694" lon="13.887836728034044"><ele>362.0</ele><time>2026-03-29T09:02:19.999Z</time></trkpt><trkpt lat="42.55382894802567" lon="13.887837115708278"><ele>362.25</ele><time>2026-03-29T09:02:20.999Z</time></trkpt><trkpt lat="42.55370290226248" lon="13.887837684020504"><ele>362.5</ele><time>2026-03-29T09:02:21.999Z</time></trkpt><trkpt lat="42.553572651645744" lon="13.88783216603047"><ele>362.75</ele><time>2026-03-29T09:02:22.999Z</time></trkpt><trkpt lat="42.55345467587981" lon="13.88782742739217"><ele>363.0</ele><time>2026-03-29T09:02:23.999Z</time></trkpt><trkpt lat="42.55334074422903" lon="13.88782175748259"><ele>363.0</ele><time>2026-03-29T09:02:24.999Z</time></trkpt><trkpt lat="42.55322673582422" lon="13.887798761981493"><ele>363.0</ele><time>2026-03-29T09:02:25.999Z</time></trkpt><trkpt lat="42.55312809692255" lon="13.887733938487106"><ele>363.0</ele><time>2026-03-29T09:02:26.999Z</time></trkpt><trkpt lat="42.5530543733465" lon="13.887629846280632"><ele>363.0</ele><time>2026-03-29T09:02:27.999Z</time></trkpt><trkpt lat="42.55299213698692" lon="13.887506884388074"><ele>363.0</ele><time>2026-03-29T09:02:28.999Z</time></trkpt><trkpt lat="42.55294162327209" lon="13.887390684553688"><ele>364.2</ele><time>2026-03-29T09:02:29.999Z</time></trkpt><trkpt lat="42.55288785968088" lon="13.887277640223916"><ele>365.4</ele><time>2026-03-29T09:02:30.999Z</time></trkpt><trkpt lat="42.55283285006647" lon="13.887171077532601"><ele>366.59999999999997</ele><time>2026-03-29T09:02:31.999Z</time></trkpt><trkpt lat="42.552784830370655" lon="13.88706557194445"><ele>367.79999999999995</ele><time>2026-03-29T09:02:32.999Z</time></trkpt><trkpt lat="42.55274108181215" lon="13.88696036622598"><ele>369.0</ele><time>2026-03-29T09:02:33.999Z</time></trkpt><trkpt lat="42.55269776932872" lon="13.886859962734688"><ele>369.3333333333333</ele><time>2026-03-29T09:02:34.999Z</time></trkpt><trkpt lat="42.55264933308909" lon="13.886759578492086"><ele>369.6666666666667</ele><time>2026-03-29T09:02:35.999Z</time></trkpt><trkpt lat="42.552606943361404" lon="13.886671661704872"><ele>370.0</ele><time>2026-03-29T09:02:36.999Z</time></trkpt><trkpt lat="42.55256658884686" lon="13.886579495281222"><ele>370.33333333333337</ele><time>2026-03-29T09:02:37.999Z</time></trkpt><trkpt lat="42.552526946780795" lon="13.886485997345318"><ele>370.6666666666667</ele><time>2026-03-29T09:02:38.999Z</time></trkpt><trkpt lat="42.55248654628849" lon="13.886396205104282"><ele>371.0</ele><time>2026-03-29T09:02:39.999Z</time></trkpt><trkpt lat="42.55244606462847" lon="13.886311397618467"><ele>371.0</ele><time>2026-03-29T09:02:40.999Z</time></trkpt><trkpt lat="42.552409955966915" lon="13.88622777045481"><ele>371.0</ele><time>2026-03-29T09:02:41.999Z</time></trkpt><trkpt lat="42.552376576506916" lon="13.886143578115188"><ele>371.0</ele><time>2026-03-29T09:02:42.999Z</time></trkpt><trkpt lat="42.552347410478795" lon="13.886059666177612"><ele>371.0</ele><time>2026-03-29T09:02:43.999Z</time></trkpt><trkpt lat="42.55231824324764" lon="13.885976311789957"><ele>371.0</ele><time>2026-03-29T09:02:44.999Z</time></trkpt><trkpt lat="42.55229162006986" lon="13.885897979274652"><ele>371.0</ele><time>2026-03-29T09:02:45.999Z</time></trkpt><trkpt lat="42.552263005331845" lon="13.88581829084542"><ele>371.0</ele><time>2026-03-29T09:02:46.999Z</time></trkpt><trkpt lat="42.552235748552356" lon="13.885738817846164"><ele>371.6666666666667</ele><time>2026-03-29T09:02:47.999Z</time></trkpt><trkpt lat="42.55217558416797" lon="13.885590526922973"><ele>372.33333333333337</ele><time>2026-03-29T09:02:49.999Z</time></trkpt><trkpt lat="42.552128178284654" lon="13.88544104419385"><ele>373.0</ele><time>2026-03-29T09:02:51.999Z</time></trkpt><trkpt lat="42.552101109605424" lon="13.885358354215354"><ele>373.6666666666667</ele><time>2026-03-29T09:02:52.999Z</time></trkpt><trkpt lat="42.55207191095391" lon="13.885277817731996"><ele>374.3333333333333</ele><time>2026-03-29T09:02:53.999Z</time></trkpt><trkpt lat="42.55203957285669" lon="13.885190879565565"><ele>375.0</ele><time>2026-03-29T09:02:54.999Z</time></trkpt><trkpt lat="42.55198740044967" lon="13.885041935976595"><ele>375.0</ele><time>2026-03-29T09:02:56.998Z</time></trkpt><trkpt lat="42.55195383012764" lon="13.884958904992141"><ele>375.0</ele><time>2026-03-29T09:02:57.998Z</time></trkpt><trkpt lat="42.55192080154905" lon="13.884872378011917"><ele>375.0</ele><time>2026-03-29T09:02:58.998Z</time></trkpt><trkpt lat="42.55188680675488" lon="13.884776227277271"><ele>375.0</ele><time>2026-03-29T09:02:59.998Z</time></trkpt><trkpt lat="42.55184506908073" lon="13.884657326219234"><ele>375.0</ele><time>2026-03-29T09:03:00.998Z</time></trkpt><trkpt lat="42.55180893018482" lon="13.884541414858562"><ele>375.0</ele><time>2026-03-29T09:03:01.998Z</time></trkpt><trkpt lat="42.55177331845597" lon="13.884429669835734"><ele>375.0</ele><time>2026-03-29T09:03:02.998Z</time></trkpt><trkpt lat="42.55174230496804" lon="13.88431986362211"><ele>375.0</ele><time>2026-03-29T09:03:03.998Z</time></trkpt><trkpt lat="42.55171438584122" lon="13.884213690948693"><ele>375.0</ele><time>2026-03-29T09:03:04.998Z</time></trkpt><trkpt lat="42.55168185784922" lon="13.884105759768795"><ele>375.0</ele><time>2026-03-29T09:03:05.998Z</time></trkpt><trkpt lat="42.55165694301075" lon="13.884000778940385"><ele>375.0</ele><time>2026-03-29T09:03:06.998Z</time></trkpt><trkpt lat="42.55164180157811" lon="13.883902920023289"><ele>375.0</ele><time>2026-03-29T09:03:07.998Z</time></trkpt><trkpt lat="42.55162771811918" lon="13.883805072038989"><ele>373.7142857142857</ele><time>2026-03-29T09:03:08.998Z</time></trkpt><trkpt lat="42.551608736037956" lon="13.883708184395434"><ele>372.4285714285714</ele><time>2026-03-29T09:03:09.998Z</time></trkpt><trkpt lat="42.551590800991335" lon="13.883613437523879"><ele>371.1428571428571</ele><time>2026-03-29T09:03:10.998Z</time></trkpt><trkpt lat="42.55158686842092" lon="13.8835134471686"><ele>369.8571428571429</ele><time>2026-03-29T09:03:12Z</time></trkpt><trkpt lat="42.55155819707385" lon="13.8834195820817"><ele>368.57142857142856</ele><time>2026-03-29T09:03:13Z</time></trkpt><trkpt lat="42.55154670437314" lon="13.883320788357413"><ele>367.2857142857143</ele><time>2026-03-29T09:03:14Z</time></trkpt><trkpt lat="42.55152959453481" lon="13.883222372482678"><ele>366.0</ele><time>2026-03-29T09:03:15Z</time></trkpt><trkpt lat="42.55151311401846" lon="13.883122487491963"><ele>364.75</ele><time>2026-03-29T09:03:16Z</time></trkpt><trkpt lat="42.55149019199627" lon="13.883013153535153"><ele>363.5</ele><time>2026-03-29T09:03:17Z</time></trkpt><trkpt lat="42.55145137877769" lon="13.882858826521973"><ele>362.25</ele><time>2026-03-29T09:03:18Z</time></trkpt><trkpt lat="42.55137061286548" lon="13.882700266381647"><ele>361.0</ele><time>2026-03-29T09:03:19Z</time></trkpt><trkpt lat="42.55128993199737" lon="13.882565202275067"><ele>361.5</ele><time>2026-03-29T09:03:20Z</time></trkpt><trkpt lat="42.551192462638255" lon="13.882447588456724"><ele>362.0</ele><time>2026-03-29T09:03:21Z</time></trkpt><trkpt lat="42.55107188164945" lon="13.882347468605634"><ele>362.5</ele><time>2026-03-29T09:03:22Z</time></trkpt><trkpt lat="42.550912017249715" lon="13.88226244916188"><ele>363.0</ele><time>2026-03-29T09:03:23Z</time></trkpt><trkpt lat="42.55075584272536" lon="13.882180324925006"><ele>363.0</ele><time>2026-03-29T09:03:24Z</time></trkpt><trkpt lat="42.55057304796812" lon="13.882093826431403"><ele>363.0</ele><time>2026-03-29T09:03:25Z</time></trkpt><trkpt lat="42.55041408166053" lon="13.882010129419665"><ele>363.0</ele><time>2026-03-29T09:03:26Z</time></trkpt><trkpt lat="42.550262594303305" lon="13.881921782521042"><ele>362.25</ele><time>2026-03-29T09:03:27Z</time></trkpt><trkpt lat="42.55013093775123" lon="13.881848539088775"><ele>361.5</ele><time>2026-03-29T09:03:28Z</time></trkpt><trkpt lat="42.550029232389704" lon="13.881790164579929"><ele>360.75</ele><time>2026-03-29T09:03:29Z</time></trkpt><trkpt lat="42.549938144470346" lon="13.881739914647836"><ele>360.0</ele><time>2026-03-29T09:03:30Z</time></trkpt><trkpt lat="42.54983979529415" lon="13.88172813930258"><ele>360.0</ele><time>2026-03-29T09:03:31Z</time></trkpt><trkpt lat="42.54973501363564" lon="13.881759755149284"><ele>360.0</ele><time>2026-03-29T09:03:32Z</time></trkpt><trkpt lat="42.549629783619636" lon="13.881848247152227"><ele>360.0</ele><time>2026-03-29T09:03:33Z</time></trkpt><trkpt lat="42.54955698846159" lon="13.881998772012397"><ele>360.0</ele><time>2026-03-29T09:03:34Z</time></trkpt><trkpt lat="42.54950080033156" lon="13.882154542072344"><ele>352.3333333333333</ele><time>2026-03-29T09:03:35Z</time></trkpt><trkpt lat="42.549474419470116" lon="13.882334081249901"><ele>344.66666666666663</ele><time>2026-03-29T09:03:36Z</time></trkpt><trkpt lat="42.54946645981982" lon="13.882543844731455"><ele>337.0</ele><time>2026-03-29T09:03:37Z</time></trkpt><trkpt lat="42.549449943904875" lon="13.88277908159119"><ele>336.75</ele><time>2026-03-29T09:03:38Z</time></trkpt><trkpt lat="42.54945336441203" lon="13.882991197664982"><ele>336.5</ele><time>2026-03-29T09:03:39Z</time></trkpt><trkpt lat="42.54945678811294" lon="13.883189779675579"><ele>336.25</ele><time>2026-03-29T09:03:40Z</time></trkpt><trkpt lat="42.54947597263277" lon="13.883367445799593"><ele>336.0</ele><time>2026-03-29T09:03:41Z</time></trkpt><trkpt lat="42.549498316871706" lon="13.883523294433655"><ele>338.6</ele><time>2026-03-29T09:03:42Z</time></trkpt><trkpt lat="42.549507112033275" lon="13.883673894743033"><ele>341.20000000000005</ele><time>2026-03-29T09:03:43Z</time></trkpt><trkpt lat="42.54947596620756" lon="13.883803938873152"><ele>343.79999999999995</ele><time>2026-03-29T09:03:44Z</time></trkpt><trkpt lat="42.549378019714574" lon="13.883893842943746"><ele>346.4</ele><time>2026-03-29T09:03:45Z</time></trkpt><trkpt lat="42.549282835009556" lon="13.88395863470656"><ele>349.0</ele><time>2026-03-29T09:03:46Z</time></trkpt><trkpt lat="42.54916129618026" lon="13.88397210767934"><ele>349.0</ele><time>2026-03-29T09:03:47Z</time></trkpt><trkpt lat="42.54900583101034" lon="13.883978298639601"><ele>349.0</ele><time>2026-03-29T09:03:48Z</time></trkpt><trkpt lat="42.548838208199264" lon="13.88400359352395"><ele>349.0</ele><time>2026-03-29T09:03:49Z</time></trkpt><trkpt lat="42.54867787967655" lon="13.884001168334096"><ele>346.25</ele><time>2026-03-29T09:03:50Z</time></trkpt><trkpt lat="42.54853198473077" lon="13.884015721273457"><ele>343.5</ele><time>2026-03-29T09:03:51Z</time></trkpt><trkpt lat="42.54839573199262" lon="13.884041783249183"><ele>340.75</ele><time>2026-03-29T09:03:52Z</time></trkpt><trkpt lat="42.54826847406139" lon="13.884093409192035"><ele>338.0</ele><time>2026-03-29T09:03:53Z</time></trkpt><trkpt lat="42.54814826077" lon="13.88418626131035"><ele>336.25</ele><time>2026-03-29T09:03:54Z</time></trkpt><trkpt lat="42.54804838588098" lon="13.884341384292256"><ele>334.5</ele><time>2026-03-29T09:03:55Z</time></trkpt><trkpt lat="42.54796576461681" lon="13.884513215020387"><ele>332.75</ele><time>2026-03-29T09:03:56Z</time></trkpt><trkpt lat="42.5479094891039" lon="13.884692800095664"><ele>331.0</ele><time>2026-03-29T09:03:57Z</time></trkpt><trkpt lat="42.54786146184356" lon="13.884856884065883"><ele>331.0</ele><time>2026-03-29T09:03:58Z</time></trkpt><trkpt lat="42.547816722923564" lon="13.88499533381981"><ele>331.0</ele><time>2026-03-29T09:03:59Z</time></trkpt><trkpt lat="42.547756406941176" lon="13.88509995133091"><ele>331.0</ele><time>2026-03-29T09:04:00Z</time></trkpt><trkpt lat="42.547689596240794" lon="13.885174246878037"><ele>331.0</ele><time>2026-03-29T09:04:01Z</time></trkpt><trkpt lat="42.54759611365662" lon="13.885243452327833"><ele>331.0</ele><time>2026-03-29T09:04:03Z</time></trkpt><trkpt lat="42.547488405057216" lon="13.885310949346389"><ele>331.4</ele><time>2026-03-29T09:04:05Z</time></trkpt><trkpt lat="42.547370293508735" lon="13.885367609824643"><ele>331.8</ele><time>2026-03-29T09:04:06.999Z</time></trkpt><trkpt lat="42.5473046960809" lon="13.885400878542688"><ele>332.2</ele><time>2026-03-29T09:04:07.999Z</time></trkpt><trkpt lat="42.547226444910834" lon="13.885440766565672"><ele>332.59999999999997</ele><time>2026-03-29T09:04:08.999Z</time></trkpt><trkpt lat="42.547142105247836" lon="13.885478670972379"><ele>333.0</ele><time>2026-03-29T09:04:09.999Z</time></trkpt><trkpt lat="42.54706333736847" lon="13.88552289161062"><ele>333.2</ele><time>2026-03-29T09:04:10.999Z</time></trkpt><trkpt lat="42.546978622263545" lon="13.885576969789376"><ele>333.4</ele><time>2026-03-29T09:04:11.999Z</time></trkpt><trkpt lat="42.54689648034149" lon="13.885636603411799"><ele>333.59999999999997</ele><time>2026-03-29T09:04:12.999Z</time></trkpt><trkpt lat="42.54681989989939" lon="13.885706371859426"><ele>333.79999999999995</ele><time>2026-03-29T09:04:13.999Z</time></trkpt><trkpt lat="42.546760144297146" lon="13.885793669840183"><ele>334.0</ele><time>2026-03-29T09:04:14.999Z</time></trkpt><trkpt lat="42.54670845624572" lon="13.88589032869407"><ele>333.4</ele><time>2026-03-29T09:04:15.999Z</time></trkpt><trkpt lat="42.54665471326478" lon="13.88598904992917"><ele>332.79999999999995</ele><time>2026-03-29T09:04:16.999Z</time></trkpt><trkpt lat="42.5466011266718" lon="13.886091463699975"><ele>332.20000000000005</ele><time>2026-03-29T09:04:17.999Z</time></trkpt><trkpt lat="42.54654403456641" lon="13.886197728847446"><ele>331.6</ele><time>2026-03-29T09:04:18.999Z</time></trkpt><trkpt lat="42.54647990040361" lon="13.886302748619139"><ele>331.0</ele><time>2026-03-29T09:04:19.999Z</time></trkpt><trkpt lat="42.54640953782593" lon="13.886416415131297"><ele>331.0</ele><time>2026-03-29T09:04:20.999Z</time></trkpt><trkpt lat="42.54633855619676" lon="13.886537996130619"><ele>331.0</ele><time>2026-03-29T09:04:21.999Z</time></trkpt><trkpt lat="42.546268554195336" lon="13.886662845196444"><ele>331.0</ele><time>2026-03-29T09:04:22.999Z</time></trkpt><trkpt lat="42.54618448722234" lon="13.88681196073731"><ele>331.0</ele><time>2026-03-29T09:04:23.999Z</time></trkpt><trkpt lat="42.54610158353093" lon="13.88695750956594"><ele>330.4</ele><time>2026-03-29T09:04:24.999Z</time></trkpt><trkpt lat="42.54602414527719" lon="13.88708087125921"><ele>329.8</ele><time>2026-03-29T09:04:25.999Z</time></trkpt><trkpt lat="42.545942848468975" lon="13.887180431377695"><ele>329.2</ele><time>2026-03-29T09:04:26.999Z</time></trkpt><trkpt lat="42.54584758022217" lon="13.887244932331917"><ele>328.59999999999997</ele><time>2026-03-29T09:04:27.999Z</time></trkpt><trkpt lat="42.54573943100742" lon="13.887272326392317"><ele>328.0</ele><time>2026-03-29T09:04:28.999Z</time></trkpt><trkpt lat="42.54562311016307" lon="13.887265057469964"><ele>328.0</ele><time>2026-03-29T09:04:29.999Z</time></trkpt><trkpt lat="42.54552473161259" lon="13.8871985533991"><ele>328.0</ele><time>2026-03-29T09:04:30.999Z</time></trkpt><trkpt lat="42.545423878563554" lon="13.887117323026551"><ele>328.0</ele><time>2026-03-29T09:04:31.999Z</time></trkpt><trkpt lat="42.545309070215964" lon="13.88702069607068"><ele>328.0</ele><time>2026-03-29T09:04:32.999Z</time></trkpt><trkpt lat="42.54520784989012" lon="13.886896573379687"><ele>327.25</ele><time>2026-03-29T09:04:33.999Z</time></trkpt><trkpt lat="42.54511430600506" lon="13.886788934512666"><ele>326.5</ele><time>2026-03-29T09:04:34.999Z</time></trkpt><trkpt lat="42.545008326473955" lon="13.886686621455848"><ele>325.75</ele><time>2026-03-29T09:04:35.999Z</time></trkpt><trkpt lat="42.54488447345567" lon="13.886593685343469"><ele>325.0</ele><time>2026-03-29T09:04:36.999Z</time></trkpt><trkpt lat="42.544748447583196" lon="13.886524358951988"><ele>326.6</ele><time>2026-03-29T09:04:37.999Z</time></trkpt><trkpt lat="42.54462040465108" lon="13.886473257523711"><ele>328.2</ele><time>2026-03-29T09:04:38.999Z</time></trkpt><trkpt lat="42.54451453103229" lon="13.886423046688215"><ele>329.79999999999995</ele><time>2026-03-29T09:04:39.999Z</time></trkpt><trkpt lat="42.54443784524481" lon="13.886369624757247"><ele>331.4</ele><time>2026-03-29T09:04:40.999Z</time></trkpt><trkpt lat="42.544382462446684" lon="13.88631892013307"><ele>333.0</ele><time>2026-03-29T09:04:41.999Z</time></trkpt><trkpt lat="42.54431640991836" lon="13.886268983257349"><ele>333.0</ele><time>2026-03-29T09:04:42.999Z</time></trkpt><trkpt lat="42.54423368648529" lon="13.886216198000078"><ele>333.0</ele><time>2026-03-29T09:04:43.999Z</time></trkpt><trkpt lat="42.544130293254014" lon="13.886157257302349"><ele>333.0</ele><time>2026-03-29T09:04:44.999Z</time></trkpt><trkpt lat="42.54401999952362" lon="13.88608941382547"><ele>333.0</ele><time>2026-03-29T09:04:45.999Z</time></trkpt><trkpt lat="42.543897737738085" lon="13.886009484305497"><ele>332.75</ele><time>2026-03-29T09:04:46.999Z</time></trkpt><trkpt lat="42.54376556231377" lon="13.885920849478895"><ele>332.5</ele><time>2026-03-29T09:04:47.999Z</time></trkpt><trkpt lat="42.54363513017221" lon="13.885838252343243"><ele>332.25</ele><time>2026-03-29T09:04:48.999Z</time></trkpt><trkpt lat="42.54350390718827" lon="13.885754419890148"><ele>332.0</ele><time>2026-03-29T09:04:49.999Z</time></trkpt><trkpt lat="42.543372527710105" lon="13.885671433398215"><ele>332.0</ele><time>2026-03-29T09:04:50.999Z</time></trkpt><trkpt lat="42.54323855375576" lon="13.885584673247676"><ele>332.0</ele><time>2026-03-29T09:04:51.999Z</time></trkpt><trkpt lat="42.5431046544069" lon="13.88549719336558"><ele>332.0</ele><time>2026-03-29T09:04:52.999Z</time></trkpt><trkpt lat="42.542971473533605" lon="13.88540989854552"><ele>332.0</ele><time>2026-03-29T09:04:53.999Z</time></trkpt><trkpt lat="42.54283233507106" lon="13.885323923925373"><ele>330.25</ele><time>2026-03-29T09:04:54.999Z</time></trkpt><trkpt lat="42.542694357555135" lon="13.885239651411029"><ele>328.5</ele><time>2026-03-29T09:04:55.999Z</time></trkpt><trkpt lat="42.54256452434423" lon="13.885156222699951"><ele>326.75</ele><time>2026-03-29T09:04:56.999Z</time></trkpt><trkpt lat="42.5424526351299" lon="13.885091365248856"><ele>325.0</ele><time>2026-03-29T09:04:57.999Z</time></trkpt><trkpt lat="42.54235899839598" lon="13.885040609496283"><ele>325.0</ele><time>2026-03-29T09:04:58.999Z</time></trkpt><trkpt lat="42.54228471901353" lon="13.884994473148199"><ele>325.0</ele><time>2026-03-29T09:04:59.999Z</time></trkpt><trkpt lat="42.54221491084298" lon="13.884889946637319"><ele>325.0</ele><time>2026-03-29T09:05:01.999Z</time></trkpt><trkpt lat="42.54226639802877" lon="13.88474582596563"><ele>325.0</ele><time>2026-03-29T09:05:03.998Z</time></trkpt><trkpt lat="42.54233426711999" lon="13.884712561241187"><ele>325.0</ele><time>2026-03-29T09:05:04.998Z</time></trkpt><trkpt lat="42.5424129408152" lon="13.884707863919544"><ele>325.0</ele><time>2026-03-29T09:05:05.998Z</time></trkpt><trkpt lat="42.54248419514464" lon="13.884699942748242"><ele>325.0</ele><time>2026-03-29T09:05:06.998Z</time></trkpt><trkpt lat="42.542554504450706" lon="13.884681912067386"><ele>325.0</ele><time>2026-03-29T09:05:07.998Z</time></trkpt><trkpt lat="42.54262586885764" lon="13.884660175442862"><ele>325.0</ele><time>2026-03-29T09:05:08.998Z</time></trkpt><trkpt lat="42.54269553456558" lon="13.884640570558018"><ele>325.0</ele><time>2026-03-29T09:05:09.998Z</time></trkpt><trkpt lat="42.54276611322056" lon="13.884624714100829"><ele>325.0</ele><time>2026-03-29T09:05:10.998Z</time></trkpt><trkpt lat="42.542837936763775" lon="13.88458459414635"><ele>325.0</ele><time>2026-03-29T09:05:11.998Z</time></trkpt><trkpt lat="42.54289200550064" lon="13.884505968714889"><ele>329.2</ele><time>2026-03-29T09:05:12.998Z</time></trkpt><trkpt lat="42.542933712403034" lon="13.884401228077198"><ele>333.4</ele><time>2026-03-29T09:05:13.998Z</time></trkpt><trkpt lat="42.542961769995" lon="13.884282629245732"><ele>337.6</ele><time>2026-03-29T09:05:14.998Z</time></trkpt><trkpt lat="42.54297713001024" lon="13.884149754019864"><ele>341.8</ele><time>2026-03-29T09:05:15.998Z</time></trkpt><trkpt lat="42.54297348874021" lon="13.884019868163325"><ele>346.0</ele><time>2026-03-29T09:05:16.998Z</time></trkpt><trkpt lat="42.542953493316126" lon="13.883887563169708"><ele>346.0</ele><time>2026-03-29T09:05:18Z</time></trkpt><trkpt lat="42.54292450550707" lon="13.883755553460604"><ele>346.0</ele><time>2026-03-29T09:05:19Z</time></trkpt><trkpt lat="42.542886244761014" lon="13.883621563719398"><ele>346.0</ele><time>2026-03-29T09:05:20Z</time></trkpt><trkpt lat="42.54284101156744" lon="13.883489664322708"><ele>346.0</ele><time>2026-03-29T09:05:21Z</time></trkpt><trkpt lat="42.54278794980189" lon="13.883361845330759"><ele>346.0</ele><time>2026-03-29T09:05:22Z</time></trkpt><trkpt lat="42.54273151497523" lon="13.883238817437233"><ele>338.3333333333333</ele><time>2026-03-29T09:05:23Z</time></trkpt><trkpt lat="42.54267904620761" lon="13.883118850957402"><ele>330.66666666666663</ele><time>2026-03-29T09:05:24Z</time></trkpt><trkpt lat="42.542632443968074" lon="13.883018630816991"><ele>323.0</ele><time>2026-03-29T09:05:25Z</time></trkpt><trkpt lat="42.542583325403506" lon="13.882924106579894"><ele>315.3333333333333</ele><time>2026-03-29T09:05:26Z</time></trkpt><trkpt lat="42.542542014424455" lon="13.882828232625865"><ele>307.6666666666667</ele><time>2026-03-29T09:05:27Z</time></trkpt><trkpt lat="42.54251516644754" lon="13.88273840452565"><ele>300.0</ele><time>2026-03-29T09:05:28Z</time></trkpt><trkpt lat="42.54245840835754" lon="13.882607289396393"><ele>300.0</ele><time>2026-03-29T09:05:30Z</time></trkpt><trkpt lat="42.54234942783411" lon="13.882641381277985"><ele>300.0</ele><time>2026-03-29T09:05:32Z</time></trkpt><trkpt lat="42.54233031350895" lon="13.88272314783279"><ele>300.0</ele><time>2026-03-29T09:05:33Z</time></trkpt><trkpt lat="42.54235849808749" lon="13.88280588567585"><ele>300.0</ele><time>2026-03-29T09:05:34Z</time></trkpt><trkpt lat="42.54240549875469" lon="13.88288518277782"><ele>300.0</ele><time>2026-03-29T09:05:35Z</time></trkpt><trkpt lat="42.542457535045926" lon="13.882975204802623"><ele>300.0</ele><time>2026-03-29T09:05:36Z</time></trkpt><trkpt lat="42.54251011188674" lon="13.883089916914246"><ele>300.0</ele><time>2026-03-29T09:05:37Z</time></trkpt><trkpt lat="42.54255355366576" lon="13.883203604946674"><ele>300.0</ele><time>2026-03-29T09:05:38Z</time></trkpt><trkpt lat="42.54259359868794" lon="13.883317810040458"><ele>300.0</ele><time>2026-03-29T09:05:39Z</time></trkpt><trkpt lat="42.54262905002715" lon="13.883432779921982"><ele>300.0</ele><time>2026-03-29T09:05:40Z</time></trkpt><trkpt lat="42.54266176907978" lon="13.883553758018227"><ele>300.0</ele><time>2026-03-29T09:05:41Z</time></trkpt><trkpt lat="42.54269280996501" lon="13.88367294051427"><ele>301.2</ele><time>2026-03-29T09:05:42Z</time></trkpt><trkpt lat="42.54272654962661" lon="13.883791827352294"><ele>302.4</ele><time>2026-03-29T09:05:43Z</time></trkpt><trkpt lat="42.54273948918385" lon="13.883912839112492"><ele>303.6</ele><time>2026-03-29T09:05:44Z</time></trkpt><trkpt lat="42.542727258707984" lon="13.884037047894706"><ele>304.8</ele><time>2026-03-29T09:05:45Z</time></trkpt><trkpt lat="42.542680197167684" lon="13.884148694439132"><ele>306.0</ele><time>2026-03-29T09:05:46Z</time></trkpt><trkpt lat="42.54260320008323" lon="13.884225068574738"><ele>306.0</ele><time>2026-03-29T09:05:47Z</time></trkpt><trkpt lat="42.542503750174795" lon="13.884262022193797"><ele>306.0</ele><time>2026-03-29T09:05:48Z</time></trkpt><trkpt lat="42.54238385110665" lon="13.884261456694494"><ele>306.0</ele><time>2026-03-29T09:05:49Z</time></trkpt><trkpt lat="42.54225111908792" lon="13.884228669772483"><ele>306.0</ele><time>2026-03-29T09:05:50Z</time></trkpt><trkpt lat="42.542120431289824" lon="13.884190231387564"><ele>303.25</ele><time>2026-03-29T09:05:51Z</time></trkpt><trkpt lat="42.54199404873001" lon="13.884153574757121"><ele>300.5</ele><time>2026-03-29T09:05:52Z</time></trkpt><trkpt lat="42.54186704477021" lon="13.884124633198617"><ele>297.75</ele><time>2026-03-29T09:05:53Z</time></trkpt><trkpt lat="42.541735667140486" lon="13.884093851197713"><ele>295.0</ele><time>2026-03-29T09:05:54Z</time></trkpt><trkpt lat="42.54160388353625" lon="13.884060614326213"><ele>295.0</ele><time>2026-03-29T09:05:55Z</time></trkpt><trkpt lat="42.54148109579843" lon="13.884013571041054"><ele>295.0</ele><time>2026-03-29T09:05:56Z</time></trkpt><trkpt lat="42.54136107664479" lon="13.883965778545873"><ele>295.0</ele><time>2026-03-29T09:05:57Z</time></trkpt><trkpt lat="42.54123564675584" lon="13.883913925603139"><ele>295.0</ele><time>2026-03-29T09:05:58Z</time></trkpt><trkpt lat="42.5411100874809" lon="13.883871148642452"><ele>293.75</ele><time>2026-03-29T09:05:59Z</time></trkpt><trkpt lat="42.54098553891164" lon="13.883836905739935"><ele>292.5</ele><time>2026-03-29T09:06:00Z</time></trkpt><trkpt lat="42.54086415333785" lon="13.883822067159922"><ele>291.25</ele><time>2026-03-29T09:06:01Z</time></trkpt><trkpt lat="42.54073959449017" lon="13.88382879304445"><ele>290.0</ele><time>2026-03-29T09:06:02Z</time></trkpt><trkpt lat="42.54061222880279" lon="13.883869027724314"><ele>290.0</ele><time>2026-03-29T09:06:03Z</time></trkpt><trkpt lat="42.540482952234804" lon="13.883935947370517"><ele>290.0</ele><time>2026-03-29T09:06:04Z</time></trkpt><trkpt lat="42.54035255616443" lon="13.884020921793889"><ele>290.0</ele><time>2026-03-29T09:06:05Z</time></trkpt><trkpt lat="42.5402235357631" lon="13.88409279247193"><ele>290.0</ele><time>2026-03-29T09:06:06Z</time></trkpt><trkpt lat="42.54010800729972" lon="13.88415506108793"><ele>286.8</ele><time>2026-03-29T09:06:07Z</time></trkpt><trkpt lat="42.540020415413785" lon="13.884211416616141"><ele>283.6</ele><time>2026-03-29T09:06:08Z</time></trkpt><trkpt lat="42.53994648954831" lon="13.88428773012594"><ele>280.4</ele><time>2026-03-29T09:06:09Z</time></trkpt><trkpt lat="42.53989417090702" lon="13.88440864987327"><ele>277.2</ele><time>2026-03-29T09:06:10Z</time></trkpt><trkpt lat="42.53986712926565" lon="13.884553550910168"><ele>274.0</ele><time>2026-03-29T09:06:11Z</time></trkpt><trkpt lat="42.539866910980514" lon="13.884682358624316"><ele>273.75</ele><time>2026-03-29T09:06:12Z</time></trkpt><trkpt lat="42.53989590704086" lon="13.884819171329417"><ele>273.5</ele><time>2026-03-29T09:06:13Z</time></trkpt><trkpt lat="42.53996620593656" lon="13.884943895660207"><ele>273.25</ele><time>2026-03-29T09:06:13.999Z</time></trkpt><trkpt lat="42.5400502127556" lon="13.885051653947421"><ele>273.0</ele><time>2026-03-29T09:06:14.999Z</time></trkpt><trkpt lat="42.540172962278696" lon="13.88514928759426"><ele>271.0</ele><time>2026-03-29T09:06:15.999Z</time></trkpt><trkpt lat="42.54029861831739" lon="13.885225903606305"><ele>269.0</ele><time>2026-03-29T09:06:16.999Z</time></trkpt><trkpt lat="42.54043650827893" lon="13.88533206130333"><ele>267.0</ele><time>2026-03-29T09:06:17.999Z</time></trkpt><trkpt lat="42.54058239118008" lon="13.885402575231279"><ele>267.0</ele><time>2026-03-29T09:06:18.999Z</time></trkpt><trkpt lat="42.540693945618635" lon="13.885533754964122"><ele>267.0</ele><time>2026-03-29T09:06:19.999Z</time></trkpt><trkpt lat="42.54082808635248" lon="13.885643869310849"><ele>267.0</ele><time>2026-03-29T09:06:20.999Z</time></trkpt><trkpt lat="42.540950301677725" lon="13.885775774718601"><ele>267.0</ele><time>2026-03-29T09:06:21.999Z</time></trkpt><trkpt lat="42.54108046633315" lon="13.885881769102232"><ele>267.0</ele><time>2026-03-29T09:06:22.999Z</time></trkpt><trkpt lat="42.541213808400045" lon="13.885960162897842"><ele>267.0</ele><time>2026-03-29T09:06:23.999Z</time></trkpt><trkpt lat="42.54134341560356" lon="13.886003606213833"><ele>267.0</ele><time>2026-03-29T09:06:24.999Z</time></trkpt><trkpt lat="42.541467457760675" lon="13.885998920060088"><ele>265.25</ele><time>2026-03-29T09:06:25.999Z</time></trkpt><trkpt lat="42.54158743592489" lon="13.886041004677692"><ele>263.5</ele><time>2026-03-29T09:06:26.999Z</time></trkpt><trkpt lat="42.541693958348965" lon="13.886146398745606"><ele>261.75</ele><time>2026-03-29T09:06:27.999Z</time></trkpt><trkpt lat="42.54180589320527" lon="13.886276869901069"><ele>260.0</ele><time>2026-03-29T09:06:28.999Z</time></trkpt><trkpt lat="42.54189752503367" lon="13.886420897758752"><ele>260.0</ele><time>2026-03-29T09:06:29.999Z</time></trkpt><trkpt lat="42.54196532940604" lon="13.886594860188215"><ele>260.0</ele><time>2026-03-29T09:06:30.999Z</time></trkpt><trkpt lat="42.54206439018042" lon="13.886725613932072"><ele>260.0</ele><time>2026-03-29T09:06:31.999Z</time></trkpt><trkpt lat="42.542146661198004" lon="13.886855251515572"><ele>260.0</ele><time>2026-03-29T09:06:32.999Z</time></trkpt><trkpt lat="42.54225236351909" lon="13.886952290896005"><ele>260.25</ele><time>2026-03-29T09:06:33.999Z</time></trkpt><trkpt lat="42.54235244308359" lon="13.887053010187786"><ele>260.5</ele><time>2026-03-29T09:06:34.999Z</time></trkpt><trkpt lat="42.54240292788053" lon="13.887197028832642"><ele>260.75</ele><time>2026-03-29T09:06:35.999Z</time></trkpt><trkpt lat="42.54243700158098" lon="13.887341149720898"><ele>261.0</ele><time>2026-03-29T09:06:36.999Z</time></trkpt><trkpt lat="42.54247188876214" lon="13.887501092223875"><ele>258.8</ele><time>2026-03-29T09:06:37.999Z</time></trkpt><trkpt lat="42.54252177641004" lon="13.887646198691401"><ele>256.6</ele><time>2026-03-29T09:06:38.999Z</time></trkpt><trkpt lat="42.54257061337728" lon="13.887781245206623"><ele>254.4</ele><time>2026-03-29T09:06:39.999Z</time></trkpt><trkpt lat="42.542625666741664" lon="13.88787854474725"><ele>252.2</ele><time>2026-03-29T09:06:40.999Z</time></trkpt><trkpt lat="42.542646064337966" lon="13.888029796695664"><ele>250.0</ele><time>2026-03-29T09:06:42.999Z</time></trkpt><trkpt lat="42.54257215888182" lon="13.888150463512266"><ele>250.0</ele><time>2026-03-29T09:06:44.999Z</time></trkpt><trkpt lat="42.54248273865802" lon="13.888148094992747"><ele>250.0</ele><time>2026-03-29T09:06:45.999Z</time></trkpt><trkpt lat="42.54239828007962" lon="13.888089798481394"><ele>250.0</ele><time>2026-03-29T09:06:46.999Z</time></trkpt><trkpt lat="42.54231281408408" lon="13.887955332498342"><ele>250.0</ele><time>2026-03-29T09:06:47.999Z</time></trkpt><trkpt lat="42.54222935516203" lon="13.887845817897546"><ele>250.0</ele><time>2026-03-29T09:06:48.999Z</time></trkpt><trkpt lat="42.542138188398035" lon="13.887754180236353"><ele>248.0</ele><time>2026-03-29T09:06:49.999Z</time></trkpt><trkpt lat="42.54204471213393" lon="13.88766091875688"><ele>246.0</ele><time>2026-03-29T09:06:50.999Z</time></trkpt><trkpt lat="42.541962579188386" lon="13.887573635333649"><ele>244.0</ele><time>2026-03-29T09:06:51.999Z</time></trkpt><trkpt lat="42.54189683945064" lon="13.887485231403877"><ele>242.0</ele><time>2026-03-29T09:06:52.999Z</time></trkpt><trkpt lat="42.54182764730836" lon="13.88737366114664"><ele>240.0</ele><time>2026-03-29T09:06:53.999Z</time></trkpt><trkpt lat="42.541759243205526" lon="13.887254788989774"><ele>240.0</ele><time>2026-03-29T09:06:54.999Z</time></trkpt><trkpt lat="42.54169691785727" lon="13.887128405683297"><ele>240.0</ele><time>2026-03-29T09:06:55.999Z</time></trkpt><trkpt lat="42.541649746134134" lon="13.88700336714235"><ele>240.0</ele><time>2026-03-29T09:06:56.999Z</time></trkpt><trkpt lat="42.54160584183212" lon="13.886891290082877"><ele>240.0</ele><time>2026-03-29T09:06:57.999Z</time></trkpt><trkpt lat="42.541562307057895" lon="13.886787259577467"><ele>240.0</ele><time>2026-03-29T09:06:58.999Z</time></trkpt><trkpt lat="42.541490773880724" lon="13.886701490821668"><ele>240.25</ele><time>2026-03-29T09:06:59.999Z</time></trkpt><trkpt lat="42.541387032895976" lon="13.886651450535151"><ele>240.5</ele><time>2026-03-29T09:07:00.999Z</time></trkpt><trkpt lat="42.54126811273952" lon="13.886632507498017"><ele>240.75</ele><time>2026-03-29T09:07:01.999Z</time></trkpt><trkpt lat="42.54114218328626" lon="13.886639981117803"><ele>241.0</ele><time>2026-03-29T09:07:02.999Z</time></trkpt><trkpt lat="42.54102129631367" lon="13.886666397150888"><ele>241.0</ele><time>2026-03-29T09:07:03.999Z</time></trkpt><trkpt lat="42.54090270875099" lon="13.886655912535167"><ele>241.0</ele><time>2026-03-29T09:07:04.999Z</time></trkpt><trkpt lat="42.5407925017768" lon="13.886633377789332"><ele>241.0</ele><time>2026-03-29T09:07:05.999Z</time></trkpt><trkpt lat="42.540689266955724" lon="13.886561888358527"><ele>241.0</ele><time>2026-03-29T09:07:06.999Z</time></trkpt><trkpt lat="42.54058152017793" lon="13.886505002152145"><ele>241.0</ele><time>2026-03-29T09:07:07.999Z</time></trkpt><trkpt lat="42.54047819610456" lon="13.886452388089744"><ele>241.0</ele><time>2026-03-29T09:07:08.999Z</time></trkpt><trkpt lat="42.540353495451015" lon="13.886461771372892"><ele>241.0</ele><time>2026-03-29T09:07:09.998Z</time></trkpt><trkpt lat="42.54023505336713" lon="13.88650841797359"><ele>241.0</ele><time>2026-03-29T09:07:10.998Z</time></trkpt><trkpt lat="42.54011616917363" lon="13.886517172026624"><ele>236.25</ele><time>2026-03-29T09:07:11.998Z</time></trkpt><trkpt lat="42.540000178138705" lon="13.886541961997315"><ele>231.5</ele><time>2026-03-29T09:07:12.998Z</time></trkpt><trkpt lat="42.53988494988805" lon="13.886458310376186"><ele>226.75</ele><time>2026-03-29T09:07:13.998Z</time></trkpt><trkpt lat="42.539773608535015" lon="13.886373851783596"><ele>222.0</ele><time>2026-03-29T09:07:14.998Z</time></trkpt><trkpt lat="42.539665340579106" lon="13.886275746027662"><ele>222.0</ele><time>2026-03-29T09:07:15.998Z</time></trkpt><trkpt lat="42.539573300007675" lon="13.886156312353037"><ele>222.0</ele><time>2026-03-29T09:07:16.998Z</time></trkpt><trkpt lat="42.53947564934651" lon="13.886035800192253"><ele>222.0</ele><time>2026-03-29T09:07:17.998Z</time></trkpt><trkpt lat="42.53935878696755" lon="13.88594814255249"><ele>222.0</ele><time>2026-03-29T09:07:18.998Z</time></trkpt><trkpt lat="42.53923675409649" lon="13.885879765408154"><ele>224.0</ele><time>2026-03-29T09:07:19.998Z</time></trkpt><trkpt lat="42.539116239341666" lon="13.885822789306568"><ele>226.0</ele><time>2026-03-29T09:07:20.998Z</time></trkpt><trkpt lat="42.53899637935692" lon="13.88575931572636"><ele>228.0</ele><time>2026-03-29T09:07:21.998Z</time></trkpt><trkpt lat="42.53887892242974" lon="13.88569599709466"><ele>230.0</ele><time>2026-03-29T09:07:22.998Z</time></trkpt><trkpt lat="42.53877655257881" lon="13.885604601505166"><ele>224.4</ele><time>2026-03-29T09:07:24Z</time></trkpt><trkpt lat="42.53866636532849" lon="13.885527738210827"><ele>218.8</ele><time>2026-03-29T09:07:25Z</time></trkpt><trkpt lat="42.538559523845684" lon="13.885474151151993"><ele>213.2</ele><time>2026-03-29T09:07:26Z</time></trkpt><trkpt lat="42.5384737617728" lon="13.885415404720977"><ele>207.6</ele><time>2026-03-29T09:07:27Z</time></trkpt><trkpt lat="42.53841633937172" lon="13.885330459708829"><ele>202.0</ele><time>2026-03-29T09:07:28Z</time></trkpt><trkpt lat="42.53836281709121" lon="13.885252611470001"><ele>202.0</ele><time>2026-03-29T09:07:29Z</time></trkpt><trkpt lat="42.53833418476994" lon="13.885152620649823"><ele>202.0</ele><time>2026-03-29T09:07:30Z</time></trkpt><trkpt lat="42.53833446812207" lon="13.885029513433349"><ele>202.0</ele><time>2026-03-29T09:07:31Z</time></trkpt><trkpt lat="42.53832226265149" lon="13.884878748563965"><ele>202.0</ele><time>2026-03-29T09:07:32Z</time></trkpt><trkpt lat="42.53833411428244" lon="13.884708395970215"><ele>202.0</ele><time>2026-03-29T09:07:33Z</time></trkpt><trkpt lat="42.53833635750256" lon="13.884540086632127"><ele>203.25</ele><time>2026-03-29T09:07:34Z</time></trkpt><trkpt lat="42.53833192043976" lon="13.88437088002272"><ele>204.5</ele><time>2026-03-29T09:07:35Z</time></trkpt><trkpt lat="42.538329486065514" lon="13.88420265403948"><ele>205.75</ele><time>2026-03-29T09:07:36Z</time></trkpt><trkpt lat="42.53833198558451" lon="13.88403527205289"><ele>207.0</ele><time>2026-03-29T09:07:37Z</time></trkpt><trkpt lat="42.53834521828459" lon="13.883879491210328"><ele>207.0</ele><time>2026-03-29T09:07:38Z</time></trkpt><trkpt lat="42.53835398071301" lon="13.883731763255708"><ele>207.0</ele><time>2026-03-29T09:07:39Z</time></trkpt><trkpt lat="42.53836225895955" lon="13.883606371589133"><ele>207.0</ele><time>2026-03-29T09:07:40Z</time></trkpt><trkpt lat="42.53836766579857" lon="13.883507286806138"><ele>207.0</ele><time>2026-03-29T09:07:41Z</time></trkpt><trkpt lat="42.538376183680064" lon="13.883345115063005"><ele>207.0</ele><time>2026-03-29T09:07:43Z</time></trkpt><trkpt lat="42.53832035525253" lon="13.88320694318678"><ele>207.0</ele><time>2026-03-29T09:07:45Z</time></trkpt><trkpt lat="42.53824991368917" lon="13.88318255448278"><ele>207.0</ele><time>2026-03-29T09:07:46Z</time></trkpt><trkpt lat="42.53816686705082" lon="13.883202489234398"><ele>207.0</ele><time>2026-03-29T09:07:47Z</time></trkpt><trkpt lat="42.53809759172827" lon="13.883269169178346"><ele>207.0</ele><time>2026-03-29T09:07:48Z</time></trkpt><trkpt lat="42.53803800756894" lon="13.883357834555342"><ele>207.0</ele><time>2026-03-29T09:07:49Z</time></trkpt><trkpt lat="42.537969129548955" lon="13.883448946002709"><ele>207.0</ele><time>2026-03-29T09:07:50Z</time></trkpt><trkpt lat="42.53789108273119" lon="13.883539302576008"><ele>203.39999999999998</ele><time>2026-03-29T09:07:51Z</time></trkpt><trkpt lat="42.5378010815637" lon="13.883622282877537"><ele>199.79999999999998</ele><time>2026-03-29T09:07:52Z</time></trkpt><trkpt lat="42.53771239312635" lon="13.883701413321129"><ele>196.2</ele><time>2026-03-29T09:07:53Z</time></trkpt><trkpt lat="42.537630770134726" lon="13.883783646016157"><ele>192.6</ele><time>2026-03-29T09:07:54Z</time></trkpt><trkpt lat="42.5375486300876" lon="13.88386661464568"><ele>189.0</ele><time>2026-03-29T09:07:55Z</time></trkpt><trkpt lat="42.537462239755406" lon="13.883953080783288"><ele>189.0</ele><time>2026-03-29T09:07:56Z</time></trkpt><trkpt lat="42.53737325656057" lon="13.884031013173889"><ele>189.0</ele><time>2026-03-29T09:07:57Z</time></trkpt><trkpt lat="42.53727257608748" lon="13.884090982266468"><ele>189.0</ele><time>2026-03-29T09:07:58Z</time></trkpt><trkpt lat="42.53716278042102" lon="13.884121403394301"><ele>189.0</ele><time>2026-03-29T09:07:59Z</time></trkpt><trkpt lat="42.53704144323704" lon="13.884117340340651"><ele>189.0</ele><time>2026-03-29T09:08:00Z</time></trkpt><trkpt lat="42.53692140582422" lon="13.884094787882754"><ele>187.79999999999998</ele><time>2026-03-29T09:08:01Z</time></trkpt><trkpt lat="42.53681910627525" lon="13.884074396378775"><ele>186.6</ele><time>2026-03-29T09:08:02Z</time></trkpt><trkpt lat="42.53672255380631" lon="13.884075583395305"><ele>185.4</ele><time>2026-03-29T09:08:03Z</time></trkpt><trkpt lat="42.5366399645743" lon="13.884098980504692"><ele>184.2</ele><time>2026-03-29T09:08:04Z</time></trkpt><trkpt lat="42.53656422558241" lon="13.884144750461575"><ele>183.0</ele><time>2026-03-29T09:08:05Z</time></trkpt><trkpt lat="42.53649708783899" lon="13.884231685134779"><ele>182.0</ele><time>2026-03-29T09:08:06Z</time></trkpt><trkpt lat="42.53644037453575" lon="13.884359633661049"><ele>181.0</ele><time>2026-03-29T09:08:07Z</time></trkpt><trkpt lat="42.536385952676504" lon="13.884497802789879"><ele>180.0</ele><time>2026-03-29T09:08:08Z</time></trkpt><trkpt lat="42.53631860754934" lon="13.884621494507043"><ele>179.0</ele><time>2026-03-29T09:08:09Z</time></trkpt><trkpt lat="42.53624264734483" lon="13.88472845234222"><ele>178.0</ele><time>2026-03-29T09:08:10Z</time></trkpt><trkpt lat="42.53615708763902" lon="13.884824492178168"><ele>177.4</ele><time>2026-03-29T09:08:11Z</time></trkpt><trkpt lat="42.53606420071175" lon="13.884900612770705"><ele>176.8</ele><time>2026-03-29T09:08:12Z</time></trkpt><trkpt lat="42.535968335457994" lon="13.88496916219035"><ele>176.2</ele><time>2026-03-29T09:08:13Z</time></trkpt><trkpt lat="42.535871140062916" lon="13.885039883432103"><ele>175.6</ele><time>2026-03-29T09:08:14Z</time></trkpt><trkpt lat="42.53578018416969" lon="13.885113271175829"><ele>175.0</ele><time>2026-03-29T09:08:15Z</time></trkpt><trkpt lat="42.53568661186853" lon="13.88518989428424"><ele>175.8</ele><time>2026-03-29T09:08:16Z</time></trkpt><trkpt lat="42.53560209288387" lon="13.88526086342297"><ele>176.6</ele><time>2026-03-29T09:08:17Z</time></trkpt><trkpt lat="42.535524261028485" lon="13.885327246298491"><ele>177.39999999999998</ele><time>2026-03-29T09:08:18Z</time></trkpt><trkpt lat="42.53544356943343" lon="13.885391936428668"><ele>178.2</ele><time>2026-03-29T09:08:19Z</time></trkpt><trkpt lat="42.535370241781514" lon="13.885452124146424"><ele>179.0</ele><time>2026-03-29T09:08:20Z</time></trkpt><trkpt lat="42.5352950949797" lon="13.885505696965897"><ele>179.0</ele><time>2026-03-29T09:08:21Z</time></trkpt><trkpt lat="42.53521084091241" lon="13.885562175743244"><ele>179.0</ele><time>2026-03-29T09:08:22Z</time></trkpt><trkpt lat="42.53512041162696" lon="13.885628971791975"><ele>179.0</ele><time>2026-03-29T09:08:23Z</time></trkpt><trkpt lat="42.53502681993791" lon="13.885699333729825"><ele>179.0</ele><time>2026-03-29T09:08:24Z</time></trkpt><trkpt lat="42.53493753334544" lon="13.88575419685823"><ele>179.0</ele><time>2026-03-29T09:08:25Z</time></trkpt><trkpt lat="42.534851427371635" lon="13.88577865458356"><ele>179.0</ele><time>2026-03-29T09:08:25.999Z</time></trkpt><trkpt lat="42.534767721626245" lon="13.88574408295151"><ele>179.0</ele><time>2026-03-29T09:08:26.999Z</time></trkpt><trkpt lat="42.53470626227244" lon="13.88563668532482"><ele>179.0</ele><time>2026-03-29T09:08:27.999Z</time></trkpt><trkpt lat="42.53464097484196" lon="13.885564011815275"><ele>179.0</ele><time>2026-03-29T09:08:28.999Z</time></trkpt><trkpt lat="42.53457278228094" lon="13.885505682217527"><ele>179.0</ele><time>2026-03-29T09:08:29.999Z</time></trkpt><trkpt lat="42.53450320421885" lon="13.885421784709271"><ele>179.0</ele><time>2026-03-29T09:08:30.999Z</time></trkpt><trkpt lat="42.53441903318525" lon="13.885338342333757"><ele>179.83333333333331</ele><time>2026-03-29T09:08:31.999Z</time></trkpt><trkpt lat="42.53433564568082" lon="13.885262769822871"><ele>180.66666666666666</ele><time>2026-03-29T09:08:32.999Z</time></trkpt><trkpt lat="42.53426801489865" lon="13.88518382574524"><ele>181.5</ele><time>2026-03-29T09:08:33.999Z</time></trkpt><trkpt lat="42.53420388503792" lon="13.88511179842281"><ele>182.33333333333334</ele><time>2026-03-29T09:08:34.999Z</time></trkpt><trkpt lat="42.53413977823326" lon="13.8850443666684"><ele>183.16666666666669</ele><time>2026-03-29T09:08:35.999Z</time></trkpt><trkpt lat="42.534077209277726" lon="13.884978317273681"><ele>184.0</ele><time>2026-03-29T09:08:36.999Z</time></trkpt><trkpt lat="42.53401466516989" lon="13.88491138061474"><ele>184.16666666666669</ele><time>2026-03-29T09:08:37.999Z</time></trkpt><trkpt lat="42.5339491657632" lon="13.884845580883038"><ele>184.33333333333334</ele><time>2026-03-29T09:08:38.999Z</time></trkpt><trkpt lat="42.533880247833" lon="13.884768091521394"><ele>184.5</ele><time>2026-03-29T09:08:39.999Z</time></trkpt><trkpt lat="42.53381540952836" lon="13.884676121186633"><ele>184.66666666666666</ele><time>2026-03-29T09:08:40.999Z</time></trkpt><trkpt lat="42.533759710140906" lon="13.884579727324123"><ele>184.83333333333331</ele><time>2026-03-29T09:08:41.999Z</time></trkpt><trkpt lat="42.5337043831162" lon="13.884502441536174"><ele>185.0</ele><time>2026-03-29T09:08:42.999Z</time></trkpt><trkpt lat="42.53364941111182" lon="13.884435071823868"><ele>185.0</ele><time>2026-03-29T09:08:43.999Z</time></trkpt><trkpt lat="42.53356369188805" lon="13.884339643988922"><ele>185.0</ele><time>2026-03-29T09:08:45.999Z</time></trkpt><trkpt lat="42.53352079009072" lon="13.88427502106435"><ele>185.0</ele><time>2026-03-29T09:08:46.999Z</time></trkpt><trkpt lat="42.533491259804144" lon="13.884195556870292"><ele>185.0</ele><time>2026-03-29T09:08:47.999Z</time></trkpt><trkpt lat="42.53344962721707" lon="13.884116097020344"><ele>185.0</ele><time>2026-03-29T09:08:49.999Z</time></trkpt><trkpt lat="42.53356683363685" lon="13.884001266230737"><ele>185.8</ele><time>2026-03-29T09:08:50.999Z</time></trkpt><trkpt lat="42.53367195064271" lon="13.883890210758741"><ele>186.6</ele><time>2026-03-29T09:08:52.999Z</time></trkpt><trkpt lat="42.53374026228318" lon="13.883816751420717"><ele>187.39999999999998</ele><time>2026-03-29T09:08:53.999Z</time></trkpt><trkpt lat="42.53381412245922" lon="13.883745787822752"><ele>188.2</ele><time>2026-03-29T09:08:54.999Z</time></trkpt><trkpt lat="42.53388579325066" lon="13.883670328466794"><ele>189.0</ele><time>2026-03-29T09:08:55.999Z</time></trkpt><trkpt lat="42.53396386358718" lon="13.883598758766137"><ele>189.0</ele><time>2026-03-29T09:08:56.999Z</time></trkpt><trkpt lat="42.53404421257108" lon="13.883522719137977"><ele>189.0</ele><time>2026-03-29T09:08:57.999Z</time></trkpt><trkpt lat="42.5341242037854" lon="13.883445544766118"><ele>189.0</ele><time>2026-03-29T09:08:58.999Z</time></trkpt><trkpt lat="42.534198488414305" lon="13.88336849487672"><ele>189.0</ele><time>2026-03-29T09:08:59.999Z</time></trkpt><trkpt lat="42.53425785178076" lon="13.883280717392072"><ele>189.0</ele><time>2026-03-29T09:09:00.999Z</time></trkpt><trkpt lat="42.534302510208036" lon="13.883187702097398"><ele>189.39999999999998</ele><time>2026-03-29T09:09:01.999Z</time></trkpt><trkpt lat="42.53431223189645" lon="13.88308002586529"><ele>189.8</ele><time>2026-03-29T09:09:02.999Z</time></trkpt><trkpt lat="42.53430643004204" lon="13.882976561570796"><ele>190.2</ele><time>2026-03-29T09:09:03.999Z</time></trkpt><trkpt lat="42.53429028536813" lon="13.88287258593203"><ele>190.60000000000002</ele><time>2026-03-29T09:09:04.999Z</time></trkpt><trkpt lat="42.53424730873736" lon="13.882744843420546"><ele>191.0</ele><time>2026-03-29T09:09:06.999Z</time></trkpt><trkpt lat="42.53405342393792" lon="13.882755742297734"><ele>191.0</ele><time>2026-03-29T09:09:08.999Z</time></trkpt><trkpt lat="42.53394486722153" lon="13.882855950763224"><ele>191.0</ele><time>2026-03-29T09:09:10.999Z</time></trkpt><trkpt lat="42.53386375322921" lon="13.882918426670058"><ele>191.0</ele><time>2026-03-29T09:09:11.999Z</time></trkpt><trkpt lat="42.533773878588185" lon="13.882994087466638"><ele>191.0</ele><time>2026-03-29T09:09:12.999Z</time></trkpt><trkpt lat="42.5336676191091" lon="13.88307104721059"><ele>195.5</ele><time>2026-03-29T09:09:13.999Z</time></trkpt><trkpt lat="42.53355175335352" lon="13.883151695730563"><ele>200.0</ele><time>2026-03-29T09:09:14.999Z</time></trkpt><trkpt lat="42.53343041355567" lon="13.883228619989094"><ele>204.5</ele><time>2026-03-29T09:09:15.999Z</time></trkpt><trkpt lat="42.53332541044078" lon="13.883304016977599"><ele>209.0</ele><time>2026-03-29T09:09:16.999Z</time></trkpt><trkpt lat="42.533238308294976" lon="13.883371812429985"><ele>209.0</ele><time>2026-03-29T09:09:17.999Z</time></trkpt><trkpt lat="42.5331699645755" lon="13.883420330684828"><ele>209.0</ele><time>2026-03-29T09:09:18.999Z</time></trkpt><trkpt lat="42.533102687529116" lon="13.88349141022671"><ele>209.0</ele><time>2026-03-29T09:09:20.999Z</time></trkpt><trkpt lat="42.53315931016686" lon="13.883444155402161"><ele>209.0</ele><time>2026-03-29T09:10:08Z</time></trkpt><trkpt lat="42.532858861922655" lon="13.883277157250227"><ele>209.0</ele><time>2026-03-29T09:10:09Z</time></trkpt><trkpt lat="42.53319498142872" lon="13.883145164749056"><ele>209.0</ele><time>2026-03-29T09:10:10Z</time></trkpt><trkpt lat="42.5332794428253" lon="13.883032973921999"><ele>209.0</ele><time>2026-03-29T09:10:11Z</time></trkpt><trkpt lat="42.53338764676146" lon="13.882902222552456"><ele>209.0</ele><time>2026-03-29T09:10:12Z</time></trkpt><trkpt lat="42.533511299728076" lon="13.882784987717411"><ele>209.0</ele><time>2026-03-29T09:10:13Z</time></trkpt><trkpt lat="42.53360888620755" lon="13.88269108540417"><ele>209.0</ele><time>2026-03-29T09:10:14Z</time></trkpt><trkpt lat="42.533884224340525" lon="13.882948531454563"><ele>206.2</ele><time>2026-03-29T09:10:15Z</time></trkpt><trkpt lat="42.53397074927613" lon="13.88289012280218"><ele>203.39999999999998</ele><time>2026-03-29T09:10:16Z</time></trkpt><trkpt lat="42.53403836341259" lon="13.882842174786157"><ele>200.6</ele><time>2026-03-29T09:10:17Z</time></trkpt><trkpt lat="42.53414754199862" lon="13.882781707494953"><ele>197.8</ele><time>2026-03-29T09:10:19Z</time></trkpt><trkpt lat="42.53419682853113" lon="13.882642862162905"><ele>195.0</ele><time>2026-03-29T09:10:21Z</time></trkpt><trkpt lat="42.534207155859676" lon="13.882545716270855"><ele>195.0</ele><time>2026-03-29T09:10:22Z</time></trkpt><trkpt lat="42.53419351539782" lon="13.882427777198185"><ele>195.0</ele><time>2026-03-29T09:10:23Z</time></trkpt><trkpt lat="42.53417091189148" lon="13.88228814849315"><ele>195.0</ele><time>2026-03-29T09:10:24Z</time></trkpt><trkpt lat="42.53415796975626" lon="13.882126919127678"><ele>195.0</ele><time>2026-03-29T09:10:25Z</time></trkpt><trkpt lat="42.53419483650068" lon="13.881950811188224"><ele>195.0</ele><time>2026-03-29T09:10:26Z</time></trkpt><trkpt lat="42.53424106873963" lon="13.881780121937442"><ele>197.75</ele><time>2026-03-29T09:10:27Z</time></trkpt><trkpt lat="42.53430872409201" lon="13.881626977028164"><ele>200.5</ele><time>2026-03-29T09:10:28Z</time></trkpt><trkpt lat="42.53438845445357" lon="13.881491642288557"><ele>203.25</ele><time>2026-03-29T09:10:29Z</time></trkpt><trkpt lat="42.53446409999629" lon="13.881333724114432"><ele>206.0</ele><time>2026-03-29T09:10:30Z</time></trkpt><trkpt lat="42.53457839808619" lon="13.881210042565643"><ele>200.33333333333334</ele><time>2026-03-29T09:10:31Z</time></trkpt><trkpt lat="42.53469722118687" lon="13.881074728567876"><ele>194.66666666666669</ele><time>2026-03-29T09:10:32Z</time></trkpt><trkpt lat="42.53482193974523" lon="13.880927056609675"><ele>189.0</ele><time>2026-03-29T09:10:33Z</time></trkpt><trkpt lat="42.534945062441125" lon="13.880774366398587"><ele>189.0</ele><time>2026-03-29T09:10:33.999Z</time></trkpt><trkpt lat="42.535068905207616" lon="13.88062517073962"><ele>189.0</ele><time>2026-03-29T09:10:34.999Z</time></trkpt><trkpt lat="42.53519890720242" lon="13.880468957350983"><ele>189.0</ele><time>2026-03-29T09:10:35.999Z</time></trkpt><trkpt lat="42.53533444937892" lon="13.88030596534044"><ele>188.66666666666666</ele><time>2026-03-29T09:10:36.999Z</time></trkpt><trkpt lat="42.53547404565805" lon="13.880142452518179"><ele>188.33333333333331</ele><time>2026-03-29T09:10:37.999Z</time></trkpt><trkpt lat="42.53560232584561" lon="13.879983546765697"><ele>188.0</ele><time>2026-03-29T09:10:38.999Z</time></trkpt><trkpt lat="42.53572338995163" lon="13.87983735110104"><ele>188.0</ele><time>2026-03-29T09:10:39.999Z</time></trkpt><trkpt lat="42.53583122944476" lon="13.879695499675046"><ele>188.0</ele><time>2026-03-29T09:10:40.999Z</time></trkpt><trkpt lat="42.535936421322354" lon="13.879565711643625"><ele>188.0</ele><time>2026-03-29T09:10:41.999Z</time></trkpt><trkpt lat="42.5360477888002" lon="13.87943230261359"><ele>188.0</ele><time>2026-03-29T09:10:42.999Z</time></trkpt><trkpt lat="42.536164912354344" lon="13.879290691959842"><ele>186.66666666666666</ele><time>2026-03-29T09:10:43.999Z</time></trkpt><trkpt lat="42.53628483586292" lon="13.87913153286913"><ele>185.33333333333334</ele><time>2026-03-29T09:10:44.999Z</time></trkpt><trkpt lat="42.53639941258942" lon="13.878952169354685"><ele>184.0</ele><time>2026-03-29T09:10:45.999Z</time></trkpt><trkpt lat="42.536510967031056" lon="13.87874480680485"><ele>184.0</ele><time>2026-03-29T09:10:46.999Z</time></trkpt><trkpt lat="42.5366216601832" lon="13.878534631571785"><ele>184.0</ele><time>2026-03-29T09:10:47.999Z</time></trkpt><trkpt lat="42.53670563996307" lon="13.87833360908215"><ele>184.0</ele><time>2026-03-29T09:10:48.999Z</time></trkpt><trkpt lat="42.53680875790566" lon="13.878150194299595"><ele>185.0</ele><time>2026-03-29T09:10:49.999Z</time></trkpt><trkpt lat="42.536906064597346" lon="13.877946446850707"><ele>186.0</ele><time>2026-03-29T09:10:50.999Z</time></trkpt><trkpt lat="42.53700284180967" lon="13.877734537233083"><ele>187.0</ele><time>2026-03-29T09:10:51.999Z</time></trkpt><trkpt lat="42.537111161429266" lon="13.877509759236693"><ele>187.0</ele><time>2026-03-29T09:10:52.999Z</time></trkpt><trkpt lat="42.537221126015034" lon="13.877281561655234"><ele>187.0</ele><time>2026-03-29T09:10:53.999Z</time></trkpt><trkpt lat="42.53732772686077" lon="13.877053345432536"><ele>187.0</ele><time>2026-03-29T09:10:54.999Z</time></trkpt><trkpt lat="42.53743652532709" lon="13.876834931409643"><ele>189.66666666666669</ele><time>2026-03-29T09:10:55.999Z</time></trkpt><trkpt lat="42.53754550844012" lon="13.87660677191522"><ele>192.33333333333334</ele><time>2026-03-29T09:10:56.999Z</time></trkpt><trkpt lat="42.53765694081405" lon="13.87637475682682"><ele>195.0</ele><time>2026-03-29T09:10:57.999Z</time></trkpt><trkpt lat="42.537766460584294" lon="13.876142541478899"><ele>195.0</ele><time>2026-03-29T09:10:58.999Z</time></trkpt><trkpt lat="42.5378779702369" lon="13.875911211764784"><ele>195.0</ele><time>2026-03-29T09:10:59.999Z</time></trkpt><trkpt lat="42.53797889420961" lon="13.875697731468625"><ele>195.0</ele><time>2026-03-29T09:11:00.999Z</time></trkpt><trkpt lat="42.538075207564894" lon="13.87547891155658"><ele>195.0</ele><time>2026-03-29T09:11:01.999Z</time></trkpt><trkpt lat="42.53816350897834" lon="13.875251596703762"><ele>195.0</ele><time>2026-03-29T09:11:02.999Z</time></trkpt><trkpt lat="42.538228063390484" lon="13.875012546796086"><ele>195.0</ele><time>2026-03-29T09:11:03.999Z</time></trkpt><trkpt lat="42.53827847651397" lon="13.874762090990057"><ele>198.0</ele><time>2026-03-29T09:11:04.999Z</time></trkpt><trkpt lat="42.53832261783129" lon="13.874494270789327"><ele>201.0</ele><time>2026-03-29T09:11:05.999Z</time></trkpt><trkpt lat="42.53835992532065" lon="13.874222133297842"><ele>204.0</ele><time>2026-03-29T09:11:06.999Z</time></trkpt><trkpt lat="42.538387545781724" lon="13.873941841296647"><ele>205.33333333333331</ele><time>2026-03-29T09:11:07.999Z</time></trkpt><trkpt lat="42.53840410962401" lon="13.873660411331343"><ele>206.66666666666666</ele><time>2026-03-29T09:11:08.999Z</time></trkpt><trkpt lat="42.538410806397856" lon="13.873373838335231"><ele>208.0</ele><time>2026-03-29T09:11:09.999Z</time></trkpt><trkpt lat="42.53840387965169" lon="13.87308488084012"><ele>208.0</ele><time>2026-03-29T09:11:10.999Z</time></trkpt><trkpt lat="42.53839055930623" lon="13.872796076111598"><ele>208.0</ele><time>2026-03-29T09:11:11.999Z</time></trkpt><trkpt lat="42.53839587042777" lon="13.87249781696277"><ele>208.0</ele><time>2026-03-29T09:11:12.999Z</time></trkpt><trkpt lat="42.538387505453095" lon="13.872208749164798"><ele>209.33333333333331</ele><time>2026-03-29T09:11:13.999Z</time></trkpt><trkpt lat="42.538364996674865" lon="13.871941629874327"><ele>210.66666666666669</ele><time>2026-03-29T09:11:14.999Z</time></trkpt><trkpt lat="42.53836051679014" lon="13.871667279316485"><ele>212.0</ele><time>2026-03-29T09:11:15.999Z</time></trkpt><trkpt lat="42.53835020086368" lon="13.871402654425681"><ele>212.66666666666669</ele><time>2026-03-29T09:11:16.999Z</time></trkpt><trkpt lat="42.538340193561496" lon="13.871139754613573"><ele>213.33333333333331</ele><time>2026-03-29T09:11:17.999Z</time></trkpt><trkpt lat="42.53833020685386" lon="13.870884680197134"><ele>214.0</ele><time>2026-03-29T09:11:18.999Z</time></trkpt><trkpt lat="42.53832973422345" lon="13.870631776196623"><ele>216.0</ele><time>2026-03-29T09:11:19.999Z</time></trkpt><trkpt lat="42.538359875826735" lon="13.870399335388765"><ele>218.0</ele><time>2026-03-29T09:11:20.999Z</time></trkpt><trkpt lat="42.53839082686946" lon="13.870162391157146"><ele>220.0</ele><time>2026-03-29T09:11:21.999Z</time></trkpt><trkpt lat="42.53843614501144" lon="13.869917947266622"><ele>221.33333333333331</ele><time>2026-03-29T09:11:22.999Z</time></trkpt><trkpt lat="42.53849410157504" lon="13.869683105459123"><ele>222.66666666666669</ele><time>2026-03-29T09:11:23.999Z</time></trkpt><trkpt lat="42.53856020189788" lon="13.869442285876062"><ele>224.0</ele><time>2026-03-29T09:11:24.999Z</time></trkpt><trkpt lat="42.53862847025137" lon="13.869200809496315"><ele>224.0</ele><time>2026-03-29T09:11:25.999Z</time></trkpt><trkpt lat="42.53868570386672" lon="13.868943858834136"><ele>224.0</ele><time>2026-03-29T09:11:26.999Z</time></trkpt><trkpt lat="42.538759636501" lon="13.868696348366498"><ele>224.0</ele><time>2026-03-29T09:11:27.999Z</time></trkpt><trkpt lat="42.53884812065647" lon="13.868453918425178"><ele>225.33333333333334</ele><time>2026-03-29T09:11:28.999Z</time></trkpt><trkpt lat="42.53892324439736" lon="13.86819977953933"><ele>226.66666666666669</ele><time>2026-03-29T09:11:29.998Z</time></trkpt><trkpt lat="42.53898321955953" lon="13.867945385179793"><ele>228.0</ele><time>2026-03-29T09:11:30.998Z</time></trkpt><trkpt lat="42.53905273479612" lon="13.8677212643561"><ele>228.0</ele><time>2026-03-29T09:11:31.998Z</time></trkpt><trkpt lat="42.53912417587466" lon="13.86750168498937"><ele>228.0</ele><time>2026-03-29T09:11:32.998Z</time></trkpt><trkpt lat="42.539175185126375" lon="13.8673044497197"><ele>228.0</ele><time>2026-03-29T09:11:33.998Z</time></trkpt><trkpt lat="42.53922410638828" lon="13.867106032147047"><ele>228.0</ele><time>2026-03-29T09:11:34.998Z</time></trkpt><trkpt lat="42.53928544708804" lon="13.866932636347121"><ele>228.0</ele><time>2026-03-29T09:11:36Z</time></trkpt><trkpt lat="42.53930313177575" lon="13.866751771810888"><ele>228.0</ele><time>2026-03-29T09:11:37Z</time></trkpt><trkpt lat="42.53931416674077" lon="13.866586346296524"><ele>228.0</ele><time>2026-03-29T09:11:38Z</time></trkpt><trkpt lat="42.53931882309426" lon="13.86642760999864"><ele>229.0</ele><time>2026-03-29T09:11:39Z</time></trkpt><trkpt lat="42.53931627621506" lon="13.866277173155163"><ele>230.0</ele><time>2026-03-29T09:11:40Z</time></trkpt><trkpt lat="42.539305590304274" lon="13.86611645878079"><ele>231.0</ele><time>2026-03-29T09:11:41Z</time></trkpt><trkpt lat="42.53929129843041" lon="13.865941967811885"><ele>232.0</ele><time>2026-03-29T09:11:42Z</time></trkpt><trkpt lat="42.5392650285736" lon="13.86574957559277"><ele>232.33333333333331</ele><time>2026-03-29T09:11:43Z</time></trkpt><trkpt lat="42.539230055485184" lon="13.865541446223828"><ele>232.66666666666669</ele><time>2026-03-29T09:11:44Z</time></trkpt><trkpt lat="42.53919133661998" lon="13.865322958629202"><ele>233.0</ele><time>2026-03-29T09:11:45Z</time></trkpt><trkpt lat="42.539155829295915" lon="13.865097139436232"><ele>232.33333333333334</ele><time>2026-03-29T09:11:46Z</time></trkpt><trkpt lat="42.53912079851005" lon="13.864862307809025"><ele>231.66666666666669</ele><time>2026-03-29T09:11:47Z</time></trkpt><trkpt lat="42.53907937602966" lon="13.864630515888562"><ele>231.0</ele><time>2026-03-29T09:11:48Z</time></trkpt><trkpt lat="42.53904245015886" lon="13.864414797506472"><ele>231.33333333333331</ele><time>2026-03-29T09:11:49Z</time></trkpt><trkpt lat="42.539009065670676" lon="13.864189467183518"><ele>231.66666666666666</ele><time>2026-03-29T09:11:50Z</time></trkpt><trkpt lat="42.5389780794017" lon="13.863951252770908"><ele>232.0</ele><time>2026-03-29T09:11:51Z</time></trkpt><trkpt lat="42.538952539648314" lon="13.863722799935468"><ele>232.0</ele><time>2026-03-29T09:11:52Z</time></trkpt><trkpt lat="42.53893095938368" lon="13.863498211984464"><ele>232.0</ele><time>2026-03-29T09:11:53Z</time></trkpt><trkpt lat="42.538923016932706" lon="13.863275621162002"><ele>232.0</ele><time>2026-03-29T09:11:54Z</time></trkpt><trkpt lat="42.53895771688413" lon="13.863063557826269"><ele>232.33333333333331</ele><time>2026-03-29T09:11:55Z</time></trkpt><trkpt lat="42.53900391251971" lon="13.862834986544277"><ele>232.66666666666669</ele><time>2026-03-29T09:11:56Z</time></trkpt><trkpt lat="42.53906352241764" lon="13.862624763778697"><ele>233.0</ele><time>2026-03-29T09:11:57Z</time></trkpt><trkpt lat="42.53913022348498" lon="13.862410676118515"><ele>232.33333333333334</ele><time>2026-03-29T09:11:58Z</time></trkpt><trkpt lat="42.53922687585012" lon="13.862209569287959"><ele>231.66666666666669</ele><time>2026-03-29T09:11:59Z</time></trkpt><trkpt lat="42.539330393611074" lon="13.862027229139795"><ele>231.0</ele><time>2026-03-29T09:12:00Z</time></trkpt><trkpt lat="42.53946920001251" lon="13.861873157798374"><ele>228.66666666666669</ele><time>2026-03-29T09:12:01Z</time></trkpt><trkpt lat="42.53959590986794" lon="13.861683619241894"><ele>226.33333333333334</ele><time>2026-03-29T09:12:02Z</time></trkpt><trkpt lat="42.53972833860264" lon="13.861532023045664"><ele>224.0</ele><time>2026-03-29T09:12:03Z</time></trkpt><trkpt lat="42.53984659403716" lon="13.861366238876963"><ele>224.0</ele><time>2026-03-29T09:12:04Z</time></trkpt><trkpt lat="42.539951579691326" lon="13.861197583965449"><ele>224.0</ele><time>2026-03-29T09:12:05Z</time></trkpt><trkpt lat="42.54005254930411" lon="13.86100995808261"><ele>224.0</ele><time>2026-03-29T09:12:06Z</time></trkpt><trkpt lat="42.54014360278387" lon="13.860825369925355"><ele>226.33333333333334</ele><time>2026-03-29T09:12:07Z</time></trkpt><trkpt lat="42.54022518412279" lon="13.860641306069319"><ele>228.66666666666669</ele><time>2026-03-29T09:12:08Z</time></trkpt><trkpt lat="42.54029933882698" lon="13.860445908291366"><ele>231.0</ele><time>2026-03-29T09:12:09Z</time></trkpt><trkpt lat="42.54036727120733" lon="13.860249628363231"><ele>224.33333333333331</ele><time>2026-03-29T09:12:10Z</time></trkpt><trkpt lat="42.540428357284334" lon="13.860054449299756"><ele>217.66666666666666</ele><time>2026-03-29T09:12:11Z</time></trkpt><trkpt lat="42.54047553341056" lon="13.859848141697118"><ele>211.0</ele><time>2026-03-29T09:12:11.999Z</time></trkpt><trkpt lat="42.540499787949095" lon="13.859619550237825"><ele>211.0</ele><time>2026-03-29T09:12:12.999Z</time></trkpt><trkpt lat="42.54050565365533" lon="13.859368188612521"><ele>211.0</ele><time>2026-03-29T09:12:13.999Z</time></trkpt><trkpt lat="42.54049647006525" lon="13.859105278724973"><ele>211.0</ele><time>2026-03-29T09:12:14.999Z</time></trkpt><trkpt lat="42.5404799570625" lon="13.858832114156499"><ele>209.66666666666666</ele><time>2026-03-29T09:12:15.999Z</time></trkpt><trkpt lat="42.540462548091895" lon="13.85855243729529"><ele>208.33333333333331</ele><time>2026-03-29T09:12:16.999Z</time></trkpt><trkpt lat="42.540450379201374" lon="13.858284598297086"><ele>207.0</ele><time>2026-03-29T09:12:17.999Z</time></trkpt><trkpt lat="42.54044356921385" lon="13.858031444323775"><ele>205.0</ele><time>2026-03-29T09:12:18.999Z</time></trkpt><trkpt lat="42.540434428480594" lon="13.857805834393442"><ele>203.0</ele><time>2026-03-29T09:12:19.999Z</time></trkpt><trkpt lat="42.54042257261582" lon="13.857602372557833"><ele>201.0</ele><time>2026-03-29T09:12:20.999Z</time></trkpt><trkpt lat="42.54040707889783" lon="13.857417756720814"><ele>209.0</ele><time>2026-03-29T09:12:21.999Z</time></trkpt><trkpt lat="42.540374566505974" lon="13.857229535400943"><ele>217.0</ele><time>2026-03-29T09:12:22.999Z</time></trkpt><trkpt lat="42.54030938416072" lon="13.857031106210595"><ele>225.0</ele><time>2026-03-29T09:12:23.999Z</time></trkpt><trkpt lat="42.540217029514345" lon="13.856814859255227"><ele>220.66666666666669</ele><time>2026-03-29T09:12:24.999Z</time></trkpt><trkpt lat="42.54010362702896" lon="13.856602067545593"><ele>216.33333333333334</ele><time>2026-03-29T09:12:25.999Z</time></trkpt><trkpt lat="42.53998622743343" lon="13.856373081994377"><ele>212.0</ele><time>2026-03-29T09:12:26.999Z</time></trkpt><trkpt lat="42.53987648025181" lon="13.856124755808148"><ele>207.0</ele><time>2026-03-29T09:12:27.999Z</time></trkpt><trkpt lat="42.539775639946626" lon="13.855854763278629"><ele>202.0</ele><time>2026-03-29T09:12:28.999Z</time></trkpt><trkpt lat="42.539676067964656" lon="13.85557251328266"><ele>202.0</ele><time>2026-03-29T09:12:29.999Z</time></trkpt><trkpt lat="42.539570810435805" lon="13.855285569713583"><ele>202.0</ele><time>2026-03-29T09:12:30.999Z</time></trkpt><trkpt lat="42.539465506864815" lon="13.855004358889587"><ele>202.0</ele><time>2026-03-29T09:12:31.999Z</time></trkpt><trkpt lat="42.53937050877074" lon="13.854737712366203"><ele>202.0</ele><time>2026-03-29T09:12:32.999Z</time></trkpt><trkpt lat="42.539281663563244" lon="13.854480543050453"><ele>202.0</ele><time>2026-03-29T09:12:33.999Z</time></trkpt><trkpt lat="42.539188750987144" lon="13.85422143124853"><ele>199.33333333333331</ele><time>2026-03-29T09:12:34.999Z</time></trkpt><trkpt lat="42.53909431564259" lon="13.853963358845489"><ele>196.66666666666669</ele><time>2026-03-29T09:12:35.999Z</time></trkpt><trkpt lat="42.539002411932394" lon="13.853712628557691"><ele>194.0</ele><time>2026-03-29T09:12:36.999Z</time></trkpt><trkpt lat="42.53891393415707" lon="13.853479820188358"><ele>194.0</ele><time>2026-03-29T09:12:37.999Z</time></trkpt><trkpt lat="42.53883039359735" lon="13.853249029293108"><ele>194.0</ele><time>2026-03-29T09:12:38.999Z</time></trkpt><trkpt lat="42.53875121888811" lon="13.853023880228173"><ele>194.0</ele><time>2026-03-29T09:12:39.999Z</time></trkpt><trkpt lat="42.53867600517201" lon="13.852809279894363"><ele>195.66666666666669</ele><time>2026-03-29T09:12:40.999Z</time></trkpt><trkpt lat="42.538608269435784" lon="13.852604670413355"><ele>197.33333333333331</ele><time>2026-03-29T09:12:41.999Z</time></trkpt><trkpt lat="42.538557606960836" lon="13.852400626553544"><ele>199.0</ele><time>2026-03-29T09:12:42.999Z</time></trkpt><trkpt lat="42.5385316607575" lon="13.85219552849335"><ele>199.0</ele><time>2026-03-29T09:12:43.999Z</time></trkpt><trkpt lat="42.5385270058115" lon="13.851993403888255"><ele>199.0</ele><time>2026-03-29T09:12:44.999Z</time></trkpt><trkpt lat="42.53854049650893" lon="13.85179252763567"><ele>199.0</ele><time>2026-03-29T09:12:45.999Z</time></trkpt><trkpt lat="42.53857377435943" lon="13.851583384607585"><ele>199.33333333333331</ele><time>2026-03-29T09:12:46.999Z</time></trkpt><trkpt lat="42.538629424953875" lon="13.851368387281363"><ele>199.66666666666669</ele><time>2026-03-29T09:12:47.998Z</time></trkpt><trkpt lat="42.53870351753835" lon="13.85114622161554"><ele>200.0</ele><time>2026-03-29T09:12:48.998Z</time></trkpt><trkpt lat="42.538809544202195" lon="13.850947538335292"><ele>203.33333333333334</ele><time>2026-03-29T09:12:49.998Z</time></trkpt><trkpt lat="42.53889936637662" lon="13.850719572874521"><ele>206.66666666666669</ele><time>2026-03-29T09:12:50.998Z</time></trkpt><trkpt lat="42.53899855379539" lon="13.850500174004878"><ele>210.0</ele><time>2026-03-29T09:12:51.998Z</time></trkpt><trkpt lat="42.53909270017534" lon="13.85028216606408"><ele>208.66666666666669</ele><time>2026-03-29T09:12:52.998Z</time></trkpt><trkpt lat="42.53918160894168" lon="13.850074699297597"><ele>207.33333333333334</ele><time>2026-03-29T09:12:53.998Z</time></trkpt><trkpt lat="42.539272136017225" lon="13.849855984628888"><ele>206.0</ele><time>2026-03-29T09:12:54.998Z</time></trkpt><trkpt lat="42.53935834296404" lon="13.849647975381064"><ele>206.0</ele><time>2026-03-29T09:12:55.998Z</time></trkpt><trkpt lat="42.53943825378445" lon="13.849446020666438"><ele>206.0</ele><time>2026-03-29T09:12:56.998Z</time></trkpt><trkpt lat="42.53949714060831" lon="13.849239194590684"><ele>206.0</ele><time>2026-03-29T09:12:57.998Z</time></trkpt><trkpt lat="42.53954106740813" lon="13.84903770670049"><ele>205.75</ele><time>2026-03-29T09:12:58.998Z</time></trkpt><trkpt lat="42.53956548829767" lon="13.848846083507901"><ele>205.5</ele><time>2026-03-29T09:12:59.998Z</time></trkpt><trkpt lat="42.53955607137714" lon="13.84865565071829"><ele>205.25</ele><time>2026-03-29T09:13:00.998Z</time></trkpt><trkpt lat="42.53952718983825" lon="13.848451664988216"><ele>205.0</ele><time>2026-03-29T09:13:01.998Z</time></trkpt><trkpt lat="42.53948889232452" lon="13.848235931509182"><ele>205.0</ele><time>2026-03-29T09:13:02.998Z</time></trkpt><trkpt lat="42.53944805935262" lon="13.848018427727803"><ele>205.0</ele><time>2026-03-29T09:13:03.998Z</time></trkpt><trkpt lat="42.539400429562335" lon="13.847804898292706"><ele>205.0</ele><time>2026-03-29T09:13:04.998Z</time></trkpt><trkpt lat="42.53935074390104" lon="13.847581950061413"><ele>208.33333333333331</ele><time>2026-03-29T09:13:05.998Z</time></trkpt><trkpt lat="42.53929643452137" lon="13.847360622957693"><ele>211.66666666666669</ele><time>2026-03-29T09:13:06.998Z</time></trkpt><trkpt lat="42.5392345804196" lon="13.84713381393118"><ele>215.0</ele><time>2026-03-29T09:13:07.998Z</time></trkpt><trkpt lat="42.53917513807412" lon="13.846907046682473"><ele>220.0</ele><time>2026-03-29T09:13:08.998Z</time></trkpt><trkpt lat="42.539116426688445" lon="13.846680513106921"><ele>225.0</ele><time>2026-03-29T09:13:09.998Z</time></trkpt><trkpt lat="42.5390593975504" lon="13.846451429182903"><ele>230.0</ele><time>2026-03-29T09:13:10.998Z</time></trkpt><trkpt lat="42.53900230119577" lon="13.846221379215596"><ele>230.0</ele><time>2026-03-29T09:13:11.998Z</time></trkpt><trkpt lat="42.53894198375021" lon="13.845989656283288"><ele>230.0</ele><time>2026-03-29T09:13:12.998Z</time></trkpt><trkpt lat="42.53888170306891" lon="13.845757734696571"><ele>230.0</ele><time>2026-03-29T09:13:13.998Z</time></trkpt><trkpt lat="42.538821233601006" lon="13.845520594445953"><ele>231.0</ele><time>2026-03-29T09:13:14.998Z</time></trkpt><trkpt lat="42.53875964412743" lon="13.845276466163822"><ele>232.0</ele><time>2026-03-29T09:13:15.998Z</time></trkpt><trkpt lat="42.53869820826035" lon="13.845038372181008"><ele>233.0</ele><time>2026-03-29T09:13:16.998Z</time></trkpt><trkpt lat="42.538633347534955" lon="13.844793432318445"><ele>233.0</ele><time>2026-03-29T09:13:17.998Z</time></trkpt><trkpt lat="42.538563689729756" lon="13.844548304583025"><ele>233.0</ele><time>2026-03-29T09:13:18.998Z</time></trkpt><trkpt lat="42.538497148729576" lon="13.844308317498685"><ele>233.0</ele><time>2026-03-29T09:13:19.998Z</time></trkpt><trkpt lat="42.53843699259302" lon="13.84408892957428"><ele>234.0</ele><time>2026-03-29T09:13:20.998Z</time></trkpt><trkpt lat="42.538384396078634" lon="13.843884171314071"><ele>235.0</ele><time>2026-03-29T09:13:21.998Z</time></trkpt><trkpt lat="42.53833157707739" lon="13.843676235517018"><ele>236.0</ele><time>2026-03-29T09:13:22.998Z</time></trkpt><trkpt lat="42.53828922699131" lon="13.843458329611993"><ele>236.33333333333334</ele><time>2026-03-29T09:13:23.998Z</time></trkpt><trkpt lat="42.53825292111526" lon="13.843219739310515"><ele>236.66666666666669</ele><time>2026-03-29T09:13:24.998Z</time></trkpt><trkpt lat="42.53821957890512" lon="13.842974664301748"><ele>237.0</ele><time>2026-03-29T09:13:25.998Z</time></trkpt><trkpt lat="42.53819695490937" lon="13.842725594745785"><ele>237.66666666666669</ele><time>2026-03-29T09:13:26.998Z</time></trkpt><trkpt lat="42.53818746001544" lon="13.84246263188844"><ele>238.33333333333334</ele><time>2026-03-29T09:13:27.998Z</time></trkpt><trkpt lat="42.538179401267115" lon="13.842199825028787"><ele>239.0</ele><time>2026-03-29T09:13:28.998Z</time></trkpt><trkpt lat="42.53817260149497" lon="13.84192627422426"><ele>238.66666666666669</ele><time>2026-03-29T09:13:29.998Z</time></trkpt><trkpt lat="42.538166545894974" lon="13.841651048655754"><ele>238.33333333333331</ele><time>2026-03-29T09:13:30.998Z</time></trkpt><trkpt lat="42.53816009333919" lon="13.841369529806846"><ele>238.0</ele><time>2026-03-29T09:13:31.998Z</time></trkpt><trkpt lat="42.53815084111895" lon="13.841086134699577"><ele>239.33333333333331</ele><time>2026-03-29T09:13:32.998Z</time></trkpt><trkpt lat="42.538142054134724" lon="13.840810838168276"><ele>240.66666666666669</ele><time>2026-03-29T09:13:33.998Z</time></trkpt><trkpt lat="42.538136025117915" lon="13.840535669173953"><ele>242.0</ele><time>2026-03-29T09:13:34.998Z</time></trkpt><trkpt lat="42.53812879973955" lon="13.840258277743981"><ele>242.66666666666669</ele><time>2026-03-29T09:13:35.998Z</time></trkpt><trkpt lat="42.53812047531689" lon="13.83998193236759"><ele>243.33333333333331</ele><time>2026-03-29T09:13:36.998Z</time></trkpt><trkpt lat="42.53811240505768" lon="13.839710071588945"><ele>244.0</ele><time>2026-03-29T09:13:37.998Z</time></trkpt><trkpt lat="42.53810438382469" lon="13.839451876442485"><ele>246.66666666666666</ele><time>2026-03-29T09:13:38.998Z</time></trkpt><trkpt lat="42.53809792513505" lon="13.839203112718375"><ele>249.33333333333331</ele><time>2026-03-29T09:13:39.998Z</time></trkpt><trkpt lat="42.538091453841126" lon="13.83896837484267"><ele>252.0</ele><time>2026-03-29T09:13:40.998Z</time></trkpt><trkpt lat="42.538085374182366" lon="13.83874401016916"><ele>252.0</ele><time>2026-03-29T09:13:42Z</time></trkpt><trkpt lat="42.53807926826329" lon="13.838512368344563"><ele>252.0</ele><time>2026-03-29T09:13:43Z</time></trkpt><trkpt lat="42.538076869265076" lon="13.838319326703141"><ele>252.0</ele><time>2026-03-29T09:13:44Z</time></trkpt><trkpt lat="42.538074087289786" lon="13.838119423747889"><ele>254.0</ele><time>2026-03-29T09:13:45Z</time></trkpt><trkpt lat="42.53806914388904" lon="13.837934825454855"><ele>256.0</ele><time>2026-03-29T09:13:46Z</time></trkpt><trkpt lat="42.53805817649264" lon="13.8377432616718"><ele>258.0</ele><time>2026-03-29T09:13:47Z</time></trkpt><trkpt lat="42.53804690784537" lon="13.837550235126052"><ele>260.0</ele><time>2026-03-29T09:13:48Z</time></trkpt><trkpt lat="42.5380180650406" lon="13.837359187178478"><ele>260.0</ele><time>2026-03-29T09:13:49Z</time></trkpt><trkpt lat="42.53795703353028" lon="13.837194892603113"><ele>260.0</ele><time>2026-03-29T09:13:50Z</time></trkpt><trkpt lat="42.53788802914249" lon="13.837052316132395"><ele>260.0</ele><time>2026-03-29T09:13:51Z</time></trkpt><trkpt lat="42.53780245277058" lon="13.836930961577545"><ele>260.0</ele><time>2026-03-29T09:13:52Z</time></trkpt><trkpt lat="42.53769550064398" lon="13.836842537185921"><ele>257.4</ele><time>2026-03-29T09:13:53Z</time></trkpt><trkpt lat="42.53758708370761" lon="13.8367919842529"><ele>254.8</ele><time>2026-03-29T09:13:54Z</time></trkpt><trkpt lat="42.53748673903681" lon="13.836756011585221"><ele>252.2</ele><time>2026-03-29T09:13:55Z</time></trkpt><trkpt lat="42.537401000625195" lon="13.836667247190773"><ele>249.6</ele><time>2026-03-29T09:13:56Z</time></trkpt><trkpt lat="42.53735315992467" lon="13.836514243147839"><ele>247.0</ele><time>2026-03-29T09:13:57Z</time></trkpt><trkpt lat="42.53730622673673" lon="13.836337943203635"><ele>247.0</ele><time>2026-03-29T09:13:58Z</time></trkpt><trkpt lat="42.53724622973619" lon="13.836133494171321"><ele>247.0</ele><time>2026-03-29T09:13:59Z</time></trkpt><trkpt lat="42.53719484712076" lon="13.835937395821825"><ele>247.0</ele><time>2026-03-29T09:14:00Z</time></trkpt><trkpt lat="42.537141839489735" lon="13.835744143572109"><ele>247.75</ele><time>2026-03-29T09:14:01Z</time></trkpt><trkpt lat="42.53708822128695" lon="13.835559844036418"><ele>248.5</ele><time>2026-03-29T09:14:01.999Z</time></trkpt><trkpt lat="42.53705199873673" lon="13.835373048687535"><ele>249.25</ele><time>2026-03-29T09:14:02.999Z</time></trkpt><trkpt lat="42.537034137752414" lon="13.835169919578298"><ele>250.0</ele><time>2026-03-29T09:14:03.999Z</time></trkpt><trkpt lat="42.53702893102498" lon="13.83494386717425"><ele>244.33333333333331</ele><time>2026-03-29T09:14:04.999Z</time></trkpt><trkpt lat="42.53703352998525" lon="13.83471377619205"><ele>238.66666666666669</ele><time>2026-03-29T09:14:05.999Z</time></trkpt><trkpt lat="42.53703878694324" lon="13.834495367336482"><ele>233.0</ele><time>2026-03-29T09:14:06.999Z</time></trkpt><trkpt lat="42.53703717216501" lon="13.834281939987493"><ele>232.33333333333334</ele><time>2026-03-29T09:14:07.999Z</time></trkpt><trkpt lat="42.537012959281505" lon="13.83406002631677"><ele>231.66666666666669</ele><time>2026-03-29T09:14:08.999Z</time></trkpt><trkpt lat="42.53696871698716" lon="13.833839174331665"><ele>231.0</ele><time>2026-03-29T09:14:09.999Z</time></trkpt><trkpt lat="42.5369140006847" lon="13.833619659641998"><ele>230.33333333333331</ele><time>2026-03-29T09:14:10.999Z</time></trkpt><trkpt lat="42.53684414694725" lon="13.833409603989912"><ele>229.66666666666666</ele><time>2026-03-29T09:14:11.999Z</time></trkpt><trkpt lat="42.536769111675504" lon="13.83321855193343"><ele>229.0</ele><time>2026-03-29T09:14:12.999Z</time></trkpt><trkpt lat="42.53670258138453" lon="13.833033266017912"><ele>229.0</ele><time>2026-03-29T09:14:13.999Z</time></trkpt><trkpt lat="42.53663733086805" lon="13.832857256440061"><ele>229.0</ele><time>2026-03-29T09:14:14.999Z</time></trkpt><trkpt lat="42.53658044597765" lon="13.832687222312051"><ele>229.0</ele><time>2026-03-29T09:14:15.999Z</time></trkpt><trkpt lat="42.53652537799542" lon="13.83251483540174"><ele>229.0</ele><time>2026-03-29T09:14:16.999Z</time></trkpt><trkpt lat="42.536468995794955" lon="13.832334205700144"><ele>232.66666666666666</ele><time>2026-03-29T09:14:17.999Z</time></trkpt><trkpt lat="42.536438712645904" lon="13.832124946202384"><ele>236.33333333333331</ele><time>2026-03-29T09:14:18.999Z</time></trkpt><trkpt lat="42.53642634095967" lon="13.831921599196988"><ele>240.0</ele><time>2026-03-29T09:14:19.999Z</time></trkpt><trkpt lat="42.53640957898341" lon="13.831728667162938"><ele>242.0</ele><time>2026-03-29T09:14:20.999Z</time></trkpt><trkpt lat="42.53635791024462" lon="13.831541428556214"><ele>244.0</ele><time>2026-03-29T09:14:21.999Z</time></trkpt><trkpt lat="42.536271120921754" lon="13.831353265314041"><ele>246.0</ele><time>2026-03-29T09:14:22.999Z</time></trkpt><trkpt lat="42.53617144543071" lon="13.831180789853809"><ele>242.25</ele><time>2026-03-29T09:14:23.999Z</time></trkpt><trkpt lat="42.536071008114874" lon="13.831040394127573"><ele>238.5</ele><time>2026-03-29T09:14:24.999Z</time></trkpt><trkpt lat="42.53598078346587" lon="13.830917884766055"><ele>234.75</ele><time>2026-03-29T09:14:25.999Z</time></trkpt><trkpt lat="42.53590564751924" lon="13.830780447548145"><ele>231.0</ele><time>2026-03-29T09:14:26.999Z</time></trkpt><trkpt lat="42.53585431568231" lon="13.83061978483471"><ele>231.0</ele><time>2026-03-29T09:14:27.999Z</time></trkpt><trkpt lat="42.53582412703188" lon="13.830430292118617"><ele>231.0</ele><time>2026-03-29T09:14:28.999Z</time></trkpt><trkpt lat="42.53581548040971" lon="13.830215582351324"><ele>231.0</ele><time>2026-03-29T09:14:29.999Z</time></trkpt><trkpt lat="42.53582157013468" lon="13.829986422859525"><ele>232.33333333333331</ele><time>2026-03-29T09:14:30.999Z</time></trkpt><trkpt lat="42.53582966509414" lon="13.829748323342933"><ele>233.66666666666666</ele><time>2026-03-29T09:14:31.999Z</time></trkpt><trkpt lat="42.53581304320513" lon="13.829504903541661"><ele>235.0</ele><time>2026-03-29T09:14:32.999Z</time></trkpt><trkpt lat="42.53578943431136" lon="13.829271691021152"><ele>235.0</ele><time>2026-03-29T09:14:33.999Z</time></trkpt><trkpt lat="42.53576447353919" lon="13.829057179034063"><ele>235.0</ele><time>2026-03-29T09:14:34.999Z</time></trkpt><trkpt lat="42.53573625288466" lon="13.828853826930683"><ele>235.0</ele><time>2026-03-29T09:14:35.999Z</time></trkpt><trkpt lat="42.53570948045872" lon="13.82865002017932"><ele>235.66666666666666</ele><time>2026-03-29T09:14:36.999Z</time></trkpt><trkpt lat="42.535683613053415" lon="13.828441568048486"><ele>236.33333333333331</ele><time>2026-03-29T09:14:37.999Z</time></trkpt><trkpt lat="42.53565923463754" lon="13.828230517072095"><ele>237.0</ele><time>2026-03-29T09:14:38.999Z</time></trkpt><trkpt lat="42.53563801699974" lon="13.82802190548172"><ele>237.0</ele><time>2026-03-29T09:14:39.999Z</time></trkpt><trkpt lat="42.53561599393585" lon="13.827824658511952"><ele>237.0</ele><time>2026-03-29T09:14:40.999Z</time></trkpt><trkpt lat="42.535595759526835" lon="13.827634425480552"><ele>237.0</ele><time>2026-03-29T09:14:41.999Z</time></trkpt><trkpt lat="42.535570585272445" lon="13.827451801959848"><ele>237.0</ele><time>2026-03-29T09:14:42.999Z</time></trkpt><trkpt lat="42.5355492874152" lon="13.827281562142968"><ele>236.39999999999998</ele><time>2026-03-29T09:14:43.999Z</time></trkpt><trkpt lat="42.535532962901925" lon="13.827128008422084"><ele>235.79999999999998</ele><time>2026-03-29T09:14:44.999Z</time></trkpt><trkpt lat="42.53549490792655" lon="13.826999774468979"><ele>235.2</ele><time>2026-03-29T09:14:45.999Z</time></trkpt><trkpt lat="42.53542777989086" lon="13.826891536789203"><ele>234.6</ele><time>2026-03-29T09:14:46.999Z</time></trkpt><trkpt lat="42.53533856589549" lon="13.826823992244641"><ele>234.0</ele><time>2026-03-29T09:14:47.999Z</time></trkpt><trkpt lat="42.53522769830784" lon="13.826801400067122"><ele>235.2</ele><time>2026-03-29T09:14:48.999Z</time></trkpt><trkpt lat="42.53510361710176" lon="13.826802031186265"><ele>236.39999999999998</ele><time>2026-03-29T09:14:49.999Z</time></trkpt><trkpt lat="42.53499523091384" lon="13.826771850776378"><ele>237.6</ele><time>2026-03-29T09:14:50.999Z</time></trkpt><trkpt lat="42.5349053522805" lon="13.826712562749318"><ele>238.8</ele><time>2026-03-29T09:14:51.999Z</time></trkpt><trkpt lat="42.534822756320494" lon="13.826632742913382"><ele>240.0</ele><time>2026-03-29T09:14:52.999Z</time></trkpt><trkpt lat="42.53473075180259" lon="13.826536214128101"><ele>240.0</ele><time>2026-03-29T09:14:53.999Z</time></trkpt><trkpt lat="42.53462900995424" lon="13.826431666990281"><ele>240.0</ele><time>2026-03-29T09:14:54.999Z</time></trkpt><trkpt lat="42.534533581240666" lon="13.82633316381749"><ele>240.0</ele><time>2026-03-29T09:14:55.999Z</time></trkpt><trkpt lat="42.534460577494755" lon="13.82619164204118"><ele>240.0</ele><time>2026-03-29T09:14:56.999Z</time></trkpt><trkpt lat="42.534405943851226" lon="13.826013840129756"><ele>239.5</ele><time>2026-03-29T09:14:57.998Z</time></trkpt><trkpt lat="42.53435300647977" lon="13.825842987191445"><ele>239.0</ele><time>2026-03-29T09:14:58.998Z</time></trkpt><trkpt lat="42.53428928965474" lon="13.825701591336642"><ele>238.5</ele><time>2026-03-29T09:14:59.998Z</time></trkpt><trkpt lat="42.53420614648256" lon="13.825563177307679"><ele>238.0</ele><time>2026-03-29T09:15:00.998Z</time></trkpt><trkpt lat="42.53412060310753" lon="13.825419388074499"><ele>238.0</ele><time>2026-03-29T09:15:01.998Z</time></trkpt><trkpt lat="42.53405691745445" lon="13.825280082514421"><ele>238.0</ele><time>2026-03-29T09:15:02.998Z</time></trkpt><trkpt lat="42.534013852199024" lon="13.825138154260236"><ele>238.0</ele><time>2026-03-29T09:15:03.998Z</time></trkpt><trkpt lat="42.533992099620555" lon="13.824984256062125"><ele>238.0</ele><time>2026-03-29T09:15:04.998Z</time></trkpt><trkpt lat="42.533987958895395" lon="13.82481734684123"><ele>240.0</ele><time>2026-03-29T09:15:05.998Z</time></trkpt><trkpt lat="42.53400801194341" lon="13.824655284854767"><ele>242.0</ele><time>2026-03-29T09:15:06.998Z</time></trkpt><trkpt lat="42.5340444706125" lon="13.82451930258316"><ele>244.0</ele><time>2026-03-29T09:15:07.998Z</time></trkpt><trkpt lat="42.53409170486354" lon="13.824410498027932"><ele>246.0</ele><time>2026-03-29T09:15:08.998Z</time></trkpt><trkpt lat="42.534134328778904" lon="13.824316328454232"><ele>248.0</ele><time>2026-03-29T09:15:09.998Z</time></trkpt><trkpt lat="42.53415543713438" lon="13.824214822693621"><ele>249.5</ele><time>2026-03-29T09:15:10.998Z</time></trkpt><trkpt lat="42.53416096440283" lon="13.82409932228454"><ele>251.0</ele><time>2026-03-29T09:15:11.998Z</time></trkpt><trkpt lat="42.53415486006697" lon="13.823955294915816"><ele>252.5</ele><time>2026-03-29T09:15:12.998Z</time></trkpt><trkpt lat="42.53412567687285" lon="13.82379103167028"><ele>254.0</ele><time>2026-03-29T09:15:13.998Z</time></trkpt><trkpt lat="42.53408023014589" lon="13.823614645340824"><ele>254.5</ele><time>2026-03-29T09:15:14.998Z</time></trkpt><trkpt lat="42.53403575540537" lon="13.82345970732537"><ele>255.0</ele><time>2026-03-29T09:15:15.998Z</time></trkpt><trkpt lat="42.534000359835126" lon="13.823319119206824"><ele>255.5</ele><time>2026-03-29T09:15:16.998Z</time></trkpt><trkpt lat="42.5339650640271" lon="13.823175789036114"><ele>256.0</ele><time>2026-03-29T09:15:17.998Z</time></trkpt><trkpt lat="42.53392839705679" lon="13.823024229054392"><ele>256.0</ele><time>2026-03-29T09:15:18.998Z</time></trkpt><trkpt lat="42.53389855530403" lon="13.822878974570834"><ele>256.0</ele><time>2026-03-29T09:15:19.998Z</time></trkpt><trkpt lat="42.533876151328805" lon="13.822735773544194"><ele>256.0</ele><time>2026-03-29T09:15:20.998Z</time></trkpt><trkpt lat="42.53385598022133" lon="13.822595539718709"><ele>256.0</ele><time>2026-03-29T09:15:21.998Z</time></trkpt><trkpt lat="42.533844299057776" lon="13.822442141874253"><ele>256.0</ele><time>2026-03-29T09:15:22.998Z</time></trkpt><trkpt lat="42.53384907935846" lon="13.822266293956513"><ele>256.0</ele><time>2026-03-29T09:15:23.998Z</time></trkpt><trkpt lat="42.5338641057822" lon="13.822081202881579"><ele>256.0</ele><time>2026-03-29T09:15:24.998Z</time></trkpt><trkpt lat="42.533877247405506" lon="13.821892154162105"><ele>256.0</ele><time>2026-03-29T09:15:25.998Z</time></trkpt><trkpt lat="42.53389030128248" lon="13.821697067396654"><ele>256.0</ele><time>2026-03-29T09:15:26.998Z</time></trkpt><trkpt lat="42.533893090557264" lon="13.82149712893468"><ele>258.0</ele><time>2026-03-29T09:15:27.998Z</time></trkpt><trkpt lat="42.53388691033664" lon="13.82128991764513"><ele>260.0</ele><time>2026-03-29T09:15:28.998Z</time></trkpt><trkpt lat="42.53387133023083" lon="13.821078969499524"><ele>262.0</ele><time>2026-03-29T09:15:29.998Z</time></trkpt><trkpt lat="42.53385084228839" lon="13.820866225506277"><ele>263.66666666666663</ele><time>2026-03-29T09:15:30.998Z</time></trkpt><trkpt lat="42.53383275710153" lon="13.820645955834019"><ele>265.3333333333333</ele><time>2026-03-29T09:15:31.998Z</time></trkpt><trkpt lat="42.533818908715816" lon="13.820422139766883"><ele>267.0</ele><time>2026-03-29T09:15:32.998Z</time></trkpt><trkpt lat="42.53380231401021" lon="13.820222268584248"><ele>265.5</ele><time>2026-03-29T09:15:33.998Z</time></trkpt><trkpt lat="42.53378612375621" lon="13.820029668636064"><ele>264.0</ele><time>2026-03-29T09:15:34.998Z</time></trkpt><trkpt lat="42.53376120837073" lon="13.819831906401635"><ele>262.5</ele><time>2026-03-29T09:15:35.998Z</time></trkpt><trkpt lat="42.53371911802399" lon="13.81964609211747"><ele>261.0</ele><time>2026-03-29T09:15:36.998Z</time></trkpt><trkpt lat="42.53366656163054" lon="13.819482465827313"><ele>261.0</ele><time>2026-03-29T09:15:37.998Z</time></trkpt><trkpt lat="42.53361234184225" lon="13.819329603006908"><ele>261.0</ele><time>2026-03-29T09:15:38.998Z</time></trkpt><trkpt lat="42.53354931061282" lon="13.819181518395562"><ele>261.0</ele><time>2026-03-29T09:15:39.998Z</time></trkpt><trkpt lat="42.53347633571867" lon="13.819019482764837"><ele>261.0</ele><time>2026-03-29T09:15:40.998Z</time></trkpt><trkpt lat="42.53339141536923" lon="13.818854459247296"><ele>261.6666666666667</ele><time>2026-03-29T09:15:41.998Z</time></trkpt><trkpt lat="42.53330109335588" lon="13.818676607020736"><ele>262.33333333333337</ele><time>2026-03-29T09:15:42.998Z</time></trkpt><trkpt lat="42.5332081638189" lon="13.81848281203381"><ele>263.0</ele><time>2026-03-29T09:15:43.998Z</time></trkpt><trkpt lat="42.533106702548594" lon="13.818272588794992"><ele>264.6666666666667</ele><time>2026-03-29T09:15:44.998Z</time></trkpt><trkpt lat="42.533010242006775" lon="13.8180764522798"><ele>266.3333333333333</ele><time>2026-03-29T09:15:45.998Z</time></trkpt><trkpt lat="42.532914374310266" lon="13.817878198661946"><ele>268.0</ele><time>2026-03-29T09:15:46.998Z</time></trkpt><trkpt lat="42.5328188656457" lon="13.81768703468831"><ele>264.0</ele><time>2026-03-29T09:15:48Z</time></trkpt><trkpt lat="42.532727017009904" lon="13.817508947055343"><ele>260.0</ele><time>2026-03-29T09:15:49Z</time></trkpt><trkpt lat="42.532654330746645" lon="13.817351095699845"><ele>256.0</ele><time>2026-03-29T09:15:50Z</time></trkpt><trkpt lat="42.53258848476192" lon="13.817187695018566"><ele>252.0</ele><time>2026-03-29T09:15:51Z</time></trkpt><trkpt lat="42.53254899849473" lon="13.81701097153017"><ele>253.25</ele><time>2026-03-29T09:15:52Z</time></trkpt><trkpt lat="42.53253553109204" lon="13.816816171156626"><ele>254.5</ele><time>2026-03-29T09:15:53Z</time></trkpt><trkpt lat="42.532554828447886" lon="13.81661182138259"><ele>255.75</ele><time>2026-03-29T09:15:54Z</time></trkpt><trkpt lat="42.53261937404004" lon="13.816427533367685"><ele>257.0</ele><time>2026-03-29T09:15:55Z</time></trkpt><trkpt lat="42.532695019037746" lon="13.81623832759062"><ele>257.0</ele><time>2026-03-29T09:15:56Z</time></trkpt><trkpt lat="42.532761346864355" lon="13.816062564877472"><ele>257.0</ele><time>2026-03-29T09:15:56.999Z</time></trkpt><trkpt lat="42.53283278751639" lon="13.815913276986807"><ele>257.0</ele><time>2026-03-29T09:15:57.999Z</time></trkpt><trkpt lat="42.53288786010362" lon="13.815776619054851"><ele>257.0</ele><time>2026-03-29T09:15:58.999Z</time></trkpt><trkpt lat="42.53293580407327" lon="13.81564029988376"><ele>256.0</ele><time>2026-03-29T09:15:59.999Z</time></trkpt><trkpt lat="42.532971061395656" lon="13.815494865662602"><ele>255.0</ele><time>2026-03-29T09:16:00.999Z</time></trkpt><trkpt lat="42.53297647244039" lon="13.81534512086151"><ele>254.0</ele><time>2026-03-29T09:16:01.999Z</time></trkpt><trkpt lat="42.532955848314685" lon="13.815202870400425"><ele>253.0</ele><time>2026-03-29T09:16:02.999Z</time></trkpt><trkpt lat="42.532907937613935" lon="13.815058943812385"><ele>252.0</ele><time>2026-03-29T09:16:03.999Z</time></trkpt><trkpt lat="42.53284274386457" lon="13.814921505636068"><ele>252.0</ele><time>2026-03-29T09:16:04.999Z</time></trkpt><trkpt lat="42.53275937789817" lon="13.81479744945468"><ele>252.0</ele><time>2026-03-29T09:16:05.999Z</time></trkpt><trkpt lat="42.53266495231661" lon="13.814676818232103"><ele>252.0</ele><time>2026-03-29T09:16:06.999Z</time></trkpt><trkpt lat="42.532575099614526" lon="13.814562703595914"><ele>252.0</ele><time>2026-03-29T09:16:07.999Z</time></trkpt><trkpt lat="42.53249741853536" lon="13.81443171615462"><ele>252.75</ele><time>2026-03-29T09:16:08.999Z</time></trkpt><trkpt lat="42.53245040853116" lon="13.814265242749064"><ele>253.5</ele><time>2026-03-29T09:16:09.999Z</time></trkpt><trkpt lat="42.5324314815155" lon="13.814089644044248"><ele>254.25</ele><time>2026-03-29T09:16:10.999Z</time></trkpt><trkpt lat="42.53243501237398" lon="13.813910431410056"><ele>255.0</ele><time>2026-03-29T09:16:11.999Z</time></trkpt><trkpt lat="42.5324647843226" lon="13.813737918763414"><ele>255.0</ele><time>2026-03-29T09:16:12.999Z</time></trkpt><trkpt lat="42.53251512929175" lon="13.813553917692152"><ele>255.0</ele><time>2026-03-29T09:16:13.999Z</time></trkpt><trkpt lat="42.53256971420428" lon="13.813368986172001"><ele>255.0</ele><time>2026-03-29T09:16:14.999Z</time></trkpt><trkpt lat="42.53262129219672" lon="13.813187212918564"><ele>255.0</ele><time>2026-03-29T09:16:15.999Z</time></trkpt><trkpt lat="42.53266722359144" lon="13.81300059277171"><ele>253.33333333333331</ele><time>2026-03-29T09:16:16.999Z</time></trkpt><trkpt lat="42.53270036141914" lon="13.812787343677826"><ele>251.66666666666666</ele><time>2026-03-29T09:16:17.999Z</time></trkpt><trkpt lat="42.53270711298806" lon="13.812545399680848"><ele>250.0</ele><time>2026-03-29T09:16:18.999Z</time></trkpt><trkpt lat="42.532685169005916" lon="13.812283465376858"><ele>248.33333333333331</ele><time>2026-03-29T09:16:19.999Z</time></trkpt><trkpt lat="42.53267023113749" lon="13.811997573196896"><ele>246.66666666666669</ele><time>2026-03-29T09:16:20.999Z</time></trkpt><trkpt lat="42.53264909995361" lon="13.811693065850598"><ele>245.0</ele><time>2026-03-29T09:16:21.999Z</time></trkpt><trkpt lat="42.532626750231124" lon="13.811374011347638"><ele>245.0</ele><time>2026-03-29T09:16:22.999Z</time></trkpt><trkpt lat="42.532609790254185" lon="13.811060126572253"><ele>245.0</ele><time>2026-03-29T09:16:23.999Z</time></trkpt><trkpt lat="42.53257336465612" lon="13.810742571056322"><ele>249.0</ele><time>2026-03-29T09:16:24.999Z</time></trkpt><trkpt lat="42.532492295934645" lon="13.810440519812477"><ele>253.0</ele><time>2026-03-29T09:16:25.999Z</time></trkpt><trkpt lat="42.532432940372864" lon="13.810155864930667"><ele>254.0</ele><time>2026-03-29T09:16:26.999Z</time></trkpt><trkpt lat="42.532386914624404" lon="13.809894672691474"><ele>255.0</ele><time>2026-03-29T09:16:27.999Z</time></trkpt><trkpt lat="42.53235260958478" lon="13.809661048973078"><ele>256.0</ele><time>2026-03-29T09:16:28.999Z</time></trkpt><trkpt lat="42.53233208876987" lon="13.809434311536927"><ele>258.66666666666663</ele><time>2026-03-29T09:16:29.999Z</time></trkpt><trkpt lat="42.532256214969664" lon="13.809220887218983"><ele>261.3333333333333</ele><time>2026-03-29T09:16:30.999Z</time></trkpt><trkpt lat="42.53217921282181" lon="13.809008437632627"><ele>264.0</ele><time>2026-03-29T09:16:31.999Z</time></trkpt><trkpt lat="42.532099790491706" lon="13.808811479422372"><ele>262.75</ele><time>2026-03-29T09:16:32.999Z</time></trkpt><trkpt lat="42.53202730569739" lon="13.808635630535052"><ele>261.5</ele><time>2026-03-29T09:16:33.999Z</time></trkpt><trkpt lat="42.531945786271876" lon="13.808482298363232"><ele>260.25</ele><time>2026-03-29T09:16:34.999Z</time></trkpt><trkpt lat="42.531824901817664" lon="13.808349678886508"><ele>259.0</ele><time>2026-03-29T09:16:35.999Z</time></trkpt><trkpt lat="42.5316710703618" lon="13.808249293473189"><ele>259.0</ele><time>2026-03-29T09:16:36.999Z</time></trkpt><trkpt lat="42.531504041886095" lon="13.808169473838776"><ele>259.0</ele><time>2026-03-29T09:16:37.999Z</time></trkpt><trkpt lat="42.53135434161525" lon="13.808061356503323"><ele>259.0</ele><time>2026-03-29T09:16:38.999Z</time></trkpt><trkpt lat="42.53121437015089" lon="13.807903467100282"><ele>259.3333333333333</ele><time>2026-03-29T09:16:39.999Z</time></trkpt><trkpt lat="42.53108360940053" lon="13.807742851613247"><ele>259.6666666666667</ele><time>2026-03-29T09:16:40.999Z</time></trkpt><trkpt lat="42.53096298226425" lon="13.807609404019175"><ele>260.0</ele><time>2026-03-29T09:16:41.999Z</time></trkpt><trkpt lat="42.53084701031637" lon="13.807500235582745"><ele>260.0</ele><time>2026-03-29T09:16:42.999Z</time></trkpt><trkpt lat="42.530711864237695" lon="13.807432538795121"><ele>260.0</ele><time>2026-03-29T09:16:43.999Z</time></trkpt><trkpt lat="42.530553532671966" lon="13.8074050597922"><ele>260.0</ele><time>2026-03-29T09:16:44.999Z</time></trkpt><trkpt lat="42.53040036970929" lon="13.807394982772358"><ele>257.5</ele><time>2026-03-29T09:16:45.999Z</time></trkpt><trkpt lat="42.53024059768529" lon="13.80738811979712"><ele>255.0</ele><time>2026-03-29T09:16:46.999Z</time></trkpt><trkpt lat="42.530091883215675" lon="13.807404912205142"><ele>252.5</ele><time>2026-03-29T09:16:47.999Z</time></trkpt><trkpt lat="42.52996490962924" lon="13.807415187633385"><ele>250.0</ele><time>2026-03-29T09:16:48.999Z</time></trkpt><trkpt lat="42.52985682164104" lon="13.80741482706434"><ele>250.0</ele><time>2026-03-29T09:16:49.999Z</time></trkpt><trkpt lat="42.52976483015102" lon="13.807362367528832"><ele>250.0</ele><time>2026-03-29T09:16:50.999Z</time></trkpt><trkpt lat="42.52969218509928" lon="13.807297155203598"><ele>250.0</ele><time>2026-03-29T09:16:51.999Z</time></trkpt><trkpt lat="42.529646150313404" lon="13.807198620863822"><ele>250.0</ele><time>2026-03-29T09:16:52.999Z</time></trkpt><trkpt lat="42.529617419444605" lon="13.807075626009714"><ele>250.0</ele><time>2026-03-29T09:16:53.999Z</time></trkpt><trkpt lat="42.52961866098046" lon="13.806933091178294"><ele>251.0</ele><time>2026-03-29T09:16:54.999Z</time></trkpt><trkpt lat="42.52967086846181" lon="13.806805775984254"><ele>252.0</ele><time>2026-03-29T09:16:55.999Z</time></trkpt><trkpt lat="42.52974643043184" lon="13.806698245093175"><ele>253.0</ele><time>2026-03-29T09:16:56.999Z</time></trkpt><trkpt lat="42.529856952182804" lon="13.806597134381244"><ele>254.0</ele><time>2026-03-29T09:16:57.999Z</time></trkpt><trkpt lat="42.52996656012399" lon="13.806525662627369"><ele>254.00000000000003</ele><time>2026-03-29T09:16:58.999Z</time></trkpt><trkpt lat="42.530045256952" lon="13.80645594024784"><ele>254.0</ele><time>2026-03-29T09:16:59.999Z</time></trkpt><trkpt lat="42.53008770381577" lon="13.806371274842425"><ele>254.0</ele><time>2026-03-29T09:17:00.999Z</time></trkpt><trkpt lat="42.53010454495023" lon="13.806277490786009"><ele>254.0</ele><time>2026-03-29T09:17:01.999Z</time></trkpt><trkpt lat="42.530078399354814" lon="13.806185620601216"><ele>254.00000000000003</ele><time>2026-03-29T09:17:02.999Z</time></trkpt><trkpt lat="42.530042592607906" lon="13.806106073608149"><ele>254.0</ele><time>2026-03-29T09:17:03.999Z</time></trkpt><trkpt lat="42.5300029699506" lon="13.805963540479231"><ele>252.39999999999998</ele><time>2026-03-29T09:17:05.999Z</time></trkpt><trkpt lat="42.52995929737424" lon="13.805791032935293"><ele>250.79999999999998</ele><time>2026-03-29T09:17:07.998Z</time></trkpt><trkpt lat="42.52993029098794" lon="13.805663735947169"><ele>249.20000000000002</ele><time>2026-03-29T09:17:08.998Z</time></trkpt><trkpt lat="42.52990296828513" lon="13.805540979812685"><ele>247.60000000000002</ele><time>2026-03-29T09:17:09.998Z</time></trkpt><trkpt lat="42.52989663730969" lon="13.805425464200772"><ele>246.0</ele><time>2026-03-29T09:17:10.998Z</time></trkpt><trkpt lat="42.52989254847479" lon="13.805335100355872"><ele>246.0</ele><time>2026-03-29T09:17:11.998Z</time></trkpt><trkpt lat="42.529723089390494" lon="13.805268520170364"><ele>246.0</ele><time>2026-03-29T09:17:13.998Z</time></trkpt><trkpt lat="42.52962419426008" lon="13.805252412251988"><ele>246.0</ele><time>2026-03-29T09:17:14.998Z</time></trkpt><trkpt lat="42.52951309935128" lon="13.805265699020245"><ele>246.0</ele><time>2026-03-29T09:17:15.998Z</time></trkpt><trkpt lat="42.52939446779455" lon="13.805255947137141"><ele>246.25</ele><time>2026-03-29T09:17:16.998Z</time></trkpt><trkpt lat="42.529271890911154" lon="13.805243522030484"><ele>246.5</ele><time>2026-03-29T09:17:17.998Z</time></trkpt><trkpt lat="42.52914239275342" lon="13.805244841308053"><ele>246.75</ele><time>2026-03-29T09:17:18.998Z</time></trkpt><trkpt lat="42.52903041428601" lon="13.805263929942186"><ele>247.0</ele><time>2026-03-29T09:17:19.998Z</time></trkpt><trkpt lat="42.52893702285138" lon="13.80530542231831"><ele>246.99999999999997</ele><time>2026-03-29T09:17:20.998Z</time></trkpt><trkpt lat="42.52884752785152" lon="13.805331390362545"><ele>247.0</ele><time>2026-03-29T09:17:21.998Z</time></trkpt><trkpt lat="42.528782868573856" lon="13.805337867493614"><ele>247.0</ele><time>2026-03-29T09:17:22.998Z</time></trkpt><trkpt lat="42.528762156425195" lon="13.805239780853809"><ele>247.0</ele><time>2026-03-29T09:17:24.998Z</time></trkpt><trkpt lat="42.528806269017316" lon="13.805174435683485"><ele>246.99999999999997</ele><time>2026-03-29T09:17:25.998Z</time></trkpt><trkpt lat="42.52888410685879" lon="13.805170856168578"><ele>247.0</ele><time>2026-03-29T09:17:26.998Z</time></trkpt><trkpt lat="42.52897504808756" lon="13.805145846532888"><ele>252.25</ele><time>2026-03-29T09:17:27.998Z</time></trkpt><trkpt lat="42.52909452578289" lon="13.80514051280743"><ele>257.5</ele><time>2026-03-29T09:17:28.998Z</time></trkpt><trkpt lat="42.529221900844824" lon="13.8051205439737"><ele>262.75</ele><time>2026-03-29T09:17:29.998Z</time></trkpt><trkpt lat="42.529353276748296" lon="13.805090355159475"><ele>268.0</ele><time>2026-03-29T09:17:30.998Z</time></trkpt><trkpt lat="42.52946458296644" lon="13.805083533562918"><ele>264.6</ele><time>2026-03-29T09:17:31.998Z</time></trkpt><trkpt lat="42.52955891735291" lon="13.805082115860133"><ele>261.20000000000005</ele><time>2026-03-29T09:17:32.998Z</time></trkpt><trkpt lat="42.5296413142064" lon="13.805042324055615"><ele>257.8</ele><time>2026-03-29T09:17:33.998Z</time></trkpt><trkpt lat="42.529708921017196" lon="13.804939527516664"><ele>254.4</ele><time>2026-03-29T09:17:34.998Z</time></trkpt><trkpt lat="42.5297614558065" lon="13.804792984904605"><ele>251.0</ele><time>2026-03-29T09:17:35.998Z</time></trkpt><trkpt lat="42.52979991672291" lon="13.804625385178172"><ele>251.0</ele><time>2026-03-29T09:17:36.998Z</time></trkpt><trkpt lat="42.52983190625049" lon="13.804453269755292"><ele>251.0</ele><time>2026-03-29T09:17:37.998Z</time></trkpt><trkpt lat="42.52986912243613" lon="13.80430016223399"><ele>251.0</ele><time>2026-03-29T09:17:38.998Z</time></trkpt><trkpt lat="42.52990612210185" lon="13.804166003890323"><ele>251.0</ele><time>2026-03-29T09:17:39.998Z</time></trkpt><trkpt lat="42.52993907931687" lon="13.80403983589166"><ele>252.8</ele><time>2026-03-29T09:17:40.998Z</time></trkpt><trkpt lat="42.52995841309384" lon="13.803927713105207"><ele>254.60000000000002</ele><time>2026-03-29T09:17:41.998Z</time></trkpt><trkpt lat="42.52995181531277" lon="13.803833400776012"><ele>256.4</ele><time>2026-03-29T09:17:42.998Z</time></trkpt><trkpt lat="42.52990155011235" lon="13.803781473956008"><ele>258.2</ele><time>2026-03-29T09:17:43.998Z</time></trkpt><trkpt lat="42.52979111875406" lon="13.803776754015589"><ele>260.0</ele><time>2026-03-29T09:17:45.998Z</time></trkpt><trkpt lat="42.52975145880017" lon="13.803979328104884"><ele>260.0</ele><time>2026-03-29T09:17:46.998Z</time></trkpt><trkpt lat="42.52974435606323" lon="13.804110121337763"><ele>260.0</ele><time>2026-03-29T09:17:47.998Z</time></trkpt><trkpt lat="42.52970369221198" lon="13.80424059084446"><ele>260.0</ele><time>2026-03-29T09:17:48.998Z</time></trkpt><trkpt lat="42.529669391697134" lon="13.804387957730054"><ele>260.0</ele><time>2026-03-29T09:17:49.998Z</time></trkpt><trkpt lat="42.529640051061584" lon="13.8045370703843"><ele>260.0</ele><time>2026-03-29T09:17:50.998Z</time></trkpt><trkpt lat="42.529596239364245" lon="13.804659877834153"><ele>261.33333333333337</ele><time>2026-03-29T09:17:51.998Z</time></trkpt><trkpt lat="42.52954224557587" lon="13.8047561728305"><ele>262.6666666666667</ele><time>2026-03-29T09:17:53Z</time></trkpt><trkpt lat="42.52947114174503" lon="13.804815149157744"><ele>264.0</ele><time>2026-03-29T09:17:54Z</time></trkpt><trkpt lat="42.5293945737376" lon="13.8048068358205"><ele>265.3333333333333</ele><time>2026-03-29T09:17:55Z</time></trkpt><trkpt lat="42.52931407501542" lon="13.80479470159287"><ele>266.66666666666663</ele><time>2026-03-29T09:17:56Z</time></trkpt><trkpt lat="42.52923376280264" lon="13.804819097369704"><ele>268.0</ele><time>2026-03-29T09:17:57Z</time></trkpt><trkpt lat="42.529142235454366" lon="13.8048214547342"><ele>268.0</ele><time>2026-03-29T09:17:58Z</time></trkpt><trkpt lat="42.52904830438433" lon="13.804830016288644"><ele>268.0</ele><time>2026-03-29T09:17:59Z</time></trkpt><trkpt lat="42.52898231731418" lon="13.804831880432683"><ele>268.0</ele><time>2026-03-29T09:18:00Z</time></trkpt><trkpt lat="42.528895447222915" lon="13.804745615568155"><ele>268.0</ele><time>2026-03-29T09:18:02Z</time></trkpt><trkpt lat="42.528879502068285" lon="13.804576264760799"><ele>268.0</ele><time>2026-03-29T09:18:04Z</time></trkpt><trkpt lat="42.528861478984595" lon="13.804443507889632"><ele>271.2</ele><time>2026-03-29T09:18:06Z</time></trkpt><trkpt lat="42.528832686158495" lon="13.80430988117116"><ele>274.4</ele><time>2026-03-29T09:18:08Z</time></trkpt><trkpt lat="42.52880448127899" lon="13.804204846396326"><ele>277.59999999999997</ele><time>2026-03-29T09:18:11Z</time></trkpt><trkpt lat="42.528800704302526" lon="13.804058435149326"><ele>280.8</ele><time>2026-03-29T09:18:13Z</time></trkpt><trkpt lat="42.528791684541225" lon="13.803904754030814"><ele>284.0</ele><time>2026-03-29T09:18:15Z</time></trkpt><trkpt lat="42.52877915600678" lon="13.80376038399325"><ele>284.0</ele><time>2026-03-29T09:18:17Z</time></trkpt><trkpt lat="42.52877399735822" lon="13.803643584802694"><ele>284.0</ele><time>2026-03-29T09:18:19Z</time></trkpt><trkpt lat="42.528830679572344" lon="13.80357245008027"><ele>284.0</ele><time>2026-03-29T09:18:21Z</time></trkpt><trkpt lat="42.52895007216988" lon="13.803545665415202"><ele>284.0</ele><time>2026-03-29T09:18:22.999Z</time></trkpt><trkpt lat="42.529066787827574" lon="13.80349296093395"><ele>284.0</ele><time>2026-03-29T09:18:24.999Z</time></trkpt><trkpt lat="42.52914749214896" lon="13.803453665322454"><ele>283.8</ele><time>2026-03-29T09:18:26.999Z</time></trkpt><trkpt lat="42.529132602527575" lon="13.803272130353596"><ele>283.59999999999997</ele><time>2026-03-29T09:18:28.999Z</time></trkpt><trkpt lat="42.5290989977001" lon="13.803177911948072"><ele>283.4</ele><time>2026-03-29T09:18:30.999Z</time></trkpt><trkpt lat="42.529069882706686" lon="13.803063156406461"><ele>283.2</ele><time>2026-03-29T09:18:32.999Z</time></trkpt><trkpt lat="42.529030430778946" lon="13.802942277544904"><ele>283.0</ele><time>2026-03-29T09:18:34.999Z</time></trkpt><trkpt lat="42.52900504960011" lon="13.802816367754074"><ele>283.0</ele><time>2026-03-29T09:18:36.999Z</time></trkpt><trkpt lat="42.52898648522206" lon="13.802704498421354"><ele>283.0</ele><time>2026-03-29T09:18:38.999Z</time></trkpt><trkpt lat="42.52897685988067" lon="13.802613685478253"><ele>283.0</ele><time>2026-03-29T09:18:40.999Z</time></trkpt><trkpt lat="42.52895498739112" lon="13.802519035802183"><ele>283.0</ele><time>2026-03-29T09:18:42.999Z</time></trkpt><trkpt lat="42.52893229717286" lon="13.802427487516942"><ele>283.0</ele><time>2026-03-29T09:18:44.999Z</time></trkpt><trkpt lat="42.52891827737463" lon="13.802335800471663"><ele>283.0</ele><time>2026-03-29T09:18:46.999Z</time></trkpt><trkpt lat="42.528906132756916" lon="13.802238267128855"><ele>283.0</ele><time>2026-03-29T09:18:48.999Z</time></trkpt><trkpt lat="42.52888238024218" lon="13.802157121312483"><ele>282.16666666666663</ele><time>2026-03-29T09:18:50.999Z</time></trkpt><trkpt lat="42.52885881129713" lon="13.802046156920234"><ele>281.3333333333333</ele><time>2026-03-29T09:18:52.999Z</time></trkpt><trkpt lat="42.52883292974807" lon="13.80191357811336"><ele>280.5</ele><time>2026-03-29T09:18:54.999Z</time></trkpt><trkpt lat="42.52881227722049" lon="13.801820000092627"><ele>279.6666666666667</ele><time>2026-03-29T09:18:55.999Z</time></trkpt><trkpt lat="42.52879381855566" lon="13.801734694407235"><ele>278.83333333333337</ele><time>2026-03-29T09:18:56.999Z</time></trkpt><trkpt lat="42.52877443451077" lon="13.80165091541373"><ele>278.0</ele><time>2026-03-29T09:18:57.999Z</time></trkpt><trkpt lat="42.52875628879814" lon="13.801566839753567"><ele>277.0</ele><time>2026-03-29T09:18:58.999Z</time></trkpt><trkpt lat="42.52873093827167" lon="13.801417389680019"><ele>276.0</ele><time>2026-03-29T09:19:00.999Z</time></trkpt><trkpt lat="42.528708510497815" lon="13.801306040093605"><ele>275.0</ele><time>2026-03-29T09:19:02.999Z</time></trkpt><trkpt lat="42.5286887887779" lon="13.801207635444152"><ele>274.0</ele><time>2026-03-29T09:19:04.999Z</time></trkpt><trkpt lat="42.52865997959108" lon="13.801084320807327"><ele>273.0</ele><time>2026-03-29T09:19:06.999Z</time></trkpt><trkpt lat="42.52863425048213" lon="13.800958198761332"><ele>276.0</ele><time>2026-03-29T09:19:08.999Z</time></trkpt><trkpt lat="42.528624136427716" lon="13.80084171602131"><ele>279.0</ele><time>2026-03-29T09:19:10.999Z</time></trkpt><trkpt lat="42.52862564302921" lon="13.800682395768387"><ele>282.0</ele><time>2026-03-29T09:19:12.999Z</time></trkpt><trkpt lat="42.528592885415044" lon="13.800592615305751"><ele>285.0</ele><time>2026-03-29T09:19:13.999Z</time></trkpt><trkpt lat="42.52855756508725" lon="13.800514453542728"><ele>288.0</ele><time>2026-03-29T09:19:14.999Z</time></trkpt><trkpt lat="42.52850862104833" lon="13.800351209436771"><ele>288.0</ele><time>2026-03-29T09:19:16.999Z</time></trkpt><trkpt lat="42.52848842900378" lon="13.800241391779059"><ele>288.0</ele><time>2026-03-29T09:19:17.999Z</time></trkpt><trkpt lat="42.52846727751758" lon="13.800121467746306"><ele>288.0</ele><time>2026-03-29T09:19:18.998Z</time></trkpt><trkpt lat="42.528443252567946" lon="13.799996357163554"><ele>288.0</ele><time>2026-03-29T09:19:19.998Z</time></trkpt><trkpt lat="42.5284178859145" lon="13.799877976776434"><ele>288.0</ele><time>2026-03-29T09:19:20.998Z</time></trkpt><trkpt lat="42.528389425169735" lon="13.799768557626463"><ele>288.0</ele><time>2026-03-29T09:19:21.998Z</time></trkpt><trkpt lat="42.52837536239554" lon="13.799649557056847"><ele>288.75</ele><time>2026-03-29T09:19:22.998Z</time></trkpt><trkpt lat="42.52833182688542" lon="13.79950922808616"><ele>289.5</ele><time>2026-03-29T09:19:23.998Z</time></trkpt><trkpt lat="42.528303441353366" lon="13.799337212646522"><ele>290.25</ele><time>2026-03-29T09:19:24.998Z</time></trkpt><trkpt lat="42.52837951028751" lon="13.799219912611274"><ele>291.0</ele><time>2026-03-29T09:19:26.998Z</time></trkpt><trkpt lat="42.528428472252465" lon="13.799081192155548"><ele>292.6</ele><time>2026-03-29T09:19:27.998Z</time></trkpt><trkpt lat="42.5284762640709" lon="13.798935995977729"><ele>294.20000000000005</ele><time>2026-03-29T09:19:28.998Z</time></trkpt><trkpt lat="42.52851182960222" lon="13.798813544182309"><ele>295.79999999999995</ele><time>2026-03-29T09:19:29.998Z</time></trkpt><trkpt lat="42.528517672142016" lon="13.798670945266977"><ele>297.4</ele><time>2026-03-29T09:19:30.998Z</time></trkpt><trkpt lat="42.52850422054449" lon="13.798503699493857"><ele>299.0</ele><time>2026-03-29T09:19:31.998Z</time></trkpt><trkpt lat="42.528479569011516" lon="13.79834147717834"><ele>300.0</ele><time>2026-03-29T09:19:32.998Z</time></trkpt><trkpt lat="42.528457763712815" lon="13.798216281331634"><ele>301.0</ele><time>2026-03-29T09:19:33.998Z</time></trkpt><trkpt lat="42.52843122509443" lon="13.79807912797346"><ele>302.0</ele><time>2026-03-29T09:19:34.998Z</time></trkpt><trkpt lat="42.52840080323361" lon="13.797941719053494"><ele>303.0</ele><time>2026-03-29T09:19:35.998Z</time></trkpt><trkpt lat="42.52838965182593" lon="13.797818527483912"><ele>304.0</ele><time>2026-03-29T09:19:36.998Z</time></trkpt><trkpt lat="42.528413837530984" lon="13.797700910489782"><ele>304.59999999999997</ele><time>2026-03-29T09:19:37.998Z</time></trkpt><trkpt lat="42.52843371973614" lon="13.797589372486877"><ele>305.2</ele><time>2026-03-29T09:19:38.998Z</time></trkpt><trkpt lat="42.52853267139016" lon="13.797503115392411"><ele>305.79999999999995</ele><time>2026-03-29T09:19:39.998Z</time></trkpt><trkpt lat="42.52861297103412" lon="13.797383587355368"><ele>306.4</ele><time>2026-03-29T09:19:40.998Z</time></trkpt><trkpt lat="42.52869612800319" lon="13.797258461713833"><ele>307.0</ele><time>2026-03-29T09:19:41.998Z</time></trkpt><trkpt lat="42.52876982404778" lon="13.79713060759362"><ele>306.25</ele><time>2026-03-29T09:19:42.998Z</time></trkpt><trkpt lat="42.52885127953973" lon="13.797013644221854"><ele>305.5</ele><time>2026-03-29T09:19:43.998Z</time></trkpt><trkpt lat="42.52893021655282" lon="13.79690609702905"><ele>304.75</ele><time>2026-03-29T09:19:44.998Z</time></trkpt><trkpt lat="42.52900720597885" lon="13.796792596423298"><ele>304.0</ele><time>2026-03-29T09:19:45.998Z</time></trkpt><trkpt lat="42.52906025695272" lon="13.7966554976054"><ele>304.0</ele><time>2026-03-29T09:19:46.998Z</time></trkpt><trkpt lat="42.52909209818567" lon="13.796496940568094"><ele>304.0</ele><time>2026-03-29T09:19:47.998Z</time></trkpt><trkpt lat="42.52911076031617" lon="13.796338643534751"><ele>304.0</ele><time>2026-03-29T09:19:48.998Z</time></trkpt><trkpt lat="42.52912680395914" lon="13.796176792828614"><ele>304.0</ele><time>2026-03-29T09:19:49.998Z</time></trkpt><trkpt lat="42.52915772183848" lon="13.796019990770992"><ele>305.0</ele><time>2026-03-29T09:19:50.998Z</time></trkpt><trkpt lat="42.52919406358336" lon="13.795880709229825"><ele>306.0</ele><time>2026-03-29T09:19:51.998Z</time></trkpt><trkpt lat="42.52922661615799" lon="13.795759704018469"><ele>307.0</ele><time>2026-03-29T09:19:52.998Z</time></trkpt><trkpt lat="42.529257069451646" lon="13.795647176508949"><ele>308.0</ele><time>2026-03-29T09:19:53.998Z</time></trkpt><trkpt lat="42.52927843626104" lon="13.795529683763824"><ele>309.0</ele><time>2026-03-29T09:19:54.998Z</time></trkpt><trkpt lat="42.529286985089826" lon="13.795420247416525"><ele>309.0</ele><time>2026-03-29T09:19:55.998Z</time></trkpt><trkpt lat="42.52923078673984" lon="13.795282276535632"><ele>309.0</ele><time>2026-03-29T09:19:58Z</time></trkpt><trkpt lat="42.5291620908312" lon="13.795236654316712"><ele>309.0</ele><time>2026-03-29T09:19:59Z</time></trkpt><trkpt lat="42.529088770600346" lon="13.795247342498104"><ele>309.0</ele><time>2026-03-29T09:20:00Z</time></trkpt><trkpt lat="42.52902782528819" lon="13.795312417806743"><ele>309.0</ele><time>2026-03-29T09:20:01Z</time></trkpt><trkpt lat="42.528991768432626" lon="13.795425748015507"><ele>309.0</ele><time>2026-03-29T09:20:02Z</time></trkpt><trkpt lat="42.52899215524427" lon="13.795566159153324"><ele>309.0</ele><time>2026-03-29T09:20:03Z</time></trkpt><trkpt lat="42.5290124422723" lon="13.795713924003364"><ele>309.0</ele><time>2026-03-29T09:20:04Z</time></trkpt><trkpt lat="42.52899942223553" lon="13.795864541944017"><ele>309.0</ele><time>2026-03-29T09:20:05Z</time></trkpt><trkpt lat="42.5289678771682" lon="13.796008997179928"><ele>309.0</ele><time>2026-03-29T09:20:06Z</time></trkpt><trkpt lat="42.528929197933266" lon="13.796137328363372"><ele>309.0</ele><time>2026-03-29T09:20:07Z</time></trkpt><trkpt lat="42.52885355450784" lon="13.796238423422475"><ele>307.75</ele><time>2026-03-29T09:20:08Z</time></trkpt><trkpt lat="42.52875486711079" lon="13.796329488287824"><ele>306.5</ele><time>2026-03-29T09:20:09Z</time></trkpt><trkpt lat="42.52864003849244" lon="13.796397868979138"><ele>305.25</ele><time>2026-03-29T09:20:10Z</time></trkpt><trkpt lat="42.528529752742834" lon="13.79642926996513"><ele>304.0</ele><time>2026-03-29T09:20:11Z</time></trkpt><trkpt lat="42.528420917310214" lon="13.796454856417233"><ele>307.0</ele><time>2026-03-29T09:20:12Z</time></trkpt><trkpt lat="42.52831081469895" lon="13.796488847855017"><ele>310.0</ele><time>2026-03-29T09:20:13Z</time></trkpt><trkpt lat="42.52820637552377" lon="13.796530489312786"><ele>313.0</ele><time>2026-03-29T09:20:14Z</time></trkpt><trkpt lat="42.528111494500756" lon="13.79660925165442"><ele>316.0</ele><time>2026-03-29T09:20:15Z</time></trkpt><trkpt lat="42.52802385447489" lon="13.796749512963578"><ele>313.75</ele><time>2026-03-29T09:20:16Z</time></trkpt><trkpt lat="42.527939837897215" lon="13.796913490312036"><ele>311.5</ele><time>2026-03-29T09:20:17Z</time></trkpt><trkpt lat="42.52785777718811" lon="13.797071284017353"><ele>309.25</ele><time>2026-03-29T09:20:18Z</time></trkpt><trkpt lat="42.52778073364357" lon="13.797216721175959"><ele>307.0</ele><time>2026-03-29T09:20:19Z</time></trkpt><trkpt lat="42.527702806892925" lon="13.797366100184481"><ele>311.5</ele><time>2026-03-29T09:20:20Z</time></trkpt><trkpt lat="42.52764413659702" lon="13.797532371168536"><ele>316.0</ele><time>2026-03-29T09:20:21Z</time></trkpt><trkpt lat="42.527623333515656" lon="13.797725812293502"><ele>320.5</ele><time>2026-03-29T09:20:22Z</time></trkpt><trkpt lat="42.52761009443913" lon="13.797912916262138"><ele>325.0</ele><time>2026-03-29T09:20:23Z</time></trkpt><trkpt lat="42.527585799751144" lon="13.79806810971286"><ele>325.0</ele><time>2026-03-29T09:20:24Z</time></trkpt><trkpt lat="42.52752185175926" lon="13.798201879742162"><ele>325.0</ele><time>2026-03-29T09:20:25Z</time></trkpt><trkpt lat="42.527453837406334" lon="13.798330482139608"><ele>325.0</ele><time>2026-03-29T09:20:26Z</time></trkpt><trkpt lat="42.527384973230674" lon="13.798480131789677"><ele>325.0</ele><time>2026-03-29T09:20:27Z</time></trkpt><trkpt lat="42.527307497546815" lon="13.798601583208521"><ele>325.0</ele><time>2026-03-29T09:20:28Z</time></trkpt><trkpt lat="42.5272439777116" lon="13.798709529945874"><ele>325.0</ele><time>2026-03-29T09:20:28.999Z</time></trkpt><trkpt lat="42.52717087006529" lon="13.798751894720695"><ele>325.0</ele><time>2026-03-29T09:20:29.999Z</time></trkpt><trkpt lat="42.52705187038268" lon="13.798720828638684"><ele>325.0</ele><time>2026-03-29T09:20:31.999Z</time></trkpt><trkpt lat="42.527035242807386" lon="13.798634428967587"><ele>325.0</ele><time>2026-03-29T09:20:32.999Z</time></trkpt><trkpt lat="42.527053844210194" lon="13.79853801673094"><ele>325.0</ele><time>2026-03-29T09:20:33.999Z</time></trkpt><trkpt lat="42.5271074981828" lon="13.79843958503347"><ele>325.0</ele><time>2026-03-29T09:20:34.999Z</time></trkpt><trkpt lat="42.527189214262535" lon="13.798343302770274"><ele>325.0</ele><time>2026-03-29T09:20:35.999Z</time></trkpt><trkpt lat="42.527264767864516" lon="13.798247202007532"><ele>325.0</ele><time>2026-03-29T09:20:36.999Z</time></trkpt><trkpt lat="42.52732451740158" lon="13.798145570150442"><ele>325.0</ele><time>2026-03-29T09:20:37.999Z</time></trkpt><trkpt lat="42.527362360067585" lon="13.798036710155026"><ele>325.0</ele><time>2026-03-29T09:20:38.999Z</time></trkpt><trkpt lat="42.52738861883995" lon="13.79792178012309"><ele>325.0</ele><time>2026-03-29T09:20:39.999Z</time></trkpt><trkpt lat="42.5273919604622" lon="13.797809899582692"><ele>325.0</ele><time>2026-03-29T09:20:40.999Z</time></trkpt><trkpt lat="42.52735732622164" lon="13.797722474258094"><ele>325.0</ele><time>2026-03-29T09:20:41.999Z</time></trkpt><trkpt lat="42.527300212837304" lon="13.797653456522525"><ele>325.0</ele><time>2026-03-29T09:20:42.999Z</time></trkpt><trkpt lat="42.52717690268135" lon="13.797684547925815"><ele>325.0</ele><time>2026-03-29T09:20:44.999Z</time></trkpt><trkpt lat="42.527121519793205" lon="13.797749595192176"><ele>325.0</ele><time>2026-03-29T09:20:45.999Z</time></trkpt><trkpt lat="42.52709697618156" lon="13.797839079200976"><ele>325.0</ele><time>2026-03-29T09:20:46.999Z</time></trkpt><trkpt lat="42.52709571744869" lon="13.797958045332507"><ele>325.0</ele><time>2026-03-29T09:20:47.999Z</time></trkpt><trkpt lat="42.527082392950575" lon="13.798085583586776"><ele>325.0</ele><time>2026-03-29T09:20:48.999Z</time></trkpt><trkpt lat="42.52701612234165" lon="13.798191664985252"><ele>325.0</ele><time>2026-03-29T09:20:49.999Z</time></trkpt><trkpt lat="42.526919508148225" lon="13.798284208401215"><ele>325.0</ele><time>2026-03-29T09:20:50.999Z</time></trkpt><trkpt lat="42.52683881135352" lon="13.798408761769275"><ele>328.0</ele><time>2026-03-29T09:20:51.999Z</time></trkpt><trkpt lat="42.52677877084877" lon="13.798537103768396"><ele>331.0</ele><time>2026-03-29T09:20:52.999Z</time></trkpt><trkpt lat="42.526755972474305" lon="13.798709957895404"><ele>334.0</ele><time>2026-03-29T09:20:53.999Z</time></trkpt><trkpt lat="42.52673377336655" lon="13.798899102001425"><ele>337.0</ele><time>2026-03-29T09:20:54.999Z</time></trkpt><trkpt lat="42.52669880488101" lon="13.799065475931275"><ele>337.0</ele><time>2026-03-29T09:20:55.999Z</time></trkpt><trkpt lat="42.52665636499717" lon="13.799210716678235"><ele>337.0</ele><time>2026-03-29T09:20:56.999Z</time></trkpt><trkpt lat="42.526603504223054" lon="13.799351040359698"><ele>337.0</ele><time>2026-03-29T09:20:57.999Z</time></trkpt><trkpt lat="42.526537643845614" lon="13.799480222528722"><ele>337.0</ele><time>2026-03-29T09:20:58.999Z</time></trkpt><trkpt lat="42.526462480928856" lon="13.799577384569638"><ele>334.20000000000005</ele><time>2026-03-29T09:20:59.999Z</time></trkpt><trkpt lat="42.5263751551124" lon="13.799634391622623"><ele>331.4</ele><time>2026-03-29T09:21:00.999Z</time></trkpt><trkpt lat="42.52627136971405" lon="13.799643151888304"><ele>328.6</ele><time>2026-03-29T09:21:01.999Z</time></trkpt><trkpt lat="42.526175360668894" lon="13.799612684545794"><ele>325.79999999999995</ele><time>2026-03-29T09:21:02.999Z</time></trkpt><trkpt lat="42.52609696757306" lon="13.799512328802228"><ele>323.0</ele><time>2026-03-29T09:21:03.999Z</time></trkpt><trkpt lat="42.52600152807955" lon="13.799429125929016"><ele>329.5</ele><time>2026-03-29T09:21:04.999Z</time></trkpt><trkpt lat="42.525917744146795" lon="13.799313241371005"><ele>336.0</ele><time>2026-03-29T09:21:05.999Z</time></trkpt><trkpt lat="42.525826678179854" lon="13.799203337540344"><ele>342.5</ele><time>2026-03-29T09:21:06.999Z</time></trkpt><trkpt lat="42.52573255017109" lon="13.799098589047045"><ele>349.0</ele><time>2026-03-29T09:21:07.999Z</time></trkpt><trkpt lat="42.525635060780495" lon="13.798997850125188"><ele>349.0</ele><time>2026-03-29T09:21:08.999Z</time></trkpt><trkpt lat="42.52554780783263" lon="13.798912022561481"><ele>349.0</ele><time>2026-03-29T09:21:09.999Z</time></trkpt><trkpt lat="42.52545661351487" lon="13.798841698853407"><ele>349.0</ele><time>2026-03-29T09:21:10.999Z</time></trkpt><trkpt lat="42.52536606443564" lon="13.798785172734457"><ele>349.0</ele><time>2026-03-29T09:21:11.999Z</time></trkpt><trkpt lat="42.52527312364086" lon="13.798733715883216"><ele>349.0</ele><time>2026-03-29T09:21:12.999Z</time></trkpt><trkpt lat="42.52517967837365" lon="13.798679475418433"><ele>350.4</ele><time>2026-03-29T09:21:13.999Z</time></trkpt><trkpt lat="42.525094998642864" lon="13.798612636940213"><ele>351.79999999999995</ele><time>2026-03-29T09:21:14.999Z</time></trkpt><trkpt lat="42.52501550469259" lon="13.79852993738937"><ele>353.20000000000005</ele><time>2026-03-29T09:21:15.999Z</time></trkpt><trkpt lat="42.52495251898753" lon="13.798430073715291"><ele>354.6</ele><time>2026-03-29T09:21:16.999Z</time></trkpt><trkpt lat="42.52489210762103" lon="13.798319778373168"><ele>356.0</ele><time>2026-03-29T09:21:17.999Z</time></trkpt><trkpt lat="42.52481981387165" lon="13.79821734133996"><ele>356.0</ele><time>2026-03-29T09:21:18.999Z</time></trkpt><trkpt lat="42.524722117349654" lon="13.798147355002682"><ele>356.0</ele><time>2026-03-29T09:21:19.999Z</time></trkpt><trkpt lat="42.52462243879109" lon="13.798107091057261"><ele>356.0</ele><time>2026-03-29T09:21:20.999Z</time></trkpt><trkpt lat="42.524528262526395" lon="13.798092679425258"><ele>356.0</ele><time>2026-03-29T09:21:21.999Z</time></trkpt><trkpt lat="42.52442952176307" lon="13.798095256537653"><ele>356.0</ele><time>2026-03-29T09:21:22.999Z</time></trkpt><trkpt lat="42.52432375474005" lon="13.798072076392874"><ele>357.4</ele><time>2026-03-29T09:21:23.999Z</time></trkpt><trkpt lat="42.52423817676931" lon="13.79800891929658"><ele>358.8</ele><time>2026-03-29T09:21:24.999Z</time></trkpt><trkpt lat="42.524161869725965" lon="13.79792665040167"><ele>360.2</ele><time>2026-03-29T09:21:25.999Z</time></trkpt><trkpt lat="42.52408549352205" lon="13.797830249481539"><ele>361.59999999999997</ele><time>2026-03-29T09:21:26.998Z</time></trkpt><trkpt lat="42.524010901989044" lon="13.797742570482626"><ele>363.0</ele><time>2026-03-29T09:21:27.998Z</time></trkpt><trkpt lat="42.52393810532148" lon="13.797664311842086"><ele>363.0</ele><time>2026-03-29T09:21:28.998Z</time></trkpt><trkpt lat="42.52385450755526" lon="13.797591889592304"><ele>363.0</ele><time>2026-03-29T09:21:29.998Z</time></trkpt><trkpt lat="42.52376644105406" lon="13.797520995460813"><ele>363.0</ele><time>2026-03-29T09:21:30.998Z</time></trkpt><trkpt lat="42.52368462116866" lon="13.797460242310754"><ele>363.0</ele><time>2026-03-29T09:21:31.998Z</time></trkpt><trkpt lat="42.52361290721019" lon="13.797386696431897"><ele>363.0</ele><time>2026-03-29T09:21:32.998Z</time></trkpt><trkpt lat="42.52354167659548" lon="13.79730066960672"><ele>361.79999999999995</ele><time>2026-03-29T09:21:33.998Z</time></trkpt><trkpt lat="42.52346126326478" lon="13.797234382739843"><ele>360.6</ele><time>2026-03-29T09:21:34.998Z</time></trkpt><trkpt lat="42.52337489211283" lon="13.797198136531055"><ele>359.4</ele><time>2026-03-29T09:21:35.998Z</time></trkpt><trkpt lat="42.52328251465954" lon="13.797201010146225"><ele>358.20000000000005</ele><time>2026-03-29T09:21:36.998Z</time></trkpt><trkpt lat="42.52319252603854" lon="13.797248143560306"><ele>357.0</ele><time>2026-03-29T09:21:37.998Z</time></trkpt><trkpt lat="42.52310791858351" lon="13.797331729424425"><ele>357.0</ele><time>2026-03-29T09:21:38.998Z</time></trkpt><trkpt lat="42.52303660152141" lon="13.797439405984916"><ele>357.0</ele><time>2026-03-29T09:21:39.998Z</time></trkpt><trkpt lat="42.52298209929017" lon="13.797537780237532"><ele>357.0</ele><time>2026-03-29T09:21:40.998Z</time></trkpt><trkpt lat="42.52290233448962" lon="13.79761183387828"><ele>357.0</ele><time>2026-03-29T09:21:41.998Z</time></trkpt><trkpt lat="42.522846087903865" lon="13.797683825703771"><ele>357.0</ele><time>2026-03-29T09:21:42.998Z</time></trkpt><trkpt lat="42.52275602583849" lon="13.797710979745435"><ele>355.20000000000005</ele><time>2026-03-29T09:21:43.998Z</time></trkpt><trkpt lat="42.52265967626342" lon="13.797723246694314"><ele>353.4</ele><time>2026-03-29T09:21:44.998Z</time></trkpt><trkpt lat="42.5225660103542" lon="13.797713342325872"><ele>351.6</ele><time>2026-03-29T09:21:45.998Z</time></trkpt><trkpt lat="42.522456946568134" lon="13.797710250773976"><ele>349.79999999999995</ele><time>2026-03-29T09:21:46.998Z</time></trkpt><trkpt lat="42.52234619568635" lon="13.797706309981209"><ele>348.0</ele><time>2026-03-29T09:21:47.998Z</time></trkpt><trkpt lat="42.52223884864437" lon="13.797701814409127"><ele>348.0</ele><time>2026-03-29T09:21:48.998Z</time></trkpt><trkpt lat="42.522145362447674" lon="13.79768579618327"><ele>348.0</ele><time>2026-03-29T09:21:49.998Z</time></trkpt><trkpt lat="42.5220541612215" lon="13.797669276530192"><ele>348.0</ele><time>2026-03-29T09:21:50.998Z</time></trkpt><trkpt lat="42.521960641017316" lon="13.797646920371506"><ele>348.0</ele><time>2026-03-29T09:21:51.998Z</time></trkpt><trkpt lat="42.52187654318168" lon="13.79760092681682"><ele>348.0</ele><time>2026-03-29T09:21:52.998Z</time></trkpt><trkpt lat="42.521798436804396" lon="13.797530588282724"><ele>349.8333333333333</ele><time>2026-03-29T09:21:53.998Z</time></trkpt><trkpt lat="42.521738096581906" lon="13.79743963302787"><ele>351.6666666666667</ele><time>2026-03-29T09:21:54.998Z</time></trkpt><trkpt lat="42.5217058633685" lon="13.797338362595564"><ele>353.5</ele><time>2026-03-29T09:21:55.998Z</time></trkpt><trkpt lat="42.521710798320406" lon="13.797244042744484"><ele>355.33333333333337</ele><time>2026-03-29T09:21:56.998Z</time></trkpt><trkpt lat="42.52174049596522" lon="13.797162397782847"><ele>357.1666666666667</ele><time>2026-03-29T09:21:57.998Z</time></trkpt><trkpt lat="42.52179885400954" lon="13.797095846506013"><ele>359.0</ele><time>2026-03-29T09:21:58.998Z</time></trkpt><trkpt lat="42.521858558754225" lon="13.797032933396855"><ele>359.0</ele><time>2026-03-29T09:21:59.998Z</time></trkpt><trkpt lat="42.52192958704853" lon="13.79690663408391"><ele>359.0</ele><time>2026-03-29T09:22:01.998Z</time></trkpt><trkpt lat="42.521943496757125" lon="13.79680830081379"><ele>359.0</ele><time>2026-03-29T09:22:03Z</time></trkpt><trkpt lat="42.52192115689657" lon="13.796696441610518"><ele>359.0</ele><time>2026-03-29T09:22:04Z</time></trkpt><trkpt lat="42.52186598110585" lon="13.79659521992982"><ele>359.0</ele><time>2026-03-29T09:22:05Z</time></trkpt><trkpt lat="42.52182650959392" lon="13.79646368099678"><ele>360.75</ele><time>2026-03-29T09:22:06Z</time></trkpt><trkpt lat="42.52180125720973" lon="13.796321900475649"><ele>362.5</ele><time>2026-03-29T09:22:07Z</time></trkpt><trkpt lat="42.521783911704254" lon="13.796168146066327"><ele>364.25</ele><time>2026-03-29T09:22:08Z</time></trkpt><trkpt lat="42.521771803951445" lon="13.79600360171996"><ele>366.0</ele><time>2026-03-29T09:22:09Z</time></trkpt><trkpt lat="42.52176481914607" lon="13.795846920162099"><ele>368.6</ele><time>2026-03-29T09:22:10Z</time></trkpt><trkpt lat="42.52173660834272" lon="13.795712819059835"><ele>371.20000000000005</ele><time>2026-03-29T09:22:11Z</time></trkpt><trkpt lat="42.52170090021038" lon="13.795590244305101"><ele>373.79999999999995</ele><time>2026-03-29T09:22:12Z</time></trkpt><trkpt lat="42.52163999856146" lon="13.79547759762491"><ele>376.4</ele><time>2026-03-29T09:22:13Z</time></trkpt><trkpt lat="42.521554632624685" lon="13.795388619288644"><ele>379.0</ele><time>2026-03-29T09:22:14Z</time></trkpt><trkpt lat="42.52145626615406" lon="13.795333540591884"><ele>379.0</ele><time>2026-03-29T09:22:15Z</time></trkpt><trkpt lat="42.52135558338245" lon="13.795274499202312"><ele>379.0</ele><time>2026-03-29T09:22:16Z</time></trkpt><trkpt lat="42.52125054181029" lon="13.795226638375834"><ele>379.0</ele><time>2026-03-29T09:22:17Z</time></trkpt><trkpt lat="42.52115866154125" lon="13.795136556888071"><ele>379.0</ele><time>2026-03-29T09:22:18Z</time></trkpt><trkpt lat="42.52108511326284" lon="13.795045121974661"><ele>379.0</ele><time>2026-03-29T09:22:19Z</time></trkpt><trkpt lat="42.52102338877082" lon="13.794946986480396"><ele>380.16666666666663</ele><time>2026-03-29T09:22:20Z</time></trkpt><trkpt lat="42.52098365366056" lon="13.794835467108623"><ele>381.3333333333333</ele><time>2026-03-29T09:22:21Z</time></trkpt><trkpt lat="42.52096999928003" lon="13.794706955081418"><ele>382.5</ele><time>2026-03-29T09:22:22Z</time></trkpt><trkpt lat="42.520974965518015" lon="13.794581670426213"><ele>383.66666666666663</ele><time>2026-03-29T09:22:23Z</time></trkpt><trkpt lat="42.52097618396609" lon="13.794468082942572"><ele>384.8333333333333</ele><time>2026-03-29T09:22:24Z</time></trkpt><trkpt lat="42.520972037199506" lon="13.794366934232292"><ele>386.0</ele><time>2026-03-29T09:22:25Z</time></trkpt><trkpt lat="42.52097164926589" lon="13.794272643947883"><ele>386.6</ele><time>2026-03-29T09:22:26Z</time></trkpt><trkpt lat="42.52093683723259" lon="13.794125238399618"><ele>387.20000000000005</ele><time>2026-03-29T09:22:28Z</time></trkpt><trkpt lat="42.520835022174616" lon="13.7940485736849"><ele>387.79999999999995</ele><time>2026-03-29T09:22:30Z</time></trkpt><trkpt lat="42.520760633619474" lon="13.794027923682789"><ele>388.4</ele><time>2026-03-29T09:22:31Z</time></trkpt><trkpt lat="42.5206768378287" lon="13.794007510588369"><ele>389.0</ele><time>2026-03-29T09:22:32Z</time></trkpt><trkpt lat="42.52060164022332" lon="13.794002783083393"><ele>389.0</ele><time>2026-03-29T09:22:33Z</time></trkpt><trkpt lat="42.52053735655274" lon="13.794049007377012"><ele>389.0</ele><time>2026-03-29T09:22:34Z</time></trkpt><trkpt lat="42.5204982627634" lon="13.794150951915865"><ele>389.0</ele><time>2026-03-29T09:22:35Z</time></trkpt><trkpt lat="42.520484518319" lon="13.794295052732023"><ele>389.0</ele><time>2026-03-29T09:22:36Z</time></trkpt><trkpt lat="42.52049925268835" lon="13.794462392249738"><ele>389.0</ele><time>2026-03-29T09:22:37Z</time></trkpt><trkpt lat="42.520512152297464" lon="13.79466402813132"><ele>388.0</ele><time>2026-03-29T09:22:38Z</time></trkpt><trkpt lat="42.52049972166994" lon="13.794865071706804"><ele>387.0</ele><time>2026-03-29T09:22:39Z</time></trkpt><trkpt lat="42.520474016425474" lon="13.795070490414265"><ele>386.0</ele><time>2026-03-29T09:22:40Z</time></trkpt><trkpt lat="42.520480760700565" lon="13.795296424172294"><ele>383.5</ele><time>2026-03-29T09:22:40.999Z</time></trkpt><trkpt lat="42.52046245262271" lon="13.795487328530005"><ele>381.0</ele><time>2026-03-29T09:22:41.999Z</time></trkpt><trkpt lat="42.52042978394513" lon="13.795644198643508"><ele>378.5</ele><time>2026-03-29T09:22:42.999Z</time></trkpt><trkpt lat="42.520357963486305" lon="13.795759854599812"><ele>376.0</ele><time>2026-03-29T09:22:43.999Z</time></trkpt><trkpt lat="42.52025721463018" lon="13.795849420007016"><ele>378.75</ele><time>2026-03-29T09:22:44.999Z</time></trkpt><trkpt lat="42.520136767811415" lon="13.79591360026466"><ele>381.5</ele><time>2026-03-29T09:22:45.999Z</time></trkpt><trkpt lat="42.52000763560912" lon="13.795989201656344"><ele>384.25</ele><time>2026-03-29T09:22:46.999Z</time></trkpt><trkpt lat="42.51988502527432" lon="13.796020338942823"><ele>387.0</ele><time>2026-03-29T09:22:47.999Z</time></trkpt><trkpt lat="42.51977186770623" lon="13.796084104487953"><ele>387.0</ele><time>2026-03-29T09:22:48.999Z</time></trkpt><trkpt lat="42.51966407198444" lon="13.79619830602079"><ele>387.0</ele><time>2026-03-29T09:22:49.999Z</time></trkpt><trkpt lat="42.51957069524968" lon="13.796364117558504"><ele>387.0</ele><time>2026-03-29T09:22:50.999Z</time></trkpt><trkpt lat="42.5195086682514" lon="13.796550309782166"><ele>387.0</ele><time>2026-03-29T09:22:51.999Z</time></trkpt><trkpt lat="42.519461233155866" lon="13.796712533162232"><ele>385.8</ele><time>2026-03-29T09:22:52.999Z</time></trkpt><trkpt lat="42.51940761561429" lon="13.79684793877336"><ele>384.6</ele><time>2026-03-29T09:22:53.999Z</time></trkpt><trkpt lat="42.51935213381126" lon="13.79695584967089"><ele>383.40000000000003</ele><time>2026-03-29T09:22:54.999Z</time></trkpt><trkpt lat="42.51928364286761" lon="13.797033395449677"><ele>382.20000000000005</ele><time>2026-03-29T09:22:55.999Z</time></trkpt><trkpt lat="42.519198933917174" lon="13.797070906880842"><ele>381.0</ele><time>2026-03-29T09:22:56.999Z</time></trkpt><trkpt lat="42.519108675320645" lon="13.797049457820032"><ele>381.0</ele><time>2026-03-29T09:22:57.999Z</time></trkpt><trkpt lat="42.51903821978939" lon="13.796968980777551"><ele>381.0</ele><time>2026-03-29T09:22:58.999Z</time></trkpt><trkpt lat="42.518979883517545" lon="13.79684736505669"><ele>381.0</ele><time>2026-03-29T09:22:59.999Z</time></trkpt><trkpt lat="42.51893649067345" lon="13.7967047655607"><ele>381.0</ele><time>2026-03-29T09:23:00.999Z</time></trkpt><trkpt lat="42.51886319900576" lon="13.79657794742897"><ele>381.0</ele><time>2026-03-29T09:23:01.999Z</time></trkpt><trkpt lat="42.51874606396037" lon="13.796473165495938"><ele>384.25</ele><time>2026-03-29T09:23:02.999Z</time></trkpt><trkpt lat="42.518632067817066" lon="13.79639926364463"><ele>387.5</ele><time>2026-03-29T09:23:03.999Z</time></trkpt><trkpt lat="42.51851435166576" lon="13.796346923002245"><ele>390.75</ele><time>2026-03-29T09:23:04.999Z</time></trkpt><trkpt lat="42.518397475422276" lon="13.796283424228326"><ele>394.0</ele><time>2026-03-29T09:23:05.999Z</time></trkpt><trkpt lat="42.518283968716126" lon="13.796189114631956"><ele>394.0</ele><time>2026-03-29T09:23:06.999Z</time></trkpt><trkpt lat="42.518182628347134" lon="13.796078481017105"><ele>394.0</ele><time>2026-03-29T09:23:07.999Z</time></trkpt><trkpt lat="42.51810198781786" lon="13.795973471626116"><ele>394.0</ele><time>2026-03-29T09:23:08.999Z</time></trkpt><trkpt lat="42.518048914693985" lon="13.795841185181384"><ele>394.0</ele><time>2026-03-29T09:23:09.999Z</time></trkpt><trkpt lat="42.51803449361191" lon="13.79571344954387"><ele>394.0</ele><time>2026-03-29T09:23:10.999Z</time></trkpt><trkpt lat="42.517993748415556" lon="13.795599792192622"><ele>396.79999999999995</ele><time>2026-03-29T09:23:11.999Z</time></trkpt><trkpt lat="42.517910319709635" lon="13.795525976559835"><ele>399.59999999999997</ele><time>2026-03-29T09:23:12.999Z</time></trkpt><trkpt lat="42.51780415349955" lon="13.795487788212196"><ele>402.4</ele><time>2026-03-29T09:23:13.999Z</time></trkpt><trkpt lat="42.517689223299506" lon="13.795451710951836"><ele>405.2</ele><time>2026-03-29T09:23:14.999Z</time></trkpt><trkpt lat="42.51757546152675" lon="13.795432216743023"><ele>408.0</ele><time>2026-03-29T09:23:15.999Z</time></trkpt><trkpt lat="42.517441151636305" lon="13.795378463835181"><ele>408.0</ele><time>2026-03-29T09:23:16.999Z</time></trkpt><trkpt lat="42.51733199816508" lon="13.795338136954264"><ele>408.0</ele><time>2026-03-29T09:23:17.999Z</time></trkpt><trkpt lat="42.51723491705705" lon="13.795243569268841"><ele>408.0</ele><time>2026-03-29T09:23:18.999Z</time></trkpt><trkpt lat="42.51715910182922" lon="13.795111234886763"><ele>408.0</ele><time>2026-03-29T09:23:19.999Z</time></trkpt><trkpt lat="42.51708657192188" lon="13.794976707513582"><ele>411.0</ele><time>2026-03-29T09:23:20.999Z</time></trkpt><trkpt lat="42.51701461784812" lon="13.794854533855371"><ele>414.0</ele><time>2026-03-29T09:23:21.999Z</time></trkpt><trkpt lat="42.51695574341216" lon="13.794748001370944"><ele>417.0</ele><time>2026-03-29T09:23:22.999Z</time></trkpt><trkpt lat="42.51687857112068" lon="13.794667443233424"><ele>420.0</ele><time>2026-03-29T09:23:23.999Z</time></trkpt><trkpt lat="42.51677672421402" lon="13.794606424094967"><ele>423.0</ele><time>2026-03-29T09:23:24.999Z</time></trkpt><trkpt lat="42.51667360226864" lon="13.79457746273349"><ele>423.0</ele><time>2026-03-29T09:23:25.999Z</time></trkpt><trkpt lat="42.51658065832063" lon="13.794592754411049"><ele>423.0</ele><time>2026-03-29T09:23:26.999Z</time></trkpt><trkpt lat="42.5164949071248" lon="13.794668509634672"><ele>423.0</ele><time>2026-03-29T09:23:27.999Z</time></trkpt><trkpt lat="42.51642216177312" lon="13.794795285037136"><ele>423.0</ele><time>2026-03-29T09:23:28.999Z</time></trkpt><trkpt lat="42.51638927958161" lon="13.794943447349805"><ele>423.0</ele><time>2026-03-29T09:23:29.999Z</time></trkpt><trkpt lat="42.51638037658833" lon="13.795125654376609"><ele>421.75</ele><time>2026-03-29T09:23:30.999Z</time></trkpt><trkpt lat="42.516347779096236" lon="13.795308028989545"><ele>420.5</ele><time>2026-03-29T09:23:31.999Z</time></trkpt><trkpt lat="42.51632328799823" lon="13.795500100939885"><ele>419.25</ele><time>2026-03-29T09:23:32.999Z</time></trkpt><trkpt lat="42.51629290656115" lon="13.79569947935391"><ele>418.0</ele><time>2026-03-29T09:23:33.999Z</time></trkpt><trkpt lat="42.51625528588165" lon="13.795902795730223"><ele>420.5</ele><time>2026-03-29T09:23:34.999Z</time></trkpt><trkpt lat="42.51622591116141" lon="13.796077977819037"><ele>423.0</ele><time>2026-03-29T09:23:35.999Z</time></trkpt><trkpt lat="42.516194274731525" lon="13.79623658414605"><ele>425.5</ele><time>2026-03-29T09:23:36.998Z</time></trkpt><trkpt lat="42.51616621481749" lon="13.796392720708232"><ele>428.0</ele><time>2026-03-29T09:23:37.998Z</time></trkpt><trkpt lat="42.51612039177318" lon="13.796515859473365"><ele>427.99999999999994</ele><time>2026-03-29T09:23:38.998Z</time></trkpt><trkpt lat="42.51607332471445" lon="13.796614818818822"><ele>428.0</ele><time>2026-03-29T09:23:39.998Z</time></trkpt><trkpt lat="42.51601238537255" lon="13.796669614279407"><ele>428.0</ele><time>2026-03-29T09:23:40.998Z</time></trkpt><trkpt lat="42.515941130968706" lon="13.796686301185815"><ele>428.0</ele><time>2026-03-29T09:23:41.998Z</time></trkpt><trkpt lat="42.515856019053444" lon="13.796630521506506"><ele>427.99999999999994</ele><time>2026-03-29T09:23:42.998Z</time></trkpt><trkpt lat="42.51577638394622" lon="13.79651930969816"><ele>428.0</ele><time>2026-03-29T09:23:43.998Z</time></trkpt><trkpt lat="42.51570259400702" lon="13.796376979631136"><ele>428.0</ele><time>2026-03-29T09:23:44.998Z</time></trkpt><trkpt lat="42.51563224014135" lon="13.796232119839358"><ele>428.0</ele><time>2026-03-29T09:23:45.998Z</time></trkpt><trkpt lat="42.5155594657968" lon="13.79607062670577"><ele>428.0</ele><time>2026-03-29T09:23:46.998Z</time></trkpt><trkpt lat="42.51553926916688" lon="13.795885159651402"><ele>428.0</ele><time>2026-03-29T09:23:47.998Z</time></trkpt><trkpt lat="42.52060164022332" lon="13.794002783083393"><ele>420.2</ele><time>2026-03-29T09:22:33Z</time></trkpt><trkpt lat="42.52053735655274" lon="13.794049007377012"><ele>412.4</ele><time>2026-03-29T09:22:34Z</time></trkpt><trkpt lat="42.5204982627634" lon="13.794150951915865"><ele>404.59999999999997</ele><time>2026-03-29T09:22:35Z</time></trkpt><trkpt lat="42.520484518319" lon="13.794295052732023"><ele>396.79999999999995</ele><time>2026-03-29T09:22:36Z</time></trkpt><trkpt lat="42.52049925268835" lon="13.794462392249738"><ele>389.0</ele><time>2026-03-29T09:22:37Z</time></trkpt><trkpt lat="42.520512152297464" lon="13.79466402813132"><ele>388.0</ele><time>2026-03-29T09:22:38Z</time></trkpt><trkpt lat="42.52049972166994" lon="13.794865071706804"><ele>387.0</ele><time>2026-03-29T09:22:39Z</time></trkpt><trkpt lat="42.520474016425474" lon="13.795070490414265"><ele>386.0</ele><time>2026-03-29T09:22:40Z</time></trkpt><trkpt lat="42.520480760700565" lon="13.795296424172294"><ele>383.5</ele><time>2026-03-29T09:22:40.999Z</time></trkpt><trkpt lat="42.52046245262271" lon="13.795487328530005"><ele>381.0</ele><time>2026-03-29T09:22:41.999Z</time></trkpt><trkpt lat="42.52042978394513" lon="13.795644198643508"><ele>378.5</ele><time>2026-03-29T09:22:42.999Z</time></trkpt><trkpt lat="42.520357963486305" lon="13.795759854599812"><ele>376.0</ele><time>2026-03-29T09:22:43.999Z</time></trkpt><trkpt lat="42.52025721463018" lon="13.795849420007016"><ele>378.75</ele><time>2026-03-29T09:22:44.999Z</time></trkpt><trkpt lat="42.520136767811415" lon="13.79591360026466"><ele>381.5</ele><time>2026-03-29T09:22:45.999Z</time></trkpt><trkpt lat="42.52000763560912" lon="13.795989201656344"><ele>384.25</ele><time>2026-03-29T09:22:46.999Z</time></trkpt><trkpt lat="42.51988502527432" lon="13.796020338942823"><ele>387.0</ele><time>2026-03-29T09:22:47.999Z</time></trkpt><trkpt lat="42.51977186770623" lon="13.796084104487953"><ele>387.0</ele><time>2026-03-29T09:22:48.999Z</time></trkpt><trkpt lat="42.51966407198444" lon="13.79619830602079"><ele>387.0</ele><time>2026-03-29T09:22:49.999Z</time></trkpt><trkpt lat="42.51957069524968" lon="13.796364117558504"><ele>387.0</ele><time>2026-03-29T09:22:50.999Z</time></trkpt><trkpt lat="42.5195086682514" lon="13.796550309782166"><ele>387.0</ele><time>2026-03-29T09:22:51.999Z</time></trkpt><trkpt lat="42.519461233155866" lon="13.796712533162232"><ele>385.8</ele><time>2026-03-29T09:22:52.999Z</time></trkpt><trkpt lat="42.51940761561429" lon="13.79684793877336"><ele>384.6</ele><time>2026-03-29T09:22:53.999Z</time></trkpt><trkpt lat="42.51935213381126" lon="13.79695584967089"><ele>383.40000000000003</ele><time>2026-03-29T09:22:54.999Z</time></trkpt><trkpt lat="42.51928364286761" lon="13.797033395449677"><ele>382.20000000000005</ele><time>2026-03-29T09:22:55.999Z</time></trkpt><trkpt lat="42.519198933917174" lon="13.797070906880842"><ele>381.0</ele><time>2026-03-29T09:22:56.999Z</time></trkpt><trkpt lat="42.519108675320645" lon="13.797049457820032"><ele>381.0</ele><time>2026-03-29T09:22:57.999Z</time></trkpt><trkpt lat="42.51903821978939" lon="13.796968980777551"><ele>381.0</ele><time>2026-03-29T09:22:58.999Z</time></trkpt><trkpt lat="42.518979883517545" lon="13.79684736505669"><ele>381.0</ele><time>2026-03-29T09:22:59.999Z</time></trkpt><trkpt lat="42.51893649067345" lon="13.7967047655607"><ele>381.0</ele><time>2026-03-29T09:23:00.999Z</time></trkpt><trkpt lat="42.51886319900576" lon="13.79657794742897"><ele>381.0</ele><time>2026-03-29T09:23:01.999Z</time></trkpt><trkpt lat="42.51874606396037" lon="13.796473165495938"><ele>384.25</ele><time>2026-03-29T09:23:02.999Z</time></trkpt><trkpt lat="42.518632067817066" lon="13.79639926364463"><ele>387.5</ele><time>2026-03-29T09:23:03.999Z</time></trkpt><trkpt lat="42.51851435166576" lon="13.796346923002245"><ele>390.75</ele><time>2026-03-29T09:23:04.999Z</time></trkpt><trkpt lat="42.518397475422276" lon="13.796283424228326"><ele>394.0</ele><time>2026-03-29T09:23:05.999Z</time></trkpt><trkpt lat="42.518283968716126" lon="13.796189114631956"><ele>394.0</ele><time>2026-03-29T09:23:06.999Z</time></trkpt><trkpt lat="42.518182628347134" lon="13.796078481017105"><ele>394.0</ele><time>2026-03-29T09:23:07.999Z</time></trkpt><trkpt lat="42.51810198781786" lon="13.795973471626116"><ele>394.0</ele><time>2026-03-29T09:23:08.999Z</time></trkpt><trkpt lat="42.518048914693985" lon="13.795841185181384"><ele>394.0</ele><time>2026-03-29T09:23:09.999Z</time></trkpt><trkpt lat="42.51803449361191" lon="13.79571344954387"><ele>394.0</ele><time>2026-03-29T09:23:10.999Z</time></trkpt><trkpt lat="42.517993748415556" lon="13.795599792192622"><ele>396.79999999999995</ele><time>2026-03-29T09:23:11.999Z</time></trkpt><trkpt lat="42.517910319709635" lon="13.795525976559835"><ele>399.59999999999997</ele><time>2026-03-29T09:23:12.999Z</time></trkpt><trkpt lat="42.51780415349955" lon="13.795487788212196"><ele>402.4</ele><time>2026-03-29T09:23:13.999Z</time></trkpt><trkpt lat="42.517689223299506" lon="13.795451710951836"><ele>405.2</ele><time>2026-03-29T09:23:14.999Z</time></trkpt><trkpt lat="42.51757546152675" lon="13.795432216743023"><ele>408.0</ele><time>2026-03-29T09:23:15.999Z</time></trkpt><trkpt lat="42.517441151636305" lon="13.795378463835181"><ele>408.0</ele><time>2026-03-29T09:23:16.999Z</time></trkpt><trkpt lat="42.51733199816508" lon="13.795338136954264"><ele>408.0</ele><time>2026-03-29T09:23:17.999Z</time></trkpt><trkpt lat="42.51723491705705" lon="13.795243569268841"><ele>408.0</ele><time>2026-03-29T09:23:18.999Z</time></trkpt><trkpt lat="42.51715910182922" lon="13.795111234886763"><ele>408.0</ele><time>2026-03-29T09:23:19.999Z</time></trkpt><trkpt lat="42.51708657192188" lon="13.794976707513582"><ele>411.0</ele><time>2026-03-29T09:23:20.999Z</time></trkpt><trkpt lat="42.51701461784812" lon="13.794854533855371"><ele>414.0</ele><time>2026-03-29T09:23:21.999Z</time></trkpt><trkpt lat="42.51695574341216" lon="13.794748001370944"><ele>417.0</ele><time>2026-03-29T09:23:22.999Z</time></trkpt><trkpt lat="42.51687857112068" lon="13.794667443233424"><ele>420.0</ele><time>2026-03-29T09:23:23.999Z</time></trkpt><trkpt lat="42.51677672421402" lon="13.794606424094967"><ele>423.0</ele><time>2026-03-29T09:23:24.999Z</time></trkpt><trkpt lat="42.51667360226864" lon="13.79457746273349"><ele>423.0</ele><time>2026-03-29T09:23:25.999Z</time></trkpt><trkpt lat="42.51658065832063" lon="13.794592754411049"><ele>423.0</ele><time>2026-03-29T09:23:26.999Z</time></trkpt><trkpt lat="42.5164949071248" lon="13.794668509634672"><ele>423.0</ele><time>2026-03-29T09:23:27.999Z</time></trkpt><trkpt lat="42.51642216177312" lon="13.794795285037136"><ele>423.0</ele><time>2026-03-29T09:23:28.999Z</time></trkpt><trkpt lat="42.51638927958161" lon="13.794943447349805"><ele>423.0</ele><time>2026-03-29T09:23:29.999Z</time></trkpt><trkpt lat="42.51638037658833" lon="13.795125654376609"><ele>421.75</ele><time>2026-03-29T09:23:30.999Z</time></trkpt><trkpt lat="42.516347779096236" lon="13.795308028989545"><ele>420.5</ele><time>2026-03-29T09:23:31.999Z</time></trkpt><trkpt lat="42.51632328799823" lon="13.795500100939885"><ele>419.25</ele><time>2026-03-29T09:23:32.999Z</time></trkpt><trkpt lat="42.51629290656115" lon="13.79569947935391"><ele>418.0</ele><time>2026-03-29T09:23:33.999Z</time></trkpt><trkpt lat="42.51625528588165" lon="13.795902795730223"><ele>420.5</ele><time>2026-03-29T09:23:34.999Z</time></trkpt><trkpt lat="42.51622591116141" lon="13.796077977819037"><ele>423.0</ele><time>2026-03-29T09:23:35.999Z</time></trkpt><trkpt lat="42.516194274731525" lon="13.79623658414605"><ele>425.5</ele><time>2026-03-29T09:23:36.998Z</time></trkpt><trkpt lat="42.51616621481749" lon="13.796392720708232"><ele>428.0</ele><time>2026-03-29T09:23:37.998Z</time></trkpt><trkpt lat="42.51612039177318" lon="13.796515859473365"><ele>427.99999999999994</ele><time>2026-03-29T09:23:38.998Z</time></trkpt><trkpt lat="42.51607332471445" lon="13.796614818818822"><ele>428.0</ele><time>2026-03-29T09:23:39.998Z</time></trkpt><trkpt lat="42.51601238537255" lon="13.796669614279407"><ele>428.0</ele><time>2026-03-29T09:23:40.998Z</time></trkpt><trkpt lat="42.515941130968706" lon="13.796686301185815"><ele>428.0</ele><time>2026-03-29T09:23:41.998Z</time></trkpt><trkpt lat="42.515856019053444" lon="13.796630521506506"><ele>427.99999999999994</ele><time>2026-03-29T09:23:42.998Z</time></trkpt><trkpt lat="42.51577638394622" lon="13.79651930969816"><ele>428.0</ele><time>2026-03-29T09:23:43.998Z</time></trkpt><trkpt lat="42.51570259400702" lon="13.796376979631136"><ele>428.0</ele><time>2026-03-29T09:23:44.998Z</time></trkpt><trkpt lat="42.51563224014135" lon="13.796232119839358"><ele>428.0</ele><time>2026-03-29T09:23:45.998Z</time></trkpt><trkpt lat="42.5155594657968" lon="13.79607062670577"><ele>428.0</ele><time>2026-03-29T09:23:46.998Z</time></trkpt><trkpt lat="42.51553926916688" lon="13.795885159651402"><ele>428.0</ele><time>2026-03-29T09:23:47.998Z</time></trkpt><trkpt lat="42.51550920521821" lon="13.795681049438784"><ele>429.25</ele><time>2026-03-29T09:23:48.998Z</time></trkpt><trkpt lat="42.515494746315106" lon="13.79547391262558"><ele>430.5</ele><time>2026-03-29T09:23:49.998Z</time></trkpt><trkpt lat="42.51546949495503" lon="13.795298613475024"><ele>431.75</ele><time>2026-03-29T09:23:50.998Z</time></trkpt><trkpt lat="42.51542227174826" lon="13.795147467364428"><ele>433.0</ele><time>2026-03-29T09:23:51.998Z</time></trkpt><trkpt lat="42.51534649265058" lon="13.795010987605064"><ele>433.0</ele><time>2026-03-29T09:23:52.998Z</time></trkpt><trkpt lat="42.51523074757661" lon="13.794903662530562"><ele>433.0</ele><time>2026-03-29T09:23:53.998Z</time></trkpt><trkpt lat="42.51509246190351" lon="13.794820015300479"><ele>433.0</ele><time>2026-03-29T09:23:54.998Z</time></trkpt><trkpt lat="42.51496615329578" lon="13.794754598320937"><ele>433.0</ele><time>2026-03-29T09:23:55.998Z</time></trkpt><trkpt lat="42.51485829746997" lon="13.79466687557853"><ele>433.0</ele><time>2026-03-29T09:23:56.998Z</time></trkpt><trkpt lat="42.51476433671066" lon="13.794528164423127"><ele>433.0</ele><time>2026-03-29T09:23:57.998Z</time></trkpt><trkpt lat="42.51467563238189" lon="13.79436108516846"><ele>433.0</ele><time>2026-03-29T09:23:58.998Z</time></trkpt><trkpt lat="42.51458028972624" lon="13.794179941153267"><ele>434.6666666666667</ele><time>2026-03-29T09:23:59.998Z</time></trkpt><trkpt lat="42.51446621208821" lon="13.794005889740417"><ele>436.33333333333337</ele><time>2026-03-29T09:24:00.998Z</time></trkpt><trkpt lat="42.51434085998758" lon="13.79386381435479"><ele>438.0</ele><time>2026-03-29T09:24:01.998Z</time></trkpt><trkpt lat="42.51422755037991" lon="13.79374288659877"><ele>438.0</ele><time>2026-03-29T09:24:02.998Z</time></trkpt><trkpt lat="42.51412362575176" lon="13.793634865163567"><ele>438.0</ele><time>2026-03-29T09:24:03.998Z</time></trkpt><trkpt lat="42.514015967567815" lon="13.79356206850762"><ele>438.0</ele><time>2026-03-29T09:24:04.998Z</time></trkpt><trkpt lat="42.5139111907658" lon="13.79350902498954"><ele>438.0</ele><time>2026-03-29T09:24:05.998Z</time></trkpt><trkpt lat="42.51382930023681" lon="13.79345449281147"><ele>442.0</ele><time>2026-03-29T09:24:06.998Z</time></trkpt><trkpt lat="42.51378019356198" lon="13.793294538413939"><ele>445.99999999999994</ele><time>2026-03-29T09:24:09Z</time></trkpt><trkpt lat="42.51381459850557" lon="13.79320456251242"><ele>449.99999999999994</ele><time>2026-03-29T09:24:10Z</time></trkpt><trkpt lat="42.513885218695876" lon="13.793152324876365"><ele>454.0</ele><time>2026-03-29T09:24:11Z</time></trkpt><trkpt lat="42.513970256230536" lon="13.793161157286432"><ele>458.0</ele><time>2026-03-29T09:24:12Z</time></trkpt><trkpt lat="42.51404349052507" lon="13.793256789035635"><ele>458.0</ele><time>2026-03-29T09:24:13Z</time></trkpt><trkpt lat="42.5141375769475" lon="13.793328737323467"><ele>458.0</ele><time>2026-03-29T09:24:14Z</time></trkpt><trkpt lat="42.514231028049" lon="13.793436195431822"><ele>458.0</ele><time>2026-03-29T09:24:15Z</time></trkpt><trkpt lat="42.51434055342303" lon="13.793547063525063"><ele>458.0</ele><time>2026-03-29T09:24:16Z</time></trkpt><trkpt lat="42.51444830408841" lon="13.793662915347268"><ele>456.75</ele><time>2026-03-29T09:24:17Z</time></trkpt><trkpt lat="42.514563032306" lon="13.793748523638257"><ele>455.5</ele><time>2026-03-29T09:24:18Z</time></trkpt><trkpt lat="42.514701914671" lon="13.793821913558718"><ele>454.25</ele><time>2026-03-29T09:24:19Z</time></trkpt><trkpt lat="42.51485444093418" lon="13.79390264874422"><ele>453.0</ele><time>2026-03-29T09:24:20Z</time></trkpt><trkpt lat="42.51499654007773" lon="13.79402809480697"><ele>453.0</ele><time>2026-03-29T09:24:21Z</time></trkpt><trkpt lat="42.51512616136543" lon="13.79418206665929"><ele>453.0</ele><time>2026-03-29T09:24:22Z</time></trkpt><trkpt lat="42.515254356791615" lon="13.794315682260335"><ele>453.0</ele><time>2026-03-29T09:24:23Z</time></trkpt><trkpt lat="42.51534549635056" lon="13.794424243034605"><ele>450.79999999999995</ele><time>2026-03-29T09:24:24Z</time></trkpt><trkpt lat="42.515445405023996" lon="13.794502554561317"><ele>448.59999999999997</ele><time>2026-03-29T09:24:25Z</time></trkpt><trkpt lat="42.51555403023824" lon="13.79454432573964"><ele>446.40000000000003</ele><time>2026-03-29T09:24:26Z</time></trkpt><trkpt lat="42.51566305573276" lon="13.79453788833503"><ele>444.20000000000005</ele><time>2026-03-29T09:24:27Z</time></trkpt><trkpt lat="42.515755582640345" lon="13.794469106236111"><ele>442.0</ele><time>2026-03-29T09:24:28Z</time></trkpt><trkpt lat="42.5158050290383" lon="13.794349446625034"><ele>446.25</ele><time>2026-03-29T09:24:29Z</time></trkpt><trkpt lat="42.51581923124382" lon="13.794193161624413"><ele>450.5</ele><time>2026-03-29T09:24:30Z</time></trkpt><trkpt lat="42.51581188236069" lon="13.794013854759669"><ele>454.75</ele><time>2026-03-29T09:24:31Z</time></trkpt><trkpt lat="42.51582843249027" lon="13.79382401379386"><ele>459.0</ele><time>2026-03-29T09:24:32Z</time></trkpt><trkpt lat="42.515845905870094" lon="13.7936313883371"><ele>462.0</ele><time>2026-03-29T09:24:33Z</time></trkpt><trkpt lat="42.515851255660486" lon="13.793430130683365"><ele>465.0</ele><time>2026-03-29T09:24:34Z</time></trkpt><trkpt lat="42.51588892955026" lon="13.793243483328352"><ele>468.0</ele><time>2026-03-29T09:24:35Z</time></trkpt><trkpt lat="42.51594422737998" lon="13.79308146686137"><ele>471.0</ele><time>2026-03-29T09:24:36Z</time></trkpt><trkpt lat="42.51600925493385" lon="13.79294066587788"><ele>471.0</ele><time>2026-03-29T09:24:37Z</time></trkpt><trkpt lat="42.516073248618866" lon="13.79281298455638"><ele>471.0</ele><time>2026-03-29T09:24:38Z</time></trkpt><trkpt lat="42.51612178243772" lon="13.792693379612057"><ele>471.0</ele><time>2026-03-29T09:24:39Z</time></trkpt><trkpt lat="42.51613137791295" lon="13.792584848974816"><ele>471.0</ele><time>2026-03-29T09:24:40Z</time></trkpt><trkpt lat="42.51608488130342" lon="13.79251579968379"><ele>471.0</ele><time>2026-03-29T09:24:41Z</time></trkpt><trkpt lat="42.51600602481598" lon="13.792498505114459"><ele>471.0</ele><time>2026-03-29T09:24:42Z</time></trkpt><trkpt lat="42.51592255494777" lon="13.79253399848606"><ele>471.0</ele><time>2026-03-29T09:24:43Z</time></trkpt><trkpt lat="42.51586416335974" lon="13.792640368477684"><ele>471.0</ele><time>2026-03-29T09:24:44Z</time></trkpt><trkpt lat="42.515827432729296" lon="13.792784688606883"><ele>471.0</ele><time>2026-03-29T09:24:45Z</time></trkpt><trkpt lat="42.51579296679928" lon="13.792951686312568"><ele>471.0</ele><time>2026-03-29T09:24:46Z</time></trkpt><trkpt lat="42.51574346406798" lon="13.793115970840033"><ele>471.0</ele><time>2026-03-29T09:24:47Z</time></trkpt><trkpt lat="42.51570373809006" lon="13.79328362960364"><ele>471.0</ele><time>2026-03-29T09:24:48Z</time></trkpt><trkpt lat="42.515647320129226" lon="13.793412015454718"><ele>471.0</ele><time>2026-03-29T09:24:49Z</time></trkpt><trkpt lat="42.5155840512423" lon="13.79352022717814"><ele>471.0</ele><time>2026-03-29T09:24:50Z</time></trkpt><trkpt lat="42.515502675762114" lon="13.793580114000452"><ele>471.0</ele><time>2026-03-29T09:24:51Z</time></trkpt><trkpt lat="42.51540495644474" lon="13.793588705038012"><ele>471.5</ele><time>2026-03-29T09:24:51.999Z</time></trkpt><trkpt lat="42.51532446436402" lon="13.793495483468151"><ele>472.0</ele><time>2026-03-29T09:24:52.999Z</time></trkpt><trkpt lat="42.51523531064893" lon="13.793395371665783"><ele>472.5</ele><time>2026-03-29T09:24:53.999Z</time></trkpt><trkpt lat="42.515152006716335" lon="13.79326163218568"><ele>473.0</ele><time>2026-03-29T09:24:54.999Z</time></trkpt><trkpt lat="42.51505921022282" lon="13.793125218406482"><ele>473.0</ele><time>2026-03-29T09:24:55.999Z</time></trkpt><trkpt lat="42.51496281900826" lon="13.792983526686069"><ele>473.0</ele><time>2026-03-29T09:24:56.999Z</time></trkpt><trkpt lat="42.51487464101296" lon="13.792841239663648"><ele>473.0</ele><time>2026-03-29T09:24:57.999Z</time></trkpt><trkpt lat="42.51477842302295" lon="13.792688373745214"><ele>473.0</ele><time>2026-03-29T09:24:58.999Z</time></trkpt><trkpt lat="42.514680318235385" lon="13.79253239858093"><ele>473.66666666666663</ele><time>2026-03-29T09:24:59.999Z</time></trkpt><trkpt lat="42.51458462987123" lon="13.792370635794029"><ele>474.33333333333337</ele><time>2026-03-29T09:25:00.999Z</time></trkpt><trkpt lat="42.51448547608207" lon="13.792210379227859"><ele>475.0</ele><time>2026-03-29T09:25:01.999Z</time></trkpt><trkpt lat="42.514390538334894" lon="13.792060498831209"><ele>475.0</ele><time>2026-03-29T09:25:02.999Z</time></trkpt><trkpt lat="42.51430584183865" lon="13.791926264299713"><ele>475.0</ele><time>2026-03-29T09:25:03.999Z</time></trkpt><trkpt lat="42.51422760331871" lon="13.791803105538435"><ele>475.0</ele><time>2026-03-29T09:25:04.999Z</time></trkpt><trkpt lat="42.51415299115343" lon="13.79169634624648"><ele>475.0</ele><time>2026-03-29T09:25:05.999Z</time></trkpt><trkpt lat="42.514072780043044" lon="13.791586987488273"><ele>477.75</ele><time>2026-03-29T09:25:06.999Z</time></trkpt><trkpt lat="42.51397966839697" lon="13.791490670159803"><ele>480.5</ele><time>2026-03-29T09:25:07.999Z</time></trkpt><trkpt lat="42.51386507540687" lon="13.791416418996864"><ele>483.25</ele><time>2026-03-29T09:25:08.999Z</time></trkpt><trkpt lat="42.51372920424307" lon="13.79137041347339"><ele>486.0</ele><time>2026-03-29T09:25:09.999Z</time></trkpt><trkpt lat="42.513589059331586" lon="13.79134355218284"><ele>486.0</ele><time>2026-03-29T09:25:10.999Z</time></trkpt><trkpt lat="42.51343077724346" lon="13.791340112478819"><ele>486.0</ele><time>2026-03-29T09:25:11.999Z</time></trkpt><trkpt lat="42.51327841455079" lon="13.791341684483791"><ele>486.0</ele><time>2026-03-29T09:25:12.999Z</time></trkpt><trkpt lat="42.51314165558398" lon="13.79133703546604"><ele>486.0</ele><time>2026-03-29T09:25:13.999Z</time></trkpt><trkpt lat="42.51301627897456" lon="13.791347687750672"><ele>490.66666666666663</ele><time>2026-03-29T09:25:14.999Z</time></trkpt><trkpt lat="42.51288647015296" lon="13.791407195168658"><ele>495.3333333333333</ele><time>2026-03-29T09:25:15.999Z</time></trkpt><trkpt lat="42.51274612628393" lon="13.791516644639206"><ele>500.0</ele><time>2026-03-29T09:25:16.999Z</time></trkpt><trkpt lat="42.51262059273555" lon="13.791650069344671"><ele>500.0</ele><time>2026-03-29T09:25:17.999Z</time></trkpt><trkpt lat="42.51251346023856" lon="13.79177153802933"><ele>500.0</ele><time>2026-03-29T09:25:18.999Z</time></trkpt><trkpt lat="42.51241529476114" lon="13.791916763443643"><ele>500.0</ele><time>2026-03-29T09:25:19.999Z</time></trkpt><trkpt lat="42.51233126643942" lon="13.792104610320663"><ele>500.0</ele><time>2026-03-29T09:25:20.999Z</time></trkpt><trkpt lat="42.51224394093192" lon="13.792307813744577"><ele>498.0</ele><time>2026-03-29T09:25:21.999Z</time></trkpt><trkpt lat="42.51216072861535" lon="13.792495294794657"><ele>496.0</ele><time>2026-03-29T09:25:22.999Z</time></trkpt><trkpt lat="42.51208349373191" lon="13.792660356905918"><ele>494.0</ele><time>2026-03-29T09:25:23.999Z</time></trkpt><trkpt lat="42.51201537754252" lon="13.792816831656344"><ele>492.0</ele><time>2026-03-29T09:25:24.999Z</time></trkpt><trkpt lat="42.51196436849939" lon="13.79297937085574"><ele>492.25</ele><time>2026-03-29T09:25:25.999Z</time></trkpt><trkpt lat="42.51193330651812" lon="13.793154324239554"><ele>492.5</ele><time>2026-03-29T09:25:26.999Z</time></trkpt><trkpt lat="42.51193055339574" lon="13.793343801290382"><ele>492.75</ele><time>2026-03-29T09:25:27.999Z</time></trkpt><trkpt lat="42.51194070909524" lon="13.793520422224535"><ele>493.0</ele><time>2026-03-29T09:25:28.999Z</time></trkpt><trkpt lat="42.51193497293839" lon="13.793661392138652"><ele>493.0</ele><time>2026-03-29T09:25:29.999Z</time></trkpt><trkpt lat="42.51189855430049" lon="13.793761528985868"><ele>492.99999999999994</ele><time>2026-03-29T09:25:30.999Z</time></trkpt><trkpt lat="42.511826697728935" lon="13.793815776220937"><ele>492.99999999999994</ele><time>2026-03-29T09:25:31.999Z</time></trkpt><trkpt lat="42.51173920819333" lon="13.793816965276875"><ele>493.0</ele><time>2026-03-29T09:25:32.999Z</time></trkpt><trkpt lat="42.51164792177065" lon="13.793760369002248"><ele>493.0</ele><time>2026-03-29T09:25:33.999Z</time></trkpt><trkpt lat="42.511568305211" lon="13.79367012774722"><ele>493.0</ele><time>2026-03-29T09:25:34.999Z</time></trkpt><trkpt lat="42.51148679288661" lon="13.79355505367283"><ele>493.0</ele><time>2026-03-29T09:25:35.999Z</time></trkpt><trkpt lat="42.511403789621255" lon="13.793423333802648"><ele>493.0</ele><time>2026-03-29T09:25:36.999Z</time></trkpt><trkpt lat="42.51133632554129" lon="13.793260373751037"><ele>493.0</ele><time>2026-03-29T09:25:37.999Z</time></trkpt><trkpt lat="42.51128713441193" lon="13.793095616171033"><ele>493.5</ele><time>2026-03-29T09:25:38.999Z</time></trkpt><trkpt lat="42.51123468404447" lon="13.792925908880866"><ele>494.0</ele><time>2026-03-29T09:25:39.999Z</time></trkpt><trkpt lat="42.511181527409285" lon="13.792758929249246"><ele>494.5</ele><time>2026-03-29T09:25:40.999Z</time></trkpt><trkpt lat="42.51112668315532" lon="13.792614324494545"><ele>495.0</ele><time>2026-03-29T09:25:41.999Z</time></trkpt><trkpt lat="42.51103869605967" lon="13.792487682110309"><ele>501.33333333333337</ele><time>2026-03-29T09:25:42.999Z</time></trkpt><trkpt lat="42.51091257411607" lon="13.792389331828092"><ele>507.6666666666667</ele><time>2026-03-29T09:25:43.999Z</time></trkpt><trkpt lat="42.51076320674168" lon="13.79230422061313"><ele>514.0</ele><time>2026-03-29T09:25:44.999Z</time></trkpt><trkpt lat="42.51062682325069" lon="13.79221114763188"><ele>514.0</ele><time>2026-03-29T09:25:45.999Z</time></trkpt><trkpt lat="42.51050604862727" lon="13.792126599335456"><ele>514.0</ele><time>2026-03-29T09:25:46.999Z</time></trkpt><trkpt lat="42.51037959651762" lon="13.792072867430035"><ele>514.0</ele><time>2026-03-29T09:25:47.998Z</time></trkpt><trkpt lat="42.51024278420753" lon="13.792049454675286"><ele>514.0</ele><time>2026-03-29T09:25:48.998Z</time></trkpt><trkpt lat="42.51011648982765" lon="13.79203576608868"><ele>513.0</ele><time>2026-03-29T09:25:49.998Z</time></trkpt><trkpt lat="42.50999788961504" lon="13.79204829824975"><ele>512.0</ele><time>2026-03-29T09:25:50.998Z</time></trkpt><trkpt lat="42.50988098454364" lon="13.79211137943291"><ele>511.0</ele><time>2026-03-29T09:25:51.998Z</time></trkpt><trkpt lat="42.509764233336156" lon="13.792208656686475"><ele>510.0</ele><time>2026-03-29T09:25:52.998Z</time></trkpt><trkpt lat="42.5096536423772" lon="13.792316262470514"><ele>512.25</ele><time>2026-03-29T09:25:53.998Z</time></trkpt><trkpt lat="42.50955343860597" lon="13.792386854784782"><ele>514.5</ele><time>2026-03-29T09:25:54.998Z</time></trkpt><trkpt lat="42.509449692191104" lon="13.792380452555598"><ele>516.75</ele><time>2026-03-29T09:25:55.998Z</time></trkpt><trkpt lat="42.50934748748357" lon="13.792361351192502"><ele>519.0</ele><time>2026-03-29T09:25:56.998Z</time></trkpt><trkpt lat="42.50922902612321" lon="13.792277148185391"><ele>519.0</ele><time>2026-03-29T09:25:57.998Z</time></trkpt><trkpt lat="42.50910934652976" lon="13.792175500356311"><ele>519.0</ele><time>2026-03-29T09:25:58.998Z</time></trkpt><trkpt lat="42.508983669400884" lon="13.79207352425232"><ele>519.0</ele><time>2026-03-29T09:25:59.998Z</time></trkpt><trkpt lat="42.50887153547551" lon="13.791989629670903"><ele>519.0</ele><time>2026-03-29T09:26:00.998Z</time></trkpt><trkpt lat="42.50877085177182" lon="13.791913818310572"><ele>518.6</ele><time>2026-03-29T09:26:01.998Z</time></trkpt><trkpt lat="42.508686663231224" lon="13.791850579879796"><ele>518.2</ele><time>2026-03-29T09:26:02.998Z</time></trkpt><trkpt lat="42.508614077414194" lon="13.79178084340631"><ele>517.8000000000001</ele><time>2026-03-29T09:26:03.998Z</time></trkpt><trkpt lat="42.508547183513194" lon="13.791736804002642"><ele>517.4</ele><time>2026-03-29T09:26:04.998Z</time></trkpt><trkpt lat="42.508488638142765" lon="13.791697889695405"><ele>517.0</ele><time>2026-03-29T09:26:05.998Z</time></trkpt><trkpt lat="42.50851156667999" lon="13.791468565314492"><ele>518.2</ele><time>2026-03-29T09:26:06.998Z</time></trkpt><trkpt lat="42.5084835438282" lon="13.791377239325854"><ele>519.4000000000001</ele><time>2026-03-29T09:26:07.998Z</time></trkpt><trkpt lat="42.50843380683474" lon="13.79129054918692"><ele>520.5999999999999</ele><time>2026-03-29T09:26:08.998Z</time></trkpt><trkpt lat="42.508315948350074" lon="13.791263453393329"><ele>521.8</ele><time>2026-03-29T09:26:09.998Z</time></trkpt><trkpt lat="42.50820195600271" lon="13.79123109783902"><ele>523.0</ele><time>2026-03-29T09:26:10.998Z</time></trkpt><trkpt lat="42.508098554118455" lon="13.791205865661786"><ele>523.0</ele><time>2026-03-29T09:26:11.998Z</time></trkpt><trkpt lat="42.50799759168343" lon="13.791156241744948"><ele>523.0</ele><time>2026-03-29T09:26:12.998Z</time></trkpt><trkpt lat="42.50791294572924" lon="13.791075257228625"><ele>523.0</ele><time>2026-03-29T09:26:14Z</time></trkpt><trkpt lat="42.5078385461362" lon="13.790968573674807"><ele>523.0</ele><time>2026-03-29T09:26:15Z</time></trkpt><trkpt lat="42.507778111612886" lon="13.790842769069592"><ele>523.0</ele><time>2026-03-29T09:26:16Z</time></trkpt><trkpt lat="42.50772477582664" lon="13.790701715721182"><ele>522.0</ele><time>2026-03-29T09:26:17Z</time></trkpt><trkpt lat="42.5076617787952" lon="13.7905761008347"><ele>521.0</ele><time>2026-03-29T09:26:18Z</time></trkpt><trkpt lat="42.50758257820837" lon="13.790481464071073"><ele>520.0</ele><time>2026-03-29T09:26:19Z</time></trkpt><trkpt lat="42.50746380040903" lon="13.790412731048663"><ele>519.0</ele><time>2026-03-29T09:26:20Z</time></trkpt><trkpt lat="42.50734133438122" lon="13.790367006758965"><ele>519.0</ele><time>2026-03-29T09:26:21Z</time></trkpt><trkpt lat="42.50723014002019" lon="13.790296715824232"><ele>519.0</ele><time>2026-03-29T09:26:22Z</time></trkpt><trkpt lat="42.50713637371902" lon="13.790198065918837"><ele>519.0</ele><time>2026-03-29T09:26:23Z</time></trkpt><trkpt lat="42.50705489530695" lon="13.790087770815344"><ele>519.0</ele><time>2026-03-29T09:26:24Z</time></trkpt><trkpt lat="42.5069602701439" lon="13.790008415342484"><ele>516.6</ele><time>2026-03-29T09:26:25Z</time></trkpt><trkpt lat="42.506859769422434" lon="13.789982615107927"><ele>514.2</ele><time>2026-03-29T09:26:26Z</time></trkpt><trkpt lat="42.50674377966724" lon="13.789971907894886"><ele>511.80000000000007</ele><time>2026-03-29T09:26:27Z</time></trkpt><trkpt lat="42.50662682939431" lon="13.789963485686586"><ele>509.40000000000003</ele><time>2026-03-29T09:26:28Z</time></trkpt><trkpt lat="42.50652155756465" lon="13.789954251975297"><ele>507.0</ele><time>2026-03-29T09:26:29Z</time></trkpt><trkpt lat="42.50641501008681" lon="13.789932758496718"><ele>507.0</ele><time>2026-03-29T09:26:30Z</time></trkpt><trkpt lat="42.506308094696756" lon="13.789912326569944"><ele>507.00000000000006</ele><time>2026-03-29T09:26:31Z</time></trkpt><trkpt lat="42.506204367678336" lon="13.789890517104599"><ele>507.00000000000006</ele><time>2026-03-29T09:26:32Z</time></trkpt><trkpt lat="42.506101847630276" lon="13.789873952352155"><ele>507.0</ele><time>2026-03-29T09:26:33Z</time></trkpt><trkpt lat="42.50599484913946" lon="13.78985854098071"><ele>507.0</ele><time>2026-03-29T09:26:34Z</time></trkpt><trkpt lat="42.50587865666866" lon="13.789837867702426"><ele>507.0</ele><time>2026-03-29T09:26:35Z</time></trkpt><trkpt lat="42.50576064486615" lon="13.789814510850631"><ele>507.0</ele><time>2026-03-29T09:26:36Z</time></trkpt><trkpt lat="42.505622750103264" lon="13.789765931357616"><ele>507.0</ele><time>2026-03-29T09:26:37Z</time></trkpt><trkpt lat="42.5055073439676" lon="13.789645724826647"><ele>507.0</ele><time>2026-03-29T09:26:38Z</time></trkpt><trkpt lat="42.50543646665315" lon="13.789608809886655"><ele>507.5</ele><time>2026-03-29T09:26:39Z</time></trkpt><trkpt lat="42.505333296001666" lon="13.789513332398265"><ele>508.0</ele><time>2026-03-29T09:26:40Z</time></trkpt><trkpt lat="42.5052265664263" lon="13.789419011892624"><ele>508.5</ele><time>2026-03-29T09:26:41Z</time></trkpt><trkpt lat="42.50511854740374" lon="13.789342914061255"><ele>509.0</ele><time>2026-03-29T09:26:42Z</time></trkpt><trkpt lat="42.50500220671957" lon="13.789296185924494"><ele>506.25</ele><time>2026-03-29T09:26:43Z</time></trkpt><trkpt lat="42.50488744226158" lon="13.789239446173367"><ele>503.5</ele><time>2026-03-29T09:26:44Z</time></trkpt><trkpt lat="42.50477493192222" lon="13.789174445206976"><ele>500.75</ele><time>2026-03-29T09:26:45Z</time></trkpt><trkpt lat="42.50466153454878" lon="13.789113008803218"><ele>498.0</ele><time>2026-03-29T09:26:46Z</time></trkpt><trkpt lat="42.50455509015095" lon="13.789057164836318"><ele>498.0</ele><time>2026-03-29T09:26:47Z</time></trkpt><trkpt lat="42.50445417856837" lon="13.789003933298769"><ele>497.99999999999994</ele><time>2026-03-29T09:26:48Z</time></trkpt><trkpt lat="42.504353550621445" lon="13.788953216982323"><ele>497.99999999999994</ele><time>2026-03-29T09:26:49Z</time></trkpt><trkpt lat="42.504262128904074" lon="13.788892610884941"><ele>498.0</ele><time>2026-03-29T09:26:50Z</time></trkpt><trkpt lat="42.50418447721485" lon="13.78878876822535"><ele>498.0</ele><time>2026-03-29T09:26:51Z</time></trkpt><trkpt lat="42.504108783098346" lon="13.788658188639268"><ele>495.5</ele><time>2026-03-29T09:26:52Z</time></trkpt><trkpt lat="42.50405874993394" lon="13.788495089680145"><ele>493.0</ele><time>2026-03-29T09:26:53Z</time></trkpt><trkpt lat="42.50398368952628" lon="13.788349638795152"><ele>490.5</ele><time>2026-03-29T09:26:54Z</time></trkpt><trkpt lat="42.50392568690187" lon="13.788199392152334"><ele>488.0</ele><time>2026-03-29T09:26:55Z</time></trkpt><trkpt lat="42.50386858929717" lon="13.788058630506992"><ele>488.0</ele><time>2026-03-29T09:26:56Z</time></trkpt><trkpt lat="42.503809995622184" lon="13.787921379197021"><ele>488.0</ele><time>2026-03-29T09:26:57Z</time></trkpt><trkpt lat="42.50375286824058" lon="13.787782606916405"><ele>488.0</ele><time>2026-03-29T09:26:58Z</time></trkpt><trkpt lat="42.5036928215655" lon="13.787640704847163"><ele>488.0</ele><time>2026-03-29T09:26:59Z</time></trkpt><trkpt lat="42.503635533715304" lon="13.787499634886192"><ele>487.5</ele><time>2026-03-29T09:26:59.999Z</time></trkpt><trkpt lat="42.50358060455774" lon="13.787355877836264"><ele>487.0</ele><time>2026-03-29T09:27:00.999Z</time></trkpt><trkpt lat="42.50352185984998" lon="13.787215476577677"><ele>486.5</ele><time>2026-03-29T09:27:01.999Z</time></trkpt><trkpt lat="42.50346448736684" lon="13.787076245556616"><ele>486.0</ele><time>2026-03-29T09:27:02.999Z</time></trkpt><trkpt lat="42.50341060928539" lon="13.786930697791856"><ele>484.5</ele><time>2026-03-29T09:27:03.999Z</time></trkpt><trkpt lat="42.50335621276979" lon="13.786782856033733"><ele>483.0</ele><time>2026-03-29T09:27:04.999Z</time></trkpt><trkpt lat="42.503300259126505" lon="13.786631640637614"><ele>481.5</ele><time>2026-03-29T09:27:05.999Z</time></trkpt><trkpt lat="42.50325312729185" lon="13.78647447068265"><ele>480.0</ele><time>2026-03-29T09:27:06.999Z</time></trkpt><trkpt lat="42.503205352784896" lon="13.786321191456878"><ele>480.0</ele><time>2026-03-29T09:27:07.999Z</time></trkpt><trkpt lat="42.50315819576523" lon="13.786175609122752"><ele>480.0</ele><time>2026-03-29T09:27:08.999Z</time></trkpt><trkpt lat="42.5031103932204" lon="13.786038886872864"><ele>480.0</ele><time>2026-03-29T09:27:09.999Z</time></trkpt><trkpt lat="42.503064226081676" lon="13.78590812782442"><ele>480.0</ele><time>2026-03-29T09:27:10.999Z</time></trkpt><trkpt lat="42.503027034869525" lon="13.785796075884491"><ele>480.0</ele><time>2026-03-29T09:27:11.999Z</time></trkpt><trkpt lat="42.503006717181236" lon="13.785681166366496"><ele>479.4</ele><time>2026-03-29T09:27:12.999Z</time></trkpt><trkpt lat="42.50297419981545" lon="13.785571679274927"><ele>478.8</ele><time>2026-03-29T09:27:13.999Z</time></trkpt><trkpt lat="42.50290280167377" lon="13.785362614968966"><ele>478.20000000000005</ele><time>2026-03-29T09:27:15.999Z</time></trkpt><trkpt lat="42.5028673789747" lon="13.785250203924148"><ele>477.6</ele><time>2026-03-29T09:27:16.999Z</time></trkpt><trkpt lat="42.502848490409335" lon="13.785153290349772"><ele>477.0</ele><time>2026-03-29T09:27:17.999Z</time></trkpt><trkpt lat="42.50282423526011" lon="13.785069214727075"><ele>477.0</ele><time>2026-03-29T09:27:18.999Z</time></trkpt><trkpt lat="42.50279832881626" lon="13.784988874715513"><ele>477.0</ele><time>2026-03-29T09:27:19.999Z</time></trkpt><trkpt lat="42.50277293756708" lon="13.784910132541663"><ele>477.0</ele><time>2026-03-29T09:27:20.999Z</time></trkpt><trkpt lat="42.50272695717838" lon="13.784767540151126"><ele>477.0</ele><time>2026-03-29T09:27:22.999Z</time></trkpt><trkpt lat="42.502681228982105" lon="13.784642470412908"><ele>477.0</ele><time>2026-03-29T09:27:24.999Z</time></trkpt><trkpt lat="42.502622657201954" lon="13.784538015353347"><ele>477.0</ele><time>2026-03-29T09:27:26.999Z</time></trkpt><trkpt lat="42.502500033710454" lon="13.784503547975596"><ele>477.0</ele><time>2026-03-29T09:27:28.999Z</time></trkpt><trkpt lat="42.50243265060277" lon="13.784536826915812"><ele>477.0</ele><time>2026-03-29T09:27:29.999Z</time></trkpt><trkpt lat="42.50236898323112" lon="13.78456356735298"><ele>477.0</ele><time>2026-03-29T09:27:30.999Z</time></trkpt><trkpt lat="42.50230413463591" lon="13.784556976875976"><ele>477.0</ele><time>2026-03-29T09:27:31.999Z</time></trkpt><trkpt lat="42.50220458109178" lon="13.784629497279912"><ele>477.0</ele><time>2026-03-29T09:27:33.999Z</time></trkpt><trkpt lat="42.50215628043974" lon="13.784687250615534"><ele>477.0</ele><time>2026-03-29T09:27:34.999Z</time></trkpt><trkpt lat="42.5020728056247" lon="13.784805462204938"><ele>477.3333333333333</ele><time>2026-03-29T09:27:36.999Z</time></trkpt><trkpt lat="42.501983735982215" lon="13.784929332953698"><ele>477.66666666666663</ele><time>2026-03-29T09:27:38.999Z</time></trkpt><trkpt lat="42.50193105028602" lon="13.784986684146576"><ele>478.0</ele><time>2026-03-29T09:27:39.999Z</time></trkpt><trkpt lat="42.50188141324703" lon="13.78505332748733"><ele>478.3333333333333</ele><time>2026-03-29T09:27:40.999Z</time></trkpt><trkpt lat="42.501836106002045" lon="13.785124877814269"><ele>478.66666666666663</ele><time>2026-03-29T09:27:41.999Z</time></trkpt><trkpt lat="42.50178768216039" lon="13.785192996925943"><ele>479.0</ele><time>2026-03-29T09:27:42.999Z</time></trkpt><trkpt lat="42.50169454198019" lon="13.785307444527836"><ele>479.0</ele><time>2026-03-29T09:27:44.999Z</time></trkpt><trkpt lat="42.501643743270066" lon="13.785362936018956"><ele>479.0</ele><time>2026-03-29T09:27:45.999Z</time></trkpt><trkpt lat="42.5015919742183" lon="13.785420857829035"><ele>479.0</ele><time>2026-03-29T09:27:46.999Z</time></trkpt><trkpt lat="42.501547568728036" lon="13.785486636538185"><ele>479.0</ele><time>2026-03-29T09:27:47.999Z</time></trkpt><trkpt lat="42.501505455054236" lon="13.785558528515446"><ele>479.0</ele><time>2026-03-29T09:27:48.999Z</time></trkpt><trkpt lat="42.501461699038295" lon="13.785637982667792"><ele>479.0</ele><time>2026-03-29T09:27:49.999Z</time></trkpt><trkpt lat="42.501415829760276" lon="13.785722482089584"><ele>479.0</ele><time>2026-03-29T09:27:50.999Z</time></trkpt><trkpt lat="42.50137685617214" lon="13.785804077461597"><ele>478.99999999999994</ele><time>2026-03-29T09:27:51.999Z</time></trkpt><trkpt lat="42.50133918374693" lon="13.78589871131177"><ele>479.0</ele><time>2026-03-29T09:27:52.999Z</time></trkpt><trkpt lat="42.50130656013398" lon="13.785999027965401"><ele>479.0</ele><time>2026-03-29T09:27:53.999Z</time></trkpt><trkpt lat="42.50127073104032" lon="13.786093874034346"><ele>479.0</ele><time>2026-03-29T09:27:54.999Z</time></trkpt><trkpt lat="42.501243086831444" lon="13.786195500291852"><ele>478.99999999999994</ele><time>2026-03-29T09:27:55.998Z</time></trkpt><trkpt lat="42.501211208663634" lon="13.786296590049469"><ele>479.0</ele><time>2026-03-29T09:27:56.998Z</time></trkpt><trkpt lat="42.50118319825829" lon="13.786397279220097"><ele>474.99999999999994</ele><time>2026-03-29T09:27:57.998Z</time></trkpt><trkpt lat="42.50115772726428" lon="13.786502893030518"><ele>471.0</ele><time>2026-03-29T09:27:58.998Z</time></trkpt><trkpt lat="42.50113485048603" lon="13.786607582613176"><ele>467.0</ele><time>2026-03-29T09:27:59.998Z</time></trkpt><trkpt lat="42.50110506965982" lon="13.786712704641943"><ele>463.0</ele><time>2026-03-29T09:28:00.998Z</time></trkpt><trkpt lat="42.50107591942796" lon="13.786818932116322"><ele>458.99999999999994</ele><time>2026-03-29T09:28:01.998Z</time></trkpt><trkpt lat="42.501054545637395" lon="13.78692877929675"><ele>455.0</ele><time>2026-03-29T09:28:02.998Z</time></trkpt><trkpt lat="42.501031265244016" lon="13.787047176624444"><ele>454.99999999999994</ele><time>2026-03-29T09:28:03.998Z</time></trkpt><trkpt lat="42.50100752577043" lon="13.787160247008378"><ele>455.0</ele><time>2026-03-29T09:28:04.998Z</time></trkpt><trkpt lat="42.500981704851924" lon="13.787270804541764"><ele>455.0</ele><time>2026-03-29T09:28:05.998Z</time></trkpt><trkpt lat="42.50096008894464" lon="13.787387529380862"><ele>455.0</ele><time>2026-03-29T09:28:06.998Z</time></trkpt><trkpt lat="42.50094159387059" lon="13.787504843325273"><ele>454.99999999999994</ele><time>2026-03-29T09:28:07.998Z</time></trkpt><trkpt lat="42.500920589223156" lon="13.787630927377855"><ele>455.0</ele><time>2026-03-29T09:28:08.998Z</time></trkpt><trkpt lat="42.500901429750655" lon="13.787754729629553"><ele>454.8</ele><time>2026-03-29T09:28:09.998Z</time></trkpt><trkpt lat="42.50087912001901" lon="13.787877842750701"><ele>454.6</ele><time>2026-03-29T09:28:10.998Z</time></trkpt><trkpt lat="42.500861377665494" lon="13.7880060707845"><ele>454.4</ele><time>2026-03-29T09:28:11.998Z</time></trkpt><trkpt lat="42.500847288728075" lon="13.788129425561754"><ele>454.2</ele><time>2026-03-29T09:28:12.998Z</time></trkpt><trkpt lat="42.50084231772782" lon="13.788254813579348"><ele>454.0</ele><time>2026-03-29T09:28:13.998Z</time></trkpt><trkpt lat="42.500850197497634" lon="13.788379251054579"><ele>454.0</ele><time>2026-03-29T09:28:14.998Z</time></trkpt><trkpt lat="42.50086588955698" lon="13.788507240933624"><ele>454.0</ele><time>2026-03-29T09:28:15.998Z</time></trkpt><trkpt lat="42.50086405301924" lon="13.788622271427457"><ele>454.0</ele><time>2026-03-29T09:28:16.998Z</time></trkpt><trkpt lat="42.50084059738959" lon="13.78870693624801"><ele>454.0</ele><time>2026-03-29T09:28:17.998Z</time></trkpt><trkpt lat="42.500747152145244" lon="13.788755429329616"><ele>454.0</ele><time>2026-03-29T09:28:20Z</time></trkpt><trkpt lat="42.500657231292514" lon="13.788671405177634"><ele>454.00000000000006</ele><time>2026-03-29T09:28:22Z</time></trkpt><trkpt lat="42.50062477276601" lon="13.788512160802615"><ele>454.0</ele><time>2026-03-29T09:28:24Z</time></trkpt><trkpt lat="42.500623743896384" lon="13.78842068095459"><ele>454.0</ele><time>2026-03-29T09:28:25Z</time></trkpt><trkpt lat="42.500621622472515" lon="13.788329267370594"><ele>454.0</ele><time>2026-03-29T09:28:26Z</time></trkpt><trkpt lat="42.500614819002784" lon="13.788234952296667"><ele>454.00000000000006</ele><time>2026-03-29T09:28:27Z</time></trkpt><trkpt lat="42.50060380510345" lon="13.788137788578922"><ele>454.0</ele><time>2026-03-29T09:28:28Z</time></trkpt><trkpt lat="42.50059440458272" lon="13.788037632222132"><ele>454.00000000000006</ele><time>2026-03-29T09:28:29Z</time></trkpt><trkpt lat="42.50058830728462" lon="13.787937355081745"><ele>454.0</ele><time>2026-03-29T09:28:30Z</time></trkpt><trkpt lat="42.50057876548329" lon="13.78783361236101"><ele>454.0</ele><time>2026-03-29T09:28:31Z</time></trkpt><trkpt lat="42.500570983584986" lon="13.787726488703456"><ele>454.0</ele><time>2026-03-29T09:28:32Z</time></trkpt><trkpt lat="42.500557286991636" lon="13.787623627507973"><ele>454.00000000000006</ele><time>2026-03-29T09:28:33Z</time></trkpt><trkpt lat="42.50053506265908" lon="13.78752165455954"><ele>454.0</ele><time>2026-03-29T09:28:34Z</time></trkpt><trkpt lat="42.50050718859535" lon="13.787419778189888"><ele>454.1666666666667</ele><time>2026-03-29T09:28:35Z</time></trkpt><trkpt lat="42.500474961034186" lon="13.787315593525426"><ele>454.33333333333337</ele><time>2026-03-29T09:28:36Z</time></trkpt><trkpt lat="42.500435960062866" lon="13.787214738764838"><ele>454.5</ele><time>2026-03-29T09:28:37Z</time></trkpt><trkpt lat="42.50039358074106" lon="13.78711761782381"><ele>454.66666666666663</ele><time>2026-03-29T09:28:38Z</time></trkpt><trkpt lat="42.50035639691233" lon="13.78702709836625"><ele>454.8333333333333</ele><time>2026-03-29T09:28:39Z</time></trkpt><trkpt lat="42.500329944682804" lon="13.786935322767423"><ele>455.0</ele><time>2026-03-29T09:28:40Z</time></trkpt><trkpt lat="42.500309440030044" lon="13.786845243061652"><ele>454.49999999999994</ele><time>2026-03-29T09:28:41Z</time></trkpt><trkpt lat="42.50028685301604" lon="13.786760739744826"><ele>454.0</ele><time>2026-03-29T09:28:42Z</time></trkpt><trkpt lat="42.50024644594327" lon="13.78661534049141"><ele>453.5</ele><time>2026-03-29T09:28:44Z</time></trkpt><trkpt lat="42.50023130089628" lon="13.78652201487978"><ele>453.0</ele><time>2026-03-29T09:28:46Z</time></trkpt><trkpt lat="42.500187014136536" lon="13.78638893278432"><ele>452.49999999999994</ele><time>2026-03-29T09:29:09Z</time></trkpt><trkpt lat="42.500160298277805" lon="13.786279739824655"><ele>452.0</ele><time>2026-03-29T09:29:09.999Z</time></trkpt><trkpt lat="42.50014222036901" lon="13.786180000549448"><ele>452.0</ele><time>2026-03-29T09:29:10.999Z</time></trkpt><trkpt lat="42.50013489982225" lon="13.786093300316224"><ele>452.00000000000006</ele><time>2026-03-29T09:29:11.999Z</time></trkpt><trkpt lat="42.500139692927256" lon="13.786003717779034"><ele>452.00000000000006</ele><time>2026-03-29T09:29:12.999Z</time></trkpt><trkpt lat="42.50016599532113" lon="13.785876620214223"><ele>452.0</ele><time>2026-03-29T09:29:14.999Z</time></trkpt><trkpt lat="42.5001653928653" lon="13.78559128182912"><ele>452.0</ele><time>2026-03-29T09:29:17.999Z</time></trkpt><trkpt lat="42.500119674998615" lon="13.785484463666485"><ele>452.0</ele><time>2026-03-29T09:29:19.999Z</time></trkpt><trkpt lat="42.50002354622388" lon="13.78550142579618"><ele>452.00000000000006</ele><time>2026-03-29T09:29:21.999Z</time></trkpt><trkpt lat="42.50001293158964" lon="13.785585851425436"><ele>452.00000000000006</ele><time>2026-03-29T09:29:23.999Z</time></trkpt><trkpt lat="42.500061648986325" lon="13.785759907250181"><ele>452.0</ele><time>2026-03-29T09:29:25.999Z</time></trkpt><trkpt lat="42.500088711072216" lon="13.785886080256141"><ele>452.0</ele><time>2026-03-29T09:29:26.999Z</time></trkpt><trkpt lat="42.500115553924886" lon="13.78601880483621"><ele>452.0</ele><time>2026-03-29T09:29:27.999Z</time></trkpt><trkpt lat="42.500148085031825" lon="13.786176700782967"><ele>452.0</ele><time>2026-03-29T09:29:28.999Z</time></trkpt><trkpt lat="42.500181600085" lon="13.786342579982119"><ele>452.0</ele><time>2026-03-29T09:29:29.999Z</time></trkpt><trkpt lat="42.50018598509314" lon="13.786534199641375"><ele>452.0</ele><time>2026-03-29T09:29:30.999Z</time></trkpt><trkpt lat="42.50022659474681" lon="13.786713356943133"><ele>452.75</ele><time>2026-03-29T09:29:31.999Z</time></trkpt><trkpt lat="42.500279925983136" lon="13.786871759731904"><ele>453.5</ele><time>2026-03-29T09:29:32.999Z</time></trkpt><trkpt lat="42.50033458800199" lon="13.787030376536142"><ele>454.25</ele><time>2026-03-29T09:29:33.999Z</time></trkpt><trkpt lat="42.50039756137875" lon="13.787200152592835"><ele>455.0</ele><time>2026-03-29T09:29:34.999Z</time></trkpt><trkpt lat="42.50046495766548" lon="13.787369777053431"><ele>455.0</ele><time>2026-03-29T09:29:35.999Z</time></trkpt><trkpt lat="42.50051920608962" lon="13.787552941783531"><ele>455.0</ele><time>2026-03-29T09:29:36.999Z</time></trkpt><trkpt lat="42.50053182135107" lon="13.787753731482816"><ele>455.0</ele><time>2026-03-29T09:29:37.999Z</time></trkpt><trkpt lat="42.5005503229721" lon="13.78796013214589"><ele>455.0</ele><time>2026-03-29T09:29:38.999Z</time></trkpt><trkpt lat="42.500562580791204" lon="13.788154579563326"><ele>454.8</ele><time>2026-03-29T09:29:39.999Z</time></trkpt><trkpt lat="42.500593089686184" lon="13.788308521168345"><ele>454.6</ele><time>2026-03-29T09:29:40.999Z</time></trkpt><trkpt lat="42.500603010621234" lon="13.78845753218735"><ele>454.4</ele><time>2026-03-29T09:29:41.999Z</time></trkpt><trkpt lat="42.50061510863086" lon="13.788600041274469"><ele>454.2</ele><time>2026-03-29T09:29:42.999Z</time></trkpt><trkpt lat="42.500633093254216" lon="13.78870158099082"><ele>454.0</ele><time>2026-03-29T09:29:43.999Z</time></trkpt><trkpt lat="42.50070140529458" lon="13.788786574554113"><ele>454.0</ele><time>2026-03-29T09:29:45.999Z</time></trkpt><trkpt lat="42.50080681730407" lon="13.78879173479062"><ele>454.0</ele><time>2026-03-29T09:29:47.999Z</time></trkpt><trkpt lat="42.50087673248261" lon="13.788686390631305"><ele>454.0</ele><time>2026-03-29T09:29:49.999Z</time></trkpt><trkpt lat="42.50088774402326" lon="13.78858646784875"><ele>454.0</ele><time>2026-03-29T09:29:50.999Z</time></trkpt><trkpt lat="42.500886933919084" lon="13.78845977501052"><ele>454.0</ele><time>2026-03-29T09:29:51.999Z</time></trkpt><trkpt lat="42.50087110557599" lon="13.788307154792689"><ele>454.0</ele><time>2026-03-29T09:29:52.999Z</time></trkpt><trkpt lat="42.50086761656165" lon="13.788154492166266"><ele>454.0</ele><time>2026-03-29T09:29:53.999Z</time></trkpt><trkpt lat="42.50088232542338" lon="13.788006362790899"><ele>454.0</ele><time>2026-03-29T09:29:54.999Z</time></trkpt><trkpt lat="42.50090968324073" lon="13.787842472878216"><ele>454.0</ele><time>2026-03-29T09:29:55.999Z</time></trkpt><trkpt lat="42.50093528476571" lon="13.787667271349147"><ele>454.25</ele><time>2026-03-29T09:29:56.999Z</time></trkpt><trkpt lat="42.50096263179773" lon="13.78748207663675"><ele>454.5</ele><time>2026-03-29T09:29:57.999Z</time></trkpt><trkpt lat="42.500995847959075" lon="13.787295481775818"><ele>454.75</ele><time>2026-03-29T09:29:58.999Z</time></trkpt><trkpt lat="42.501036159321785" lon="13.787099354517855"><ele>455.0</ele><time>2026-03-29T09:29:59.999Z</time></trkpt><trkpt lat="42.50107930750595" lon="13.786900649905492"><ele>453.66666666666663</ele><time>2026-03-29T09:30:00.999Z</time></trkpt><trkpt lat="42.50112718880064" lon="13.786700325726661"><ele>452.33333333333337</ele><time>2026-03-29T09:30:01.999Z</time></trkpt><trkpt lat="42.50117995771357" lon="13.786498136939313"><ele>451.0</ele><time>2026-03-29T09:30:02.999Z</time></trkpt><trkpt lat="42.501228617158596" lon="13.786306171494871"><ele>458.0</ele><time>2026-03-29T09:30:03.999Z</time></trkpt><trkpt lat="42.501272565693554" lon="13.78613304094292"><ele>465.0</ele><time>2026-03-29T09:30:04.999Z</time></trkpt><trkpt lat="42.50133434875549" lon="13.785990371370543"><ele>472.0</ele><time>2026-03-29T09:30:05.999Z</time></trkpt><trkpt lat="42.50138905453381" lon="13.785841383293697"><ele>479.0</ele><time>2026-03-29T09:30:06.998Z</time></trkpt><trkpt lat="42.50145779943689" lon="13.785702087747413"><ele>479.0</ele><time>2026-03-29T09:30:07.998Z</time></trkpt><trkpt lat="42.501509836628394" lon="13.78557328352825"><ele>479.0</ele><time>2026-03-29T09:30:08.998Z</time></trkpt><trkpt lat="42.50159258321335" lon="13.785476684483339"><ele>479.0</ele><time>2026-03-29T09:30:09.998Z</time></trkpt><trkpt lat="42.5016704951085" lon="13.78537383030038"><ele>479.0</ele><time>2026-03-29T09:30:10.998Z</time></trkpt><trkpt lat="42.50174462377638" lon="13.785281631957544"><ele>479.0</ele><time>2026-03-29T09:30:11.998Z</time></trkpt><trkpt lat="42.50180322657614" lon="13.785178965287251"><ele>478.6</ele><time>2026-03-29T09:30:12.998Z</time></trkpt><trkpt lat="42.5018800072228" lon="13.785111066407698"><ele>478.2</ele><time>2026-03-29T09:30:13.998Z</time></trkpt><trkpt lat="42.5019390866612" lon="13.785016281835905"><ele>477.80000000000007</ele><time>2026-03-29T09:30:14.998Z</time></trkpt><trkpt lat="42.50200600699351" lon="13.784922573017674"><ele>477.40000000000003</ele><time>2026-03-29T09:30:15.998Z</time></trkpt><trkpt lat="42.50207306865434" lon="13.784840339411858"><ele>477.0</ele><time>2026-03-29T09:30:16.998Z</time></trkpt><trkpt lat="42.50215036892014" lon="13.7847694169613"><ele>477.0</ele><time>2026-03-29T09:30:17.998Z</time></trkpt><trkpt lat="42.50220785301735" lon="13.784699954834732"><ele>476.99999999999994</ele><time>2026-03-29T09:30:18.998Z</time></trkpt><trkpt lat="42.50225867674827" lon="13.784641495630042"><ele>477.0</ele><time>2026-03-29T09:30:19.998Z</time></trkpt><trkpt lat="42.50233654417728" lon="13.78456273043079"><ele>477.0</ele><time>2026-03-29T09:30:21.998Z</time></trkpt><trkpt lat="42.50240043347832" lon="13.784586674965203"><ele>476.99999999999994</ele><time>2026-03-29T09:30:22.998Z</time></trkpt><trkpt lat="42.502466825866165" lon="13.78455933395121"><ele>477.0</ele><time>2026-03-29T09:30:23.998Z</time></trkpt><trkpt lat="42.50253256068604" lon="13.784552275763096"><ele>477.0</ele><time>2026-03-29T09:30:24.998Z</time></trkpt><trkpt lat="42.502638259814205" lon="13.784592856851962"><ele>477.0</ele><time>2026-03-29T09:30:27Z</time></trkpt><trkpt lat="42.50267490585167" lon="13.78467641640333"><ele>477.0</ele><time>2026-03-29T09:30:28Z</time></trkpt><trkpt lat="42.502702346446405" lon="13.784771595829273"><ele>477.0</ele><time>2026-03-29T09:30:29Z</time></trkpt><trkpt lat="42.50273858463142" lon="13.784887736981986"><ele>477.0</ele><time>2026-03-29T09:30:30Z</time></trkpt><trkpt lat="42.50277908729105" lon="13.785012396812842"><ele>477.0</ele><time>2026-03-29T09:30:31Z</time></trkpt><trkpt lat="42.502822408795716" lon="13.785147853634223"><ele>477.0</ele><time>2026-03-29T09:30:32Z</time></trkpt><trkpt lat="42.50286400144056" lon="13.785288299698319"><ele>475.75</ele><time>2026-03-29T09:30:33Z</time></trkpt><trkpt lat="42.50290744719623" lon="13.785445995236856"><ele>474.5</ele><time>2026-03-29T09:30:34Z</time></trkpt><trkpt lat="42.50295515364201" lon="13.785610945479714"><ele>473.25</ele><time>2026-03-29T09:30:35Z</time></trkpt><trkpt lat="42.50300748005752" lon="13.785785204417275"><ele>472.0</ele><time>2026-03-29T09:30:36Z</time></trkpt><trkpt lat="42.503062994612705" lon="13.785958746729936"><ele>474.6666666666667</ele><time>2026-03-29T09:30:37Z</time></trkpt><trkpt lat="42.50312163040342" lon="13.78614468866932"><ele>477.33333333333337</ele><time>2026-03-29T09:30:38Z</time></trkpt><trkpt lat="42.50318491619383" lon="13.786334658700513"><ele>480.0</ele><time>2026-03-29T09:30:39Z</time></trkpt><trkpt lat="42.50325389834479" lon="13.786528417886586"><ele>480.0</ele><time>2026-03-29T09:30:40Z</time></trkpt><trkpt lat="42.50332030807034" lon="13.786712576414644"><ele>480.0</ele><time>2026-03-29T09:30:41Z</time></trkpt><trkpt lat="42.50337544679023" lon="13.786885635223888"><ele>480.0</ele><time>2026-03-29T09:30:42Z</time></trkpt><trkpt lat="42.503434628757965" lon="13.78705295206258"><ele>480.0</ele><time>2026-03-29T09:30:43Z</time></trkpt><trkpt lat="42.50350244684155" lon="13.78722725013783"><ele>482.0</ele><time>2026-03-29T09:30:44Z</time></trkpt><trkpt lat="42.50358240764184" lon="13.787409846214107"><ele>484.0</ele><time>2026-03-29T09:30:45Z</time></trkpt><trkpt lat="42.50364904698975" lon="13.787609916829037"><ele>486.0</ele><time>2026-03-29T09:30:46Z</time></trkpt><trkpt lat="42.50373898712643" lon="13.78778713956404"><ele>486.5</ele><time>2026-03-29T09:30:47Z</time></trkpt><trkpt lat="42.50380022069908" lon="13.787959614499645"><ele>487.0</ele><time>2026-03-29T09:30:48Z</time></trkpt><trkpt lat="42.503870241974205" lon="13.78813169829214"><ele>487.5</ele><time>2026-03-29T09:30:49Z</time></trkpt><trkpt lat="42.50394463503779" lon="13.788305710425725"><ele>488.0</ele><time>2026-03-29T09:30:50Z</time></trkpt><trkpt lat="42.50401196098588" lon="13.78847224971519"><ele>490.5</ele><time>2026-03-29T09:30:51Z</time></trkpt><trkpt lat="42.504069329864755" lon="13.788625367935106"><ele>493.0</ele><time>2026-03-29T09:30:52Z</time></trkpt><trkpt lat="42.504134924117665" lon="13.788772041374756"><ele>495.5</ele><time>2026-03-29T09:30:53Z</time></trkpt><trkpt lat="42.504220907382" lon="13.788892881054034"><ele>498.0</ele><time>2026-03-29T09:30:54Z</time></trkpt><trkpt lat="42.50433282471129" lon="13.788993917307518"><ele>498.0</ele><time>2026-03-29T09:30:55Z</time></trkpt><trkpt lat="42.50447322846466" lon="13.789072157050215"><ele>498.0</ele><time>2026-03-29T09:30:56Z</time></trkpt><trkpt lat="42.504624116131886" lon="13.789134865715349"><ele>498.0</ele><time>2026-03-29T09:30:57Z</time></trkpt><trkpt lat="42.50478213169084" lon="13.789203276251921"><ele>497.66666666666663</ele><time>2026-03-29T09:30:58Z</time></trkpt><trkpt lat="42.50493902041447" lon="13.789295495206447"><ele>497.3333333333333</ele><time>2026-03-29T09:30:59Z</time></trkpt><trkpt lat="42.50510339729667" lon="13.789392432481215"><ele>497.0</ele><time>2026-03-29T09:31:00Z</time></trkpt><trkpt lat="42.505248847429264" lon="13.789478021149565"><ele>499.5</ele><time>2026-03-29T09:31:01Z</time></trkpt><trkpt lat="42.50538253360451" lon="13.789572539401219"><ele>502.0</ele><time>2026-03-29T09:31:02Z</time></trkpt><trkpt lat="42.505495993760235" lon="13.7896804035057"><ele>504.5</ele><time>2026-03-29T09:31:03Z</time></trkpt><trkpt lat="42.505615754100056" lon="13.789784474949117"><ele>507.0</ele><time>2026-03-29T09:31:04Z</time></trkpt><trkpt lat="42.505753031978486" lon="13.789860571343374"><ele>507.0</ele><time>2026-03-29T09:31:05Z</time></trkpt><trkpt lat="42.505919622518526" lon="13.78990509982483"><ele>507.0</ele><time>2026-03-29T09:31:06Z</time></trkpt><trkpt lat="42.50608531443125" lon="13.789920909257555"><ele>507.0</ele><time>2026-03-29T09:31:07Z</time></trkpt><trkpt lat="42.50625563866335" lon="13.789934963882235"><ele>507.0</ele><time>2026-03-29T09:31:08Z</time></trkpt><trkpt lat="42.50643129705606" lon="13.789961434584239"><ele>507.0</ele><time>2026-03-29T09:31:09Z</time></trkpt><trkpt lat="42.506603654525705" lon="13.789991143896017"><ele>507.0</ele><time>2026-03-29T09:31:10Z</time></trkpt><trkpt lat="42.50674996001116" lon="13.790011922780277"><ele>507.0</ele><time>2026-03-29T09:31:11Z</time></trkpt><trkpt lat="42.50687790024054" lon="13.790031263094042"><ele>507.0</ele><time>2026-03-29T09:31:12Z</time></trkpt><trkpt lat="42.50699023192096" lon="13.790073867694742"><ele>507.0</ele><time>2026-03-29T09:31:13Z</time></trkpt><trkpt lat="42.507107490131425" lon="13.790172560955885"><ele>507.0</ele><time>2026-03-29T09:31:14Z</time></trkpt><trkpt lat="42.50721757989602" lon="13.79030552715859"><ele>510.0</ele><time>2026-03-29T09:31:15Z</time></trkpt><trkpt lat="42.5073227801783" lon="13.790420211988078"><ele>513.0</ele><time>2026-03-29T09:31:16Z</time></trkpt><trkpt lat="42.50744448710741" lon="13.790477488477357"><ele>516.0</ele><time>2026-03-29T09:31:17Z</time></trkpt><trkpt lat="42.50755969112215" lon="13.790528402399426"><ele>519.0</ele><time>2026-03-29T09:31:18Z</time></trkpt><trkpt lat="42.50765886348969" lon="13.790621739645069"><ele>519.0</ele><time>2026-03-29T09:31:19Z</time></trkpt><trkpt lat="42.50773647692562" lon="13.790778470925124"><ele>519.0</ele><time>2026-03-29T09:31:20Z</time></trkpt><trkpt lat="42.50779963601562" lon="13.790934210640984"><ele>519.0</ele><time>2026-03-29T09:31:21Z</time></trkpt><trkpt lat="42.507866363753095" lon="13.791066147356245"><ele>519.0</ele><time>2026-03-29T09:31:22Z</time></trkpt><trkpt lat="42.507954771384036" lon="13.791172846949394"><ele>519.8</ele><time>2026-03-29T09:31:23Z</time></trkpt><trkpt lat="42.508063016054535" lon="13.791252931788113"><ele>520.5999999999999</ele><time>2026-03-29T09:31:24Z</time></trkpt><trkpt lat="42.50816989393126" lon="13.79128481626347"><ele>521.4</ele><time>2026-03-29T09:31:25Z</time></trkpt><trkpt lat="42.50827587936074" lon="13.79130413019749"><ele>522.1999999999999</ele><time>2026-03-29T09:31:25.999Z</time></trkpt><trkpt lat="42.50837129753067" lon="13.79132816331034"><ele>523.0</ele><time>2026-03-29T09:31:26.999Z</time></trkpt><trkpt lat="42.5084489201145" lon="13.791387848782055"><ele>523.0</ele><time>2026-03-29T09:31:27.999Z</time></trkpt><trkpt lat="42.508505681588034" lon="13.791485985005094"><ele>523.0</ele><time>2026-03-29T09:31:28.999Z</time></trkpt><trkpt lat="42.508529464528635" lon="13.791599594290215"><ele>523.0</ele><time>2026-03-29T09:31:29.999Z</time></trkpt><trkpt lat="42.50851197517267" lon="13.79168579192171"><ele>523.0</ele><time>2026-03-29T09:31:31.999Z</time></trkpt><trkpt lat="42.50844820243213" lon="13.791705201238022"><ele>523.0</ele><time>2026-03-29T09:31:35.999Z</time></trkpt><trkpt lat="42.50836475331457" lon="13.791707749491295"><ele>523.0</ele><time>2026-03-29T09:31:36.999Z</time></trkpt><trkpt lat="42.50825601779084" lon="13.79169004927838"><ele>523.0</ele><time>2026-03-29T09:31:37.999Z</time></trkpt><trkpt lat="42.508159673067475" lon="13.7916718890855"><ele>523.0</ele><time>2026-03-29T09:31:38.999Z</time></trkpt><trkpt lat="42.508059839004886" lon="13.791638487521578"><ele>523.0</ele><time>2026-03-29T09:31:39.999Z</time></trkpt><trkpt lat="42.50795658211546" lon="13.791567930824572"><ele>523.0</ele><time>2026-03-29T09:31:40.999Z</time></trkpt><trkpt lat="42.50787063943693" lon="13.791428224835174"><ele>522.0</ele><time>2026-03-29T09:31:41.999Z</time></trkpt><trkpt lat="42.50776345823663" lon="13.79129386399046"><ele>521.0</ele><time>2026-03-29T09:31:42.999Z</time></trkpt><trkpt lat="42.507677318193586" lon="13.791168735485652"><ele>520.0</ele><time>2026-03-29T09:31:43.999Z</time></trkpt><trkpt lat="42.50759120936292" lon="13.791062136490236"><ele>519.0</ele><time>2026-03-29T09:31:44.999Z</time></trkpt><trkpt lat="42.50749604082392" lon="13.790975199071495"><ele>519.0</ele><time>2026-03-29T09:31:45.999Z</time></trkpt><trkpt lat="42.507378247151806" lon="13.790921546651019"><ele>519.0</ele><time>2026-03-29T09:31:46.999Z</time></trkpt><trkpt lat="42.5072314187376" lon="13.790909086253775"><ele>519.0</ele><time>2026-03-29T09:31:47.999Z</time></trkpt><trkpt lat="42.50711272242639" lon="13.790897897165818"><ele>519.0</ele><time>2026-03-29T09:31:48.999Z</time></trkpt><trkpt lat="42.507021124044286" lon="13.790882084293173"><ele>519.6666666666666</ele><time>2026-03-29T09:31:49.999Z</time></trkpt><trkpt lat="42.50694202795539" lon="13.790864808508342"><ele>520.3333333333334</ele><time>2026-03-29T09:31:50.999Z</time></trkpt><trkpt lat="42.506856903899305" lon="13.790843982839233"><ele>521.0</ele><time>2026-03-29T09:31:51.999Z</time></trkpt><trkpt lat="42.50676641132083" lon="13.790823861430393"><ele>521.6666666666667</ele><time>2026-03-29T09:31:52.999Z</time></trkpt><trkpt lat="42.50667632084914" lon="13.790848241725756"><ele>522.3333333333334</ele><time>2026-03-29T09:31:53.999Z</time></trkpt><trkpt lat="42.506602780885274" lon="13.790924637124956"><ele>523.0</ele><time>2026-03-29T09:31:54.999Z</time></trkpt><trkpt lat="42.50655533870033" lon="13.791037221615776"><ele>524.6</ele><time>2026-03-29T09:31:55.999Z</time></trkpt><trkpt lat="42.50654037560037" lon="13.791174742996649"><ele>526.1999999999999</ele><time>2026-03-29T09:31:56.999Z</time></trkpt><trkpt lat="42.506551480305575" lon="13.791313150949101"><ele>527.8</ele><time>2026-03-29T09:31:57.999Z</time></trkpt><trkpt lat="42.5065620806795" lon="13.791453399159817"><ele>529.4</ele><time>2026-03-29T09:31:58.999Z</time></trkpt><trkpt lat="42.50656231433679" lon="13.791609104594164"><ele>531.0</ele><time>2026-03-29T09:31:59.999Z</time></trkpt><trkpt lat="42.50655794343347" lon="13.791761679741777"><ele>531.6</ele><time>2026-03-29T09:32:00.999Z</time></trkpt><trkpt lat="42.5065577003383" lon="13.791914745112786"><ele>532.2</ele><time>2026-03-29T09:32:01.999Z</time></trkpt><trkpt lat="42.50655046302176" lon="13.792059308972249"><ele>532.8</ele><time>2026-03-29T09:32:02.999Z</time></trkpt><trkpt lat="42.50652620339118" lon="13.792185427089242"><ele>533.4</ele><time>2026-03-29T09:32:03.999Z</time></trkpt><trkpt lat="42.5064853287629" lon="13.792303500165158"><ele>534.0</ele><time>2026-03-29T09:32:04.999Z</time></trkpt><trkpt lat="42.50642610262345" lon="13.792396622302567"><ele>534.0</ele><time>2026-03-29T09:32:05.999Z</time></trkpt><trkpt lat="42.50634446922619" lon="13.79245837032299"><ele>534.0</ele><time>2026-03-29T09:32:06.999Z</time></trkpt><trkpt lat="42.506246605222934" lon="13.792478123559285"><ele>534.0</ele><time>2026-03-29T09:32:07.999Z</time></trkpt><trkpt lat="42.50613985864313" lon="13.79247549786583"><ele>534.0</ele><time>2026-03-29T09:32:08.999Z</time></trkpt><trkpt lat="42.506028563346696" lon="13.792491243870302"><ele>534.0</ele><time>2026-03-29T09:32:09.999Z</time></trkpt><trkpt lat="42.50591467375231" lon="13.792487825866639"><ele>534.75</ele><time>2026-03-29T09:32:10.999Z</time></trkpt><trkpt lat="42.50579850381618" lon="13.792497545761105"><ele>535.5</ele><time>2026-03-29T09:32:11.999Z</time></trkpt><trkpt lat="42.505675820933455" lon="13.792507736632508"><ele>536.25</ele><time>2026-03-29T09:32:12.999Z</time></trkpt><trkpt lat="42.50554770906593" lon="13.792509805974115"><ele>537.0</ele><time>2026-03-29T09:32:13.999Z</time></trkpt><trkpt lat="42.5054190475509" lon="13.792510469291155"><ele>537.75</ele><time>2026-03-29T09:32:14.999Z</time></trkpt><trkpt lat="42.505287325285316" lon="13.79251468699385"><ele>538.5</ele><time>2026-03-29T09:32:15.999Z</time></trkpt><trkpt lat="42.50516293114975" lon="13.79251919718458"><ele>539.25</ele><time>2026-03-29T09:32:16.999Z</time></trkpt><trkpt lat="42.50505490933241" lon="13.792523374245407"><ele>540.0</ele><time>2026-03-29T09:32:17.999Z</time></trkpt><trkpt lat="42.50495562437925" lon="13.792525990479733"><ele>540.0</ele><time>2026-03-29T09:32:18.999Z</time></trkpt><trkpt lat="42.50485611747257" lon="13.792527760453758"><ele>540.0</ele><time>2026-03-29T09:32:19.999Z</time></trkpt><trkpt lat="42.50475892119386" lon="13.792531176255805"><ele>540.0</ele><time>2026-03-29T09:32:20.999Z</time></trkpt><trkpt lat="42.50465327913469" lon="13.792533674138912"><ele>540.0</ele><time>2026-03-29T09:32:21.999Z</time></trkpt><trkpt lat="42.50454960121886" lon="13.792536843263637"><ele>540.0</ele><time>2026-03-29T09:32:22.998Z</time></trkpt><trkpt lat="42.50443803878303" lon="13.792542502052013"><ele>540.6</ele><time>2026-03-29T09:32:23.998Z</time></trkpt><trkpt lat="42.5043275243577" lon="13.792547903873698"><ele>541.2</ele><time>2026-03-29T09:32:24.998Z</time></trkpt><trkpt lat="42.50422239510444" lon="13.792558485230959"><ele>541.8</ele><time>2026-03-29T09:32:25.998Z</time></trkpt><trkpt lat="42.50412473335858" lon="13.79258671089956"><ele>542.4</ele><time>2026-03-29T09:32:26.998Z</time></trkpt><trkpt lat="42.50403959849689" lon="13.792627264980847"><ele>543.0</ele><time>2026-03-29T09:32:27.998Z</time></trkpt><trkpt lat="42.50397061791287" lon="13.792708085603243"><ele>544.6</ele><time>2026-03-29T09:32:28.998Z</time></trkpt><trkpt lat="42.50392100828951" lon="13.792826186041037"><ele>546.1999999999999</ele><time>2026-03-29T09:32:29.998Z</time></trkpt><trkpt lat="42.503902085152845" lon="13.792963993391608"><ele>547.8</ele><time>2026-03-29T09:32:30.998Z</time></trkpt><trkpt lat="42.50389743148062" lon="13.793108121022103"><ele>549.4</ele><time>2026-03-29T09:32:32Z</time></trkpt><trkpt lat="42.50390688187986" lon="13.793247569674795"><ele>551.0</ele><time>2026-03-29T09:32:33Z</time></trkpt><trkpt lat="42.50391029289477" lon="13.793398990431475"><ele>552.0</ele><time>2026-03-29T09:32:34Z</time></trkpt><trkpt lat="42.50390993388319" lon="13.793546690062259"><ele>553.0</ele><time>2026-03-29T09:32:35Z</time></trkpt><trkpt lat="42.50390257385047" lon="13.793702390581249"><ele>554.0</ele><time>2026-03-29T09:32:36Z</time></trkpt><trkpt lat="42.50389233996683" lon="13.793852332670264"><ele>555.0</ele><time>2026-03-29T09:32:37Z</time></trkpt><trkpt lat="42.50387442057065" lon="13.793993313786416"><ele>556.0</ele><time>2026-03-29T09:32:38Z</time></trkpt><trkpt lat="42.50384581643064" lon="13.794117064093847"><ele>556.0</ele><time>2026-03-29T09:32:39Z</time></trkpt><trkpt lat="42.50380968677747" lon="13.794232458631823"><ele>556.0</ele><time>2026-03-29T09:32:40Z</time></trkpt><trkpt lat="42.50375397482002" lon="13.794347551927839"><ele>556.0</ele><time>2026-03-29T09:32:41Z</time></trkpt><trkpt lat="42.503669537001926" lon="13.794457626458865"><ele>556.0</ele><time>2026-03-29T09:32:42Z</time></trkpt><trkpt lat="42.50357454647121" lon="13.794561262887829"><ele>556.0</ele><time>2026-03-29T09:32:43Z</time></trkpt><trkpt lat="42.503476075690635" lon="13.794666071871847"><ele>555.75</ele><time>2026-03-29T09:32:44Z</time></trkpt><trkpt lat="42.50337852350961" lon="13.794766312413737"><ele>555.5</ele><time>2026-03-29T09:32:45Z</time></trkpt><trkpt lat="42.50327306571678" lon="13.794852412076219"><ele>555.25</ele><time>2026-03-29T09:32:46Z</time></trkpt><trkpt lat="42.50315613596087" lon="13.794924159049879"><ele>555.0</ele><time>2026-03-29T09:32:47Z</time></trkpt><trkpt lat="42.50302849265966" lon="13.794976548313919"><ele>554.5</ele><time>2026-03-29T09:32:48Z</time></trkpt><trkpt lat="42.502896615342856" lon="13.795015839076383"><ele>554.0</ele><time>2026-03-29T09:32:49Z</time></trkpt><trkpt lat="42.50276787580772" lon="13.79504300420615"><ele>553.5</ele><time>2026-03-29T09:32:50Z</time></trkpt><trkpt lat="42.50263422135218" lon="13.795068066711872"><ele>553.0</ele><time>2026-03-29T09:32:51Z</time></trkpt><trkpt lat="42.50250288791366" lon="13.795088325639338"><ele>553.0</ele><time>2026-03-29T09:32:52Z</time></trkpt><trkpt lat="42.50237413699549" lon="13.795109666058842"><ele>553.0</ele><time>2026-03-29T09:32:53Z</time></trkpt><trkpt lat="42.502239105491846" lon="13.795135188543359"><ele>553.0</ele><time>2026-03-29T09:32:54Z</time></trkpt><trkpt lat="42.50210086363289" lon="13.795160886280359"><ele>553.0</ele><time>2026-03-29T09:32:55Z</time></trkpt><trkpt lat="42.50197565813675" lon="13.795175346417412"><ele>555.5</ele><time>2026-03-29T09:32:56Z</time></trkpt><trkpt lat="42.50186288519653" lon="13.795193908654872"><ele>558.0</ele><time>2026-03-29T09:32:57Z</time></trkpt><trkpt lat="42.50174788538991" lon="13.79523018037332"><ele>560.5</ele><time>2026-03-29T09:32:58Z</time></trkpt><trkpt lat="42.50162649596351" lon="13.795292065272658"><ele>563.0</ele><time>2026-03-29T09:32:59Z</time></trkpt><trkpt lat="42.50150605555233" lon="13.795383466810234"><ele>563.0</ele><time>2026-03-29T09:33:00Z</time></trkpt><trkpt lat="42.50139925743738" lon="13.79551452475804"><ele>563.0</ele><time>2026-03-29T09:33:01Z</time></trkpt><trkpt lat="42.50130875903892" lon="13.795662817061405"><ele>563.0</ele><time>2026-03-29T09:33:02Z</time></trkpt><trkpt lat="42.50121539568897" lon="13.795785963942041"><ele>563.0</ele><time>2026-03-29T09:33:03Z</time></trkpt><trkpt lat="42.50111112324862" lon="13.795896937684976"><ele>561.75</ele><time>2026-03-29T09:33:04Z</time></trkpt><trkpt lat="42.50099467217501" lon="13.795991736246481"><ele>560.5</ele><time>2026-03-29T09:33:05Z</time></trkpt><trkpt lat="42.50086265133543" lon="13.796074906062854"><ele>559.25</ele><time>2026-03-29T09:33:06Z</time></trkpt><trkpt lat="42.50073361201747" lon="13.796146963656323"><ele>558.0</ele><time>2026-03-29T09:33:07Z</time></trkpt><trkpt lat="42.5006160526002" lon="13.796206092298027"><ele>560.75</ele><time>2026-03-29T09:33:08Z</time></trkpt><trkpt lat="42.500502392750185" lon="13.796253098437182"><ele>563.5</ele><time>2026-03-29T09:33:09Z</time></trkpt><trkpt lat="42.50038038872001" lon="13.796284607491065"><ele>566.25</ele><time>2026-03-29T09:33:10Z</time></trkpt><trkpt lat="42.50025631753541" lon="13.796286350389657"><ele>569.0</ele><time>2026-03-29T09:33:11Z</time></trkpt><trkpt lat="42.500133018403794" lon="13.79627149505411"><ele>569.0</ele><time>2026-03-29T09:33:12Z</time></trkpt><trkpt lat="42.50001410993918" lon="13.796282165894842"><ele>569.0</ele><time>2026-03-29T09:33:13Z</time></trkpt><trkpt lat="42.499894255048616" lon="13.796334566762473"><ele>569.0</ele><time>2026-03-29T09:33:14Z</time></trkpt><trkpt lat="42.49976823765563" lon="13.796412443311093"><ele>569.0</ele><time>2026-03-29T09:33:15Z</time></trkpt><trkpt lat="42.499654996195005" lon="13.796496458415309"><ele>568.5</ele><time>2026-03-29T09:33:16Z</time></trkpt><trkpt lat="42.49953696406153" lon="13.796548538183941"><ele>568.0</ele><time>2026-03-29T09:33:17Z</time></trkpt><trkpt lat="42.49939520896165" lon="13.796573268020822"><ele>567.5</ele><time>2026-03-29T09:33:18Z</time></trkpt><trkpt lat="42.499241815060394" lon="13.796592753641352"><ele>567.0</ele><time>2026-03-29T09:33:19Z</time></trkpt><trkpt lat="42.49907976455556" lon="13.796598200797726"><ele>567.0</ele><time>2026-03-29T09:33:20Z</time></trkpt><trkpt lat="42.49891808766067" lon="13.79659895706723"><ele>567.0</ele><time>2026-03-29T09:33:21Z</time></trkpt><trkpt lat="42.49877357273328" lon="13.796609809216648"><ele>567.0</ele><time>2026-03-29T09:33:22Z</time></trkpt><trkpt lat="42.49864230534693" lon="13.796611064754586"><ele>567.0</ele><time>2026-03-29T09:33:23Z</time></trkpt><trkpt lat="42.49850829612647" lon="13.796591190690986"><ele>568.0</ele><time>2026-03-29T09:33:24Z</time></trkpt><trkpt lat="42.49836806957453" lon="13.796539955423036"><ele>569.0</ele><time>2026-03-29T09:33:25Z</time></trkpt><trkpt lat="42.498225966555864" lon="13.796450925512119"><ele>570.0</ele><time>2026-03-29T09:33:26Z</time></trkpt><trkpt lat="42.49807976136968" lon="13.796345486252193"><ele>570.0</ele><time>2026-03-29T09:33:27Z</time></trkpt><trkpt lat="42.4979325441411" lon="13.796252396404515"><ele>570.0</ele><time>2026-03-29T09:33:28Z</time></trkpt><trkpt lat="42.49780245068132" lon="13.796164948606553"><ele>570.0</ele><time>2026-03-29T09:33:29Z</time></trkpt><trkpt lat="42.49768368325638" lon="13.796077838405004"><ele>570.0</ele><time>2026-03-29T09:33:30Z</time></trkpt><trkpt lat="42.49756660384342" lon="13.795994251885878"><ele>570.0</ele><time>2026-03-29T09:33:31Z</time></trkpt><trkpt lat="42.497459533151066" lon="13.795920091023197"><ele>570.0</ele><time>2026-03-29T09:33:32Z</time></trkpt><trkpt lat="42.49736521046588" lon="13.795829025644858"><ele>570.0</ele><time>2026-03-29T09:33:33Z</time></trkpt><trkpt lat="42.49726844893725" lon="13.795718970060808"><ele>570.0</ele><time>2026-03-29T09:33:34Z</time></trkpt><trkpt lat="42.49718525254267" lon="13.795602697823682"><ele>570.0</ele><time>2026-03-29T09:33:34.999Z</time></trkpt><trkpt lat="42.497104325783305" lon="13.795488697081865"><ele>570.0</ele><time>2026-03-29T09:33:35.999Z</time></trkpt><trkpt lat="42.4970256446348" lon="13.795385652826303"><ele>570.0</ele><time>2026-03-29T09:33:36.999Z</time></trkpt><trkpt lat="42.49694273130647" lon="13.795280693087928"><ele>570.0</ele><time>2026-03-29T09:33:37.999Z</time></trkpt><trkpt lat="42.496850199769796" lon="13.795191650980291"><ele>571.0</ele><time>2026-03-29T09:33:38.999Z</time></trkpt><trkpt lat="42.49674757617018" lon="13.795129332001384"><ele>572.0</ele><time>2026-03-29T09:33:39.999Z</time></trkpt><trkpt lat="42.49664519156697" lon="13.795089753026039"><ele>573.0</ele><time>2026-03-29T09:33:40.999Z</time></trkpt><trkpt lat="42.496527248464865" lon="13.795059481746728"><ele>574.0</ele><time>2026-03-29T09:33:41.999Z</time></trkpt><trkpt lat="42.49639321998218" lon="13.795050356212773"><ele>574.0</ele><time>2026-03-29T09:33:42.999Z</time></trkpt><trkpt lat="42.49625435827194" lon="13.795075896247752"><ele>574.0</ele><time>2026-03-29T09:33:43.999Z</time></trkpt><trkpt lat="42.496113997514094" lon="13.795140313721129"><ele>574.0</ele><time>2026-03-29T09:33:44.999Z</time></trkpt><trkpt lat="42.4959710685179" lon="13.795243986554075"><ele>573.3333333333334</ele><time>2026-03-29T09:33:45.999Z</time></trkpt><trkpt lat="42.495829219874615" lon="13.795385053153248"><ele>572.6666666666666</ele><time>2026-03-29T09:33:46.999Z</time></trkpt><trkpt lat="42.495690282127086" lon="13.795489492865379"><ele>572.0</ele><time>2026-03-29T09:33:47.999Z</time></trkpt><trkpt lat="42.495583769204394" lon="13.795616337398984"><ele>572.0</ele><time>2026-03-29T09:33:48.999Z</time></trkpt><trkpt lat="42.49547134693441" lon="13.795709332234424"><ele>572.0</ele><time>2026-03-29T09:33:49.999Z</time></trkpt><trkpt lat="42.49536961280222" lon="13.795811228697788"><ele>572.0</ele><time>2026-03-29T09:33:50.999Z</time></trkpt><trkpt lat="42.49524341366285" lon="13.795905490686211"><ele>572.0</ele><time>2026-03-29T09:33:51.999Z</time></trkpt><trkpt lat="42.49509843019108" lon="13.79597922789134"><ele>569.75</ele><time>2026-03-29T09:33:52.999Z</time></trkpt><trkpt lat="42.49495165918036" lon="13.796026276949068"><ele>567.5</ele><time>2026-03-29T09:33:53.999Z</time></trkpt><trkpt lat="42.49482016201025" lon="13.796047018013375"><ele>565.25</ele><time>2026-03-29T09:33:54.999Z</time></trkpt><trkpt lat="42.49471254654643" lon="13.796030269646415"><ele>563.0</ele><time>2026-03-29T09:33:55.999Z</time></trkpt><trkpt lat="42.494606484253566" lon="13.79596640080415"><ele>568.5</ele><time>2026-03-29T09:33:56.999Z</time></trkpt><trkpt lat="42.49450452390118" lon="13.795848658718215"><ele>574.0</ele><time>2026-03-29T09:33:57.999Z</time></trkpt><trkpt lat="42.494389886389236" lon="13.79578456525593"><ele>579.5</ele><time>2026-03-29T09:33:58.999Z</time></trkpt><trkpt lat="42.494270456026925" lon="13.79573473703523"><ele>585.0</ele><time>2026-03-29T09:33:59.999Z</time></trkpt><trkpt lat="42.49415201000583" lon="13.795696905037385"><ele>585.0</ele><time>2026-03-29T09:34:00.999Z</time></trkpt><trkpt lat="42.49403610275107" lon="13.79567855199057"><ele>585.0</ele><time>2026-03-29T09:34:01.999Z</time></trkpt><trkpt lat="42.493926459920296" lon="13.795684334813673"><ele>585.0</ele><time>2026-03-29T09:34:02.999Z</time></trkpt><trkpt lat="42.49382581379641" lon="13.795688784895379"><ele>585.0</ele><time>2026-03-29T09:34:03.999Z</time></trkpt><trkpt lat="42.4937299810412" lon="13.795710494103465"><ele>585.0</ele><time>2026-03-29T09:34:04.999Z</time></trkpt><trkpt lat="42.49364180856595" lon="13.795754334410752"><ele>585.2</ele><time>2026-03-29T09:34:05.999Z</time></trkpt><trkpt lat="42.49355538289139" lon="13.795819997161905"><ele>585.4</ele><time>2026-03-29T09:34:06.999Z</time></trkpt><trkpt lat="42.49347927048062" lon="13.795905298611538"><ele>585.6</ele><time>2026-03-29T09:34:07.999Z</time></trkpt><trkpt lat="42.49341630261102" lon="13.79601273019657"><ele>585.8</ele><time>2026-03-29T09:34:08.999Z</time></trkpt><trkpt lat="42.49336782748741" lon="13.796153507229198"><ele>586.0</ele><time>2026-03-29T09:34:09.999Z</time></trkpt><trkpt lat="42.49332675076817" lon="13.796312818179677"><ele>586.0</ele><time>2026-03-29T09:34:10.999Z</time></trkpt><trkpt lat="42.49329630230138" lon="13.796484108631391"><ele>586.0</ele><time>2026-03-29T09:34:11.999Z</time></trkpt><trkpt lat="42.49325309250665" lon="13.79663277827625"><ele>586.0</ele><time>2026-03-29T09:34:12.999Z</time></trkpt><trkpt lat="42.49321415842274" lon="13.796771163963017"><ele>586.0</ele><time>2026-03-29T09:34:13.999Z</time></trkpt><trkpt lat="42.493152235100005" lon="13.796900920439583"><ele>585.8</ele><time>2026-03-29T09:34:14.999Z</time></trkpt><trkpt lat="42.49306002894713" lon="13.797008627665496"><ele>585.6</ele><time>2026-03-29T09:34:15.999Z</time></trkpt><trkpt lat="42.49296507180656" lon="13.79707191771138"><ele>585.4</ele><time>2026-03-29T09:34:16.999Z</time></trkpt><trkpt lat="42.492874943286296" lon="13.797104246022377"><ele>585.2</ele><time>2026-03-29T09:34:17.999Z</time></trkpt><trkpt lat="42.49278879295742" lon="13.797121548304006"><ele>585.0</ele><time>2026-03-29T09:34:18.999Z</time></trkpt><trkpt lat="42.492696363307694" lon="13.79708658731195"><ele>585.0</ele><time>2026-03-29T09:34:19.999Z</time></trkpt><trkpt lat="42.49260303791313" lon="13.797017723458874"><ele>585.0</ele><time>2026-03-29T09:34:20.999Z</time></trkpt><trkpt lat="42.492505736125146" lon="13.796911947705636"><ele>585.0</ele><time>2026-03-29T09:34:21.999Z</time></trkpt><trkpt lat="42.492419391825926" lon="13.796779747644065"><ele>585.0</ele><time>2026-03-29T09:34:22.999Z</time></trkpt><trkpt lat="42.49233314373707" lon="13.796621354013633"><ele>586.75</ele><time>2026-03-29T09:34:23.999Z</time></trkpt><trkpt lat="42.492236793590635" lon="13.796463572912481"><ele>588.5</ele><time>2026-03-29T09:34:24.999Z</time></trkpt><trkpt lat="42.49213076377679" lon="13.79630847550383"><ele>590.25</ele><time>2026-03-29T09:34:25.999Z</time></trkpt><trkpt lat="42.49203228543913" lon="13.796169421639243"><ele>592.0</ele><time>2026-03-29T09:34:26.999Z</time></trkpt><trkpt lat="42.49194316829064" lon="13.796033916847003"><ele>591.0</ele><time>2026-03-29T09:34:27.999Z</time></trkpt><trkpt lat="42.49185646322131" lon="13.79590059410407"><ele>590.0</ele><time>2026-03-29T09:34:28.999Z</time></trkpt><trkpt lat="42.49176556647921" lon="13.795767227024134"><ele>589.0</ele><time>2026-03-29T09:34:29.999Z</time></trkpt><trkpt lat="42.491666325081816" lon="13.795643802284188"><ele>588.0</ele><time>2026-03-29T09:34:30.999Z</time></trkpt><trkpt lat="42.491555168008446" lon="13.795524103743123"><ele>588.0</ele><time>2026-03-29T09:34:31.998Z</time></trkpt><trkpt lat="42.49143579370118" lon="13.795406951303171"><ele>588.0</ele><time>2026-03-29T09:34:32.998Z</time></trkpt><trkpt lat="42.491305223263495" lon="13.795286912804606"><ele>588.0</ele><time>2026-03-29T09:34:33.998Z</time></trkpt><trkpt lat="42.49116250661178" lon="13.795167462969449"><ele>588.0</ele><time>2026-03-29T09:34:34.998Z</time></trkpt><trkpt lat="42.49102439438278" lon="13.795056048859578"><ele>588.0</ele><time>2026-03-29T09:34:35.998Z</time></trkpt><trkpt lat="42.49088263449745" lon="13.794936696508268"><ele>588.0</ele><time>2026-03-29T09:34:37Z</time></trkpt><trkpt lat="42.49074311610624" lon="13.79481922871866"><ele>588.0</ele><time>2026-03-29T09:34:38Z</time></trkpt><trkpt lat="42.490616617862024" lon="13.794719058412284"><ele>588.0</ele><time>2026-03-29T09:34:39Z</time></trkpt><trkpt lat="42.49049104220522" lon="13.794614263841842"><ele>588.0</ele><time>2026-03-29T09:34:40Z</time></trkpt><trkpt lat="42.49036964986395" lon="13.794518242524827"><ele>588.0</ele><time>2026-03-29T09:34:41Z</time></trkpt><trkpt lat="42.49025755923593" lon="13.794431551749302"><ele>588.1999999999999</ele><time>2026-03-29T09:34:42Z</time></trkpt><trkpt lat="42.490164333042976" lon="13.794363405396076"><ele>588.4</ele><time>2026-03-29T09:34:43Z</time></trkpt><trkpt lat="42.490071385947566" lon="13.794315543554204"><ele>588.5999999999999</ele><time>2026-03-29T09:34:44Z</time></trkpt><trkpt lat="42.489972085499055" lon="13.794294264831027"><ele>588.8</ele><time>2026-03-29T09:34:45Z</time></trkpt><trkpt lat="42.48985525181307" lon="13.79429899711195"><ele>589.0</ele><time>2026-03-29T09:34:46Z</time></trkpt><trkpt lat="42.489732468491255" lon="13.794340951139567"><ele>588.5</ele><time>2026-03-29T09:34:47Z</time></trkpt><trkpt lat="42.48961156261684" lon="13.79441287755248"><ele>588.0</ele><time>2026-03-29T09:34:48Z</time></trkpt><trkpt lat="42.489514971624615" lon="13.794512132639943"><ele>587.5</ele><time>2026-03-29T09:34:49Z</time></trkpt><trkpt lat="42.4894305465488" lon="13.794641116760822"><ele>587.0</ele><time>2026-03-29T09:34:50Z</time></trkpt><trkpt lat="42.48934887715864" lon="13.794762106405505"><ele>587.0</ele><time>2026-03-29T09:34:51Z</time></trkpt><trkpt lat="42.48926741833741" lon="13.794867329288431"><ele>587.0</ele><time>2026-03-29T09:34:52Z</time></trkpt><trkpt lat="42.48918014213122" lon="13.794964034883897"><ele>587.0</ele><time>2026-03-29T09:34:53Z</time></trkpt><trkpt lat="42.48908007444036" lon="13.795033447606158"><ele>587.0</ele><time>2026-03-29T09:34:54Z</time></trkpt><trkpt lat="42.48896397525482" lon="13.795060391700057"><ele>587.0</ele><time>2026-03-29T09:34:55Z</time></trkpt><trkpt lat="42.488841845403115" lon="13.79506358901595"><ele>587.0</ele><time>2026-03-29T09:34:56Z</time></trkpt><trkpt lat="42.4887229487963" lon="13.795026108613651"><ele>587.0</ele><time>2026-03-29T09:34:57Z</time></trkpt><trkpt lat="42.488598197165246" lon="13.794960217300165"><ele>587.0</ele><time>2026-03-29T09:34:58Z</time></trkpt><trkpt lat="42.48847081674568" lon="13.794878658033303"><ele>586.25</ele><time>2026-03-29T09:34:59Z</time></trkpt><trkpt lat="42.488356340187764" lon="13.794781822489886"><ele>585.5</ele><time>2026-03-29T09:35:00Z</time></trkpt><trkpt lat="42.48824283254202" lon="13.794661649720735"><ele>584.75</ele><time>2026-03-29T09:35:01Z</time></trkpt><trkpt lat="42.4881335357369" lon="13.794532680959378"><ele>584.0</ele><time>2026-03-29T09:35:02Z</time></trkpt><trkpt lat="42.488030887924644" lon="13.79441074807028"><ele>585.0</ele><time>2026-03-29T09:35:03Z</time></trkpt><trkpt lat="42.48793351862327" lon="13.794301938183231"><ele>586.0</ele><time>2026-03-29T09:35:04Z</time></trkpt><trkpt lat="42.487839802644324" lon="13.794199846752825"><ele>587.0</ele><time>2026-03-29T09:35:05Z</time></trkpt><trkpt lat="42.487753091092046" lon="13.79410605786457"><ele>588.0</ele><time>2026-03-29T09:35:06Z</time></trkpt><trkpt lat="42.48765943182143" lon="13.794031594597492"><ele>588.0</ele><time>2026-03-29T09:35:07Z</time></trkpt><trkpt lat="42.48754789814086" lon="13.793993455288556"><ele>588.0</ele><time>2026-03-29T09:35:08Z</time></trkpt><trkpt lat="42.48741605279424" lon="13.793980616175071"><ele>588.0</ele><time>2026-03-29T09:35:09Z</time></trkpt><trkpt lat="42.48727200576383" lon="13.793995606892153"><ele>588.0</ele><time>2026-03-29T09:35:10Z</time></trkpt><trkpt lat="42.48712209783179" lon="13.794016054548976"><ele>587.5</ele><time>2026-03-29T09:35:11Z</time></trkpt><trkpt lat="42.486971604209366" lon="13.79401269117335"><ele>587.0</ele><time>2026-03-29T09:35:12Z</time></trkpt><trkpt lat="42.48683579305147" lon="13.794012109692577"><ele>586.5</ele><time>2026-03-29T09:35:13Z</time></trkpt><trkpt lat="42.48669530978331" lon="13.794021866729741"><ele>586.0</ele><time>2026-03-29T09:35:14Z</time></trkpt><trkpt lat="42.486552024702355" lon="13.79402837884428"><ele>586.0</ele><time>2026-03-29T09:35:15Z</time></trkpt><trkpt lat="42.486413419590974" lon="13.794030499481094"><ele>586.0</ele><time>2026-03-29T09:35:16Z</time></trkpt><trkpt lat="42.48628765908035" lon="13.794032425087947"><ele>586.0</ele><time>2026-03-29T09:35:17Z</time></trkpt><trkpt lat="42.4861651917735" lon="13.794048405090628"><ele>586.0</ele><time>2026-03-29T09:35:18Z</time></trkpt><trkpt lat="42.48603947716865" lon="13.794090435086911"><ele>585.5</ele><time>2026-03-29T09:35:19Z</time></trkpt><trkpt lat="42.48592369465466" lon="13.794168580982307"><ele>585.0</ele><time>2026-03-29T09:35:20Z</time></trkpt><trkpt lat="42.485817038329515" lon="13.794292652601492"><ele>584.5</ele><time>2026-03-29T09:35:21Z</time></trkpt><trkpt lat="42.485726928334515" lon="13.794428418777537"><ele>584.0</ele><time>2026-03-29T09:35:22Z</time></trkpt><trkpt lat="42.48565915575604" lon="13.794574517105119"><ele>584.0</ele><time>2026-03-29T09:35:23Z</time></trkpt><trkpt lat="42.48559613228095" lon="13.794710277362645"><ele>584.0</ele><time>2026-03-29T09:35:24Z</time></trkpt><trkpt lat="42.485521400224656" lon="13.794829739319487"><ele>584.0</ele><time>2026-03-29T09:35:25Z</time></trkpt><trkpt lat="42.48541849775517" lon="13.794915902276232"><ele>584.0</ele><time>2026-03-29T09:35:26Z</time></trkpt><trkpt lat="42.48530886350439" lon="13.794991617475464"><ele>584.0</ele><time>2026-03-29T09:35:27Z</time></trkpt><trkpt lat="42.48518314595913" lon="13.79507623693518"><ele>584.0</ele><time>2026-03-29T09:35:28Z</time></trkpt><trkpt lat="42.48504922349946" lon="13.795177930067256"><ele>584.0</ele><time>2026-03-29T09:35:29Z</time></trkpt><trkpt lat="42.4849008220672" lon="13.795275179839873"><ele>584.0</ele><time>2026-03-29T09:35:30Z</time></trkpt><trkpt lat="42.484765193168016" lon="13.795375181739884"><ele>584.0</ele><time>2026-03-29T09:35:31Z</time></trkpt><trkpt lat="42.48465266774151" lon="13.795479706062522"><ele>584.0</ele><time>2026-03-29T09:35:32Z</time></trkpt><trkpt lat="42.484553222416324" lon="13.795588323898603"><ele>584.0</ele><time>2026-03-29T09:35:33Z</time></trkpt><trkpt lat="42.48445505018106" lon="13.795698382997214"><ele>587.0</ele><time>2026-03-29T09:35:34Z</time></trkpt><trkpt lat="42.48434783725104" lon="13.795768602708952"><ele>590.0</ele><time>2026-03-29T09:35:35Z</time></trkpt><trkpt lat="42.48423436753452" lon="13.795824399701711"><ele>593.0</ele><time>2026-03-29T09:35:36Z</time></trkpt><trkpt lat="42.48410954053739" lon="13.795895431785883"><ele>596.0</ele><time>2026-03-29T09:35:37Z</time></trkpt><trkpt lat="42.483978949919695" lon="13.795941622870204"><ele>595.5</ele><time>2026-03-29T09:35:38Z</time></trkpt><trkpt lat="42.483851130033074" lon="13.796037275153335"><ele>595.0</ele><time>2026-03-29T09:35:39Z</time></trkpt><trkpt lat="42.483735796482804" lon="13.796157646015542"><ele>594.5</ele><time>2026-03-29T09:35:39.999Z</time></trkpt><trkpt lat="42.48363976549951" lon="13.796284659688082"><ele>594.0</ele><time>2026-03-29T09:35:40.999Z</time></trkpt><trkpt lat="42.48355153388111" lon="13.796404012530726"><ele>594.0</ele><time>2026-03-29T09:35:41.999Z</time></trkpt><trkpt lat="42.48344292026522" lon="13.79647265050775"><ele>594.0</ele><time>2026-03-29T09:35:42.999Z</time></trkpt><trkpt lat="42.48333657052627" lon="13.796500131896963"><ele>594.0</ele><time>2026-03-29T09:35:43.999Z</time></trkpt><trkpt lat="42.48324609602949" lon="13.796479264618227"><ele>594.0</ele><time>2026-03-29T09:35:44.999Z</time></trkpt><trkpt lat="42.48313386218557" lon="13.796473870187139"><ele>594.0</ele><time>2026-03-29T09:35:45.999Z</time></trkpt><trkpt lat="42.482999459267425" lon="13.7964254660279"><ele>594.75</ele><time>2026-03-29T09:35:46.999Z</time></trkpt><trkpt lat="42.48286149799907" lon="13.796388197743028"><ele>595.5</ele><time>2026-03-29T09:35:47.999Z</time></trkpt><trkpt lat="42.4827403962316" lon="13.79635290661242"><ele>596.25</ele><time>2026-03-29T09:35:48.999Z</time></trkpt><trkpt lat="42.48262929225664" lon="13.79632312119638"><ele>597.0</ele><time>2026-03-29T09:35:49.999Z</time></trkpt><trkpt lat="42.48253108798472" lon="13.79629263531323"><ele>597.0</ele><time>2026-03-29T09:35:50.999Z</time></trkpt><trkpt lat="42.482447891565016" lon="13.796269062566934"><ele>597.0</ele><time>2026-03-29T09:35:51.999Z</time></trkpt><trkpt lat="42.482377394653724" lon="13.79628050822702"><ele>597.0</ele><time>2026-03-29T09:35:52.999Z</time></trkpt><trkpt lat="42.48230962547043" lon="13.796306801300249"><ele>597.0</ele><time>2026-03-29T09:35:53.999Z</time></trkpt><trkpt lat="42.4822433788889" lon="13.796371037297256"><ele>597.0</ele><time>2026-03-29T09:35:54.999Z</time></trkpt><trkpt lat="42.4821874852061" lon="13.796468463265478"><ele>597.0</ele><time>2026-03-29T09:35:55.999Z</time></trkpt><trkpt lat="42.48212621497065" lon="13.796570369171612"><ele>598.75</ele><time>2026-03-29T09:35:56.999Z</time></trkpt><trkpt lat="42.48206303869865" lon="13.796692273018598"><ele>600.5</ele><time>2026-03-29T09:35:57.999Z</time></trkpt><trkpt lat="42.48198402355905" lon="13.796823544803164"><ele>602.25</ele><time>2026-03-29T09:35:58.999Z</time></trkpt><trkpt lat="42.48190400966812" lon="13.79695478034876"><ele>604.0</ele><time>2026-03-29T09:35:59.999Z</time></trkpt><trkpt lat="42.481822450370586" lon="13.797085098078028"><ele>604.0</ele><time>2026-03-29T09:36:00.999Z</time></trkpt><trkpt lat="42.48175002426331" lon="13.797199667501781"><ele>604.0</ele><time>2026-03-29T09:36:01.999Z</time></trkpt><trkpt lat="42.48168565952585" lon="13.797317341245986"><ele>604.0</ele><time>2026-03-29T09:36:02.999Z</time></trkpt><trkpt lat="42.481623761151916" lon="13.797419363979062"><ele>604.0</ele><time>2026-03-29T09:36:03.999Z</time></trkpt><trkpt lat="42.481616341864395" lon="13.797556914513454"><ele>604.0</ele><time>2026-03-29T09:36:04.999Z</time></trkpt><trkpt lat="42.48162330065263" lon="13.797694908954547"><ele>604.5</ele><time>2026-03-29T09:36:05.999Z</time></trkpt><trkpt lat="42.48166053171674" lon="13.797849541731797"><ele>605.0</ele><time>2026-03-29T09:36:06.999Z</time></trkpt><trkpt lat="42.48171419420779" lon="13.797998415022992"><ele>605.5</ele><time>2026-03-29T09:36:07.999Z</time></trkpt><trkpt lat="42.481742164856406" lon="13.798148200443261"><ele>606.0</ele><time>2026-03-29T09:36:08.999Z</time></trkpt><trkpt lat="42.48174816757306" lon="13.798294071628066"><ele>606.0</ele><time>2026-03-29T09:36:09.999Z</time></trkpt><trkpt lat="42.481725230241054" lon="13.798456179410318"><ele>606.0</ele><time>2026-03-29T09:36:10.999Z</time></trkpt><trkpt lat="42.48168626446399" lon="13.798651518353745"><ele>606.0</ele><time>2026-03-29T09:36:11.999Z</time></trkpt><trkpt lat="42.48167095121852" lon="13.798851070792663"><ele>606.0</ele><time>2026-03-29T09:36:12.999Z</time></trkpt><trkpt lat="42.48165424601959" lon="13.799030285330621"><ele>605.25</ele><time>2026-03-29T09:36:13.999Z</time></trkpt><trkpt lat="42.48161957033379" lon="13.799195810068236"><ele>604.5</ele><time>2026-03-29T09:36:14.999Z</time></trkpt><trkpt lat="42.48154205567129" lon="13.799359585584968"><ele>603.75</ele><time>2026-03-29T09:36:15.999Z</time></trkpt><trkpt lat="42.481469810331966" lon="13.799544469506653"><ele>603.0</ele><time>2026-03-29T09:36:16.999Z</time></trkpt><trkpt lat="42.48139154419524" lon="13.79970417697354"><ele>603.5</ele><time>2026-03-29T09:36:17.999Z</time></trkpt><trkpt lat="42.48131716752767" lon="13.799847796847292"><ele>604.0</ele><time>2026-03-29T09:36:18.999Z</time></trkpt><trkpt lat="42.481243156423936" lon="13.799983886129178"><ele>604.5</ele><time>2026-03-29T09:36:19.999Z</time></trkpt><trkpt lat="42.48116129440134" lon="13.800127889096514"><ele>605.0</ele><time>2026-03-29T09:36:20.999Z</time></trkpt><trkpt lat="42.48108514196955" lon="13.800280380634511"><ele>605.0</ele><time>2026-03-29T09:36:21.999Z</time></trkpt><trkpt lat="42.48101109810281" lon="13.800438542552813"><ele>605.0</ele><time>2026-03-29T09:36:22.999Z</time></trkpt><trkpt lat="42.48093545534904" lon="13.800594281738833"><ele>605.0</ele><time>2026-03-29T09:36:23.999Z</time></trkpt><trkpt lat="42.48086119546752" lon="13.800733842155548"><ele>605.0</ele><time>2026-03-29T09:36:24.999Z</time></trkpt><trkpt lat="42.48080573792701" lon="13.80085372122749"><ele>605.0</ele><time>2026-03-29T09:36:25.999Z</time></trkpt><trkpt lat="42.48077385050832" lon="13.800977719762713"><ele>605.0</ele><time>2026-03-29T09:36:26.999Z</time></trkpt><trkpt lat="42.48075214731613" lon="13.801130411712501"><ele>605.0</ele><time>2026-03-29T09:36:27.999Z</time></trkpt><trkpt lat="42.4807876946838" lon="13.801311394203019"><ele>605.0</ele><time>2026-03-29T09:36:28.999Z</time></trkpt><trkpt lat="42.48083035777223" lon="13.801492595707314"><ele>605.75</ele><time>2026-03-29T09:36:29.999Z</time></trkpt><trkpt lat="42.48086325306309" lon="13.801673657271646"><ele>606.5</ele><time>2026-03-29T09:36:30.999Z</time></trkpt><trkpt lat="42.480893646375286" lon="13.801851044155606"><ele>607.25</ele><time>2026-03-29T09:36:31.999Z</time></trkpt><trkpt lat="42.480893211192516" lon="13.802014999688657"><ele>608.0</ele><time>2026-03-29T09:36:32.999Z</time></trkpt><trkpt lat="42.480857756712595" lon="13.802167308014969"><ele>608.1999999999999</ele><time>2026-03-29T09:36:33.999Z</time></trkpt><trkpt lat="42.48081723417129" lon="13.802330392058114"><ele>608.4</ele><time>2026-03-29T09:36:34.999Z</time></trkpt><trkpt lat="42.48080158315554" lon="13.802467519502295"><ele>608.5999999999999</ele><time>2026-03-29T09:36:35.999Z</time></trkpt><trkpt lat="42.4808033667146" lon="13.802591974197854"><ele>608.8</ele><time>2026-03-29T09:36:36.998Z</time></trkpt><trkpt lat="42.48084159768159" lon="13.8027171922223"><ele>609.0</ele><time>2026-03-29T09:36:37.998Z</time></trkpt><trkpt lat="42.48091698848174" lon="13.802832406768129"><ele>606.25</ele><time>2026-03-29T09:36:38.998Z</time></trkpt><trkpt lat="42.48101494462047" lon="13.80292572765116"><ele>603.5</ele><time>2026-03-29T09:36:39.997Z</time></trkpt><trkpt lat="42.481128537580815" lon="13.80297658397227"><ele>600.75</ele><time>2026-03-29T09:36:40.997Z</time></trkpt><trkpt lat="42.48122940450165" lon="13.803038945202996"><ele>598.0</ele><time>2026-03-29T09:36:41.997Z</time></trkpt><trkpt lat="42.4813109599388" lon="13.803149167204225"><ele>598.0</ele><time>2026-03-29T09:36:42.999Z</time></trkpt><trkpt lat="42.48137043596685" lon="13.803283517575192"><ele>598.0</ele><time>2026-03-29T09:36:43.999Z</time></trkpt><trkpt lat="42.48136889949649" lon="13.803432612489036"><ele>598.0</ele><time>2026-03-29T09:36:44.999Z</time></trkpt><trkpt lat="42.48137069512042" lon="13.80361067180966"><ele>598.0</ele><time>2026-03-29T09:36:45.999Z</time></trkpt><trkpt lat="42.481371954620606" lon="13.80379814802084"><ele>598.5</ele><time>2026-03-29T09:36:46.999Z</time></trkpt><trkpt lat="42.48137137042465" lon="13.803994037234292"><ele>599.0</ele><time>2026-03-29T09:36:47.999Z</time></trkpt><trkpt lat="42.48137666994977" lon="13.804166570450265"><ele>599.5</ele><time>2026-03-29T09:36:48.999Z</time></trkpt><trkpt lat="42.48137542438073" lon="13.80432229432793"><ele>600.0</ele><time>2026-03-29T09:36:49.999Z</time></trkpt><trkpt lat="42.48136985266946" lon="13.804474428104532"><ele>602.2</ele><time>2026-03-29T09:36:50.999Z</time></trkpt><trkpt lat="42.48136809146797" lon="13.804616255050743"><ele>604.4</ele><time>2026-03-29T09:36:51.999Z</time></trkpt><trkpt lat="42.4813655498309" lon="13.804756982787442"><ele>606.6</ele><time>2026-03-29T09:36:52.999Z</time></trkpt><trkpt lat="42.481356790930384" lon="13.80487616549669"><ele>608.8</ele><time>2026-03-29T09:36:53.999Z</time></trkpt><trkpt lat="42.481372743903385" lon="13.804978900397515"><ele>611.0</ele><time>2026-03-29T09:36:54.999Z</time></trkpt><trkpt lat="42.481400385158274" lon="13.80508151769869"><ele>611.0</ele><time>2026-03-29T09:36:55.999Z</time></trkpt><trkpt lat="42.481459563526094" lon="13.805162331732978"><ele>611.0</ele><time>2026-03-29T09:36:56.999Z</time></trkpt><trkpt lat="42.48154937116369" lon="13.80521391267139"><ele>611.0</ele><time>2026-03-29T09:36:57.999Z</time></trkpt><trkpt lat="42.481652970503205" lon="13.805243534806655"><ele>611.0</ele><time>2026-03-29T09:36:58.999Z</time></trkpt><trkpt lat="42.48176572751122" lon="13.80522360717418"><ele>611.0</ele><time>2026-03-29T09:36:59.999Z</time></trkpt><trkpt lat="42.48188628193497" lon="13.80517832550946"><ele>611.0</ele><time>2026-03-29T09:37:00.999Z</time></trkpt><trkpt lat="42.481989774380175" lon="13.805117175534196"><ele>611.0</ele><time>2026-03-29T09:37:01.999Z</time></trkpt><trkpt lat="42.48209495106239" lon="13.805086386615908"><ele>611.0</ele><time>2026-03-29T09:37:02.999Z</time></trkpt><trkpt lat="42.48219536689024" lon="13.805101772135016"><ele>611.0</ele><time>2026-03-29T09:37:03.999Z</time></trkpt><trkpt lat="42.482287374291886" lon="13.805129090467343"><ele>611.0</ele><time>2026-03-29T09:37:04.999Z</time></trkpt><trkpt lat="42.482378364108044" lon="13.805183578880861"><ele>612.5</ele><time>2026-03-29T09:37:05.999Z</time></trkpt><trkpt lat="42.48244321464259" lon="13.80532307008165"><ele>614.0</ele><time>2026-03-29T09:37:06.999Z</time></trkpt><trkpt lat="42.48252027985253" lon="13.805436462779197"><ele>615.5</ele><time>2026-03-29T09:37:07.999Z</time></trkpt><trkpt lat="42.482598781580464" lon="13.805557522897645"><ele>617.0</ele><time>2026-03-29T09:37:08.999Z</time></trkpt><trkpt lat="42.48269728196728" lon="13.805644186660876"><ele>617.0</ele><time>2026-03-29T09:37:09.999Z</time></trkpt><trkpt lat="42.48280056249321" lon="13.805710427604177"><ele>617.0</ele><time>2026-03-29T09:37:10.999Z</time></trkpt><trkpt lat="42.482915334528506" lon="13.805769553883849"><ele>617.0</ele><time>2026-03-29T09:37:11.999Z</time></trkpt><trkpt lat="42.48303741699453" lon="13.805823715470801"><ele>617.0</ele><time>2026-03-29T09:37:12.999Z</time></trkpt><trkpt lat="42.483162129151445" lon="13.805864626861407"><ele>616.4</ele><time>2026-03-29T09:37:13.999Z</time></trkpt><trkpt lat="42.48328822003903" lon="13.805903145721645"><ele>615.8000000000001</ele><time>2026-03-29T09:37:14.999Z</time></trkpt><trkpt lat="42.48339732971916" lon="13.80593740785388"><ele>615.2</ele><time>2026-03-29T09:37:15.999Z</time></trkpt><trkpt lat="42.48349998735288" lon="13.80597236550178"><ele>614.6</ele><time>2026-03-29T09:37:16.999Z</time></trkpt><trkpt lat="42.48358818777808" lon="13.806030939850803"><ele>614.0</ele><time>2026-03-29T09:37:17.999Z</time></trkpt><trkpt lat="42.48365141235991" lon="13.806134228899134"><ele>614.0</ele><time>2026-03-29T09:37:18.999Z</time></trkpt><trkpt lat="42.48368168964848" lon="13.80626838514924"><ele>614.0</ele><time>2026-03-29T09:37:19.999Z</time></trkpt><trkpt lat="42.483655770452216" lon="13.806420278904119"><ele>614.0</ele><time>2026-03-29T09:37:20.999Z</time></trkpt><trkpt lat="42.48366477457559" lon="13.806593419679595"><ele>614.0</ele><time>2026-03-29T09:37:21.999Z</time></trkpt><trkpt lat="42.483657671392464" lon="13.806746860519894"><ele>611.8</ele><time>2026-03-29T09:37:22.999Z</time></trkpt><trkpt lat="42.48365168814908" lon="13.80689184400602"><ele>609.5999999999999</ele><time>2026-03-29T09:37:23.999Z</time></trkpt><trkpt lat="42.483623880083634" lon="13.80700200249598"><ele>607.4</ele><time>2026-03-29T09:37:24.999Z</time></trkpt><trkpt lat="42.483552864341036" lon="13.807060476398407"><ele>605.1999999999999</ele><time>2026-03-29T09:37:25.999Z</time></trkpt><trkpt lat="42.483471373435776" lon="13.807088688531344"><ele>603.0</ele><time>2026-03-29T09:37:26.999Z</time></trkpt><trkpt lat="42.483367440265944" lon="13.807109015840194"><ele>603.0</ele><time>2026-03-29T09:37:27.999Z</time></trkpt><trkpt lat="42.48324192605399" lon="13.80713183361424"><ele>603.0</ele><time>2026-03-29T09:37:28.999Z</time></trkpt><trkpt lat="42.48309842752148" lon="13.807097557062997"><ele>603.0</ele><time>2026-03-29T09:37:29.999Z</time></trkpt><trkpt lat="42.48294738652827" lon="13.807086238194456"><ele>603.0</ele><time>2026-03-29T09:37:30.999Z</time></trkpt><trkpt lat="42.48278353894561" lon="13.8071028412097"><ele>603.0</ele><time>2026-03-29T09:37:31.999Z</time></trkpt><trkpt lat="42.48263705837538" lon="13.80710078968029"><ele>603.0</ele><time>2026-03-29T09:37:32.999Z</time></trkpt><trkpt lat="42.48249489314299" lon="13.807103791516557"><ele>603.0</ele><time>2026-03-29T09:37:33.999Z</time></trkpt><trkpt lat="42.48235838368935" lon="13.807119949373039"><ele>603.0</ele><time>2026-03-29T09:37:34.999Z</time></trkpt><trkpt lat="42.48222349564524" lon="13.807144591344338"><ele>604.0</ele><time>2026-03-29T09:37:35.999Z</time></trkpt><trkpt lat="42.48208622760373" lon="13.807198792606217"><ele>605.0</ele><time>2026-03-29T09:37:36.999Z</time></trkpt><trkpt lat="42.48193771616836" lon="13.80727054773592"><ele>606.0</ele><time>2026-03-29T09:37:37.999Z</time></trkpt><trkpt lat="42.48179988688929" lon="13.807341016383274"><ele>607.0</ele><time>2026-03-29T09:37:38.999Z</time></trkpt><trkpt lat="42.481665491461705" lon="13.807405769662527"><ele>607.0</ele><time>2026-03-29T09:37:39.999Z</time></trkpt><trkpt lat="42.48155033155899" lon="13.807482201854482"><ele>607.0</ele><time>2026-03-29T09:37:40.999Z</time></trkpt><trkpt lat="42.48145269663903" lon="13.807594344462142"><ele>607.0</ele><time>2026-03-29T09:37:41.999Z</time></trkpt><trkpt lat="42.481369486366475" lon="13.807748587758818"><ele>607.0</ele><time>2026-03-29T09:37:42.999Z</time></trkpt><trkpt lat="42.4813030529559" lon="13.807925198078102"><ele>608.0</ele><time>2026-03-29T09:37:43.999Z</time></trkpt><trkpt lat="42.481248222782696" lon="13.80809836293595"><ele>609.0</ele><time>2026-03-29T09:37:44.999Z</time></trkpt><trkpt lat="42.48120214852614" lon="13.808267000544465"><ele>610.0</ele><time>2026-03-29T09:37:45.999Z</time></trkpt><trkpt lat="42.481185256731194" lon="13.808425933758743"><ele>611.0</ele><time>2026-03-29T09:37:46.999Z</time></trkpt><trkpt lat="42.48112077853837" lon="13.808543680429066"><ele>605.25</ele><time>2026-03-29T09:37:47.999Z</time></trkpt><trkpt lat="42.48102267375098" lon="13.808643299697977"><ele>599.5</ele><time>2026-03-29T09:37:48.999Z</time></trkpt><trkpt lat="42.48090099055154" lon="13.808726941431592"><ele>593.75</ele><time>2026-03-29T09:37:49.999Z</time></trkpt><trkpt lat="42.48075793830309" lon="13.808750940753061"><ele>588.0</ele><time>2026-03-29T09:37:50.999Z</time></trkpt><trkpt lat="42.480621152825385" lon="13.808809951117643"><ele>588.0</ele><time>2026-03-29T09:37:51.999Z</time></trkpt><trkpt lat="42.48048749879289" lon="13.808818703282506"><ele>588.0</ele><time>2026-03-29T09:37:52.999Z</time></trkpt><trkpt lat="42.48036272375956" lon="13.808788863187713"><ele>588.0</ele><time>2026-03-29T09:37:53.999Z</time></trkpt><trkpt lat="42.48024807871304" lon="13.808795821070792"><ele>588.0</ele><time>2026-03-29T09:37:54.998Z</time></trkpt><trkpt lat="42.48016020702478" lon="13.808798395752454"><ele>589.0</ele><time>2026-03-29T09:37:55.998Z</time></trkpt><trkpt lat="42.48008202326678" lon="13.808864151627365"><ele>590.0</ele><time>2026-03-29T09:37:56.998Z</time></trkpt><trkpt lat="42.48001564503099" lon="13.808988633203647"><ele>591.0</ele><time>2026-03-29T09:37:57.998Z</time></trkpt><trkpt lat="42.47996547269227" lon="13.809154263651555"><ele>592.0</ele><time>2026-03-29T09:37:58.998Z</time></trkpt><trkpt lat="42.479935759461526" lon="13.809344683204307"><ele>592.0</ele><time>2026-03-29T09:37:59.998Z</time></trkpt><trkpt lat="42.47987794289785" lon="13.809540899615529"><ele>592.0</ele><time>2026-03-29T09:38:00.998Z</time></trkpt><trkpt lat="42.479829826842426" lon="13.80974526269137"><ele>592.0</ele><time>2026-03-29T09:38:01.998Z</time></trkpt><trkpt lat="42.47980376342065" lon="13.809933314284933"><ele>592.0</ele><time>2026-03-29T09:38:02.998Z</time></trkpt><trkpt lat="42.479775205235285" lon="13.8101224590778"><ele>592.0</ele><time>2026-03-29T09:38:03.998Z</time></trkpt><trkpt lat="42.479786668317004" lon="13.810343121471465"><ele>592.0</ele><time>2026-03-29T09:38:04.998Z</time></trkpt><trkpt lat="42.479821567582235" lon="13.810553575966757"><ele>591.75</ele><time>2026-03-29T09:38:05.998Z</time></trkpt><trkpt lat="42.47986199740943" lon="13.810738784775477"><ele>591.5</ele><time>2026-03-29T09:38:06.998Z</time></trkpt><trkpt lat="42.47991418112591" lon="13.810914647060377"><ele>591.25</ele><time>2026-03-29T09:38:07.998Z</time></trkpt><trkpt lat="42.47999669573076" lon="13.811062516934982"><ele>591.0</ele><time>2026-03-29T09:38:08.998Z</time></trkpt><trkpt lat="42.480083200293706" lon="13.811199357506883"><ele>590.6666666666666</ele><time>2026-03-29T09:38:09.998Z</time></trkpt><trkpt lat="42.480157073383985" lon="13.811323750258323"><ele>590.3333333333334</ele><time>2026-03-29T09:38:10.998Z</time></trkpt><trkpt lat="42.48019671143629" lon="13.811427013875704"><ele>590.0</ele><time>2026-03-29T09:38:11.998Z</time></trkpt><trkpt lat="42.48020123476365" lon="13.811534917276212"><ele>589.6666666666667</ele><time>2026-03-29T09:38:12.998Z</time></trkpt><trkpt lat="42.480165762462484" lon="13.81162108957481"><ele>589.3333333333334</ele><time>2026-03-29T09:38:13.998Z</time></trkpt><trkpt lat="42.48008435849264" lon="13.811655334509451"><ele>589.0</ele><time>2026-03-29T09:38:14.998Z</time></trkpt><trkpt lat="42.4799840409637" lon="13.811634512940783"><ele>589.0</ele><time>2026-03-29T09:38:15.998Z</time></trkpt><trkpt lat="42.47988532097264" lon="13.81159967854736"><ele>589.0</ele><time>2026-03-29T09:38:16.998Z</time></trkpt><trkpt lat="42.479787665656" lon="13.811587501175566"><ele>589.0</ele><time>2026-03-29T09:38:17.998Z</time></trkpt><trkpt lat="42.47968795055172" lon="13.811576573120997"><ele>589.0</ele><time>2026-03-29T09:38:18.998Z</time></trkpt><trkpt lat="42.47959119942414" lon="13.811580767497619"><ele>589.0</ele><time>2026-03-29T09:38:19.998Z</time></trkpt><trkpt lat="42.4795058302321" lon="13.811694904526318"><ele>587.25</ele><time>2026-03-29T09:38:20.998Z</time></trkpt><trkpt lat="42.479425381507994" lon="13.811833108206267"><ele>585.5</ele><time>2026-03-29T09:38:21.998Z</time></trkpt><trkpt lat="42.47933608194431" lon="13.811977736329109"><ele>583.75</ele><time>2026-03-29T09:38:22.998Z</time></trkpt><trkpt lat="42.479262806728826" lon="13.812113125662043"><ele>582.0</ele><time>2026-03-29T09:38:23.998Z</time></trkpt><trkpt lat="42.47919309527613" lon="13.812232839626729"><ele>582.0</ele><time>2026-03-29T09:38:24.998Z</time></trkpt><trkpt lat="42.479117516793785" lon="13.812337138424278"><ele>582.0</ele><time>2026-03-29T09:38:25.998Z</time></trkpt><trkpt lat="42.47902277276374" lon="13.81240678003403"><ele>582.0</ele><time>2026-03-29T09:38:26.998Z</time></trkpt><trkpt lat="42.478924052123" lon="13.812426671281612"><ele>582.0</ele><time>2026-03-29T09:38:27.998Z</time></trkpt><trkpt lat="42.47882692714219" lon="13.81244199317402"><ele>582.0</ele><time>2026-03-29T09:38:28.998Z</time></trkpt><trkpt lat="42.4787354880851" lon="13.812480909757866"><ele>584.8333333333334</ele><time>2026-03-29T09:38:29.998Z</time></trkpt><trkpt lat="42.478641340796806" lon="13.8125012532446"><ele>587.6666666666666</ele><time>2026-03-29T09:38:30.998Z</time></trkpt><trkpt lat="42.47855526750733" lon="13.812541040254168"><ele>590.5</ele><time>2026-03-29T09:38:31.998Z</time></trkpt><trkpt lat="42.47848510410653" lon="13.812607538952419"><ele>593.3333333333333</ele><time>2026-03-29T09:38:32.998Z</time></trkpt><trkpt lat="42.478421561598054" lon="13.812668324478533"><ele>596.1666666666666</ele><time>2026-03-29T09:38:33.998Z</time></trkpt><trkpt lat="42.47838425981852" lon="13.812765032005563"><ele>599.0</ele><time>2026-03-29T09:38:34.998Z</time></trkpt><trkpt lat="42.47837196316543" lon="13.812883159488242"><ele>599.0</ele><time>2026-03-29T09:38:35.998Z</time></trkpt><trkpt lat="42.47841251128981" lon="13.813007952581764"><ele>599.0</ele><time>2026-03-29T09:38:36.998Z</time></trkpt><trkpt lat="42.47845537692783" lon="13.813130259137987"><ele>599.0</ele><time>2026-03-29T09:38:37.998Z</time></trkpt><trkpt lat="42.47850093174788" lon="13.813239355999732"><ele>599.0</ele><time>2026-03-29T09:38:38.998Z</time></trkpt><trkpt lat="42.478562417114276" lon="13.81331210055243"><ele>599.0</ele><time>2026-03-29T09:38:39.998Z</time></trkpt><trkpt lat="42.478648517968644" lon="13.813343573072117"><ele>599.0</ele><time>2026-03-29T09:38:40.998Z</time></trkpt><trkpt lat="42.47874619429383" lon="13.813342453132123"><ele>599.0</ele><time>2026-03-29T09:38:41.998Z</time></trkpt><trkpt lat="42.47881843443394" lon="13.813345139396219"><ele>599.0</ele><time>2026-03-29T09:38:42.998Z</time></trkpt><trkpt lat="42.478885732014774" lon="13.813381778534364"><ele>599.0</ele><time>2026-03-29T09:38:43.998Z</time></trkpt><trkpt lat="42.47894462356163" lon="13.81344223695003"><ele>599.0</ele><time>2026-03-29T09:38:44.998Z</time></trkpt><trkpt lat="42.47899014149172" lon="13.81353376580962"><ele>599.0</ele><time>2026-03-29T09:38:45.998Z</time></trkpt><trkpt lat="42.47901705532442" lon="13.813653029700527"><ele>593.0</ele><time>2026-03-29T09:38:46.998Z</time></trkpt><trkpt lat="42.479021164341034" lon="13.813788241340655"><ele>587.0</ele><time>2026-03-29T09:38:47.998Z</time></trkpt><trkpt lat="42.47897827932901" lon="13.813908672305185"><ele>581.0</ele><time>2026-03-29T09:38:49Z</time></trkpt><trkpt lat="42.4789312935327" lon="13.814040338401334"><ele>575.0</ele><time>2026-03-29T09:38:50Z</time></trkpt><trkpt lat="42.478868543237084" lon="13.814178437606433"><ele>569.0</ele><time>2026-03-29T09:38:51Z</time></trkpt><trkpt lat="42.478805209249906" lon="13.814340298871093"><ele>572.5</ele><time>2026-03-29T09:38:52Z</time></trkpt><trkpt lat="42.47872667422261" lon="13.814496283058519"><ele>576.0</ele><time>2026-03-29T09:38:53Z</time></trkpt><trkpt lat="42.478653430476285" lon="13.81465031017199"><ele>579.5</ele><time>2026-03-29T09:38:54Z</time></trkpt><trkpt lat="42.47857693461882" lon="13.814807516972731"><ele>583.0</ele><time>2026-03-29T09:38:55Z</time></trkpt><trkpt lat="42.47851672038751" lon="13.814937186341322"><ele>583.0</ele><time>2026-03-29T09:38:56Z</time></trkpt><trkpt lat="42.478455604301004" lon="13.815096836604074"><ele>583.0</ele><time>2026-03-29T09:38:57Z</time></trkpt><trkpt lat="42.47841134881061" lon="13.815278213570856"><ele>583.0</ele><time>2026-03-29T09:38:58Z</time></trkpt><trkpt lat="42.47839044286072" lon="13.815473804357325"><ele>583.0</ele><time>2026-03-29T09:38:59Z</time></trkpt><trkpt lat="42.478378445735096" lon="13.815661395800511"><ele>580.5</ele><time>2026-03-29T09:39:00Z</time></trkpt><trkpt lat="42.47836257816067" lon="13.815844952578352"><ele>578.0</ele><time>2026-03-29T09:39:01Z</time></trkpt><trkpt lat="42.478304838049596" lon="13.816011722285891"><ele>575.5</ele><time>2026-03-29T09:39:02Z</time></trkpt><trkpt lat="42.47824033792874" lon="13.81617776144573"><ele>573.0</ele><time>2026-03-29T09:39:03Z</time></trkpt><trkpt lat="42.47817082689039" lon="13.816355329717071"><ele>571.0</ele><time>2026-03-29T09:39:04Z</time></trkpt><trkpt lat="42.47810735726082" lon="13.816523133417933"><ele>569.0</ele><time>2026-03-29T09:39:05Z</time></trkpt><trkpt lat="42.47803953813587" lon="13.81667393462039"><ele>567.0</ele><time>2026-03-29T09:39:06Z</time></trkpt><trkpt lat="42.47796827712695" lon="13.816813605772968"><ele>565.0</ele><time>2026-03-29T09:39:07Z</time></trkpt><trkpt lat="42.47789541770083" lon="13.816950610567563"><ele>565.0</ele><time>2026-03-29T09:39:08Z</time></trkpt><trkpt lat="42.477832837559966" lon="13.817084963932782"><ele>565.0</ele><time>2026-03-29T09:39:08.999Z</time></trkpt><trkpt lat="42.47778809894836" lon="13.817205619283833"><ele>565.0</ele><time>2026-03-29T09:39:09.999Z</time></trkpt><trkpt lat="42.477754862528776" lon="13.817319478374463"><ele>565.0</ele><time>2026-03-29T09:39:10.999Z</time></trkpt><trkpt lat="42.47774531409299" lon="13.817453465296765"><ele>565.0</ele><time>2026-03-29T09:39:11.999Z</time></trkpt><trkpt lat="42.4777660763478" lon="13.817601316151237"><ele>563.5</ele><time>2026-03-29T09:39:12.999Z</time></trkpt><trkpt lat="42.477810983789276" lon="13.817748572334132"><ele>562.0</ele><time>2026-03-29T09:39:13.999Z</time></trkpt><trkpt lat="42.47785759344565" lon="13.817885425688338"><ele>560.5</ele><time>2026-03-29T09:39:14.999Z</time></trkpt><trkpt lat="42.477902589494946" lon="13.818032354269778"><ele>559.0</ele><time>2026-03-29T09:39:15.999Z</time></trkpt><trkpt lat="42.477941435517465" lon="13.81817759350189"><ele>559.0</ele><time>2026-03-29T09:39:16.999Z</time></trkpt><trkpt lat="42.47796705967274" lon="13.818331496295645"><ele>559.0</ele><time>2026-03-29T09:39:17.999Z</time></trkpt><trkpt lat="42.47798053245532" lon="13.818494664365184"><ele>559.0</ele><time>2026-03-29T09:39:18.999Z</time></trkpt><trkpt lat="42.47796530776825" lon="13.818658961789867"><ele>559.0</ele><time>2026-03-29T09:39:19.999Z</time></trkpt><trkpt lat="42.477976339420564" lon="13.818827216197256"><ele>559.0</ele><time>2026-03-29T09:39:20.999Z</time></trkpt><trkpt lat="42.47795123471624" lon="13.818983222357062"><ele>559.0</ele><time>2026-03-29T09:39:21.999Z</time></trkpt><trkpt lat="42.47790153859345" lon="13.819127269855619"><ele>559.0</ele><time>2026-03-29T09:39:22.999Z</time></trkpt><trkpt lat="42.47788331296303" lon="13.819280363291915"><ele>559.0</ele><time>2026-03-29T09:39:23.999Z</time></trkpt><trkpt lat="42.47785767945615" lon="13.819423830753731"><ele>558.8</ele><time>2026-03-29T09:39:24.999Z</time></trkpt><trkpt lat="42.47785554727729" lon="13.819565843103101"><ele>558.5999999999999</ele><time>2026-03-29T09:39:25.999Z</time></trkpt><trkpt lat="42.47788064163978" lon="13.819711363306874"><ele>558.4</ele><time>2026-03-29T09:39:26.999Z</time></trkpt><trkpt lat="42.477923050541214" lon="13.819851307605184"><ele>558.1999999999999</ele><time>2026-03-29T09:39:27.999Z</time></trkpt><trkpt lat="42.477937985862994" lon="13.819991183044243"><ele>558.0</ele><time>2026-03-29T09:39:28.999Z</time></trkpt><trkpt lat="42.47796959769366" lon="13.820120662988304"><ele>558.0</ele><time>2026-03-29T09:39:29.999Z</time></trkpt><trkpt lat="42.47795071828006" lon="13.820257722427606"><ele>558.0</ele><time>2026-03-29T09:39:30.999Z</time></trkpt><trkpt lat="42.477927000849064" lon="13.820387178997164"><ele>558.0</ele><time>2026-03-29T09:39:31.999Z</time></trkpt><trkpt lat="42.47787803758847" lon="13.820493222282023"><ele>558.0</ele><time>2026-03-29T09:39:32.999Z</time></trkpt><trkpt lat="42.47782034759228" lon="13.820616678898455"><ele>558.0</ele><time>2026-03-29T09:39:33.999Z</time></trkpt><trkpt lat="42.477772932008826" lon="13.820733251248353"><ele>554.4</ele><time>2026-03-29T09:39:34.999Z</time></trkpt><trkpt lat="42.477740359926734" lon="13.82085351276975"><ele>550.8</ele><time>2026-03-29T09:39:35.999Z</time></trkpt><trkpt lat="42.47773012469442" lon="13.820993936442129"><ele>547.2</ele><time>2026-03-29T09:39:36.999Z</time></trkpt><trkpt lat="42.47772106223743" lon="13.821142592574363"><ele>543.6</ele><time>2026-03-29T09:39:37.999Z</time></trkpt><trkpt lat="42.47771774492106" lon="13.821308663059256"><ele>540.0</ele><time>2026-03-29T09:39:38.999Z</time></trkpt><trkpt lat="42.4777207620845" lon="13.82145668304845"><ele>540.0</ele><time>2026-03-29T09:39:39.999Z</time></trkpt><trkpt lat="42.477721732974054" lon="13.821609642106399"><ele>540.0</ele><time>2026-03-29T09:39:40.999Z</time></trkpt><trkpt lat="42.477726459425156" lon="13.821769928760988"><ele>540.0</ele><time>2026-03-29T09:39:41.999Z</time></trkpt><trkpt lat="42.477735711398694" lon="13.821940357382479"><ele>540.0</ele><time>2026-03-29T09:39:42.999Z</time></trkpt><trkpt lat="42.47772980477165" lon="13.82211399613905"><ele>539.5</ele><time>2026-03-29T09:39:43.999Z</time></trkpt><trkpt lat="42.47773375832472" lon="13.822275325370928"><ele>539.0</ele><time>2026-03-29T09:39:44.999Z</time></trkpt><trkpt lat="42.47773594714041" lon="13.822433186313416"><ele>538.5</ele><time>2026-03-29T09:39:45.999Z</time></trkpt><trkpt lat="42.477743210469846" lon="13.822588160503125"><ele>538.0</ele><time>2026-03-29T09:39:46.999Z</time></trkpt><trkpt lat="42.4777238431751" lon="13.822737599090027"><ele>537.6666666666667</ele><time>2026-03-29T09:39:47.999Z</time></trkpt><trkpt lat="42.477702600573934" lon="13.822871419499215"><ele>537.3333333333334</ele><time>2026-03-29T09:39:48.999Z</time></trkpt><trkpt lat="42.47768093193459" lon="13.822985463285361"><ele>537.0</ele><time>2026-03-29T09:39:49.999Z</time></trkpt><trkpt lat="42.47765582943909" lon="13.823090620167672"><ele>536.6666666666666</ele><time>2026-03-29T09:39:50.999Z</time></trkpt><trkpt lat="42.47763247903332" lon="13.823194437972376"><ele>536.3333333333333</ele><time>2026-03-29T09:39:51.999Z</time></trkpt><trkpt lat="42.47760768326839" lon="13.823314413258895"><ele>536.0</ele><time>2026-03-29T09:39:52.999Z</time></trkpt><trkpt lat="42.477593765909944" lon="13.823460097144006"><ele>536.0</ele><time>2026-03-29T09:39:53.999Z</time></trkpt><trkpt lat="42.47758883274566" lon="13.823620535812118"><ele>536.0</ele><time>2026-03-29T09:39:54.999Z</time></trkpt><trkpt lat="42.47759718740676" lon="13.823802840161832"><ele>536.0</ele><time>2026-03-29T09:39:55.999Z</time></trkpt><trkpt lat="42.477579991233156" lon="13.82396946909745"><ele>536.0</ele><time>2026-03-29T09:39:56.999Z</time></trkpt><trkpt lat="42.47758966147446" lon="13.8241211700523"><ele>536.0</ele><time>2026-03-29T09:39:57.999Z</time></trkpt><trkpt lat="42.47753023736802" lon="13.824237139138173"><ele>536.0</ele><time>2026-03-29T09:39:58.999Z</time></trkpt><trkpt lat="42.47747251229043" lon="13.824316752043055"><ele>536.0</ele><time>2026-03-29T09:39:59.999Z</time></trkpt><trkpt lat="42.47739747387119" lon="13.824384155630893"><ele>536.0</ele><time>2026-03-29T09:40:00.999Z</time></trkpt><trkpt lat="42.477308489435096" lon="13.824472850194912"><ele>536.0</ele><time>2026-03-29T09:40:01.999Z</time></trkpt><trkpt lat="42.47720009893837" lon="13.824529567404346"><ele>534.6</ele><time>2026-03-29T09:40:02.999Z</time></trkpt><trkpt lat="42.47709289445195" lon="13.824587510296059"><ele>533.2</ele><time>2026-03-29T09:40:03.999Z</time></trkpt><trkpt lat="42.47698805736457" lon="13.82463934897775"><ele>531.8</ele><time>2026-03-29T09:40:04.999Z</time></trkpt><trkpt lat="42.47688314501293" lon="13.82469166019153"><ele>530.4</ele><time>2026-03-29T09:40:05.999Z</time></trkpt><trkpt lat="42.476782899473875" lon="13.824739027921147"><ele>529.0</ele><time>2026-03-29T09:40:06.999Z</time></trkpt><trkpt lat="42.47668766856273" lon="13.824793272865294"><ele>529.0</ele><time>2026-03-29T09:40:07.998Z</time></trkpt><trkpt lat="42.47660190356747" lon="13.824865652907635"><ele>529.0</ele><time>2026-03-29T09:40:08.998Z</time></trkpt><trkpt lat="42.47654262425951" lon="13.824954597925913"><ele>529.0</ele><time>2026-03-29T09:40:09.998Z</time></trkpt><trkpt lat="42.47652022294283" lon="13.825054579070427"><ele>529.0</ele><time>2026-03-29T09:40:10.998Z</time></trkpt><trkpt lat="42.47649412237629" lon="13.825158020976378"><ele>529.0</ele><time>2026-03-29T09:40:11.998Z</time></trkpt><trkpt lat="42.47653644669501" lon="13.825285706960958"><ele>526.8</ele><time>2026-03-29T09:40:12.998Z</time></trkpt><trkpt lat="42.476589757341706" lon="13.825395616841718"><ele>524.5999999999999</ele><time>2026-03-29T09:40:13.998Z</time></trkpt><trkpt lat="42.47667023515055" lon="13.825480563000491"><ele>522.4</ele><time>2026-03-29T09:40:14.998Z</time></trkpt><trkpt lat="42.47677617486233" lon="13.825552967053419"><ele>520.1999999999999</ele><time>2026-03-29T09:40:15.998Z</time></trkpt><trkpt lat="42.476896199629955" lon="13.825606699877973"><ele>518.0</ele><time>2026-03-29T09:40:16.998Z</time></trkpt><trkpt lat="42.47701660483681" lon="13.825665155156354"><ele>520.25</ele><time>2026-03-29T09:40:17.998Z</time></trkpt><trkpt lat="42.477143285227626" lon="13.825734899743424"><ele>522.5</ele><time>2026-03-29T09:40:18.998Z</time></trkpt><trkpt lat="42.477273007281" lon="13.825816331411463"><ele>524.75</ele><time>2026-03-29T09:40:19.998Z</time></trkpt><trkpt lat="42.47740162670873" lon="13.825890277921786"><ele>527.0</ele><time>2026-03-29T09:40:20.998Z</time></trkpt><trkpt lat="42.47752756501149" lon="13.825968081581337"><ele>523.75</ele><time>2026-03-29T09:40:21.998Z</time></trkpt><trkpt lat="42.477646595493496" lon="13.826030588527527"><ele>520.5</ele><time>2026-03-29T09:40:22.998Z</time></trkpt><trkpt lat="42.47775815881624" lon="13.826092813242024"><ele>517.25</ele><time>2026-03-29T09:40:23.998Z</time></trkpt><trkpt lat="42.47787190691638" lon="13.826169970849113"><ele>514.0</ele><time>2026-03-29T09:40:24.998Z</time></trkpt><trkpt lat="42.47798202186772" lon="13.826237761808747"><ele>514.0</ele><time>2026-03-29T09:40:25.998Z</time></trkpt><trkpt lat="42.47809145089436" lon="13.826296153715777"><ele>514.0</ele><time>2026-03-29T09:40:26.998Z</time></trkpt><trkpt lat="42.47820036760192" lon="13.826355456078591"><ele>514.0</ele><time>2026-03-29T09:40:27.998Z</time></trkpt><trkpt lat="42.478305427225386" lon="13.8264176755197"><ele>514.0</ele><time>2026-03-29T09:40:28.998Z</time></trkpt><trkpt lat="42.47842063828425" lon="13.82648391882752"><ele>514.0</ele><time>2026-03-29T09:40:29.998Z</time></trkpt><trkpt lat="42.478538155067035" lon="13.826555135367922"><ele>514.0</ele><time>2026-03-29T09:40:30.998Z</time></trkpt><trkpt lat="42.478654314172054" lon="13.826623763672238"><ele>514.0</ele><time>2026-03-29T09:40:31.998Z</time></trkpt><trkpt lat="42.47876709508922" lon="13.826687605002324"><ele>514.0</ele><time>2026-03-29T09:40:32.998Z</time></trkpt><trkpt lat="42.47886335365875" lon="13.826753288250575"><ele>513.2</ele><time>2026-03-29T09:40:33.998Z</time></trkpt><trkpt lat="42.47894072104668" lon="13.826815244596208"><ele>512.4</ele><time>2026-03-29T09:40:34.998Z</time></trkpt><trkpt lat="42.479008822108824" lon="13.826907240316602"><ele>511.6</ele><time>2026-03-29T09:40:35.998Z</time></trkpt><trkpt lat="42.47907658398443" lon="13.82701545994086"><ele>510.8</ele><time>2026-03-29T09:40:36.998Z</time></trkpt><trkpt lat="42.479137805377256" lon="13.827145985370224"><ele>510.0</ele><time>2026-03-29T09:40:37.998Z</time></trkpt><trkpt lat="42.47915784503502" lon="13.827297774614875"><ele>510.0</ele><time>2026-03-29T09:40:38.998Z</time></trkpt><trkpt lat="42.47917854544461" lon="13.82746728868243"><ele>510.0</ele><time>2026-03-29T09:40:39.998Z</time></trkpt><trkpt lat="42.47921354827846" lon="13.827645455971497"><ele>510.0</ele><time>2026-03-29T09:40:40.998Z</time></trkpt><trkpt lat="42.47923384944296" lon="13.827835407341635"><ele>510.0</ele><time>2026-03-29T09:40:41.998Z</time></trkpt><trkpt lat="42.479249695565485" lon="13.828010045070336"><ele>508.5</ele><time>2026-03-29T09:40:42.998Z</time></trkpt><trkpt lat="42.47926946686314" lon="13.828201360011215"><ele>507.0</ele><time>2026-03-29T09:40:43.998Z</time></trkpt><trkpt lat="42.47929103322922" lon="13.828394939330549"><ele>505.5</ele><time>2026-03-29T09:40:44.998Z</time></trkpt><trkpt lat="42.47931021012845" lon="13.828580203321735"><ele>504.0</ele><time>2026-03-29T09:40:45.998Z</time></trkpt><trkpt lat="42.47933036560529" lon="13.828765212633895"><ele>503.25</ele><time>2026-03-29T09:40:46.998Z</time></trkpt><trkpt lat="42.47934928924034" lon="13.828949772221133"><ele>502.5</ele><time>2026-03-29T09:40:47.998Z</time></trkpt><trkpt lat="42.47936707204548" lon="13.829141208547647"><ele>501.75</ele><time>2026-03-29T09:40:48.998Z</time></trkpt><trkpt lat="42.47938297999634" lon="13.829317162313345"><ele>501.0</ele><time>2026-03-29T09:40:49.998Z</time></trkpt><trkpt lat="42.47939835481825" lon="13.829494584141592"><ele>499.25</ele><time>2026-03-29T09:40:50.998Z</time></trkpt><trkpt lat="42.47941728621928" lon="13.82966591687423"><ele>497.5</ele><time>2026-03-29T09:40:51.998Z</time></trkpt><trkpt lat="42.47943312436519" lon="13.829838476630876"><ele>495.75</ele><time>2026-03-29T09:40:52.998Z</time></trkpt><trkpt lat="42.47945156968838" lon="13.830005950242747"><ele>494.0</ele><time>2026-03-29T09:40:53.998Z</time></trkpt><trkpt lat="42.479480927920896" lon="13.830167342558143"><ele>494.25</ele><time>2026-03-29T09:40:55Z</time></trkpt><trkpt lat="42.479526865559386" lon="13.830324310722043"><ele>494.5</ele><time>2026-03-29T09:40:56Z</time></trkpt><trkpt lat="42.47959456069327" lon="13.83049044742084"><ele>494.75</ele><time>2026-03-29T09:40:57Z</time></trkpt><trkpt lat="42.47967931670712" lon="13.83064134831177"><ele>495.0</ele><time>2026-03-29T09:40:58Z</time></trkpt><trkpt lat="42.47976200426631" lon="13.830794213039058"><ele>495.0</ele><time>2026-03-29T09:40:59Z</time></trkpt><trkpt lat="42.47983740277258" lon="13.830935454703853"><ele>495.0</ele><time>2026-03-29T09:41:00Z</time></trkpt><trkpt lat="42.47991500014974" lon="13.831076475661938"><ele>495.0</ele><time>2026-03-29T09:41:01Z</time></trkpt><trkpt lat="42.47999837375506" lon="13.831204351908314"><ele>495.0</ele><time>2026-03-29T09:41:02Z</time></trkpt><trkpt lat="42.480090171420116" lon="13.831314764895911"><ele>493.4</ele><time>2026-03-29T09:41:03Z</time></trkpt><trkpt lat="42.48019662191957" lon="13.831415527668966"><ele>491.8</ele><time>2026-03-29T09:41:04Z</time></trkpt><trkpt lat="42.48030855756283" lon="13.831498593100058"><ele>490.20000000000005</ele><time>2026-03-29T09:41:05Z</time></trkpt><trkpt lat="42.48039908409567" lon="13.831569433658618"><ele>488.6</ele><time>2026-03-29T09:41:06Z</time></trkpt><trkpt lat="42.48047246151857" lon="13.831628586999097"><ele>487.0</ele><time>2026-03-29T09:41:07Z</time></trkpt><trkpt lat="42.480545246169555" lon="13.831663076626022"><ele>487.00000000000006</ele><time>2026-03-29T09:41:08Z</time></trkpt><trkpt lat="42.48062610868245" lon="13.831662760093032"><ele>487.0</ele><time>2026-03-29T09:41:09Z</time></trkpt><trkpt lat="42.48069310466624" lon="13.831599667645628"><ele>487.0</ele><time>2026-03-29T09:41:10Z</time></trkpt><trkpt lat="42.48074062874108" lon="13.83149739231993"><ele>487.0</ele><time>2026-03-29T09:41:11Z</time></trkpt><trkpt lat="42.48076587395185" lon="13.831376670986407"><ele>487.00000000000006</ele><time>2026-03-29T09:41:12Z</time></trkpt><trkpt lat="42.48078217235392" lon="13.831257413043549"><ele>487.0</ele><time>2026-03-29T09:41:13Z</time></trkpt><trkpt lat="42.48080842145921" lon="13.831156595712628"><ele>487.0</ele><time>2026-03-29T09:41:14Z</time></trkpt><trkpt lat="42.4808653369667" lon="13.831100618790055"><ele>487.0</ele><time>2026-03-29T09:41:15Z</time></trkpt><trkpt lat="42.48093585494989" lon="13.83109552517733"><ele>487.0</ele><time>2026-03-29T09:41:16Z</time></trkpt><trkpt lat="42.481006188616924" lon="13.831143013100458"><ele>487.0</ele><time>2026-03-29T09:41:17Z</time></trkpt><trkpt lat="42.48105413267883" lon="13.831232695527687"><ele>487.0</ele><time>2026-03-29T09:41:18Z</time></trkpt><trkpt lat="42.48106642345495" lon="13.831333287017038"><ele>487.0</ele><time>2026-03-29T09:41:19Z</time></trkpt><trkpt lat="42.48104843919848" lon="13.831425569087541"><ele>487.0</ele><time>2026-03-29T09:41:19.999Z</time></trkpt><trkpt lat="42.481003750768586" lon="13.831498763949654"><ele>487.0</ele><time>2026-03-29T09:41:20.999Z</time></trkpt><trkpt lat="42.48093571697226" lon="13.831548840285231"><ele>487.00000000000006</ele><time>2026-03-29T09:41:21.999Z</time></trkpt><trkpt lat="42.48088299818932" lon="13.831638403083597"><ele>487.00000000000006</ele><time>2026-03-29T09:41:22.999Z</time></trkpt><trkpt lat="42.480797687005314" lon="13.831721243811378"><ele>487.0</ele><time>2026-03-29T09:41:23.999Z</time></trkpt><trkpt lat="42.48069850666351" lon="13.831798248866145"><ele>487.0</ele><time>2026-03-29T09:41:24.999Z</time></trkpt><trkpt lat="42.480586854717295" lon="13.831860070060264"><ele>486.0</ele><time>2026-03-29T09:41:25.999Z</time></trkpt><trkpt lat="42.48045665363013" lon="13.831876996774358"><ele>485.0</ele><time>2026-03-29T09:41:26.999Z</time></trkpt><trkpt lat="42.48033552291924" lon="13.831847722493297"><ele>484.0</ele><time>2026-03-29T09:41:27.999Z</time></trkpt><trkpt lat="42.48021293320824" lon="13.83178766109917"><ele>483.0</ele><time>2026-03-29T09:41:28.999Z</time></trkpt><trkpt lat="42.4800906301698" lon="13.831683362008595"><ele>483.0</ele><time>2026-03-29T09:41:29.999Z</time></trkpt><trkpt lat="42.4799699858678" lon="13.831569780490186"><ele>483.0</ele><time>2026-03-29T09:41:30.999Z</time></trkpt><trkpt lat="42.47984587908346" lon="13.831459530132195"><ele>483.0</ele><time>2026-03-29T09:41:31.999Z</time></trkpt><trkpt lat="42.47971753772078" lon="13.831355098440671"><ele>483.0</ele><time>2026-03-29T09:41:32.999Z</time></trkpt><trkpt lat="42.479572632599194" lon="13.831236915921899"><ele>482.33333333333337</ele><time>2026-03-29T09:41:33.999Z</time></trkpt><trkpt lat="42.47943466751732" lon="13.831123369490914"><ele>481.6666666666667</ele><time>2026-03-29T09:41:34.999Z</time></trkpt><trkpt lat="42.47930112194323" lon="13.831010343925138"><ele>481.0</ele><time>2026-03-29T09:41:35.999Z</time></trkpt><trkpt lat="42.47917282728894" lon="13.830895037918726"><ele>481.0</ele><time>2026-03-29T09:41:36.999Z</time></trkpt><trkpt lat="42.47904559599252" lon="13.830779926891731"><ele>481.0</ele><time>2026-03-29T09:41:37.999Z</time></trkpt><trkpt lat="42.4789228009842" lon="13.830665243878077"><ele>481.0</ele><time>2026-03-29T09:41:38.999Z</time></trkpt><trkpt lat="42.478801836963804" lon="13.830550358062462"><ele>476.0</ele><time>2026-03-29T09:41:39.999Z</time></trkpt><trkpt lat="42.47868249350385" lon="13.830442012678798"><ele>471.0</ele><time>2026-03-29T09:41:40.999Z</time></trkpt><trkpt lat="42.47856417731896" lon="13.830344783944986"><ele>466.0</ele><time>2026-03-29T09:41:41.999Z</time></trkpt><trkpt lat="42.47844674588823" lon="13.830251153185362"><ele>461.0</ele><time>2026-03-29T09:41:42.999Z</time></trkpt><trkpt lat="42.47833483076494" lon="13.830153570943162"><ele>461.0</ele><time>2026-03-29T09:41:43.999Z</time></trkpt><trkpt lat="42.47823221216413" lon="13.830049867333573"><ele>461.0</ele><time>2026-03-29T09:41:44.999Z</time></trkpt><trkpt lat="42.478140214647816" lon="13.829955347315295"><ele>461.0</ele><time>2026-03-29T09:41:45.999Z</time></trkpt><trkpt lat="42.47805746310064" lon="13.829889418254238"><ele>461.0</ele><time>2026-03-29T09:41:46.999Z</time></trkpt><trkpt lat="42.47798496376817" lon="13.829858544789749"><ele>461.0</ele><time>2026-03-29T09:41:47.999Z</time></trkpt><trkpt lat="42.47791134224013" lon="13.829876055818042"><ele>460.99999999999994</ele><time>2026-03-29T09:41:48.999Z</time></trkpt><trkpt lat="42.477849091746535" lon="13.829945718555532"><ele>461.0</ele><time>2026-03-29T09:41:49.999Z</time></trkpt><trkpt lat="42.47780254633389" lon="13.830043182920036"><ele>461.0</ele><time>2026-03-29T09:41:50.999Z</time></trkpt><trkpt lat="42.477795139285526" lon="13.830153972614042"><ele>461.0</ele><time>2026-03-29T09:41:51.999Z</time></trkpt><trkpt lat="42.477830116457746" lon="13.83025401046315"><ele>460.99999999999994</ele><time>2026-03-29T09:41:52.999Z</time></trkpt><trkpt lat="42.47789323194157" lon="13.830336093103584"><ele>461.0</ele><time>2026-03-29T09:41:53.999Z</time></trkpt><trkpt lat="42.47797002260413" lon="13.83037757026922"><ele>461.0</ele><time>2026-03-29T09:41:54.999Z</time></trkpt><trkpt lat="42.478048164144845" lon="13.8303934157962"><ele>461.0</ele><time>2026-03-29T09:41:55.999Z</time></trkpt><trkpt lat="42.478131632590674" lon="13.830418005565358"><ele>461.0</ele><time>2026-03-29T09:41:56.999Z</time></trkpt><trkpt lat="42.478227418305266" lon="13.830457051049493"><ele>461.0</ele><time>2026-03-29T09:41:57.999Z</time></trkpt><trkpt lat="42.478341364128525" lon="13.830538756270574"><ele>461.0</ele><time>2026-03-29T09:41:58.999Z</time></trkpt><trkpt lat="42.47845652442165" lon="13.83063994222591"><ele>461.0</ele><time>2026-03-29T09:41:59.999Z</time></trkpt><trkpt lat="42.478566210963606" lon="13.830740974422518"><ele>461.0</ele><time>2026-03-29T09:42:00.999Z</time></trkpt><trkpt lat="42.47867544486882" lon="13.830845879110361"><ele>461.0</ele><time>2026-03-29T09:42:01.999Z</time></trkpt><trkpt lat="42.47877588007033" lon="13.830962339000257"><ele>461.0</ele><time>2026-03-29T09:42:02.999Z</time></trkpt><trkpt lat="42.478861031812464" lon="13.831094283001999"><ele>462.25</ele><time>2026-03-29T09:42:03.999Z</time></trkpt><trkpt lat="42.4789360926025" lon="13.831243905730691"><ele>463.5</ele><time>2026-03-29T09:42:04.999Z</time></trkpt><trkpt lat="42.479023683580046" lon="13.831403225998793"><ele>464.75</ele><time>2026-03-29T09:42:05.999Z</time></trkpt><trkpt lat="42.47911714249341" lon="13.831578164773747"><ele>466.0</ele><time>2026-03-29T09:42:06.999Z</time></trkpt><trkpt lat="42.47920523837525" lon="13.831752035512764"><ele>461.0</ele><time>2026-03-29T09:42:07.999Z</time></trkpt><trkpt lat="42.47929239156267" lon="13.831938600261578"><ele>456.0</ele><time>2026-03-29T09:42:08.999Z</time></trkpt><trkpt lat="42.479373380353344" lon="13.832150077577767"><ele>451.0</ele><time>2026-03-29T09:42:09.999Z</time></trkpt><trkpt lat="42.479464909147524" lon="13.83234425775263"><ele>451.0</ele><time>2026-03-29T09:42:10.999Z</time></trkpt><trkpt lat="42.47956539657829" lon="13.832523101084304"><ele>451.0</ele><time>2026-03-29T09:42:11.999Z</time></trkpt><trkpt lat="42.47964671757283" lon="13.832704681222452"><ele>451.0</ele><time>2026-03-29T09:42:12.999Z</time></trkpt><trkpt lat="42.479727202458605" lon="13.832881297743096"><ele>452.0</ele><time>2026-03-29T09:42:13.999Z</time></trkpt><trkpt lat="42.479794054847616" lon="13.833036269931238"><ele>453.0</ele><time>2026-03-29T09:42:14.999Z</time></trkpt><trkpt lat="42.479857884891715" lon="13.833166881970167"><ele>454.0</ele><time>2026-03-29T09:42:15.999Z</time></trkpt><trkpt lat="42.47994285222705" lon="13.833285281973794"><ele>455.0</ele><time>2026-03-29T09:42:16.998Z</time></trkpt><trkpt lat="42.48006117726161" lon="13.833389583362846"><ele>451.0</ele><time>2026-03-29T09:42:17.998Z</time></trkpt><trkpt lat="42.480209314407915" lon="13.833505139139152"><ele>447.0</ele><time>2026-03-29T09:42:18.998Z</time></trkpt><trkpt lat="42.48034995291625" lon="13.833600313217527"><ele>443.0</ele><time>2026-03-29T09:42:19.998Z</time></trkpt><trkpt lat="42.48048068403921" lon="13.833693037298778"><ele>443.0</ele><time>2026-03-29T09:42:20.998Z</time></trkpt><trkpt lat="42.48059900621785" lon="13.8337834585789"><ele>443.0</ele><time>2026-03-29T09:42:21.998Z</time></trkpt><trkpt lat="42.48070762396829" lon="13.833846503751666"><ele>443.0</ele><time>2026-03-29T09:42:22.998Z</time></trkpt><trkpt lat="42.48082797296787" lon="13.833874099971107"><ele>443.0</ele><time>2026-03-29T09:42:23.998Z</time></trkpt><trkpt lat="42.48096154190778" lon="13.83386568930676"><ele>442.99999999999994</ele><time>2026-03-29T09:42:24.998Z</time></trkpt><trkpt lat="42.48107470098208" lon="13.833845661346183"><ele>443.0</ele><time>2026-03-29T09:42:25.998Z</time></trkpt><trkpt lat="42.481165428293906" lon="13.833832331440293"><ele>443.0</ele><time>2026-03-29T09:42:26.998Z</time></trkpt><trkpt lat="42.4812387619398" lon="13.833848078226772"><ele>443.0</ele><time>2026-03-29T09:42:27.998Z</time></trkpt><trkpt lat="42.481295342748474" lon="13.833906415520326"><ele>442.99999999999994</ele><time>2026-03-29T09:42:28.998Z</time></trkpt><trkpt lat="42.48131172322586" lon="13.833991545667914"><ele>443.0</ele><time>2026-03-29T09:42:29.998Z</time></trkpt><trkpt lat="42.48130384865374" lon="13.83409498697507"><ele>443.0</ele><time>2026-03-29T09:42:30.998Z</time></trkpt><trkpt lat="42.481239834950635" lon="13.834182876323151"><ele>442.99999999999994</ele><time>2026-03-29T09:42:31.998Z</time></trkpt><trkpt lat="42.48115921828088" lon="13.834210023916436"><ele>442.99999999999994</ele><time>2026-03-29T09:42:32.998Z</time></trkpt><trkpt lat="42.48106263905504" lon="13.83419173628542"><ele>443.0</ele><time>2026-03-29T09:42:33.998Z</time></trkpt><trkpt lat="42.48096250084929" lon="13.834136283240696"><ele>443.0</ele><time>2026-03-29T09:42:34.998Z</time></trkpt><trkpt lat="42.48085899448575" lon="13.83408101063949"><ele>443.0</ele><time>2026-03-29T09:42:35.998Z</time></trkpt><trkpt lat="42.480751152161304" lon="13.83403882227514"><ele>443.0</ele><time>2026-03-29T09:42:36.998Z</time></trkpt><trkpt lat="42.480640034952316" lon="13.833983093521516"><ele>443.0</ele><time>2026-03-29T09:42:37.998Z</time></trkpt><trkpt lat="42.48052801404313" lon="13.833929398564404"><ele>443.0</ele><time>2026-03-29T09:42:38.998Z</time></trkpt><trkpt lat="42.48041022486566" lon="13.833884497383"><ele>440.25</ele><time>2026-03-29T09:42:39.998Z</time></trkpt><trkpt lat="42.48028105406195" lon="13.833823582708533"><ele>437.5</ele><time>2026-03-29T09:42:40.998Z</time></trkpt><trkpt lat="42.48016579491627" lon="13.833762785824568"><ele>434.75</ele><time>2026-03-29T09:42:41.998Z</time></trkpt><trkpt lat="42.48004308509743" lon="13.833720706562845"><ele>432.0</ele><time>2026-03-29T09:42:42.998Z</time></trkpt><trkpt lat="42.47989081017101" lon="13.833706642679976"><ele>432.0</ele><time>2026-03-29T09:42:43.998Z</time></trkpt><trkpt lat="42.4797222461585" lon="13.833751262023233"><ele>432.0</ele><time>2026-03-29T09:42:44.998Z</time></trkpt><trkpt lat="42.479566132820366" lon="13.833829070538025"><ele>432.0</ele><time>2026-03-29T09:42:45.998Z</time></trkpt><trkpt lat="42.47942749338602" lon="13.833902272873326"><ele>431.20000000000005</ele><time>2026-03-29T09:42:46.998Z</time></trkpt><trkpt lat="42.479306890495664" lon="13.833942598627848"><ele>430.40000000000003</ele><time>2026-03-29T09:42:47.998Z</time></trkpt><trkpt lat="42.47919850879571" lon="13.833979864116813"><ele>429.59999999999997</ele><time>2026-03-29T09:42:48.998Z</time></trkpt><trkpt lat="42.47909406878761" lon="13.83400657226803"><ele>428.79999999999995</ele><time>2026-03-29T09:42:49.998Z</time></trkpt><trkpt lat="42.47899869050529" lon="13.833959948468815"><ele>428.0</ele><time>2026-03-29T09:42:50.998Z</time></trkpt><trkpt lat="42.478909762630664" lon="13.833867758686416"><ele>428.0</ele><time>2026-03-29T09:42:51.998Z</time></trkpt><trkpt lat="42.47882740941002" lon="13.833736700396166"><ele>428.0</ele><time>2026-03-29T09:42:52.998Z</time></trkpt><trkpt lat="42.478748535590334" lon="13.833572338172443"><ele>428.0</ele><time>2026-03-29T09:42:53.998Z</time></trkpt><trkpt lat="42.47866180830735" lon="13.83340695303495"><ele>428.0</ele><time>2026-03-29T09:42:54.998Z</time></trkpt><trkpt lat="42.47856738985293" lon="13.833248373198874"><ele>427.59999999999997</ele><time>2026-03-29T09:42:55.998Z</time></trkpt><trkpt lat="42.47848292397616" lon="13.833107629976109"><ele>427.19999999999993</ele><time>2026-03-29T09:42:56.998Z</time></trkpt><trkpt lat="42.478408247673734" lon="13.832984180208856"><ele>426.8</ele><time>2026-03-29T09:42:57.998Z</time></trkpt><trkpt lat="42.47834972434031" lon="13.832892934203281"><ele>426.4</ele><time>2026-03-29T09:42:58.998Z</time></trkpt><trkpt lat="42.47826312907205" lon="13.832822974361548"><ele>426.0</ele><time>2026-03-29T09:42:59.998Z</time></trkpt><trkpt lat="42.478167534359415" lon="13.832795637006464"><ele>426.0</ele><time>2026-03-29T09:43:01Z</time></trkpt><trkpt lat="42.47807061534226" lon="13.832818187743264"><ele>426.0</ele><time>2026-03-29T09:43:02Z</time></trkpt><trkpt lat="42.47796939040961" lon="13.8328850360847"><ele>426.0</ele><time>2026-03-29T09:43:03Z</time></trkpt><trkpt lat="42.477864362473184" lon="13.833009530052449"><ele>426.0</ele><time>2026-03-29T09:43:04Z</time></trkpt><trkpt lat="42.477767121540026" lon="13.833145609712108"><ele>425.25</ele><time>2026-03-29T09:43:05Z</time></trkpt><trkpt lat="42.47766424243455" lon="13.833271380787984"><ele>424.5</ele><time>2026-03-29T09:43:06Z</time></trkpt><trkpt lat="42.4775458225069" lon="13.833352808789767"><ele>423.75</ele><time>2026-03-29T09:43:07Z</time></trkpt><trkpt lat="42.47739065841096" lon="13.833399649086637"><ele>423.0</ele><time>2026-03-29T09:43:08Z</time></trkpt><trkpt lat="42.477214958116754" lon="13.833441291813493"><ele>420.33333333333337</ele><time>2026-03-29T09:43:09Z</time></trkpt><trkpt lat="42.47703965193813" lon="13.83348147863932"><ele>417.6666666666667</ele><time>2026-03-29T09:43:10Z</time></trkpt><trkpt lat="42.476866921807016" lon="13.833524058770019"><ele>415.0</ele><time>2026-03-29T09:43:11Z</time></trkpt><trkpt lat="42.47670110070249" lon="13.83357100256207"><ele>415.0</ele><time>2026-03-29T09:43:12Z</time></trkpt><trkpt lat="42.47651475037401" lon="13.833609128974595"><ele>415.0</ele><time>2026-03-29T09:43:13Z</time></trkpt><trkpt lat="42.47633235329981" lon="13.833646213165526"><ele>415.0</ele><time>2026-03-29T09:43:14Z</time></trkpt><trkpt lat="42.47616351900134" lon="13.833681552101565"><ele>416.33333333333337</ele><time>2026-03-29T09:43:15Z</time></trkpt><trkpt lat="42.47598846022287" lon="13.83370229224993"><ele>417.66666666666663</ele><time>2026-03-29T09:43:16Z</time></trkpt><trkpt lat="42.47580239686156" lon="13.833699165313048"><ele>419.0</ele><time>2026-03-29T09:43:17Z</time></trkpt><trkpt lat="42.47563642098716" lon="13.833683721684364"><ele>419.0</ele><time>2026-03-29T09:43:18Z</time></trkpt><trkpt lat="42.47549876118258" lon="13.833672710981928"><ele>419.0</ele><time>2026-03-29T09:43:19Z</time></trkpt><trkpt lat="42.47537498977212" lon="13.833670138517572"><ele>419.0</ele><time>2026-03-29T09:43:20Z</time></trkpt><trkpt lat="42.475266584867505" lon="13.83370118085685"><ele>419.0</ele><time>2026-03-29T09:43:21Z</time></trkpt><trkpt lat="42.47516350570469" lon="13.83376213693398"><ele>417.75</ele><time>2026-03-29T09:43:22Z</time></trkpt><trkpt lat="42.47508183155841" lon="13.833856711269172"><ele>416.5</ele><time>2026-03-29T09:43:23Z</time></trkpt><trkpt lat="42.47501959067966" lon="13.833985292850494"><ele>415.25</ele><time>2026-03-29T09:43:24Z</time></trkpt><trkpt lat="42.47498906850664" lon="13.834130220634382"><ele>414.0</ele><time>2026-03-29T09:43:25Z</time></trkpt><trkpt lat="42.474989839337894" lon="13.834296953866412"><ele>412.66666666666663</ele><time>2026-03-29T09:43:26Z</time></trkpt><trkpt lat="42.475031706240834" lon="13.834482039745309"><ele>411.3333333333333</ele><time>2026-03-29T09:43:27Z</time></trkpt><trkpt lat="42.47509464931021" lon="13.834672547140128"><ele>410.0</ele><time>2026-03-29T09:43:28Z</time></trkpt><trkpt lat="42.4751607417891" lon="13.834876818650589"><ele>410.0</ele><time>2026-03-29T09:43:29Z</time></trkpt><trkpt lat="42.475193988642786" lon="13.835077121874004"><ele>410.0</ele><time>2026-03-29T09:43:30Z</time></trkpt><trkpt lat="42.475225883172605" lon="13.835289971841341"><ele>410.0</ele><time>2026-03-29T09:43:30.999Z</time></trkpt><trkpt lat="42.475254239871546" lon="13.835502061539895"><ele>408.66666666666663</ele><time>2026-03-29T09:43:31.999Z</time></trkpt><trkpt lat="42.475255297847056" lon="13.835712119065922"><ele>407.33333333333337</ele><time>2026-03-29T09:43:32.999Z</time></trkpt><trkpt lat="42.47524612675978" lon="13.835911837319882"><ele>406.0</ele><time>2026-03-29T09:43:33.999Z</time></trkpt><trkpt lat="42.475225262897204" lon="13.836118315034172"><ele>404.75</ele><time>2026-03-29T09:43:34.999Z</time></trkpt><trkpt lat="42.47517277767741" lon="13.836307540546041"><ele>403.5</ele><time>2026-03-29T09:43:35.999Z</time></trkpt><trkpt lat="42.47513296887297" lon="13.836500426273274"><ele>402.25</ele><time>2026-03-29T09:43:36.999Z</time></trkpt><trkpt lat="42.47506770655472" lon="13.83665936447081"><ele>401.0</ele><time>2026-03-29T09:43:37.999Z</time></trkpt><trkpt lat="42.47499813115907" lon="13.83678138583839"><ele>399.0</ele><time>2026-03-29T09:43:38.999Z</time></trkpt><trkpt lat="42.474911264388126" lon="13.836873515414142"><ele>397.0</ele><time>2026-03-29T09:43:39.999Z</time></trkpt><trkpt lat="42.47481263765275" lon="13.836930622270238"><ele>395.0</ele><time>2026-03-29T09:43:40.999Z</time></trkpt><trkpt lat="42.47470249925583" lon="13.836940918340318"><ele>393.0</ele><time>2026-03-29T09:43:41.999Z</time></trkpt><trkpt lat="42.47458371801692" lon="13.83690628597835"><ele>391.0</ele><time>2026-03-29T09:43:42.999Z</time></trkpt><trkpt lat="42.474467881805126" lon="13.836829629513439"><ele>391.5</ele><time>2026-03-29T09:43:43.999Z</time></trkpt><trkpt lat="42.47435571759071" lon="13.836725085181769"><ele>392.0</ele><time>2026-03-29T09:43:44.999Z</time></trkpt><trkpt lat="42.47425135395139" lon="13.836593189949898"><ele>392.5</ele><time>2026-03-29T09:43:45.999Z</time></trkpt><trkpt lat="42.47415067494825" lon="13.836415461462304"><ele>393.0</ele><time>2026-03-29T09:43:46.999Z</time></trkpt><trkpt lat="42.474058332166045" lon="13.83621239637534"><ele>393.0</ele><time>2026-03-29T09:43:47.999Z</time></trkpt><trkpt lat="42.47396769267264" lon="13.835984529548227"><ele>393.0</ele><time>2026-03-29T09:43:48.999Z</time></trkpt><trkpt lat="42.47387265457919" lon="13.835765907327453"><ele>393.0</ele><time>2026-03-29T09:43:49.999Z</time></trkpt><trkpt lat="42.473775844654426" lon="13.8355608543431"><ele>390.33333333333337</ele><time>2026-03-29T09:43:50.999Z</time></trkpt><trkpt lat="42.473687709994536" lon="13.835365197087414"><ele>387.6666666666667</ele><time>2026-03-29T09:43:51.999Z</time></trkpt><trkpt lat="42.47360837922337" lon="13.835186543872203"><ele>385.0</ele><time>2026-03-29T09:43:52.999Z</time></trkpt><trkpt lat="42.47355072880836" lon="13.835031952577197"><ele>385.0</ele><time>2026-03-29T09:43:53.999Z</time></trkpt><trkpt lat="42.47350775674283" lon="13.83486569880077"><ele>385.0</ele><time>2026-03-29T09:43:54.999Z</time></trkpt><trkpt lat="42.473498163712044" lon="13.834674393449706"><ele>385.0</ele><time>2026-03-29T09:43:55.999Z</time></trkpt><trkpt lat="42.47351856143907" lon="13.834454423028673"><ele>385.0</ele><time>2026-03-29T09:43:56.999Z</time></trkpt><trkpt lat="42.47355588745453" lon="13.834231801080985"><ele>384.0</ele><time>2026-03-29T09:43:57.999Z</time></trkpt><trkpt lat="42.47360214504908" lon="13.834009631562921"><ele>383.0</ele><time>2026-03-29T09:43:58.999Z</time></trkpt><trkpt lat="42.47363303264361" lon="13.833800277657492"><ele>382.0</ele><time>2026-03-29T09:43:59.999Z</time></trkpt><trkpt lat="42.47366153276719" lon="13.833607638450962"><ele>381.5</ele><time>2026-03-29T09:44:00.999Z</time></trkpt><trkpt lat="42.473691741674216" lon="13.833435018250567"><ele>381.0</ele><time>2026-03-29T09:44:01.999Z</time></trkpt><trkpt lat="42.47371595808448" lon="13.833273821627317"><ele>380.5</ele><time>2026-03-29T09:44:02.999Z</time></trkpt><trkpt lat="42.47373095210723" lon="13.833132474145124"><ele>380.0</ele><time>2026-03-29T09:44:03.999Z</time></trkpt><trkpt lat="42.4737214978061" lon="13.833000930329549"><ele>380.0</ele><time>2026-03-29T09:44:04.999Z</time></trkpt><trkpt lat="42.47366733812701" lon="13.832882940264792"><ele>380.0</ele><time>2026-03-29T09:44:05.999Z</time></trkpt><trkpt lat="42.47359212616159" lon="13.8327719887755"><ele>380.0</ele><time>2026-03-29T09:44:06.999Z</time></trkpt><trkpt lat="42.47350301905743" lon="13.832696037501973"><ele>380.0</ele><time>2026-03-29T09:44:07.999Z</time></trkpt><trkpt lat="42.473401807131715" lon="13.832657607794625"><ele>380.0</ele><time>2026-03-29T09:44:08.999Z</time></trkpt><trkpt lat="42.47327908942397" lon="13.832652736685548"><ele>380.0</ele><time>2026-03-29T09:44:09.999Z</time></trkpt><trkpt lat="42.47314154516178" lon="13.832667033899467"><ele>380.0</ele><time>2026-03-29T09:44:10.999Z</time></trkpt><trkpt lat="42.47300515083396" lon="13.832687452236108"><ele>380.0</ele><time>2026-03-29T09:44:11.999Z</time></trkpt><trkpt lat="42.47287123416997" lon="13.83271242537609"><ele>380.0</ele><time>2026-03-29T09:44:12.999Z</time></trkpt><trkpt lat="42.47274628003263" lon="13.832733097020608"><ele>379.75</ele><time>2026-03-29T09:44:13.999Z</time></trkpt><trkpt lat="42.47261710374254" lon="13.832754664942792"><ele>379.5</ele><time>2026-03-29T09:44:14.999Z</time></trkpt><trkpt lat="42.472483678927894" lon="13.832768713052928"><ele>379.25</ele><time>2026-03-29T09:44:15.999Z</time></trkpt><trkpt lat="42.472353776991916" lon="13.832783123987744"><ele>379.0</ele><time>2026-03-29T09:44:16.999Z</time></trkpt><trkpt lat="42.47223259286819" lon="13.83281029097715"><ele>379.0</ele><time>2026-03-29T09:44:17.999Z</time></trkpt><trkpt lat="42.47211777684777" lon="13.832878286997634"><ele>379.0</ele><time>2026-03-29T09:44:18.999Z</time></trkpt><trkpt lat="42.47201392586726" lon="13.832994689875742"><ele>379.0</ele><time>2026-03-29T09:44:19.999Z</time></trkpt><trkpt lat="42.47193270943583" lon="13.833164015075278"><ele>379.0</ele><time>2026-03-29T09:44:20.999Z</time></trkpt><trkpt lat="42.471843831951745" lon="13.83336954425227"><ele>383.0</ele><time>2026-03-29T09:44:21.999Z</time></trkpt><trkpt lat="42.471747795145156" lon="13.833538612990852"><ele>387.0</ele><time>2026-03-29T09:44:22.999Z</time></trkpt><trkpt lat="42.471659864149274" lon="13.833741987547366"><ele>391.0</ele><time>2026-03-29T09:44:23.999Z</time></trkpt><trkpt lat="42.471558310094366" lon="13.833935204908386"><ele>391.0</ele><time>2026-03-29T09:44:24.999Z</time></trkpt><trkpt lat="42.4714681467195" lon="13.834129501154468"><ele>391.0</ele><time>2026-03-29T09:44:25.999Z</time></trkpt><trkpt lat="42.47136496512971" lon="13.834316532140415"><ele>391.0</ele><time>2026-03-29T09:44:26.998Z</time></trkpt><trkpt lat="42.47127042929686" lon="13.834512727201684"><ele>392.25</ele><time>2026-03-29T09:44:27.998Z</time></trkpt><trkpt lat="42.471180522287995" lon="13.8346958595677"><ele>393.5</ele><time>2026-03-29T09:44:28.998Z</time></trkpt><trkpt lat="42.47110077196331" lon="13.83484667955992"><ele>394.75</ele><time>2026-03-29T09:44:29.998Z</time></trkpt><trkpt lat="42.47104324292803" lon="13.834971581966041"><ele>396.0</ele><time>2026-03-29T09:44:30.998Z</time></trkpt><trkpt lat="42.470990566635" lon="13.835063672874291"><ele>396.0</ele><time>2026-03-29T09:44:31.998Z</time></trkpt><trkpt lat="42.47091553419286" lon="13.835115916963481"><ele>396.0</ele><time>2026-03-29T09:44:32.998Z</time></trkpt><trkpt lat="42.47082476746578" lon="13.835103901407916"><ele>396.0</ele><time>2026-03-29T09:44:33.998Z</time></trkpt><trkpt lat="42.47076539936292" lon="13.835041956302058"><ele>396.0</ele><time>2026-03-29T09:44:34.998Z</time></trkpt><trkpt lat="42.47072875080751" lon="13.834933977220173"><ele>396.0</ele><time>2026-03-29T09:44:35.998Z</time></trkpt><trkpt lat="42.47073101535406" lon="13.834814047317977"><ele>396.0</ele><time>2026-03-29T09:44:36.998Z</time></trkpt><trkpt lat="42.47078825586417" lon="13.834699778697862"><ele>396.0</ele><time>2026-03-29T09:44:37.998Z</time></trkpt><trkpt lat="42.47084448570089" lon="13.834555573493093"><ele>396.0</ele><time>2026-03-29T09:44:38.998Z</time></trkpt><trkpt lat="42.47092944716606" lon="13.834407997818799"><ele>396.0</ele><time>2026-03-29T09:44:39.998Z</time></trkpt><trkpt lat="42.471010004897735" lon="13.834240514593667"><ele>396.0</ele><time>2026-03-29T09:44:40.998Z</time></trkpt><trkpt lat="42.47109442180183" lon="13.834054668719796"><ele>396.25</ele><time>2026-03-29T09:44:41.998Z</time></trkpt><trkpt lat="42.471165158961874" lon="13.833869454782857"><ele>396.5</ele><time>2026-03-29T09:44:42.998Z</time></trkpt><trkpt lat="42.47123410940658" lon="13.833715774041169"><ele>396.75</ele><time>2026-03-29T09:44:43.998Z</time></trkpt><trkpt lat="42.47130899827815" lon="13.833580919000813"><ele>397.0</ele><time>2026-03-29T09:44:44.998Z</time></trkpt><trkpt lat="42.471374902017224" lon="13.833449571304085"><ele>397.0</ele><time>2026-03-29T09:44:45.998Z</time></trkpt><trkpt lat="42.471432208896864" lon="13.833329179932665"><ele>397.0</ele><time>2026-03-29T09:44:46.998Z</time></trkpt><trkpt lat="42.47145732729908" lon="13.833216348945708"><ele>397.0</ele><time>2026-03-29T09:44:47.998Z</time></trkpt><trkpt lat="42.47143837577893" lon="13.833101184971879"><ele>397.0</ele><time>2026-03-29T09:44:48.998Z</time></trkpt><trkpt lat="42.47138475694966" lon="13.832999834126996"><ele>397.0</ele><time>2026-03-29T09:44:49.998Z</time></trkpt><trkpt lat="42.47130781003217" lon="13.832952573517591"><ele>399.8</ele><time>2026-03-29T09:44:50.998Z</time></trkpt><trkpt lat="42.47121637640412" lon="13.832964248102622"><ele>402.6</ele><time>2026-03-29T09:44:51.998Z</time></trkpt><trkpt lat="42.47112872290393" lon="13.833016454738248"><ele>405.40000000000003</ele><time>2026-03-29T09:44:52.998Z</time></trkpt><trkpt lat="42.47106127185361" lon="13.833123762274008"><ele>408.20000000000005</ele><time>2026-03-29T09:44:53.998Z</time></trkpt><trkpt lat="42.47101672496628" lon="13.833276527270382"><ele>411.0</ele><time>2026-03-29T09:44:54.998Z</time></trkpt><trkpt lat="42.47094677523351" lon="13.833442025026821"><ele>408.66666666666663</ele><time>2026-03-29T09:44:55.998Z</time></trkpt><trkpt lat="42.47084157969107" lon="13.833581323669204"><ele>406.3333333333333</ele><time>2026-03-29T09:44:56.998Z</time></trkpt><trkpt lat="42.47072575742553" lon="13.833719127104176"><ele>404.0</ele><time>2026-03-29T09:44:57.998Z</time></trkpt><trkpt lat="42.470593280560166" lon="13.833858617231567"><ele>404.0</ele><time>2026-03-29T09:44:58.998Z</time></trkpt><trkpt lat="42.47047108857283" lon="13.833952756410373"><ele>404.0</ele><time>2026-03-29T09:44:59.998Z</time></trkpt><trkpt lat="42.47034969449221" lon="13.83402443828991"><ele>404.0</ele><time>2026-03-29T09:45:00.998Z</time></trkpt><trkpt lat="42.47020293504147" lon="13.834062227690923"><ele>404.0</ele><time>2026-03-29T09:45:01.998Z</time></trkpt><trkpt lat="42.470055346138" lon="13.834107920767508"><ele>405.0</ele><time>2026-03-29T09:45:02.998Z</time></trkpt><trkpt lat="42.46989359178717" lon="13.834127706863812"><ele>406.0</ele><time>2026-03-29T09:45:03.998Z</time></trkpt><trkpt lat="42.469743002002744" lon="13.834154363330791"><ele>407.0</ele><time>2026-03-29T09:45:04.998Z</time></trkpt><trkpt lat="42.46961115322206" lon="13.834190936871607"><ele>408.0</ele><time>2026-03-29T09:45:05.998Z</time></trkpt><trkpt lat="42.469488273645844" lon="13.83422466337961"><ele>410.0</ele><time>2026-03-29T09:45:07Z</time></trkpt><trkpt lat="42.46937029765851" lon="13.834240426158743"><ele>412.0</ele><time>2026-03-29T09:45:08Z</time></trkpt><trkpt lat="42.46924028035487" lon="13.834202057561267"><ele>414.0</ele><time>2026-03-29T09:45:09Z</time></trkpt><trkpt lat="42.469114359432325" lon="13.834119539619987"><ele>416.0</ele><time>2026-03-29T09:45:10Z</time></trkpt><trkpt lat="42.46901791423467" lon="13.833965738176966"><ele>416.0</ele><time>2026-03-29T09:45:11Z</time></trkpt><trkpt lat="42.46891901457435" lon="13.833870303574"><ele>416.0</ele><time>2026-03-29T09:45:12Z</time></trkpt><trkpt lat="42.46883557734062" lon="13.833791048435897"><ele>416.0</ele><time>2026-03-29T09:45:13Z</time></trkpt><trkpt lat="42.468743342509086" lon="13.8337729285533"><ele>416.0</ele><time>2026-03-29T09:45:14Z</time></trkpt><trkpt lat="42.46863982803731" lon="13.833799634390424"><ele>416.0</ele><time>2026-03-29T09:45:15Z</time></trkpt><trkpt lat="42.46854858088441" lon="13.833867054589907"><ele>419.75</ele><time>2026-03-29T09:45:16Z</time></trkpt><trkpt lat="42.46846220483053" lon="13.833985831784899"><ele>423.5</ele><time>2026-03-29T09:45:17Z</time></trkpt><trkpt lat="42.468397837347524" lon="13.834128989653863"><ele>427.25</ele><time>2026-03-29T09:45:18Z</time></trkpt><trkpt lat="42.46836751867978" lon="13.834273945361497"><ele>431.0</ele><time>2026-03-29T09:45:19Z</time></trkpt><trkpt lat="42.46838170214186" lon="13.83443171088032"><ele>433.0</ele><time>2026-03-29T09:45:20Z</time></trkpt><trkpt lat="42.46842975253353" lon="13.834607556835543"><ele>435.0</ele><time>2026-03-29T09:45:21Z</time></trkpt><trkpt lat="42.468504120383905" lon="13.834782163306128"><ele>437.0</ele><time>2026-03-29T09:45:22Z</time></trkpt><trkpt lat="42.46860326287633" lon="13.834948344513704"><ele>439.0</ele><time>2026-03-29T09:45:23Z</time></trkpt><trkpt lat="42.468691826484914" lon="13.835121364328158"><ele>440.5</ele><time>2026-03-29T09:45:24Z</time></trkpt><trkpt lat="42.46875298360069" lon="13.835291005315447"><ele>442.0</ele><time>2026-03-29T09:45:25Z</time></trkpt><trkpt lat="42.4687923320841" lon="13.835478055262504"><ele>443.5</ele><time>2026-03-29T09:45:26Z</time></trkpt><trkpt lat="42.46878930776343" lon="13.835687419608957"><ele>445.0</ele><time>2026-03-29T09:45:27Z</time></trkpt><trkpt lat="42.46880930011104" lon="13.835907419357518"><ele>437.6666666666667</ele><time>2026-03-29T09:45:28Z</time></trkpt><trkpt lat="42.46881366516289" lon="13.836126241277496"><ele>430.33333333333337</ele><time>2026-03-29T09:45:29Z</time></trkpt><trkpt lat="42.46881615646301" lon="13.836353887263769"><ele>423.0</ele><time>2026-03-29T09:45:30Z</time></trkpt><trkpt lat="42.46882191860265" lon="13.836574354453315"><ele>423.0</ele><time>2026-03-29T09:45:31Z</time></trkpt><trkpt lat="42.46882744745312" lon="13.836776325341436"><ele>423.0</ele><time>2026-03-29T09:45:32Z</time></trkpt><trkpt lat="42.46883796309991" lon="13.836952317570972"><ele>423.0</ele><time>2026-03-29T09:45:33Z</time></trkpt><trkpt lat="42.468847190256646" lon="13.837127757291636"><ele>423.0</ele><time>2026-03-29T09:45:34Z</time></trkpt><trkpt lat="42.468846398711456" lon="13.83729906810295"><ele>423.79999999999995</ele><time>2026-03-29T09:45:35Z</time></trkpt><trkpt lat="42.46882776687575" lon="13.837437083961241"><ele>424.6</ele><time>2026-03-29T09:45:36Z</time></trkpt><trkpt lat="42.46878342796762" lon="13.837556408998266"><ele>425.40000000000003</ele><time>2026-03-29T09:45:37Z</time></trkpt><trkpt lat="42.468709553433484" lon="13.837662082937213"><ele>426.20000000000005</ele><time>2026-03-29T09:45:38Z</time></trkpt><trkpt lat="42.468619828024174" lon="13.837725477115976"><ele>427.0</ele><time>2026-03-29T09:45:39Z</time></trkpt><trkpt lat="42.46850772971468" lon="13.837730306751164"><ele>427.0</ele><time>2026-03-29T09:45:39.999Z</time></trkpt><trkpt lat="42.468386591401796" lon="13.837711196777741"><ele>427.0</ele><time>2026-03-29T09:45:40.999Z</time></trkpt><trkpt lat="42.46827550638155" lon="13.837649327188965"><ele>427.0</ele><time>2026-03-29T09:45:41.999Z</time></trkpt><trkpt lat="42.46817564475255" lon="13.837545854779139"><ele>427.0</ele><time>2026-03-29T09:45:42.999Z</time></trkpt><trkpt lat="42.46808701163063" lon="13.837418830129629"><ele>425.25</ele><time>2026-03-29T09:45:43.999Z</time></trkpt><trkpt lat="42.468013552827244" lon="13.83726169980902"><ele>423.5</ele><time>2026-03-29T09:45:44.999Z</time></trkpt><trkpt lat="42.467955170056804" lon="13.837071337861023"><ele>421.75</ele><time>2026-03-29T09:45:45.999Z</time></trkpt><trkpt lat="42.46789197775716" lon="13.836878715754553"><ele>420.0</ele><time>2026-03-29T09:45:46.999Z</time></trkpt><trkpt lat="42.467823511577414" lon="13.83670792677792"><ele>425.33333333333337</ele><time>2026-03-29T09:45:47.999Z</time></trkpt><trkpt lat="42.46774388400448" lon="13.83652357438919"><ele>430.6666666666667</ele><time>2026-03-29T09:45:48.999Z</time></trkpt><trkpt lat="42.46763698689464" lon="13.836319418512652"><ele>436.0</ele><time>2026-03-29T09:45:49.999Z</time></trkpt><trkpt lat="42.46751393771683" lon="13.836111142066951"><ele>441.33333333333337</ele><time>2026-03-29T09:45:50.999Z</time></trkpt><trkpt lat="42.46740280311576" lon="13.83590759630584"><ele>446.66666666666663</ele><time>2026-03-29T09:45:51.999Z</time></trkpt><trkpt lat="42.46728604046187" lon="13.835701891850956"><ele>452.0</ele><time>2026-03-29T09:45:52.999Z</time></trkpt><trkpt lat="42.467168505699576" lon="13.83550142480268"><ele>449.66666666666663</ele><time>2026-03-29T09:45:53.999Z</time></trkpt><trkpt lat="42.46704878128843" lon="13.835292653478211"><ele>447.33333333333337</ele><time>2026-03-29T09:45:54.999Z</time></trkpt><trkpt lat="42.46693897842809" lon="13.835092562492889"><ele>445.0</ele><time>2026-03-29T09:45:55.999Z</time></trkpt><trkpt lat="42.466838720635565" lon="13.834907655794561"><ele>445.0</ele><time>2026-03-29T09:45:56.999Z</time></trkpt><trkpt lat="42.46674638068202" lon="13.83473335819707"><ele>445.0</ele><time>2026-03-29T09:45:57.999Z</time></trkpt><trkpt lat="42.46666139768514" lon="13.83457359778594"><ele>445.0</ele><time>2026-03-29T09:45:58.999Z</time></trkpt><trkpt lat="42.46657172292183" lon="13.834423093660657"><ele>445.0</ele><time>2026-03-29T09:45:59.999Z</time></trkpt><trkpt lat="42.4664704560409" lon="13.83429192551543"><ele>446.6666666666667</ele><time>2026-03-29T09:46:00.999Z</time></trkpt><trkpt lat="42.466347238681784" lon="13.834190391718023"><ele>448.33333333333337</ele><time>2026-03-29T09:46:01.999Z</time></trkpt><trkpt lat="42.46619437686886" lon="13.834105161476405"><ele>450.0</ele><time>2026-03-29T09:46:02.999Z</time></trkpt><trkpt lat="42.466022155144586" lon="13.83405612826362"><ele>450.0</ele><time>2026-03-29T09:46:03.999Z</time></trkpt><trkpt lat="42.465853158879284" lon="13.834026766398072"><ele>450.0</ele><time>2026-03-29T09:46:04.999Z</time></trkpt><trkpt lat="42.4657035419778" lon="13.834011033767867"><ele>450.0</ele><time>2026-03-29T09:46:05.999Z</time></trkpt><trkpt lat="42.46556081022814" lon="13.83397651139412"><ele>451.75</ele><time>2026-03-29T09:46:06.999Z</time></trkpt><trkpt lat="42.46543249729136" lon="13.833913604995624"><ele>453.5</ele><time>2026-03-29T09:46:07.999Z</time></trkpt><trkpt lat="42.465317631574756" lon="13.833825116786917"><ele>455.25</ele><time>2026-03-29T09:46:08.999Z</time></trkpt><trkpt lat="42.46522546363385" lon="13.833699463454183"><ele>457.0</ele><time>2026-03-29T09:46:09.999Z</time></trkpt><trkpt lat="42.46514194240629" lon="13.833609180494474"><ele>457.0</ele><time>2026-03-29T09:46:10.999Z</time></trkpt><trkpt lat="42.46505316014252" lon="13.833558424506997"><ele>457.00000000000006</ele><time>2026-03-29T09:46:11.999Z</time></trkpt><trkpt lat="42.464960301299854" lon="13.83356546832906"><ele>457.00000000000006</ele><time>2026-03-29T09:46:12.999Z</time></trkpt><trkpt lat="42.46488123192222" lon="13.833608859390356"><ele>457.0</ele><time>2026-03-29T09:46:13.999Z</time></trkpt><trkpt lat="42.46481275404186" lon="13.833702895850122"><ele>457.0</ele><time>2026-03-29T09:46:14.999Z</time></trkpt><trkpt lat="42.464781129237" lon="13.83382727244102"><ele>457.0</ele><time>2026-03-29T09:46:15.999Z</time></trkpt><trkpt lat="42.464774259027486" lon="13.83398293475936"><ele>457.0</ele><time>2026-03-29T09:46:16.999Z</time></trkpt><trkpt lat="42.46480215298988" lon="13.83416481685383"><ele>457.0</ele><time>2026-03-29T09:46:17.999Z</time></trkpt><trkpt lat="42.46482603740852" lon="13.834353177964077"><ele>457.0</ele><time>2026-03-29T09:46:18.999Z</time></trkpt><trkpt lat="42.464845150677306" lon="13.834541324013726"><ele>456.5</ele><time>2026-03-29T09:46:19.999Z</time></trkpt><trkpt lat="42.46487249394379" lon="13.834714542907651"><ele>456.0</ele><time>2026-03-29T09:46:20.999Z</time></trkpt><trkpt lat="42.46492422520294" lon="13.834859920580742"><ele>455.5</ele><time>2026-03-29T09:46:21.999Z</time></trkpt><trkpt lat="42.464996423289364" lon="13.834988562391699"><ele>455.0</ele><time>2026-03-29T09:46:22.999Z</time></trkpt><trkpt lat="42.46501673861346" lon="13.835117289428476"><ele>452.5</ele><time>2026-03-29T09:46:23.999Z</time></trkpt><trkpt lat="42.46502515168989" lon="13.835252451534187"><ele>450.0</ele><time>2026-03-29T09:46:24.999Z</time></trkpt><trkpt lat="42.464962121553654" lon="13.835375228109468"><ele>447.5</ele><time>2026-03-29T09:46:25.999Z</time></trkpt><trkpt lat="42.46484525626101" lon="13.835453107464378"><ele>445.0</ele><time>2026-03-29T09:46:26.999Z</time></trkpt><trkpt lat="42.46473974373797" lon="13.83559591357939"><ele>445.0</ele><time>2026-03-29T09:46:27.999Z</time></trkpt><trkpt lat="42.46464096766905" lon="13.835728402905408"><ele>445.0</ele><time>2026-03-29T09:46:28.999Z</time></trkpt><trkpt lat="42.464574746775774" lon="13.835900533006212"><ele>445.0</ele><time>2026-03-29T09:46:29.999Z</time></trkpt><trkpt lat="42.464542134331246" lon="13.836092502028"><ele>445.0</ele><time>2026-03-29T09:46:30.999Z</time></trkpt><trkpt lat="42.46453466142836" lon="13.836291983424866"><ele>443.0</ele><time>2026-03-29T09:46:31.999Z</time></trkpt><trkpt lat="42.46456363874138" lon="13.836513508548462"><ele>441.0</ele><time>2026-03-29T09:46:32.999Z</time></trkpt><trkpt lat="42.464613366685434" lon="13.836739129866745"><ele>439.0</ele><time>2026-03-29T09:46:33.999Z</time></trkpt><trkpt lat="42.46463730026556" lon="13.836956978478995"><ele>439.0</ele><time>2026-03-29T09:46:34.999Z</time></trkpt><trkpt lat="42.46465679409438" lon="13.837137695176393"><ele>439.0</ele><time>2026-03-29T09:46:35.999Z</time></trkpt><trkpt lat="42.464662846879065" lon="13.837323622260406"><ele>439.0</ele><time>2026-03-29T09:46:36.998Z</time></trkpt><trkpt lat="42.464628165960306" lon="13.837497954102274"><ele>439.0</ele><time>2026-03-29T09:46:37.998Z</time></trkpt><trkpt lat="42.46456258792525" lon="13.83764896925269"><ele>444.0</ele><time>2026-03-29T09:46:38.998Z</time></trkpt><trkpt lat="42.46446557495629" lon="13.83780752084242"><ele>449.0</ele><time>2026-03-29T09:46:39.998Z</time></trkpt><trkpt lat="42.46435514645499" lon="13.837977109419219"><ele>454.0</ele><time>2026-03-29T09:46:40.998Z</time></trkpt><trkpt lat="42.46426425172107" lon="13.83813927878725"><ele>454.0</ele><time>2026-03-29T09:46:41.998Z</time></trkpt><trkpt lat="42.46418442007919" lon="13.838261779715179"><ele>454.0</ele><time>2026-03-29T09:46:42.998Z</time></trkpt><trkpt lat="42.46412765931225" lon="13.838359900641716"><ele>454.0</ele><time>2026-03-29T09:46:43.998Z</time></trkpt><trkpt lat="42.46408275871226" lon="13.838435395638877"><ele>454.0</ele><time>2026-03-29T09:46:44.998Z</time></trkpt><trkpt lat="42.46402708748538" lon="13.83847671827857"><ele>454.0</ele><time>2026-03-29T09:46:45.998Z</time></trkpt><trkpt lat="42.46390649393854" lon="13.83835203388559"><ele>454.0</ele><time>2026-03-29T09:46:47.998Z</time></trkpt><trkpt lat="42.46380390127373" lon="13.838259543112917"><ele>454.0</ele><time>2026-03-29T09:46:48.998Z</time></trkpt><trkpt lat="42.463692961678305" lon="13.838137502372772"><ele>454.0</ele><time>2026-03-29T09:46:49.998Z</time></trkpt><trkpt lat="42.463573088321354" lon="13.838041317794955"><ele>454.0</ele><time>2026-03-29T09:46:50.998Z</time></trkpt><trkpt lat="42.46343751262778" lon="13.837974236677756"><ele>453.25</ele><time>2026-03-29T09:46:51.998Z</time></trkpt><trkpt lat="42.46328560121724" lon="13.83792933941541"><ele>452.5</ele><time>2026-03-29T09:46:52.998Z</time></trkpt><trkpt lat="42.4631484639431" lon="13.837889996311723"><ele>451.75</ele><time>2026-03-29T09:46:53.998Z</time></trkpt><trkpt lat="42.463030889004344" lon="13.837844602484447"><ele>451.0</ele><time>2026-03-29T09:46:54.998Z</time></trkpt><trkpt lat="42.462931479414316" lon="13.837785777667559"><ele>451.20000000000005</ele><time>2026-03-29T09:46:55.998Z</time></trkpt><trkpt lat="42.46286206210396" lon="13.83769375435708"><ele>451.40000000000003</ele><time>2026-03-29T09:46:56.998Z</time></trkpt><trkpt lat="42.46282739683582" lon="13.837562152818315"><ele>451.6</ele><time>2026-03-29T09:46:57.998Z</time></trkpt><trkpt lat="42.46282989637371" lon="13.837419177355137"><ele>451.8</ele><time>2026-03-29T09:46:58.998Z</time></trkpt><trkpt lat="42.462876512100244" lon="13.837302184719968"><ele>452.0</ele><time>2026-03-29T09:46:59.998Z</time></trkpt><trkpt lat="42.462948100512165" lon="13.837225528614589"><ele>454.0</ele><time>2026-03-29T09:47:00.998Z</time></trkpt><trkpt lat="42.46305136648428" lon="13.837225744024057"><ele>456.00000000000006</ele><time>2026-03-29T09:47:01.998Z</time></trkpt><trkpt lat="42.463135178879426" lon="13.837264612647218"><ele>458.00000000000006</ele><time>2026-03-29T09:47:02.998Z</time></trkpt><trkpt lat="42.46319252351683" lon="13.837332384563094"><ele>460.0</ele><time>2026-03-29T09:47:03.998Z</time></trkpt><trkpt lat="42.4632637995768" lon="13.837415022416439"><ele>462.0</ele><time>2026-03-29T09:47:04.998Z</time></trkpt><trkpt lat="42.46335032571195" lon="13.837509384008927"><ele>462.0</ele><time>2026-03-29T09:47:05.998Z</time></trkpt><trkpt lat="42.46346011074666" lon="13.83754125071158"><ele>462.0</ele><time>2026-03-29T09:47:06.998Z</time></trkpt><trkpt lat="42.4635789649222" lon="13.837533631468647"><ele>462.0</ele><time>2026-03-29T09:47:07.998Z</time></trkpt><trkpt lat="42.46370062071903" lon="13.837482046954449"><ele>462.0</ele><time>2026-03-29T09:47:08.998Z</time></trkpt><trkpt lat="42.46381262248875" lon="13.837397437284821"><ele>462.25</ele><time>2026-03-29T09:47:09.998Z</time></trkpt><trkpt lat="42.46389823325868" lon="13.837271005080607"><ele>462.5</ele><time>2026-03-29T09:47:10.998Z</time></trkpt><trkpt lat="42.4639705414539" lon="13.837104790203302"><ele>462.75</ele><time>2026-03-29T09:47:11.998Z</time></trkpt><trkpt lat="42.46402976318364" lon="13.836933978082088"><ele>463.0</ele><time>2026-03-29T09:47:13Z</time></trkpt><trkpt lat="42.46405250447672" lon="13.836749256222346"><ele>465.0</ele><time>2026-03-29T09:47:14Z</time></trkpt><trkpt lat="42.46404800784129" lon="13.83653881565282"><ele>467.0</ele><time>2026-03-29T09:47:15Z</time></trkpt><trkpt lat="42.46404556953831" lon="13.836312100109671"><ele>469.0</ele><time>2026-03-29T09:47:16Z</time></trkpt><trkpt lat="42.4640495200026" lon="13.836075665697743"><ele>470.25</ele><time>2026-03-29T09:47:17Z</time></trkpt><trkpt lat="42.46405097575141" lon="13.835848793011527"><ele>471.5</ele><time>2026-03-29T09:47:18Z</time></trkpt><trkpt lat="42.464058663242945" lon="13.835651869548686"><ele>472.75</ele><time>2026-03-29T09:47:19Z</time></trkpt><trkpt lat="42.4640704330812" lon="13.835502241267164"><ele>474.0</ele><time>2026-03-29T09:47:20Z</time></trkpt><trkpt lat="42.46407187493235" lon="13.83537785349278"><ele>474.0</ele><time>2026-03-29T09:47:21Z</time></trkpt><trkpt lat="42.46404958614898" lon="13.83526473305899"><ele>474.0</ele><time>2026-03-29T09:47:22Z</time></trkpt><trkpt lat="42.46399794641382" lon="13.835176948853709"><ele>474.0</ele><time>2026-03-29T09:47:23Z</time></trkpt><trkpt lat="42.46391649197526" lon="13.835162211938686"><ele>474.0</ele><time>2026-03-29T09:47:24Z</time></trkpt><trkpt lat="42.46384162919353" lon="13.835224810512821"><ele>474.0</ele><time>2026-03-29T09:47:25Z</time></trkpt><trkpt lat="42.46380570111704" lon="13.835345333444293"><ele>474.0</ele><time>2026-03-29T09:47:26Z</time></trkpt><trkpt lat="42.463821674544604" lon="13.83547217858933"><ele>474.0</ele><time>2026-03-29T09:47:27Z</time></trkpt><trkpt lat="42.46384599187368" lon="13.835622498786211"><ele>474.0</ele><time>2026-03-29T09:47:28Z</time></trkpt><trkpt lat="42.46384922407342" lon="13.835780087401773"><ele>474.0</ele><time>2026-03-29T09:47:29Z</time></trkpt><trkpt lat="42.463855831955755" lon="13.83591983635274"><ele>474.0</ele><time>2026-03-29T09:47:30Z</time></trkpt><trkpt lat="42.463823693511515" lon="13.836039993100657"><ele>474.0</ele><time>2026-03-29T09:47:31Z</time></trkpt><trkpt lat="42.46372897902583" lon="13.836125393526686"><ele>474.2</ele><time>2026-03-29T09:47:32Z</time></trkpt><trkpt lat="42.463617703100354" lon="13.836129631273403"><ele>474.4</ele><time>2026-03-29T09:47:33Z</time></trkpt><trkpt lat="42.46350373621894" lon="13.836153596483607"><ele>474.6</ele><time>2026-03-29T09:47:34Z</time></trkpt><trkpt lat="42.46340567617455" lon="13.836188664825967"><ele>474.8</ele><time>2026-03-29T09:47:35Z</time></trkpt><trkpt lat="42.463332197616054" lon="13.836183813072143"><ele>475.0</ele><time>2026-03-29T09:47:36Z</time></trkpt><trkpt lat="42.46329000041268" lon="13.8361200585157"><ele>475.0</ele><time>2026-03-29T09:47:37Z</time></trkpt><trkpt lat="42.463286440771114" lon="13.836015367469646"><ele>475.0</ele><time>2026-03-29T09:47:38Z</time></trkpt><trkpt lat="42.46333991347945" lon="13.835913649350934"><ele>475.0</ele><time>2026-03-29T09:47:39Z</time></trkpt><trkpt lat="42.46342061899661" lon="13.835880641858846"><ele>475.0</ele><time>2026-03-29T09:47:40Z</time></trkpt><trkpt lat="42.463484183842105" lon="13.835831311737564"><ele>475.0</ele><time>2026-03-29T09:47:41Z</time></trkpt><trkpt lat="42.463574884950575" lon="13.835695887528003"><ele>479.0</ele><time>2026-03-29T09:47:43Z</time></trkpt><trkpt lat="42.46360125213777" lon="13.835576090269639"><ele>483.0</ele><time>2026-03-29T09:47:44Z</time></trkpt><trkpt lat="42.463591753816125" lon="13.835440790345574"><ele>487.0</ele><time>2026-03-29T09:47:45Z</time></trkpt><trkpt lat="42.46355487725305" lon="13.835276578440418"><ele>491.0</ele><time>2026-03-29T09:47:46Z</time></trkpt><trkpt lat="42.463507353007095" lon="13.835071661873906"><ele>492.3333333333333</ele><time>2026-03-29T09:47:47Z</time></trkpt><trkpt lat="42.463462610493416" lon="13.834878214304211"><ele>493.66666666666663</ele><time>2026-03-29T09:47:48Z</time></trkpt><trkpt lat="42.46340276783252" lon="13.834672426791375"><ele>495.0</ele><time>2026-03-29T09:47:49Z</time></trkpt><trkpt lat="42.46335507019157" lon="13.834439472704874"><ele>496.66666666666663</ele><time>2026-03-29T09:47:49.999Z</time></trkpt><trkpt lat="42.46330611855239" lon="13.834209217980476"><ele>498.3333333333333</ele><time>2026-03-29T09:47:50.999Z</time></trkpt><trkpt lat="42.4632873986113" lon="13.833968922790486"><ele>500.0</ele><time>2026-03-29T09:47:51.999Z</time></trkpt><trkpt lat="42.46327113353653" lon="13.833726625896189"><ele>500.0</ele><time>2026-03-29T09:47:52.999Z</time></trkpt><trkpt lat="42.46324581920204" lon="13.833487226404474"><ele>500.0</ele><time>2026-03-29T09:47:53.999Z</time></trkpt><trkpt lat="42.46322046595717" lon="13.833273245829103"><ele>500.0</ele><time>2026-03-29T09:47:54.999Z</time></trkpt><trkpt lat="42.46320538493294" lon="13.83309245569873"><ele>500.6</ele><time>2026-03-29T09:47:55.999Z</time></trkpt><trkpt lat="42.46319439506628" lon="13.83294544793545"><ele>501.2</ele><time>2026-03-29T09:47:56.999Z</time></trkpt><trkpt lat="42.463170746372775" lon="13.832807271181508"><ele>501.79999999999995</ele><time>2026-03-29T09:47:57.999Z</time></trkpt><trkpt lat="42.4631133811626" lon="13.832691675671578"><ele>502.4</ele><time>2026-03-29T09:47:58.999Z</time></trkpt><trkpt lat="42.4630341731767" lon="13.832618364765924"><ele>503.0</ele><time>2026-03-29T09:47:59.999Z</time></trkpt><trkpt lat="42.46295218525857" lon="13.832595685448116"><ele>506.2</ele><time>2026-03-29T09:48:00.999Z</time></trkpt><trkpt lat="42.46287283957731" lon="13.832637363152188"><ele>509.4</ele><time>2026-03-29T09:48:01.999Z</time></trkpt><trkpt lat="42.46280521568639" lon="13.832693061802036"><ele>512.5999999999999</ele><time>2026-03-29T09:48:02.999Z</time></trkpt><trkpt lat="42.462803277588584" lon="13.832821535526673"><ele>515.8</ele><time>2026-03-29T09:48:03.999Z</time></trkpt><trkpt lat="42.46284140259243" lon="13.832936494208457"><ele>519.0</ele><time>2026-03-29T09:48:04.999Z</time></trkpt><trkpt lat="42.462887480544936" lon="13.833071455890078"><ele>519.0</ele><time>2026-03-29T09:48:05.999Z</time></trkpt><trkpt lat="42.462895383558646" lon="13.833223258963853"><ele>519.0</ele><time>2026-03-29T09:48:06.999Z</time></trkpt><trkpt lat="42.462846369648304" lon="13.833400809499368"><ele>519.0</ele><time>2026-03-29T09:48:07.999Z</time></trkpt><trkpt lat="42.462808504413765" lon="13.833574373797415"><ele>519.0</ele><time>2026-03-29T09:48:08.999Z</time></trkpt><trkpt lat="42.462764665863475" lon="13.833708698576999"><ele>517.8</ele><time>2026-03-29T09:48:09.999Z</time></trkpt><trkpt lat="42.46271476111189" lon="13.833794393411385"><ele>516.5999999999999</ele><time>2026-03-29T09:48:10.999Z</time></trkpt><trkpt lat="42.46265690858579" lon="13.833844692422565"><ele>515.4</ele><time>2026-03-29T09:48:11.999Z</time></trkpt><trkpt lat="42.462576869699106" lon="13.833875531695929"><ele>514.1999999999999</ele><time>2026-03-29T09:48:12.999Z</time></trkpt><trkpt lat="42.4624830753499" lon="13.833866363517368"><ele>513.0</ele><time>2026-03-29T09:48:13.999Z</time></trkpt><trkpt lat="42.46236157386145" lon="13.833831727980643"><ele>513.0</ele><time>2026-03-29T09:48:14.999Z</time></trkpt><trkpt lat="42.462253498258946" lon="13.833724281494627"><ele>513.0</ele><time>2026-03-29T09:48:15.999Z</time></trkpt><trkpt lat="42.46212455311987" lon="13.833626031583975"><ele>513.0</ele><time>2026-03-29T09:48:16.999Z</time></trkpt><trkpt lat="42.461982999887475" lon="13.833500245311628"><ele>515.3333333333334</ele><time>2026-03-29T09:48:17.999Z</time></trkpt><trkpt lat="42.461846034738" lon="13.833387911859134"><ele>517.6666666666667</ele><time>2026-03-29T09:48:18.999Z</time></trkpt><trkpt lat="42.46172399655478" lon="13.833244731612185"><ele>520.0</ele><time>2026-03-29T09:48:19.999Z</time></trkpt><trkpt lat="42.46159920767337" lon="13.833120718510349"><ele>520.0</ele><time>2026-03-29T09:48:20.999Z</time></trkpt><trkpt lat="42.461472224702895" lon="13.833018353048253"><ele>520.0</ele><time>2026-03-29T09:48:21.999Z</time></trkpt><trkpt lat="42.46137660758079" lon="13.832896382756177"><ele>520.0</ele><time>2026-03-29T09:48:22.999Z</time></trkpt><trkpt lat="42.4612922149498" lon="13.832782550611443"><ele>520.0</ele><time>2026-03-29T09:48:23.999Z</time></trkpt><trkpt lat="42.46123342136728" lon="13.832640571307557"><ele>520.0</ele><time>2026-03-29T09:48:24.999Z</time></trkpt><trkpt lat="42.46115918972738" lon="13.832482027041483"><ele>520.0</ele><time>2026-03-29T09:48:25.999Z</time></trkpt><trkpt lat="42.46109978366794" lon="13.83230413579432"><ele>520.0</ele><time>2026-03-29T09:48:26.999Z</time></trkpt><trkpt lat="42.46101361581294" lon="13.83213735109925"><ele>520.0</ele><time>2026-03-29T09:48:27.999Z</time></trkpt><trkpt lat="42.46091326986976" lon="13.832018596175622"><ele>520.0</ele><time>2026-03-29T09:48:28.999Z</time></trkpt><trkpt lat="42.46081340773305" lon="13.831929651897239"><ele>520.0</ele><time>2026-03-29T09:48:29.999Z</time></trkpt><trkpt lat="42.46071811584153" lon="13.831866974507703"><ele>520.0</ele><time>2026-03-29T09:48:30.999Z</time></trkpt><trkpt lat="42.460641795741104" lon="13.83177434931292"><ele>520.0</ele><time>2026-03-29T09:48:31.999Z</time></trkpt><trkpt lat="42.46059213816085" lon="13.831650319103625"><ele>520.0</ele><time>2026-03-29T09:48:32.999Z</time></trkpt><trkpt lat="42.460550190283215" lon="13.831508547331282"><ele>520.0</ele><time>2026-03-29T09:48:33.999Z</time></trkpt><trkpt lat="42.46051000981822" lon="13.831390858408993"><ele>520.0</ele><time>2026-03-29T09:48:34.999Z</time></trkpt><trkpt lat="42.460453609525416" lon="13.831280085553178"><ele>520.0</ele><time>2026-03-29T09:48:35.999Z</time></trkpt><trkpt lat="42.46038795072767" lon="13.831192765243326"><ele>520.0</ele><time>2026-03-29T09:48:36.999Z</time></trkpt><trkpt lat="42.46031441610389" lon="13.831113288098747"><ele>520.0</ele><time>2026-03-29T09:48:37.999Z</time></trkpt><trkpt lat="42.460226323538535" lon="13.831025325580043"><ele>524.25</ele><time>2026-03-29T09:48:38.999Z</time></trkpt><trkpt lat="42.460135863199156" lon="13.830924336069252"><ele>528.5</ele><time>2026-03-29T09:48:39.999Z</time></trkpt><trkpt lat="42.46004033446809" lon="13.830812510252791"><ele>532.75</ele><time>2026-03-29T09:48:40.999Z</time></trkpt><trkpt lat="42.4599325619574" lon="13.83069923861972"><ele>537.0</ele><time>2026-03-29T09:48:41.999Z</time></trkpt><trkpt lat="42.45982479278501" lon="13.830584163688858"><ele>537.0</ele><time>2026-03-29T09:48:42.999Z</time></trkpt><trkpt lat="42.45972591679703" lon="13.830466796732876"><ele>537.0</ele><time>2026-03-29T09:48:43.999Z</time></trkpt><trkpt lat="42.459626899231324" lon="13.830346776518619"><ele>537.0</ele><time>2026-03-29T09:48:44.999Z</time></trkpt><trkpt lat="42.459536333281356" lon="13.830221316053647"><ele>537.0</ele><time>2026-03-29T09:48:45.999Z</time></trkpt><trkpt lat="42.45945845154878" lon="13.830074836887578"><ele>536.5</ele><time>2026-03-29T09:48:46.999Z</time></trkpt><trkpt lat="42.45939347618634" lon="13.829925690783085"><ele>536.0</ele><time>2026-03-29T09:48:47.998Z</time></trkpt><trkpt lat="42.45933863937044" lon="13.829783101977565"><ele>535.5</ele><time>2026-03-29T09:48:48.998Z</time></trkpt><trkpt lat="42.459252402977654" lon="13.829670325243384"><ele>535.0</ele><time>2026-03-29T09:48:49.998Z</time></trkpt><trkpt lat="42.45913245029617" lon="13.829568606283733"><ele>535.0</ele><time>2026-03-29T09:48:50.998Z</time></trkpt><trkpt lat="42.45899577238873" lon="13.829485571359873"><ele>535.0</ele><time>2026-03-29T09:48:51.998Z</time></trkpt><trkpt lat="42.45885485737899" lon="13.82939976524448"><ele>535.0</ele><time>2026-03-29T09:48:52.998Z</time></trkpt><trkpt lat="42.458721033265576" lon="13.829307138022854"><ele>537.25</ele><time>2026-03-29T09:48:53.998Z</time></trkpt><trkpt lat="42.458605815925615" lon="13.829204883083149"><ele>539.5</ele><time>2026-03-29T09:48:54.998Z</time></trkpt><trkpt lat="42.458502883107045" lon="13.829072514677884"><ele>541.75</ele><time>2026-03-29T09:48:55.998Z</time></trkpt><trkpt lat="42.458400292619835" lon="13.828958556838892"><ele>544.0</ele><time>2026-03-29T09:48:56.998Z</time></trkpt><trkpt lat="42.45831079901552" lon="13.828834304985813"><ele>544.0</ele><time>2026-03-29T09:48:57.998Z</time></trkpt><trkpt lat="42.4581893643923" lon="13.828730847767257"><ele>544.0</ele><time>2026-03-29T09:48:58.998Z</time></trkpt><trkpt lat="42.458063914073406" lon="13.828663756507572"><ele>544.0</ele><time>2026-03-29T09:48:59.998Z</time></trkpt><trkpt lat="42.45794276717837" lon="13.828615241331853"><ele>544.0</ele><time>2026-03-29T09:49:00.998Z</time></trkpt><trkpt lat="42.45783960697587" lon="13.828576124981637"><ele>545.4</ele><time>2026-03-29T09:49:01.998Z</time></trkpt><trkpt lat="42.457750773923536" lon="13.828543439666817"><ele>546.8</ele><time>2026-03-29T09:49:02.998Z</time></trkpt><trkpt lat="42.45766163562281" lon="13.828556993634507"><ele>548.2</ele><time>2026-03-29T09:49:03.998Z</time></trkpt><trkpt lat="42.45756662784045" lon="13.82862869937297"><ele>549.6</ele><time>2026-03-29T09:49:04.998Z</time></trkpt><trkpt lat="42.45748251779057" lon="13.828748550325273"><ele>551.0</ele><time>2026-03-29T09:49:05.998Z</time></trkpt><trkpt lat="42.45743069755577" lon="13.828898946297624"><ele>551.0</ele><time>2026-03-29T09:49:06.998Z</time></trkpt><trkpt lat="42.45739621764022" lon="13.82906496625583"><ele>551.0</ele><time>2026-03-29T09:49:07.998Z</time></trkpt><trkpt lat="42.45734994069552" lon="13.829223557839958"><ele>551.0</ele><time>2026-03-29T09:49:08.998Z</time></trkpt><trkpt lat="42.457292234961905" lon="13.829358350406796"><ele>551.0</ele><time>2026-03-29T09:49:09.998Z</time></trkpt><trkpt lat="42.45721907103823" lon="13.829487063893644"><ele>550.0</ele><time>2026-03-29T09:49:10.998Z</time></trkpt><trkpt lat="42.45711297531391" lon="13.829559371782553"><ele>549.0</ele><time>2026-03-29T09:49:11.998Z</time></trkpt><trkpt lat="42.45699764062069" lon="13.829613315691821"><ele>548.0</ele><time>2026-03-29T09:49:12.998Z</time></trkpt><trkpt lat="42.45688487177713" lon="13.829689173408829"><ele>547.0</ele><time>2026-03-29T09:49:13.998Z</time></trkpt><trkpt lat="42.45677520365183" lon="13.829734260852288"><ele>547.0</ele><time>2026-03-29T09:49:14.998Z</time></trkpt><trkpt lat="42.45667719650434" lon="13.829757288487313"><ele>547.0</ele><time>2026-03-29T09:49:15.998Z</time></trkpt><trkpt lat="42.45658944523652" lon="13.829770969404207"><ele>547.0</ele><time>2026-03-29T09:49:16.998Z</time></trkpt><trkpt lat="42.456480242587375" lon="13.829759078393417"><ele>547.0</ele><time>2026-03-29T09:49:17.998Z</time></trkpt><trkpt lat="42.45636538093532" lon="13.829698678257218"><ele>547.0</ele><time>2026-03-29T09:49:19Z</time></trkpt><trkpt lat="42.456241930170656" lon="13.829632868955622"><ele>547.5</ele><time>2026-03-29T09:49:20Z</time></trkpt><trkpt lat="42.45611019933202" lon="13.82956143122521"><ele>548.0</ele><time>2026-03-29T09:49:21Z</time></trkpt><trkpt lat="42.45597240192291" lon="13.829489617916598"><ele>548.5</ele><time>2026-03-29T09:49:22Z</time></trkpt><trkpt lat="42.455839198302" lon="13.829413756060163"><ele>549.0</ele><time>2026-03-29T09:49:23Z</time></trkpt><trkpt lat="42.45569841791466" lon="13.82933413530459"><ele>554.0</ele><time>2026-03-29T09:49:24Z</time></trkpt><trkpt lat="42.455558923295726" lon="13.829252514031273"><ele>559.0</ele><time>2026-03-29T09:49:25Z</time></trkpt><trkpt lat="42.45541533558842" lon="13.829171968619567"><ele>564.0</ele><time>2026-03-29T09:49:26Z</time></trkpt><trkpt lat="42.45527343843904" lon="13.82908916045575"><ele>564.0</ele><time>2026-03-29T09:49:27Z</time></trkpt><trkpt lat="42.4551288362911" lon="13.829006790366208"><ele>564.0</ele><time>2026-03-29T09:49:28Z</time></trkpt><trkpt lat="42.454981290673416" lon="13.828923519061625"><ele>564.0</ele><time>2026-03-29T09:49:29Z</time></trkpt><trkpt lat="42.454846468431754" lon="13.828848555076938"><ele>564.0</ele><time>2026-03-29T09:49:30Z</time></trkpt><trkpt lat="42.454725565258244" lon="13.828778941193157"><ele>564.0</ele><time>2026-03-29T09:49:31Z</time></trkpt><trkpt lat="42.45461240601077" lon="13.82870921903433"><ele>564.0</ele><time>2026-03-29T09:49:32Z</time></trkpt><trkpt lat="42.45450384190565" lon="13.828666537928003"><ele>564.0</ele><time>2026-03-29T09:49:33Z</time></trkpt><trkpt lat="42.45438140480549" lon="13.82866419033995"><ele>564.25</ele><time>2026-03-29T09:49:34Z</time></trkpt><trkpt lat="42.45425795170913" lon="13.828703416301359"><ele>564.5</ele><time>2026-03-29T09:49:35Z</time></trkpt><trkpt lat="42.45415163303909" lon="13.828786408173839"><ele>564.75</ele><time>2026-03-29T09:49:36Z</time></trkpt><trkpt lat="42.45406159445293" lon="13.828882253111855"><ele>565.0</ele><time>2026-03-29T09:49:37Z</time></trkpt><trkpt lat="42.45396537169061" lon="13.828947715649432"><ele>565.0</ele><time>2026-03-29T09:49:38Z</time></trkpt><trkpt lat="42.45384549895783" lon="13.828973022605561"><ele>565.0</ele><time>2026-03-29T09:49:39Z</time></trkpt><trkpt lat="42.45372834647179" lon="13.82894809473177"><ele>565.0</ele><time>2026-03-29T09:49:40Z</time></trkpt><trkpt lat="42.4536082928517" lon="13.828895931308825"><ele>565.0</ele><time>2026-03-29T09:49:41Z</time></trkpt><trkpt lat="42.453491458172635" lon="13.828807933023496"><ele>566.4</ele><time>2026-03-29T09:49:42Z</time></trkpt><trkpt lat="42.45338953344751" lon="13.828721744023268"><ele>567.8</ele><time>2026-03-29T09:49:43Z</time></trkpt><trkpt lat="42.453284900234834" lon="13.828637270094788"><ele>569.2</ele><time>2026-03-29T09:49:44Z</time></trkpt><trkpt lat="42.45319480609148" lon="13.828554046506802"><ele>570.6</ele><time>2026-03-29T09:49:45Z</time></trkpt><trkpt lat="42.45313025178134" lon="13.828460645106183"><ele>572.0</ele><time>2026-03-29T09:49:46Z</time></trkpt><trkpt lat="42.45308246130292" lon="13.828356960509254"><ele>574.2</ele><time>2026-03-29T09:49:47Z</time></trkpt><trkpt lat="42.453072948343774" lon="13.828226889390987"><ele>576.4000000000001</ele><time>2026-03-29T09:49:48Z</time></trkpt><trkpt lat="42.45308014836287" lon="13.828084311742469"><ele>578.5999999999999</ele><time>2026-03-29T09:49:49Z</time></trkpt><trkpt lat="42.453074872261325" lon="13.827933381367515"><ele>580.8</ele><time>2026-03-29T09:49:50Z</time></trkpt><trkpt lat="42.45306473256441" lon="13.82778359606628"><ele>583.0</ele><time>2026-03-29T09:49:51Z</time></trkpt><trkpt lat="42.45305425824663" lon="13.827646221557728"><ele>582.8</ele><time>2026-03-29T09:49:52Z</time></trkpt><trkpt lat="42.45303005586573" lon="13.827508594764826"><ele>582.5999999999999</ele><time>2026-03-29T09:49:53Z</time></trkpt><trkpt lat="42.452976325476406" lon="13.827397933524574"><ele>582.4000000000001</ele><time>2026-03-29T09:49:54Z</time></trkpt><trkpt lat="42.45289082695978" lon="13.82731806398378"><ele>582.2</ele><time>2026-03-29T09:49:55Z</time></trkpt><trkpt lat="42.452782090146464" lon="13.827277473092318"><ele>582.0</ele><time>2026-03-29T09:49:56Z</time></trkpt><trkpt lat="42.4526684868307" lon="13.82724915896764"><ele>582.0</ele><time>2026-03-29T09:49:57Z</time></trkpt><trkpt lat="42.45254823802661" lon="13.827215212730776"><ele>582.0</ele><time>2026-03-29T09:49:58Z</time></trkpt><trkpt lat="42.45242249688011" lon="13.827181959732654"><ele>582.0</ele><time>2026-03-29T09:49:59Z</time></trkpt><trkpt lat="42.4522931273999" lon="13.827140321673584"><ele>582.0</ele><time>2026-03-29T09:50:00Z</time></trkpt><trkpt lat="42.452164768392535" lon="13.827098322182056"><ele>580.5</ele><time>2026-03-29T09:50:01Z</time></trkpt><trkpt lat="42.45205291829515" lon="13.827060344501673"><ele>579.0</ele><time>2026-03-29T09:50:02Z</time></trkpt><trkpt lat="42.4519505351653" lon="13.827004175157612"><ele>577.5</ele><time>2026-03-29T09:50:02.999Z</time></trkpt><trkpt lat="42.45184275951919" lon="13.826906494450535"><ele>576.0</ele><time>2026-03-29T09:50:03.999Z</time></trkpt><trkpt lat="42.45174348687061" lon="13.826793070010662"><ele>579.5</ele><time>2026-03-29T09:50:04.999Z</time></trkpt><trkpt lat="42.45166082905913" lon="13.826683304275399"><ele>583.0</ele><time>2026-03-29T09:50:05.999Z</time></trkpt><trkpt lat="42.451590735704734" lon="13.826562370904348"><ele>586.5</ele><time>2026-03-29T09:50:06.999Z</time></trkpt><trkpt lat="42.451558310355765" lon="13.826405605694978"><ele>590.0</ele><time>2026-03-29T09:50:07.999Z</time></trkpt><trkpt lat="42.4515202600902" lon="13.826239806642414"><ele>590.0</ele><time>2026-03-29T09:50:08.999Z</time></trkpt><trkpt lat="42.4515202833181" lon="13.826063051449704"><ele>590.0</ele><time>2026-03-29T09:50:09.999Z</time></trkpt><trkpt lat="42.45151841936915" lon="13.825888328810596"><ele>590.0</ele><time>2026-03-29T09:50:10.999Z</time></trkpt><trkpt lat="42.45151415687074" lon="13.825707944183264"><ele>590.0</ele><time>2026-03-29T09:50:11.999Z</time></trkpt><trkpt lat="42.4515078688552" lon="13.825546642882294"><ele>591.6</ele><time>2026-03-29T09:50:12.999Z</time></trkpt><trkpt lat="42.45150273170198" lon="13.825403198741919"><ele>593.2</ele><time>2026-03-29T09:50:13.999Z</time></trkpt><trkpt lat="42.45149649276996" lon="13.82526540512362"><ele>594.8</ele><time>2026-03-29T09:50:14.999Z</time></trkpt><trkpt lat="42.45145720855672" lon="13.825134061324677"><ele>596.4</ele><time>2026-03-29T09:50:15.999Z</time></trkpt><trkpt lat="42.451381928520625" lon="13.82502522427517"><ele>598.0</ele><time>2026-03-29T09:50:16.999Z</time></trkpt><trkpt lat="42.451282371007146" lon="13.824928490677406"><ele>598.0</ele><time>2026-03-29T09:50:17.999Z</time></trkpt><trkpt lat="42.45116959944691" lon="13.824826858384279"><ele>598.0</ele><time>2026-03-29T09:50:18.999Z</time></trkpt><trkpt lat="42.45105216000374" lon="13.824731037151846"><ele>598.0</ele><time>2026-03-29T09:50:19.999Z</time></trkpt><trkpt lat="42.450926602970185" lon="13.824627181201187"><ele>598.0</ele><time>2026-03-29T09:50:20.999Z</time></trkpt><trkpt lat="42.450806804509995" lon="13.824539022358817"><ele>598.0</ele><time>2026-03-29T09:50:21.999Z</time></trkpt><trkpt lat="42.450693352856064" lon="13.824476668077097"><ele>598.0</ele><time>2026-03-29T09:50:22.999Z</time></trkpt><trkpt lat="42.45058858188133" lon="13.82442269871036"><ele>598.0</ele><time>2026-03-29T09:50:23.999Z</time></trkpt><trkpt lat="42.45048500846186" lon="13.824369343668872"><ele>598.0</ele><time>2026-03-29T09:50:24.999Z</time></trkpt><trkpt lat="42.450395025841836" lon="13.824319712045089"><ele>598.0</ele><time>2026-03-29T09:50:25.999Z</time></trkpt><trkpt lat="42.45031575303357" lon="13.824259960594187"><ele>599.3333333333334</ele><time>2026-03-29T09:50:26.999Z</time></trkpt><trkpt lat="42.450244496644686" lon="13.824197777495312"><ele>600.6666666666667</ele><time>2026-03-29T09:50:27.999Z</time></trkpt><trkpt lat="42.45018089963099" lon="13.824132731762772"><ele>602.0</ele><time>2026-03-29T09:50:28.999Z</time></trkpt><trkpt lat="42.45012160240688" lon="13.82407227714974"><ele>603.3333333333334</ele><time>2026-03-29T09:50:29.999Z</time></trkpt><trkpt lat="42.45005119327714" lon="13.824045759459556"><ele>604.6666666666666</ele><time>2026-03-29T09:50:30.999Z</time></trkpt><trkpt lat="42.44997113112408" lon="13.824017810474455"><ele>606.0</ele><time>2026-03-29T09:50:31.999Z</time></trkpt><trkpt lat="42.4498917838298" lon="13.823944429175972"><ele>606.0</ele><time>2026-03-29T09:50:32.999Z</time></trkpt><trkpt lat="42.449812218312864" lon="13.823832140078236"><ele>606.0</ele><time>2026-03-29T09:50:33.999Z</time></trkpt><trkpt lat="42.449724194097115" lon="13.823690520836243"><ele>606.0</ele><time>2026-03-29T09:50:34.999Z</time></trkpt><trkpt lat="42.44962683000382" lon="13.823564003762597"><ele>606.0</ele><time>2026-03-29T09:50:35.999Z</time></trkpt><trkpt lat="42.44952631165615" lon="13.823449709522434"><ele>605.0</ele><time>2026-03-29T09:50:36.999Z</time></trkpt><trkpt lat="42.44943128529308" lon="13.823334460983133"><ele>604.0</ele><time>2026-03-29T09:50:37.999Z</time></trkpt><trkpt lat="42.449338728914974" lon="13.823221073187506"><ele>603.0</ele><time>2026-03-29T09:50:38.999Z</time></trkpt><trkpt lat="42.449251668698416" lon="13.823130357640137"><ele>602.0</ele><time>2026-03-29T09:50:39.999Z</time></trkpt><trkpt lat="42.449168045859885" lon="13.823066167053083"><ele>602.0</ele><time>2026-03-29T09:50:40.999Z</time></trkpt><trkpt lat="42.44906558073968" lon="13.823046688214665"><ele>602.0</ele><time>2026-03-29T09:50:41.999Z</time></trkpt><trkpt lat="42.448940530418376" lon="13.823048924969761"><ele>602.0</ele><time>2026-03-29T09:50:42.999Z</time></trkpt><trkpt lat="42.4488047122277" lon="13.823083841859996"><ele>602.0</ele><time>2026-03-29T09:50:43.999Z</time></trkpt><trkpt lat="42.44867836050641" lon="13.823146902187293"><ele>601.5</ele><time>2026-03-29T09:50:44.999Z</time></trkpt><trkpt lat="42.4485604597141" lon="13.82322404661346"><ele>601.0</ele><time>2026-03-29T09:50:45.999Z</time></trkpt><trkpt lat="42.44844240988351" lon="13.823302013555912"><ele>600.5</ele><time>2026-03-29T09:50:46.999Z</time></trkpt><trkpt lat="42.44832969676942" lon="13.823360910797437"><ele>600.0</ele><time>2026-03-29T09:50:47.999Z</time></trkpt><trkpt lat="42.44819290801395" lon="13.82340138855023"><ele>600.0</ele><time>2026-03-29T09:50:48.999Z</time></trkpt><trkpt lat="42.44804525671337" lon="13.823399012598232"><ele>600.0</ele><time>2026-03-29T09:50:49.999Z</time></trkpt><trkpt lat="42.44789495740447" lon="13.823384773215126"><ele>600.0</ele><time>2026-03-29T09:50:50.999Z</time></trkpt><trkpt lat="42.44773755851585" lon="13.823376604615602"><ele>599.3333333333334</ele><time>2026-03-29T09:50:51.999Z</time></trkpt><trkpt lat="42.44757772818493" lon="13.8233723753113"><ele>598.6666666666667</ele><time>2026-03-29T09:50:52.999Z</time></trkpt><trkpt lat="42.447425682867184" lon="13.823376138124706"><ele>598.0</ele><time>2026-03-29T09:50:53.999Z</time></trkpt><trkpt lat="42.44726878012163" lon="13.823358169105745"><ele>595.0</ele><time>2026-03-29T09:50:54.999Z</time></trkpt><trkpt lat="42.447111647226286" lon="13.823290333315935"><ele>592.0</ele><time>2026-03-29T09:50:55.999Z</time></trkpt><trkpt lat="42.44693525629095" lon="13.823282960992314"><ele>589.0</ele><time>2026-03-29T09:50:56.999Z</time></trkpt><trkpt lat="42.44676906136291" lon="13.823281332427335"><ele>589.0</ele><time>2026-03-29T09:50:57.999Z</time></trkpt><trkpt lat="42.446606768291595" lon="13.823275160129132"><ele>589.0</ele><time>2026-03-29T09:50:58.998Z</time></trkpt><trkpt lat="42.44646273559687" lon="13.823258852411737"><ele>589.0</ele><time>2026-03-29T09:50:59.998Z</time></trkpt><trkpt lat="42.446320608040935" lon="13.823210982179953"><ele>582.0</ele><time>2026-03-29T09:51:00.998Z</time></trkpt><trkpt lat="42.446174685511494" lon="13.823126157421552"><ele>575.0</ele><time>2026-03-29T09:51:01.998Z</time></trkpt><trkpt lat="42.446022237233635" lon="13.82304626981066"><ele>568.0</ele><time>2026-03-29T09:51:02.998Z</time></trkpt><trkpt lat="42.445873389629384" lon="13.822980622814523"><ele>568.0</ele><time>2026-03-29T09:51:03.998Z</time></trkpt><trkpt lat="42.44573133298303" lon="13.822895161177435"><ele>568.0</ele><time>2026-03-29T09:51:04.998Z</time></trkpt><trkpt lat="42.44559410059272" lon="13.822807786786093"><ele>568.0</ele><time>2026-03-29T09:51:05.998Z</time></trkpt><trkpt lat="42.445447325438344" lon="13.822737381680962"><ele>563.0</ele><time>2026-03-29T09:51:06.998Z</time></trkpt><trkpt lat="42.445295323633616" lon="13.822697830800262"><ele>558.0</ele><time>2026-03-29T09:51:07.998Z</time></trkpt><trkpt lat="42.445143409449244" lon="13.822670637971147"><ele>553.0</ele><time>2026-03-29T09:51:08.998Z</time></trkpt><trkpt lat="42.444995317668415" lon="13.8226462960685"><ele>551.5</ele><time>2026-03-29T09:51:09.998Z</time></trkpt><trkpt lat="42.44485002871238" lon="13.822616082430503"><ele>550.0</ele><time>2026-03-29T09:51:10.998Z</time></trkpt><trkpt lat="42.44469911288726" lon="13.822640203763614"><ele>548.5</ele><time>2026-03-29T09:51:11.998Z</time></trkpt><trkpt lat="42.44455642613458" lon="13.822643118596572"><ele>547.0</ele><time>2026-03-29T09:51:12.998Z</time></trkpt><trkpt lat="42.44440847221798" lon="13.82267001628502"><ele>547.0</ele><time>2026-03-29T09:51:13.998Z</time></trkpt><trkpt lat="42.44426635101711" lon="13.822733309212515"><ele>547.0</ele><time>2026-03-29T09:51:14.998Z</time></trkpt><trkpt lat="42.444122279996" lon="13.822790584296884"><ele>547.0</ele><time>2026-03-29T09:51:15.998Z</time></trkpt><trkpt lat="42.44397715847382" lon="13.822824203590695"><ele>547.0</ele><time>2026-03-29T09:51:16.998Z</time></trkpt><trkpt lat="42.44382817810484" lon="13.822854638714535"><ele>546.25</ele><time>2026-03-29T09:51:17.998Z</time></trkpt><trkpt lat="42.44369644448877" lon="13.822875008714442"><ele>545.5</ele><time>2026-03-29T09:51:18.998Z</time></trkpt><trkpt lat="42.44356827557726" lon="13.822886485544192"><ele>544.75</ele><time>2026-03-29T09:51:19.998Z</time></trkpt><trkpt lat="42.44343991697003" lon="13.822888766321217"><ele>544.0</ele><time>2026-03-29T09:51:20.998Z</time></trkpt><trkpt lat="42.443306915130194" lon="13.822887171279682"><ele>544.0</ele><time>2026-03-29T09:51:21.998Z</time></trkpt><trkpt lat="42.44317730343837" lon="13.822905654868295"><ele>544.0</ele><time>2026-03-29T09:51:22.998Z</time></trkpt><trkpt lat="42.44304915648532" lon="13.822908946076884"><ele>544.0</ele><time>2026-03-29T09:51:24Z</time></trkpt><trkpt lat="42.44292043787071" lon="13.82293103305121"><ele>544.0</ele><time>2026-03-29T09:51:25Z</time></trkpt><trkpt lat="42.442796672475865" lon="13.822905221464653"><ele>544.0</ele><time>2026-03-29T09:51:26Z</time></trkpt><trkpt lat="42.44267069196982" lon="13.822934165919348"><ele>544.0</ele><time>2026-03-29T09:51:27Z</time></trkpt><trkpt lat="42.442547107093894" lon="13.82294997470866"><ele>544.0</ele><time>2026-03-29T09:51:28Z</time></trkpt><trkpt lat="42.4424264264588" lon="13.822989071805681"><ele>544.0</ele><time>2026-03-29T09:51:29Z</time></trkpt><trkpt lat="42.44233008931942" lon="13.823036740898461"><ele>544.0</ele><time>2026-03-29T09:51:30Z</time></trkpt><trkpt lat="42.44225711307963" lon="13.82305944167553"><ele>544.0</ele><time>2026-03-29T09:51:31Z</time></trkpt><trkpt lat="42.44218782181381" lon="13.823060309583873"><ele>544.0</ele><time>2026-03-29T09:51:32Z</time></trkpt><trkpt lat="42.44213355187923" lon="13.823000654958276"><ele>544.0</ele><time>2026-03-29T09:51:33Z</time></trkpt><trkpt lat="42.442089646527904" lon="13.822901812365973"><ele>544.0</ele><time>2026-03-29T09:51:34Z</time></trkpt><trkpt lat="42.44205230202206" lon="13.822794557068224"><ele>544.0</ele><time>2026-03-29T09:51:35Z</time></trkpt><trkpt lat="42.44201262163035" lon="13.822687312044094"><ele>543.1666666666667</ele><time>2026-03-29T09:51:36Z</time></trkpt><trkpt lat="42.44196839740781" lon="13.82257577277612"><ele>542.3333333333334</ele><time>2026-03-29T09:51:37Z</time></trkpt><trkpt lat="42.44193195850528" lon="13.822465124882907"><ele>541.5</ele><time>2026-03-29T09:51:38Z</time></trkpt><trkpt lat="42.44190473141878" lon="13.822347113328357"><ele>540.6666666666666</ele><time>2026-03-29T09:51:39Z</time></trkpt><trkpt lat="42.44187586593725" lon="13.822233157976566"><ele>539.8333333333333</ele><time>2026-03-29T09:51:40Z</time></trkpt><trkpt lat="42.4418540156249" lon="13.822138876474632"><ele>539.0</ele><time>2026-03-29T09:51:41Z</time></trkpt><trkpt lat="42.441865542601384" lon="13.822053453219857"><ele>539.0</ele><time>2026-03-29T09:51:42Z</time></trkpt><trkpt lat="42.441912585536045" lon="13.82197125988774"><ele>539.0</ele><time>2026-03-29T09:51:43Z</time></trkpt><trkpt lat="42.44198321701235" lon="13.82191846038563"><ele>539.0</ele><time>2026-03-29T09:51:44Z</time></trkpt><trkpt lat="42.44206861005101" lon="13.82188212793662"><ele>539.0</ele><time>2026-03-29T09:51:45Z</time></trkpt><trkpt lat="42.44215360613987" lon="13.821828304184141"><ele>539.0</ele><time>2026-03-29T09:51:46Z</time></trkpt><trkpt lat="42.44222942660961" lon="13.821761371853357"><ele>539.0</ele><time>2026-03-29T09:51:47Z</time></trkpt><trkpt lat="42.44228816816136" lon="13.821711950460882"><ele>541.4</ele><time>2026-03-29T09:51:48Z</time></trkpt><trkpt lat="42.44232805489409" lon="13.821606814972016"><ele>543.8</ele><time>2026-03-29T09:51:50Z</time></trkpt><trkpt lat="42.44225750161688" lon="13.821493255927336"><ele>546.2</ele><time>2026-03-29T09:51:51Z</time></trkpt><trkpt lat="42.44217151218122" lon="13.821469995595232"><ele>548.6</ele><time>2026-03-29T09:51:52Z</time></trkpt><trkpt lat="42.442091548358036" lon="13.821531246453159"><ele>551.0</ele><time>2026-03-29T09:51:53Z</time></trkpt><trkpt lat="42.44202189406025" lon="13.821609509732344"><ele>549.0</ele><time>2026-03-29T09:51:54Z</time></trkpt><trkpt lat="42.44195572465504" lon="13.821684487873013"><ele>547.0</ele><time>2026-03-29T09:51:55Z</time></trkpt><trkpt lat="42.44188713609968" lon="13.821745597329144"><ele>545.0</ele><time>2026-03-29T09:51:56Z</time></trkpt><trkpt lat="42.44181655585445" lon="13.821802600853747"><ele>543.0</ele><time>2026-03-29T09:51:57Z</time></trkpt><trkpt lat="42.441743399425434" lon="13.821865136781353"><ele>541.0</ele><time>2026-03-29T09:51:58Z</time></trkpt><trkpt lat="42.44166510439727" lon="13.82192195594857"><ele>539.0</ele><time>2026-03-29T09:51:59Z</time></trkpt><trkpt lat="42.44159048057705" lon="13.821926069998806"><ele>539.0</ele><time>2026-03-29T09:52:00Z</time></trkpt><trkpt lat="42.44149652884739" lon="13.821965336548915"><ele>539.0</ele><time>2026-03-29T09:52:02Z</time></trkpt><trkpt lat="42.44141259341924" lon="13.821940281360678"><ele>539.0</ele><time>2026-03-29T09:52:04Z</time></trkpt><trkpt lat="42.44150887461055" lon="13.821765031445581"><ele>539.0</ele><time>2026-03-29T09:52:07Z</time></trkpt><trkpt lat="42.44157973402062" lon="13.821750547672123"><ele>539.0</ele><time>2026-03-29T09:52:08Z</time></trkpt><trkpt lat="42.44166520517894" lon="13.821739625988723"><ele>536.6</ele><time>2026-03-29T09:52:09Z</time></trkpt><trkpt lat="42.44175227975505" lon="13.821696745008772"><ele>534.2</ele><time>2026-03-29T09:52:10Z</time></trkpt><trkpt lat="42.44184611536916" lon="13.821619575538252"><ele>531.8000000000001</ele><time>2026-03-29T09:52:11Z</time></trkpt><trkpt lat="42.441921121547814" lon="13.821524970979963"><ele>529.4</ele><time>2026-03-29T09:52:12Z</time></trkpt><trkpt lat="42.441985380360535" lon="13.821422209763533"><ele>527.0</ele><time>2026-03-29T09:52:13Z</time></trkpt><trkpt lat="42.44204606093489" lon="13.821318668982075"><ele>527.0</ele><time>2026-03-29T09:52:13.999Z</time></trkpt><trkpt lat="42.44210795713743" lon="13.821221970482519"><ele>527.0</ele><time>2026-03-29T09:52:14.999Z</time></trkpt><trkpt lat="42.44216663067653" lon="13.821120466229537"><ele>527.0</ele><time>2026-03-29T09:52:15.999Z</time></trkpt><trkpt lat="42.442202104249674" lon="13.821006083979496"><ele>527.0</ele><time>2026-03-29T09:52:16.999Z</time></trkpt><trkpt lat="42.44220880686795" lon="13.820868766375337"><ele>527.0</ele><time>2026-03-29T09:52:17.999Z</time></trkpt><trkpt lat="42.442184222868306" lon="13.820702357842816"><ele>529.0</ele><time>2026-03-29T09:52:18.999Z</time></trkpt><trkpt lat="42.442143806807245" lon="13.820517195100619"><ele>531.0</ele><time>2026-03-29T09:52:19.999Z</time></trkpt><trkpt lat="42.442141086314464" lon="13.82033488202235"><ele>533.0</ele><time>2026-03-29T09:52:20.999Z</time></trkpt><trkpt lat="42.4421436436743" lon="13.820118215226072"><ele>535.0</ele><time>2026-03-29T09:52:21.999Z</time></trkpt><trkpt lat="42.4421513214858" lon="13.819866065167277"><ele>535.0</ele><time>2026-03-29T09:52:22.999Z</time></trkpt><trkpt lat="42.44216748341926" lon="13.819607886329932"><ele>535.0</ele><time>2026-03-29T09:52:23.999Z</time></trkpt><trkpt lat="42.44217746544063" lon="13.819381210469437"><ele>535.0</ele><time>2026-03-29T09:52:24.999Z</time></trkpt><trkpt lat="42.44221756570147" lon="13.81916850544473"><ele>534.6666666666667</ele><time>2026-03-29T09:52:25.999Z</time></trkpt><trkpt lat="42.44223300304935" lon="13.81893979540036"><ele>534.3333333333334</ele><time>2026-03-29T09:52:26.999Z</time></trkpt><trkpt lat="42.44220923435914" lon="13.818708205672293"><ele>534.0</ele><time>2026-03-29T09:52:27.999Z</time></trkpt><trkpt lat="42.44217191449178" lon="13.818492802857072"><ele>532.25</ele><time>2026-03-29T09:52:28.999Z</time></trkpt><trkpt lat="42.44214343788614" lon="13.818285750735342"><ele>530.5</ele><time>2026-03-29T09:52:29.999Z</time></trkpt><trkpt lat="42.44214601895385" lon="13.818082692860063"><ele>528.75</ele><time>2026-03-29T09:52:30.999Z</time></trkpt><trkpt lat="42.44216127488987" lon="13.817900162735942"><ele>527.0</ele><time>2026-03-29T09:52:31.999Z</time></trkpt><trkpt lat="42.442177483976515" lon="13.817750358461165"><ele>522.75</ele><time>2026-03-29T09:52:32.999Z</time></trkpt><trkpt lat="42.4422255438023" lon="13.817614030217571"><ele>518.5</ele><time>2026-03-29T09:52:33.999Z</time></trkpt><trkpt lat="42.442320131840106" lon="13.817476325773011"><ele>514.25</ele><time>2026-03-29T09:52:34.999Z</time></trkpt><trkpt lat="42.44244043787711" lon="13.817330787853088"><ele>510.0</ele><time>2026-03-29T09:52:35.999Z</time></trkpt><trkpt lat="42.442569059955886" lon="13.81717043519335"><ele>510.0</ele><time>2026-03-29T09:52:36.999Z</time></trkpt><trkpt lat="42.44267899741884" lon="13.817030772041008"><ele>510.0</ele><time>2026-03-29T09:52:37.999Z</time></trkpt><trkpt lat="42.442762461901985" lon="13.816919259645406"><ele>510.0</ele><time>2026-03-29T09:52:38.999Z</time></trkpt><trkpt lat="42.442827475716896" lon="13.816830309843695"><ele>510.0</ele><time>2026-03-29T09:52:39.999Z</time></trkpt><trkpt lat="42.44287035572573" lon="13.816751534992934"><ele>510.0</ele><time>2026-03-29T09:52:40.999Z</time></trkpt><trkpt lat="42.44287338748423" lon="13.816657830286887"><ele>510.0</ele><time>2026-03-29T09:52:41.999Z</time></trkpt><trkpt lat="42.4428306726543" lon="13.816585226701116"><ele>510.0</ele><time>2026-03-29T09:52:42.999Z</time></trkpt><trkpt lat="42.44277187059994" lon="13.8165376957621"><ele>510.0</ele><time>2026-03-29T09:52:43.999Z</time></trkpt><trkpt lat="42.44268703960258" lon="13.816600871005289"><ele>510.0</ele><time>2026-03-29T09:52:44.999Z</time></trkpt><trkpt lat="42.442615318831386" lon="13.816716737522617"><ele>510.0</ele><time>2026-03-29T09:52:45.999Z</time></trkpt><trkpt lat="42.44255041999442" lon="13.816842981767886"><ele>510.0</ele><time>2026-03-29T09:52:46.999Z</time></trkpt><trkpt lat="42.442473263582514" lon="13.816997152394052"><ele>510.0</ele><time>2026-03-29T09:52:47.999Z</time></trkpt><trkpt lat="42.44238238534256" lon="13.8171204201591"><ele>510.0</ele><time>2026-03-29T09:52:48.999Z</time></trkpt><trkpt lat="42.44225207191563" lon="13.817215597259588"><ele>510.0</ele><time>2026-03-29T09:52:49.999Z</time></trkpt><trkpt lat="42.442146185922056" lon="13.817345269449627"><ele>505.25</ele><time>2026-03-29T09:52:50.999Z</time></trkpt><trkpt lat="42.442053632001034" lon="13.817455265665187"><ele>500.5</ele><time>2026-03-29T09:52:51.999Z</time></trkpt><trkpt lat="42.44199358997268" lon="13.817595048033334"><ele>495.75</ele><time>2026-03-29T09:52:52.999Z</time></trkpt><trkpt lat="42.4419537847619" lon="13.817773635224954"><ele>491.0</ele><time>2026-03-29T09:52:53.999Z</time></trkpt><trkpt lat="42.44192968883073" lon="13.817968734222388"><ele>491.0</ele><time>2026-03-29T09:52:54.999Z</time></trkpt><trkpt lat="42.44184577294771" lon="13.818107305095412"><ele>491.0</ele><time>2026-03-29T09:52:55.999Z</time></trkpt><trkpt lat="42.441792017395684" lon="13.818278171327224"><ele>491.0</ele><time>2026-03-29T09:52:56.999Z</time></trkpt><trkpt lat="42.44174193773235" lon="13.818465594373054"><ele>491.0</ele><time>2026-03-29T09:52:57.999Z</time></trkpt><trkpt lat="42.44174069611466" lon="13.818686887842988"><ele>492.5</ele><time>2026-03-29T09:52:58.999Z</time></trkpt><trkpt lat="42.44175518957658" lon="13.818903643629906"><ele>494.0</ele><time>2026-03-29T09:52:59.999Z</time></trkpt><trkpt lat="42.441751051852336" lon="13.819089401614171"><ele>495.5</ele><time>2026-03-29T09:53:00.999Z</time></trkpt><trkpt lat="42.4417154395401" lon="13.819245654005751"><ele>497.0</ele><time>2026-03-29T09:53:01.999Z</time></trkpt><trkpt lat="42.44165532693087" lon="13.819392043611755"><ele>499.66666666666663</ele><time>2026-03-29T09:53:02.999Z</time></trkpt><trkpt lat="42.44155033173025" lon="13.819527198928586"><ele>502.33333333333337</ele><time>2026-03-29T09:53:03.999Z</time></trkpt><trkpt lat="42.441432420790775" lon="13.819669746699029"><ele>505.0</ele><time>2026-03-29T09:53:04.999Z</time></trkpt><trkpt lat="42.441330786401004" lon="13.819828528278215"><ele>499.75</ele><time>2026-03-29T09:53:05.999Z</time></trkpt><trkpt lat="42.44124887493059" lon="13.820006053422517"><ele>494.5</ele><time>2026-03-29T09:53:06.999Z</time></trkpt><trkpt lat="42.44117733023744" lon="13.820167436965896"><ele>489.25</ele><time>2026-03-29T09:53:07.999Z</time></trkpt><trkpt lat="42.44110414384715" lon="13.820311098607428"><ele>484.0</ele><time>2026-03-29T09:53:08.999Z</time></trkpt><trkpt lat="42.441064033548464" lon="13.820462847922455"><ele>484.0</ele><time>2026-03-29T09:53:09.999Z</time></trkpt><trkpt lat="42.441058428074996" lon="13.820639601958563"><ele>484.0</ele><time>2026-03-29T09:53:10.998Z</time></trkpt><trkpt lat="42.44106726355562" lon="13.8208146848378"><ele>484.0</ele><time>2026-03-29T09:53:11.998Z</time></trkpt><trkpt lat="42.44103645185488" lon="13.820961692972258"><ele>484.0</ele><time>2026-03-29T09:53:12.998Z</time></trkpt><trkpt lat="42.44099298473086" lon="13.821106287696896"><ele>486.75</ele><time>2026-03-29T09:53:13.998Z</time></trkpt><trkpt lat="42.44085496862799" lon="13.821181582893686"><ele>489.5</ele><time>2026-03-29T09:53:14.998Z</time></trkpt><trkpt lat="42.440737312159506" lon="13.821264702603884"><ele>492.25</ele><time>2026-03-29T09:53:15.998Z</time></trkpt><trkpt lat="42.440631135840185" lon="13.82134492272054"><ele>495.0</ele><time>2026-03-29T09:53:16.998Z</time></trkpt><trkpt lat="42.44056168395479" lon="13.821442038890643"><ele>495.0</ele><time>2026-03-29T09:53:17.998Z</time></trkpt><trkpt lat="42.44051707784896" lon="13.82157341409103"><ele>495.0</ele><time>2026-03-29T09:53:18.998Z</time></trkpt><trkpt lat="42.44050951486119" lon="13.821726173564175"><ele>495.0</ele><time>2026-03-29T09:53:19.998Z</time></trkpt><trkpt lat="42.4405301358242" lon="13.821890333298251"><ele>495.0</ele><time>2026-03-29T09:53:20.998Z</time></trkpt><trkpt lat="42.44056228548457" lon="13.822053862117581"><ele>497.25</ele><time>2026-03-29T09:53:21.998Z</time></trkpt><trkpt lat="42.440568974668416" lon="13.822212367857563"><ele>499.5</ele><time>2026-03-29T09:53:22.998Z</time></trkpt><trkpt lat="42.44053993035135" lon="13.822371403261196"><ele>501.75</ele><time>2026-03-29T09:53:23.998Z</time></trkpt><trkpt lat="42.440480449484326" lon="13.822520877173964"><ele>504.0</ele><time>2026-03-29T09:53:24.998Z</time></trkpt><trkpt lat="42.440401255582344" lon="13.822676899700722"><ele>496.25</ele><time>2026-03-29T09:53:25.998Z</time></trkpt><trkpt lat="42.44031972890489" lon="13.822828023884727"><ele>488.5</ele><time>2026-03-29T09:53:26.998Z</time></trkpt><trkpt lat="42.440239627769046" lon="13.822972805224126"><ele>480.75</ele><time>2026-03-29T09:53:27.998Z</time></trkpt><trkpt lat="42.44014677449138" lon="13.823093673529241"><ele>473.0</ele><time>2026-03-29T09:53:28.998Z</time></trkpt><trkpt lat="42.44005635367248" lon="13.823189823896854"><ele>473.0</ele><time>2026-03-29T09:53:30Z</time></trkpt><trkpt lat="42.43997456856382" lon="13.823285774219016"><ele>472.99999999999994</ele><time>2026-03-29T09:53:31Z</time></trkpt><trkpt lat="42.439912503209136" lon="13.823388163227985"><ele>472.99999999999994</ele><time>2026-03-29T09:53:32Z</time></trkpt><trkpt lat="42.439878085529045" lon="13.82350773779026"><ele>473.0</ele><time>2026-03-29T09:53:33Z</time></trkpt><trkpt lat="42.439870679736046" lon="13.823628706580083"><ele>473.0</ele><time>2026-03-29T09:53:34Z</time></trkpt><trkpt lat="42.4399112110764" lon="13.823742206599162"><ele>466.75</ele><time>2026-03-29T09:53:35Z</time></trkpt><trkpt lat="42.43998746615066" lon="13.823826421479833"><ele>460.5</ele><time>2026-03-29T09:53:36Z</time></trkpt><trkpt lat="42.440094678811576" lon="13.8238685633553"><ele>454.25</ele><time>2026-03-29T09:53:37Z</time></trkpt><trkpt lat="42.44022253742208" lon="13.823894078794478"><ele>448.0</ele><time>2026-03-29T09:53:38Z</time></trkpt><trkpt lat="42.44035438383565" lon="13.823926227448943"><ele>447.75</ele><time>2026-03-29T09:53:39Z</time></trkpt><trkpt lat="42.440482314638366" lon="13.823991149606758"><ele>447.5</ele><time>2026-03-29T09:53:40Z</time></trkpt><trkpt lat="42.44059422567236" lon="13.82407881093889"><ele>447.25</ele><time>2026-03-29T09:53:41Z</time></trkpt><trkpt lat="42.44068384892147" lon="13.824226728454319"><ele>447.0</ele><time>2026-03-29T09:53:42Z</time></trkpt><trkpt lat="42.44080831261693" lon="13.824338135786048"><ele>447.0</ele><time>2026-03-29T09:53:43Z</time></trkpt><trkpt lat="42.44094079590881" lon="13.824433976665077"><ele>447.0</ele><time>2026-03-29T09:53:44Z</time></trkpt><trkpt lat="42.441071278024786" lon="13.824508154616538"><ele>447.0</ele><time>2026-03-29T09:53:45Z</time></trkpt><trkpt lat="42.44121736238706" lon="13.8245588435732"><ele>447.0</ele><time>2026-03-29T09:53:46Z</time></trkpt><trkpt lat="42.44137527678568" lon="13.824589175409566"><ele>454.0</ele><time>2026-03-29T09:53:47Z</time></trkpt><trkpt lat="42.441518182734846" lon="13.824614493526516"><ele>461.0</ele><time>2026-03-29T09:53:48Z</time></trkpt><trkpt lat="42.441658085229136" lon="13.82467965729363"><ele>468.0</ele><time>2026-03-29T09:53:49Z</time></trkpt><trkpt lat="42.44180486540085" lon="13.824794216220639"><ele>468.0</ele><time>2026-03-29T09:53:50Z</time></trkpt><trkpt lat="42.441968550846084" lon="13.824917043252103"><ele>468.0</ele><time>2026-03-29T09:53:51Z</time></trkpt><trkpt lat="42.4421489681372" lon="13.825005745033"><ele>468.0</ele><time>2026-03-29T09:53:52Z</time></trkpt><trkpt lat="42.44232591613703" lon="13.825070990354375"><ele>460.0</ele><time>2026-03-29T09:53:53Z</time></trkpt><trkpt lat="42.44249819109031" lon="13.82519597322854"><ele>452.0</ele><time>2026-03-29T09:53:54Z</time></trkpt><trkpt lat="42.44267459665767" lon="13.825278451848831"><ele>444.0</ele><time>2026-03-29T09:53:55Z</time></trkpt><trkpt lat="42.44282871531705" lon="13.825357445518483"><ele>447.66666666666663</ele><time>2026-03-29T09:53:56Z</time></trkpt><trkpt lat="42.442970672303744" lon="13.825453617486794"><ele>451.3333333333333</ele><time>2026-03-29T09:53:57Z</time></trkpt><trkpt lat="42.44310988522803" lon="13.82561377898311"><ele>455.0</ele><time>2026-03-29T09:53:58Z</time></trkpt><trkpt lat="42.443246990028165" lon="13.825775666859393"><ele>455.0</ele><time>2026-03-29T09:53:59Z</time></trkpt><trkpt lat="42.44338302660347" lon="13.82592568859363"><ele>455.0</ele><time>2026-03-29T09:54:00Z</time></trkpt><trkpt lat="42.44352502523378" lon="13.82604080246642"><ele>455.0</ele><time>2026-03-29T09:54:01Z</time></trkpt><trkpt lat="42.44368577079674" lon="13.826123980517343"><ele>453.0</ele><time>2026-03-29T09:54:02Z</time></trkpt><trkpt lat="42.44382752399805" lon="13.826179314556512"><ele>451.0</ele><time>2026-03-29T09:54:03Z</time></trkpt><trkpt lat="42.44395714123673" lon="13.826259667694686"><ele>449.0</ele><time>2026-03-29T09:54:04Z</time></trkpt><trkpt lat="42.444053469034294" lon="13.826411832873907"><ele>447.0</ele><time>2026-03-29T09:54:05Z</time></trkpt><trkpt lat="42.444165442749544" lon="13.826528119119946"><ele>447.0</ele><time>2026-03-29T09:54:06Z</time></trkpt><trkpt lat="42.44424535320884" lon="13.826615389921157"><ele>447.00000000000006</ele><time>2026-03-29T09:54:07Z</time></trkpt><trkpt lat="42.44431015696053" lon="13.826681898427807"><ele>447.00000000000006</ele><time>2026-03-29T09:54:08Z</time></trkpt><trkpt lat="42.44434384107951" lon="13.826802424598206"><ele>447.0</ele><time>2026-03-29T09:54:10Z</time></trkpt><trkpt lat="42.44423493441798" lon="13.826883654083177"><ele>447.0</ele><time>2026-03-29T09:54:12Z</time></trkpt><trkpt lat="42.44416192469379" lon="13.826842834821633"><ele>447.0</ele><time>2026-03-29T09:54:13Z</time></trkpt><trkpt lat="42.444095170782944" lon="13.826768225551668"><ele>447.00000000000006</ele><time>2026-03-29T09:54:14Z</time></trkpt><trkpt lat="42.444016459283" lon="13.826694558257987"><ele>447.00000000000006</ele><time>2026-03-29T09:54:15Z</time></trkpt><trkpt lat="42.44392606212262" lon="13.826641257328783"><ele>447.0</ele><time>2026-03-29T09:54:16Z</time></trkpt><trkpt lat="42.443822250715954" lon="13.826625069820729"><ele>447.0</ele><time>2026-03-29T09:54:17Z</time></trkpt><trkpt lat="42.443716905833334" lon="13.826618566200466"><ele>445.1666666666667</ele><time>2026-03-29T09:54:18Z</time></trkpt><trkpt lat="42.44362400635957" lon="13.826616652214442"><ele>443.33333333333337</ele><time>2026-03-29T09:54:19Z</time></trkpt><trkpt lat="42.44356132960216" lon="13.826644192536357"><ele>441.5</ele><time>2026-03-29T09:54:20Z</time></trkpt><trkpt lat="42.443517279446596" lon="13.82671752103265"><ele>439.6666666666667</ele><time>2026-03-29T09:54:21Z</time></trkpt><trkpt lat="42.443506195150306" lon="13.826822008445683"><ele>437.83333333333337</ele><time>2026-03-29T09:54:21.999Z</time></trkpt><trkpt lat="42.44354199736396" lon="13.826931914157466"><ele>436.0</ele><time>2026-03-29T09:54:22.999Z</time></trkpt><trkpt lat="42.44361195586868" lon="13.827023635782341"><ele>435.0</ele><time>2026-03-29T09:54:23.999Z</time></trkpt><trkpt lat="42.44369628801336" lon="13.827104836154893"><ele>434.0</ele><time>2026-03-29T09:54:24.999Z</time></trkpt><trkpt lat="42.443805432159365" lon="13.827163648810792"><ele>433.0</ele><time>2026-03-29T09:54:25.999Z</time></trkpt><trkpt lat="42.443939514457604" lon="13.827208057316879"><ele>432.0</ele><time>2026-03-29T09:54:26.999Z</time></trkpt><trkpt lat="42.444075946865546" lon="13.827270071715102"><ele>432.0</ele><time>2026-03-29T09:54:27.999Z</time></trkpt><trkpt lat="42.444212175236004" lon="13.827370033348812"><ele>432.0</ele><time>2026-03-29T09:54:28.999Z</time></trkpt><trkpt lat="42.44433814182724" lon="13.82749184465411"><ele>432.0</ele><time>2026-03-29T09:54:29.999Z</time></trkpt><trkpt lat="42.44445258540649" lon="13.827597446488749"><ele>432.0</ele><time>2026-03-29T09:54:30.999Z</time></trkpt><trkpt lat="42.444561267295704" lon="13.827688205609464"><ele>432.40000000000003</ele><time>2026-03-29T09:54:31.999Z</time></trkpt><trkpt lat="42.44465861676795" lon="13.827775184710669"><ele>432.80000000000007</ele><time>2026-03-29T09:54:32.999Z</time></trkpt><trkpt lat="42.44473622658552" lon="13.827862127535361"><ele>433.2</ele><time>2026-03-29T09:54:33.999Z</time></trkpt><trkpt lat="42.44479017890196" lon="13.827960660803349"><ele>433.6</ele><time>2026-03-29T09:54:34.999Z</time></trkpt><trkpt lat="42.44479576467074" lon="13.828117394725979"><ele>434.0</ele><time>2026-03-29T09:54:35.999Z</time></trkpt><trkpt lat="42.444785875979036" lon="13.82828768567744"><ele>434.66666666666663</ele><time>2026-03-29T09:54:36.999Z</time></trkpt><trkpt lat="42.44475147428909" lon="13.828480464887267"><ele>435.33333333333337</ele><time>2026-03-29T09:54:37.999Z</time></trkpt><trkpt lat="42.444713495443295" lon="13.828692277704597"><ele>436.0</ele><time>2026-03-29T09:54:38.999Z</time></trkpt><trkpt lat="42.44466619213156" lon="13.828875857367045"><ele>432.25</ele><time>2026-03-29T09:54:39.999Z</time></trkpt><trkpt lat="42.44462559384092" lon="13.829052130151105"><ele>428.5</ele><time>2026-03-29T09:54:40.999Z</time></trkpt><trkpt lat="42.444581003231164" lon="13.829218190736563"><ele>424.75</ele><time>2026-03-29T09:54:41.999Z</time></trkpt><trkpt lat="42.444514230855745" lon="13.82936806573675"><ele>421.0</ele><time>2026-03-29T09:54:42.999Z</time></trkpt><trkpt lat="42.444424682177335" lon="13.829495177939757"><ele>421.0</ele><time>2026-03-29T09:54:43.999Z</time></trkpt><trkpt lat="42.44431805919648" lon="13.829598697504872"><ele>421.0</ele><time>2026-03-29T09:54:44.999Z</time></trkpt><trkpt lat="42.444184215780226" lon="13.829654097857189"><ele>421.0</ele><time>2026-03-29T09:54:45.999Z</time></trkpt><trkpt lat="42.444042386920565" lon="13.829693750028918"><ele>421.0</ele><time>2026-03-29T09:54:46.999Z</time></trkpt><trkpt lat="42.443898875732785" lon="13.829726775115004"><ele>418.25</ele><time>2026-03-29T09:54:47.999Z</time></trkpt><trkpt lat="42.44376838871248" lon="13.829784775812668"><ele>415.5</ele><time>2026-03-29T09:54:48.999Z</time></trkpt><trkpt lat="42.44364695285736" lon="13.82983488989357"><ele>412.75</ele><time>2026-03-29T09:54:49.999Z</time></trkpt><trkpt lat="42.443526810745034" lon="13.829913774695056"><ele>410.0</ele><time>2026-03-29T09:54:50.999Z</time></trkpt><trkpt lat="42.4433983160119" lon="13.830024275150594"><ele>409.75</ele><time>2026-03-29T09:54:51.999Z</time></trkpt><trkpt lat="42.44328151055931" lon="13.830141951858968"><ele>409.5</ele><time>2026-03-29T09:54:52.999Z</time></trkpt><trkpt lat="42.44317510084596" lon="13.83026314299563"><ele>409.25</ele><time>2026-03-29T09:54:53.999Z</time></trkpt><trkpt lat="42.443078003748916" lon="13.83038715810986"><ele>409.0</ele><time>2026-03-29T09:54:54.999Z</time></trkpt><trkpt lat="42.44299843227833" lon="13.830493535054083"><ele>407.6</ele><time>2026-03-29T09:54:55.999Z</time></trkpt><trkpt lat="42.44294501062608" lon="13.830611612321546"><ele>406.2</ele><time>2026-03-29T09:54:56.999Z</time></trkpt><trkpt lat="42.442916365811946" lon="13.830747407056794"><ele>404.8</ele><time>2026-03-29T09:54:57.999Z</time></trkpt><trkpt lat="42.442924713305345" lon="13.83087610408603"><ele>403.40000000000003</ele><time>2026-03-29T09:54:58.999Z</time></trkpt><trkpt lat="42.44296199476709" lon="13.830978882899295"><ele>402.0</ele><time>2026-03-29T09:54:59.999Z</time></trkpt><trkpt lat="42.44304162774284" lon="13.831046761092102"><ele>402.0</ele><time>2026-03-29T09:55:00.999Z</time></trkpt><trkpt lat="42.443151299874884" lon="13.831077417515527"><ele>402.0</ele><time>2026-03-29T09:55:01.999Z</time></trkpt><trkpt lat="42.443273655377986" lon="13.831086474899942"><ele>402.0</ele><time>2026-03-29T09:55:02.999Z</time></trkpt><trkpt lat="42.44338510248336" lon="13.831085095376345"><ele>402.0</ele><time>2026-03-29T09:55:03.999Z</time></trkpt><trkpt lat="42.44347147629137" lon="13.831113431136785"><ele>402.0</ele><time>2026-03-29T09:55:04.999Z</time></trkpt><trkpt lat="42.443519798235194" lon="13.831184990602884"><ele>402.0</ele><time>2026-03-29T09:55:05.999Z</time></trkpt><trkpt lat="42.44353607898442" lon="13.831294816064656"><ele>402.0</ele><time>2026-03-29T09:55:06.999Z</time></trkpt><trkpt lat="42.443505635133754" lon="13.831424444404442"><ele>402.0</ele><time>2026-03-29T09:55:07.999Z</time></trkpt><trkpt lat="42.44342343062285" lon="13.831567936125046"><ele>402.0</ele><time>2026-03-29T09:55:08.999Z</time></trkpt><trkpt lat="42.44335335812264" lon="13.831739550260599"><ele>402.0</ele><time>2026-03-29T09:55:09.999Z</time></trkpt><trkpt lat="42.44326686740712" lon="13.831908465400886"><ele>402.0</ele><time>2026-03-29T09:55:10.999Z</time></trkpt><trkpt lat="42.44317530369387" lon="13.83206138488757"><ele>402.0</ele><time>2026-03-29T09:55:11.999Z</time></trkpt><trkpt lat="42.44304000468606" lon="13.832160547556406"><ele>399.0</ele><time>2026-03-29T09:55:12.999Z</time></trkpt><trkpt lat="42.44292131512937" lon="13.832235377502121"><ele>396.0</ele><time>2026-03-29T09:55:13.999Z</time></trkpt><trkpt lat="42.4428558621437" lon="13.832309412284182"><ele>393.0</ele><time>2026-03-29T09:55:14.999Z</time></trkpt><trkpt lat="42.44279924895497" lon="13.832363751176839"><ele>390.0</ele><time>2026-03-29T09:55:15.999Z</time></trkpt><trkpt lat="42.44276628001711" lon="13.832460218340248"><ele>387.0</ele><time>2026-03-29T09:55:16.999Z</time></trkpt><trkpt lat="42.44276911875245" lon="13.83259338165284"><ele>386.5</ele><time>2026-03-29T09:55:17.998Z</time></trkpt><trkpt lat="42.44279925213773" lon="13.832750988861076"><ele>386.0</ele><time>2026-03-29T09:55:18.998Z</time></trkpt><trkpt lat="42.442841323244174" lon="13.83291939307464"><ele>385.5</ele><time>2026-03-29T09:55:19.998Z</time></trkpt><trkpt lat="42.44287362561013" lon="13.833078137264355"><ele>385.0</ele><time>2026-03-29T09:55:20.998Z</time></trkpt><trkpt lat="42.44293460627083" lon="13.833231167363435"><ele>385.0</ele><time>2026-03-29T09:55:21.998Z</time></trkpt><trkpt lat="42.44303508152255" lon="13.833357851741056"><ele>385.0</ele><time>2026-03-29T09:55:22.998Z</time></trkpt><trkpt lat="42.443174535254876" lon="13.83346486780722"><ele>385.0</ele><time>2026-03-29T09:55:23.998Z</time></trkpt><trkpt lat="42.44329696010173" lon="13.833558132344567"><ele>385.0</ele><time>2026-03-29T09:55:24.998Z</time></trkpt><trkpt lat="42.443395377997504" lon="13.833657724947505"><ele>385.0</ele><time>2026-03-29T09:55:25.998Z</time></trkpt><trkpt lat="42.44347638248699" lon="13.833763300318537"><ele>385.0</ele><time>2026-03-29T09:55:26.998Z</time></trkpt><trkpt lat="42.443537020819164" lon="13.833883848968346"><ele>385.0</ele><time>2026-03-29T09:55:27.998Z</time></trkpt><trkpt lat="42.44358706895874" lon="13.834008673249166"><ele>385.0</ele><time>2026-03-29T09:55:28.998Z</time></trkpt><trkpt lat="42.44361822469247" lon="13.834108540689828"><ele>385.0</ele><time>2026-03-29T09:55:29.998Z</time></trkpt><trkpt lat="42.44359777455022" lon="13.834202641259452"><ele>385.0</ele><time>2026-03-29T09:55:30.998Z</time></trkpt><trkpt lat="42.443532644208716" lon="13.834298938379176"><ele>385.0</ele><time>2026-03-29T09:55:31.998Z</time></trkpt><trkpt lat="42.4434334570362" lon="13.834388959481839"><ele>385.0</ele><time>2026-03-29T09:55:32.998Z</time></trkpt><trkpt lat="42.443303833181325" lon="13.834449799871859"><ele>385.0</ele><time>2026-03-29T09:55:33.998Z</time></trkpt><trkpt lat="42.44314558448466" lon="13.834506316348573"><ele>383.6666666666667</ele><time>2026-03-29T09:55:34.998Z</time></trkpt><trkpt lat="42.44298333712123" lon="13.834555775695124"><ele>382.33333333333337</ele><time>2026-03-29T09:55:36Z</time></trkpt><trkpt lat="42.442839837998356" lon="13.834597175504138"><ele>381.0</ele><time>2026-03-29T09:55:37Z</time></trkpt><trkpt lat="42.44269377604085" lon="13.834659315763508"><ele>381.0</ele><time>2026-03-29T09:55:38Z</time></trkpt><trkpt lat="42.44255044586165" lon="13.834755982281235"><ele>381.0</ele><time>2026-03-29T09:55:39Z</time></trkpt><trkpt lat="42.44241540338595" lon="13.834868578322101"><ele>381.0</ele><time>2026-03-29T09:55:40Z</time></trkpt><trkpt lat="42.44230328626684" lon="13.834996815691326"><ele>381.0</ele><time>2026-03-29T09:55:41Z</time></trkpt><trkpt lat="42.442186804432794" lon="13.835117707031522"><ele>381.0</ele><time>2026-03-29T09:55:42Z</time></trkpt><trkpt lat="42.442070211123514" lon="13.835229090588614"><ele>381.0</ele><time>2026-03-29T09:55:43Z</time></trkpt><trkpt lat="42.4419604484615" lon="13.835371322816595"><ele>381.0</ele><time>2026-03-29T09:55:44Z</time></trkpt><trkpt lat="42.441870778351046" lon="13.835523895106034"><ele>378.0</ele><time>2026-03-29T09:55:45Z</time></trkpt><trkpt lat="42.44178620687594" lon="13.835683050183805"><ele>375.0</ele><time>2026-03-29T09:55:46Z</time></trkpt><trkpt lat="42.441735111173784" lon="13.83582323525363"><ele>372.0</ele><time>2026-03-29T09:55:47Z</time></trkpt><trkpt lat="42.441692743185286" lon="13.83593828927795"><ele>369.0</ele><time>2026-03-29T09:55:48Z</time></trkpt><trkpt lat="42.44167238429795" lon="13.836066963682299"><ele>367.5</ele><time>2026-03-29T09:55:49Z</time></trkpt><trkpt lat="42.441688055219515" lon="13.836232187586898"><ele>366.0</ele><time>2026-03-29T09:55:50Z</time></trkpt><trkpt lat="42.441742800652264" lon="13.836423641913008"><ele>364.5</ele><time>2026-03-29T09:55:51Z</time></trkpt><trkpt lat="42.44182391397098" lon="13.836614795611311"><ele>363.0</ele><time>2026-03-29T09:55:52Z</time></trkpt><trkpt lat="42.441865933876606" lon="13.836800600178064"><ele>360.0</ele><time>2026-03-29T09:55:53Z</time></trkpt><trkpt lat="42.44189027969019" lon="13.83700099619386"><ele>357.0</ele><time>2026-03-29T09:55:54Z</time></trkpt><trkpt lat="42.44193681170396" lon="13.837149226487513"><ele>354.0</ele><time>2026-03-29T09:55:55Z</time></trkpt><trkpt lat="42.44200461408195" lon="13.837310594310452"><ele>351.0</ele><time>2026-03-29T09:55:56Z</time></trkpt><trkpt lat="42.44211540470676" lon="13.837452325819878"><ele>350.0</ele><time>2026-03-29T09:55:57Z</time></trkpt><trkpt lat="42.44223307630741" lon="13.837584152053239"><ele>349.0</ele><time>2026-03-29T09:55:58Z</time></trkpt><trkpt lat="42.442316234318035" lon="13.837754100258644"><ele>348.0</ele><time>2026-03-29T09:55:59Z</time></trkpt><trkpt lat="42.44241678473061" lon="13.837900976768715"><ele>348.0</ele><time>2026-03-29T09:56:00Z</time></trkpt><trkpt lat="42.44254011332827" lon="13.838056625764146"><ele>348.0</ele><time>2026-03-29T09:56:01Z</time></trkpt><trkpt lat="42.442688644729294" lon="13.838204178714097"><ele>348.0</ele><time>2026-03-29T09:56:02Z</time></trkpt><trkpt lat="42.44284705479478" lon="13.838354977772129"><ele>348.6666666666667</ele><time>2026-03-29T09:56:03Z</time></trkpt><trkpt lat="42.44299639239021" lon="13.838570286390164"><ele>349.33333333333337</ele><time>2026-03-29T09:56:04Z</time></trkpt><trkpt lat="42.44315850497092" lon="13.83877084196025"><ele>350.0</ele><time>2026-03-29T09:56:05Z</time></trkpt><trkpt lat="42.44329693066825" lon="13.838973920034194"><ele>350.0</ele><time>2026-03-29T09:56:06Z</time></trkpt><trkpt lat="42.44341245054431" lon="13.839156123230547"><ele>350.0</ele><time>2026-03-29T09:56:07Z</time></trkpt><trkpt lat="42.44350950208841" lon="13.839310053733803"><ele>350.0</ele><time>2026-03-29T09:56:08Z</time></trkpt><trkpt lat="42.443592938233806" lon="13.839479236070229"><ele>347.33333333333337</ele><time>2026-03-29T09:56:09Z</time></trkpt><trkpt lat="42.44362695710778" lon="13.839696615050855"><ele>344.6666666666667</ele><time>2026-03-29T09:56:10Z</time></trkpt><trkpt lat="42.44368196082725" lon="13.839935520013848"><ele>342.0</ele><time>2026-03-29T09:56:11Z</time></trkpt><trkpt lat="42.44371485870475" lon="13.840186784903517"><ele>340.6666666666667</ele><time>2026-03-29T09:56:12Z</time></trkpt><trkpt lat="42.443727926061705" lon="13.840429021803056"><ele>339.33333333333337</ele><time>2026-03-29T09:56:13Z</time></trkpt><trkpt lat="42.44375540005017" lon="13.84069457002727"><ele>338.0</ele><time>2026-03-29T09:56:14Z</time></trkpt><trkpt lat="42.44379707712216" lon="13.840964634838345"><ele>340.33333333333337</ele><time>2026-03-29T09:56:15Z</time></trkpt><trkpt lat="42.44383866986765" lon="13.841251091167925"><ele>342.6666666666667</ele><time>2026-03-29T09:56:16Z</time></trkpt><trkpt lat="42.443889963076266" lon="13.841517035875777"><ele>345.0</ele><time>2026-03-29T09:56:17Z</time></trkpt><trkpt lat="42.44394571290819" lon="13.84177057244701"><ele>342.6666666666667</ele><time>2026-03-29T09:56:18Z</time></trkpt><trkpt lat="42.44399988615483" lon="13.842008625507834"><ele>340.33333333333337</ele><time>2026-03-29T09:56:19Z</time></trkpt><trkpt lat="42.44405058870678" lon="13.842240954431363"><ele>338.0</ele><time>2026-03-29T09:56:20Z</time></trkpt><trkpt lat="42.44410018572011" lon="13.842480875435367"><ele>336.33333333333337</ele><time>2026-03-29T09:56:21Z</time></trkpt><trkpt lat="42.44414754000253" lon="13.842728956861121"><ele>334.6666666666667</ele><time>2026-03-29T09:56:22Z</time></trkpt><trkpt lat="42.44419623849267" lon="13.842973927161335"><ele>333.0</ele><time>2026-03-29T09:56:23Z</time></trkpt><trkpt lat="42.44424494615062" lon="13.843196739864217"><ele>333.0</ele><time>2026-03-29T09:56:24Z</time></trkpt><trkpt lat="42.4442883989338" lon="13.843401753690411"><ele>333.0</ele><time>2026-03-29T09:56:25Z</time></trkpt><trkpt lat="42.44432509261226" lon="13.843587532268817"><ele>333.0</ele><time>2026-03-29T09:56:26Z</time></trkpt><trkpt lat="42.44433949291051" lon="13.843766321484857"><ele>333.0</ele><time>2026-03-29T09:56:27Z</time></trkpt><trkpt lat="42.44430954451122" lon="13.843937266581541"><ele>332.75</ele><time>2026-03-29T09:56:28Z</time></trkpt><trkpt lat="42.44425506971017" lon="13.844117724666525"><ele>332.5</ele><time>2026-03-29T09:56:29Z</time></trkpt><trkpt lat="42.44416232877717" lon="13.84424243042461"><ele>332.25</ele><time>2026-03-29T09:56:30Z</time></trkpt><trkpt lat="42.44405761886173" lon="13.84435652371483"><ele>332.0</ele><time>2026-03-29T09:56:31Z</time></trkpt><trkpt lat="42.44392237843453" lon="13.844431594000305"><ele>330.6666666666667</ele><time>2026-03-29T09:56:32Z</time></trkpt><trkpt lat="42.443772751688705" lon="13.844507320117827"><ele>329.3333333333333</ele><time>2026-03-29T09:56:33Z</time></trkpt><trkpt lat="42.4436185504914" lon="13.84460522247205"><ele>328.0</ele><time>2026-03-29T09:56:34Z</time></trkpt><trkpt lat="42.44345228592025" lon="13.844680943420705"><ele>328.0</ele><time>2026-03-29T09:56:35Z</time></trkpt><trkpt lat="42.44330402413795" lon="13.844761861775362"><ele>328.0</ele><time>2026-03-29T09:56:35.999Z</time></trkpt><trkpt lat="42.443160882153066" lon="13.84482988228318"><ele>328.0</ele><time>2026-03-29T09:56:36.999Z</time></trkpt><trkpt lat="42.4430270125579" lon="13.844898199592654"><ele>333.0</ele><time>2026-03-29T09:56:37.999Z</time></trkpt><trkpt lat="42.442919018379904" lon="13.84496975786724"><ele>338.0</ele><time>2026-03-29T09:56:38.999Z</time></trkpt><trkpt lat="42.44284581178566" lon="13.845083708018258"><ele>343.0</ele><time>2026-03-29T09:56:39.999Z</time></trkpt><trkpt lat="42.44277327961192" lon="13.845247391827673"><ele>348.0</ele><time>2026-03-29T09:56:40.999Z</time></trkpt><trkpt lat="42.44269378795605" lon="13.84541469842239"><ele>348.0</ele><time>2026-03-29T09:56:41.999Z</time></trkpt><trkpt lat="42.44259791418479" lon="13.845594199872899"><ele>348.0</ele><time>2026-03-29T09:56:42.999Z</time></trkpt><trkpt lat="42.442500842443415" lon="13.845775892257503"><ele>348.0</ele><time>2026-03-29T09:56:43.999Z</time></trkpt><trkpt lat="42.44242484730514" lon="13.845959945399839"><ele>347.0</ele><time>2026-03-29T09:56:44.999Z</time></trkpt><trkpt lat="42.44238189706415" lon="13.846163251579028"><ele>346.0</ele><time>2026-03-29T09:56:45.999Z</time></trkpt><trkpt lat="42.44236087078098" lon="13.84639901690376"><ele>345.0</ele><time>2026-03-29T09:56:46.999Z</time></trkpt><trkpt lat="42.442375376193745" lon="13.846644113223944"><ele>345.5</ele><time>2026-03-29T09:56:47.999Z</time></trkpt><trkpt lat="42.442351586139324" lon="13.846851411191865"><ele>346.0</ele><time>2026-03-29T09:56:48.999Z</time></trkpt><trkpt lat="42.44230505001811" lon="13.847030460975365"><ele>346.5</ele><time>2026-03-29T09:56:49.999Z</time></trkpt><trkpt lat="42.44229475445917" lon="13.84721665346624"><ele>347.0</ele><time>2026-03-29T09:56:50.999Z</time></trkpt><trkpt lat="42.442321549750964" lon="13.847396546681313"><ele>347.0</ele><time>2026-03-29T09:56:51.999Z</time></trkpt><trkpt lat="42.442366923239746" lon="13.847554608021262"><ele>347.0</ele><time>2026-03-29T09:56:52.999Z</time></trkpt><trkpt lat="42.44238053523428" lon="13.847701652363321"><ele>347.0</ele><time>2026-03-29T09:56:53.999Z</time></trkpt><trkpt lat="42.442318233591585" lon="13.847844929670602"><ele>347.0</ele><time>2026-03-29T09:56:54.999Z</time></trkpt><trkpt lat="42.4422919485112" lon="13.848028672144505"><ele>346.75</ele><time>2026-03-29T09:56:55.999Z</time></trkpt><trkpt lat="42.442260876166735" lon="13.848207992478937"><ele>346.5</ele><time>2026-03-29T09:56:56.999Z</time></trkpt><trkpt lat="42.44222337464314" lon="13.848361754778223"><ele>346.25</ele><time>2026-03-29T09:56:57.999Z</time></trkpt><trkpt lat="42.442162543454344" lon="13.848488600419115"><ele>346.0</ele><time>2026-03-29T09:56:58.999Z</time></trkpt><trkpt lat="42.44209058240528" lon="13.848582115792395"><ele>346.0</ele><time>2026-03-29T09:56:59.999Z</time></trkpt><trkpt lat="42.44199316186653" lon="13.848649625167784"><ele>346.0</ele><time>2026-03-29T09:57:00.999Z</time></trkpt><trkpt lat="42.44188954131868" lon="13.84866046206816"><ele>346.0</ele><time>2026-03-29T09:57:01.999Z</time></trkpt><trkpt lat="42.441783230864004" lon="13.848609151855813"><ele>346.0</ele><time>2026-03-29T09:57:02.999Z</time></trkpt><trkpt lat="42.44170035841341" lon="13.848478193395042"><ele>348.75</ele><time>2026-03-29T09:57:03.999Z</time></trkpt><trkpt lat="42.44159372388815" lon="13.848361813616478"><ele>351.5</ele><time>2026-03-29T09:57:04.999Z</time></trkpt><trkpt lat="42.44149496576861" lon="13.848217273282387"><ele>354.25</ele><time>2026-03-29T09:57:05.999Z</time></trkpt><trkpt lat="42.44138023008121" lon="13.848074420494806"><ele>357.0</ele><time>2026-03-29T09:57:06.999Z</time></trkpt><trkpt lat="42.441251448440006" lon="13.847920400080179"><ele>357.0</ele><time>2026-03-29T09:57:07.999Z</time></trkpt><trkpt lat="42.44110409861574" lon="13.847772689381868"><ele>357.0</ele><time>2026-03-29T09:57:08.999Z</time></trkpt><trkpt lat="42.44094973859355" lon="13.847644234891103"><ele>357.0</ele><time>2026-03-29T09:57:09.999Z</time></trkpt><trkpt lat="42.440780048292524" lon="13.847531881796833"><ele>360.6666666666667</ele><time>2026-03-29T09:57:10.999Z</time></trkpt><trkpt lat="42.44058699903906" lon="13.847445610644556"><ele>364.33333333333337</ele><time>2026-03-29T09:57:11.999Z</time></trkpt><trkpt lat="42.440401438425766" lon="13.847380990664519"><ele>368.0</ele><time>2026-03-29T09:57:12.999Z</time></trkpt><trkpt lat="42.4402313732957" lon="13.847274715053635"><ele>368.0</ele><time>2026-03-29T09:57:13.999Z</time></trkpt><trkpt lat="42.44006264285234" lon="13.847138832406467"><ele>368.0</ele><time>2026-03-29T09:57:14.999Z</time></trkpt><trkpt lat="42.43987869291173" lon="13.847004435184212"><ele>368.0</ele><time>2026-03-29T09:57:15.999Z</time></trkpt><trkpt lat="42.43969475825793" lon="13.846884580134827"><ele>369.0</ele><time>2026-03-29T09:57:16.999Z</time></trkpt><trkpt lat="42.43949489960901" lon="13.846796346011434"><ele>370.0</ele><time>2026-03-29T09:57:17.999Z</time></trkpt><trkpt lat="42.43930969754434" lon="13.84672407073213"><ele>371.0</ele><time>2026-03-29T09:57:18.999Z</time></trkpt><trkpt lat="42.439145919891324" lon="13.846654525825716"><ele>373.5</ele><time>2026-03-29T09:57:19.999Z</time></trkpt><trkpt lat="42.43900258105301" lon="13.846610136062713"><ele>376.0</ele><time>2026-03-29T09:57:20.999Z</time></trkpt><trkpt lat="42.438866529712065" lon="13.846616808203683"><ele>378.5</ele><time>2026-03-29T09:57:21.999Z</time></trkpt><trkpt lat="42.43871929964871" lon="13.84666321140155"><ele>381.0</ele><time>2026-03-29T09:57:22.999Z</time></trkpt><trkpt lat="42.438591336224924" lon="13.846757682303279"><ele>380.25</ele><time>2026-03-29T09:57:23.999Z</time></trkpt><trkpt lat="42.43847713933718" lon="13.846867639422683"><ele>379.5</ele><time>2026-03-29T09:57:24.999Z</time></trkpt><trkpt lat="42.43836357901734" lon="13.846938945817254"><ele>378.75</ele><time>2026-03-29T09:57:25.999Z</time></trkpt><trkpt lat="42.43825000590872" lon="13.846948342142092"><ele>378.0</ele><time>2026-03-29T09:57:26.999Z</time></trkpt><trkpt lat="42.43813781683666" lon="13.84691613205504"><ele>378.0</ele><time>2026-03-29T09:57:27.999Z</time></trkpt><trkpt lat="42.438025387097824" lon="13.84684587032804"><ele>378.0</ele><time>2026-03-29T09:57:28.999Z</time></trkpt><trkpt lat="42.43793590509864" lon="13.846713848551184"><ele>378.0</ele><time>2026-03-29T09:57:29.999Z</time></trkpt><trkpt lat="42.437865532048" lon="13.846554623406993"><ele>378.0</ele><time>2026-03-29T09:57:30.999Z</time></trkpt><trkpt lat="42.437781890470646" lon="13.846395415309173"><ele>380.66666666666663</ele><time>2026-03-29T09:57:31.998Z</time></trkpt><trkpt lat="42.43765717979108" lon="13.846269621853047"><ele>383.3333333333333</ele><time>2026-03-29T09:57:32.998Z</time></trkpt><trkpt lat="42.43750897801576" lon="13.846160699632282"><ele>386.0</ele><time>2026-03-29T09:57:33.998Z</time></trkpt><trkpt lat="42.437362420959126" lon="13.846057629201388"><ele>387.3333333333333</ele><time>2026-03-29T09:57:34.998Z</time></trkpt><trkpt lat="42.437235033317705" lon="13.845952782108512"><ele>388.66666666666663</ele><time>2026-03-29T09:57:35.998Z</time></trkpt><trkpt lat="42.4371413129118" lon="13.845800205350967"><ele>390.0</ele><time>2026-03-29T09:57:36.998Z</time></trkpt><trkpt lat="42.437027269053715" lon="13.845657515354025"><ele>390.0</ele><time>2026-03-29T09:57:37.998Z</time></trkpt><trkpt lat="42.43696499783595" lon="13.845476714669891"><ele>390.0</ele><time>2026-03-29T09:57:38.998Z</time></trkpt><trkpt lat="42.436918536374144" lon="13.845299333204176"><ele>390.0</ele><time>2026-03-29T09:57:39.998Z</time></trkpt><trkpt lat="42.4368904552553" lon="13.845119004373094"><ele>390.0</ele><time>2026-03-29T09:57:40.998Z</time></trkpt><trkpt lat="42.43685566272463" lon="13.844947174325432"><ele>392.5</ele><time>2026-03-29T09:57:42Z</time></trkpt><trkpt lat="42.436823818265175" lon="13.844787289551597"><ele>395.0</ele><time>2026-03-29T09:57:43Z</time></trkpt><trkpt lat="42.43675116431197" lon="13.844640847801887"><ele>397.5</ele><time>2026-03-29T09:57:44Z</time></trkpt><trkpt lat="42.4366539305275" lon="13.844491935786357"><ele>400.0</ele><time>2026-03-29T09:57:45Z</time></trkpt><trkpt lat="42.436549597823166" lon="13.844350260934927"><ele>400.33333333333337</ele><time>2026-03-29T09:57:46Z</time></trkpt><trkpt lat="42.43643607896753" lon="13.84422169048483"><ele>400.66666666666663</ele><time>2026-03-29T09:57:47Z</time></trkpt><trkpt lat="42.43629950276026" lon="13.844125968426987"><ele>401.0</ele><time>2026-03-29T09:57:48Z</time></trkpt><trkpt lat="42.43613487279919" lon="13.84405842055235"><ele>404.3333333333333</ele><time>2026-03-29T09:57:49Z</time></trkpt><trkpt lat="42.43595415411618" lon="13.8440241638884"><ele>407.66666666666663</ele><time>2026-03-29T09:57:50Z</time></trkpt><trkpt lat="42.43578676363806" lon="13.844011497966235"><ele>411.0</ele><time>2026-03-29T09:57:51Z</time></trkpt><trkpt lat="42.43563646099227" lon="13.843996919318986"><ele>411.0</ele><time>2026-03-29T09:57:52Z</time></trkpt><trkpt lat="42.43550407639525" lon="13.843982215587069"><ele>411.0</ele><time>2026-03-29T09:57:53Z</time></trkpt><trkpt lat="42.43537666019379" lon="13.843994522309252"><ele>411.0</ele><time>2026-03-29T09:57:54Z</time></trkpt><trkpt lat="42.43524932708862" lon="13.844046278684228"><ele>411.0</ele><time>2026-03-29T09:57:55Z</time></trkpt><trkpt lat="42.435133666436265" lon="13.8441350903189"><ele>413.25</ele><time>2026-03-29T09:57:56Z</time></trkpt><trkpt lat="42.435042794961696" lon="13.844279157787962"><ele>415.5</ele><time>2026-03-29T09:57:57Z</time></trkpt><trkpt lat="42.43497752671945" lon="13.844454985718068"><ele>417.75</ele><time>2026-03-29T09:57:58Z</time></trkpt><trkpt lat="42.43493910300846" lon="13.844669930706097"><ele>420.0</ele><time>2026-03-29T09:57:59Z</time></trkpt><trkpt lat="42.4349155277723" lon="13.844876947994365"><ele>420.0</ele><time>2026-03-29T09:58:00Z</time></trkpt><trkpt lat="42.43489921276753" lon="13.845049675826825"><ele>420.0</ele><time>2026-03-29T09:58:01Z</time></trkpt><trkpt lat="42.43486160068477" lon="13.845182193758536"><ele>420.0</ele><time>2026-03-29T09:58:02Z</time></trkpt><trkpt lat="42.43476820188712" lon="13.845270242606688"><ele>420.0</ele><time>2026-03-29T09:58:03Z</time></trkpt><trkpt lat="42.43466034739285" lon="13.845313083283356"><ele>422.5</ele><time>2026-03-29T09:58:04Z</time></trkpt><trkpt lat="42.43455096259876" lon="13.845311089929835"><ele>425.0</ele><time>2026-03-29T09:58:05Z</time></trkpt><trkpt lat="42.434436608453154" lon="13.845340974512077"><ele>427.5</ele><time>2026-03-29T09:58:06Z</time></trkpt><trkpt lat="42.43433589452577" lon="13.845371636849631"><ele>430.0</ele><time>2026-03-29T09:58:07Z</time></trkpt><trkpt lat="42.434242035896176" lon="13.845486116856634"><ele>430.0</ele><time>2026-03-29T09:58:08Z</time></trkpt><trkpt lat="42.43417727094566" lon="13.845642579868446"><ele>430.0</ele><time>2026-03-29T09:58:09Z</time></trkpt><trkpt lat="42.43412850952839" lon="13.845834225111796"><ele>430.0</ele><time>2026-03-29T09:58:10Z</time></trkpt><trkpt lat="42.43404085272384" lon="13.846028629640283"><ele>428.25</ele><time>2026-03-29T09:58:11Z</time></trkpt><trkpt lat="42.43395363877998" lon="13.846226730462345"><ele>426.5</ele><time>2026-03-29T09:58:12Z</time></trkpt><trkpt lat="42.43389530938294" lon="13.846404484613082"><ele>424.75</ele><time>2026-03-29T09:58:13Z</time></trkpt><trkpt lat="42.433814979080736" lon="13.846521597477953"><ele>423.0</ele><time>2026-03-29T09:58:14Z</time></trkpt><trkpt lat="42.43373914636082" lon="13.846621375747755"><ele>427.25</ele><time>2026-03-29T09:58:15Z</time></trkpt><trkpt lat="42.43362895494766" lon="13.846676809354182"><ele>431.5</ele><time>2026-03-29T09:58:16Z</time></trkpt><trkpt lat="42.433498713715224" lon="13.846697931648446"><ele>435.75</ele><time>2026-03-29T09:58:17Z</time></trkpt><trkpt lat="42.43334840202913" lon="13.84673096661898"><ele>440.0</ele><time>2026-03-29T09:58:18Z</time></trkpt><trkpt lat="42.43319093534957" lon="13.846748356932475"><ele>440.0</ele><time>2026-03-29T09:58:19Z</time></trkpt><trkpt lat="42.43303897785036" lon="13.84678185619879"><ele>440.0</ele><time>2026-03-29T09:58:20Z</time></trkpt><trkpt lat="42.43290532058774" lon="13.846821838841405"><ele>440.0</ele><time>2026-03-29T09:58:21Z</time></trkpt><trkpt lat="42.432781910498875" lon="13.846891654985793"><ele>440.0</ele><time>2026-03-29T09:58:22Z</time></trkpt><trkpt lat="42.432679195280436" lon="13.847006868527446"><ele>439.5</ele><time>2026-03-29T09:58:23Z</time></trkpt><trkpt lat="42.43260327957799" lon="13.847160276854448"><ele>439.0</ele><time>2026-03-29T09:58:24Z</time></trkpt><trkpt lat="42.43255969634328" lon="13.847347542003835"><ele>438.5</ele><time>2026-03-29T09:58:25Z</time></trkpt><trkpt lat="42.43253484450333" lon="13.847535567706425"><ele>438.0</ele><time>2026-03-29T09:58:26Z</time></trkpt><trkpt lat="42.43250783137062" lon="13.847673436814215"><ele>438.0</ele><time>2026-03-29T09:58:27Z</time></trkpt><trkpt lat="42.43248932300257" lon="13.847785781233576"><ele>437.99999999999994</ele><time>2026-03-29T09:58:29Z</time></trkpt><trkpt lat="42.43263624838214" lon="13.84778937863379"><ele>437.99999999999994</ele><time>2026-03-29T09:58:35Z</time></trkpt><trkpt lat="42.43271922107226" lon="13.84777713365276"><ele>438.0</ele><time>2026-03-29T09:58:36Z</time></trkpt><trkpt lat="42.43280718505602" lon="13.847899252312873"><ele>438.0</ele><time>2026-03-29T09:58:37Z</time></trkpt><trkpt lat="42.432890122060186" lon="13.848034259967342"><ele>438.0</ele><time>2026-03-29T09:58:38Z</time></trkpt><trkpt lat="42.43296234400777" lon="13.84818283582591"><ele>438.0</ele><time>2026-03-29T09:58:39Z</time></trkpt><trkpt lat="42.43304378305455" lon="13.848355206864024"><ele>438.0</ele><time>2026-03-29T09:58:40Z</time></trkpt><trkpt lat="42.43312393574419" lon="13.848513477159088"><ele>438.0</ele><time>2026-03-29T09:58:41Z</time></trkpt><trkpt lat="42.4332176624446" lon="13.848724016744459"><ele>433.0</ele><time>2026-03-29T09:58:42Z</time></trkpt><trkpt lat="42.43329834276216" lon="13.84890953343552"><ele>428.0</ele><time>2026-03-29T09:58:42.999Z</time></trkpt><trkpt lat="42.43337603354932" lon="13.849106994308404"><ele>423.0</ele><time>2026-03-29T09:58:43.999Z</time></trkpt><trkpt lat="42.433451347583635" lon="13.849321708481412"><ele>422.0</ele><time>2026-03-29T09:58:44.999Z</time></trkpt><trkpt lat="42.4335138249228" lon="13.849541993186982"><ele>421.0</ele><time>2026-03-29T09:58:45.999Z</time></trkpt><trkpt lat="42.43357047714241" lon="13.849760175814001"><ele>420.0</ele><time>2026-03-29T09:58:46.999Z</time></trkpt><trkpt lat="42.43363222677025" lon="13.849974617533169"><ele>418.66666666666663</ele><time>2026-03-29T09:58:47.999Z</time></trkpt><trkpt lat="42.43371609685575" lon="13.850188782353698"><ele>417.3333333333333</ele><time>2026-03-29T09:58:48.999Z</time></trkpt><trkpt lat="42.433825018487234" lon="13.850415545707653"><ele>416.0</ele><time>2026-03-29T09:58:49.999Z</time></trkpt><trkpt lat="42.433948917530685" lon="13.850644450335757"><ele>412.3333333333333</ele><time>2026-03-29T09:58:50.999Z</time></trkpt><trkpt lat="42.43406902772703" lon="13.850863259949431"><ele>408.66666666666663</ele><time>2026-03-29T09:58:51.999Z</time></trkpt><trkpt lat="42.434183607796164" lon="13.851077975005383"><ele>405.0</ele><time>2026-03-29T09:58:52.999Z</time></trkpt><trkpt lat="42.4342853368211" lon="13.851299149311913"><ele>405.0</ele><time>2026-03-29T09:58:53.999Z</time></trkpt><trkpt lat="42.43437621979021" lon="13.85153456410985"><ele>405.0</ele><time>2026-03-29T09:58:54.999Z</time></trkpt><trkpt lat="42.434464253415165" lon="13.851782754230143"><ele>405.0</ele><time>2026-03-29T09:58:55.999Z</time></trkpt><trkpt lat="42.43456030226783" lon="13.852043706940838"><ele>401.0</ele><time>2026-03-29T09:58:56.999Z</time></trkpt><trkpt lat="42.43465985814561" lon="13.85229996078998"><ele>397.0</ele><time>2026-03-29T09:58:57.999Z</time></trkpt><trkpt lat="42.43477361201553" lon="13.852571233637475"><ele>393.0</ele><time>2026-03-29T09:58:58.999Z</time></trkpt><trkpt lat="42.43489004175515" lon="13.852860274081921"><ele>393.0</ele><time>2026-03-29T09:58:59.999Z</time></trkpt><trkpt lat="42.43500798839467" lon="13.853148405909032"><ele>393.0</ele><time>2026-03-29T09:59:00.999Z</time></trkpt><trkpt lat="42.435120079770115" lon="13.853433220471912"><ele>393.5</ele><time>2026-03-29T09:59:01.999Z</time></trkpt><trkpt lat="42.43522878896058" lon="13.853731085233717"><ele>394.0</ele><time>2026-03-29T09:59:02.999Z</time></trkpt><trkpt lat="42.43533770799456" lon="13.854037136935489"><ele>393.5</ele><time>2026-03-29T09:59:03.999Z</time></trkpt><trkpt lat="42.43544709077989" lon="13.85434734272538"><ele>393.0</ele><time>2026-03-29T09:59:04.999Z</time></trkpt><trkpt lat="42.435556852432086" lon="13.85465345895516"><ele>389.5</ele><time>2026-03-29T09:59:05.999Z</time></trkpt><trkpt lat="42.43567097347179" lon="13.854971587245947"><ele>386.0</ele><time>2026-03-29T09:59:06.999Z</time></trkpt><trkpt lat="42.43578585816846" lon="13.855293922328007"><ele>385.5</ele><time>2026-03-29T09:59:07.999Z</time></trkpt><trkpt lat="42.43590342660561" lon="13.855613681226394"><ele>385.0</ele><time>2026-03-29T09:59:08.999Z</time></trkpt><trkpt lat="42.43602041610753" lon="13.855937951554047"><ele>385.5</ele><time>2026-03-29T09:59:09.999Z</time></trkpt><trkpt lat="42.436135758555004" lon="13.85626264177986"><ele>386.0</ele><time>2026-03-29T09:59:10.999Z</time></trkpt><trkpt lat="42.43624195283584" lon="13.856562767078335"><ele>382.0</ele><time>2026-03-29T09:59:11.999Z</time></trkpt><trkpt lat="42.43634507745953" lon="13.856843274580068"><ele>378.0</ele><time>2026-03-29T09:59:12.999Z</time></trkpt><trkpt lat="42.436443983011316" lon="13.857113339202765"><ele>378.0</ele><time>2026-03-29T09:59:13.999Z</time></trkpt><trkpt lat="42.43653710004525" lon="13.857372663467629"><ele>378.0</ele><time>2026-03-29T09:59:14.999Z</time></trkpt><trkpt lat="42.43662004146205" lon="13.857605097119544"><ele>378.0</ele><time>2026-03-29T09:59:15.999Z</time></trkpt><trkpt lat="42.43670105355047" lon="13.8578251686464"><ele>378.0</ele><time>2026-03-29T09:59:16.999Z</time></trkpt><trkpt lat="42.4367873531549" lon="13.858038659732042"><ele>378.0</ele><time>2026-03-29T09:59:17.999Z</time></trkpt><trkpt lat="42.43689194868452" lon="13.858243439851918"><ele>378.0</ele><time>2026-03-29T09:59:18.999Z</time></trkpt><trkpt lat="42.43701752441133" lon="13.858452712032275"><ele>375.3333333333333</ele><time>2026-03-29T09:59:19.999Z</time></trkpt><trkpt lat="42.43715294992403" lon="13.85866869389136"><ele>372.66666666666663</ele><time>2026-03-29T09:59:20.999Z</time></trkpt><trkpt lat="42.43727889597169" lon="13.858870312568435"><ele>370.0</ele><time>2026-03-29T09:59:21.999Z</time></trkpt><trkpt lat="42.43739427749805" lon="13.859070845916166"><ele>370.0</ele><time>2026-03-29T09:59:22.999Z</time></trkpt><trkpt lat="42.43749826470302" lon="13.859267267637964"><ele>370.0</ele><time>2026-03-29T09:59:23.999Z</time></trkpt><trkpt lat="42.43758968524538" lon="13.859474981858067"><ele>370.0</ele><time>2026-03-29T09:59:24.999Z</time></trkpt><trkpt lat="42.437664087210834" lon="13.859722810716786"><ele>371.3333333333333</ele><time>2026-03-29T09:59:25.999Z</time></trkpt><trkpt lat="42.43773210078322" lon="13.859987293653813"><ele>372.6666666666667</ele><time>2026-03-29T09:59:26.999Z</time></trkpt><trkpt lat="42.4378259197172" lon="13.860249024077875"><ele>374.0</ele><time>2026-03-29T09:59:27.999Z</time></trkpt><trkpt lat="42.43788222009583" lon="13.860539845848724"><ele>375.0</ele><time>2026-03-29T09:59:28.999Z</time></trkpt><trkpt lat="42.43795377329703" lon="13.860825114240955"><ele>376.0</ele><time>2026-03-29T09:59:29.999Z</time></trkpt><trkpt lat="42.438027517218316" lon="13.861114517220757"><ele>377.0</ele><time>2026-03-29T09:59:30.999Z</time></trkpt><trkpt lat="42.43809728940273" lon="13.861398564344457"><ele>375.33333333333337</ele><time>2026-03-29T09:59:31.999Z</time></trkpt><trkpt lat="42.43816341870084" lon="13.861656396391483"><ele>373.6666666666667</ele><time>2026-03-29T09:59:32.999Z</time></trkpt><trkpt lat="42.43822619883255" lon="13.861905188872864"><ele>372.0</ele><time>2026-03-29T09:59:33.999Z</time></trkpt><trkpt lat="42.43827738215017" lon="13.86215744789537"><ele>372.0</ele><time>2026-03-29T09:59:34.999Z</time></trkpt><trkpt lat="42.43832901610851" lon="13.862421183433723"><ele>372.0</ele><time>2026-03-29T09:59:35.999Z</time></trkpt><trkpt lat="42.438387479420115" lon="13.86269238717645"><ele>372.0</ele><time>2026-03-29T09:59:36.999Z</time></trkpt><trkpt lat="42.438445684195855" lon="13.862954420321405"><ele>373.0</ele><time>2026-03-29T09:59:37.999Z</time></trkpt><trkpt lat="42.43847983566879" lon="13.863203807715756"><ele>374.0</ele><time>2026-03-29T09:59:38.998Z</time></trkpt><trkpt lat="42.438479281115946" lon="13.863450858690463"><ele>375.0</ele><time>2026-03-29T09:59:39.998Z</time></trkpt><trkpt lat="42.43847044889044" lon="13.86368990413033"><ele>375.0</ele><time>2026-03-29T09:59:40.998Z</time></trkpt><trkpt lat="42.43846198093222" lon="13.863900213935615"><ele>375.0</ele><time>2026-03-29T09:59:41.998Z</time></trkpt><trkpt lat="42.43843640745305" lon="13.864092898992032"><ele>375.0</ele><time>2026-03-29T09:59:42.998Z</time></trkpt><trkpt lat="42.43838645825408" lon="13.864267872859507"><ele>375.0</ele><time>2026-03-29T09:59:43.998Z</time></trkpt><trkpt lat="42.438338894900966" lon="13.864450872408574"><ele>375.0</ele><time>2026-03-29T09:59:44.998Z</time></trkpt><trkpt lat="42.43829704748227" lon="13.864647689095118"><ele>375.0</ele><time>2026-03-29T09:59:45.998Z</time></trkpt><trkpt lat="42.43826497996942" lon="13.864844360021582"><ele>375.0</ele><time>2026-03-29T09:59:46.998Z</time></trkpt><trkpt lat="42.438237102849286" lon="13.865055492129986"><ele>374.0</ele><time>2026-03-29T09:59:48Z</time></trkpt><trkpt lat="42.43823150096022" lon="13.865267709315374"><ele>373.0</ele><time>2026-03-29T09:59:49Z</time></trkpt><trkpt lat="42.438253536970485" lon="13.865477341063057"><ele>372.0</ele><time>2026-03-29T09:59:50Z</time></trkpt><trkpt lat="42.43830889839099" lon="13.865704279298258"><ele>368.6666666666667</ele><time>2026-03-29T09:59:51Z</time></trkpt><trkpt lat="42.438380895801885" lon="13.865947426251688"><ele>365.33333333333337</ele><time>2026-03-29T09:59:52Z</time></trkpt><trkpt lat="42.438447809958745" lon="13.86621275985261"><ele>362.0</ele><time>2026-03-29T09:59:53Z</time></trkpt><trkpt lat="42.43851437291934" lon="13.866496624701233"><ele>362.0</ele><time>2026-03-29T09:59:54Z</time></trkpt><trkpt lat="42.438584966538656" lon="13.866762795606645"><ele>362.0</ele><time>2026-03-29T09:59:55Z</time></trkpt><trkpt lat="42.43865016406532" lon="13.867012958557027"><ele>362.0</ele><time>2026-03-29T09:59:56Z</time></trkpt><trkpt lat="42.438710202565446" lon="13.867247993109109"><ele>360.25</ele><time>2026-03-29T09:59:57Z</time></trkpt><trkpt lat="42.43876209138187" lon="13.867456961949118"><ele>358.5</ele><time>2026-03-29T09:59:58Z</time></trkpt><trkpt lat="42.438805866326504" lon="13.867632733873785"><ele>356.75</ele><time>2026-03-29T09:59:59Z</time></trkpt><trkpt lat="42.43884365287604" lon="13.867782787453748"><ele>355.0</ele><time>2026-03-29T10:00:00Z</time></trkpt><trkpt lat="42.438880961715256" lon="13.867924265072059"><ele>358.5</ele><time>2026-03-29T10:00:01Z</time></trkpt><trkpt lat="42.438920520985384" lon="13.868069325172671"><ele>362.0</ele><time>2026-03-29T10:00:02Z</time></trkpt><trkpt lat="42.43895623101504" lon="13.86821298655066"><ele>365.5</ele><time>2026-03-29T10:00:03Z</time></trkpt><trkpt lat="42.43898122259497" lon="13.868380415145012"><ele>369.0</ele><time>2026-03-29T10:00:04Z</time></trkpt><trkpt lat="42.43899685501653" lon="13.86857088124485"><ele>369.0</ele><time>2026-03-29T10:00:05Z</time></trkpt><trkpt lat="42.439008016382815" lon="13.868785486724443"><ele>369.0</ele><time>2026-03-29T10:00:06Z</time></trkpt><trkpt lat="42.43901478304117" lon="13.869010405608366"><ele>369.0</ele><time>2026-03-29T10:00:07Z</time></trkpt><trkpt lat="42.439025427079756" lon="13.8692507849905"><ele>368.6666666666667</ele><time>2026-03-29T10:00:08Z</time></trkpt><trkpt lat="42.439036195926725" lon="13.869497326550745"><ele>368.33333333333337</ele><time>2026-03-29T10:00:09Z</time></trkpt><trkpt lat="42.439044171753075" lon="13.869741397315037"><ele>368.0</ele><time>2026-03-29T10:00:10Z</time></trkpt><trkpt lat="42.439050967637556" lon="13.869976382700836"><ele>368.0</ele><time>2026-03-29T10:00:11Z</time></trkpt><trkpt lat="42.43905932563883" lon="13.870220588215087"><ele>368.0</ele><time>2026-03-29T10:00:12Z</time></trkpt><trkpt lat="42.43907373944826" lon="13.870450781505859"><ele>368.0</ele><time>2026-03-29T10:00:13Z</time></trkpt><trkpt lat="42.439094316816345" lon="13.870661796781858"><ele>368.0</ele><time>2026-03-29T10:00:14Z</time></trkpt><trkpt lat="42.43912157199323" lon="13.870888812832526"><ele>368.0</ele><time>2026-03-29T10:00:15Z</time></trkpt><trkpt lat="42.43916655381935" lon="13.871132230224365"><ele>368.0</ele><time>2026-03-29T10:00:16Z</time></trkpt><trkpt lat="42.43921020055872" lon="13.871379716710116"><ele>368.6666666666667</ele><time>2026-03-29T10:00:17Z</time></trkpt><trkpt lat="42.43926280794626" lon="13.871648716565286"><ele>369.3333333333333</ele><time>2026-03-29T10:00:18Z</time></trkpt><trkpt lat="42.43931250202633" lon="13.871906364669698"><ele>370.0</ele><time>2026-03-29T10:00:19Z</time></trkpt><trkpt lat="42.439358168479465" lon="13.872162032905678"><ele>369.0</ele><time>2026-03-29T10:00:20Z</time></trkpt><trkpt lat="42.43940194850839" lon="13.872394582296284"><ele>368.0</ele><time>2026-03-29T10:00:21Z</time></trkpt><trkpt lat="42.43944260977806" lon="13.872625270035956"><ele>367.0</ele><time>2026-03-29T10:00:22Z</time></trkpt><trkpt lat="42.43947813965768" lon="13.87283297325671"><ele>367.0</ele><time>2026-03-29T10:00:23Z</time></trkpt><trkpt lat="42.43950525542625" lon="13.873026633514085"><ele>367.0</ele><time>2026-03-29T10:00:24Z</time></trkpt><trkpt lat="42.4395157660682" lon="13.873207916748182"><ele>367.0</ele><time>2026-03-29T10:00:25Z</time></trkpt><trkpt lat="42.439492072296474" lon="13.873406245814827"><ele>367.0</ele><time>2026-03-29T10:00:26Z</time></trkpt><trkpt lat="42.43946136065928" lon="13.873607394351048"><ele>367.20000000000005</ele><time>2026-03-29T10:00:27Z</time></trkpt><trkpt lat="42.439435836015434" lon="13.873786528635137"><ele>367.4</ele><time>2026-03-29T10:00:28Z</time></trkpt><trkpt lat="42.43941963959991" lon="13.873918300997016"><ele>367.6</ele><time>2026-03-29T10:00:29Z</time></trkpt><trkpt lat="42.439428597042046" lon="13.8740477167524"><ele>367.79999999999995</ele><time>2026-03-29T10:00:30Z</time></trkpt><trkpt lat="42.43946957137887" lon="13.874184921831494"><ele>368.0</ele><time>2026-03-29T10:00:31Z</time></trkpt><trkpt lat="42.43953942653862" lon="13.874317297272352"><ele>367.75</ele><time>2026-03-29T10:00:32Z</time></trkpt><trkpt lat="42.43963595814327" lon="13.874437772859567"><ele>367.5</ele><time>2026-03-29T10:00:33Z</time></trkpt><trkpt lat="42.43975090712203" lon="13.874553273777959"><ele>367.25</ele><time>2026-03-29T10:00:34Z</time></trkpt><trkpt lat="42.439864306648275" lon="13.874664298525504"><ele>367.0</ele><time>2026-03-29T10:00:35Z</time></trkpt><trkpt lat="42.43994614849418" lon="13.874799409783337"><ele>367.0</ele><time>2026-03-29T10:00:36Z</time></trkpt><trkpt lat="42.43997767030982" lon="13.874967746410924"><ele>367.0</ele><time>2026-03-29T10:00:37Z</time></trkpt><trkpt lat="42.44000464454945" lon="13.875130838067797"><ele>367.0</ele><time>2026-03-29T10:00:38Z</time></trkpt><trkpt lat="42.440017991958854" lon="13.875293080662551"><ele>367.0</ele><time>2026-03-29T10:00:39Z</time></trkpt><trkpt lat="42.44001505007019" lon="13.875482123243982"><ele>367.0</ele><time>2026-03-29T10:00:40Z</time></trkpt><trkpt lat="42.4399913649408" lon="13.875691633002155"><ele>367.0</ele><time>2026-03-29T10:00:41Z</time></trkpt><trkpt lat="42.43998294295385" lon="13.875933150084736"><ele>367.0</ele><time>2026-03-29T10:00:42Z</time></trkpt><trkpt lat="42.43997342651211" lon="13.876152645506131"><ele>368.75</ele><time>2026-03-29T10:00:43Z</time></trkpt><trkpt lat="42.43997557193203" lon="13.876337199005217"><ele>370.5</ele><time>2026-03-29T10:00:44Z</time></trkpt><trkpt lat="42.4399345931798" lon="13.87649454282228"><ele>372.25</ele><time>2026-03-29T10:00:45Z</time></trkpt><trkpt lat="42.439864559462336" lon="13.876609429655646"><ele>374.0</ele><time>2026-03-29T10:00:46Z</time></trkpt><trkpt lat="42.439790012122764" lon="13.876712403889"><ele>372.75</ele><time>2026-03-29T10:00:47Z</time></trkpt><trkpt lat="42.4397300990829" lon="13.876847776167933"><ele>371.5</ele><time>2026-03-29T10:00:48Z</time></trkpt><trkpt lat="42.439662321978815" lon="13.876975645634674"><ele>370.25</ele><time>2026-03-29T10:00:49Z</time></trkpt><trkpt lat="42.43959567654406" lon="13.877122094094648"><ele>369.0</ele><time>2026-03-29T10:00:50Z</time></trkpt><trkpt lat="42.43954491815092" lon="13.877284683908387"><ele>369.0</ele><time>2026-03-29T10:00:51Z</time></trkpt><trkpt lat="42.43951698004772" lon="13.87745080880096"><ele>369.0</ele><time>2026-03-29T10:00:52Z</time></trkpt><trkpt lat="42.43948596400759" lon="13.8776195306789"><ele>369.0</ele><time>2026-03-29T10:00:53Z</time></trkpt><trkpt lat="42.43946823979756" lon="13.877791434600226"><ele>369.0</ele><time>2026-03-29T10:00:54Z</time></trkpt><trkpt lat="42.439456210669746" lon="13.877984066613369"><ele>371.0</ele><time>2026-03-29T10:00:55Z</time></trkpt><trkpt lat="42.43944764358121" lon="13.878197275728521"><ele>373.0</ele><time>2026-03-29T10:00:56Z</time></trkpt><trkpt lat="42.43944021939188" lon="13.87841749028012"><ele>375.0</ele><time>2026-03-29T10:00:56.999Z</time></trkpt><trkpt lat="42.439406279076834" lon="13.878641982826968"><ele>375.0</ele><time>2026-03-29T10:00:57.999Z</time></trkpt><trkpt lat="42.439401280834645" lon="13.878850148894326"><ele>375.0</ele><time>2026-03-29T10:00:58.999Z</time></trkpt><trkpt lat="42.439365500172684" lon="13.879037247284657"><ele>375.0</ele><time>2026-03-29T10:00:59.999Z</time></trkpt><trkpt lat="42.43936217474016" lon="13.87922348653932"><ele>375.0</ele><time>2026-03-29T10:01:00.999Z</time></trkpt><trkpt lat="42.43936803925493" lon="13.879377961197266"><ele>375.0</ele><time>2026-03-29T10:01:01.999Z</time></trkpt><trkpt lat="42.43941489479243" lon="13.87950823627795"><ele>375.0</ele><time>2026-03-29T10:01:02.999Z</time></trkpt><trkpt lat="42.439494746723014" lon="13.879640983032207"><ele>375.0</ele><time>2026-03-29T10:01:03.999Z</time></trkpt><trkpt lat="42.43958125286799" lon="13.879774236294711"><ele>375.0</ele><time>2026-03-29T10:01:04.999Z</time></trkpt><trkpt lat="42.43959630405723" lon="13.879923165912361"><ele>375.0</ele><time>2026-03-29T10:01:05.998Z</time></trkpt><trkpt lat="42.439576232937725" lon="13.880071946935479"><ele>375.0</ele><time>2026-03-29T10:01:06.998Z</time></trkpt><trkpt lat="42.43954785028675" lon="13.880247991503856"><ele>375.0</ele><time>2026-03-29T10:01:07.998Z</time></trkpt><trkpt lat="42.43951935337521" lon="13.880447777811362"><ele>375.0</ele><time>2026-03-29T10:01:08.998Z</time></trkpt><trkpt lat="42.43948465824484" lon="13.88064870186301"><ele>375.75</ele><time>2026-03-29T10:01:09.998Z</time></trkpt><trkpt lat="42.43946117284783" lon="13.88082810978253"><ele>376.5</ele><time>2026-03-29T10:01:10.998Z</time></trkpt><trkpt lat="42.439464765411344" lon="13.881010609963626"><ele>377.25</ele><time>2026-03-29T10:01:11.998Z</time></trkpt><trkpt lat="42.4395000110802" lon="13.881232018336613"><ele>378.0</ele><time>2026-03-29T10:01:12.998Z</time></trkpt><trkpt lat="42.439543477861385" lon="13.881459187732235"><ele>378.6666666666667</ele><time>2026-03-29T10:01:13.998Z</time></trkpt><trkpt lat="42.43955346823545" lon="13.881679514195032"><ele>379.33333333333337</ele><time>2026-03-29T10:01:14.998Z</time></trkpt><trkpt lat="42.43955705412185" lon="13.881882665652752"><ele>380.0</ele><time>2026-03-29T10:01:15.998Z</time></trkpt><trkpt lat="42.43957878233988" lon="13.882110840383529"><ele>378.75</ele><time>2026-03-29T10:01:16.998Z</time></trkpt><trkpt lat="42.439583697161815" lon="13.882310674140315"><ele>377.5</ele><time>2026-03-29T10:01:17.998Z</time></trkpt><trkpt lat="42.43960338216893" lon="13.882490646402287"><ele>376.25</ele><time>2026-03-29T10:01:18.998Z</time></trkpt><trkpt lat="42.43961817003985" lon="13.882693931414877"><ele>375.0</ele><time>2026-03-29T10:01:19.998Z</time></trkpt><trkpt lat="42.439651671739455" lon="13.882888846110925"><ele>376.25</ele><time>2026-03-29T10:01:20.998Z</time></trkpt><trkpt lat="42.439690781453045" lon="13.883056820892177"><ele>377.5</ele><time>2026-03-29T10:01:21.998Z</time></trkpt><trkpt lat="42.43974050554741" lon="13.883212776546934"><ele>378.75</ele><time>2026-03-29T10:01:22.998Z</time></trkpt><trkpt lat="42.43980648283941" lon="13.883355325705647"><ele>380.0</ele><time>2026-03-29T10:01:23.998Z</time></trkpt><trkpt lat="42.43988357109325" lon="13.88346391009217"><ele>380.0</ele><time>2026-03-29T10:01:24.998Z</time></trkpt><trkpt lat="42.43995312705772" lon="13.88354166279105"><ele>380.0</ele><time>2026-03-29T10:01:25.998Z</time></trkpt><trkpt lat="42.44002903515766" lon="13.883589355050905"><ele>380.0</ele><time>2026-03-29T10:01:26.998Z</time></trkpt><trkpt lat="42.44011632023118" lon="13.883578099391695"><ele>380.0</ele><time>2026-03-29T10:01:27.998Z</time></trkpt><trkpt lat="42.44020418894157" lon="13.883543320286147"><ele>380.0</ele><time>2026-03-29T10:01:28.998Z</time></trkpt><trkpt lat="42.4402921316985" lon="13.883463746156144"><ele>384.75</ele><time>2026-03-29T10:01:29.998Z</time></trkpt><trkpt lat="42.440391864520166" lon="13.88337420086786"><ele>389.5</ele><time>2026-03-29T10:01:30.998Z</time></trkpt><trkpt lat="42.44050228791631" lon="13.883349073929299"><ele>394.25</ele><time>2026-03-29T10:01:31.998Z</time></trkpt><trkpt lat="42.44062305159076" lon="13.883349400061087"><ele>399.0</ele><time>2026-03-29T10:01:32.998Z</time></trkpt><trkpt lat="42.44074022274524" lon="13.883336675346808"><ele>400.0</ele><time>2026-03-29T10:01:33.998Z</time></trkpt><trkpt lat="42.44085393688609" lon="13.88335472203204"><ele>401.0</ele><time>2026-03-29T10:01:34.998Z</time></trkpt><trkpt lat="42.440979096150016" lon="13.883415941742728"><ele>402.0</ele><time>2026-03-29T10:01:35.998Z</time></trkpt><trkpt lat="42.44112409528385" lon="13.883476346952664"><ele>403.0</ele><time>2026-03-29T10:01:36.998Z</time></trkpt><trkpt lat="42.441292313989635" lon="13.883532801008684"><ele>398.33333333333337</ele><time>2026-03-29T10:01:37.998Z</time></trkpt><trkpt lat="42.44145113935794" lon="13.88360765607206"><ele>393.66666666666663</ele><time>2026-03-29T10:01:38.998Z</time></trkpt><trkpt lat="42.44159302088028" lon="13.883695792491215"><ele>389.0</ele><time>2026-03-29T10:01:39.998Z</time></trkpt><trkpt lat="42.44173373889714" lon="13.883752357380878"><ele>389.0</ele><time>2026-03-29T10:01:40.998Z</time></trkpt><trkpt lat="42.4418774457758" lon="13.883783685539273"><ele>389.0</ele><time>2026-03-29T10:01:41.998Z</time></trkpt><trkpt lat="42.442034095426614" lon="13.883845678675169"><ele>389.0</ele><time>2026-03-29T10:01:42.998Z</time></trkpt><trkpt lat="42.442179193622856" lon="13.88390214118693"><ele>390.25</ele><time>2026-03-29T10:01:43.998Z</time></trkpt><trkpt lat="42.44231508764704" lon="13.883940567359517"><ele>391.5</ele><time>2026-03-29T10:01:44.998Z</time></trkpt><trkpt lat="42.442457345413274" lon="13.883959689221696"><ele>392.75</ele><time>2026-03-29T10:01:45.998Z</time></trkpt><trkpt lat="42.442600269062766" lon="13.883970240774207"><ele>394.0</ele><time>2026-03-29T10:01:46.998Z</time></trkpt><trkpt lat="42.44273114421279" lon="13.883988717488215"><ele>394.0</ele><time>2026-03-29T10:01:47.998Z</time></trkpt><trkpt lat="42.442860781247845" lon="13.884007600493657"><ele>394.0</ele><time>2026-03-29T10:01:48.998Z</time></trkpt><trkpt lat="42.44297860975752" lon="13.884023840870046"><ele>394.0</ele><time>2026-03-29T10:01:49.998Z</time></trkpt><trkpt lat="42.44307725354761" lon="13.884057040927047"><ele>394.0</ele><time>2026-03-29T10:01:50.998Z</time></trkpt><trkpt lat="42.44316695703737" lon="13.884125712875598"><ele>393.4</ele><time>2026-03-29T10:01:51.998Z</time></trkpt><trkpt lat="42.44322928712093" lon="13.884236489922479"><ele>392.79999999999995</ele><time>2026-03-29T10:01:52.998Z</time></trkpt><trkpt lat="42.443268425289126" lon="13.88435920752534"><ele>392.20000000000005</ele><time>2026-03-29T10:01:54Z</time></trkpt><trkpt lat="42.44329640663074" lon="13.884510962407177"><ele>391.6</ele><time>2026-03-29T10:01:55Z</time></trkpt><trkpt lat="42.443254556213226" lon="13.884674065572149"><ele>391.0</ele><time>2026-03-29T10:01:56Z</time></trkpt><trkpt lat="42.44320685255919" lon="13.884836656520017"><ele>390.25</ele><time>2026-03-29T10:01:57Z</time></trkpt><trkpt lat="42.44309005639787" lon="13.884928238177952"><ele>389.5</ele><time>2026-03-29T10:01:58Z</time></trkpt><trkpt lat="42.44299558752479" lon="13.885063641051648"><ele>388.75</ele><time>2026-03-29T10:01:58.999Z</time></trkpt><trkpt lat="42.44290562606794" lon="13.885164236876573"><ele>388.0</ele><time>2026-03-29T10:01:59.999Z</time></trkpt><trkpt lat="42.44283549954409" lon="13.885276519477793"><ele>388.0</ele><time>2026-03-29T10:02:01Z</time></trkpt><trkpt lat="42.442772149386556" lon="13.885409048949422"><ele>388.0</ele><time>2026-03-29T10:02:01.999Z</time></trkpt><trkpt lat="42.44272084379508" lon="13.885539431279938"><ele>388.0</ele><time>2026-03-29T10:02:03Z</time></trkpt><trkpt lat="42.442685886218726" lon="13.885676798196128"><ele>388.0</ele><time>2026-03-29T10:02:04Z</time></trkpt><trkpt lat="42.442657567018074" lon="13.885826380429867"><ele>388.0</ele><time>2026-03-29T10:02:04.999Z</time></trkpt><trkpt lat="42.44260169773731" lon="13.885973622048285"><ele>388.5</ele><time>2026-03-29T10:02:06Z</time></trkpt><trkpt lat="42.44256031822519" lon="13.886131757124016"><ele>389.0</ele><time>2026-03-29T10:02:07Z</time></trkpt><trkpt lat="42.44251109194856" lon="13.88631196715744"><ele>389.5</ele><time>2026-03-29T10:02:08Z</time></trkpt><trkpt lat="42.44244473708492" lon="13.88646189842022"><ele>390.0</ele><time>2026-03-29T10:02:08.999Z</time></trkpt><trkpt lat="42.44237588613942" lon="13.886596091878332"><ele>390.0</ele><time>2026-03-29T10:02:09.999Z</time></trkpt><trkpt lat="42.44231028784918" lon="13.886714006244311"><ele>390.0</ele><time>2026-03-29T10:02:10.999Z</time></trkpt><trkpt lat="42.442261497100986" lon="13.886833264992342"><ele>390.0</ele><time>2026-03-29T10:02:11.999Z</time></trkpt><trkpt lat="42.4422321898781" lon="13.886972798041537"><ele>390.0</ele><time>2026-03-29T10:02:12.999Z</time></trkpt><trkpt lat="42.44220132849541" lon="13.887142530063553"><ele>390.0</ele><time>2026-03-29T10:02:13.999Z</time></trkpt><trkpt lat="42.44218251408791" lon="13.887311350735668"><ele>390.0</ele><time>2026-03-29T10:02:14.999Z</time></trkpt><trkpt lat="42.44215644321168" lon="13.887478301035388"><ele>390.0</ele><time>2026-03-29T10:02:15.999Z</time></trkpt><trkpt lat="42.4421333907232" lon="13.88764167136146"><ele>390.0</ele><time>2026-03-29T10:02:16.999Z</time></trkpt><trkpt lat="42.44210694885295" lon="13.887800032768455"><ele>390.0</ele><time>2026-03-29T10:02:17.999Z</time></trkpt><trkpt lat="42.44207809834224" lon="13.887950673328277"><ele>387.0</ele><time>2026-03-29T10:02:18.999Z</time></trkpt><trkpt lat="42.44203855304814" lon="13.88809873412049"><ele>384.0</ele><time>2026-03-29T10:02:19.999Z</time></trkpt><trkpt lat="42.44196820853743" lon="13.88823824997581"><ele>381.0</ele><time>2026-03-29T10:02:20.999Z</time></trkpt><trkpt lat="42.44190871076162" lon="13.888408440731705"><ele>378.0</ele><time>2026-03-29T10:02:21.999Z</time></trkpt><trkpt lat="42.44182803653127" lon="13.888558724735578"><ele>378.0</ele><time>2026-03-29T10:02:22.999Z</time></trkpt><trkpt lat="42.44175457292195" lon="13.888697589454083"><ele>378.0</ele><time>2026-03-29T10:02:23.999Z</time></trkpt><trkpt lat="42.44169067733827" lon="13.888844694022968"><ele>378.0</ele><time>2026-03-29T10:02:24.999Z</time></trkpt><trkpt lat="42.44164267340414" lon="13.889000561682394"><ele>378.0</ele><time>2026-03-29T10:02:25.999Z</time></trkpt><trkpt lat="42.441610728219466" lon="13.889183650386817"><ele>377.75</ele><time>2026-03-29T10:02:26.999Z</time></trkpt><trkpt lat="42.441582115579465" lon="13.88936969806216"><ele>377.5</ele><time>2026-03-29T10:02:27.999Z</time></trkpt><trkpt lat="42.44155405693324" lon="13.889553259820595"><ele>377.25</ele><time>2026-03-29T10:02:28.999Z</time></trkpt><trkpt lat="42.44152659399612" lon="13.889729204660926"><ele>377.0</ele><time>2026-03-29T10:02:29.999Z</time></trkpt><trkpt lat="42.44150413692522" lon="13.889901817204054"><ele>377.0</ele><time>2026-03-29T10:02:30.999Z</time></trkpt><trkpt lat="42.44149346160791" lon="13.890080870593778"><ele>377.0</ele><time>2026-03-29T10:02:31.999Z</time></trkpt><trkpt lat="42.44149878035091" lon="13.890287197367474"><ele>377.0</ele><time>2026-03-29T10:02:32.999Z</time></trkpt><trkpt lat="42.44152069281257" lon="13.890493782093946"><ele>377.0</ele><time>2026-03-29T10:02:33.999Z</time></trkpt><trkpt lat="42.44153657668099" lon="13.890693645046365"><ele>375.5</ele><time>2026-03-29T10:02:34.999Z</time></trkpt><trkpt lat="42.44154742096814" lon="13.890894098334497"><ele>374.0</ele><time>2026-03-29T10:02:35.999Z</time></trkpt><trkpt lat="42.4415531758623" lon="13.891085864246573"><ele>372.5</ele><time>2026-03-29T10:02:36.999Z</time></trkpt><trkpt lat="42.44152836071815" lon="13.891273994542834"><ele>371.0</ele><time>2026-03-29T10:02:37.999Z</time></trkpt><trkpt lat="42.44152634667863" lon="13.891458574958476"><ele>369.75</ele><time>2026-03-29T10:02:38.999Z</time></trkpt><trkpt lat="42.44150243562603" lon="13.891629029174"><ele>368.5</ele><time>2026-03-29T10:02:39.999Z</time></trkpt><trkpt lat="42.44150192805631" lon="13.891805549203616"><ele>367.25</ele><time>2026-03-29T10:02:40.999Z</time></trkpt><trkpt lat="42.44152728665274" lon="13.892005264176209"><ele>366.0</ele><time>2026-03-29T10:02:41.999Z</time></trkpt><trkpt lat="42.44156645567434" lon="13.892206737430874"><ele>364.5</ele><time>2026-03-29T10:02:42.999Z</time></trkpt><trkpt lat="42.44160136702418" lon="13.892407912954575"><ele>363.0</ele><time>2026-03-29T10:02:43.999Z</time></trkpt><trkpt lat="42.44161993298668" lon="13.892606990353805"><ele>361.5</ele><time>2026-03-29T10:02:44.999Z</time></trkpt><trkpt lat="42.4416043877192" lon="13.892806633793972"><ele>360.0</ele><time>2026-03-29T10:02:45.999Z</time></trkpt><trkpt lat="42.44159529518502" lon="13.893012103067989"><ele>358.0</ele><time>2026-03-29T10:02:46.999Z</time></trkpt><trkpt lat="42.44159362959998" lon="13.893237079827959"><ele>356.0</ele><time>2026-03-29T10:02:47.999Z</time></trkpt><trkpt lat="42.4415709354858" lon="13.893454561457837"><ele>354.0</ele><time>2026-03-29T10:02:48.999Z</time></trkpt><trkpt lat="42.44152362204702" lon="13.893661948645232"><ele>352.75</ele><time>2026-03-29T10:02:49.999Z</time></trkpt><trkpt lat="42.441474840953994" lon="13.893866844020595"><ele>351.5</ele><time>2026-03-29T10:02:50.999Z</time></trkpt><trkpt lat="42.44143895552408" lon="13.89406824093808"><ele>350.25</ele><time>2026-03-29T10:02:51.999Z</time></trkpt><trkpt lat="42.441398099571295" lon="13.894242423707006"><ele>349.0</ele><time>2026-03-29T10:02:52.999Z</time></trkpt><trkpt lat="42.44137771378788" lon="13.894387520239361"><ele>348.25</ele><time>2026-03-29T10:02:53.999Z</time></trkpt><trkpt lat="42.441383880381245" lon="13.894553598283837"><ele>347.5</ele><time>2026-03-29T10:02:54.999Z</time></trkpt><trkpt lat="42.44140875035822" lon="13.894760658080854"><ele>346.75</ele><time>2026-03-29T10:02:55.999Z</time></trkpt><trkpt lat="42.44143985182225" lon="13.894977017846882"><ele>346.0</ele><time>2026-03-29T10:02:56.999Z</time></trkpt><trkpt lat="42.44144828315584" lon="13.895192285594197"><ele>345.3333333333333</ele><time>2026-03-29T10:02:57.999Z</time></trkpt><trkpt lat="42.4414717670614" lon="13.895392206715416"><ele>344.6666666666667</ele><time>2026-03-29T10:02:58.999Z</time></trkpt><trkpt lat="42.4414346950808" lon="13.895593180325024"><ele>344.0</ele><time>2026-03-29T10:02:59.999Z</time></trkpt><trkpt lat="42.44139270260248" lon="13.89580562399689"><ele>343.5</ele><time>2026-03-29T10:03:00.999Z</time></trkpt><trkpt lat="42.44134734717596" lon="13.896006951276195"><ele>343.0</ele><time>2026-03-29T10:03:01.999Z</time></trkpt><trkpt lat="42.44131348427276" lon="13.896205380612946"><ele>342.5</ele><time>2026-03-29T10:03:02.999Z</time></trkpt><trkpt lat="42.44126759334405" lon="13.896390071103852"><ele>342.0</ele><time>2026-03-29T10:03:03.999Z</time></trkpt><trkpt lat="42.44122477352329" lon="13.896569699706554"><ele>335.5</ele><time>2026-03-29T10:03:04.999Z</time></trkpt><trkpt lat="42.44118144557895" lon="13.896745143127497"><ele>329.0</ele><time>2026-03-29T10:03:05.999Z</time></trkpt><trkpt lat="42.44114034297084" lon="13.896897218671596"><ele>322.5</ele><time>2026-03-29T10:03:06.999Z</time></trkpt><trkpt lat="42.44111364777759" lon="13.8970324910215"><ele>316.0</ele><time>2026-03-29T10:03:07.999Z</time></trkpt><trkpt lat="42.44110570487502" lon="13.897195095244044"><ele>316.0</ele><time>2026-03-29T10:03:08.999Z</time></trkpt><trkpt lat="42.44111505208227" lon="13.89739467566004"><ele>316.0</ele><time>2026-03-29T10:03:09.998Z</time></trkpt><trkpt lat="42.44113344524322" lon="13.897618477014872"><ele>316.0</ele><time>2026-03-29T10:03:10.998Z</time></trkpt><trkpt lat="42.4411463249281" lon="13.897841649847996"><ele>313.66666666666663</ele><time>2026-03-29T10:03:11.998Z</time></trkpt><trkpt lat="42.44115869301361" lon="13.898047453999157"><ele>311.3333333333333</ele><time>2026-03-29T10:03:12.998Z</time></trkpt><trkpt lat="42.4411736991946" lon="13.898253681082553"><ele>309.0</ele><time>2026-03-29T10:03:13.998Z</time></trkpt><trkpt lat="42.44118263475048" lon="13.898462021368532"><ele>307.0</ele><time>2026-03-29T10:03:14.998Z</time></trkpt><trkpt lat="42.44119138788786" lon="13.898662003470681"><ele>305.0</ele><time>2026-03-29T10:03:15.998Z</time></trkpt><trkpt lat="42.441200325144955" lon="13.898870227725265"><ele>303.0</ele><time>2026-03-29T10:03:16.998Z</time></trkpt><trkpt lat="42.44121286113054" lon="13.899068704608931"><ele>301.0</ele><time>2026-03-29T10:03:17.998Z</time></trkpt><trkpt lat="42.44122455335062" lon="13.899257845026145"><ele>299.5</ele><time>2026-03-29T10:03:18.998Z</time></trkpt><trkpt lat="42.44123282677772" lon="13.899432297046278"><ele>298.0</ele><time>2026-03-29T10:03:19.998Z</time></trkpt><trkpt lat="42.44124195768604" lon="13.89960730931915"><ele>296.5</ele><time>2026-03-29T10:03:20.998Z</time></trkpt><trkpt lat="42.44124551201467" lon="13.899785679600173"><ele>295.0</ele><time>2026-03-29T10:03:21.998Z</time></trkpt><trkpt lat="42.44124317038325" lon="13.899965647752154"><ele>294.25</ele><time>2026-03-29T10:03:22.998Z</time></trkpt><trkpt lat="42.44124049789724" lon="13.90015320182973"><ele>293.5</ele><time>2026-03-29T10:03:23.998Z</time></trkpt><trkpt lat="42.441238719210816" lon="13.900340557817671"><ele>292.75</ele><time>2026-03-29T10:03:24.998Z</time></trkpt><trkpt lat="42.44123484877515" lon="13.900532322085907"><ele>292.0</ele><time>2026-03-29T10:03:25.998Z</time></trkpt><trkpt lat="42.44123199559525" lon="13.900729585892604"><ele>290.25</ele><time>2026-03-29T10:03:26.998Z</time></trkpt><trkpt lat="42.44123131933306" lon="13.90092081407367"><ele>288.5</ele><time>2026-03-29T10:03:27.998Z</time></trkpt><trkpt lat="42.44123788897939" lon="13.90111358907765"><ele>286.75</ele><time>2026-03-29T10:03:28.998Z</time></trkpt><trkpt lat="42.441249740578485" lon="13.901307205901134"><ele>285.0</ele><time>2026-03-29T10:03:29.998Z</time></trkpt><trkpt lat="42.44126726201538" lon="13.901499890854042"><ele>285.0</ele><time>2026-03-29T10:03:30.998Z</time></trkpt><trkpt lat="42.44126067238901" lon="13.901697436087794"><ele>285.0</ele><time>2026-03-29T10:03:31.998Z</time></trkpt><trkpt lat="42.44128592869792" lon="13.901893837698767"><ele>285.0</ele><time>2026-03-29T10:03:32.998Z</time></trkpt><trkpt lat="42.44128037460742" lon="13.902088947888982"><ele>285.0</ele><time>2026-03-29T10:03:33.998Z</time></trkpt><trkpt lat="42.44129390517351" lon="13.902250159589235"><ele>284.0</ele><time>2026-03-29T10:03:34.998Z</time></trkpt><trkpt lat="42.44132513076379" lon="13.902371434399889"><ele>283.0</ele><time>2026-03-29T10:03:35.998Z</time></trkpt><trkpt lat="42.44136075084822" lon="13.902493853631022"><ele>282.0</ele><time>2026-03-29T10:03:36.998Z</time></trkpt><trkpt lat="42.44142838973783" lon="13.902613269021089"><ele>281.0</ele><time>2026-03-29T10:03:37.998Z</time></trkpt><trkpt lat="42.44148127344207" lon="13.902713355265591"><ele>280.0</ele><time>2026-03-29T10:03:38.998Z</time></trkpt><trkpt lat="42.44150668514294" lon="13.90279631824637"><ele>278.16666666666663</ele><time>2026-03-29T10:03:39.998Z</time></trkpt><trkpt lat="42.44149249940093" lon="13.902936866246115"><ele>276.3333333333333</ele><time>2026-03-29T10:03:41.998Z</time></trkpt><trkpt lat="42.44144841474172" lon="13.903010790786604"><ele>274.5</ele><time>2026-03-29T10:03:42.998Z</time></trkpt><trkpt lat="42.441381311899654" lon="13.90305877120524"><ele>272.6666666666667</ele><time>2026-03-29T10:03:43.998Z</time></trkpt><trkpt lat="42.4412939947701" lon="13.90308085266637"><ele>270.83333333333337</ele><time>2026-03-29T10:03:44.998Z</time></trkpt><trkpt lat="42.44119301105854" lon="13.90307977185673"><ele>269.0</ele><time>2026-03-29T10:03:45.998Z</time></trkpt><trkpt lat="42.44108487263527" lon="13.903060233840657"><ele>268.75</ele><time>2026-03-29T10:03:46.998Z</time></trkpt><trkpt lat="42.440964077368434" lon="13.903034387846082"><ele>268.5</ele><time>2026-03-29T10:03:47.998Z</time></trkpt><trkpt lat="42.44085613808563" lon="13.903003432910966"><ele>268.25</ele><time>2026-03-29T10:03:48.998Z</time></trkpt><trkpt lat="42.44074865632664" lon="13.902936072108805"><ele>268.0</ele><time>2026-03-29T10:03:49.998Z</time></trkpt><trkpt lat="42.4406480028975" lon="13.902838137888638"><ele>268.0</ele><time>2026-03-29T10:03:50.998Z</time></trkpt><trkpt lat="42.44056989156447" lon="13.90272680906543"><ele>268.0</ele><time>2026-03-29T10:03:51.998Z</time></trkpt><trkpt lat="42.440494825925505" lon="13.902596255391018"><ele>268.0</ele><time>2026-03-29T10:03:52.998Z</time></trkpt><trkpt lat="42.440424273460025" lon="13.902474033102038"><ele>268.0</ele><time>2026-03-29T10:03:53.998Z</time></trkpt><trkpt lat="42.44035589812628" lon="13.902360536861112"><ele>267.2</ele><time>2026-03-29T10:03:54.998Z</time></trkpt><trkpt lat="42.440290569145745" lon="13.902250450640903"><ele>266.4</ele><time>2026-03-29T10:03:55.998Z</time></trkpt><trkpt lat="42.440231101119785" lon="13.90213770910097"><ele>265.59999999999997</ele><time>2026-03-29T10:03:56.998Z</time></trkpt><trkpt lat="42.44017222151653" lon="13.902037898279104"><ele>264.8</ele><time>2026-03-29T10:03:57.998Z</time></trkpt><trkpt lat="42.44010970411838" lon="13.901960274520512"><ele>264.0</ele><time>2026-03-29T10:03:59Z</time></trkpt><trkpt lat="42.44002731576062" lon="13.901913987454305"><ele>264.0</ele><time>2026-03-29T10:04:00Z</time></trkpt><trkpt lat="42.4399311223413" lon="13.901889586059111"><ele>264.0</ele><time>2026-03-29T10:04:01Z</time></trkpt><trkpt lat="42.43982945336882" lon="13.901891530524297"><ele>264.0</ele><time>2026-03-29T10:04:02Z</time></trkpt><trkpt lat="42.43972711377949" lon="13.901917390803325"><ele>264.0</ele><time>2026-03-29T10:04:03Z</time></trkpt><trkpt lat="42.43963553519842" lon="13.901936141393778"><ele>264.0</ele><time>2026-03-29T10:04:04Z</time></trkpt><trkpt lat="42.439548890947755" lon="13.901949185184005"><ele>262.5</ele><time>2026-03-29T10:04:05Z</time></trkpt><trkpt lat="42.43946564180174" lon="13.901963146824773"><ele>261.0</ele><time>2026-03-29T10:04:06Z</time></trkpt><trkpt lat="42.439388450878525" lon="13.901976398759064"><ele>259.5</ele><time>2026-03-29T10:04:07Z</time></trkpt><trkpt lat="42.43931418383157" lon="13.901991120784244"><ele>258.0</ele><time>2026-03-29T10:04:08Z</time></trkpt><trkpt lat="42.43923815603924" lon="13.902004210465682"><ele>256.5</ele><time>2026-03-29T10:04:09Z</time></trkpt><trkpt lat="42.439151397329866" lon="13.902019773731741"><ele>255.0</ele><time>2026-03-29T10:04:10Z</time></trkpt><trkpt lat="42.43904949002803" lon="13.9020403396776"><ele>255.0</ele><time>2026-03-29T10:04:11Z</time></trkpt><trkpt lat="42.438942490203274" lon="13.902060209928331"><ele>255.0</ele><time>2026-03-29T10:04:12Z</time></trkpt><trkpt lat="42.43882447847238" lon="13.902078553451304"><ele>255.0</ele><time>2026-03-29T10:04:13Z</time></trkpt><trkpt lat="42.43870445660236" lon="13.902095465543317"><ele>255.0</ele><time>2026-03-29T10:04:14Z</time></trkpt><trkpt lat="42.43858332861895" lon="13.902113021599352"><ele>258.0</ele><time>2026-03-29T10:04:15Z</time></trkpt><trkpt lat="42.43846913074173" lon="13.902131734897095"><ele>261.0</ele><time>2026-03-29T10:04:16Z</time></trkpt><trkpt lat="42.43835672262513" lon="13.902149856578472"><ele>264.0</ele><time>2026-03-29T10:04:17Z</time></trkpt><trkpt lat="42.43824798815423" lon="13.90216874713097"><ele>267.0</ele><time>2026-03-29T10:04:18Z</time></trkpt><trkpt lat="42.438157313441934" lon="13.902194022414797"><ele>270.0</ele><time>2026-03-29T10:04:19Z</time></trkpt><trkpt lat="42.438070718737826" lon="13.902236679163968"><ele>270.0</ele><time>2026-03-29T10:04:20Z</time></trkpt><trkpt lat="42.4379800614375" lon="13.902317021197401"><ele>270.0</ele><time>2026-03-29T10:04:20.999Z</time></trkpt><trkpt lat="42.437912782920435" lon="13.90243176035964"><ele>270.0</ele><time>2026-03-29T10:04:21.999Z</time></trkpt><trkpt lat="42.43788533913387" lon="13.902566457383914"><ele>270.0</ele><time>2026-03-29T10:04:22.999Z</time></trkpt><trkpt lat="42.4378688804409" lon="13.902750503202407"><ele>277.6666666666667</ele><time>2026-03-29T10:04:23.999Z</time></trkpt><trkpt lat="42.43786217550067" lon="13.902953997312213"><ele>285.33333333333337</ele><time>2026-03-29T10:04:24.999Z</time></trkpt><trkpt lat="42.437857342011625" lon="13.903179825577135"><ele>293.0</ele><time>2026-03-29T10:04:25.999Z</time></trkpt><trkpt lat="42.43784291551835" lon="13.90342133418627"><ele>293.33333333333337</ele><time>2026-03-29T10:04:26.999Z</time></trkpt><trkpt lat="42.437828101167504" lon="13.90365994136525"><ele>293.6666666666667</ele><time>2026-03-29T10:04:27.999Z</time></trkpt><trkpt lat="42.437819504734875" lon="13.903880543411796"><ele>294.0</ele><time>2026-03-29T10:04:28.999Z</time></trkpt><trkpt lat="42.43783103058249" lon="13.90409704898741"><ele>293.0</ele><time>2026-03-29T10:04:29.999Z</time></trkpt><trkpt lat="42.437873465358095" lon="13.904315261642921"><ele>292.0</ele><time>2026-03-29T10:04:30.999Z</time></trkpt><trkpt lat="42.437924732385596" lon="13.904533118271132"><ele>291.0</ele><time>2026-03-29T10:04:31.999Z</time></trkpt><trkpt lat="42.43796611861011" lon="13.904731463233249"><ele>284.3333333333333</ele><time>2026-03-29T10:04:32.999Z</time></trkpt><trkpt lat="42.43799921410465" lon="13.904928087064095"><ele>277.66666666666663</ele><time>2026-03-29T10:04:33.999Z</time></trkpt><trkpt lat="42.43800705241917" lon="13.90513555117511"><ele>271.0</ele><time>2026-03-29T10:04:34.999Z</time></trkpt><trkpt lat="42.43800804103545" lon="13.905367766337656"><ele>271.0</ele><time>2026-03-29T10:04:35.999Z</time></trkpt><trkpt lat="42.43799982389025" lon="13.905634829188147"><ele>271.0</ele><time>2026-03-29T10:04:36.999Z</time></trkpt><trkpt lat="42.437999728171874" lon="13.905926809223184"><ele>271.0</ele><time>2026-03-29T10:04:37.999Z</time></trkpt><trkpt lat="42.43797474325829" lon="13.906234035929003"><ele>281.5</ele><time>2026-03-29T10:04:38.999Z</time></trkpt><trkpt lat="42.43796001248973" lon="13.906552478300586"><ele>292.0</ele><time>2026-03-29T10:04:39.999Z</time></trkpt><trkpt lat="42.437961790745646" lon="13.906858314603003"><ele>292.0</ele><time>2026-03-29T10:04:40.999Z</time></trkpt><trkpt lat="42.43794741577952" lon="13.907161400285617"><ele>292.0</ele><time>2026-03-29T10:04:41.999Z</time></trkpt><trkpt lat="42.43790559556993" lon="13.907445296676508"><ele>292.0</ele><time>2026-03-29T10:04:42.999Z</time></trkpt><trkpt lat="42.437889901181144" lon="13.907728575696408"><ele>289.0</ele><time>2026-03-29T10:04:43.999Z</time></trkpt><trkpt lat="42.43785412087742" lon="13.90802827846895"><ele>286.0</ele><time>2026-03-29T10:04:44.999Z</time></trkpt><trkpt lat="42.437820683931314" lon="13.90831625742719"><ele>283.0</ele><time>2026-03-29T10:04:45.999Z</time></trkpt><trkpt lat="42.43778682270376" lon="13.908592334009423"><ele>280.0</ele><time>2026-03-29T10:04:46.999Z</time></trkpt><trkpt lat="42.437755623597155" lon="13.908870418917896"><ele>277.0</ele><time>2026-03-29T10:04:47.999Z</time></trkpt><trkpt lat="42.437722690871645" lon="13.909128279808835"><ele>274.0</ele><time>2026-03-29T10:04:48.999Z</time></trkpt><trkpt lat="42.43769314319568" lon="13.909341647936524"><ele>272.0</ele><time>2026-03-29T10:04:49.999Z</time></trkpt><trkpt lat="42.437674487556386" lon="13.90953161120412"><ele>270.0</ele><time>2026-03-29T10:04:50.999Z</time></trkpt><trkpt lat="42.43766867168479" lon="13.909718004037694"><ele>268.0</ele><time>2026-03-29T10:04:51.999Z</time></trkpt><trkpt lat="42.43767973743283" lon="13.909895158579076"><ele>266.0</ele><time>2026-03-29T10:04:52.999Z</time></trkpt><trkpt lat="42.43770737718109" lon="13.910039955815119"><ele>264.0</ele><time>2026-03-29T10:04:53.999Z</time></trkpt><trkpt lat="42.43775603299407" lon="13.910158523433838"><ele>262.0</ele><time>2026-03-29T10:04:54.999Z</time></trkpt><trkpt lat="42.43782488097632" lon="13.910277248699195"><ele>260.0</ele><time>2026-03-29T10:04:55.999Z</time></trkpt><trkpt lat="42.43789828391026" lon="13.91041540751402"><ele>258.0</ele><time>2026-03-29T10:04:56.999Z</time></trkpt><trkpt lat="42.43796619678488" lon="13.910567617553522"><ele>256.0</ele><time>2026-03-29T10:04:57.999Z</time></trkpt><trkpt lat="42.43804024459531" lon="13.910727380939077"><ele>254.0</ele><time>2026-03-29T10:04:58.999Z</time></trkpt><trkpt lat="42.438123774294915" lon="13.910901297844463"><ele>252.0</ele><time>2026-03-29T10:04:59.999Z</time></trkpt><trkpt lat="42.43820479532014" lon="13.911073097970807"><ele>250.0</ele><time>2026-03-29T10:05:00.999Z</time></trkpt><trkpt lat="42.438289604071755" lon="13.911249369004247"><ele>249.66666666666666</ele><time>2026-03-29T10:05:01.999Z</time></trkpt><trkpt lat="42.438374010856684" lon="13.9114315908767"><ele>249.33333333333331</ele><time>2026-03-29T10:05:02.999Z</time></trkpt><trkpt lat="42.43846277058698" lon="13.911621201091174"><ele>249.0</ele><time>2026-03-29T10:05:03.999Z</time></trkpt><trkpt lat="42.43855497980242" lon="13.911812778673006"><ele>249.0</ele><time>2026-03-29T10:05:04.999Z</time></trkpt><trkpt lat="42.43864950020667" lon="13.91200285890176"><ele>249.0</ele><time>2026-03-29T10:05:05.999Z</time></trkpt><trkpt lat="42.43874044732805" lon="13.912199898489616"><ele>249.0</ele><time>2026-03-29T10:05:06.999Z</time></trkpt><trkpt lat="42.43883030318929" lon="13.912395556527393"><ele>249.0</ele><time>2026-03-29T10:05:07.999Z</time></trkpt><trkpt lat="42.438918656208905" lon="13.912585540001905"><ele>249.0</ele><time>2026-03-29T10:05:08.999Z</time></trkpt><trkpt lat="42.43900319514608" lon="13.912760041772833"><ele>249.0</ele><time>2026-03-29T10:05:09.999Z</time></trkpt><trkpt lat="42.43908261533098" lon="13.912935421041102"><ele>249.0</ele><time>2026-03-29T10:05:10.999Z</time></trkpt><trkpt lat="42.4391652167044" lon="13.913109675875408"><ele>249.0</ele><time>2026-03-29T10:05:11.999Z</time></trkpt><trkpt lat="42.43925001510076" lon="13.913280581578242"><ele>249.0</ele><time>2026-03-29T10:05:12.999Z</time></trkpt><trkpt lat="42.439335065164464" lon="13.91346077498709"><ele>248.0</ele><time>2026-03-29T10:05:13.999Z</time></trkpt><trkpt lat="42.439416075682175" lon="13.913636049839557"><ele>247.0</ele><time>2026-03-29T10:05:14.998Z</time></trkpt><trkpt lat="42.43949243767554" lon="13.9138039853979"><ele>246.0</ele><time>2026-03-29T10:05:15.998Z</time></trkpt><trkpt lat="42.439569083073955" lon="13.913973544890416"><ele>245.0</ele><time>2026-03-29T10:05:16.998Z</time></trkpt><trkpt lat="42.43964782814325" lon="13.91414468829234"><ele>247.5</ele><time>2026-03-29T10:05:17.998Z</time></trkpt><trkpt lat="42.43972973544207" lon="13.914318267543097"><ele>250.0</ele><time>2026-03-29T10:05:18.998Z</time></trkpt><trkpt lat="42.4398101870079" lon="13.914491983006677"><ele>252.5</ele><time>2026-03-29T10:05:19.998Z</time></trkpt><trkpt lat="42.43988442548414" lon="13.914658673231088"><ele>255.0</ele><time>2026-03-29T10:05:20.998Z</time></trkpt><trkpt lat="42.43995469329484" lon="13.914814426103227"><ele>255.0</ele><time>2026-03-29T10:05:21.998Z</time></trkpt><trkpt lat="42.44001715203008" lon="13.914941549725503"><ele>255.0</ele><time>2026-03-29T10:05:22.998Z</time></trkpt><trkpt lat="42.44007127593974" lon="13.91505880447443"><ele>255.0</ele><time>2026-03-29T10:05:23.998Z</time></trkpt><trkpt lat="42.440143575422994" lon="13.915189687865576"><ele>255.0</ele><time>2026-03-29T10:05:24.998Z</time></trkpt><trkpt lat="42.440200263589276" lon="13.915235674904858"><ele>255.0</ele><time>2026-03-29T10:05:25.998Z</time></trkpt><trkpt lat="42.440269199376374" lon="13.915241821243878"><ele>256.6</ele><time>2026-03-29T10:05:26.998Z</time></trkpt><trkpt lat="42.44034371636318" lon="13.915206766790387"><ele>258.2</ele><time>2026-03-29T10:05:27.998Z</time></trkpt><trkpt lat="42.44041544695408" lon="13.915121073284872"><ele>259.8</ele><time>2026-03-29T10:05:28.998Z</time></trkpt><trkpt lat="42.440473159920856" lon="13.914996841476203"><ele>261.4</ele><time>2026-03-29T10:05:29.998Z</time></trkpt><trkpt lat="42.44052926220855" lon="13.914856861392376"><ele>263.0</ele><time>2026-03-29T10:05:30.998Z</time></trkpt><trkpt lat="42.44059302560004" lon="13.914720392050569"><ele>263.0</ele><time>2026-03-29T10:05:31.998Z</time></trkpt><trkpt lat="42.44065031074293" lon="13.914607106575344"><ele>263.0</ele><time>2026-03-29T10:05:32.998Z</time></trkpt><trkpt lat="42.440705469258965" lon="13.914511015102109"><ele>263.0</ele><time>2026-03-29T10:05:33.998Z</time></trkpt><trkpt lat="42.44080509455375" lon="13.914479402993337"><ele>263.0</ele><time>2026-03-29T10:05:34.998Z</time></trkpt><trkpt lat="42.4409189622636" lon="13.914435479089425"><ele>263.0</ele><time>2026-03-29T10:05:35.998Z</time></trkpt><trkpt lat="42.44104215660875" lon="13.914365704865583"><ele>263.0</ele><time>2026-03-29T10:05:36.998Z</time></trkpt><trkpt lat="42.44115770237355" lon="13.914320849834818"><ele>263.0</ele><time>2026-03-29T10:05:37.998Z</time></trkpt><trkpt lat="42.44126559946342" lon="13.914274573155355"><ele>263.0</ele><time>2026-03-29T10:05:38.998Z</time></trkpt><trkpt lat="42.44138373918452" lon="13.914208040632202"><ele>263.0</ele><time>2026-03-29T10:05:39.998Z</time></trkpt><trkpt lat="42.44150797442906" lon="13.914090455417114"><ele>264.33333333333337</ele><time>2026-03-29T10:05:40.998Z</time></trkpt><trkpt lat="42.44163895385574" lon="13.913950810046186"><ele>265.6666666666667</ele><time>2026-03-29T10:05:41.998Z</time></trkpt><trkpt lat="42.44178455396077" lon="13.91380233179219"><ele>267.0</ele><time>2026-03-29T10:05:42.998Z</time></trkpt><trkpt lat="42.44193530026732" lon="13.913655762538822"><ele>267.0</ele><time>2026-03-29T10:05:43.998Z</time></trkpt><trkpt lat="42.442085696016925" lon="13.913522600145468"><ele>267.0</ele><time>2026-03-29T10:05:44.998Z</time></trkpt><trkpt lat="42.44224232043908" lon="13.913370156694228"><ele>267.0</ele><time>2026-03-29T10:05:45.998Z</time></trkpt><trkpt lat="42.44241045354957" lon="13.913210191833922"><ele>266.6666666666667</ele><time>2026-03-29T10:05:46.998Z</time></trkpt><trkpt lat="42.442583226649965" lon="13.91304520400885"><ele>266.33333333333337</ele><time>2026-03-29T10:05:47.998Z</time></trkpt><trkpt lat="42.44273890425892" lon="13.912890228402285"><ele>266.0</ele><time>2026-03-29T10:05:48.998Z</time></trkpt><trkpt lat="42.44289126227654" lon="13.91274817170306"><ele>265.0</ele><time>2026-03-29T10:05:49.998Z</time></trkpt><trkpt lat="42.443030750352634" lon="13.912607371286057"><ele>264.0</ele><time>2026-03-29T10:05:50.998Z</time></trkpt><trkpt lat="42.44316633702556" lon="13.912484481750623"><ele>263.0</ele><time>2026-03-29T10:05:51.998Z</time></trkpt><trkpt lat="42.443286783291974" lon="13.912386177341197"><ele>263.0</ele><time>2026-03-29T10:05:52.998Z</time></trkpt><trkpt lat="42.4434245111538" lon="13.912332047305732"><ele>263.0</ele><time>2026-03-29T10:05:53.998Z</time></trkpt><trkpt lat="42.44357369651832" lon="13.912272356870638"><ele>263.0</ele><time>2026-03-29T10:05:54.998Z</time></trkpt><trkpt lat="42.44369543154144" lon="13.912208326426967"><ele>263.0</ele><time>2026-03-29T10:05:55.998Z</time></trkpt><trkpt lat="42.44381577725838" lon="13.912174323982681"><ele>265.75</ele><time>2026-03-29T10:05:56.998Z</time></trkpt><trkpt lat="42.443918271837894" lon="13.912136796684454"><ele>268.5</ele><time>2026-03-29T10:05:57.998Z</time></trkpt><trkpt lat="42.44400578621313" lon="13.912070911401596"><ele>271.25</ele><time>2026-03-29T10:05:58.998Z</time></trkpt><trkpt lat="42.444086634172436" lon="13.911959273353755"><ele>274.0</ele><time>2026-03-29T10:05:59.998Z</time></trkpt><trkpt lat="42.44414623417201" lon="13.911803567319392"><ele>272.8</ele><time>2026-03-29T10:06:00.998Z</time></trkpt><trkpt lat="42.44418340790224" lon="13.91164071333846"><ele>271.59999999999997</ele><time>2026-03-29T10:06:01.998Z</time></trkpt><trkpt lat="42.44424199354139" lon="13.911531911674606"><ele>270.4</ele><time>2026-03-29T10:06:02.998Z</time></trkpt><trkpt lat="42.44429599334286" lon="13.911430171854375"><ele>269.2</ele><time>2026-03-29T10:06:03.998Z</time></trkpt><trkpt lat="42.444408115413886" lon="13.911369237034776"><ele>268.0</ele><time>2026-03-29T10:06:05Z</time></trkpt><trkpt lat="42.44451686452166" lon="13.911267534034815"><ele>269.25</ele><time>2026-03-29T10:06:06Z</time></trkpt><trkpt lat="42.444637141108515" lon="13.911155044937706"><ele>270.5</ele><time>2026-03-29T10:06:07Z</time></trkpt><trkpt lat="42.444758894148094" lon="13.911040016245595"><ele>271.75</ele><time>2026-03-29T10:06:08Z</time></trkpt><trkpt lat="42.444866865109866" lon="13.910936467746687"><ele>273.0</ele><time>2026-03-29T10:06:09Z</time></trkpt><trkpt lat="42.44495843914983" lon="13.910836463228803"><ele>273.0</ele><time>2026-03-29T10:06:10Z</time></trkpt><trkpt lat="42.445075183668834" lon="13.91077509867831"><ele>273.0</ele><time>2026-03-29T10:06:11Z</time></trkpt><trkpt lat="42.4451895980281" lon="13.910680270674186"><ele>273.0</ele><time>2026-03-29T10:06:12Z</time></trkpt><trkpt lat="42.44530285873597" lon="13.910619212975844"><ele>273.0</ele><time>2026-03-29T10:06:13Z</time></trkpt><trkpt lat="42.44539958492719" lon="13.910565710455979"><ele>273.6666666666667</ele><time>2026-03-29T10:06:14Z</time></trkpt><trkpt lat="42.44548353168975" lon="13.910523800201945"><ele>274.3333333333333</ele><time>2026-03-29T10:06:15Z</time></trkpt><trkpt lat="42.44556112746263" lon="13.910523164815158"><ele>275.0</ele><time>2026-03-29T10:06:16Z</time></trkpt><trkpt lat="42.445637861161465" lon="13.910576293555907"><ele>275.66666666666663</ele><time>2026-03-29T10:06:17Z</time></trkpt><trkpt lat="42.44569374139947" lon="13.910662469092767"><ele>276.3333333333333</ele><time>2026-03-29T10:06:18Z</time></trkpt><trkpt lat="42.44571718216503" lon="13.910790360166702"><ele>277.0</ele><time>2026-03-29T10:06:19Z</time></trkpt><trkpt lat="42.44573570585299" lon="13.910945329962805"><ele>279.25</ele><time>2026-03-29T10:06:20Z</time></trkpt><trkpt lat="42.44574673127479" lon="13.91112164436102"><ele>281.5</ele><time>2026-03-29T10:06:21Z</time></trkpt><trkpt lat="42.4457631936616" lon="13.911312155619846"><ele>283.75</ele><time>2026-03-29T10:06:22Z</time></trkpt><trkpt lat="42.44578246021002" lon="13.911508434726763"><ele>286.0</ele><time>2026-03-29T10:06:23Z</time></trkpt><trkpt lat="42.44580165301873" lon="13.911716924882013"><ele>288.25</ele><time>2026-03-29T10:06:24Z</time></trkpt><trkpt lat="42.4458175135534" lon="13.911937512866787"><ele>290.5</ele><time>2026-03-29T10:06:25Z</time></trkpt><trkpt lat="42.44582968932346" lon="13.91214032107349"><ele>292.75</ele><time>2026-03-29T10:06:26Z</time></trkpt><trkpt lat="42.44584431394782" lon="13.91232089529001"><ele>295.0</ele><time>2026-03-29T10:06:27Z</time></trkpt><trkpt lat="42.44587284532038" lon="13.912479478668152"><ele>297.5</ele><time>2026-03-29T10:06:28Z</time></trkpt><trkpt lat="42.4459270891942" lon="13.912639021812033"><ele>300.0</ele><time>2026-03-29T10:06:28.999Z</time></trkpt><trkpt lat="42.44601621911233" lon="13.912790343014136"><ele>302.5</ele><time>2026-03-29T10:06:29.999Z</time></trkpt><trkpt lat="42.44613431368831" lon="13.912932473293523"><ele>305.0</ele><time>2026-03-29T10:06:30.999Z</time></trkpt><trkpt lat="42.446248546772516" lon="13.91308271934235"><ele>304.0</ele><time>2026-03-29T10:06:31.999Z</time></trkpt><trkpt lat="42.44633647131503" lon="13.913212546428346"><ele>303.0</ele><time>2026-03-29T10:06:32.999Z</time></trkpt><trkpt lat="42.44640127406344" lon="13.913312135376666"><ele>302.0</ele><time>2026-03-29T10:06:33.999Z</time></trkpt><trkpt lat="42.44644807950947" lon="13.913404386418135"><ele>301.0</ele><time>2026-03-29T10:06:34.999Z</time></trkpt><trkpt lat="42.44645593852492" lon="13.913514473006218"><ele>300.0</ele><time>2026-03-29T10:06:35.999Z</time></trkpt><trkpt lat="42.44642381609594" lon="13.913627249177871"><ele>302.4</ele><time>2026-03-29T10:06:36.999Z</time></trkpt><trkpt lat="42.44635412379449" lon="13.913691914782211"><ele>304.8</ele><time>2026-03-29T10:06:37.999Z</time></trkpt><trkpt lat="42.44626670748699" lon="13.913710208097273"><ele>307.2</ele><time>2026-03-29T10:06:38.999Z</time></trkpt><trkpt lat="42.446181162058444" lon="13.91365619102817"><ele>309.6</ele><time>2026-03-29T10:06:39.999Z</time></trkpt><trkpt lat="42.446100060499504" lon="13.913520378102724"><ele>312.0</ele><time>2026-03-29T10:06:40.999Z</time></trkpt><trkpt lat="42.445984439920664" lon="13.913422197637622"><ele>310.6</ele><time>2026-03-29T10:06:41.999Z</time></trkpt><trkpt lat="42.445874452875536" lon="13.91331339544466"><ele>309.2</ele><time>2026-03-29T10:06:42.999Z</time></trkpt><trkpt lat="42.445780935014284" lon="13.913222875902834"><ele>307.8</ele><time>2026-03-29T10:06:43.999Z</time></trkpt><trkpt lat="42.445695183572724" lon="13.913144780182517"><ele>306.4</ele><time>2026-03-29T10:06:44.999Z</time></trkpt><trkpt lat="42.44560583547014" lon="13.913105180617153"><ele>305.0</ele><time>2026-03-29T10:06:45.999Z</time></trkpt><trkpt lat="42.44551461127836" lon="13.913086650971849"><ele>304.8</ele><time>2026-03-29T10:06:46.999Z</time></trkpt><trkpt lat="42.44542385729733" lon="13.913183699909862"><ele>304.6</ele><time>2026-03-29T10:06:47.999Z</time></trkpt><trkpt lat="42.44536360341573" lon="13.913278086473014"><ele>304.4</ele><time>2026-03-29T10:06:48.999Z</time></trkpt><trkpt lat="42.44534482236806" lon="13.913387122802455"><ele>304.2</ele><time>2026-03-29T10:06:49.999Z</time></trkpt><trkpt lat="42.445369644213926" lon="13.91350831508504"><ele>304.0</ele><time>2026-03-29T10:06:50.999Z</time></trkpt><trkpt lat="42.44542910689393" lon="13.913642632960434"><ele>306.5</ele><time>2026-03-29T10:06:51.999Z</time></trkpt><trkpt lat="42.445502906992274" lon="13.913781156958594"><ele>309.0</ele><time>2026-03-29T10:06:52.999Z</time></trkpt><trkpt lat="42.445577621864444" lon="13.91392750636892"><ele>311.5</ele><time>2026-03-29T10:06:53.999Z</time></trkpt><trkpt lat="42.445651347192616" lon="13.91408908269705"><ele>314.0</ele><time>2026-03-29T10:06:54.999Z</time></trkpt><trkpt lat="42.44572564789688" lon="13.914255047890348"><ele>315.5</ele><time>2026-03-29T10:06:55.999Z</time></trkpt><trkpt lat="42.445794319872874" lon="13.914410200391158"><ele>317.0</ele><time>2026-03-29T10:06:56.999Z</time></trkpt><trkpt lat="42.44586558232501" lon="13.914575468940352"><ele>318.5</ele><time>2026-03-29T10:06:57.999Z</time></trkpt><trkpt lat="42.44593543294028" lon="13.914759597671074"><ele>320.0</ele><time>2026-03-29T10:06:58.999Z</time></trkpt><trkpt lat="42.44599916090907" lon="13.91495040856565"><ele>319.6666666666667</ele><time>2026-03-29T10:06:59.999Z</time></trkpt><trkpt lat="42.44605548988453" lon="13.915160354420141"><ele>319.3333333333333</ele><time>2026-03-29T10:07:00.999Z</time></trkpt><trkpt lat="42.446113071725556" lon="13.915354241516233"><ele>319.0</ele><time>2026-03-29T10:07:01.999Z</time></trkpt><trkpt lat="42.446166086700075" lon="13.915520696835829"><ele>319.0</ele><time>2026-03-29T10:07:02.999Z</time></trkpt><trkpt lat="42.446223653966314" lon="13.915662881447663"><ele>319.0</ele><time>2026-03-29T10:07:03.999Z</time></trkpt><trkpt lat="42.446311779206816" lon="13.915801318208565"><ele>319.0</ele><time>2026-03-29T10:07:04.999Z</time></trkpt><trkpt lat="42.446428201479826" lon="13.915932086040172"><ele>319.0</ele><time>2026-03-29T10:07:05.999Z</time></trkpt><trkpt lat="42.4465529569675" lon="13.916075211917583"><ele>320.75</ele><time>2026-03-29T10:07:06.999Z</time></trkpt><trkpt lat="42.44665957959472" lon="13.916208974028825"><ele>322.5</ele><time>2026-03-29T10:07:07.999Z</time></trkpt><trkpt lat="42.44675903910618" lon="13.916325723172786"><ele>324.25</ele><time>2026-03-29T10:07:08.999Z</time></trkpt><trkpt lat="42.44688343823338" lon="13.916417998443183"><ele>326.0</ele><time>2026-03-29T10:07:09.999Z</time></trkpt><trkpt lat="42.447035576367725" lon="13.916492255458152"><ele>329.0</ele><time>2026-03-29T10:07:10.999Z</time></trkpt><trkpt lat="42.44719926062702" lon="13.916561825020604"><ele>332.0</ele><time>2026-03-29T10:07:11.999Z</time></trkpt><trkpt lat="42.44734584344535" lon="13.916632459421725"><ele>335.0</ele><time>2026-03-29T10:07:12.999Z</time></trkpt><trkpt lat="42.44747165655045" lon="13.916697901042024"><ele>335.0</ele><time>2026-03-29T10:07:13.999Z</time></trkpt><trkpt lat="42.44758846034972" lon="13.916748484351142"><ele>335.0</ele><time>2026-03-29T10:07:14.999Z</time></trkpt><trkpt lat="42.44769784412146" lon="13.916774416618003"><ele>335.0</ele><time>2026-03-29T10:07:15.999Z</time></trkpt><trkpt lat="42.447803880693364" lon="13.916749802616751"><ele>335.0</ele><time>2026-03-29T10:07:16.999Z</time></trkpt><trkpt lat="42.44790913302915" lon="13.916669760484503"><ele>337.25</ele><time>2026-03-29T10:07:17.999Z</time></trkpt><trkpt lat="42.448003235661815" lon="13.916538795359841"><ele>339.5</ele><time>2026-03-29T10:07:18.999Z</time></trkpt><trkpt lat="42.448084779590666" lon="13.916404461429718"><ele>341.75</ele><time>2026-03-29T10:07:19.999Z</time></trkpt><trkpt lat="42.44817264713983" lon="13.91631016645698"><ele>344.0</ele><time>2026-03-29T10:07:20.999Z</time></trkpt><trkpt lat="42.448284278633174" lon="13.916248014611915"><ele>344.0</ele><time>2026-03-29T10:07:21.999Z</time></trkpt><trkpt lat="42.44841737172965" lon="13.916206689362042"><ele>344.0</ele><time>2026-03-29T10:07:22.999Z</time></trkpt><trkpt lat="42.44855975525062" lon="13.91621924603884"><ele>344.0</ele><time>2026-03-29T10:07:23.999Z</time></trkpt><trkpt lat="42.44871402123612" lon="13.91621983661402"><ele>344.0</ele><time>2026-03-29T10:07:24.999Z</time></trkpt><trkpt lat="42.44888198563167" lon="13.916249083807331"><ele>344.33333333333337</ele><time>2026-03-29T10:07:25.999Z</time></trkpt><trkpt lat="42.44904825647544" lon="13.916272848111038"><ele>344.6666666666667</ele><time>2026-03-29T10:07:26.998Z</time></trkpt><trkpt lat="42.449196882272965" lon="13.916301431837633"><ele>345.0</ele><time>2026-03-29T10:07:27.998Z</time></trkpt><trkpt lat="42.449332822116666" lon="13.916342216324628"><ele>345.0</ele><time>2026-03-29T10:07:28.998Z</time></trkpt><trkpt lat="42.449461512741784" lon="13.916404467457484"><ele>345.0</ele><time>2026-03-29T10:07:29.998Z</time></trkpt><trkpt lat="42.4495972140449" lon="13.91650219543128"><ele>345.0</ele><time>2026-03-29T10:07:30.998Z</time></trkpt><trkpt lat="42.44972366023744" lon="13.916617926057553"><ele>345.0</ele><time>2026-03-29T10:07:31.998Z</time></trkpt><trkpt lat="42.44984893161152" lon="13.91674134036665"><ele>349.6666666666667</ele><time>2026-03-29T10:07:32.998Z</time></trkpt><trkpt lat="42.4499702653895" lon="13.9168848754722"><ele>354.33333333333337</ele><time>2026-03-29T10:07:33.998Z</time></trkpt><trkpt lat="42.450073847363555" lon="13.917038744717741"><ele>359.0</ele><time>2026-03-29T10:07:34.998Z</time></trkpt><trkpt lat="42.450163449145414" lon="13.917214580187412"><ele>359.0</ele><time>2026-03-29T10:07:35.998Z</time></trkpt><trkpt lat="42.4502456633665" lon="13.917397990889924"><ele>359.0</ele><time>2026-03-29T10:07:36.998Z</time></trkpt><trkpt lat="42.450318377760254" lon="13.917574701818975"><ele>359.0</ele><time>2026-03-29T10:07:37.998Z</time></trkpt><trkpt lat="42.450379717290886" lon="13.91773920420971"><ele>359.0</ele><time>2026-03-29T10:07:38.998Z</time></trkpt><trkpt lat="42.45043301304128" lon="13.917903406638962"><ele>360.75</ele><time>2026-03-29T10:07:39.998Z</time></trkpt><trkpt lat="42.45047934261705" lon="13.918085398585815"><ele>362.5</ele><time>2026-03-29T10:07:40.998Z</time></trkpt><trkpt lat="42.45051940129751" lon="13.918270953960779"><ele>364.25</ele><time>2026-03-29T10:07:41.998Z</time></trkpt><trkpt lat="42.450550476102904" lon="13.918432977932802"><ele>366.0</ele><time>2026-03-29T10:07:42.998Z</time></trkpt><trkpt lat="42.450583310979745" lon="13.918600863658254"><ele>367.5</ele><time>2026-03-29T10:07:43.998Z</time></trkpt><trkpt lat="42.450612779982805" lon="13.918768373311842"><ele>369.0</ele><time>2026-03-29T10:07:44.998Z</time></trkpt><trkpt lat="42.450639827658975" lon="13.918925873072531"><ele>370.5</ele><time>2026-03-29T10:07:45.998Z</time></trkpt><trkpt lat="42.45067977990231" lon="13.919101029070363"><ele>372.0</ele><time>2026-03-29T10:07:46.998Z</time></trkpt><trkpt lat="42.450742427639284" lon="13.919285132612972"><ele>372.0</ele><time>2026-03-29T10:07:47.998Z</time></trkpt><trkpt lat="42.45079895669352" lon="13.91945729911993"><ele>372.0</ele><time>2026-03-29T10:07:48.998Z</time></trkpt><trkpt lat="42.450846018752486" lon="13.919628517172136"><ele>372.0</ele><time>2026-03-29T10:07:49.998Z</time></trkpt><trkpt lat="42.450889905174805" lon="13.9198266546836"><ele>372.0</ele><time>2026-03-29T10:07:50.998Z</time></trkpt><trkpt lat="42.45093715204843" lon="13.92000393171239"><ele>370.0</ele><time>2026-03-29T10:07:51.998Z</time></trkpt><trkpt lat="42.450975744698276" lon="13.920151305869835"><ele>368.0</ele><time>2026-03-29T10:07:52.998Z</time></trkpt><trkpt lat="42.45101285224771" lon="13.920280483695805"><ele>366.0</ele><time>2026-03-29T10:07:53.998Z</time></trkpt><trkpt lat="42.45107592155113" lon="13.92041883686487"><ele>364.0</ele><time>2026-03-29T10:07:54.998Z</time></trkpt><trkpt lat="42.45117484186847" lon="13.920569036816493"><ele>364.0</ele><time>2026-03-29T10:07:55.998Z</time></trkpt><trkpt lat="42.45128106017322" lon="13.920723818265362"><ele>364.0</ele><time>2026-03-29T10:07:56.998Z</time></trkpt><trkpt lat="42.451373123067796" lon="13.920861933145057"><ele>364.0</ele><time>2026-03-29T10:07:57.998Z</time></trkpt><trkpt lat="42.45145841062286" lon="13.920989525740955"><ele>364.0</ele><time>2026-03-29T10:07:58.998Z</time></trkpt><trkpt lat="42.45153867501641" lon="13.921112983222443"><ele>364.4</ele><time>2026-03-29T10:07:59.998Z</time></trkpt><trkpt lat="42.451611567372716" lon="13.92123246025704"><ele>364.79999999999995</ele><time>2026-03-29T10:08:00.998Z</time></trkpt><trkpt lat="42.4516774408978" lon="13.921336857261949"><ele>365.20000000000005</ele><time>2026-03-29T10:08:01.998Z</time></trkpt><trkpt lat="42.45174042519556" lon="13.921429955681036"><ele>365.6</ele><time>2026-03-29T10:08:02.998Z</time></trkpt><trkpt lat="42.45181541442456" lon="13.92152965350702"><ele>366.0</ele><time>2026-03-29T10:08:03.998Z</time></trkpt><trkpt lat="42.451876198184024" lon="13.921648369670182"><ele>366.75</ele><time>2026-03-29T10:08:04.998Z</time></trkpt><trkpt lat="42.45193126553916" lon="13.921780467921323"><ele>367.5</ele><time>2026-03-29T10:08:05.998Z</time></trkpt><trkpt lat="42.451983500554114" lon="13.92192563331442"><ele>368.25</ele><time>2026-03-29T10:08:06.998Z</time></trkpt><trkpt lat="42.45203939184059" lon="13.92206443354557"><ele>369.0</ele><time>2026-03-29T10:08:07.998Z</time></trkpt><trkpt lat="42.4520955715743" lon="13.922208725270085"><ele>369.5</ele><time>2026-03-29T10:08:08.998Z</time></trkpt><trkpt lat="42.452148625803794" lon="13.922365520161312"><ele>370.0</ele><time>2026-03-29T10:08:10Z</time></trkpt><trkpt lat="42.45220678699642" lon="13.922522403549246"><ele>370.5</ele><time>2026-03-29T10:08:11Z</time></trkpt><trkpt lat="42.452265175178766" lon="13.922681754036596"><ele>371.0</ele><time>2026-03-29T10:08:12Z</time></trkpt><trkpt lat="42.4523243594102" lon="13.92282269192154"><ele>371.8</ele><time>2026-03-29T10:08:13Z</time></trkpt><trkpt lat="42.45237822047723" lon="13.922950883755636"><ele>372.6</ele><time>2026-03-29T10:08:14Z</time></trkpt><trkpt lat="42.45242656952713" lon="13.923074993113243"><ele>373.4</ele><time>2026-03-29T10:08:15Z</time></trkpt><trkpt lat="42.45246996420139" lon="13.923189373114521"><ele>374.2</ele><time>2026-03-29T10:08:16Z</time></trkpt><trkpt lat="42.45250618582122" lon="13.923292411512167"><ele>375.0</ele><time>2026-03-29T10:08:17Z</time></trkpt><trkpt lat="42.45254320903789" lon="13.923382253616582"><ele>375.0</ele><time>2026-03-29T10:08:18Z</time></trkpt><trkpt lat="42.45257827832275" lon="13.923471363940276"><ele>375.0</ele><time>2026-03-29T10:08:19Z</time></trkpt><trkpt lat="42.45261495662018" lon="13.923560311583307"><ele>375.0</ele><time>2026-03-29T10:08:20Z</time></trkpt><trkpt lat="42.45264662083743" lon="13.923657661663862"><ele>375.0</ele><time>2026-03-29T10:08:21Z</time></trkpt><trkpt lat="42.45267967690464" lon="13.923759131097164"><ele>375.0</ele><time>2026-03-29T10:08:22Z</time></trkpt><trkpt lat="42.452715681731696" lon="13.92386230109416"><ele>375.0</ele><time>2026-03-29T10:08:23Z</time></trkpt><trkpt lat="42.45275265443672" lon="13.923953516998345"><ele>375.0</ele><time>2026-03-29T10:08:24Z</time></trkpt><trkpt lat="42.45279453483368" lon="13.924034061334568"><ele>375.0</ele><time>2026-03-29T10:08:25Z</time></trkpt><trkpt lat="42.4528425619418" lon="13.924106744241959"><ele>375.0</ele><time>2026-03-29T10:08:26Z</time></trkpt><trkpt lat="42.45290513610495" lon="13.924188487836537"><ele>375.0</ele><time>2026-03-29T10:08:27Z</time></trkpt><trkpt lat="42.452981139156265" lon="13.924279464251056"><ele>375.0</ele><time>2026-03-29T10:08:28Z</time></trkpt><trkpt lat="42.453052317970624" lon="13.924367536865741"><ele>375.0</ele><time>2026-03-29T10:08:29Z</time></trkpt><trkpt lat="42.453121194107894" lon="13.924469210679225"><ele>377.6</ele><time>2026-03-29T10:08:30Z</time></trkpt><trkpt lat="42.45319011054488" lon="13.924572811070298"><ele>380.2</ele><time>2026-03-29T10:08:31Z</time></trkpt><trkpt lat="42.45326742581475" lon="13.92467406528917"><ele>382.79999999999995</ele><time>2026-03-29T10:08:32Z</time></trkpt><trkpt lat="42.45335367636256" lon="13.924773660820883"><ele>385.4</ele><time>2026-03-29T10:08:33Z</time></trkpt><trkpt lat="42.45342376147933" lon="13.924856992858984"><ele>388.0</ele><time>2026-03-29T10:08:34Z</time></trkpt><trkpt lat="42.453490695395296" lon="13.924953995055223"><ele>388.0</ele><time>2026-03-29T10:08:35Z</time></trkpt><trkpt lat="42.453550290157395" lon="13.925060123267496"><ele>388.0</ele><time>2026-03-29T10:08:36Z</time></trkpt><trkpt lat="42.45361005188072" lon="13.925126634690107"><ele>388.0</ele><time>2026-03-29T10:08:37Z</time></trkpt><trkpt lat="42.45367720770056" lon="13.92521927160201"><ele>388.0</ele><time>2026-03-29T10:08:39Z</time></trkpt><trkpt lat="42.4536253129431" lon="13.925355336639777"><ele>388.0</ele><time>2026-03-29T10:08:40Z</time></trkpt><trkpt lat="42.45364459347392" lon="13.925460149760788"><ele>387.5</ele><time>2026-03-29T10:08:41Z</time></trkpt><trkpt lat="42.45366407937736" lon="13.925596611890223"><ele>387.0</ele><time>2026-03-29T10:08:41.999Z</time></trkpt><trkpt lat="42.45367982534423" lon="13.925763682593496"><ele>386.5</ele><time>2026-03-29T10:08:42.999Z</time></trkpt><trkpt lat="42.453707844449106" lon="13.92593190578607"><ele>386.0</ele><time>2026-03-29T10:08:43.999Z</time></trkpt><trkpt lat="42.45374528432924" lon="13.926104378039366"><ele>390.75</ele><time>2026-03-29T10:08:44.999Z</time></trkpt><trkpt lat="42.45379171098747" lon="13.926258013483675"><ele>395.5</ele><time>2026-03-29T10:08:45.999Z</time></trkpt><trkpt lat="42.45384987985974" lon="13.926409125404144"><ele>400.25</ele><time>2026-03-29T10:08:46.999Z</time></trkpt><trkpt lat="42.45391880861478" lon="13.926552106958583"><ele>405.0</ele><time>2026-03-29T10:08:47.999Z</time></trkpt><trkpt lat="42.45398899535701" lon="13.926678111729219"><ele>402.8</ele><time>2026-03-29T10:08:48.999Z</time></trkpt><trkpt lat="42.45406221813785" lon="13.9267893960392"><ele>400.6</ele><time>2026-03-29T10:08:49.999Z</time></trkpt><trkpt lat="42.454136162223854" lon="13.926892166041954"><ele>398.4</ele><time>2026-03-29T10:08:50.999Z</time></trkpt><trkpt lat="42.454221331674525" lon="13.926987680709525"><ele>396.2</ele><time>2026-03-29T10:08:51.999Z</time></trkpt><trkpt lat="42.45431523439568" lon="13.927086647681671"><ele>394.0</ele><time>2026-03-29T10:08:52.999Z</time></trkpt><trkpt lat="42.45440516323018" lon="13.927194976000852"><ele>394.0</ele><time>2026-03-29T10:08:53.999Z</time></trkpt><trkpt lat="42.45447336977623" lon="13.927327583598286"><ele>394.0</ele><time>2026-03-29T10:08:54.999Z</time></trkpt><trkpt lat="42.454518608377036" lon="13.92747570789844"><ele>394.0</ele><time>2026-03-29T10:08:55.999Z</time></trkpt><trkpt lat="42.4545520286473" lon="13.927619927672527"><ele>394.0</ele><time>2026-03-29T10:08:56.999Z</time></trkpt><trkpt lat="42.45457618145868" lon="13.92776314978284"><ele>393.6</ele><time>2026-03-29T10:08:57.999Z</time></trkpt><trkpt lat="42.454599783424634" lon="13.927906813899138"><ele>393.2</ele><time>2026-03-29T10:08:58.999Z</time></trkpt><trkpt lat="42.45462401099411" lon="13.928042873762266"><ele>392.8</ele><time>2026-03-29T10:08:59.999Z</time></trkpt><trkpt lat="42.454650324750865" lon="13.928170619582763"><ele>392.40000000000003</ele><time>2026-03-29T10:09:00.999Z</time></trkpt><trkpt lat="42.454680692774254" lon="13.92830719082193"><ele>392.0</ele><time>2026-03-29T10:09:01.999Z</time></trkpt><trkpt lat="42.45472700472397" lon="13.928464192484396"><ele>392.0</ele><time>2026-03-29T10:09:02.999Z</time></trkpt><trkpt lat="42.4548004328021" lon="13.928609090978771"><ele>392.0</ele><time>2026-03-29T10:09:03.999Z</time></trkpt><trkpt lat="42.454901136130715" lon="13.928744949783907"><ele>392.0</ele><time>2026-03-29T10:09:04.999Z</time></trkpt><trkpt lat="42.45501356953678" lon="13.92885460623743"><ele>392.0</ele><time>2026-03-29T10:09:05.999Z</time></trkpt><trkpt lat="42.45511800018067" lon="13.928947023644012"><ele>392.0</ele><time>2026-03-29T10:09:06.999Z</time></trkpt><trkpt lat="42.45521643540059" lon="13.929036276330988"><ele>392.0</ele><time>2026-03-29T10:09:07.999Z</time></trkpt><trkpt lat="42.45531036425416" lon="13.929120753513557"><ele>392.0</ele><time>2026-03-29T10:09:08.999Z</time></trkpt><trkpt lat="42.45540061302968" lon="13.929208449218246"><ele>392.0</ele><time>2026-03-29T10:09:09.999Z</time></trkpt><trkpt lat="42.4554714684171" lon="13.929312380667708"><ele>392.0</ele><time>2026-03-29T10:09:10.999Z</time></trkpt><trkpt lat="42.455548534999295" lon="13.929448081121636"><ele>393.6</ele><time>2026-03-29T10:09:11.999Z</time></trkpt><trkpt lat="42.45561132828253" lon="13.929573289456211"><ele>395.20000000000005</ele><time>2026-03-29T10:09:12.999Z</time></trkpt><trkpt lat="42.455664764334855" lon="13.929691514296021"><ele>396.8</ele><time>2026-03-29T10:09:13.999Z</time></trkpt><trkpt lat="42.45571392709016" lon="13.929800808623456"><ele>398.4</ele><time>2026-03-29T10:09:14.999Z</time></trkpt><trkpt lat="42.45575915735063" lon="13.929916124157264"><ele>400.0</ele><time>2026-03-29T10:09:15.999Z</time></trkpt><trkpt lat="42.455802379242435" lon="13.930027154570073"><ele>399.33333333333337</ele><time>2026-03-29T10:09:16.999Z</time></trkpt><trkpt lat="42.455839703537166" lon="13.930122523261195"><ele>398.6666666666667</ele><time>2026-03-29T10:09:17.999Z</time></trkpt><trkpt lat="42.45586904513193" lon="13.93021216064816"><ele>398.0</ele><time>2026-03-29T10:09:18.999Z</time></trkpt><trkpt lat="42.45588976683299" lon="13.930306879786677"><ele>397.33333333333337</ele><time>2026-03-29T10:09:19.999Z</time></trkpt><trkpt lat="42.45589793934053" lon="13.930419524712304"><ele>396.6666666666667</ele><time>2026-03-29T10:09:20.999Z</time></trkpt><trkpt lat="42.45589336590618" lon="13.930533189120455"><ele>396.0</ele><time>2026-03-29T10:09:21.999Z</time></trkpt><trkpt lat="42.455874395147205" lon="13.930650092315155"><ele>396.0</ele><time>2026-03-29T10:09:22.999Z</time></trkpt><trkpt lat="42.45584443328186" lon="13.930752970191815"><ele>396.0</ele><time>2026-03-29T10:09:23.999Z</time></trkpt><trkpt lat="42.45582414305499" lon="13.930838041842403"><ele>396.0</ele><time>2026-03-29T10:09:24.999Z</time></trkpt><trkpt lat="42.45576754493613" lon="13.930974977633506"><ele>396.0</ele><time>2026-03-29T10:09:25.999Z</time></trkpt><trkpt lat="42.45572701411138" lon="13.931092232209338"><ele>396.0</ele><time>2026-03-29T10:09:26.999Z</time></trkpt><trkpt lat="42.455682839684926" lon="13.931234183348279"><ele>396.0</ele><time>2026-03-29T10:09:27.999Z</time></trkpt><trkpt lat="42.45564115653858" lon="13.93136875758762"><ele>396.0</ele><time>2026-03-29T10:09:28.999Z</time></trkpt><trkpt lat="42.45560485507924" lon="13.931496942375011"><ele>396.0</ele><time>2026-03-29T10:09:29.999Z</time></trkpt><trkpt lat="42.45556996504345" lon="13.931615923434263"><ele>396.0</ele><time>2026-03-29T10:09:30.999Z</time></trkpt><trkpt lat="42.45553598645354" lon="13.931724250033518"><ele>396.0</ele><time>2026-03-29T10:09:31.999Z</time></trkpt><trkpt lat="42.45549739113763" lon="13.931833423245394"><ele>395.4</ele><time>2026-03-29T10:09:32.999Z</time></trkpt><trkpt lat="42.455463341001504" lon="13.931931385881677"><ele>394.8</ele><time>2026-03-29T10:09:33.999Z</time></trkpt><trkpt lat="42.455436622737" lon="13.932037673019547"><ele>394.2</ele><time>2026-03-29T10:09:34.999Z</time></trkpt><trkpt lat="42.4554018629154" lon="13.932158649461064"><ele>393.59999999999997</ele><time>2026-03-29T10:09:35.999Z</time></trkpt><trkpt lat="42.45536411283935" lon="13.932292725154053"><ele>393.0</ele><time>2026-03-29T10:09:36.999Z</time></trkpt><trkpt lat="42.45532152306506" lon="13.932432218146596"><ele>394.0</ele><time>2026-03-29T10:09:37.998Z</time></trkpt><trkpt lat="42.45528061903674" lon="13.932571227843251"><ele>395.0</ele><time>2026-03-29T10:09:38.998Z</time></trkpt><trkpt lat="42.45524280424387" lon="13.932688139054324"><ele>396.0</ele><time>2026-03-29T10:09:39.998Z</time></trkpt><trkpt lat="42.45520901138647" lon="13.932791558309555"><ele>397.0</ele><time>2026-03-29T10:09:40.998Z</time></trkpt><trkpt lat="42.45517606339484" lon="13.93289384018358"><ele>398.0</ele><time>2026-03-29T10:09:41.998Z</time></trkpt><trkpt lat="42.455143963597024" lon="13.932998428342477"><ele>397.99999999999994</ele><time>2026-03-29T10:09:42.998Z</time></trkpt><trkpt lat="42.45511043881104" lon="13.933109994328099"><ele>398.0</ele><time>2026-03-29T10:09:43.998Z</time></trkpt><trkpt lat="42.45507536185393" lon="13.933223348169818"><ele>398.0</ele><time>2026-03-29T10:09:44.998Z</time></trkpt><trkpt lat="42.45504940037026" lon="13.933314354834666"><ele>398.0</ele><time>2026-03-29T10:09:45.998Z</time></trkpt><trkpt lat="42.45502481121425" lon="13.933393733046776"><ele>397.99999999999994</ele><time>2026-03-29T10:09:46.998Z</time></trkpt><trkpt lat="42.45498269393386" lon="13.93352513058975"><ele>398.0</ele><time>2026-03-29T10:09:48.998Z</time></trkpt><trkpt lat="42.454950477039226" lon="13.933637971276019"><ele>398.49999999999994</ele><time>2026-03-29T10:09:50.998Z</time></trkpt><trkpt lat="42.45492207320395" lon="13.933724570939098"><ele>399.0</ele><time>2026-03-29T10:09:52.998Z</time></trkpt><trkpt lat="42.45489886894809" lon="13.933829683023868"><ele>399.5</ele><time>2026-03-29T10:10:00.998Z</time></trkpt><trkpt lat="42.454862651491275" lon="13.933925448694447"><ele>400.0</ele><time>2026-03-29T10:10:01.998Z</time></trkpt><trkpt lat="42.454835981911835" lon="13.934040795053654"><ele>400.49999999999994</ele><time>2026-03-29T10:10:03.998Z</time></trkpt><trkpt lat="42.454795916029944" lon="13.934170841909225"><ele>401.0</ele><time>2026-03-29T10:10:05.998Z</time></trkpt><trkpt lat="42.454761895289074" lon="13.93427798086516"><ele>400.99999999999994</ele><time>2026-03-29T10:10:07.998Z</time></trkpt><trkpt lat="42.454733515659974" lon="13.934361793686506"><ele>401.0</ele><time>2026-03-29T10:10:08.998Z</time></trkpt><trkpt lat="42.454707436332754" lon="13.934446521589178"><ele>401.0</ele><time>2026-03-29T10:10:09.998Z</time></trkpt><trkpt lat="42.45466105639078" lon="13.934587125214836"><ele>401.0</ele><time>2026-03-29T10:10:11.998Z</time></trkpt><trkpt lat="42.45463158118095" lon="13.934672858196462"><ele>400.99999999999994</ele><time>2026-03-29T10:10:12.998Z</time></trkpt><trkpt lat="42.45460346647198" lon="13.934779519401262"><ele>401.0</ele><time>2026-03-29T10:10:13.998Z</time></trkpt><trkpt lat="42.454574147196084" lon="13.934880165153794"><ele>400.8</ele><time>2026-03-29T10:10:14.998Z</time></trkpt><trkpt lat="42.45453795658663" lon="13.934992361591194"><ele>400.6</ele><time>2026-03-29T10:10:16Z</time></trkpt><trkpt lat="42.454500878542625" lon="13.935107438313906"><ele>400.4</ele><time>2026-03-29T10:10:17Z</time></trkpt><trkpt lat="42.45445734979072" lon="13.935239747215121"><ele>400.2</ele><time>2026-03-29T10:10:18Z</time></trkpt><trkpt lat="42.45441969616201" lon="13.9353555604987"><ele>400.0</ele><time>2026-03-29T10:10:19Z</time></trkpt><trkpt lat="42.45437983837842" lon="13.935455599473153"><ele>400.00000000000006</ele><time>2026-03-29T10:10:20Z</time></trkpt><trkpt lat="42.45433164876672" lon="13.935546065979311"><ele>400.0</ele><time>2026-03-29T10:10:21Z</time></trkpt><trkpt lat="42.45427524268065" lon="13.93562756204997"><ele>400.0</ele><time>2026-03-29T10:10:22Z</time></trkpt><trkpt lat="42.45421615859644" lon="13.935701464272745"><ele>400.0</ele><time>2026-03-29T10:10:23Z</time></trkpt><trkpt lat="42.45415281284111" lon="13.935765987085789"><ele>400.00000000000006</ele><time>2026-03-29T10:10:24Z</time></trkpt><trkpt lat="42.45408670265859" lon="13.935813172332804"><ele>400.0</ele><time>2026-03-29T10:10:25Z</time></trkpt><trkpt lat="42.45403974725195" lon="13.935873282014063"><ele>399.4</ele><time>2026-03-29T10:10:26Z</time></trkpt><trkpt lat="42.454022420404975" lon="13.93597332021124"><ele>398.8</ele><time>2026-03-29T10:10:27Z</time></trkpt><trkpt lat="42.454028570109294" lon="13.936111639362087"><ele>398.20000000000005</ele><time>2026-03-29T10:10:28Z</time></trkpt><trkpt lat="42.45402797532855" lon="13.936284142314806"><ele>397.6</ele><time>2026-03-29T10:10:29Z</time></trkpt><trkpt lat="42.454014425503786" lon="13.936466042856834"><ele>397.0</ele><time>2026-03-29T10:10:30Z</time></trkpt><trkpt lat="42.45400575898717" lon="13.936644690560179"><ele>394.5</ele><time>2026-03-29T10:10:31Z</time></trkpt><trkpt lat="42.45400321703426" lon="13.93681350895388"><ele>392.0</ele><time>2026-03-29T10:10:32Z</time></trkpt><trkpt lat="42.45400122184674" lon="13.93697949026773"><ele>389.5</ele><time>2026-03-29T10:10:33Z</time></trkpt><trkpt lat="42.453998063329415" lon="13.937153097167933"><ele>387.0</ele><time>2026-03-29T10:10:34Z</time></trkpt><trkpt lat="42.45399905993568" lon="13.937324875960538"><ele>387.0</ele><time>2026-03-29T10:10:35Z</time></trkpt><trkpt lat="42.45400022771925" lon="13.937499252124816"><ele>387.0</ele><time>2026-03-29T10:10:36Z</time></trkpt><trkpt lat="42.45399919336644" lon="13.937669626062805"><ele>387.0</ele><time>2026-03-29T10:10:37Z</time></trkpt><trkpt lat="42.45400177957466" lon="13.93783343570744"><ele>387.0</ele><time>2026-03-29T10:10:38Z</time></trkpt><trkpt lat="42.454003521238825" lon="13.937994977532218"><ele>385.25</ele><time>2026-03-29T10:10:39Z</time></trkpt><trkpt lat="42.45400378478816" lon="13.938159371764321"><ele>383.5</ele><time>2026-03-29T10:10:40Z</time></trkpt><trkpt lat="42.454004214468796" lon="13.938307869137788"><ele>381.75</ele><time>2026-03-29T10:10:41Z</time></trkpt><trkpt lat="42.45399811957658" lon="13.938463476156317"><ele>380.0</ele><time>2026-03-29T10:10:42Z</time></trkpt><trkpt lat="42.45399669549934" lon="13.938632542690701"><ele>379.25</ele><time>2026-03-29T10:10:43Z</time></trkpt><trkpt lat="42.45400619931765" lon="13.938814495844834"><ele>378.5</ele><time>2026-03-29T10:10:44Z</time></trkpt><trkpt lat="42.45402147099186" lon="13.93900532349202"><ele>377.75</ele><time>2026-03-29T10:10:45Z</time></trkpt><trkpt lat="42.45404367140146" lon="13.939197224020848"><ele>377.0</ele><time>2026-03-29T10:10:46Z</time></trkpt><trkpt lat="42.45407670684904" lon="13.939385089095945"><ele>377.0</ele><time>2026-03-29T10:10:47Z</time></trkpt><trkpt lat="42.45411220898784" lon="13.939584166551274"><ele>377.0</ele><time>2026-03-29T10:10:48Z</time></trkpt><trkpt lat="42.454155136716615" lon="13.939776186325721"><ele>377.0</ele><time>2026-03-29T10:10:49Z</time></trkpt><trkpt lat="42.45419191928289" lon="13.939974907049914"><ele>377.0</ele><time>2026-03-29T10:10:50Z</time></trkpt><trkpt lat="42.45423349933536" lon="13.940177942486658"><ele>377.0</ele><time>2026-03-29T10:10:51Z</time></trkpt><trkpt lat="42.45428367038867" lon="13.940384305407177"><ele>377.0</ele><time>2026-03-29T10:10:51.999Z</time></trkpt><trkpt lat="42.45433796989239" lon="13.940590152966381"><ele>377.0</ele><time>2026-03-29T10:10:52.999Z</time></trkpt><trkpt lat="42.45439390375151" lon="13.940788605716422"><ele>377.0</ele><time>2026-03-29T10:10:53.999Z</time></trkpt><trkpt lat="42.45445155908827" lon="13.940985040875214"><ele>377.0</ele><time>2026-03-29T10:10:54.999Z</time></trkpt><trkpt lat="42.45450548151693" lon="13.941182327631957"><ele>376.0</ele><time>2026-03-29T10:10:55.999Z</time></trkpt><trkpt lat="42.454561692332874" lon="13.941368545864702"><ele>375.0</ele><time>2026-03-29T10:10:56.999Z</time></trkpt><trkpt lat="42.454601931626044" lon="13.94154784109928"><ele>374.0</ele><time>2026-03-29T10:10:57.999Z</time></trkpt><trkpt lat="42.45462421235191" lon="13.941716226138945"><ele>373.0</ele><time>2026-03-29T10:10:58.999Z</time></trkpt><trkpt lat="42.45461601448912" lon="13.941888823371267"><ele>370.75</ele><time>2026-03-29T10:10:59.999Z</time></trkpt><trkpt lat="42.454578202716" lon="13.942060848252657"><ele>368.5</ele><time>2026-03-29T10:11:00.999Z</time></trkpt><trkpt lat="42.45451363594128" lon="13.94223802771412"><ele>366.25</ele><time>2026-03-29T10:11:01.999Z</time></trkpt><trkpt lat="42.45442467597748" lon="13.942426011590602"><ele>364.0</ele><time>2026-03-29T10:11:02.999Z</time></trkpt><trkpt lat="42.454338881912534" lon="13.942622049751856"><ele>360.5</ele><time>2026-03-29T10:11:03.999Z</time></trkpt><trkpt lat="42.45426270783254" lon="13.942802478967312"><ele>357.0</ele><time>2026-03-29T10:11:04.999Z</time></trkpt><trkpt lat="42.45420090795383" lon="13.942950069466118"><ele>353.5</ele><time>2026-03-29T10:11:05.999Z</time></trkpt><trkpt lat="42.45415186395371" lon="13.943062047473408"><ele>350.0</ele><time>2026-03-29T10:11:06.999Z</time></trkpt><trkpt lat="42.454107541685346" lon="13.94316362528729"><ele>350.0</ele><time>2026-03-29T10:11:07.999Z</time></trkpt><trkpt lat="42.45406824067159" lon="13.943257115748976"><ele>350.0</ele><time>2026-03-29T10:11:08.999Z</time></trkpt><trkpt lat="42.45402886844878" lon="13.94336110033207"><ele>350.0</ele><time>2026-03-29T10:11:09.999Z</time></trkpt><trkpt lat="42.45397940924019" lon="13.943499813726211"><ele>350.0</ele><time>2026-03-29T10:11:10.999Z</time></trkpt><trkpt lat="42.45391074904101" lon="13.94367777049215"><ele>350.0</ele><time>2026-03-29T10:11:11.999Z</time></trkpt><trkpt lat="42.45381654463389" lon="13.943866060270844"><ele>349.6666666666667</ele><time>2026-03-29T10:11:12.999Z</time></trkpt><trkpt lat="42.45374545355505" lon="13.944071482558344"><ele>349.3333333333333</ele><time>2026-03-29T10:11:13.999Z</time></trkpt><trkpt lat="42.453673117269766" lon="13.944276448989879"><ele>349.0</ele><time>2026-03-29T10:11:14.999Z</time></trkpt><trkpt lat="42.453628060206555" lon="13.944497418061227"><ele>349.3333333333333</ele><time>2026-03-29T10:11:15.999Z</time></trkpt><trkpt lat="42.45361675009434" lon="13.944724938600029"><ele>349.6666666666667</ele><time>2026-03-29T10:11:16.999Z</time></trkpt><trkpt lat="42.453635380672345" lon="13.944959009710196"><ele>350.0</ele><time>2026-03-29T10:11:17.999Z</time></trkpt><trkpt lat="42.453662753938545" lon="13.945171957506162"><ele>350.0</ele><time>2026-03-29T10:11:18.999Z</time></trkpt><trkpt lat="42.453665775428746" lon="13.945369391835502"><ele>350.0</ele><time>2026-03-29T10:11:19.999Z</time></trkpt><trkpt lat="42.45362973588321" lon="13.945570830864614"><ele>350.0</ele><time>2026-03-29T10:11:20.999Z</time></trkpt><trkpt lat="42.45355996299751" lon="13.945779378371286"><ele>350.0</ele><time>2026-03-29T10:11:21.999Z</time></trkpt><trkpt lat="42.453477576753684" lon="13.945991883255521"><ele>350.0</ele><time>2026-03-29T10:11:22.999Z</time></trkpt><trkpt lat="42.45338590695318" lon="13.94620657689288"><ele>350.0</ele><time>2026-03-29T10:11:23.999Z</time></trkpt><trkpt lat="42.45329075393155" lon="13.946423874718125"><ele>350.0</ele><time>2026-03-29T10:11:24.999Z</time></trkpt><trkpt lat="42.45319071232599" lon="13.94664397028904"><ele>350.0</ele><time>2026-03-29T10:11:25.999Z</time></trkpt><trkpt lat="42.45308458563223" lon="13.946876691917154"><ele>350.0</ele><time>2026-03-29T10:11:26.999Z</time></trkpt><trkpt lat="42.4529791076335" lon="13.947119011932838"><ele>349.6666666666667</ele><time>2026-03-29T10:11:27.999Z</time></trkpt><trkpt lat="42.45288038028452" lon="13.94735236330964"><ele>349.3333333333333</ele><time>2026-03-29T10:11:28.999Z</time></trkpt><trkpt lat="42.4527847929886" lon="13.94757140163983"><ele>349.0</ele><time>2026-03-29T10:11:29.999Z</time></trkpt><trkpt lat="42.45269984056818" lon="13.947772628788151"><ele>349.0</ele><time>2026-03-29T10:11:30.999Z</time></trkpt><trkpt lat="42.45261878373436" lon="13.94796489701346"><ele>349.0</ele><time>2026-03-29T10:11:31.999Z</time></trkpt><trkpt lat="42.45253840174037" lon="13.948143544401205"><ele>349.0</ele><time>2026-03-29T10:11:32.999Z</time></trkpt><trkpt lat="42.45244987355651" lon="13.94829954278236"><ele>350.0</ele><time>2026-03-29T10:11:33.999Z</time></trkpt><trkpt lat="42.45233651553036" lon="13.948455106148288"><ele>351.0</ele><time>2026-03-29T10:11:34.999Z</time></trkpt><trkpt lat="42.45219523557004" lon="13.948618664023112"><ele>352.0</ele><time>2026-03-29T10:11:35.999Z</time></trkpt><trkpt lat="42.45205038986717" lon="13.948787185196734"><ele>352.0</ele><time>2026-03-29T10:11:36.999Z</time></trkpt><trkpt lat="42.451914165900625" lon="13.948955869966895"><ele>352.0</ele><time>2026-03-29T10:11:37.999Z</time></trkpt><trkpt lat="42.45178505238554" lon="13.949112016390847"><ele>352.0</ele><time>2026-03-29T10:11:38.999Z</time></trkpt><trkpt lat="42.45164481085007" lon="13.94924525694351"><ele>348.0</ele><time>2026-03-29T10:11:39.999Z</time></trkpt><trkpt lat="42.451492769859854" lon="13.949354237581456"><ele>344.0</ele><time>2026-03-29T10:11:40.999Z</time></trkpt><trkpt lat="42.45132907215362" lon="13.949448566148128"><ele>340.0</ele><time>2026-03-29T10:11:41.999Z</time></trkpt><trkpt lat="42.451146722400374" lon="13.94952176506906"><ele>340.0</ele><time>2026-03-29T10:11:42.999Z</time></trkpt><trkpt lat="42.45093837421299" lon="13.949558378946676"><ele>340.0</ele><time>2026-03-29T10:11:43.999Z</time></trkpt><trkpt lat="42.45072828903179" lon="13.949640652900431"><ele>340.0</ele><time>2026-03-29T10:11:44.999Z</time></trkpt><trkpt lat="42.45051427962299" lon="13.949709008121346"><ele>342.3333333333333</ele><time>2026-03-29T10:11:45.999Z</time></trkpt><trkpt lat="42.45031673414348" lon="13.949787124139345"><ele>344.6666666666667</ele><time>2026-03-29T10:11:46.999Z</time></trkpt><trkpt lat="42.45013322151648" lon="13.949875996757138"><ele>347.0</ele><time>2026-03-29T10:11:47.999Z</time></trkpt><trkpt lat="42.449955128303664" lon="13.949989813513286"><ele>347.33333333333337</ele><time>2026-03-29T10:11:48.998Z</time></trkpt><trkpt lat="42.44978852224304" lon="13.950118001760758"><ele>347.6666666666667</ele><time>2026-03-29T10:11:49.998Z</time></trkpt><trkpt lat="42.44964518082696" lon="13.950227276652418"><ele>348.0</ele><time>2026-03-29T10:11:50.998Z</time></trkpt><trkpt lat="42.44951292907625" lon="13.950358652837012"><ele>348.0</ele><time>2026-03-29T10:11:51.998Z</time></trkpt><trkpt lat="42.44938474331572" lon="13.950540629000487"><ele>348.0</ele><time>2026-03-29T10:11:52.998Z</time></trkpt><trkpt lat="42.44925651817693" lon="13.950741065984454"><ele>348.0</ele><time>2026-03-29T10:11:53.998Z</time></trkpt><trkpt lat="42.449143427477615" lon="13.950917192374018"><ele>347.25</ele><time>2026-03-29T10:11:54.998Z</time></trkpt><trkpt lat="42.44904041194563" lon="13.951070211614573"><ele>346.5</ele><time>2026-03-29T10:11:55.998Z</time></trkpt><trkpt lat="42.44894811086663" lon="13.951201296478068"><ele>345.75</ele><time>2026-03-29T10:11:56.998Z</time></trkpt><trkpt lat="42.44885497847694" lon="13.951327636765683"><ele>345.0</ele><time>2026-03-29T10:11:57.998Z</time></trkpt><trkpt lat="42.44875580190871" lon="13.951454044460105"><ele>345.0</ele><time>2026-03-29T10:11:58.998Z</time></trkpt><trkpt lat="42.4486516473902" lon="13.951569900936464"><ele>345.0</ele><time>2026-03-29T10:11:59.998Z</time></trkpt><trkpt lat="42.4485398989057" lon="13.95167678141176"><ele>345.0</ele><time>2026-03-29T10:12:00.998Z</time></trkpt><trkpt lat="42.448429787125406" lon="13.951785560243762"><ele>345.0</ele><time>2026-03-29T10:12:01.998Z</time></trkpt><trkpt lat="42.448324663337" lon="13.951895269591866"><ele>344.2</ele><time>2026-03-29T10:12:02.998Z</time></trkpt><trkpt lat="42.44822161850479" lon="13.951999522810153"><ele>343.4</ele><time>2026-03-29T10:12:03.998Z</time></trkpt><trkpt lat="42.44813419326197" lon="13.952085688809591"><ele>342.6</ele><time>2026-03-29T10:12:04.998Z</time></trkpt><trkpt lat="42.4480609879181" lon="13.952158424301372"><ele>341.8</ele><time>2026-03-29T10:12:05.998Z</time></trkpt><trkpt lat="42.44797081428021" lon="13.952215584566495"><ele>341.0</ele><time>2026-03-29T10:12:07.998Z</time></trkpt><trkpt lat="42.44800870927965" lon="13.95211329367668"><ele>341.0</ele><time>2026-03-29T10:12:19.998Z</time></trkpt><trkpt lat="42.4480236808449" lon="13.95200893974131"><ele>341.0</ele><time>2026-03-29T10:12:20.998Z</time></trkpt><trkpt lat="42.44804036290824" lon="13.951899332007125"><ele>341.0</ele><time>2026-03-29T10:12:22Z</time></trkpt><trkpt lat="42.448069727216584" lon="13.951751452796774"><ele>341.0</ele><time>2026-03-29T10:12:23Z</time></trkpt><trkpt lat="42.448121590542506" lon="13.951553092184101"><ele>341.0</ele><time>2026-03-29T10:12:24Z</time></trkpt><trkpt lat="42.448190035563485" lon="13.951365055537991"><ele>342.0</ele><time>2026-03-29T10:12:25Z</time></trkpt><trkpt lat="42.44832989318253" lon="13.951099152592361"><ele>343.0</ele><time>2026-03-29T10:12:26Z</time></trkpt><trkpt lat="42.448392212264565" lon="13.95101105613067"><ele>344.0</ele><time>2026-03-29T10:12:27Z</time></trkpt><trkpt lat="42.44845565424027" lon="13.95090425954476"><ele>345.0</ele><time>2026-03-29T10:12:28Z</time></trkpt><trkpt lat="42.44849392342755" lon="13.950808692392341"><ele>345.25</ele><time>2026-03-29T10:12:29Z</time></trkpt><trkpt lat="42.448599685755944" lon="13.950647600583768"><ele>345.5</ele><time>2026-03-29T10:12:30Z</time></trkpt><trkpt lat="42.44861655819976" lon="13.950488595496665"><ele>345.75</ele><time>2026-03-29T10:12:31Z</time></trkpt><trkpt lat="42.448714463178256" lon="13.950353567689458"><ele>346.0</ele><time>2026-03-29T10:12:32Z</time></trkpt><trkpt lat="42.449466313347926" lon="13.950483763864819"><ele>346.5</ele><time>2026-03-29T10:12:34Z</time></trkpt><trkpt lat="42.44955823208479" lon="13.95035749162538"><ele>347.0</ele><time>2026-03-29T10:12:35Z</time></trkpt><trkpt lat="42.44965581262999" lon="13.950249634762477"><ele>347.5</ele><time>2026-03-29T10:12:36Z</time></trkpt><trkpt lat="42.44976356357671" lon="13.950150735441968"><ele>348.0</ele><time>2026-03-29T10:12:37Z</time></trkpt><trkpt lat="42.449888844804335" lon="13.950056365052548"><ele>347.6666666666667</ele><time>2026-03-29T10:12:38Z</time></trkpt><trkpt lat="42.45002942460798" lon="13.949965767144999"><ele>347.33333333333337</ele><time>2026-03-29T10:12:39Z</time></trkpt><trkpt lat="42.45017974750695" lon="13.949874609180924"><ele>347.0</ele><time>2026-03-29T10:12:40Z</time></trkpt><trkpt lat="42.45034457681245" lon="13.949791268958966"><ele>344.6666666666667</ele><time>2026-03-29T10:12:41Z</time></trkpt><trkpt lat="42.45052102690027" lon="13.949722788513533"><ele>342.3333333333333</ele><time>2026-03-29T10:12:42Z</time></trkpt><trkpt lat="42.450690246540454" lon="13.949673077880348"><ele>340.0</ele><time>2026-03-29T10:12:43Z</time></trkpt><trkpt lat="42.450863088561114" lon="13.949619395923282"><ele>340.0</ele><time>2026-03-29T10:12:44Z</time></trkpt><trkpt lat="42.45104028408119" lon="13.949564315336175"><ele>340.0</ele><time>2026-03-29T10:12:45Z</time></trkpt><trkpt lat="42.45120186280314" lon="13.949515948956828"><ele>340.0</ele><time>2026-03-29T10:12:46Z</time></trkpt><trkpt lat="42.451355858616274" lon="13.949451141037368"><ele>338.0</ele><time>2026-03-29T10:12:47Z</time></trkpt><trkpt lat="42.45149253424453" lon="13.949369016010742"><ele>336.0</ele><time>2026-03-29T10:12:48Z</time></trkpt><trkpt lat="42.45162397587508" lon="13.949270136361958"><ele>334.0</ele><time>2026-03-29T10:12:49Z</time></trkpt><trkpt lat="42.45176111769465" lon="13.949156904648895"><ele>334.3333333333333</ele><time>2026-03-29T10:12:50Z</time></trkpt><trkpt lat="42.451890919303175" lon="13.949014867514576"><ele>334.6666666666667</ele><time>2026-03-29T10:12:51Z</time></trkpt><trkpt lat="42.45202440967615" lon="13.948849434426176"><ele>335.0</ele><time>2026-03-29T10:12:52Z</time></trkpt><trkpt lat="42.45215591658971" lon="13.948688093620051"><ele>335.0</ele><time>2026-03-29T10:12:53Z</time></trkpt><trkpt lat="42.452279168954306" lon="13.94854016386646"><ele>335.0</ele><time>2026-03-29T10:12:54Z</time></trkpt><trkpt lat="42.45239366691815" lon="13.948396792862457"><ele>335.0</ele><time>2026-03-29T10:12:55Z</time></trkpt><trkpt lat="42.4524941830553" lon="13.948253268878778"><ele>338.5</ele><time>2026-03-29T10:12:56Z</time></trkpt><trkpt lat="42.452575125979656" lon="13.948110642707487"><ele>342.0</ele><time>2026-03-29T10:12:57Z</time></trkpt><trkpt lat="42.45265091462344" lon="13.947977657038368"><ele>345.5</ele><time>2026-03-29T10:12:58Z</time></trkpt><trkpt lat="42.45272797785646" lon="13.947777053612256"><ele>349.0</ele><time>2026-03-29T10:12:59Z</time></trkpt><trkpt lat="42.452779385386314" lon="13.94767496708957"><ele>349.0</ele><time>2026-03-29T10:13:00Z</time></trkpt><trkpt lat="42.45281731985796" lon="13.947545520268807"><ele>349.0</ele><time>2026-03-29T10:13:01.999Z</time></trkpt><trkpt lat="42.45283788996442" lon="13.947655156058886"><ele>349.0</ele><time>2026-03-29T10:13:04.999Z</time></trkpt><trkpt lat="42.45282595261188" lon="13.947751303053971"><ele>349.0</ele><time>2026-03-29T10:13:05.999Z</time></trkpt><trkpt lat="42.45277275697779" lon="13.947860854947397"><ele>349.0</ele><time>2026-03-29T10:13:06.999Z</time></trkpt><trkpt lat="42.45272391052963" lon="13.947981630227961"><ele>349.0</ele><time>2026-03-29T10:13:07.999Z</time></trkpt><trkpt lat="42.45266937952473" lon="13.948114505509285"><ele>349.0</ele><time>2026-03-29T10:13:08.999Z</time></trkpt><trkpt lat="42.452601488345195" lon="13.948249477354663"><ele>349.0</ele><time>2026-03-29T10:13:09.999Z</time></trkpt><trkpt lat="42.45252712910152" lon="13.948391299862449"><ele>349.0</ele><time>2026-03-29T10:13:10.999Z</time></trkpt><trkpt lat="42.4524400149049" lon="13.948543080180857"><ele>344.3333333333333</ele><time>2026-03-29T10:13:11.999Z</time></trkpt><trkpt lat="42.45234689612968" lon="13.948695316242217"><ele>339.6666666666667</ele><time>2026-03-29T10:13:12.999Z</time></trkpt><trkpt lat="42.45224768787678" lon="13.94886861284667"><ele>335.0</ele><time>2026-03-29T10:13:13.999Z</time></trkpt><trkpt lat="42.45213781314703" lon="13.94905422349759"><ele>334.6666666666667</ele><time>2026-03-29T10:13:14.999Z</time></trkpt><trkpt lat="42.45201354201821" lon="13.94919982375503"><ele>334.3333333333333</ele><time>2026-03-29T10:13:15.999Z</time></trkpt><trkpt lat="42.451880569165475" lon="13.94934535665228"><ele>334.0</ele><time>2026-03-29T10:13:16.999Z</time></trkpt><trkpt lat="42.451729268718296" lon="13.949483650364249"><ele>334.0</ele><time>2026-03-29T10:13:17.999Z</time></trkpt><trkpt lat="42.45156674381533" lon="13.949601544976598"><ele>334.0</ele><time>2026-03-29T10:13:18.999Z</time></trkpt><trkpt lat="42.451385582578126" lon="13.949710926352445"><ele>334.0</ele><time>2026-03-29T10:13:19.999Z</time></trkpt><trkpt lat="42.45118736708791" lon="13.949820976437202"><ele>336.0</ele><time>2026-03-29T10:13:20.999Z</time></trkpt><trkpt lat="42.45099181492414" lon="13.949942588095531"><ele>338.0</ele><time>2026-03-29T10:13:21.999Z</time></trkpt><trkpt lat="42.45081627201471" lon="13.950045660544466"><ele>340.0</ele><time>2026-03-29T10:13:22.999Z</time></trkpt><trkpt lat="42.450650727279786" lon="13.950141273747716"><ele>337.66666666666663</ele><time>2026-03-29T10:13:23.999Z</time></trkpt><trkpt lat="42.450500716697846" lon="13.950230828969877"><ele>335.3333333333333</ele><time>2026-03-29T10:13:24.999Z</time></trkpt><trkpt lat="42.45035633409298" lon="13.950324778168262"><ele>333.0</ele><time>2026-03-29T10:13:25.999Z</time></trkpt><trkpt lat="42.45022090896914" lon="13.950416501694031"><ele>333.0</ele><time>2026-03-29T10:13:26.999Z</time></trkpt><trkpt lat="42.45009259252489" lon="13.950517554860925"><ele>333.0</ele><time>2026-03-29T10:13:27.999Z</time></trkpt><trkpt lat="42.44997247407371" lon="13.950647270942094"><ele>333.0</ele><time>2026-03-29T10:13:28.999Z</time></trkpt><trkpt lat="42.44986713291391" lon="13.950795595331154"><ele>330.5</ele><time>2026-03-29T10:13:29.999Z</time></trkpt><trkpt lat="42.449788676407856" lon="13.950943308183584"><ele>328.0</ele><time>2026-03-29T10:13:30.999Z</time></trkpt><trkpt lat="42.449735377784506" lon="13.951102151271776"><ele>325.5</ele><time>2026-03-29T10:13:31.999Z</time></trkpt><trkpt lat="42.449709325986866" lon="13.951294787912449"><ele>323.0</ele><time>2026-03-29T10:13:32.999Z</time></trkpt><trkpt lat="42.44971358056654" lon="13.95151460651791"><ele>322.33333333333337</ele><time>2026-03-29T10:13:33.999Z</time></trkpt><trkpt lat="42.44974152063807" lon="13.95175221045401"><ele>321.6666666666667</ele><time>2026-03-29T10:13:34.999Z</time></trkpt><trkpt lat="42.44977305572415" lon="13.95197999379274"><ele>321.0</ele><time>2026-03-29T10:13:35.999Z</time></trkpt><trkpt lat="42.44980719999881" lon="13.952190785797917"><ele>321.0</ele><time>2026-03-29T10:13:36.999Z</time></trkpt><trkpt lat="42.449835802153345" lon="13.952396298502665"><ele>321.0</ele><time>2026-03-29T10:13:37.999Z</time></trkpt><trkpt lat="42.44986317399908" lon="13.952587538293288"><ele>321.0</ele><time>2026-03-29T10:13:38.999Z</time></trkpt><trkpt lat="42.449886379114126" lon="13.952771355509297"><ele>321.0</ele><time>2026-03-29T10:13:39.999Z</time></trkpt><trkpt lat="42.44990985863828" lon="13.952966012234826"><ele>321.25</ele><time>2026-03-29T10:13:40.999Z</time></trkpt><trkpt lat="42.44994151542083" lon="13.953155610942371"><ele>321.5</ele><time>2026-03-29T10:13:41.999Z</time></trkpt><trkpt lat="42.449977749631984" lon="13.953345898570326"><ele>321.75</ele><time>2026-03-29T10:13:42.999Z</time></trkpt><trkpt lat="42.450035697111865" lon="13.95354085632183"><ele>322.0</ele><time>2026-03-29T10:13:43.999Z</time></trkpt><trkpt lat="42.450119724599965" lon="13.953725399566567"><ele>321.25</ele><time>2026-03-29T10:13:44.999Z</time></trkpt><trkpt lat="42.450211483274494" lon="13.95389209374653"><ele>320.5</ele><time>2026-03-29T10:13:45.999Z</time></trkpt><trkpt lat="42.4502923449987" lon="13.954060740530963"><ele>319.75</ele><time>2026-03-29T10:13:46.999Z</time></trkpt><trkpt lat="42.45036381007598" lon="13.954230823325412"><ele>319.0</ele><time>2026-03-29T10:13:47.999Z</time></trkpt><trkpt lat="42.45043471789081" lon="13.954396473177455"><ele>318.75</ele><time>2026-03-29T10:13:48.999Z</time></trkpt><trkpt lat="42.450502967470676" lon="13.954558044912009"><ele>318.5</ele><time>2026-03-29T10:13:49.999Z</time></trkpt><trkpt lat="42.450568214677936" lon="13.954713079252713"><ele>318.25</ele><time>2026-03-29T10:13:50.999Z</time></trkpt><trkpt lat="42.450634975316746" lon="13.95488891374286"><ele>318.0</ele><time>2026-03-29T10:13:51.999Z</time></trkpt><trkpt lat="42.45068703161407" lon="13.955072777641881"><ele>317.25</ele><time>2026-03-29T10:13:52.999Z</time></trkpt><trkpt lat="42.450727717742915" lon="13.955248411285009"><ele>316.5</ele><time>2026-03-29T10:13:53.999Z</time></trkpt><trkpt lat="42.45076063999176" lon="13.955418470449125"><ele>315.75</ele><time>2026-03-29T10:13:54.999Z</time></trkpt><trkpt lat="42.450792083317985" lon="13.955588857154858"><ele>315.0</ele><time>2026-03-29T10:13:55.999Z</time></trkpt><trkpt lat="42.450819569752" lon="13.95574470126148"><ele>313.5</ele><time>2026-03-29T10:13:56.999Z</time></trkpt><trkpt lat="42.450863451350635" lon="13.955884891288322"><ele>312.0</ele><time>2026-03-29T10:13:57.999Z</time></trkpt><trkpt lat="42.450933410939825" lon="13.956019551487856"><ele>310.5</ele><time>2026-03-29T10:13:58.999Z</time></trkpt><trkpt lat="42.45101987841854" lon="13.956143677350955"><ele>309.0</ele><time>2026-03-29T10:13:59.998Z</time></trkpt><trkpt lat="42.45110823227762" lon="13.956242539963894"><ele>309.0</ele><time>2026-03-29T10:14:00.998Z</time></trkpt><trkpt lat="42.451199371445576" lon="13.956330764428653"><ele>309.0</ele><time>2026-03-29T10:14:01.998Z</time></trkpt><trkpt lat="42.451291419233215" lon="13.956424556247844"><ele>309.0</ele><time>2026-03-29T10:14:02.998Z</time></trkpt><trkpt lat="42.451395147691834" lon="13.956550538251225"><ele>309.0</ele><time>2026-03-29T10:14:03.998Z</time></trkpt><trkpt lat="42.4515023709691" lon="13.956685447505139"><ele>308.0</ele><time>2026-03-29T10:14:04.998Z</time></trkpt><trkpt lat="42.451602838773724" lon="13.956812258664323"><ele>307.0</ele><time>2026-03-29T10:14:05.998Z</time></trkpt><trkpt lat="42.45170532445978" lon="13.956944773051985"><ele>306.0</ele><time>2026-03-29T10:14:06.998Z</time></trkpt><trkpt lat="42.451819754340825" lon="13.957078468249572"><ele>305.0</ele><time>2026-03-29T10:14:07.998Z</time></trkpt><trkpt lat="42.45195739123185" lon="13.957231644539274"><ele>305.0</ele><time>2026-03-29T10:14:08.998Z</time></trkpt><trkpt lat="42.452098790676224" lon="13.957422203402192"><ele>305.0</ele><time>2026-03-29T10:14:09.998Z</time></trkpt><trkpt lat="42.45225477848835" lon="13.957586491796183"><ele>305.0</ele><time>2026-03-29T10:14:10.998Z</time></trkpt><trkpt lat="42.45237622689856" lon="13.957753653572528"><ele>305.6666666666667</ele><time>2026-03-29T10:14:11.998Z</time></trkpt><trkpt lat="42.4524964401567" lon="13.957914360677641"><ele>306.3333333333333</ele><time>2026-03-29T10:14:12.998Z</time></trkpt><trkpt lat="42.45260483265305" lon="13.958079748559284"><ele>307.0</ele><time>2026-03-29T10:14:13.998Z</time></trkpt><trkpt lat="42.4526899705989" lon="13.958253240172406"><ele>302.66666666666663</ele><time>2026-03-29T10:14:14.998Z</time></trkpt><trkpt lat="42.45276063814745" lon="13.958439704145011"><ele>298.3333333333333</ele><time>2026-03-29T10:14:15.998Z</time></trkpt><trkpt lat="42.45282527995465" lon="13.95863664094805"><ele>294.0</ele><time>2026-03-29T10:14:16.998Z</time></trkpt><trkpt lat="42.45287667188445" lon="13.958838429803697"><ele>294.0</ele><time>2026-03-29T10:14:17.998Z</time></trkpt><trkpt lat="42.45291583240323" lon="13.959032672765906"><ele>294.0</ele><time>2026-03-29T10:14:18.998Z</time></trkpt><trkpt lat="42.45295723191084" lon="13.959215708663066"><ele>294.0</ele><time>2026-03-29T10:14:19.998Z</time></trkpt><trkpt lat="42.45300064684869" lon="13.959389158106074"><ele>294.0</ele><time>2026-03-29T10:14:20.998Z</time></trkpt><trkpt lat="42.45304655593424" lon="13.959563488209083"><ele>298.5</ele><time>2026-03-29T10:14:21.998Z</time></trkpt><trkpt lat="42.453093442601386" lon="13.959744787937279"><ele>303.0</ele><time>2026-03-29T10:14:22.998Z</time></trkpt><trkpt lat="42.45313452304664" lon="13.959920745889676"><ele>307.5</ele><time>2026-03-29T10:14:23.998Z</time></trkpt><trkpt lat="42.45315861208385" lon="13.960092041680513"><ele>312.0</ele><time>2026-03-29T10:14:24.998Z</time></trkpt><trkpt lat="42.453166552727" lon="13.960266762585011"><ele>312.5</ele><time>2026-03-29T10:14:25.998Z</time></trkpt><trkpt lat="42.45315918628151" lon="13.960434470942806"><ele>313.0</ele><time>2026-03-29T10:14:26.998Z</time></trkpt><trkpt lat="42.45311315087116" lon="13.960623905658869"><ele>313.5</ele><time>2026-03-29T10:14:28Z</time></trkpt><trkpt lat="42.45307834718226" lon="13.960827146330557"><ele>314.0</ele><time>2026-03-29T10:14:29Z</time></trkpt><trkpt lat="42.45305579166655" lon="13.961046282003139"><ele>314.0</ele><time>2026-03-29T10:14:30Z</time></trkpt><trkpt lat="42.453011002287454" lon="13.961238246613961"><ele>314.0</ele><time>2026-03-29T10:14:31Z</time></trkpt><trkpt lat="42.45297679225602" lon="13.961419024746704"><ele>314.0</ele><time>2026-03-29T10:14:32Z</time></trkpt><trkpt lat="42.45294440412947" lon="13.961577631568531"><ele>314.0</ele><time>2026-03-29T10:14:33Z</time></trkpt><trkpt lat="42.45288843394675" lon="13.961708217841537"><ele>312.25</ele><time>2026-03-29T10:14:34Z</time></trkpt><trkpt lat="42.452792010971564" lon="13.961801309041752"><ele>310.5</ele><time>2026-03-29T10:14:35Z</time></trkpt><trkpt lat="42.452659115566" lon="13.96181859331927"><ele>308.75</ele><time>2026-03-29T10:14:36Z</time></trkpt><trkpt lat="42.45252051283873" lon="13.961798811104755"><ele>307.0</ele><time>2026-03-29T10:14:37Z</time></trkpt><trkpt lat="42.45236603478976" lon="13.961754860854509"><ele>307.0</ele><time>2026-03-29T10:14:38Z</time></trkpt><trkpt lat="42.45220762377745" lon="13.96171672067979"><ele>307.0</ele><time>2026-03-29T10:14:39Z</time></trkpt><trkpt lat="42.452063510142146" lon="13.96166168439742"><ele>307.0</ele><time>2026-03-29T10:14:40Z</time></trkpt><trkpt lat="42.45192553512554" lon="13.961607630023883"><ele>305.75</ele><time>2026-03-29T10:14:41Z</time></trkpt><trkpt lat="42.45179694209367" lon="13.961550824389308"><ele>304.5</ele><time>2026-03-29T10:14:42Z</time></trkpt><trkpt lat="42.451670860023064" lon="13.961498067913702"><ele>303.25</ele><time>2026-03-29T10:14:43Z</time></trkpt><trkpt lat="42.45155187538596" lon="13.96144549620537"><ele>302.0</ele><time>2026-03-29T10:14:44Z</time></trkpt><trkpt lat="42.45144193833669" lon="13.961399419352263"><ele>302.0</ele><time>2026-03-29T10:14:45Z</time></trkpt><trkpt lat="42.45134395452862" lon="13.961371876933399"><ele>302.0</ele><time>2026-03-29T10:14:46Z</time></trkpt><trkpt lat="42.45124660107315" lon="13.961382729518778"><ele>302.0</ele><time>2026-03-29T10:14:47Z</time></trkpt><trkpt lat="42.45115878144855" lon="13.96143917713074"><ele>302.0</ele><time>2026-03-29T10:14:48Z</time></trkpt><trkpt lat="42.45108712374382" lon="13.961546148437593"><ele>302.0</ele><time>2026-03-29T10:14:49Z</time></trkpt><trkpt lat="42.45104739764422" lon="13.961693991003338"><ele>299.0</ele><time>2026-03-29T10:14:50Z</time></trkpt><trkpt lat="42.45102889863641" lon="13.961868259221276"><ele>296.0</ele><time>2026-03-29T10:14:51Z</time></trkpt><trkpt lat="42.45102375504252" lon="13.96204836453729"><ele>293.0</ele><time>2026-03-29T10:14:52Z</time></trkpt><trkpt lat="42.45100306510993" lon="13.962217023894507"><ele>290.0</ele><time>2026-03-29T10:14:53Z</time></trkpt><trkpt lat="42.450974400442924" lon="13.962389019379286"><ele>290.2</ele><time>2026-03-29T10:14:54Z</time></trkpt><trkpt lat="42.450955836916556" lon="13.962553623094397"><ele>290.4</ele><time>2026-03-29T10:14:55Z</time></trkpt><trkpt lat="42.4509518242004" lon="13.962700190127043"><ele>290.6</ele><time>2026-03-29T10:14:56Z</time></trkpt><trkpt lat="42.4509822484732" lon="13.962831504867957"><ele>290.8</ele><time>2026-03-29T10:14:57Z</time></trkpt><trkpt lat="42.45103782979112" lon="13.962960376063807"><ele>291.0</ele><time>2026-03-29T10:14:58Z</time></trkpt><trkpt lat="42.45109165678918" lon="13.963014288499627"><ele>291.0</ele><time>2026-03-29T10:14:59Z</time></trkpt><trkpt lat="42.451211715298264" lon="13.963114266296648"><ele>291.0</ele><time>2026-03-29T10:15:01Z</time></trkpt><trkpt lat="42.45131810188882" lon="13.963164874694717"><ele>291.0</ele><time>2026-03-29T10:15:02Z</time></trkpt><trkpt lat="42.45146968698642" lon="13.963184949632312"><ele>291.0</ele><time>2026-03-29T10:15:03Z</time></trkpt><trkpt lat="42.45163842223938" lon="13.963217912278177"><ele>291.0</ele><time>2026-03-29T10:15:04Z</time></trkpt><trkpt lat="42.451809883236784" lon="13.963271675577195"><ele>291.0</ele><time>2026-03-29T10:15:05Z</time></trkpt><trkpt lat="42.45196137514402" lon="13.963342608258069"><ele>291.0</ele><time>2026-03-29T10:15:06Z</time></trkpt><trkpt lat="42.4521068023713" lon="13.96344470857707"><ele>287.6666666666667</ele><time>2026-03-29T10:15:07Z</time></trkpt><trkpt lat="42.452250493597795" lon="13.963589905588526"><ele>284.33333333333337</ele><time>2026-03-29T10:15:08Z</time></trkpt><trkpt lat="42.45239546894172" lon="13.963758324050197"><ele>281.0</ele><time>2026-03-29T10:15:09Z</time></trkpt><trkpt lat="42.45254934462691" lon="13.96391869579876"><ele>281.0</ele><time>2026-03-29T10:15:10Z</time></trkpt><trkpt lat="42.45270613071237" lon="13.964062892643078"><ele>281.0</ele><time>2026-03-29T10:15:11Z</time></trkpt><trkpt lat="42.45286789425942" lon="13.964189240363353"><ele>281.0</ele><time>2026-03-29T10:15:12Z</time></trkpt><trkpt lat="42.45304396815921" lon="13.96430086744015"><ele>277.0</ele><time>2026-03-29T10:15:13Z</time></trkpt><trkpt lat="42.45322617366649" lon="13.964402852670098"><ele>273.0</ele><time>2026-03-29T10:15:14Z</time></trkpt><trkpt lat="42.45340974267791" lon="13.964500612906242"><ele>269.0</ele><time>2026-03-29T10:15:15Z</time></trkpt><trkpt lat="42.4535850402269" lon="13.964584640164952"><ele>269.0</ele><time>2026-03-29T10:15:16Z</time></trkpt><trkpt lat="42.45374822042102" lon="13.96465334057586"><ele>269.0</ele><time>2026-03-29T10:15:17Z</time></trkpt><trkpt lat="42.453902101978464" lon="13.964727134627243"><ele>269.0</ele><time>2026-03-29T10:15:18Z</time></trkpt><trkpt lat="42.45404749628175" lon="13.964823786232639"><ele>271.33333333333337</ele><time>2026-03-29T10:15:19Z</time></trkpt><trkpt lat="42.45419516916461" lon="13.9649556577121"><ele>273.6666666666667</ele><time>2026-03-29T10:15:20Z</time></trkpt><trkpt lat="42.454328607090986" lon="13.96510877197151"><ele>276.0</ele><time>2026-03-29T10:15:20.999Z</time></trkpt><trkpt lat="42.45445552759029" lon="13.965247874054553"><ele>274.5</ele><time>2026-03-29T10:15:21.999Z</time></trkpt><trkpt lat="42.45457035743837" lon="13.96537980093344"><ele>273.0</ele><time>2026-03-29T10:15:22.999Z</time></trkpt><trkpt lat="42.45467170508338" lon="13.965496773760957"><ele>271.5</ele><time>2026-03-29T10:15:23.999Z</time></trkpt><trkpt lat="42.45477020978017" lon="13.965603645916504"><ele>270.0</ele><time>2026-03-29T10:15:24.999Z</time></trkpt><trkpt lat="42.45487373909248" lon="13.965693080779399"><ele>270.0</ele><time>2026-03-29T10:15:25.999Z</time></trkpt><trkpt lat="42.45498777319398" lon="13.965756820276265"><ele>270.0</ele><time>2026-03-29T10:15:26.999Z</time></trkpt><trkpt lat="42.45510149655254" lon="13.965800552938354"><ele>270.0</ele><time>2026-03-29T10:15:27.999Z</time></trkpt><trkpt lat="42.45518776795208" lon="13.965826585925974"><ele>270.0</ele><time>2026-03-29T10:15:28.999Z</time></trkpt><trkpt lat="42.45525749160062" lon="13.965858091419078"><ele>270.0</ele><time>2026-03-29T10:15:29.999Z</time></trkpt><trkpt lat="42.45532010663949" lon="13.965889667709204"><ele>268.25</ele><time>2026-03-29T10:15:30.999Z</time></trkpt><trkpt lat="42.455424022100445" lon="13.965937943899194"><ele>266.5</ele><time>2026-03-29T10:15:32.999Z</time></trkpt><trkpt lat="42.45553580504779" lon="13.966064509847183"><ele>264.75</ele><time>2026-03-29T10:15:34.999Z</time></trkpt><trkpt lat="42.455593801024484" lon="13.966194126014749"><ele>263.0</ele><time>2026-03-29T10:15:35.999Z</time></trkpt><trkpt lat="42.45563715693106" lon="13.966341358965227"><ele>263.0</ele><time>2026-03-29T10:15:36.999Z</time></trkpt><trkpt lat="42.455668022712985" lon="13.966538498416154"><ele>263.0</ele><time>2026-03-29T10:15:37.999Z</time></trkpt><trkpt lat="42.45570672583348" lon="13.96675467979305"><ele>263.0</ele><time>2026-03-29T10:15:38.999Z</time></trkpt><trkpt lat="42.45572946041081" lon="13.966999268178732"><ele>263.33333333333337</ele><time>2026-03-29T10:15:39.999Z</time></trkpt><trkpt lat="42.45574343896519" lon="13.967263609791614"><ele>263.6666666666667</ele><time>2026-03-29T10:15:40.999Z</time></trkpt><trkpt lat="42.45575377216101" lon="13.96750619221236"><ele>264.0</ele><time>2026-03-29T10:15:41.999Z</time></trkpt><trkpt lat="42.45577252499343" lon="13.967739838231804"><ele>265.25</ele><time>2026-03-29T10:15:42.999Z</time></trkpt><trkpt lat="42.45579253091199" lon="13.967955055100617"><ele>266.5</ele><time>2026-03-29T10:15:43.999Z</time></trkpt><trkpt lat="42.45581663249136" lon="13.968142313427217"><ele>267.75</ele><time>2026-03-29T10:15:44.999Z</time></trkpt><trkpt lat="42.45586821511911" lon="13.968309747458111"><ele>269.0</ele><time>2026-03-29T10:15:45.999Z</time></trkpt><trkpt lat="42.45595666212484" lon="13.968450897739148"><ele>272.6666666666667</ele><time>2026-03-29T10:15:46.999Z</time></trkpt><trkpt lat="42.45607740160063" lon="13.968563584039188"><ele>276.3333333333333</ele><time>2026-03-29T10:15:47.999Z</time></trkpt><trkpt lat="42.456221993865945" lon="13.968655299010718"><ele>280.0</ele><time>2026-03-29T10:15:48.999Z</time></trkpt><trkpt lat="42.456386009954066" lon="13.968732876760292"><ele>280.0</ele><time>2026-03-29T10:15:49.999Z</time></trkpt><trkpt lat="42.45654985932802" lon="13.968823969923656"><ele>280.0</ele><time>2026-03-29T10:15:50.999Z</time></trkpt><trkpt lat="42.45670824748911" lon="13.968893493106382"><ele>280.0</ele><time>2026-03-29T10:15:51.999Z</time></trkpt><trkpt lat="42.45684151443888" lon="13.968968122839653"><ele>280.0</ele><time>2026-03-29T10:15:52.999Z</time></trkpt><trkpt lat="42.45695730852581" lon="13.969057695646718"><ele>280.0</ele><time>2026-03-29T10:15:53.999Z</time></trkpt><trkpt lat="42.457048367120755" lon="13.96918438279117"><ele>280.0</ele><time>2026-03-29T10:15:54.999Z</time></trkpt><trkpt lat="42.45711512437064" lon="13.969357058068159"><ele>280.0</ele><time>2026-03-29T10:15:55.999Z</time></trkpt><trkpt lat="42.457170670659174" lon="13.969503021107009"><ele>283.66666666666663</ele><time>2026-03-29T10:15:56.999Z</time></trkpt><trkpt lat="42.45722286221196" lon="13.969674637676883"><ele>287.3333333333333</ele><time>2026-03-29T10:15:57.999Z</time></trkpt><trkpt lat="42.457091555617495" lon="13.969902993632076"><ele>291.0</ele><time>2026-03-29T10:15:58.999Z</time></trkpt><trkpt lat="42.45705267804009" lon="13.970136557390466"><ele>293.6666666666667</ele><time>2026-03-29T10:15:59.999Z</time></trkpt><trkpt lat="42.4570276377035" lon="13.970345752611852"><ele>296.33333333333337</ele><time>2026-03-29T10:16:00.999Z</time></trkpt><trkpt lat="42.45703568346067" lon="13.970566545276421"><ele>299.0</ele><time>2026-03-29T10:16:01.999Z</time></trkpt><trkpt lat="42.45708507116517" lon="13.97079551944693"><ele>293.0</ele><time>2026-03-29T10:16:02.999Z</time></trkpt><trkpt lat="42.45717228763001" lon="13.971021445335538"><ele>287.0</ele><time>2026-03-29T10:16:03.999Z</time></trkpt><trkpt lat="42.45728397618929" lon="13.971243814283433"><ele>281.0</ele><time>2026-03-29T10:16:04.999Z</time></trkpt><trkpt lat="42.457393319169746" lon="13.971488047702499"><ele>282.6666666666667</ele><time>2026-03-29T10:16:05.999Z</time></trkpt><trkpt lat="42.45747965886154" lon="13.971731947518352"><ele>284.3333333333333</ele><time>2026-03-29T10:16:06.999Z</time></trkpt><trkpt lat="42.4575540185506" lon="13.97197075136277"><ele>286.0</ele><time>2026-03-29T10:16:07.999Z</time></trkpt><trkpt lat="42.45762433815471" lon="13.972195451712139"><ele>286.0</ele><time>2026-03-29T10:16:08.999Z</time></trkpt><trkpt lat="42.457695532808295" lon="13.97238728232061"><ele>286.0</ele><time>2026-03-29T10:16:09.999Z</time></trkpt><trkpt lat="42.45776148236527" lon="13.972557725574335"><ele>286.0</ele><time>2026-03-29T10:16:10.999Z</time></trkpt><trkpt lat="42.45780265134987" lon="13.972741496030087"><ele>286.0</ele><time>2026-03-29T10:16:11.999Z</time></trkpt><trkpt lat="42.45781187625798" lon="13.972952109120524"><ele>286.0</ele><time>2026-03-29T10:16:12.999Z</time></trkpt><trkpt lat="42.45778083952044" lon="13.973184445137155"><ele>286.0</ele><time>2026-03-29T10:16:13.999Z</time></trkpt><trkpt lat="42.45772763536137" lon="13.973426794348278"><ele>286.0</ele><time>2026-03-29T10:16:14.999Z</time></trkpt><trkpt lat="42.45770204876462" lon="13.973681490563925"><ele>283.66666666666663</ele><time>2026-03-29T10:16:15.999Z</time></trkpt><trkpt lat="42.45771983755016" lon="13.973957643758427"><ele>281.3333333333333</ele><time>2026-03-29T10:16:16.999Z</time></trkpt><trkpt lat="42.45775215757285" lon="13.974219216854067"><ele>279.0</ele><time>2026-03-29T10:16:17.999Z</time></trkpt><trkpt lat="42.45778460473624" lon="13.974462199199223"><ele>277.5</ele><time>2026-03-29T10:16:18.998Z</time></trkpt><trkpt lat="42.4577981373175" lon="13.974680348206215"><ele>276.0</ele><time>2026-03-29T10:16:19.998Z</time></trkpt><trkpt lat="42.45780989657593" lon="13.974867075243367"><ele>274.5</ele><time>2026-03-29T10:16:20.998Z</time></trkpt><trkpt lat="42.457850010611594" lon="13.975032520214949"><ele>273.0</ele><time>2026-03-29T10:16:21.998Z</time></trkpt><trkpt lat="42.45793127308669" lon="13.975204865785166"><ele>269.0</ele><time>2026-03-29T10:16:22.998Z</time></trkpt><trkpt lat="42.45805808714184" lon="13.975372617145414"><ele>265.0</ele><time>2026-03-29T10:16:23.998Z</time></trkpt><trkpt lat="42.4582131026385" lon="13.97550584483827"><ele>261.0</ele><time>2026-03-29T10:16:24.998Z</time></trkpt><trkpt lat="42.45838310816414" lon="13.97563671936578"><ele>261.0</ele><time>2026-03-29T10:16:25.998Z</time></trkpt><trkpt lat="42.45854843402725" lon="13.975789586442517"><ele>261.0</ele><time>2026-03-29T10:16:26.998Z</time></trkpt><trkpt lat="42.458716692355225" lon="13.975953650712219"><ele>261.0</ele><time>2026-03-29T10:16:27.998Z</time></trkpt><trkpt lat="42.458876194285345" lon="13.976105203144417"><ele>263.0</ele><time>2026-03-29T10:16:28.998Z</time></trkpt><trkpt lat="42.45902624061397" lon="13.976244106919843"><ele>265.0</ele><time>2026-03-29T10:16:29.998Z</time></trkpt><trkpt lat="42.459168491986055" lon="13.976355080580536"><ele>267.0</ele><time>2026-03-29T10:16:30.998Z</time></trkpt><trkpt lat="42.45929350383908" lon="13.97643947002791"><ele>267.0</ele><time>2026-03-29T10:16:31.998Z</time></trkpt><trkpt lat="42.45940647793966" lon="13.976516917177054"><ele>267.0</ele><time>2026-03-29T10:16:32.998Z</time></trkpt><trkpt lat="42.45950204615427" lon="13.976620459228947"><ele>267.0</ele><time>2026-03-29T10:16:34Z</time></trkpt><trkpt lat="42.45956927129934" lon="13.976769180514502"><ele>267.0</ele><time>2026-03-29T10:16:35Z</time></trkpt><trkpt lat="42.459607835647404" lon="13.976948988966475"><ele>261.6666666666667</ele><time>2026-03-29T10:16:36Z</time></trkpt><trkpt lat="42.45962221758278" lon="13.977161431612144"><ele>256.33333333333337</ele><time>2026-03-29T10:16:37Z</time></trkpt><trkpt lat="42.45963531422519" lon="13.977398642929057"><ele>251.0</ele><time>2026-03-29T10:16:38Z</time></trkpt><trkpt lat="42.45966256303743" lon="13.977637576644815"><ele>251.0</ele><time>2026-03-29T10:16:39Z</time></trkpt><trkpt lat="42.459692023154275" lon="13.97789739777963"><ele>251.0</ele><time>2026-03-29T10:16:40Z</time></trkpt><trkpt lat="42.45971663879631" lon="13.978145843289846"><ele>251.0</ele><time>2026-03-29T10:16:41Z</time></trkpt><trkpt lat="42.45974020975782" lon="13.978370377807105"><ele>252.0</ele><time>2026-03-29T10:16:42Z</time></trkpt><trkpt lat="42.459770176715914" lon="13.978586596677044"><ele>253.0</ele><time>2026-03-29T10:16:43Z</time></trkpt><trkpt lat="42.45984008557994" lon="13.978812035431446"><ele>254.0</ele><time>2026-03-29T10:16:44Z</time></trkpt><trkpt lat="42.45994427710673" lon="13.979045544702926"><ele>253.66666666666669</ele><time>2026-03-29T10:16:45Z</time></trkpt><trkpt lat="42.46005760163895" lon="13.979287324572724"><ele>253.33333333333331</ele><time>2026-03-29T10:16:46Z</time></trkpt><trkpt lat="42.460163244467665" lon="13.979513536609206"><ele>253.0</ele><time>2026-03-29T10:16:47Z</time></trkpt><trkpt lat="42.46025732506436" lon="13.979726788830032"><ele>253.0</ele><time>2026-03-29T10:16:48Z</time></trkpt><trkpt lat="42.460342878973705" lon="13.979936746895172"><ele>253.0</ele><time>2026-03-29T10:16:49Z</time></trkpt><trkpt lat="42.460423489171816" lon="13.980140512277957"><ele>253.0</ele><time>2026-03-29T10:16:50Z</time></trkpt><trkpt lat="42.460491210221434" lon="13.980338167611752"><ele>255.0</ele><time>2026-03-29T10:16:51Z</time></trkpt><trkpt lat="42.46054465376682" lon="13.98054738049782"><ele>257.0</ele><time>2026-03-29T10:16:52Z</time></trkpt><trkpt lat="42.46057483460108" lon="13.980748669154224"><ele>259.0</ele><time>2026-03-29T10:16:53Z</time></trkpt><trkpt lat="42.46058048336832" lon="13.980939866953324"><ele>259.75</ele><time>2026-03-29T10:16:54Z</time></trkpt><trkpt lat="42.46054346575943" lon="13.981130675975594"><ele>260.5</ele><time>2026-03-29T10:16:55Z</time></trkpt><trkpt lat="42.46048021694303" lon="13.981325597766102"><ele>261.25</ele><time>2026-03-29T10:16:56Z</time></trkpt><trkpt lat="42.46042644130906" lon="13.981501451773141"><ele>262.0</ele><time>2026-03-29T10:16:57Z</time></trkpt><trkpt lat="42.460396102181114" lon="13.981687755624387"><ele>259.25</ele><time>2026-03-29T10:16:58Z</time></trkpt><trkpt lat="42.46039427197507" lon="13.98187903782791"><ele>256.5</ele><time>2026-03-29T10:16:59Z</time></trkpt><trkpt lat="42.46041842381447" lon="13.982054753205858"><ele>253.75</ele><time>2026-03-29T10:17:00Z</time></trkpt><trkpt lat="42.46046888211654" lon="13.982200324873297"><ele>251.0</ele><time>2026-03-29T10:17:01Z</time></trkpt><trkpt lat="42.460548435862826" lon="13.982317208867464"><ele>251.0</ele><time>2026-03-29T10:17:02Z</time></trkpt><trkpt lat="42.460662905476006" lon="13.982416488419604"><ele>251.0</ele><time>2026-03-29T10:17:03Z</time></trkpt><trkpt lat="42.4608064143004" lon="13.982492232062228"><ele>251.0</ele><time>2026-03-29T10:17:04Z</time></trkpt><trkpt lat="42.46093112599434" lon="13.982538451362267"><ele>251.0</ele><time>2026-03-29T10:17:05Z</time></trkpt><trkpt lat="42.461025708149606" lon="13.982615930403886"><ele>247.0</ele><time>2026-03-29T10:17:06Z</time></trkpt><trkpt lat="42.46107019126576" lon="13.982766296019157"><ele>243.0</ele><time>2026-03-29T10:17:07Z</time></trkpt><trkpt lat="42.46113326622959" lon="13.982933414655065"><ele>239.0</ele><time>2026-03-29T10:17:08Z</time></trkpt><trkpt lat="42.46118894668899" lon="13.983118677454344"><ele>235.0</ele><time>2026-03-29T10:17:09Z</time></trkpt><trkpt lat="42.46127342200561" lon="13.983277476890386"><ele>236.66666666666666</ele><time>2026-03-29T10:17:10Z</time></trkpt><trkpt lat="42.46138863442682" lon="13.98341384676521"><ele>238.33333333333331</ele><time>2026-03-29T10:17:11Z</time></trkpt><trkpt lat="42.4615380433355" lon="13.983520495426184"><ele>240.0</ele><time>2026-03-29T10:17:12Z</time></trkpt><trkpt lat="42.461687387737406" lon="13.983604713085056"><ele>240.0</ele><time>2026-03-29T10:17:13Z</time></trkpt><trkpt lat="42.46181820244917" lon="13.983698034690407"><ele>240.0</ele><time>2026-03-29T10:17:14Z</time></trkpt><trkpt lat="42.46191687680911" lon="13.98380504270272"><ele>240.0</ele><time>2026-03-29T10:17:15Z</time></trkpt><trkpt lat="42.4619876789827" lon="13.983924940228958"><ele>240.0</ele><time>2026-03-29T10:17:16Z</time></trkpt><trkpt lat="42.46202713178955" lon="13.984048709045641"><ele>239.0</ele><time>2026-03-29T10:17:17Z</time></trkpt><trkpt lat="42.46203049024647" lon="13.98418673321069"><ele>238.0</ele><time>2026-03-29T10:17:18Z</time></trkpt><trkpt lat="42.461991482013424" lon="13.98434789350785"><ele>237.0</ele><time>2026-03-29T10:17:19Z</time></trkpt><trkpt lat="42.46193471880134" lon="13.984495174778925"><ele>236.0</ele><time>2026-03-29T10:17:20Z</time></trkpt><trkpt lat="42.46191074427542" lon="13.984629167629077"><ele>236.0</ele><time>2026-03-29T10:17:21Z</time></trkpt><trkpt lat="42.46194449060731" lon="13.984764492636726"><ele>236.0</ele><time>2026-03-29T10:17:22Z</time></trkpt><trkpt lat="42.46202413656564" lon="13.984895408409427"><ele>236.0</ele><time>2026-03-29T10:17:23Z</time></trkpt><trkpt lat="42.46213942053446" lon="13.985005620420576"><ele>236.0</ele><time>2026-03-29T10:17:24Z</time></trkpt><trkpt lat="42.46227659139552" lon="13.985083294310837"><ele>236.25</ele><time>2026-03-29T10:17:25Z</time></trkpt><trkpt lat="42.46241455045279" lon="13.985158626701937"><ele>236.5</ele><time>2026-03-29T10:17:26Z</time></trkpt><trkpt lat="42.462529389766104" lon="13.985276840466861"><ele>236.75</ele><time>2026-03-29T10:17:26.999Z</time></trkpt><trkpt lat="42.46259914251934" lon="13.985462339422721"><ele>237.0</ele><time>2026-03-29T10:17:27.999Z</time></trkpt><trkpt lat="42.462666805602005" lon="13.985628847598878"><ele>237.0</ele><time>2026-03-29T10:17:28.999Z</time></trkpt><trkpt lat="42.462706868733" lon="13.985767783947717"><ele>237.0</ele><time>2026-03-29T10:17:29.999Z</time></trkpt><trkpt lat="42.46279005723439" lon="13.985864821072699"><ele>237.0</ele><time>2026-03-29T10:17:30.999Z</time></trkpt><trkpt lat="42.46291954942272" lon="13.985926336628163"><ele>237.0</ele><time>2026-03-29T10:17:31.999Z</time></trkpt><trkpt lat="42.463076216962435" lon="13.985978025214102"><ele>236.5</ele><time>2026-03-29T10:17:32.999Z</time></trkpt><trkpt lat="42.4632357323362" lon="13.9860409082683"><ele>236.0</ele><time>2026-03-29T10:17:33.999Z</time></trkpt><trkpt lat="42.4633792065019" lon="13.986103449892896"><ele>235.5</ele><time>2026-03-29T10:17:34.999Z</time></trkpt><trkpt lat="42.463492583859725" lon="13.986161921880022"><ele>235.0</ele><time>2026-03-29T10:17:35.999Z</time></trkpt><trkpt lat="42.463586654122146" lon="13.98624747288069"><ele>235.0</ele><time>2026-03-29T10:17:36.999Z</time></trkpt><trkpt lat="42.46364731347616" lon="13.986391418193657"><ele>235.0</ele><time>2026-03-29T10:17:37.999Z</time></trkpt><trkpt lat="42.46367394598415" lon="13.986548131927032"><ele>235.0</ele><time>2026-03-29T10:17:38.999Z</time></trkpt><trkpt lat="42.46365965438021" lon="13.986715360239875"><ele>235.0</ele><time>2026-03-29T10:17:39.999Z</time></trkpt><trkpt lat="42.46360704251607" lon="13.986896985226773"><ele>234.5</ele><time>2026-03-29T10:17:40.999Z</time></trkpt><trkpt lat="42.46354640595583" lon="13.98706898962171"><ele>234.0</ele><time>2026-03-29T10:17:41.999Z</time></trkpt><trkpt lat="42.46350910798571" lon="13.987231802702759"><ele>233.5</ele><time>2026-03-29T10:17:42.999Z</time></trkpt><trkpt lat="42.463508162096616" lon="13.987421659790757"><ele>233.0</ele><time>2026-03-29T10:17:43.999Z</time></trkpt><trkpt lat="42.46354788775106" lon="13.987644220978874"><ele>232.66666666666669</ele><time>2026-03-29T10:17:44.999Z</time></trkpt><trkpt lat="42.46361740807545" lon="13.987861420655925"><ele>232.33333333333331</ele><time>2026-03-29T10:17:45.999Z</time></trkpt><trkpt lat="42.46367679880496" lon="13.988056622057066"><ele>232.0</ele><time>2026-03-29T10:17:46.999Z</time></trkpt><trkpt lat="42.46372288202551" lon="13.988239887288998"><ele>232.0</ele><time>2026-03-29T10:17:47.999Z</time></trkpt><trkpt lat="42.463766228303086" lon="13.988417641441812"><ele>232.0</ele><time>2026-03-29T10:17:48.999Z</time></trkpt><trkpt lat="42.463800394150596" lon="13.988590883223987"><ele>232.0</ele><time>2026-03-29T10:17:49.999Z</time></trkpt><trkpt lat="42.46381175627556" lon="13.988780579128997"><ele>232.0</ele><time>2026-03-29T10:17:50.999Z</time></trkpt><trkpt lat="42.46377729140369" lon="13.988987052581217"><ele>232.25</ele><time>2026-03-29T10:17:51.999Z</time></trkpt><trkpt lat="42.46375758374743" lon="13.98918772244184"><ele>232.5</ele><time>2026-03-29T10:17:52.999Z</time></trkpt><trkpt lat="42.46370147391409" lon="13.989363213971734"><ele>232.75</ele><time>2026-03-29T10:17:53.999Z</time></trkpt><trkpt lat="42.46367821002291" lon="13.989535994710222"><ele>233.0</ele><time>2026-03-29T10:17:54.999Z</time></trkpt><trkpt lat="42.46370197937192" lon="13.989720649075217"><ele>233.0</ele><time>2026-03-29T10:17:55.999Z</time></trkpt><trkpt lat="42.463774831490646" lon="13.98991470899895"><ele>233.0</ele><time>2026-03-29T10:17:56.999Z</time></trkpt><trkpt lat="42.46388340861002" lon="13.990106866587654"><ele>233.0</ele><time>2026-03-29T10:17:57.999Z</time></trkpt><trkpt lat="42.464013850317905" lon="13.990300738209354"><ele>235.66666666666669</ele><time>2026-03-29T10:17:58.999Z</time></trkpt><trkpt lat="42.46412629429903" lon="13.990518453062569"><ele>238.33333333333331</ele><time>2026-03-29T10:17:59.999Z</time></trkpt><trkpt lat="42.464229078351735" lon="13.990720523629545"><ele>241.0</ele><time>2026-03-29T10:18:00.999Z</time></trkpt><trkpt lat="42.46432497171093" lon="13.990896723884154"><ele>240.25</ele><time>2026-03-29T10:18:01.999Z</time></trkpt><trkpt lat="42.46442307373115" lon="13.99105363603391"><ele>239.5</ele><time>2026-03-29T10:18:02.999Z</time></trkpt><trkpt lat="42.46453303608365" lon="13.991192267794704"><ele>238.75</ele><time>2026-03-29T10:18:03.999Z</time></trkpt><trkpt lat="42.46465382177463" lon="13.991305247593646"><ele>238.0</ele><time>2026-03-29T10:18:04.999Z</time></trkpt><trkpt lat="42.46478043404444" lon="13.991370580745714"><ele>238.0</ele><time>2026-03-29T10:18:05.999Z</time></trkpt><trkpt lat="42.46490676232398" lon="13.991420632000972"><ele>238.0</ele><time>2026-03-29T10:18:06.999Z</time></trkpt><trkpt lat="42.465022451197655" lon="13.991496038484026"><ele>238.0</ele><time>2026-03-29T10:18:07.999Z</time></trkpt><trkpt lat="42.46511866683924" lon="13.991618342191128"><ele>238.0</ele><time>2026-03-29T10:18:08.999Z</time></trkpt><trkpt lat="42.46518504349335" lon="13.991778991744352"><ele>241.0</ele><time>2026-03-29T10:18:09.999Z</time></trkpt><trkpt lat="42.46522562934525" lon="13.991966161365623"><ele>244.0</ele><time>2026-03-29T10:18:10.999Z</time></trkpt><trkpt lat="42.46524652598337" lon="13.992172218798371"><ele>247.0</ele><time>2026-03-29T10:18:11.999Z</time></trkpt><trkpt lat="42.46525303829989" lon="13.992392579351074"><ele>249.0</ele><time>2026-03-29T10:18:12.999Z</time></trkpt><trkpt lat="42.465252892538324" lon="13.992616593029819"><ele>251.0</ele><time>2026-03-29T10:18:13.999Z</time></trkpt><trkpt lat="42.465237545255306" lon="13.992822753280937"><ele>253.0</ele><time>2026-03-29T10:18:14.999Z</time></trkpt><trkpt lat="42.4652208645149" lon="13.993008384442946"><ele>253.0</ele><time>2026-03-29T10:18:15.999Z</time></trkpt><trkpt lat="42.46522150812396" lon="13.99318080352786"><ele>253.0</ele><time>2026-03-29T10:18:16.999Z</time></trkpt><trkpt lat="42.46523871171016" lon="13.993359914816047"><ele>253.0</ele><time>2026-03-29T10:18:17.999Z</time></trkpt><trkpt lat="42.46528264498233" lon="13.993536894477032"><ele>253.0</ele><time>2026-03-29T10:18:18.999Z</time></trkpt><trkpt lat="42.46534774871274" lon="13.993687095167404"><ele>252.0</ele><time>2026-03-29T10:18:19.999Z</time></trkpt><trkpt lat="42.46544569813349" lon="13.993804403870595"><ele>251.0</ele><time>2026-03-29T10:18:20.999Z</time></trkpt><trkpt lat="42.46558216283976" lon="13.99389605512975"><ele>250.0</ele><time>2026-03-29T10:18:21.999Z</time></trkpt><trkpt lat="42.46572907272065" lon="13.993952643922299"><ele>249.0</ele><time>2026-03-29T10:18:22.999Z</time></trkpt><trkpt lat="42.46586156354128" lon="13.994010419150388"><ele>249.0</ele><time>2026-03-29T10:18:23.998Z</time></trkpt><trkpt lat="42.46599099795527" lon="13.994079624041948"><ele>249.0</ele><time>2026-03-29T10:18:24.998Z</time></trkpt><trkpt lat="42.46612844414159" lon="13.994153775436084"><ele>249.0</ele><time>2026-03-29T10:18:25.998Z</time></trkpt><trkpt lat="42.46625594291895" lon="13.994220995629911"><ele>249.0</ele><time>2026-03-29T10:18:26.998Z</time></trkpt><trkpt lat="42.46636588429175" lon="13.994326610767551"><ele>247.33333333333331</ele><time>2026-03-29T10:18:27.998Z</time></trkpt><trkpt lat="42.466455437783154" lon="13.99447596745887"><ele>245.66666666666666</ele><time>2026-03-29T10:18:28.998Z</time></trkpt><trkpt lat="42.46652426621778" lon="13.994656045397779"><ele>244.0</ele><time>2026-03-29T10:18:29.998Z</time></trkpt><trkpt lat="42.46657179385141" lon="13.994867625340106"><ele>246.33333333333331</ele><time>2026-03-29T10:18:30.998Z</time></trkpt><trkpt lat="42.466614597807144" lon="13.995093565467384"><ele>248.66666666666669</ele><time>2026-03-29T10:18:31.998Z</time></trkpt><trkpt lat="42.46666570257913" lon="13.995296465164758"><ele>251.0</ele><time>2026-03-29T10:18:32.998Z</time></trkpt><trkpt lat="42.4667180745211" lon="13.995483653337896"><ele>251.0</ele><time>2026-03-29T10:18:33.998Z</time></trkpt><trkpt lat="42.46677636532775" lon="13.995662937858178"><ele>251.0</ele><time>2026-03-29T10:18:34.998Z</time></trkpt><trkpt lat="42.46685016937765" lon="13.995824210611847"><ele>251.0</ele><time>2026-03-29T10:18:35.998Z</time></trkpt><trkpt lat="42.466941743160525" lon="13.995958783481512"><ele>251.0</ele><time>2026-03-29T10:18:36.998Z</time></trkpt><trkpt lat="42.46705046765065" lon="13.996063482703661"><ele>249.0</ele><time>2026-03-29T10:18:37.998Z</time></trkpt><trkpt lat="42.4671672160503" lon="13.996147305330473"><ele>247.0</ele><time>2026-03-29T10:18:39Z</time></trkpt><trkpt lat="42.46728840665011" lon="13.996226351601369"><ele>245.0</ele><time>2026-03-29T10:18:40Z</time></trkpt><trkpt lat="42.467394346484774" lon="13.996314547475015"><ele>243.0</ele><time>2026-03-29T10:18:41Z</time></trkpt><trkpt lat="42.46748481671285" lon="13.996447451652827"><ele>243.0</ele><time>2026-03-29T10:18:42Z</time></trkpt><trkpt lat="42.467562305828444" lon="13.99660803006209"><ele>243.0</ele><time>2026-03-29T10:18:43Z</time></trkpt><trkpt lat="42.46762297988031" lon="13.996797134853447"><ele>243.0</ele><time>2026-03-29T10:18:44Z</time></trkpt><trkpt lat="42.4676691576001" lon="13.997002907193028"><ele>244.33333333333331</ele><time>2026-03-29T10:18:45Z</time></trkpt><trkpt lat="42.46772062685936" lon="13.997218680060472"><ele>245.66666666666666</ele><time>2026-03-29T10:18:46Z</time></trkpt><trkpt lat="42.46777248276524" lon="13.997420432905297"><ele>247.0</ele><time>2026-03-29T10:18:47Z</time></trkpt><trkpt lat="42.46782367698745" lon="13.997618378334925"><ele>247.0</ele><time>2026-03-29T10:18:48Z</time></trkpt><trkpt lat="42.46787671142881" lon="13.997810767477748"><ele>247.0</ele><time>2026-03-29T10:18:49Z</time></trkpt><trkpt lat="42.46792952661934" lon="13.997989693266613"><ele>247.0</ele><time>2026-03-29T10:18:50Z</time></trkpt><trkpt lat="42.46797435254903" lon="13.998151221898485"><ele>247.0</ele><time>2026-03-29T10:18:51Z</time></trkpt><trkpt lat="42.468014473465225" lon="13.998299031290404"><ele>245.25</ele><time>2026-03-29T10:18:52Z</time></trkpt><trkpt lat="42.46803975934618" lon="13.998441031987001"><ele>243.5</ele><time>2026-03-29T10:18:53Z</time></trkpt><trkpt lat="42.46803119029685" lon="13.998594382025106"><ele>241.75</ele><time>2026-03-29T10:18:54Z</time></trkpt><trkpt lat="42.46797205118473" lon="13.998740664899211"><ele>240.0</ele><time>2026-03-29T10:18:55Z</time></trkpt><trkpt lat="42.46789557322592" lon="13.998889739760616"><ele>240.0</ele><time>2026-03-29T10:18:56Z</time></trkpt><trkpt lat="42.46779864596261" lon="13.99903784053907"><ele>240.0</ele><time>2026-03-29T10:18:57Z</time></trkpt><trkpt lat="42.4677090663843" lon="13.999222550245218"><ele>240.0</ele><time>2026-03-29T10:18:58Z</time></trkpt><trkpt lat="42.46760509320352" lon="13.99940788065976"><ele>237.33333333333331</ele><time>2026-03-29T10:18:59Z</time></trkpt><trkpt lat="42.467493876226136" lon="13.999606805538283"><ele>234.66666666666666</ele><time>2026-03-29T10:19:00Z</time></trkpt><trkpt lat="42.467380757859814" lon="13.999794834322747"><ele>232.0</ele><time>2026-03-29T10:19:01Z</time></trkpt><trkpt lat="42.467276935542166" lon="13.999975438250745"><ele>232.0</ele><time>2026-03-29T10:19:02Z</time></trkpt><trkpt lat="42.467179132508804" lon="14.00015105169333"><ele>232.0</ele><time>2026-03-29T10:19:03Z</time></trkpt><trkpt lat="42.46708552183713" lon="14.000324099371374"><ele>232.0</ele><time>2026-03-29T10:19:04Z</time></trkpt><trkpt lat="42.466998185399845" lon="14.000490080267262"><ele>232.25</ele><time>2026-03-29T10:19:05Z</time></trkpt><trkpt lat="42.466925954909364" lon="14.000647935151438"><ele>232.5</ele><time>2026-03-29T10:19:06Z</time></trkpt><trkpt lat="42.46688111494741" lon="14.000822165069014"><ele>232.75</ele><time>2026-03-29T10:19:07Z</time></trkpt><trkpt lat="42.466858513541844" lon="14.001024514899951"><ele>233.0</ele><time>2026-03-29T10:19:08Z</time></trkpt><trkpt lat="42.46684554565743" lon="14.001247757982227"><ele>233.0</ele><time>2026-03-29T10:19:09Z</time></trkpt><trkpt lat="42.466841479961474" lon="14.001483184482408"><ele>233.0</ele><time>2026-03-29T10:19:10Z</time></trkpt><trkpt lat="42.466831637561526" lon="14.001710430486078"><ele>233.0</ele><time>2026-03-29T10:19:11Z</time></trkpt><trkpt lat="42.46681646301431" lon="14.00190491852424"><ele>233.25</ele><time>2026-03-29T10:19:12Z</time></trkpt><trkpt lat="42.4668052080151" lon="14.002069827941625"><ele>233.5</ele><time>2026-03-29T10:19:13Z</time></trkpt><trkpt lat="42.466813024871925" lon="14.002210287747692"><ele>233.75</ele><time>2026-03-29T10:19:14Z</time></trkpt><trkpt lat="42.466865778739994" lon="14.00233679594624"><ele>234.0</ele><time>2026-03-29T10:19:15Z</time></trkpt><trkpt lat="42.46696119828604" lon="14.002450042020664"><ele>236.33333333333331</ele><time>2026-03-29T10:19:16Z</time></trkpt><trkpt lat="42.46710075255239" lon="14.002540781409957"><ele>238.66666666666666</ele><time>2026-03-29T10:19:17Z</time></trkpt><trkpt lat="42.4672668026475" lon="14.002620840288104"><ele>241.0</ele><time>2026-03-29T10:19:18Z</time></trkpt><trkpt lat="42.467431054433284" lon="14.002721197351606"><ele>236.0</ele><time>2026-03-29T10:19:19Z</time></trkpt><trkpt lat="42.46760330984152" lon="14.002851973359826"><ele>231.0</ele><time>2026-03-29T10:19:20Z</time></trkpt><trkpt lat="42.46778282545408" lon="14.002979744666609"><ele>226.0</ele><time>2026-03-29T10:19:21Z</time></trkpt><trkpt lat="42.467979297444145" lon="14.003110863824435"><ele>228.0</ele><time>2026-03-29T10:19:22Z</time></trkpt><trkpt lat="42.46817255870464" lon="14.003248404243834"><ele>230.0</ele><time>2026-03-29T10:19:23Z</time></trkpt><trkpt lat="42.468347662483616" lon="14.003368890826803"><ele>232.0</ele><time>2026-03-29T10:19:24Z</time></trkpt><trkpt lat="42.468514117677856" lon="14.003477580847061"><ele>232.0</ele><time>2026-03-29T10:19:25Z</time></trkpt><trkpt lat="42.46867564195261" lon="14.003575510011947"><ele>232.0</ele><time>2026-03-29T10:19:26Z</time></trkpt><trkpt lat="42.46880848617381" lon="14.003665546121027"><ele>232.0</ele><time>2026-03-29T10:19:27Z</time></trkpt><trkpt lat="42.46891118100968" lon="14.003744863986592"><ele>232.0</ele><time>2026-03-29T10:19:28Z</time></trkpt><trkpt lat="42.46900342707544" lon="14.003835822952441"><ele>230.5</ele><time>2026-03-29T10:19:29Z</time></trkpt><trkpt lat="42.46906605814693" lon="14.003955065057378"><ele>229.0</ele><time>2026-03-29T10:19:30Z</time></trkpt><trkpt lat="42.46909452764629" lon="14.004112267359973"><ele>227.5</ele><time>2026-03-29T10:19:31Z</time></trkpt><trkpt lat="42.469061620614575" lon="14.004294499470726"><ele>226.0</ele><time>2026-03-29T10:19:32Z</time></trkpt><trkpt lat="42.46905825498926" lon="14.004494478965478"><ele>226.0</ele><time>2026-03-29T10:19:33Z</time></trkpt><trkpt lat="42.46906621225688" lon="14.004717575215137"><ele>226.0</ele><time>2026-03-29T10:19:34Z</time></trkpt><trkpt lat="42.46909409554833" lon="14.004941116717214"><ele>226.0</ele><time>2026-03-29T10:19:35Z</time></trkpt><trkpt lat="42.46909944229158" lon="14.005147150380875"><ele>226.0</ele><time>2026-03-29T10:19:36Z</time></trkpt><trkpt lat="42.46907231980475" lon="14.005344854174663"><ele>226.0</ele><time>2026-03-29T10:19:37Z</time></trkpt><trkpt lat="42.46901849174659" lon="14.005532565502138"><ele>226.0</ele><time>2026-03-29T10:19:38Z</time></trkpt><trkpt lat="42.46891606191696" lon="14.005684955265853"><ele>226.0</ele><time>2026-03-29T10:19:38.999Z</time></trkpt><trkpt lat="42.46880771216547" lon="14.005866862701328"><ele>227.66666666666666</ele><time>2026-03-29T10:19:39.999Z</time></trkpt><trkpt lat="42.468682642074526" lon="14.006049045958132"><ele>229.33333333333331</ele><time>2026-03-29T10:19:40.999Z</time></trkpt><trkpt lat="42.46856602385851" lon="14.006241599013215"><ele>231.0</ele><time>2026-03-29T10:19:41.999Z</time></trkpt><trkpt lat="42.46844619488669" lon="14.006423836515141"><ele>231.0</ele><time>2026-03-29T10:19:42.999Z</time></trkpt><trkpt lat="42.46833218264923" lon="14.006599579707139"><ele>231.0</ele><time>2026-03-29T10:19:43.999Z</time></trkpt><trkpt lat="42.46822481541161" lon="14.006774549933215"><ele>231.0</ele><time>2026-03-29T10:19:44.999Z</time></trkpt><trkpt lat="42.46813357346917" lon="14.006925918735755"><ele>228.5</ele><time>2026-03-29T10:19:45.999Z</time></trkpt><trkpt lat="42.46806071346526" lon="14.007056207038913"><ele>226.0</ele><time>2026-03-29T10:19:46.999Z</time></trkpt><trkpt lat="42.468018680634515" lon="14.007195535856331"><ele>223.5</ele><time>2026-03-29T10:19:47.999Z</time></trkpt><trkpt lat="42.46800168158404" lon="14.007384512507052"><ele>221.0</ele><time>2026-03-29T10:19:48.999Z</time></trkpt><trkpt lat="42.46802343352309" lon="14.007596772556761"><ele>219.0</ele><time>2026-03-29T10:19:49.999Z</time></trkpt><trkpt lat="42.46807483305482" lon="14.007812046659415"><ele>217.0</ele><time>2026-03-29T10:19:50.999Z</time></trkpt><trkpt lat="42.468124478307246" lon="14.008022977797705"><ele>215.0</ele><time>2026-03-29T10:19:51.999Z</time></trkpt><trkpt lat="42.46815311365599" lon="14.00823359488992"><ele>215.0</ele><time>2026-03-29T10:19:52.999Z</time></trkpt><trkpt lat="42.46815848198213" lon="14.008460661422479"><ele>215.0</ele><time>2026-03-29T10:19:53.999Z</time></trkpt><trkpt lat="42.46815186272716" lon="14.008692942965427"><ele>215.0</ele><time>2026-03-29T10:19:54.999Z</time></trkpt><trkpt lat="42.46812113906655" lon="14.008925078104777"><ele>215.0</ele><time>2026-03-29T10:19:55.999Z</time></trkpt><trkpt lat="42.46808062118073" lon="14.009150993363091"><ele>215.0</ele><time>2026-03-29T10:19:56.999Z</time></trkpt><trkpt lat="42.46804871455366" lon="14.00938963288694"><ele>215.0</ele><time>2026-03-29T10:19:57.999Z</time></trkpt><trkpt lat="42.46802183574813" lon="14.00963361458443"><ele>213.66666666666669</ele><time>2026-03-29T10:19:58.999Z</time></trkpt><trkpt lat="42.46801229564569" lon="14.009872020825371"><ele>212.33333333333331</ele><time>2026-03-29T10:19:59.999Z</time></trkpt><trkpt lat="42.46802064274967" lon="14.010097691321477"><ele>211.0</ele><time>2026-03-29T10:20:00.999Z</time></trkpt><trkpt lat="42.4680450388726" lon="14.010299080388672"><ele>211.0</ele><time>2026-03-29T10:20:01.999Z</time></trkpt><trkpt lat="42.46808204895026" lon="14.01049549781524"><ele>211.0</ele><time>2026-03-29T10:20:02.999Z</time></trkpt><trkpt lat="42.46815840080469" lon="14.010692881614974"><ele>211.0</ele><time>2026-03-29T10:20:03.999Z</time></trkpt><trkpt lat="42.468258162812404" lon="14.010866376311304"><ele>213.25</ele><time>2026-03-29T10:20:04.999Z</time></trkpt><trkpt lat="42.46834665446178" lon="14.011027679289342"><ele>215.5</ele><time>2026-03-29T10:20:05.999Z</time></trkpt><trkpt lat="42.468402700837565" lon="14.011198540185857"><ele>217.75</ele><time>2026-03-29T10:20:06.999Z</time></trkpt><trkpt lat="42.46842889210727" lon="14.011381063667699"><ele>220.0</ele><time>2026-03-29T10:20:07.999Z</time></trkpt><trkpt lat="42.46844443768259" lon="14.011558990553093"><ele>220.4</ele><time>2026-03-29T10:20:08.999Z</time></trkpt><trkpt lat="42.468455648645474" lon="14.011716025382986"><ele>220.8</ele><time>2026-03-29T10:20:09.999Z</time></trkpt><trkpt lat="42.46845112274506" lon="14.011840287151468"><ele>221.2</ele><time>2026-03-29T10:20:10.999Z</time></trkpt><trkpt lat="42.46841802441754" lon="14.011931688069833"><ele>221.6</ele><time>2026-03-29T10:20:11.999Z</time></trkpt><trkpt lat="42.468362697955634" lon="14.012004096100446"><ele>222.0</ele><time>2026-03-29T10:20:12.999Z</time></trkpt><trkpt lat="42.46827015736084" lon="14.012022486644346"><ele>222.0</ele><time>2026-03-29T10:20:13.999Z</time></trkpt><trkpt lat="42.46815014029669" lon="14.012021683556595"><ele>222.0</ele><time>2026-03-29T10:20:14.999Z</time></trkpt><trkpt lat="42.46801148979215" lon="14.012016633109088"><ele>222.0</ele><time>2026-03-29T10:20:15.999Z</time></trkpt><trkpt lat="42.46786614202158" lon="14.0119907035685"><ele>222.0</ele><time>2026-03-29T10:20:16.999Z</time></trkpt><trkpt lat="42.467726219868055" lon="14.011944551345039"><ele>222.33333333333331</ele><time>2026-03-29T10:20:17.999Z</time></trkpt><trkpt lat="42.4675717085378" lon="14.011898567123827"><ele>222.66666666666666</ele><time>2026-03-29T10:20:18.999Z</time></trkpt><trkpt lat="42.4674139054722" lon="14.011827240674384"><ele>223.0</ele><time>2026-03-29T10:20:19.999Z</time></trkpt><trkpt lat="42.467252187055145" lon="14.011755023394441"><ele>223.0</ele><time>2026-03-29T10:20:20.999Z</time></trkpt><trkpt lat="42.46710664469399" lon="14.011689850311773"><ele>223.0</ele><time>2026-03-29T10:20:21.999Z</time></trkpt><trkpt lat="42.466968569710666" lon="14.011631736673362"><ele>223.0</ele><time>2026-03-29T10:20:22.999Z</time></trkpt><trkpt lat="42.46683912167308" lon="14.011576614059527"><ele>223.0</ele><time>2026-03-29T10:20:23.999Z</time></trkpt><trkpt lat="42.466717296181436" lon="14.011541777593143"><ele>223.0</ele><time>2026-03-29T10:20:24.999Z</time></trkpt><trkpt lat="42.4666088346276" lon="14.011551421887006"><ele>223.0</ele><time>2026-03-29T10:20:25.999Z</time></trkpt><trkpt lat="42.46650745553768" lon="14.011613048359855"><ele>223.0</ele><time>2026-03-29T10:20:26.999Z</time></trkpt><trkpt lat="42.466426474053186" lon="14.011726354605855"><ele>223.0</ele><time>2026-03-29T10:20:27.999Z</time></trkpt><trkpt lat="42.46637736647661" lon="14.011879330350204"><ele>223.0</ele><time>2026-03-29T10:20:28.999Z</time></trkpt><trkpt lat="42.46635575585866" lon="14.012064337485949"><ele>223.0</ele><time>2026-03-29T10:20:29.999Z</time></trkpt><trkpt lat="42.46633878484271" lon="14.012276400255779"><ele>223.0</ele><time>2026-03-29T10:20:30.999Z</time></trkpt><trkpt lat="42.466311472652905" lon="14.01250012865188"><ele>223.75</ele><time>2026-03-29T10:20:31.999Z</time></trkpt><trkpt lat="42.46627246928111" lon="14.012711311037174"><ele>224.5</ele><time>2026-03-29T10:20:32.999Z</time></trkpt><trkpt lat="42.466226911100065" lon="14.012892945433244"><ele>225.25</ele><time>2026-03-29T10:20:33.999Z</time></trkpt><trkpt lat="42.4661697711904" lon="14.013027051565448"><ele>226.0</ele><time>2026-03-29T10:20:34.999Z</time></trkpt><trkpt lat="42.466087517453275" lon="14.013133152757296"><ele>226.0</ele><time>2026-03-29T10:20:35.998Z</time></trkpt><trkpt lat="42.46597136702495" lon="14.013171835408855"><ele>226.0</ele><time>2026-03-29T10:20:36.998Z</time></trkpt><trkpt lat="42.4658549646223" lon="14.013187831791347"><ele>226.0</ele><time>2026-03-29T10:20:37.998Z</time></trkpt><trkpt lat="42.46573770797156" lon="14.013128599612472"><ele>226.0</ele><time>2026-03-29T10:20:38.998Z</time></trkpt><trkpt lat="42.46559329059021" lon="14.013094716917154"><ele>226.25</ele><time>2026-03-29T10:20:39.998Z</time></trkpt><trkpt lat="42.465442938189014" lon="14.01303167323409"><ele>226.5</ele><time>2026-03-29T10:20:40.998Z</time></trkpt><trkpt lat="42.46529716703182" lon="14.012981603211829"><ele>226.75</ele><time>2026-03-29T10:20:41.998Z</time></trkpt><trkpt lat="42.4651611613864" lon="14.012952623958036"><ele>227.0</ele><time>2026-03-29T10:20:42.998Z</time></trkpt><trkpt lat="42.465017094486505" lon="14.012953071394822"><ele>227.0</ele><time>2026-03-29T10:20:43.998Z</time></trkpt><trkpt lat="42.464879352536336" lon="14.01299107204544"><ele>227.0</ele><time>2026-03-29T10:20:45Z</time></trkpt><trkpt lat="42.46475080833249" lon="14.013056036683329"><ele>227.0</ele><time>2026-03-29T10:20:46Z</time></trkpt><trkpt lat="42.464633073036" lon="14.013152584564775"><ele>227.0</ele><time>2026-03-29T10:20:47Z</time></trkpt><trkpt lat="42.46452745988458" lon="14.013286596268848"><ele>224.5</ele><time>2026-03-29T10:20:48Z</time></trkpt><trkpt lat="42.46444358871771" lon="14.01345405148544"><ele>222.0</ele><time>2026-03-29T10:20:49Z</time></trkpt><trkpt lat="42.46436868749431" lon="14.013636584433314"><ele>219.5</ele><time>2026-03-29T10:20:50Z</time></trkpt><trkpt lat="42.464304044884784" lon="14.013806286330155"><ele>217.0</ele><time>2026-03-29T10:20:51Z</time></trkpt><trkpt lat="42.46423332514406" lon="14.013979690003872"><ele>217.0</ele><time>2026-03-29T10:20:52Z</time></trkpt><trkpt lat="42.46415931978566" lon="14.01414226979561"><ele>217.0</ele><time>2026-03-29T10:20:53Z</time></trkpt><trkpt lat="42.464085893616954" lon="14.014300221797233"><ele>217.0</ele><time>2026-03-29T10:20:54Z</time></trkpt><trkpt lat="42.46401859306976" lon="14.014460596207384"><ele>217.0</ele><time>2026-03-29T10:20:55Z</time></trkpt><trkpt lat="42.46395196008245" lon="14.014622902852066"><ele>215.5</ele><time>2026-03-29T10:20:56Z</time></trkpt><trkpt lat="42.46387678813249" lon="14.014788353707775"><ele>214.0</ele><time>2026-03-29T10:20:57Z</time></trkpt><trkpt lat="42.46380381604474" lon="14.01495623073174"><ele>212.5</ele><time>2026-03-29T10:20:58Z</time></trkpt><trkpt lat="42.46372698075629" lon="14.01511539909503"><ele>211.0</ele><time>2026-03-29T10:20:59Z</time></trkpt><trkpt lat="42.463619384127746" lon="14.01525041620827"><ele>210.66666666666666</ele><time>2026-03-29T10:21:00Z</time></trkpt><trkpt lat="42.46348524013608" lon="14.015358632790118"><ele>210.33333333333331</ele><time>2026-03-29T10:21:01Z</time></trkpt><trkpt lat="42.4633462485592" lon="14.015465127416284"><ele>210.0</ele><time>2026-03-29T10:21:02Z</time></trkpt><trkpt lat="42.46321433176522" lon="14.01557062434985"><ele>210.0</ele><time>2026-03-29T10:21:03Z</time></trkpt><trkpt lat="42.46308903200462" lon="14.0156691578881"><ele>210.0</ele><time>2026-03-29T10:21:04Z</time></trkpt><trkpt lat="42.46296542614145" lon="14.015764025041344"><ele>210.0</ele><time>2026-03-29T10:21:05Z</time></trkpt><trkpt lat="42.462835732335726" lon="14.01583162321498"><ele>210.0</ele><time>2026-03-29T10:21:06Z</time></trkpt><trkpt lat="42.462705234086506" lon="14.015873351579778"><ele>213.33333333333331</ele><time>2026-03-29T10:21:07Z</time></trkpt><trkpt lat="42.46255146842057" lon="14.01587299455556"><ele>216.66666666666666</ele><time>2026-03-29T10:21:08Z</time></trkpt><trkpt lat="42.462383185053746" lon="14.015862847378362"><ele>220.0</ele><time>2026-03-29T10:21:09Z</time></trkpt><trkpt lat="42.46220552825028" lon="14.015868521634628"><ele>221.33333333333331</ele><time>2026-03-29T10:21:10Z</time></trkpt><trkpt lat="42.46203299879489" lon="14.015853813995117"><ele>222.66666666666669</ele><time>2026-03-29T10:21:11Z</time></trkpt><trkpt lat="42.46187448580243" lon="14.01583497016776"><ele>224.0</ele><time>2026-03-29T10:21:12Z</time></trkpt><trkpt lat="42.46172710817099" lon="14.015822000643789"><ele>222.75</ele><time>2026-03-29T10:21:13Z</time></trkpt><trkpt lat="42.46159184275871" lon="14.015807743987088"><ele>221.5</ele><time>2026-03-29T10:21:14Z</time></trkpt><trkpt lat="42.461462163945484" lon="14.015796547403177"><ele>220.25</ele><time>2026-03-29T10:21:15Z</time></trkpt><trkpt lat="42.461333541417666" lon="14.015789123536889"><ele>219.0</ele><time>2026-03-29T10:21:16Z</time></trkpt><trkpt lat="42.46120349327573" lon="14.015748080121929"><ele>219.0</ele><time>2026-03-29T10:21:17Z</time></trkpt><trkpt lat="42.46107524271398" lon="14.015704611734265"><ele>219.0</ele><time>2026-03-29T10:21:18Z</time></trkpt><trkpt lat="42.46094848078764" lon="14.015658319506095"><ele>219.0</ele><time>2026-03-29T10:21:19Z</time></trkpt><trkpt lat="42.46079273454718" lon="14.015773730752187"><ele>219.0</ele><time>2026-03-29T10:21:20Z</time></trkpt><trkpt lat="42.46063780631569" lon="14.015817936779664"><ele>221.0</ele><time>2026-03-29T10:21:21Z</time></trkpt><trkpt lat="42.46046249274864" lon="14.015894002286338"><ele>223.0</ele><time>2026-03-29T10:21:22Z</time></trkpt><trkpt lat="42.4602896591957" lon="14.015975487802226"><ele>225.0</ele><time>2026-03-29T10:21:23Z</time></trkpt><trkpt lat="42.460126974243956" lon="14.016045847556772"><ele>225.33333333333331</ele><time>2026-03-29T10:21:24Z</time></trkpt><trkpt lat="42.45997310201134" lon="14.016109839188863"><ele>225.66666666666666</ele><time>2026-03-29T10:21:25Z</time></trkpt><trkpt lat="42.45982092879234" lon="14.01617609283412"><ele>226.0</ele><time>2026-03-29T10:21:26Z</time></trkpt><trkpt lat="42.45967753657254" lon="14.016238800563755"><ele>227.75</ele><time>2026-03-29T10:21:27Z</time></trkpt><trkpt lat="42.45953109824005" lon="14.016294838543145"><ele>229.5</ele><time>2026-03-29T10:21:28Z</time></trkpt><trkpt lat="42.45938806031444" lon="14.016353948652913"><ele>231.25</ele><time>2026-03-29T10:21:29Z</time></trkpt><trkpt lat="42.459252120539006" lon="14.016424220924069"><ele>233.0</ele><time>2026-03-29T10:21:30Z</time></trkpt><trkpt lat="42.45911279019479" lon="14.016490659686745"><ele>233.0</ele><time>2026-03-29T10:21:31Z</time></trkpt><trkpt lat="42.45898459124018" lon="14.016547796071087"><ele>233.0</ele><time>2026-03-29T10:21:32Z</time></trkpt><trkpt lat="42.458869698867595" lon="14.016586635723103"><ele>233.0</ele><time>2026-03-29T10:21:33Z</time></trkpt><trkpt lat="42.458774110124544" lon="14.016618644986858"><ele>233.0</ele><time>2026-03-29T10:21:34Z</time></trkpt><trkpt lat="42.45869137854894" lon="14.016634345085794"><ele>233.0</ele><time>2026-03-29T10:21:35Z</time></trkpt><trkpt lat="42.45860919904724" lon="14.016608174247063"><ele>231.33333333333334</ele><time>2026-03-29T10:21:36Z</time></trkpt><trkpt lat="42.458548176801656" lon="14.016516666717346"><ele>229.66666666666669</ele><time>2026-03-29T10:21:37Z</time></trkpt><trkpt lat="42.45847650158477" lon="14.016466371561947"><ele>228.0</ele><time>2026-03-29T10:21:38Z</time></trkpt><trkpt lat="42.45841596027146" lon="14.016402993046238"><ele>226.33333333333331</ele><time>2026-03-29T10:21:39Z</time></trkpt><trkpt lat="42.45834826754692" lon="14.01637276673045"><ele>224.66666666666666</ele><time>2026-03-29T10:21:40Z</time></trkpt><trkpt lat="42.45828273336159" lon="14.016360524517562"><ele>223.0</ele><time>2026-03-29T10:21:41Z</time></trkpt><trkpt lat="42.458219683238084" lon="14.016446438768165"><ele>223.0</ele><time>2026-03-29T10:21:42Z</time></trkpt><trkpt lat="42.458164324844255" lon="14.016518551841056"><ele>223.0</ele><time>2026-03-29T10:21:43Z</time></trkpt><trkpt lat="42.45807183780871" lon="14.016574235802793"><ele>223.0</ele><time>2026-03-29T10:21:44Z</time></trkpt><trkpt lat="42.457950963261936" lon="14.016671221008126"><ele>223.0</ele><time>2026-03-29T10:21:44.999Z</time></trkpt><trkpt lat="42.4578166870675" lon="14.016778959244899"><ele>219.33333333333331</ele><time>2026-03-29T10:21:45.999Z</time></trkpt><trkpt lat="42.45768862723396" lon="14.016899557640853"><ele>215.66666666666669</ele><time>2026-03-29T10:21:46.999Z</time></trkpt><trkpt lat="42.457541191819324" lon="14.017011007726671"><ele>212.0</ele><time>2026-03-29T10:21:47.999Z</time></trkpt><trkpt lat="42.45740329491759" lon="14.017120532253957"><ele>212.0</ele><time>2026-03-29T10:21:48.999Z</time></trkpt><trkpt lat="42.45726982411507" lon="14.017226630211262"><ele>212.0</ele><time>2026-03-29T10:21:49.999Z</time></trkpt><trkpt lat="42.457140122865894" lon="14.017328900035828"><ele>212.0</ele><time>2026-03-29T10:21:50.999Z</time></trkpt><trkpt lat="42.4570082154899" lon="14.017430452531961"><ele>211.66666666666669</ele><time>2026-03-29T10:21:51.999Z</time></trkpt><trkpt lat="42.4568645435538" lon="14.017541865388447"><ele>211.33333333333331</ele><time>2026-03-29T10:21:52.999Z</time></trkpt><trkpt lat="42.456720974058165" lon="14.017656966725367"><ele>211.0</ele><time>2026-03-29T10:21:53.999Z</time></trkpt><trkpt lat="42.45658786193984" lon="14.017762767893124"><ele>211.0</ele><time>2026-03-29T10:21:54.999Z</time></trkpt><trkpt lat="42.45645838044272" lon="14.0178640353125"><ele>211.0</ele><time>2026-03-29T10:21:55.999Z</time></trkpt><trkpt lat="42.45633209257656" lon="14.017964979294787"><ele>211.0</ele><time>2026-03-29T10:21:56.999Z</time></trkpt><trkpt lat="42.45620883848701" lon="14.018058708262537"><ele>211.0</ele><time>2026-03-29T10:21:57.999Z</time></trkpt><trkpt lat="42.456099984506764" lon="14.018138123437486"><ele>210.20000000000002</ele><time>2026-03-29T10:21:58.999Z</time></trkpt><trkpt lat="42.456001773724346" lon="14.018216415270437"><ele>209.4</ele><time>2026-03-29T10:21:59.999Z</time></trkpt><trkpt lat="42.455914719614924" lon="14.0182866132856"><ele>208.6</ele><time>2026-03-29T10:22:00.999Z</time></trkpt><trkpt lat="42.45584315022847" lon="14.018351736458438"><ele>207.8</ele><time>2026-03-29T10:22:01.999Z</time></trkpt><trkpt lat="42.455777228660004" lon="14.01841430661513"><ele>207.0</ele><time>2026-03-29T10:22:02.999Z</time></trkpt><trkpt lat="42.45570328940999" lon="14.018486711113438"><ele>206.5</ele><time>2026-03-29T10:22:04.999Z</time></trkpt><trkpt lat="42.455597353184096" lon="14.018583449349007"><ele>206.0</ele><time>2026-03-29T10:22:48.998Z</time></trkpt><trkpt lat="42.45552288231159" lon="14.018679951841408"><ele>205.5</ele><time>2026-03-29T10:22:50Z</time></trkpt><trkpt lat="42.455444730805795" lon="14.01879666848215"><ele>205.0</ele><time>2026-03-29T10:22:51Z</time></trkpt><trkpt lat="42.45536456640074" lon="14.018919448929498"><ele>204.5</ele><time>2026-03-29T10:22:52Z</time></trkpt><trkpt lat="42.45529013932643" lon="14.019033365404056"><ele>204.0</ele><time>2026-03-29T10:22:53Z</time></trkpt><trkpt lat="42.45520831019349" lon="14.019159198500843"><ele>203.5</ele><time>2026-03-29T10:22:54Z</time></trkpt><trkpt lat="42.45515139657088" lon="14.019335687786187"><ele>203.0</ele><time>2026-03-29T10:22:55Z</time></trkpt><trkpt lat="42.45504691611821" lon="14.01950593311717"><ele>203.0</ele><time>2026-03-29T10:22:56Z</time></trkpt><trkpt lat="42.45493311214388" lon="14.019675962119033"><ele>203.0</ele><time>2026-03-29T10:22:57Z</time></trkpt><trkpt lat="42.45481657020645" lon="14.019851984441939"><ele>203.0</ele><time>2026-03-29T10:22:58Z</time></trkpt><trkpt lat="42.45470175756409" lon="14.020016565869735"><ele>203.66666666666669</ele><time>2026-03-29T10:22:59Z</time></trkpt><trkpt lat="42.454585614953494" lon="14.020186723604704"><ele>204.33333333333331</ele><time>2026-03-29T10:23:00Z</time></trkpt><trkpt lat="42.454477693322694" lon="14.020355086571312"><ele>205.0</ele><time>2026-03-29T10:23:01Z</time></trkpt><trkpt lat="42.45437039650318" lon="14.020517847890604"><ele>205.0</ele><time>2026-03-29T10:23:02Z</time></trkpt><trkpt lat="42.454261455805415" lon="14.020666823502498"><ele>205.0</ele><time>2026-03-29T10:23:03Z</time></trkpt><trkpt lat="42.4541265595002" lon="14.020789155373137"><ele>205.0</ele><time>2026-03-29T10:23:04Z</time></trkpt><trkpt lat="42.453984924297984" lon="14.020923273146035"><ele>203.66666666666666</ele><time>2026-03-29T10:23:05Z</time></trkpt><trkpt lat="42.45385118796546" lon="14.021029090878235"><ele>202.33333333333331</ele><time>2026-03-29T10:23:06Z</time></trkpt><trkpt lat="42.45373185819241" lon="14.02114781635889"><ele>201.0</ele><time>2026-03-29T10:23:07Z</time></trkpt><trkpt lat="42.45362029425077" lon="14.021302216589913"><ele>201.33333333333331</ele><time>2026-03-29T10:23:08Z</time></trkpt><trkpt lat="42.45351747487825" lon="14.02149723197664"><ele>201.66666666666666</ele><time>2026-03-29T10:23:09Z</time></trkpt><trkpt lat="42.45341543222429" lon="14.021709635613052"><ele>202.0</ele><time>2026-03-29T10:23:10Z</time></trkpt><trkpt lat="42.453333772319255" lon="14.02194679632634"><ele>202.0</ele><time>2026-03-29T10:23:11Z</time></trkpt><trkpt lat="42.45326294170318" lon="14.02219768404399"><ele>202.0</ele><time>2026-03-29T10:23:12Z</time></trkpt><trkpt lat="42.45319386959829" lon="14.022450615928676"><ele>202.0</ele><time>2026-03-29T10:23:13Z</time></trkpt><trkpt lat="42.453120351018455" lon="14.02268516031645"><ele>202.33333333333331</ele><time>2026-03-29T10:23:14Z</time></trkpt><trkpt lat="42.45304471871847" lon="14.022916316833175"><ele>202.66666666666669</ele><time>2026-03-29T10:23:15Z</time></trkpt><trkpt lat="42.45297191425677" lon="14.023150064537374"><ele>203.0</ele><time>2026-03-29T10:23:16Z</time></trkpt><trkpt lat="42.45289822572253" lon="14.023389700206408"><ele>204.33333333333334</ele><time>2026-03-29T10:23:17Z</time></trkpt><trkpt lat="42.452820364808765" lon="14.023622162088879"><ele>205.66666666666669</ele><time>2026-03-29T10:23:18Z</time></trkpt><trkpt lat="42.45274780853755" lon="14.023839199895356"><ele>207.0</ele><time>2026-03-29T10:23:19Z</time></trkpt><trkpt lat="42.452673624754276" lon="14.024062938918325"><ele>206.66666666666669</ele><time>2026-03-29T10:23:20Z</time></trkpt><trkpt lat="42.452588710221136" lon="14.024294783522054"><ele>206.33333333333334</ele><time>2026-03-29T10:23:21Z</time></trkpt><trkpt lat="42.45249731384021" lon="14.024522492363204"><ele>206.0</ele><time>2026-03-29T10:23:22Z</time></trkpt><trkpt lat="42.4524075048961" lon="14.024738300869343"><ele>206.0</ele><time>2026-03-29T10:23:23Z</time></trkpt><trkpt lat="42.45232970974682" lon="14.024940621725927"><ele>206.0</ele><time>2026-03-29T10:23:24Z</time></trkpt><trkpt lat="42.45226004824803" lon="14.025122472716749"><ele>206.0</ele><time>2026-03-29T10:23:25Z</time></trkpt><trkpt lat="42.45219171262783" lon="14.025283745833194"><ele>204.75</ele><time>2026-03-29T10:23:26Z</time></trkpt><trkpt lat="42.45213312328593" lon="14.025442374768385"><ele>203.5</ele><time>2026-03-29T10:23:27Z</time></trkpt><trkpt lat="42.452086425246556" lon="14.025587770902808"><ele>202.25</ele><time>2026-03-29T10:23:28Z</time></trkpt><trkpt lat="42.45204243823128" lon="14.025740301021333"><ele>201.0</ele><time>2026-03-29T10:23:29Z</time></trkpt><trkpt lat="42.45201479782398" lon="14.025927464008456"><ele>198.66666666666669</ele><time>2026-03-29T10:23:30Z</time></trkpt><trkpt lat="42.45200997297052" lon="14.026150907629923"><ele>196.33333333333334</ele><time>2026-03-29T10:23:31Z</time></trkpt><trkpt lat="42.45202375857596" lon="14.026393342852451"><ele>194.0</ele><time>2026-03-29T10:23:32Z</time></trkpt><trkpt lat="42.4520401904042" lon="14.026637604750007"><ele>192.33333333333334</ele><time>2026-03-29T10:23:33Z</time></trkpt><trkpt lat="42.45205262869494" lon="14.026876058992132"><ele>190.66666666666669</ele><time>2026-03-29T10:23:34Z</time></trkpt><trkpt lat="42.452058089657775" lon="14.027117211835316"><ele>189.0</ele><time>2026-03-29T10:23:35Z</time></trkpt><trkpt lat="42.452061687003564" lon="14.02735043936089"><ele>187.0</ele><time>2026-03-29T10:23:36Z</time></trkpt><trkpt lat="42.45206843579961" lon="14.027576705492084"><ele>185.0</ele><time>2026-03-29T10:23:37Z</time></trkpt><trkpt lat="42.4520723979706" lon="14.027799419325826"><ele>183.0</ele><time>2026-03-29T10:23:38Z</time></trkpt><trkpt lat="42.4520714354267" lon="14.028017051290982"><ele>183.0</ele><time>2026-03-29T10:23:39Z</time></trkpt><trkpt lat="42.452074919584454" lon="14.028232113750889"><ele>183.0</ele><time>2026-03-29T10:23:40Z</time></trkpt><trkpt lat="42.452071565602154" lon="14.028823513394004"><ele>181.75</ele><time>2026-03-29T10:23:43Z</time></trkpt><trkpt lat="42.45204754605016" lon="14.029003800544942"><ele>180.5</ele><time>2026-03-29T10:23:44Z</time></trkpt><trkpt lat="42.45197848565577" lon="14.029178833739262"><ele>179.25</ele><time>2026-03-29T10:23:45Z</time></trkpt><trkpt lat="42.451915527666024" lon="14.029385071025146"><ele>178.0</ele><time>2026-03-29T10:23:46Z</time></trkpt><trkpt lat="42.45183348677418" lon="14.029579007617638"><ele>177.0</ele><time>2026-03-29T10:23:47Z</time></trkpt><trkpt lat="42.45175438937656" lon="14.029786400653734"><ele>176.0</ele><time>2026-03-29T10:23:48Z</time></trkpt><trkpt lat="42.451670837040886" lon="14.029998416883819"><ele>175.0</ele><time>2026-03-29T10:23:49Z</time></trkpt><trkpt lat="42.45159225684762" lon="14.030189621632148"><ele>174.0</ele><time>2026-03-29T10:23:50Z</time></trkpt><trkpt lat="42.45151891990479" lon="14.030375630929342"><ele>173.0</ele><time>2026-03-29T10:23:51Z</time></trkpt><trkpt lat="42.45144685476391" lon="14.030568456077654"><ele>172.0</ele><time>2026-03-29T10:23:52Z</time></trkpt><trkpt lat="42.451376891607985" lon="14.030752926601357"><ele>171.33333333333334</ele><time>2026-03-29T10:23:53Z</time></trkpt><trkpt lat="42.45131280939965" lon="14.030932162325522"><ele>170.66666666666666</ele><time>2026-03-29T10:23:54Z</time></trkpt><trkpt lat="42.451238456077384" lon="14.031116147956583"><ele>170.0</ele><time>2026-03-29T10:23:55Z</time></trkpt><trkpt lat="42.45116383379064" lon="14.031303134326654"><ele>169.0</ele><time>2026-03-29T10:23:55.999Z</time></trkpt><trkpt lat="42.451097725955115" lon="14.031501636990702"><ele>168.0</ele><time>2026-03-29T10:23:56.999Z</time></trkpt><trkpt lat="42.45101266639734" lon="14.031703340290312"><ele>167.0</ele><time>2026-03-29T10:23:57.999Z</time></trkpt><trkpt lat="42.45092987857247" lon="14.031919644398707"><ele>167.0</ele><time>2026-03-29T10:23:58.999Z</time></trkpt><trkpt lat="42.45084653350248" lon="14.032136765812842"><ele>167.0</ele><time>2026-03-29T10:23:59.999Z</time></trkpt><trkpt lat="42.45075977606626" lon="14.032364297458194"><ele>167.0</ele><time>2026-03-29T10:24:00.999Z</time></trkpt><trkpt lat="42.45067256096098" lon="14.032594927273301"><ele>166.0</ele><time>2026-03-29T10:24:01.999Z</time></trkpt><trkpt lat="42.450592883444344" lon="14.032833583855115"><ele>165.0</ele><time>2026-03-29T10:24:02.999Z</time></trkpt><trkpt lat="42.45050583331832" lon="14.033049239110074"><ele>164.0</ele><time>2026-03-29T10:24:03.999Z</time></trkpt><trkpt lat="42.45042397465687" lon="14.033269031278751"><ele>162.33333333333331</ele><time>2026-03-29T10:24:04.999Z</time></trkpt><trkpt lat="42.45034576893565" lon="14.033484199533955"><ele>160.66666666666666</ele><time>2026-03-29T10:24:05.999Z</time></trkpt><trkpt lat="42.45026890787095" lon="14.033690630332348"><ele>159.0</ele><time>2026-03-29T10:24:06.999Z</time></trkpt><trkpt lat="42.450187642842316" lon="14.033900303626265"><ele>159.0</ele><time>2026-03-29T10:24:07.999Z</time></trkpt><trkpt lat="42.45010914777987" lon="14.034114382411174"><ele>159.0</ele><time>2026-03-29T10:24:08.999Z</time></trkpt><trkpt lat="42.45002846796142" lon="14.03433257195127"><ele>159.0</ele><time>2026-03-29T10:24:09.999Z</time></trkpt><trkpt lat="42.44994399466318" lon="14.034546911957548"><ele>158.0</ele><time>2026-03-29T10:24:10.999Z</time></trkpt><trkpt lat="42.44986132511544" lon="14.034751254893123"><ele>157.0</ele><time>2026-03-29T10:24:11.999Z</time></trkpt><trkpt lat="42.44978475634872" lon="14.034947178830686"><ele>156.0</ele><time>2026-03-29T10:24:12.999Z</time></trkpt><trkpt lat="42.449714069542054" lon="14.035138202983463"><ele>155.5</ele><time>2026-03-29T10:24:13.999Z</time></trkpt><trkpt lat="42.44963962960061" lon="14.035325724932475"><ele>155.0</ele><time>2026-03-29T10:24:14.999Z</time></trkpt><trkpt lat="42.44956982124773" lon="14.035506642972935"><ele>154.5</ele><time>2026-03-29T10:24:15.999Z</time></trkpt><trkpt lat="42.44950726393872" lon="14.035675512732631"><ele>154.0</ele><time>2026-03-29T10:24:16.999Z</time></trkpt><trkpt lat="42.44946382621765" lon="14.035819817903445"><ele>153.0</ele><time>2026-03-29T10:24:17.999Z</time></trkpt><trkpt lat="42.44941917671309" lon="14.035928881435844"><ele>152.0</ele><time>2026-03-29T10:24:18.999Z</time></trkpt><trkpt lat="42.449409571829285" lon="14.036059542523711"><ele>151.0</ele><time>2026-03-29T10:24:19.999Z</time></trkpt><trkpt lat="42.44943738224472" lon="14.03621307302218"><ele>150.0</ele><time>2026-03-29T10:24:20.999Z</time></trkpt><trkpt lat="42.44950414278562" lon="14.036343359993413"><ele>149.0</ele><time>2026-03-29T10:24:21.999Z</time></trkpt><trkpt lat="42.44960275051899" lon="14.036445380087484"><ele>148.5</ele><time>2026-03-29T10:24:22.999Z</time></trkpt><trkpt lat="42.4497270665202" lon="14.036535636893785"><ele>148.0</ele><time>2026-03-29T10:24:23.999Z</time></trkpt><trkpt lat="42.449859669658025" lon="14.036617234333317"><ele>147.5</ele><time>2026-03-29T10:24:24.999Z</time></trkpt><trkpt lat="42.4499943689191" lon="14.036703426768373"><ele>147.0</ele><time>2026-03-29T10:24:25.999Z</time></trkpt><trkpt lat="42.45011321147184" lon="14.03678543886108"><ele>147.0</ele><time>2026-03-29T10:24:26.999Z</time></trkpt><trkpt lat="42.450237919486725" lon="14.036870221426573"><ele>147.0</ele><time>2026-03-29T10:24:27.999Z</time></trkpt><trkpt lat="42.45036934142036" lon="14.03693222177126"><ele>147.0</ele><time>2026-03-29T10:24:28.999Z</time></trkpt><trkpt lat="42.45049198157857" lon="14.036978727810475"><ele>147.0</ele><time>2026-03-29T10:24:29.999Z</time></trkpt><trkpt lat="42.45060076688179" lon="14.037019404095979"><ele>146.4</ele><time>2026-03-29T10:24:30.999Z</time></trkpt><trkpt lat="42.4506873933946" lon="14.037083493033169"><ele>145.79999999999998</ele><time>2026-03-29T10:24:31.999Z</time></trkpt><trkpt lat="42.45074247952698" lon="14.037184265647312"><ele>145.2</ele><time>2026-03-29T10:24:32.999Z</time></trkpt><trkpt lat="42.450772031218825" lon="14.037314795379883"><ele>144.6</ele><time>2026-03-29T10:24:33.999Z</time></trkpt><trkpt lat="42.450764363436996" lon="14.037467405354699"><ele>144.0</ele><time>2026-03-29T10:24:34.999Z</time></trkpt><trkpt lat="42.45072955915063" lon="14.037623905703592"><ele>144.0</ele><time>2026-03-29T10:24:35.999Z</time></trkpt><trkpt lat="42.450683510797376" lon="14.03780108003342"><ele>144.0</ele><time>2026-03-29T10:24:36.999Z</time></trkpt><trkpt lat="42.450641854820404" lon="14.037976845221591"><ele>144.0</ele><time>2026-03-29T10:24:37.999Z</time></trkpt><trkpt lat="42.450601630537996" lon="14.038141438822876"><ele>144.0</ele><time>2026-03-29T10:24:38.999Z</time></trkpt><trkpt lat="42.45054759038396" lon="14.03829247933004"><ele>143.0</ele><time>2026-03-29T10:24:39.999Z</time></trkpt><trkpt lat="42.45047380445581" lon="14.038427001836885"><ele>142.0</ele><time>2026-03-29T10:24:40.999Z</time></trkpt><trkpt lat="42.45037040683993" lon="14.03857114953303"><ele>141.0</ele><time>2026-03-29T10:24:41.999Z</time></trkpt><trkpt lat="42.45023941215299" lon="14.038720235537307"><ele>140.0</ele><time>2026-03-29T10:24:42.999Z</time></trkpt><trkpt lat="42.45010291732496" lon="14.038868671257175"><ele>137.66666666666666</ele><time>2026-03-29T10:24:43.999Z</time></trkpt><trkpt lat="42.44995736059787" lon="14.039019253709517"><ele>135.33333333333334</ele><time>2026-03-29T10:24:44.999Z</time></trkpt><trkpt lat="42.449818369964206" lon="14.039174388718935"><ele>133.0</ele><time>2026-03-29T10:24:45.999Z</time></trkpt><trkpt lat="42.449683508978545" lon="14.03932554303766"><ele>131.0</ele><time>2026-03-29T10:24:46.999Z</time></trkpt><trkpt lat="42.44955344909958" lon="14.039464730257427"><ele>129.0</ele><time>2026-03-29T10:24:47.999Z</time></trkpt><trkpt lat="42.449432728909656" lon="14.039596337675027"><ele>127.0</ele><time>2026-03-29T10:24:48.999Z</time></trkpt><trkpt lat="42.44931302090831" lon="14.039724996276584"><ele>127.0</ele><time>2026-03-29T10:24:49.999Z</time></trkpt><trkpt lat="42.44919088752171" lon="14.039856859618926"><ele>127.0</ele><time>2026-03-29T10:24:50.999Z</time></trkpt><trkpt lat="42.44906378891537" lon="14.039997538195669"><ele>127.0</ele><time>2026-03-29T10:24:51.999Z</time></trkpt><trkpt lat="42.44893860709526" lon="14.040140273529088"><ele>126.33333333333334</ele><time>2026-03-29T10:24:52.999Z</time></trkpt><trkpt lat="42.44881594358852" lon="14.04027183382026"><ele>125.66666666666666</ele><time>2026-03-29T10:24:53.999Z</time></trkpt><trkpt lat="42.4486901439328" lon="14.040405192809958"><ele>125.0</ele><time>2026-03-29T10:24:54.999Z</time></trkpt><trkpt lat="42.448571783209545" lon="14.04053908185422"><ele>124.0</ele><time>2026-03-29T10:24:56.001Z</time></trkpt><trkpt lat="42.44845166980184" lon="14.040670236008342"><ele>123.0</ele><time>2026-03-29T10:24:57.001Z</time></trkpt><trkpt lat="42.448336616971226" lon="14.040798034688185"><ele>122.0</ele><time>2026-03-29T10:24:58.001Z</time></trkpt><trkpt lat="42.448220963629694" lon="14.040922496908761"><ele>121.75</ele><time>2026-03-29T10:24:59.001Z</time></trkpt><trkpt lat="42.4481071841578" lon="14.04104730300571"><ele>121.5</ele><time>2026-03-29T10:25:00.001Z</time></trkpt><trkpt lat="42.447999805650795" lon="14.04116831117747"><ele>121.25</ele><time>2026-03-29T10:25:01Z</time></trkpt><trkpt lat="42.447888120321615" lon="14.041286374325246"><ele>121.0</ele><time>2026-03-29T10:25:02.001Z</time></trkpt><trkpt lat="42.447783057086696" lon="14.041404184329695"><ele>119.75</ele><time>2026-03-29T10:25:03.001Z</time></trkpt><trkpt lat="42.44767720582683" lon="14.04151603693996"><ele>118.5</ele><time>2026-03-29T10:25:04Z</time></trkpt><trkpt lat="42.44756961612243" lon="14.041635601085556"><ele>117.25</ele><time>2026-03-29T10:25:05Z</time></trkpt><trkpt lat="42.447463814431536" lon="14.04175621302937"><ele>116.0</ele><time>2026-03-29T10:25:06.001Z</time></trkpt><trkpt lat="42.44735509662042" lon="14.041872037974395"><ele>116.0</ele><time>2026-03-29T10:25:07Z</time></trkpt><trkpt lat="42.4472476905509" lon="14.04198311589263"><ele>116.0</ele><time>2026-03-29T10:25:08Z</time></trkpt><trkpt lat="42.447144628796366" lon="14.042097682620035"><ele>116.0</ele><time>2026-03-29T10:25:09.001Z</time></trkpt><trkpt lat="42.44704461367194" lon="14.042214018026696"><ele>116.0</ele><time>2026-03-29T10:25:10.001Z</time></trkpt><trkpt lat="42.44694439494322" lon="14.042325507777122"><ele>115.5</ele><time>2026-03-29T10:25:11Z</time></trkpt><trkpt lat="42.4468476407378" lon="14.042429464776625"><ele>115.0</ele><time>2026-03-29T10:25:12Z</time></trkpt><trkpt lat="42.44675014165791" lon="14.042537788460178"><ele>114.5</ele><time>2026-03-29T10:25:13Z</time></trkpt><trkpt lat="42.44665878113237" lon="14.042640435823179"><ele>114.0</ele><time>2026-03-29T10:25:14Z</time></trkpt><trkpt lat="42.44657049298665" lon="14.042747349917953"><ele>114.0</ele><time>2026-03-29T10:25:15Z</time></trkpt><trkpt lat="42.44648928099599" lon="14.042839680313445"><ele>114.0</ele><time>2026-03-29T10:25:16Z</time></trkpt><trkpt lat="42.44641626859028" lon="14.042914442167055"><ele>114.0</ele><time>2026-03-29T10:25:17Z</time></trkpt><trkpt lat="42.44633680719596" lon="14.0429833682528"><ele>114.0</ele><time>2026-03-29T10:25:18Z</time></trkpt><trkpt lat="42.4462453191302" lon="14.043055855346019"><ele>114.0</ele><time>2026-03-29T10:25:18.999Z</time></trkpt><trkpt lat="42.44616749278533" lon="14.04314549451995"><ele>113.4</ele><time>2026-03-29T10:25:19.999Z</time></trkpt><trkpt lat="42.44610508424531" lon="14.04324276285987"><ele>112.80000000000001</ele><time>2026-03-29T10:25:20.999Z</time></trkpt><trkpt lat="42.446064813248746" lon="14.043340511710273"><ele>112.19999999999999</ele><time>2026-03-29T10:25:21.999Z</time></trkpt><trkpt lat="42.44604869928828" lon="14.043441694980698"><ele>111.6</ele><time>2026-03-29T10:25:22.999Z</time></trkpt><trkpt lat="42.44606850748912" lon="14.043560197285112"><ele>111.0</ele><time>2026-03-29T10:25:23.999Z</time></trkpt><trkpt lat="42.446092115810295" lon="14.04370978004244"><ele>110.25</ele><time>2026-03-29T10:25:24.999Z</time></trkpt><trkpt lat="42.44611558422301" lon="14.043864462813877"><ele>109.5</ele><time>2026-03-29T10:25:25.999Z</time></trkpt><trkpt lat="42.44613050820439" lon="14.04401635312671"><ele>108.75</ele><time>2026-03-29T10:25:26.999Z</time></trkpt><trkpt lat="42.44613855136986" lon="14.044167002439591"><ele>108.0</ele><time>2026-03-29T10:25:27.999Z</time></trkpt><trkpt lat="42.446154185090464" lon="14.04432012142942"><ele>107.66666666666667</ele><time>2026-03-29T10:25:28.999Z</time></trkpt><trkpt lat="42.44617033296375" lon="14.044448778974658"><ele>107.33333333333334</ele><time>2026-03-29T10:25:29.999Z</time></trkpt><trkpt lat="42.44618592810264" lon="14.044566834700627"><ele>107.0</ele><time>2026-03-29T10:25:30.999Z</time></trkpt><trkpt lat="42.44619569738843" lon="14.044669836776666"><ele>106.66666666666667</ele><time>2026-03-29T10:25:31.999Z</time></trkpt><trkpt lat="42.446201983901425" lon="14.044771985575881"><ele>106.33333333333334</ele><time>2026-03-29T10:25:32.999Z</time></trkpt><trkpt lat="42.44619798840911" lon="14.044871385768744"><ele>106.0</ele><time>2026-03-29T10:25:33.999Z</time></trkpt><trkpt lat="42.4461619528528" lon="14.044956613586471"><ele>106.00000000000001</ele><time>2026-03-29T10:25:34.999Z</time></trkpt><trkpt lat="42.44610090219435" lon="14.045025845140474"><ele>106.0</ele><time>2026-03-29T10:25:35.999Z</time></trkpt><trkpt lat="42.446022545672434" lon="14.045074242478368"><ele>106.0</ele><time>2026-03-29T10:25:36.999Z</time></trkpt><trkpt lat="42.44594058598562" lon="14.045093133085988"><ele>106.0</ele><time>2026-03-29T10:25:37.999Z</time></trkpt><trkpt lat="42.4458564945179" lon="14.045077599257711"><ele>106.00000000000001</ele><time>2026-03-29T10:25:38.999Z</time></trkpt><trkpt lat="42.445782101182544" lon="14.0450141774945"><ele>106.0</ele><time>2026-03-29T10:25:39.999Z</time></trkpt><trkpt lat="42.44573072608792" lon="14.044915589393637"><ele>106.00000000000001</ele><time>2026-03-29T10:25:40.999Z</time></trkpt><trkpt lat="42.44572597006811" lon="14.044784951840265"><ele>106.0</ele><time>2026-03-29T10:25:41.999Z</time></trkpt><trkpt lat="42.44573198120475" lon="14.04466160442989"><ele>106.0</ele><time>2026-03-29T10:25:42.999Z</time></trkpt><trkpt lat="42.44573120137227" lon="14.044547561765828"><ele>106.0</ele><time>2026-03-29T10:25:43.999Z</time></trkpt><trkpt lat="42.44574055020492" lon="14.04444506723183"><ele>106.00000000000001</ele><time>2026-03-29T10:25:44.999Z</time></trkpt><trkpt lat="42.44572538606329" lon="14.044348147030577"><ele>106.0</ele><time>2026-03-29T10:25:45.999Z</time></trkpt><trkpt lat="42.44567580031411" lon="14.044252598188447"><ele>106.0</ele><time>2026-03-29T10:25:46.999Z</time></trkpt><trkpt lat="42.445598219886655" lon="14.044180183604421"><ele>106.0</ele><time>2026-03-29T10:25:47.999Z</time></trkpt><trkpt lat="42.4455078754864" lon="14.044139549007873"><ele>106.0</ele><time>2026-03-29T10:25:48.999Z</time></trkpt><trkpt lat="42.44540280575214" lon="14.044144087738099"><ele>106.0</ele><time>2026-03-29T10:25:49.999Z</time></trkpt><trkpt lat="42.445284825334944" lon="14.044200622142593"><ele>106.0</ele><time>2026-03-29T10:25:50.999Z</time></trkpt><trkpt lat="42.4451530777892" lon="14.044241834193759"><ele>103.25</ele><time>2026-03-29T10:25:51.999Z</time></trkpt><trkpt lat="42.445029477294504" lon="14.044291278834605"><ele>100.5</ele><time>2026-03-29T10:25:52.999Z</time></trkpt><trkpt lat="42.44490531244343" lon="14.044341294779363"><ele>97.75</ele><time>2026-03-29T10:25:53.999Z</time></trkpt><trkpt lat="42.44479375638061" lon="14.044404212509846"><ele>95.0</ele><time>2026-03-29T10:25:54.999Z</time></trkpt><trkpt lat="42.44468151611634" lon="14.044448374966485"><ele>94.25</ele><time>2026-03-29T10:25:55.999Z</time></trkpt><trkpt lat="42.44457590873611" lon="14.044489683911545"><ele>93.5</ele><time>2026-03-29T10:25:56.999Z</time></trkpt><trkpt lat="42.4444667691049" lon="14.044531669097685"><ele>92.75</ele><time>2026-03-29T10:25:57.999Z</time></trkpt><trkpt lat="42.44435066432015" lon="14.044576221979206"><ele>92.0</ele><time>2026-03-29T10:25:58.999Z</time></trkpt><trkpt lat="42.444228567747196" lon="14.044624422717398"><ele>92.0</ele><time>2026-03-29T10:25:59.999Z</time></trkpt><trkpt lat="42.444109575300196" lon="14.044666708744993"><ele>92.0</ele><time>2026-03-29T10:26:00.999Z</time></trkpt><trkpt lat="42.443996229565926" lon="14.044709649416179"><ele>92.0</ele><time>2026-03-29T10:26:01.999Z</time></trkpt><trkpt lat="42.443882180196574" lon="14.044753927544795"><ele>92.0</ele><time>2026-03-29T10:26:02.999Z</time></trkpt><trkpt lat="42.443769302708255" lon="14.044798894086462"><ele>91.19999999999999</ele><time>2026-03-29T10:26:03.999Z</time></trkpt><trkpt lat="42.44366300194287" lon="14.04484381790013"><ele>90.4</ele><time>2026-03-29T10:26:04.999Z</time></trkpt><trkpt lat="42.44356513097571" lon="14.044885251938625"><ele>89.6</ele><time>2026-03-29T10:26:05.999Z</time></trkpt><trkpt lat="42.443476538853155" lon="14.044915655265312"><ele>88.80000000000001</ele><time>2026-03-29T10:26:06.999Z</time></trkpt><trkpt lat="42.4433915616489" lon="14.044938669938153"><ele>88.0</ele><time>2026-03-29T10:26:07.999Z</time></trkpt><trkpt lat="42.44331850814478" lon="14.044962955768419"><ele>88.0</ele><time>2026-03-29T10:26:08.999Z</time></trkpt><trkpt lat="42.44325497769032" lon="14.044984240539893"><ele>88.0</ele><time>2026-03-29T10:26:09.999Z</time></trkpt><trkpt lat="42.443155204199584" lon="14.045005965655832"><ele>88.0</ele><time>2026-03-29T10:26:11.999Z</time></trkpt><trkpt lat="42.44307625882726" lon="14.045025613774607"><ele>88.0</ele><time>2026-03-29T10:26:14.998Z</time></trkpt><trkpt lat="42.44301566765608" lon="14.045049600561486"><ele>88.0</ele><time>2026-03-29T10:26:17.998Z</time></trkpt><trkpt lat="42.442934977514824" lon="14.045033241273075"><ele>88.0</ele><time>2026-03-29T10:26:19.998Z</time></trkpt><trkpt lat="42.44286057630963" lon="14.045022340082586"><ele>88.0</ele><time>2026-03-29T10:26:21.998Z</time></trkpt><trkpt lat="42.44280638972591" lon="14.045143924435825"><ele>88.0</ele><time>2026-03-29T10:26:23.998Z</time></trkpt><trkpt lat="42.442870672001575" lon="14.045266773095173"><ele>88.0</ele><time>2026-03-29T10:26:25.998Z</time></trkpt><trkpt lat="42.44293214315451" lon="14.045289991684092"><ele>88.0</ele><time>2026-03-29T10:26:26.998Z</time></trkpt><trkpt lat="42.44298137501161" lon="14.045394660418014"><ele>88.0</ele><time>2026-03-29T10:26:27.998Z</time></trkpt><trkpt lat="42.44303461774451" lon="14.045502317942255"><ele>88.0</ele><time>2026-03-29T10:26:28.998Z</time></trkpt><trkpt lat="42.443081515820516" lon="14.045609805592287"><ele>88.0</ele><time>2026-03-29T10:26:29.998Z</time></trkpt><trkpt lat="42.443125266699106" lon="14.045729140799601"><ele>88.0</ele><time>2026-03-29T10:26:30.998Z</time></trkpt><trkpt lat="42.44317535998057" lon="14.045859814805626"><ele>88.0</ele><time>2026-03-29T10:26:31.998Z</time></trkpt><trkpt lat="42.44323344390358" lon="14.046005164627342"><ele>88.0</ele><time>2026-03-29T10:26:32.998Z</time></trkpt><trkpt lat="42.4432970307044" lon="14.046164473095347"><ele>87.75</ele><time>2026-03-29T10:26:33.998Z</time></trkpt><trkpt lat="42.4433604875316" lon="14.046332092274561"><ele>87.5</ele><time>2026-03-29T10:26:34.998Z</time></trkpt><trkpt lat="42.44341544241093" lon="14.046494265614964"><ele>87.25</ele><time>2026-03-29T10:26:35.998Z</time></trkpt><trkpt lat="42.443478478296086" lon="14.046661231594866"><ele>87.0</ele><time>2026-03-29T10:26:36.998Z</time></trkpt><trkpt lat="42.44353741132765" lon="14.046815405157819"><ele>86.6</ele><time>2026-03-29T10:26:37.998Z</time></trkpt><trkpt lat="42.443590581056874" lon="14.046962826064973"><ele>86.19999999999999</ele><time>2026-03-29T10:26:38.998Z</time></trkpt><trkpt lat="42.443647172763605" lon="14.047111502086565"><ele>85.8</ele><time>2026-03-29T10:26:39.998Z</time></trkpt><trkpt lat="42.44368891775785" lon="14.047241218934783"><ele>85.4</ele><time>2026-03-29T10:26:40.998Z</time></trkpt><trkpt lat="42.44372456215986" lon="14.047361065171584"><ele>85.0</ele><time>2026-03-29T10:26:41.998Z</time></trkpt><trkpt lat="42.44380275880736" lon="14.047570748304143"><ele>85.0</ele><time>2026-03-29T10:26:42.998Z</time></trkpt><trkpt lat="42.44385739552993" lon="14.047713366123213"><ele>85.0</ele><time>2026-03-29T10:26:43.998Z</time></trkpt><trkpt lat="42.44391497301686" lon="14.047840591886112"><ele>85.0</ele><time>2026-03-29T10:26:44.998Z</time></trkpt><trkpt lat="42.44397077319603" lon="14.047973687429321"><ele>85.0</ele><time>2026-03-29T10:26:45.998Z</time></trkpt><trkpt lat="42.44401422459158" lon="14.048084888920897"><ele>85.0</ele><time>2026-03-29T10:26:46.998Z</time></trkpt><trkpt lat="42.44404894755975" lon="14.048181370852978"><ele>85.0</ele><time>2026-03-29T10:26:47.998Z</time></trkpt><trkpt lat="42.444090688702424" lon="14.048285325229436"><ele>85.0</ele><time>2026-03-29T10:26:48.998Z</time></trkpt><trkpt lat="42.444132008869715" lon="14.048405379811749"><ele>85.0</ele><time>2026-03-29T10:26:49.998Z</time></trkpt><trkpt lat="42.4441825854444" lon="14.048532645618176"><ele>85.0</ele><time>2026-03-29T10:26:50.998Z</time></trkpt><trkpt lat="42.44423154749147" lon="14.048663711685474"><ele>85.0</ele><time>2026-03-29T10:26:51.998Z</time></trkpt><trkpt lat="42.4442822737523" lon="14.04879974860813"><ele>84.8</ele><time>2026-03-29T10:26:52.998Z</time></trkpt><trkpt lat="42.444333624476755" lon="14.048935990771685"><ele>84.6</ele><time>2026-03-29T10:26:53.998Z</time></trkpt><trkpt lat="42.44438332224097" lon="14.049060725317714"><ele>84.4</ele><time>2026-03-29T10:26:54.998Z</time></trkpt><trkpt lat="42.44442799532752" lon="14.049192562256152"><ele>84.2</ele><time>2026-03-29T10:26:55.998Z</time></trkpt><trkpt lat="42.44448040861911" lon="14.04933923685632"><ele>84.0</ele><time>2026-03-29T10:26:56.998Z</time></trkpt><trkpt lat="42.44455087354417" lon="14.049489076198478"><ele>83.75</ele><time>2026-03-29T10:26:57.998Z</time></trkpt><trkpt lat="42.44461885714591" lon="14.049653858133125"><ele>83.5</ele><time>2026-03-29T10:26:58.998Z</time></trkpt><trkpt lat="42.44467963660698" lon="14.049832272847041"><ele>83.25</ele><time>2026-03-29T10:26:59.998Z</time></trkpt><trkpt lat="42.44474770287566" lon="14.050018562486658"><ele>83.0</ele><time>2026-03-29T10:27:00.998Z</time></trkpt><trkpt lat="42.44481496608799" lon="14.050201189409988"><ele>82.25</ele><time>2026-03-29T10:27:02Z</time></trkpt><trkpt lat="42.44487581731437" lon="14.05036703442607"><ele>81.5</ele><time>2026-03-29T10:27:03Z</time></trkpt><trkpt lat="42.44494340280937" lon="14.050535483193965"><ele>80.75</ele><time>2026-03-29T10:27:04Z</time></trkpt><trkpt lat="42.44502054780849" lon="14.050720297320279"><ele>80.0</ele><time>2026-03-29T10:27:05Z</time></trkpt><trkpt lat="42.445089721742306" lon="14.050906410253381"><ele>79.66666666666667</ele><time>2026-03-29T10:27:06Z</time></trkpt><trkpt lat="42.445154960678636" lon="14.051093491081257"><ele>79.33333333333333</ele><time>2026-03-29T10:27:07Z</time></trkpt><trkpt lat="42.44522043281934" lon="14.051277570513369"><ele>79.0</ele><time>2026-03-29T10:27:08Z</time></trkpt><trkpt lat="42.44529536824284" lon="14.051457163350099"><ele>78.33333333333333</ele><time>2026-03-29T10:27:09Z</time></trkpt><trkpt lat="42.44537136080447" lon="14.051658718777968"><ele>77.66666666666667</ele><time>2026-03-29T10:27:10Z</time></trkpt><trkpt lat="42.445447544500645" lon="14.051908896569376"><ele>77.0</ele><time>2026-03-29T10:27:11Z</time></trkpt><trkpt lat="42.44554541556687" lon="14.052172538180002"><ele>76.66666666666667</ele><time>2026-03-29T10:27:12Z</time></trkpt><trkpt lat="42.44563689916446" lon="14.052417713298983"><ele>76.33333333333333</ele><time>2026-03-29T10:27:13Z</time></trkpt><trkpt lat="42.4457291750117" lon="14.052665011407253"><ele>76.0</ele><time>2026-03-29T10:27:14Z</time></trkpt><trkpt lat="42.445829807592396" lon="14.052934703944693"><ele>76.0</ele><time>2026-03-29T10:27:15Z</time></trkpt><trkpt lat="42.445928122036406" lon="14.053202298562804"><ele>76.0</ele><time>2026-03-29T10:27:16Z</time></trkpt><trkpt lat="42.44603277619078" lon="14.053486470044536"><ele>76.0</ele><time>2026-03-29T10:27:17Z</time></trkpt><trkpt lat="42.44613836364872" lon="14.05376372814044"><ele>76.0</ele><time>2026-03-29T10:27:18Z</time></trkpt><trkpt lat="42.44622311120239" lon="14.05402328543787"><ele>76.0</ele><time>2026-03-29T10:27:19Z</time></trkpt><trkpt lat="42.44632259548798" lon="14.054280453177277"><ele>76.0</ele><time>2026-03-29T10:27:20Z</time></trkpt><trkpt lat="42.44642522116234" lon="14.054547222704533"><ele>76.0</ele><time>2026-03-29T10:27:21Z</time></trkpt><trkpt lat="42.44652187529137" lon="14.054813668248665"><ele>76.0</ele><time>2026-03-29T10:27:22Z</time></trkpt><trkpt lat="42.446621269181485" lon="14.05506281419038"><ele>76.0</ele><time>2026-03-29T10:27:22.999Z</time></trkpt><trkpt lat="42.44671249056929" lon="14.055299131546807"><ele>76.0</ele><time>2026-03-29T10:27:23.999Z</time></trkpt><trkpt lat="42.44679747297874" lon="14.055541174664857"><ele>76.0</ele><time>2026-03-29T10:27:24.999Z</time></trkpt><trkpt lat="42.44688333982231" lon="14.05578182699508"><ele>75.66666666666666</ele><time>2026-03-29T10:27:25.999Z</time></trkpt><trkpt lat="42.44696948289674" lon="14.056006536735707"><ele>75.33333333333333</ele><time>2026-03-29T10:27:26.999Z</time></trkpt><trkpt lat="42.44705226305866" lon="14.056228542947332"><ele>75.0</ele><time>2026-03-29T10:27:27.999Z</time></trkpt><trkpt lat="42.44713245523685" lon="14.056437089135985"><ele>74.33333333333333</ele><time>2026-03-29T10:27:28.999Z</time></trkpt><trkpt lat="42.447210836291234" lon="14.056647710469592"><ele>73.66666666666666</ele><time>2026-03-29T10:27:29.999Z</time></trkpt><trkpt lat="42.447287501802954" lon="14.056855403617844"><ele>73.0</ele><time>2026-03-29T10:27:30.999Z</time></trkpt><trkpt lat="42.44736128090962" lon="14.057062374751148"><ele>73.0</ele><time>2026-03-29T10:27:31.999Z</time></trkpt><trkpt lat="42.44743916724632" lon="14.057276284095634"><ele>73.0</ele><time>2026-03-29T10:27:32.999Z</time></trkpt><trkpt lat="42.44752037347548" lon="14.057481238091633"><ele>73.0</ele><time>2026-03-29T10:27:33.999Z</time></trkpt><trkpt lat="42.44760248275638" lon="14.057698792384757"><ele>71.66666666666666</ele><time>2026-03-29T10:27:34.999Z</time></trkpt><trkpt lat="42.44768428564673" lon="14.057916953652645"><ele>70.33333333333333</ele><time>2026-03-29T10:27:35.999Z</time></trkpt><trkpt lat="42.44776533512432" lon="14.058135501913968"><ele>69.0</ele><time>2026-03-29T10:27:36.999Z</time></trkpt><trkpt lat="42.44785103333253" lon="14.058357949979166"><ele>69.0</ele><time>2026-03-29T10:27:37.999Z</time></trkpt><trkpt lat="42.44793709628741" lon="14.05858118618047"><ele>69.0</ele><time>2026-03-29T10:27:38.999Z</time></trkpt><trkpt lat="42.44801899274713" lon="14.058804096062492"><ele>69.0</ele><time>2026-03-29T10:27:39.999Z</time></trkpt><trkpt lat="42.44810180135006" lon="14.059027174716025"><ele>69.0</ele><time>2026-03-29T10:27:40.999Z</time></trkpt><trkpt lat="42.44818444064993" lon="14.05924865559339"><ele>69.0</ele><time>2026-03-29T10:27:41.999Z</time></trkpt><trkpt lat="42.44827047390854" lon="14.05947442118972"><ele>69.0</ele><time>2026-03-29T10:27:42.999Z</time></trkpt><trkpt lat="42.448357550446964" lon="14.059698564065897"><ele>69.0</ele><time>2026-03-29T10:27:43.999Z</time></trkpt><trkpt lat="42.44844521494895" lon="14.059936822351135"><ele>69.0</ele><time>2026-03-29T10:27:44.999Z</time></trkpt><trkpt lat="42.448535947408246" lon="14.060180567883727"><ele>69.0</ele><time>2026-03-29T10:27:45.999Z</time></trkpt><trkpt lat="42.44862622758504" lon="14.060425593048882"><ele>68.0</ele><time>2026-03-29T10:27:46.999Z</time></trkpt><trkpt lat="42.44871653787792" lon="14.060670416321251"><ele>67.0</ele><time>2026-03-29T10:27:47.999Z</time></trkpt><trkpt lat="42.44881085422451" lon="14.060912596399222"><ele>66.0</ele><time>2026-03-29T10:27:48.999Z</time></trkpt><trkpt lat="42.44890026240404" lon="14.061156518422186"><ele>65.33333333333333</ele><time>2026-03-29T10:27:49.999Z</time></trkpt><trkpt lat="42.44898777624078" lon="14.061400172186897"><ele>64.66666666666666</ele><time>2026-03-29T10:27:50.999Z</time></trkpt><trkpt lat="42.44908000060657" lon="14.061644189102294"><ele>64.0</ele><time>2026-03-29T10:27:51.999Z</time></trkpt><trkpt lat="42.449170322027825" lon="14.061883599945705"><ele>64.0</ele><time>2026-03-29T10:27:52.999Z</time></trkpt><trkpt lat="42.449258721871104" lon="14.062122075331038"><ele>64.0</ele><time>2026-03-29T10:27:53.999Z</time></trkpt><trkpt lat="42.4493478991093" lon="14.062363923985446"><ele>64.0</ele><time>2026-03-29T10:27:54.999Z</time></trkpt><trkpt lat="42.44943530549756" lon="14.062597788439756"><ele>64.0</ele><time>2026-03-29T10:27:55.999Z</time></trkpt><trkpt lat="42.4495189874385" lon="14.06283250253189"><ele>64.0</ele><time>2026-03-29T10:27:56.999Z</time></trkpt><trkpt lat="42.44961021762728" lon="14.063077104939042"><ele>64.0</ele><time>2026-03-29T10:27:57.999Z</time></trkpt><trkpt lat="42.449704466910106" lon="14.063331512393619"><ele>64.0</ele><time>2026-03-29T10:27:58.999Z</time></trkpt><trkpt lat="42.449804237422214" lon="14.063592761216396"><ele>64.0</ele><time>2026-03-29T10:27:59.999Z</time></trkpt><trkpt lat="42.44990446486257" lon="14.063861103029076"><ele>64.0</ele><time>2026-03-29T10:28:00.999Z</time></trkpt><trkpt lat="42.45000462707997" lon="14.064134313205464"><ele>63.0</ele><time>2026-03-29T10:28:01.999Z</time></trkpt><trkpt lat="42.45011082514076" lon="14.06440799582733"><ele>62.0</ele><time>2026-03-29T10:28:02.999Z</time></trkpt><trkpt lat="42.45021865710454" lon="14.064681079834779"><ele>62.0</ele><time>2026-03-29T10:28:03.999Z</time></trkpt><trkpt lat="42.45031539291668" lon="14.064937483650246"><ele>62.0</ele><time>2026-03-29T10:28:04.999Z</time></trkpt><trkpt lat="42.45040488937979" lon="14.065179812841198"><ele>62.0</ele><time>2026-03-29T10:28:05.999Z</time></trkpt><trkpt lat="42.45049139895778" lon="14.065415950909765"><ele>61.66666666666667</ele><time>2026-03-29T10:28:06.999Z</time></trkpt><trkpt lat="42.45057574779585" lon="14.065653269718686"><ele>61.33333333333333</ele><time>2026-03-29T10:28:07.999Z</time></trkpt><trkpt lat="42.45066342161183" lon="14.065896771775408"><ele>61.0</ele><time>2026-03-29T10:28:08.999Z</time></trkpt><trkpt lat="42.45075761891277" lon="14.066149396925994"><ele>61.666666666666664</ele><time>2026-03-29T10:28:09.999Z</time></trkpt><trkpt lat="42.45085315576716" lon="14.066393155961311"><ele>62.33333333333333</ele><time>2026-03-29T10:28:10.999Z</time></trkpt><trkpt lat="42.45094228808554" lon="14.066625488568027"><ele>63.0</ele><time>2026-03-29T10:28:11.999Z</time></trkpt><trkpt lat="42.45102468434974" lon="14.066848634614292"><ele>63.0</ele><time>2026-03-29T10:28:12.999Z</time></trkpt><trkpt lat="42.45110177789377" lon="14.067065815541994"><ele>63.0</ele><time>2026-03-29T10:28:13.999Z</time></trkpt><trkpt lat="42.451180003455676" lon="14.067277140078543"><ele>63.0</ele><time>2026-03-29T10:28:14.999Z</time></trkpt><trkpt lat="42.45126311964626" lon="14.06749359253132"><ele>62.66666666666667</ele><time>2026-03-29T10:28:15.999Z</time></trkpt><trkpt lat="42.451348568096385" lon="14.067713987271887"><ele>62.333333333333336</ele><time>2026-03-29T10:28:16.999Z</time></trkpt><trkpt lat="42.451432274675504" lon="14.06792692274112"><ele>62.0</ele><time>2026-03-29T10:28:17.999Z</time></trkpt><trkpt lat="42.45150865543503" lon="14.068120814748568"><ele>62.0</ele><time>2026-03-29T10:28:18.998Z</time></trkpt><trkpt lat="42.4515772278256" lon="14.068300770025935"><ele>62.0</ele><time>2026-03-29T10:28:19.998Z</time></trkpt><trkpt lat="42.45164182794264" lon="14.06847939987836"><ele>62.0</ele><time>2026-03-29T10:28:20.998Z</time></trkpt><trkpt lat="42.451703891210464" lon="14.06866385904996"><ele>62.0</ele><time>2026-03-29T10:28:21.998Z</time></trkpt><trkpt lat="42.45176736548556" lon="14.068839563904472"><ele>62.0</ele><time>2026-03-29T10:28:22.998Z</time></trkpt><trkpt lat="42.451829617036516" lon="14.069008869243916"><ele>62.0</ele><time>2026-03-29T10:28:23.998Z</time></trkpt><trkpt lat="42.451888202156425" lon="14.069167896082158"><ele>62.0</ele><time>2026-03-29T10:28:24.998Z</time></trkpt><trkpt lat="42.45194623728318" lon="14.069338226013496"><ele>62.0</ele><time>2026-03-29T10:28:25.998Z</time></trkpt><trkpt lat="42.45200413699923" lon="14.069502075295306"><ele>62.0</ele><time>2026-03-29T10:28:26.998Z</time></trkpt><trkpt lat="42.452068638725976" lon="14.069662281501625"><ele>62.0</ele><time>2026-03-29T10:28:27.998Z</time></trkpt><trkpt lat="42.452133651999425" lon="14.069823714509262"><ele>62.0</ele><time>2026-03-29T10:28:28.998Z</time></trkpt><trkpt lat="42.45220101026516" lon="14.069994816811908"><ele>62.0</ele><time>2026-03-29T10:28:29.998Z</time></trkpt><trkpt lat="42.45227065539178" lon="14.070178027386326"><ele>61.66666666666667</ele><time>2026-03-29T10:28:30.998Z</time></trkpt><trkpt lat="42.45234403309834" lon="14.070377065674313"><ele>61.33333333333333</ele><time>2026-03-29T10:28:31.998Z</time></trkpt><trkpt lat="42.452412487457" lon="14.070561261560936"><ele>61.0</ele><time>2026-03-29T10:28:32.998Z</time></trkpt><trkpt lat="42.4524771336591" lon="14.070737228418102"><ele>60.75</ele><time>2026-03-29T10:28:33.998Z</time></trkpt><trkpt lat="42.45254141727815" lon="14.070911772026397"><ele>60.5</ele><time>2026-03-29T10:28:34.998Z</time></trkpt><trkpt lat="42.45260475406748" lon="14.071080402362478"><ele>60.25</ele><time>2026-03-29T10:28:35.998Z</time></trkpt><trkpt lat="42.452675324386185" lon="14.07126459298759"><ele>60.0</ele><time>2026-03-29T10:28:36.998Z</time></trkpt><trkpt lat="42.452748916746216" lon="14.071460250149434"><ele>59.66666666666667</ele><time>2026-03-29T10:28:37.998Z</time></trkpt><trkpt lat="42.45282293679378" lon="14.071647863273244"><ele>59.333333333333336</ele><time>2026-03-29T10:28:38.998Z</time></trkpt><trkpt lat="42.45289154792723" lon="14.071828771797412"><ele>59.0</ele><time>2026-03-29T10:28:39.998Z</time></trkpt><trkpt lat="42.45295660530949" lon="14.072005510453826"><ele>58.75</ele><time>2026-03-29T10:28:40.998Z</time></trkpt><trkpt lat="42.453020922400924" lon="14.07217333043908"><ele>58.5</ele><time>2026-03-29T10:28:41.998Z</time></trkpt><trkpt lat="42.45307846304996" lon="14.072324675298576"><ele>58.25</ele><time>2026-03-29T10:28:42.998Z</time></trkpt><trkpt lat="42.453133675956984" lon="14.072481124618403"><ele>58.0</ele><time>2026-03-29T10:28:43.998Z</time></trkpt><trkpt lat="42.45318681111005" lon="14.072624557544554"><ele>58.4</ele><time>2026-03-29T10:28:44.998Z</time></trkpt><trkpt lat="42.45323793430945" lon="14.072765058924121"><ele>58.8</ele><time>2026-03-29T10:28:45.998Z</time></trkpt><trkpt lat="42.45328975236345" lon="14.072897077181592"><ele>59.2</ele><time>2026-03-29T10:28:46.998Z</time></trkpt><trkpt lat="42.45333552323878" lon="14.073025214502652"><ele>59.6</ele><time>2026-03-29T10:28:47.998Z</time></trkpt><trkpt lat="42.453375565729296" lon="14.073147360564366"><ele>60.0</ele><time>2026-03-29T10:28:48.998Z</time></trkpt><trkpt lat="42.45342163128251" lon="14.073268113680905"><ele>59.833333333333336</ele><time>2026-03-29T10:28:49.998Z</time></trkpt><trkpt lat="42.45346823934674" lon="14.073385277188176"><ele>59.66666666666667</ele><time>2026-03-29T10:28:50.998Z</time></trkpt><trkpt lat="42.45351165976578" lon="14.073499654748518"><ele>59.5</ele><time>2026-03-29T10:28:51.998Z</time></trkpt><trkpt lat="42.453553859937166" lon="14.073610673134768"><ele>59.333333333333336</ele><time>2026-03-29T10:28:52.998Z</time></trkpt><trkpt lat="42.45359129296863" lon="14.073708422247831"><ele>59.16666666666667</ele><time>2026-03-29T10:28:53.998Z</time></trkpt><trkpt lat="42.45362673041773" lon="14.073799904161632"><ele>59.0</ele><time>2026-03-29T10:28:54.998Z</time></trkpt><trkpt lat="42.453671321546175" lon="14.073911224837508"><ele>59.0</ele><time>2026-03-29T10:28:55.998Z</time></trkpt><trkpt lat="42.453719695577625" lon="14.074058003996798"><ele>59.0</ele><time>2026-03-29T10:28:56.998Z</time></trkpt><trkpt lat="42.45378602456185" lon="14.074236172251783"><ele>59.0</ele><time>2026-03-29T10:28:57.998Z</time></trkpt><trkpt lat="42.45386244956769" lon="14.074441464282756"><ele>59.0</ele><time>2026-03-29T10:28:58.998Z</time></trkpt><trkpt lat="42.45393857834027" lon="14.074644210685504"><ele>58.75</ele><time>2026-03-29T10:28:59.998Z</time></trkpt><trkpt lat="42.45400743469505" lon="14.074828493383388"><ele>58.5</ele><time>2026-03-29T10:29:00.998Z</time></trkpt><trkpt lat="42.45406371695333" lon="14.074978778216702"><ele>58.25</ele><time>2026-03-29T10:29:01.998Z</time></trkpt><trkpt lat="42.45412706560198" lon="14.075072669365065"><ele>58.0</ele><time>2026-03-29T10:29:02.998Z</time></trkpt><trkpt lat="42.45417122502629" lon="14.07517433151007"><ele>58.0</ele><time>2026-03-29T10:29:03.998Z</time></trkpt><trkpt lat="42.45421919593566" lon="14.07529669223526"><ele>58.0</ele><time>2026-03-29T10:29:04.998Z</time></trkpt><trkpt lat="42.45426784879929" lon="14.075463349632807"><ele>58.0</ele><time>2026-03-29T10:29:05.998Z</time></trkpt><trkpt lat="42.45432323736274" lon="14.075649957135251"><ele>58.0</ele><time>2026-03-29T10:29:06.998Z</time></trkpt><trkpt lat="42.454381963427636" lon="14.075831186622814"><ele>58.5</ele><time>2026-03-29T10:29:08Z</time></trkpt><trkpt lat="42.45444135274246" lon="14.075998185513562"><ele>59.0</ele><time>2026-03-29T10:29:09Z</time></trkpt><trkpt lat="42.454499750193136" lon="14.076161326721275"><ele>59.5</ele><time>2026-03-29T10:29:10Z</time></trkpt><trkpt lat="42.45455988781246" lon="14.07633060877936"><ele>60.0</ele><time>2026-03-29T10:29:11Z</time></trkpt><trkpt lat="42.454619944171995" lon="14.076499601232655"><ele>59.5</ele><time>2026-03-29T10:29:12Z</time></trkpt><trkpt lat="42.4546825955388" lon="14.076665873262138"><ele>59.0</ele><time>2026-03-29T10:29:13Z</time></trkpt><trkpt lat="42.45474332072127" lon="14.076833752807813"><ele>58.5</ele><time>2026-03-29T10:29:14Z</time></trkpt><trkpt lat="42.454808648629985" lon="14.07700458917354"><ele>58.0</ele><time>2026-03-29T10:29:15Z</time></trkpt><trkpt lat="42.454874506845684" lon="14.077175710473295"><ele>58.0</ele><time>2026-03-29T10:29:16Z</time></trkpt><trkpt lat="42.45493930800768" lon="14.07733736801004"><ele>58.0</ele><time>2026-03-29T10:29:17Z</time></trkpt><trkpt lat="42.45499945063224" lon="14.077501869840177"><ele>58.0</ele><time>2026-03-29T10:29:18Z</time></trkpt><trkpt lat="42.45506087136614" lon="14.077672727080689"><ele>58.0</ele><time>2026-03-29T10:29:19Z</time></trkpt><trkpt lat="42.45512358901161" lon="14.077843383909858"><ele>57.5</ele><time>2026-03-29T10:29:20Z</time></trkpt><trkpt lat="42.45518317591846" lon="14.078009324525567"><ele>57.0</ele><time>2026-03-29T10:29:21Z</time></trkpt><trkpt lat="42.455244958945855" lon="14.078167873516636"><ele>56.5</ele><time>2026-03-29T10:29:22Z</time></trkpt><trkpt lat="42.4553085917129" lon="14.078329062033806"><ele>56.0</ele><time>2026-03-29T10:29:23Z</time></trkpt><trkpt lat="42.45536965316698" lon="14.078492254960516"><ele>55.75</ele><time>2026-03-29T10:29:24Z</time></trkpt><trkpt lat="42.45542678769538" lon="14.0786577913908"><ele>55.5</ele><time>2026-03-29T10:29:25Z</time></trkpt><trkpt lat="42.45548534001503" lon="14.078815542323943"><ele>55.25</ele><time>2026-03-29T10:29:26Z</time></trkpt><trkpt lat="42.45554161393657" lon="14.078965538361984"><ele>55.0</ele><time>2026-03-29T10:29:27Z</time></trkpt><trkpt lat="42.45559109923812" lon="14.079112100496179"><ele>54.75</ele><time>2026-03-29T10:29:28Z</time></trkpt><trkpt lat="42.45564423821838" lon="14.079254874786074"><ele>54.5</ele><time>2026-03-29T10:29:28.999Z</time></trkpt><trkpt lat="42.455699467274805" lon="14.07939546070816"><ele>54.25</ele><time>2026-03-29T10:29:29.999Z</time></trkpt><trkpt lat="42.455750649955405" lon="14.079536097346313"><ele>54.0</ele><time>2026-03-29T10:29:30.999Z</time></trkpt><trkpt lat="42.45580438362459" lon="14.079669898389177"><ele>54.0</ele><time>2026-03-29T10:29:31.999Z</time></trkpt><trkpt lat="42.45585685422006" lon="14.079809987520324"><ele>54.0</ele><time>2026-03-29T10:29:32.999Z</time></trkpt><trkpt lat="42.45590911624598" lon="14.079950855500323"><ele>54.0</ele><time>2026-03-29T10:29:33.999Z</time></trkpt><trkpt lat="42.45596383622546" lon="14.08009133590326"><ele>54.0</ele><time>2026-03-29T10:29:34.999Z</time></trkpt><trkpt lat="42.456011508206984" lon="14.08022775536569"><ele>54.2</ele><time>2026-03-29T10:29:35.999Z</time></trkpt><trkpt lat="42.45605333772062" lon="14.08036410310864"><ele>54.400000000000006</ele><time>2026-03-29T10:29:36.999Z</time></trkpt><trkpt lat="42.45610291141657" lon="14.080491882653357"><ele>54.6</ele><time>2026-03-29T10:29:37.999Z</time></trkpt><trkpt lat="42.45615716349054" lon="14.080622345069527"><ele>54.8</ele><time>2026-03-29T10:29:38.999Z</time></trkpt><trkpt lat="42.45620990243842" lon="14.080755722293633"><ele>55.0</ele><time>2026-03-29T10:29:39.999Z</time></trkpt><trkpt lat="42.45625692658115" lon="14.080890282336107"><ele>54.6</ele><time>2026-03-29T10:29:40.999Z</time></trkpt><trkpt lat="42.4563047057411" lon="14.081040286148273"><ele>54.2</ele><time>2026-03-29T10:29:41.999Z</time></trkpt><trkpt lat="42.45635388881471" lon="14.081182944200693"><ele>53.8</ele><time>2026-03-29T10:29:42.999Z</time></trkpt><trkpt lat="42.456403432611786" lon="14.081309821864034"><ele>53.4</ele><time>2026-03-29T10:29:43.999Z</time></trkpt><trkpt lat="42.45645489722933" lon="14.081427881269263"><ele>53.0</ele><time>2026-03-29T10:29:44.999Z</time></trkpt><trkpt lat="42.45649714917616" lon="14.081544864574028"><ele>53.2</ele><time>2026-03-29T10:29:45.999Z</time></trkpt><trkpt lat="42.45653891302874" lon="14.081657886035998"><ele>53.4</ele><time>2026-03-29T10:29:46.999Z</time></trkpt><trkpt lat="42.45658530617051" lon="14.081779420696067"><ele>53.60000000000001</ele><time>2026-03-29T10:29:47.999Z</time></trkpt><trkpt lat="42.4566330588323" lon="14.081909653772026"><ele>53.800000000000004</ele><time>2026-03-29T10:29:48.999Z</time></trkpt><trkpt lat="42.4566830727929" lon="14.08204135414388"><ele>54.0</ele><time>2026-03-29T10:29:49.999Z</time></trkpt><trkpt lat="42.4567330225892" lon="14.082178921634418"><ele>54.0</ele><time>2026-03-29T10:29:50.999Z</time></trkpt><trkpt lat="42.45678704096965" lon="14.082332056508164"><ele>54.0</ele><time>2026-03-29T10:29:51.999Z</time></trkpt><trkpt lat="42.45684309605998" lon="14.082487980558886"><ele>54.0</ele><time>2026-03-29T10:29:52.999Z</time></trkpt><trkpt lat="42.45689663552311" lon="14.082632164693809"><ele>54.0</ele><time>2026-03-29T10:29:53.999Z</time></trkpt><trkpt lat="42.456947712583826" lon="14.082774524368409"><ele>54.2</ele><time>2026-03-29T10:29:54.999Z</time></trkpt><trkpt lat="42.45699687700014" lon="14.08291178312441"><ele>54.400000000000006</ele><time>2026-03-29T10:29:55.999Z</time></trkpt><trkpt lat="42.4570453475089" lon="14.083035025306838"><ele>54.6</ele><time>2026-03-29T10:29:56.999Z</time></trkpt><trkpt lat="42.457096824438885" lon="14.083169382384332"><ele>54.8</ele><time>2026-03-29T10:29:57.999Z</time></trkpt><trkpt lat="42.45715490598473" lon="14.083308757182127"><ele>55.0</ele><time>2026-03-29T10:29:58.999Z</time></trkpt><trkpt lat="42.45721051702917" lon="14.083450903781458"><ele>54.25</ele><time>2026-03-29T10:29:59.999Z</time></trkpt><trkpt lat="42.45725640771815" lon="14.083585254928893"><ele>53.5</ele><time>2026-03-29T10:30:00.999Z</time></trkpt><trkpt lat="42.45730543848157" lon="14.083723940167756"><ele>52.75</ele><time>2026-03-29T10:30:01.999Z</time></trkpt><trkpt lat="42.45735484346078" lon="14.083865335301214"><ele>52.0</ele><time>2026-03-29T10:30:02.999Z</time></trkpt><trkpt lat="42.45740309525562" lon="14.084002703233491"><ele>52.8</ele><time>2026-03-29T10:30:03.999Z</time></trkpt><trkpt lat="42.457451490521066" lon="14.084129739363382"><ele>53.6</ele><time>2026-03-29T10:30:04.999Z</time></trkpt><trkpt lat="42.45750071554546" lon="14.084251635953978"><ele>54.39999999999999</ele><time>2026-03-29T10:30:05.999Z</time></trkpt><trkpt lat="42.457551245987105" lon="14.08437823768927"><ele>55.199999999999996</ele><time>2026-03-29T10:30:06.999Z</time></trkpt><trkpt lat="42.45759788612553" lon="14.084494922506744"><ele>56.0</ele><time>2026-03-29T10:30:07.999Z</time></trkpt><trkpt lat="42.4576395518326" lon="14.084613306530391"><ele>56.0</ele><time>2026-03-29T10:30:08.999Z</time></trkpt><trkpt lat="42.45768637662077" lon="14.084743924057486"><ele>55.99999999999999</ele><time>2026-03-29T10:30:09.999Z</time></trkpt><trkpt lat="42.457732132053714" lon="14.084871704622978"><ele>55.99999999999999</ele><time>2026-03-29T10:30:10.999Z</time></trkpt><trkpt lat="42.457780105494244" lon="14.084995301336507"><ele>56.0</ele><time>2026-03-29T10:30:11.999Z</time></trkpt><trkpt lat="42.457832812175354" lon="14.085120715758624"><ele>56.0</ele><time>2026-03-29T10:30:12.999Z</time></trkpt><trkpt lat="42.45788357272488" lon="14.0852535816028"><ele>55.8</ele><time>2026-03-29T10:30:13.999Z</time></trkpt><trkpt lat="42.4579295936837" lon="14.085386570577718"><ele>55.599999999999994</ele><time>2026-03-29T10:30:14.999Z</time></trkpt><trkpt lat="42.457969743709015" lon="14.085517857901776"><ele>55.4</ele><time>2026-03-29T10:30:15.999Z</time></trkpt><trkpt lat="42.4580210277643" lon="14.08564541828418"><ele>55.2</ele><time>2026-03-29T10:30:16.999Z</time></trkpt><trkpt lat="42.458076637107226" lon="14.085773008545893"><ele>55.0</ele><time>2026-03-29T10:30:17.999Z</time></trkpt><trkpt lat="42.45813197363206" lon="14.08590560429801"><ele>54.2</ele><time>2026-03-29T10:30:18.999Z</time></trkpt><trkpt lat="42.458172584045776" lon="14.086025549299263"><ele>53.4</ele><time>2026-03-29T10:30:19.999Z</time></trkpt><trkpt lat="42.45821703851087" lon="14.086150580479949"><ele>52.599999999999994</ele><time>2026-03-29T10:30:20.999Z</time></trkpt><trkpt lat="42.45827011999384" lon="14.086283706707139"><ele>51.8</ele><time>2026-03-29T10:30:21.999Z</time></trkpt><trkpt lat="42.45832044878243" lon="14.08641858424191"><ele>51.0</ele><time>2026-03-29T10:30:22.999Z</time></trkpt><trkpt lat="42.458361214503164" lon="14.086546077997665"><ele>51.4</ele><time>2026-03-29T10:30:23.999Z</time></trkpt><trkpt lat="42.45840228089766" lon="14.086672889194855"><ele>51.8</ele><time>2026-03-29T10:30:24.999Z</time></trkpt><trkpt lat="42.458457178494015" lon="14.086799363072904"><ele>52.199999999999996</ele><time>2026-03-29T10:30:25.999Z</time></trkpt><trkpt lat="42.4585065787374" lon="14.086935346283296"><ele>52.599999999999994</ele><time>2026-03-29T10:30:26.999Z</time></trkpt><trkpt lat="42.45855631355382" lon="14.087071805400168"><ele>53.0</ele><time>2026-03-29T10:30:27.999Z</time></trkpt><trkpt lat="42.4586089631035" lon="14.087205070821211"><ele>53.0</ele><time>2026-03-29T10:30:28.999Z</time></trkpt><trkpt lat="42.458658885314634" lon="14.08733534312165"><ele>53.0</ele><time>2026-03-29T10:30:29.998Z</time></trkpt><trkpt lat="42.45871014979136" lon="14.087470819077847"><ele>53.0</ele><time>2026-03-29T10:30:30.998Z</time></trkpt><trkpt lat="42.45876260317281" lon="14.08760918934081"><ele>53.0</ele><time>2026-03-29T10:30:31.998Z</time></trkpt><trkpt lat="42.45881704155003" lon="14.087750988749638"><ele>52.5</ele><time>2026-03-29T10:30:32.998Z</time></trkpt><trkpt lat="42.458868810813186" lon="14.087887326332208"><ele>52.0</ele><time>2026-03-29T10:30:33.998Z</time></trkpt><trkpt lat="42.45891773551159" lon="14.08801883038317"><ele>51.5</ele><time>2026-03-29T10:30:34.998Z</time></trkpt><trkpt lat="42.45897073440475" lon="14.088160495205663"><ele>51.0</ele><time>2026-03-29T10:30:35.998Z</time></trkpt><trkpt lat="42.45901995862683" lon="14.088297005801888"><ele>50.75</ele><time>2026-03-29T10:30:36.998Z</time></trkpt><trkpt lat="42.45907118073004" lon="14.088442471529897"><ele>50.5</ele><time>2026-03-29T10:30:37.998Z</time></trkpt><trkpt lat="42.45912860865219" lon="14.088594423835293"><ele>50.25</ele><time>2026-03-29T10:30:38.998Z</time></trkpt><trkpt lat="42.45918680929749" lon="14.088745729946142"><ele>50.0</ele><time>2026-03-29T10:30:39.998Z</time></trkpt><trkpt lat="42.459239169937064" lon="14.088881270371367"><ele>50.0</ele><time>2026-03-29T10:30:40.998Z</time></trkpt><trkpt lat="42.459281456241726" lon="14.089023095742434"><ele>50.0</ele><time>2026-03-29T10:30:41.998Z</time></trkpt><trkpt lat="42.45933312093695" lon="14.089153923907007"><ele>50.0</ele><time>2026-03-29T10:30:42.998Z</time></trkpt><trkpt lat="42.4593927772606" lon="14.0893032646421"><ele>50.0</ele><time>2026-03-29T10:30:43.998Z</time></trkpt><trkpt lat="42.459446980675686" lon="14.0894469687344"><ele>50.6</ele><time>2026-03-29T10:30:44.998Z</time></trkpt><trkpt lat="42.459495642069186" lon="14.089583234092725"><ele>51.2</ele><time>2026-03-29T10:30:45.998Z</time></trkpt><trkpt lat="42.45953688550082" lon="14.08971050528459"><ele>51.8</ele><time>2026-03-29T10:30:46.998Z</time></trkpt><trkpt lat="42.459588992189246" lon="14.089842019556386"><ele>52.4</ele><time>2026-03-29T10:30:47.998Z</time></trkpt><trkpt lat="42.459641236709444" lon="14.089972195564993"><ele>53.0</ele><time>2026-03-29T10:30:48.998Z</time></trkpt><trkpt lat="42.45969795091766" lon="14.09010303919237"><ele>53.25</ele><time>2026-03-29T10:30:49.998Z</time></trkpt><trkpt lat="42.45975854118271" lon="14.090262192112654"><ele>53.5</ele><time>2026-03-29T10:30:50.998Z</time></trkpt><trkpt lat="42.459817990825975" lon="14.090437856215738"><ele>53.75</ele><time>2026-03-29T10:30:51.998Z</time></trkpt><trkpt lat="42.45988527164083" lon="14.090643095859326"><ele>54.0</ele><time>2026-03-29T10:30:52.998Z</time></trkpt><trkpt lat="42.459966032726044" lon="14.090860489623946"><ele>54.66666666666667</ele><time>2026-03-29T10:30:53.998Z</time></trkpt><trkpt lat="42.46005785945166" lon="14.091066251222516"><ele>55.333333333333336</ele><time>2026-03-29T10:30:54.998Z</time></trkpt><trkpt lat="42.460121356695595" lon="14.091260773286876"><ele>56.0</ele><time>2026-03-29T10:30:55.998Z</time></trkpt><trkpt lat="42.46017916949768" lon="14.091438957971125"><ele>57.25</ele><time>2026-03-29T10:30:56.998Z</time></trkpt><trkpt lat="42.460241167132025" lon="14.091608739494752"><ele>58.5</ele><time>2026-03-29T10:30:57.998Z</time></trkpt><trkpt lat="42.460317488316896" lon="14.091789235866418"><ele>59.75</ele><time>2026-03-29T10:30:58.998Z</time></trkpt><trkpt lat="42.46038677722945" lon="14.091962979758842"><ele>61.0</ele><time>2026-03-29T10:30:59.998Z</time></trkpt><trkpt lat="42.460442883348875" lon="14.092112963800917"><ele>60.599999999999994</ele><time>2026-03-29T10:31:00.998Z</time></trkpt><trkpt lat="42.46048629820273" lon="14.092242556355306"><ele>60.199999999999996</ele><time>2026-03-29T10:31:01.998Z</time></trkpt><trkpt lat="42.460525119414775" lon="14.09236208856541"><ele>59.800000000000004</ele><time>2026-03-29T10:31:02.998Z</time></trkpt><trkpt lat="42.46056168769975" lon="14.092475670129938"><ele>59.400000000000006</ele><time>2026-03-29T10:31:03.998Z</time></trkpt><trkpt lat="42.460599270514074" lon="14.092587848782454"><ele>59.0</ele><time>2026-03-29T10:31:04.998Z</time></trkpt><trkpt lat="42.46064057265257" lon="14.092696489596213"><ele>59.00000000000001</ele><time>2026-03-29T10:31:05.998Z</time></trkpt><trkpt lat="42.460682100021096" lon="14.092806392995161"><ele>59.0</ele><time>2026-03-29T10:31:06.998Z</time></trkpt><trkpt lat="42.460719859069066" lon="14.092905031257938"><ele>59.0</ele><time>2026-03-29T10:31:07.998Z</time></trkpt><trkpt lat="42.46075591976621" lon="14.093000697098788"><ele>59.0</ele><time>2026-03-29T10:31:08.998Z</time></trkpt><trkpt lat="42.46079719826703" lon="14.09309680287455"><ele>59.00000000000001</ele><time>2026-03-29T10:31:09.998Z</time></trkpt><trkpt lat="42.460837148257966" lon="14.093185619037541"><ele>59.0</ele><time>2026-03-29T10:31:10.998Z</time></trkpt><trkpt lat="42.46088248502046" lon="14.093291240147796"><ele>60.0</ele><time>2026-03-29T10:31:11.998Z</time></trkpt><trkpt lat="42.46093016553734" lon="14.09340238326152"><ele>61.00000000000001</ele><time>2026-03-29T10:31:12.998Z</time></trkpt><trkpt lat="42.46096528710775" lon="14.093503290636367"><ele>62.00000000000001</ele><time>2026-03-29T10:31:14Z</time></trkpt><trkpt lat="42.46099811817874" lon="14.093608939069727"><ele>63.0</ele><time>2026-03-29T10:31:15Z</time></trkpt><trkpt lat="42.461022695434764" lon="14.093740577146626"><ele>64.0</ele><time>2026-03-29T10:31:16Z</time></trkpt><trkpt lat="42.4610482311294" lon="14.093875113486416"><ele>64.0</ele><time>2026-03-29T10:31:17Z</time></trkpt><trkpt lat="42.46111324793681" lon="14.094019975343558"><ele>64.0</ele><time>2026-03-29T10:31:18Z</time></trkpt><trkpt lat="42.46118715604199" lon="14.094172501323373"><ele>64.0</ele><time>2026-03-29T10:31:19Z</time></trkpt><trkpt lat="42.46123845180636" lon="14.094332309370072"><ele>64.0</ele><time>2026-03-29T10:31:20Z</time></trkpt><trkpt lat="42.461269799355264" lon="14.094515187643882"><ele>65.33333333333333</ele><time>2026-03-29T10:31:21Z</time></trkpt><trkpt lat="42.46126922729783" lon="14.094730111799793"><ele>66.66666666666667</ele><time>2026-03-29T10:31:22Z</time></trkpt><trkpt lat="42.461258340851046" lon="14.094947086686389"><ele>68.0</ele><time>2026-03-29T10:31:23Z</time></trkpt><trkpt lat="42.46123180385478" lon="14.095182349858788"><ele>68.0</ele><time>2026-03-29T10:31:24Z</time></trkpt><trkpt lat="42.46120425059805" lon="14.095421602961247"><ele>68.0</ele><time>2026-03-29T10:31:25Z</time></trkpt><trkpt lat="42.46118904968661" lon="14.095652295532691"><ele>68.0</ele><time>2026-03-29T10:31:26Z</time></trkpt><trkpt lat="42.461177379771925" lon="14.0958595247842"><ele>67.75</ele><time>2026-03-29T10:31:27Z</time></trkpt><trkpt lat="42.461158752108865" lon="14.096046773555535"><ele>67.5</ele><time>2026-03-29T10:31:28Z</time></trkpt><trkpt lat="42.46114633653874" lon="14.096232836827912"><ele>67.25</ele><time>2026-03-29T10:31:29Z</time></trkpt><trkpt lat="42.461153871648364" lon="14.09643633877313"><ele>67.0</ele><time>2026-03-29T10:31:30Z</time></trkpt><trkpt lat="42.461200082703456" lon="14.096648154991094"><ele>67.66666666666666</ele><time>2026-03-29T10:31:31Z</time></trkpt><trkpt lat="42.461277504246766" lon="14.09686547849818"><ele>68.33333333333333</ele><time>2026-03-29T10:31:32Z</time></trkpt><trkpt lat="42.46137534131008" lon="14.097084105390422"><ele>69.0</ele><time>2026-03-29T10:31:33Z</time></trkpt><trkpt lat="42.461477848076846" lon="14.097311712766803"><ele>72.66666666666667</ele><time>2026-03-29T10:31:34Z</time></trkpt><trkpt lat="42.461580666556785" lon="14.097550443840905"><ele>76.33333333333334</ele><time>2026-03-29T10:31:35Z</time></trkpt><trkpt lat="42.461675047198476" lon="14.097768041417233"><ele>80.0</ele><time>2026-03-29T10:31:36Z</time></trkpt><trkpt lat="42.46176046612689" lon="14.097968898860527"><ele>80.0</ele><time>2026-03-29T10:31:37Z</time></trkpt><trkpt lat="42.46185808537735" lon="14.098167041474646"><ele>80.0</ele><time>2026-03-29T10:31:38Z</time></trkpt><trkpt lat="42.46197999008661" lon="14.09835446316107"><ele>80.0</ele><time>2026-03-29T10:31:39Z</time></trkpt><trkpt lat="42.462121474158764" lon="14.098526341429173"><ele>85.66666666666667</ele><time>2026-03-29T10:31:40Z</time></trkpt><trkpt lat="42.46227284024115" lon="14.098693958536996"><ele>91.33333333333334</ele><time>2026-03-29T10:31:40.999Z</time></trkpt><trkpt lat="42.46243103344929" lon="14.098858135323937"><ele>97.0</ele><time>2026-03-29T10:31:41.999Z</time></trkpt><trkpt lat="42.46259466775954" lon="14.099016932307473"><ele>100.0</ele><time>2026-03-29T10:31:42.999Z</time></trkpt><trkpt lat="42.462748956243146" lon="14.099151935524064"><ele>103.0</ele><time>2026-03-29T10:31:43.999Z</time></trkpt><trkpt lat="42.46289648782927" lon="14.099264685057125"><ele>106.0</ele><time>2026-03-29T10:31:44.999Z</time></trkpt><trkpt lat="42.463034918407594" lon="14.099379630282723"><ele>106.0</ele><time>2026-03-29T10:31:45.999Z</time></trkpt><trkpt lat="42.46316480700914" lon="14.09952336841076"><ele>106.0</ele><time>2026-03-29T10:31:46.999Z</time></trkpt><trkpt lat="42.46325967572815" lon="14.099722991851603"><ele>106.0</ele><time>2026-03-29T10:31:47.999Z</time></trkpt><trkpt lat="42.46336731719299" lon="14.099907685857538"><ele>101.33333333333334</ele><time>2026-03-29T10:31:48.999Z</time></trkpt><trkpt lat="42.463461235992135" lon="14.100086185391977"><ele>96.66666666666667</ele><time>2026-03-29T10:31:49.999Z</time></trkpt><trkpt lat="42.4635843096937" lon="14.100250124543502"><ele>92.0</ele><time>2026-03-29T10:31:50.999Z</time></trkpt><trkpt lat="42.46372187134695" lon="14.100378969986282"><ele>94.5</ele><time>2026-03-29T10:31:51.999Z</time></trkpt><trkpt lat="42.46386437244625" lon="14.100481589819097"><ele>97.0</ele><time>2026-03-29T10:31:52.999Z</time></trkpt><trkpt lat="42.4639935920476" lon="14.100584508204706"><ele>99.5</ele><time>2026-03-29T10:31:53.999Z</time></trkpt><trkpt lat="42.46408399518158" lon="14.100714995158416"><ele>102.0</ele><time>2026-03-29T10:31:54.999Z</time></trkpt><trkpt lat="42.46411279164204" lon="14.100910864493773"><ele>102.0</ele><time>2026-03-29T10:31:55.999Z</time></trkpt><trkpt lat="42.464194761377605" lon="14.10108245955189"><ele>102.0</ele><time>2026-03-29T10:31:56.999Z</time></trkpt><trkpt lat="42.46426704147909" lon="14.101273180562515"><ele>102.0</ele><time>2026-03-29T10:31:57.999Z</time></trkpt><trkpt lat="42.46436767904485" lon="14.101462478038485"><ele>101.66666666666666</ele><time>2026-03-29T10:31:58.999Z</time></trkpt><trkpt lat="42.46441949770782" lon="14.101694015782686"><ele>101.33333333333333</ele><time>2026-03-29T10:31:59.999Z</time></trkpt><trkpt lat="42.4644793744399" lon="14.101929604398252"><ele>101.0</ele><time>2026-03-29T10:32:00.999Z</time></trkpt><trkpt lat="42.464546668756334" lon="14.102172297420754"><ele>104.66666666666666</ele><time>2026-03-29T10:32:01.999Z</time></trkpt><trkpt lat="42.464636203823666" lon="14.102397807620543"><ele>108.33333333333334</ele><time>2026-03-29T10:32:02.999Z</time></trkpt><trkpt lat="42.46469014571999" lon="14.102597381543376"><ele>112.0</ele><time>2026-03-29T10:32:03.999Z</time></trkpt><trkpt lat="42.46471244021811" lon="14.102779116628025"><ele>112.6</ele><time>2026-03-29T10:32:04.999Z</time></trkpt><trkpt lat="42.46472901623332" lon="14.102928574290008"><ele>113.19999999999999</ele><time>2026-03-29T10:32:05.999Z</time></trkpt><trkpt lat="42.46474145676597" lon="14.10303934444571"><ele>113.8</ele><time>2026-03-29T10:32:06.999Z</time></trkpt><trkpt lat="42.464716794824376" lon="14.103146260426326"><ele>114.4</ele><time>2026-03-29T10:32:08.999Z</time></trkpt><trkpt lat="42.464637111253666" lon="14.10306906217939"><ele>115.0</ele><time>2026-03-29T10:32:10.999Z</time></trkpt><trkpt lat="42.46455764794576" lon="14.10308823687098"><ele>115.83333333333334</ele><time>2026-03-29T10:32:11.999Z</time></trkpt><trkpt lat="42.464480567197015" lon="14.103035056064474"><ele>116.66666666666667</ele><time>2026-03-29T10:32:12.999Z</time></trkpt><trkpt lat="42.46441397458392" lon="14.103045770289118"><ele>117.5</ele><time>2026-03-29T10:32:13.999Z</time></trkpt><trkpt lat="42.46436386255555" lon="14.103106642864871"><ele>118.33333333333334</ele><time>2026-03-29T10:32:14.999Z</time></trkpt><trkpt lat="42.464342730139" lon="14.103213089666244"><ele>119.16666666666667</ele><time>2026-03-29T10:32:15.999Z</time></trkpt><trkpt lat="42.46436697966949" lon="14.103310912637173"><ele>120.0</ele><time>2026-03-29T10:32:16.999Z</time></trkpt><trkpt lat="42.46443594469609" lon="14.103386796811193"><ele>120.0</ele><time>2026-03-29T10:32:17.999Z</time></trkpt><trkpt lat="42.46453099954503" lon="14.103439579178877"><ele>120.0</ele><time>2026-03-29T10:32:18.999Z</time></trkpt><trkpt lat="42.46463292668923" lon="14.103485129859"><ele>120.0</ele><time>2026-03-29T10:32:19.999Z</time></trkpt><trkpt lat="42.46471869318903" lon="14.10353681698668"><ele>120.0</ele><time>2026-03-29T10:32:20.999Z</time></trkpt><trkpt lat="42.464772276505435" lon="14.103606200147443"><ele>120.0</ele><time>2026-03-29T10:32:21.999Z</time></trkpt><trkpt lat="42.464731229120524" lon="14.103760074330967"><ele>120.0</ele><time>2026-03-29T10:32:23.999Z</time></trkpt><trkpt lat="42.46466251142843" lon="14.103809597095854"><ele>120.0</ele><time>2026-03-29T10:32:24.999Z</time></trkpt><trkpt lat="42.464571276635816" lon="14.103850816152493"><ele>120.0</ele><time>2026-03-29T10:32:25.999Z</time></trkpt><trkpt lat="42.464449572109785" lon="14.10390079411135"><ele>120.0</ele><time>2026-03-29T10:32:26.999Z</time></trkpt><trkpt lat="42.464329757362286" lon="14.103944758779894"><ele>120.0</ele><time>2026-03-29T10:32:27.999Z</time></trkpt><trkpt lat="42.464202090416805" lon="14.103952477507127"><ele>120.0</ele><time>2026-03-29T10:32:28.999Z</time></trkpt><trkpt lat="42.464061826003785" lon="14.103972668708272"><ele>120.0</ele><time>2026-03-29T10:32:29.999Z</time></trkpt><trkpt lat="42.463914395314006" lon="14.10399588304457"><ele>120.0</ele><time>2026-03-29T10:32:30.999Z</time></trkpt><trkpt lat="42.4637829460357" lon="14.104028934344555"><ele>120.0</ele><time>2026-03-29T10:32:31.999Z</time></trkpt><trkpt lat="42.46365513465475" lon="14.104062496411114"><ele>121.8</ele><time>2026-03-29T10:32:32.999Z</time></trkpt><trkpt lat="42.463545339864346" lon="14.10409733198849"><ele>123.6</ele><time>2026-03-29T10:32:33.999Z</time></trkpt><trkpt lat="42.463442809172555" lon="14.104133998407349"><ele>125.4</ele><time>2026-03-29T10:32:34.999Z</time></trkpt><trkpt lat="42.46335491189458" lon="14.104168178969145"><ele>127.2</ele><time>2026-03-29T10:32:35.999Z</time></trkpt><trkpt lat="42.4632739451438" lon="14.104217473649149"><ele>129.0</ele><time>2026-03-29T10:32:36.999Z</time></trkpt><trkpt lat="42.46319036110975" lon="14.10431298095572"><ele>129.0</ele><time>2026-03-29T10:32:37.999Z</time></trkpt><trkpt lat="42.46308255966197" lon="14.104413432941604"><ele>129.0</ele><time>2026-03-29T10:32:38.998Z</time></trkpt><trkpt lat="42.462979517591826" lon="14.10455638944245"><ele>129.0</ele><time>2026-03-29T10:32:39.998Z</time></trkpt><trkpt lat="42.46288487576083" lon="14.104661631792865"><ele>129.0</ele><time>2026-03-29T10:32:40.998Z</time></trkpt><trkpt lat="42.46279667001854" lon="14.104718490737579"><ele>129.4</ele><time>2026-03-29T10:32:41.998Z</time></trkpt><trkpt lat="42.4627283919619" lon="14.10476509391488"><ele>129.8</ele><time>2026-03-29T10:32:42.998Z</time></trkpt><trkpt lat="42.462614526085794" lon="14.104764258845632"><ele>130.2</ele><time>2026-03-29T10:32:44.998Z</time></trkpt><trkpt lat="42.462554835913245" lon="14.104661695312084"><ele>130.6</ele><time>2026-03-29T10:32:46.998Z</time></trkpt><trkpt lat="42.46245589044837" lon="14.10467901808958"><ele>131.0</ele><time>2026-03-29T10:32:48.998Z</time></trkpt><trkpt lat="42.46240719328738" lon="14.104841998524241"><ele>131.33333333333331</ele><time>2026-03-29T10:32:50.998Z</time></trkpt><trkpt lat="42.462450563689224" lon="14.104942716281482"><ele>131.66666666666666</ele><time>2026-03-29T10:32:51.998Z</time></trkpt><trkpt lat="42.462459712933864" lon="14.10504475785545"><ele>132.0</ele><time>2026-03-29T10:32:52.998Z</time></trkpt><trkpt lat="42.46241905518949" lon="14.105135997849795"><ele>132.33333333333334</ele><time>2026-03-29T10:32:53.998Z</time></trkpt><trkpt lat="42.46234626284398" lon="14.10521223759872"><ele>132.66666666666669</ele><time>2026-03-29T10:32:54.998Z</time></trkpt><trkpt lat="42.46226413161349" lon="14.105281312669602"><ele>133.0</ele><time>2026-03-29T10:32:55.998Z</time></trkpt><trkpt lat="42.46216977738359" lon="14.105371655392672"><ele>134.5</ele><time>2026-03-29T10:32:56.998Z</time></trkpt><trkpt lat="42.4620590651614" lon="14.10548217315692"><ele>136.0</ele><time>2026-03-29T10:32:57.998Z</time></trkpt><trkpt lat="42.46193994224657" lon="14.105591881844221"><ele>137.5</ele><time>2026-03-29T10:32:58.998Z</time></trkpt><trkpt lat="42.46182191729611" lon="14.10569993344829"><ele>139.0</ele><time>2026-03-29T10:32:59.998Z</time></trkpt><trkpt lat="42.461693362641455" lon="14.105826544918722"><ele>139.0</ele><time>2026-03-29T10:33:00.998Z</time></trkpt><trkpt lat="42.461551082149185" lon="14.105969568416622"><ele>139.0</ele><time>2026-03-29T10:33:01.998Z</time></trkpt><trkpt lat="42.46141810298427" lon="14.10610016326925"><ele>139.0</ele><time>2026-03-29T10:33:02.998Z</time></trkpt><trkpt lat="42.46130548199343" lon="14.106215163860023"><ele>142.5</ele><time>2026-03-29T10:33:03.998Z</time></trkpt><trkpt lat="42.46119013145331" lon="14.1063010579484"><ele>146.0</ele><time>2026-03-29T10:33:04.998Z</time></trkpt><trkpt lat="42.4610796799592" lon="14.106368176209267"><ele>149.5</ele><time>2026-03-29T10:33:05.998Z</time></trkpt><trkpt lat="42.46094342971649" lon="14.106422082235582"><ele>153.0</ele><time>2026-03-29T10:33:06.998Z</time></trkpt><trkpt lat="42.46081458780037" lon="14.10649885544148"><ele>153.0</ele><time>2026-03-29T10:33:07.998Z</time></trkpt><trkpt lat="42.46070756448959" lon="14.10656325509986"><ele>153.0</ele><time>2026-03-29T10:33:08.998Z</time></trkpt><trkpt lat="42.46062707173809" lon="14.106660327782292"><ele>153.0</ele><time>2026-03-29T10:33:09.998Z</time></trkpt><trkpt lat="42.460554466597785" lon="14.106794153895185"><ele>153.0</ele><time>2026-03-29T10:33:10.998Z</time></trkpt><trkpt lat="42.4604868226097" lon="14.106960183981252"><ele>155.33333333333334</ele><time>2026-03-29T10:33:11.998Z</time></trkpt><trkpt lat="42.46040932594564" lon="14.107138051251365"><ele>157.66666666666669</ele><time>2026-03-29T10:33:12.998Z</time></trkpt><trkpt lat="42.46035054827817" lon="14.107340060500729"><ele>160.0</ele><time>2026-03-29T10:33:13.998Z</time></trkpt><trkpt lat="42.46031779087412" lon="14.107563192370137"><ele>160.0</ele><time>2026-03-29T10:33:14.998Z</time></trkpt><trkpt lat="42.46029829959546" lon="14.10777628830748"><ele>160.0</ele><time>2026-03-29T10:33:15.998Z</time></trkpt><trkpt lat="42.46024256535259" lon="14.107954574962486"><ele>160.0</ele><time>2026-03-29T10:33:16.998Z</time></trkpt><trkpt lat="42.460177230697894" lon="14.108125686791938"><ele>160.0</ele><time>2026-03-29T10:33:17.998Z</time></trkpt><trkpt lat="42.46012382858008" lon="14.108297545671107"><ele>159.25</ele><time>2026-03-29T10:33:18.998Z</time></trkpt><trkpt lat="42.46006112380915" lon="14.10845388485636"><ele>158.5</ele><time>2026-03-29T10:33:20Z</time></trkpt><trkpt lat="42.46000801544298" lon="14.108616916734597"><ele>157.75</ele><time>2026-03-29T10:33:21Z</time></trkpt><trkpt lat="42.45993863440833" lon="14.108763941415614"><ele>157.0</ele><time>2026-03-29T10:33:22Z</time></trkpt><trkpt lat="42.45988301043056" lon="14.108904751631117"><ele>157.0</ele><time>2026-03-29T10:33:23Z</time></trkpt><trkpt lat="42.459822479467505" lon="14.109032536025344"><ele>157.0</ele><time>2026-03-29T10:33:24Z</time></trkpt><trkpt lat="42.45974358107728" lon="14.109143419673245"><ele>157.0</ele><time>2026-03-29T10:33:25Z</time></trkpt><trkpt lat="42.45964220751619" lon="14.109257355025333"><ele>157.0</ele><time>2026-03-29T10:33:26Z</time></trkpt><trkpt lat="42.459543974970906" lon="14.109355122896162"><ele>158.39999999999998</ele><time>2026-03-29T10:33:27Z</time></trkpt><trkpt lat="42.459452436665146" lon="14.109440819020573"><ele>159.79999999999998</ele><time>2026-03-29T10:33:28Z</time></trkpt><trkpt lat="42.45938014114006" lon="14.109532810140134"><ele>161.2</ele><time>2026-03-29T10:33:29Z</time></trkpt><trkpt lat="42.45930437919215" lon="14.10960337129298"><ele>162.6</ele><time>2026-03-29T10:33:30Z</time></trkpt><trkpt lat="42.45923820518051" lon="14.109688852896856"><ele>164.0</ele><time>2026-03-29T10:33:31Z</time></trkpt><trkpt lat="42.45917217156238" lon="14.109787863955647"><ele>164.0</ele><time>2026-03-29T10:33:32Z</time></trkpt><trkpt lat="42.45909278245157" lon="14.109897839137378"><ele>164.0</ele><time>2026-03-29T10:33:33Z</time></trkpt><trkpt lat="42.4590001510922" lon="14.110023059344016"><ele>164.0</ele><time>2026-03-29T10:33:34Z</time></trkpt><trkpt lat="42.458899352278664" lon="14.110175544385719"><ele>164.0</ele><time>2026-03-29T10:33:35Z</time></trkpt><trkpt lat="42.45880143421874" lon="14.110346594175994"><ele>163.33333333333331</ele><time>2026-03-29T10:33:36Z</time></trkpt><trkpt lat="42.45868735663089" lon="14.11051719191448"><ele>162.66666666666666</ele><time>2026-03-29T10:33:37Z</time></trkpt><trkpt lat="42.45856482113344" lon="14.110725231015115"><ele>162.0</ele><time>2026-03-29T10:33:38Z</time></trkpt><trkpt lat="42.458438557672864" lon="14.110936329367254"><ele>162.0</ele><time>2026-03-29T10:33:39Z</time></trkpt><trkpt lat="42.458346544940625" lon="14.111109895605795"><ele>162.0</ele><time>2026-03-29T10:33:40Z</time></trkpt><trkpt lat="42.4582575815846" lon="14.11122207909182"><ele>162.0</ele><time>2026-03-29T10:33:41Z</time></trkpt><trkpt lat="42.458172291431204" lon="14.11128678440388"><ele>162.0</ele><time>2026-03-29T10:33:42Z</time></trkpt><trkpt lat="42.45808225068065" lon="14.111288451109989"><ele>162.0</ele><time>2026-03-29T10:33:43Z</time></trkpt><trkpt lat="42.45800465837459" lon="14.111231202281532"><ele>162.0</ele><time>2026-03-29T10:33:44Z</time></trkpt><trkpt lat="42.457946902883734" lon="14.111125565850232"><ele>162.0</ele><time>2026-03-29T10:33:45Z</time></trkpt><trkpt lat="42.45791468615587" lon="14.110992392407868"><ele>162.0</ele><time>2026-03-29T10:33:46Z</time></trkpt><trkpt lat="42.4578958228309" lon="14.11086163894677"><ele>162.0</ele><time>2026-03-29T10:33:47Z</time></trkpt><trkpt lat="42.45785991935136" lon="14.110776451875733"><ele>162.33333333333334</ele><time>2026-03-29T10:33:48Z</time></trkpt><trkpt lat="42.4577969903341" lon="14.110739907682564"><ele>162.66666666666666</ele><time>2026-03-29T10:33:49Z</time></trkpt><trkpt lat="42.457724481153384" lon="14.11075625356741"><ele>163.0</ele><time>2026-03-29T10:33:50Z</time></trkpt><trkpt lat="42.45767402840452" lon="14.110821935391398"><ele>163.33333333333331</ele><time>2026-03-29T10:33:51Z</time></trkpt><trkpt lat="42.45765883378349" lon="14.110923897540784"><ele>163.66666666666666</ele><time>2026-03-29T10:33:52Z</time></trkpt><trkpt lat="42.45767884090674" lon="14.111049681551261"><ele>164.0</ele><time>2026-03-29T10:33:53Z</time></trkpt><trkpt lat="42.457739519123464" lon="14.111217069426536"><ele>167.66666666666666</ele><time>2026-03-29T10:33:54Z</time></trkpt><trkpt lat="42.45780557228806" lon="14.111410464187749"><ele>171.33333333333334</ele><time>2026-03-29T10:33:54.999Z</time></trkpt><trkpt lat="42.45785883975821" lon="14.111608190697545"><ele>175.0</ele><time>2026-03-29T10:33:55.999Z</time></trkpt><trkpt lat="42.457908651791485" lon="14.111822084048294"><ele>175.0</ele><time>2026-03-29T10:33:56.999Z</time></trkpt><trkpt lat="42.45796790765647" lon="14.112066448950522"><ele>175.0</ele><time>2026-03-29T10:33:57.999Z</time></trkpt><trkpt lat="42.458017228394844" lon="14.11230272185445"><ele>175.0</ele><time>2026-03-29T10:33:58.999Z</time></trkpt><trkpt lat="42.45805514449758" lon="14.112504308538686"><ele>175.0</ele><time>2026-03-29T10:33:59.999Z</time></trkpt><trkpt lat="42.45808848669395" lon="14.112690342526102"><ele>175.0</ele><time>2026-03-29T10:34:00.999Z</time></trkpt><trkpt lat="42.4581074862382" lon="14.112866113795915"><ele>175.0</ele><time>2026-03-29T10:34:01.999Z</time></trkpt><trkpt lat="42.45810141860753" lon="14.113039998794878"><ele>175.0</ele><time>2026-03-29T10:34:02.999Z</time></trkpt><trkpt lat="42.458048318344645" lon="14.113193741831891"><ele>175.75</ele><time>2026-03-29T10:34:03.999Z</time></trkpt><trkpt lat="42.4580010287299" lon="14.11336739913431"><ele>176.5</ele><time>2026-03-29T10:34:04.999Z</time></trkpt><trkpt lat="42.45792919795501" lon="14.113533907353066"><ele>177.25</ele><time>2026-03-29T10:34:05.999Z</time></trkpt><trkpt lat="42.457885754496985" lon="14.113717844450942"><ele>178.0</ele><time>2026-03-29T10:34:06.999Z</time></trkpt><trkpt lat="42.457881856862414" lon="14.113929381123947"><ele>174.66666666666669</ele><time>2026-03-29T10:34:07.999Z</time></trkpt><trkpt lat="42.45789898881818" lon="14.114143836383587"><ele>171.33333333333334</ele><time>2026-03-29T10:34:08.999Z</time></trkpt><trkpt lat="42.45791254095727" lon="14.114345995369296"><ele>168.0</ele><time>2026-03-29T10:34:09.999Z</time></trkpt><trkpt lat="42.457902983448506" lon="14.1145414570125"><ele>168.0</ele><time>2026-03-29T10:34:10.999Z</time></trkpt><trkpt lat="42.45787622501059" lon="14.114731391178935"><ele>168.0</ele><time>2026-03-29T10:34:11.999Z</time></trkpt><trkpt lat="42.45782992509029" lon="14.114907109792775"><ele>168.0</ele><time>2026-03-29T10:34:12.999Z</time></trkpt><trkpt lat="42.457788498870855" lon="14.115054876759963"><ele>168.0</ele><time>2026-03-29T10:34:13.999Z</time></trkpt><trkpt lat="42.457766758552566" lon="14.115191569381853"><ele>167.75</ele><time>2026-03-29T10:34:14.999Z</time></trkpt><trkpt lat="42.457780130281435" lon="14.115335035105677"><ele>167.5</ele><time>2026-03-29T10:34:15.999Z</time></trkpt><trkpt lat="42.45782780794419" lon="14.115492129282071"><ele>167.25</ele><time>2026-03-29T10:34:16.999Z</time></trkpt><trkpt lat="42.45791579696348" lon="14.115635751302616"><ele>167.0</ele><time>2026-03-29T10:34:17.999Z</time></trkpt><trkpt lat="42.45803942053956" lon="14.115758560021792"><ele>167.0</ele><time>2026-03-29T10:34:18.999Z</time></trkpt><trkpt lat="42.458178748759046" lon="14.115882689105124"><ele>167.0</ele><time>2026-03-29T10:34:19.999Z</time></trkpt><trkpt lat="42.45832192957225" lon="14.11601949385985"><ele>167.0</ele><time>2026-03-29T10:34:20.999Z</time></trkpt><trkpt lat="42.458470624373774" lon="14.11619539329412"><ele>167.0</ele><time>2026-03-29T10:34:21.999Z</time></trkpt><trkpt lat="42.45860842229589" lon="14.116379984820211"><ele>167.0</ele><time>2026-03-29T10:34:22.999Z</time></trkpt><trkpt lat="42.45875256036105" lon="14.116544878782081"><ele>167.0</ele><time>2026-03-29T10:34:23.999Z</time></trkpt><trkpt lat="42.45890814124764" lon="14.116691859654813"><ele>165.66666666666666</ele><time>2026-03-29T10:34:24.999Z</time></trkpt><trkpt lat="42.45907439463459" lon="14.116841528458409"><ele>164.33333333333334</ele><time>2026-03-29T10:34:25.999Z</time></trkpt><trkpt lat="42.4592501607045" lon="14.116983956522086"><ele>163.0</ele><time>2026-03-29T10:34:26.999Z</time></trkpt><trkpt lat="42.45943402594971" lon="14.117126184813564"><ele>163.0</ele><time>2026-03-29T10:34:27.999Z</time></trkpt><trkpt lat="42.45960442638727" lon="14.11726384028047"><ele>163.0</ele><time>2026-03-29T10:34:28.999Z</time></trkpt><trkpt lat="42.45976486508026" lon="14.117399762242224"><ele>163.0</ele><time>2026-03-29T10:34:29.999Z</time></trkpt><trkpt lat="42.45991848027583" lon="14.117529610600153"><ele>162.25</ele><time>2026-03-29T10:34:30.999Z</time></trkpt><trkpt lat="42.46006229207998" lon="14.117653470581129"><ele>161.5</ele><time>2026-03-29T10:34:31.999Z</time></trkpt><trkpt lat="42.46018340359352" lon="14.117752752314917"><ele>160.75</ele><time>2026-03-29T10:34:32.999Z</time></trkpt><trkpt lat="42.46029356119204" lon="14.117839306675029"><ele>160.0</ele><time>2026-03-29T10:34:33.999Z</time></trkpt><trkpt lat="42.46038502779884" lon="14.117945917485876"><ele>160.25</ele><time>2026-03-29T10:34:34.999Z</time></trkpt><trkpt lat="42.460453856358086" lon="14.118082486974918"><ele>160.5</ele><time>2026-03-29T10:34:35.999Z</time></trkpt><trkpt lat="42.460489026568446" lon="14.118237227365977"><ele>160.75</ele><time>2026-03-29T10:34:36.999Z</time></trkpt><trkpt lat="42.46049299500014" lon="14.11840951785627"><ele>161.0</ele><time>2026-03-29T10:34:37.999Z</time></trkpt><trkpt lat="42.46047295255497" lon="14.118608294208597"><ele>160.66666666666666</ele><time>2026-03-29T10:34:38.999Z</time></trkpt><trkpt lat="42.46043140739836" lon="14.118814639236994"><ele>160.33333333333334</ele><time>2026-03-29T10:34:39.999Z</time></trkpt><trkpt lat="42.46036679822173" lon="14.119020978492001"><ele>160.0</ele><time>2026-03-29T10:34:40.999Z</time></trkpt><trkpt lat="42.46029865931378" lon="14.119209507927296"><ele>160.0</ele><time>2026-03-29T10:34:41.999Z</time></trkpt><trkpt lat="42.46023933636383" lon="14.11936376630497"><ele>160.0</ele><time>2026-03-29T10:34:42.999Z</time></trkpt><trkpt lat="42.46018428433363" lon="14.119490442339783"><ele>160.0</ele><time>2026-03-29T10:34:43.999Z</time></trkpt><trkpt lat="42.46012150720791" lon="14.119592705506845"><ele>160.0</ele><time>2026-03-29T10:34:44.999Z</time></trkpt><trkpt lat="42.460048538186996" lon="14.11966665840825"><ele>160.0</ele><time>2026-03-29T10:34:45.999Z</time></trkpt><trkpt lat="42.45994780913015" lon="14.119744995493976"><ele>160.0</ele><time>2026-03-29T10:34:46.999Z</time></trkpt><trkpt lat="42.459853640953874" lon="14.119837274556827"><ele>160.0</ele><time>2026-03-29T10:34:47.999Z</time></trkpt><trkpt lat="42.459805076104736" lon="14.120005583240538"><ele>160.0</ele><time>2026-03-29T10:34:48.999Z</time></trkpt><trkpt lat="42.4597313596198" lon="14.120163731312521"><ele>160.0</ele><time>2026-03-29T10:34:49.999Z</time></trkpt><trkpt lat="42.4596036134597" lon="14.120284360181895"><ele>160.0</ele><time>2026-03-29T10:34:50.999Z</time></trkpt><trkpt lat="42.459474492404205" lon="14.12044215458695"><ele>160.0</ele><time>2026-03-29T10:34:51.999Z</time></trkpt><trkpt lat="42.45932719924467" lon="14.120589147649982"><ele>160.0</ele><time>2026-03-29T10:34:52.999Z</time></trkpt><trkpt lat="42.45917529598638" lon="14.120745353530578"><ele>160.0</ele><time>2026-03-29T10:34:53.999Z</time></trkpt><trkpt lat="42.459018759393466" lon="14.120910944023995"><ele>160.0</ele><time>2026-03-29T10:34:54.999Z</time></trkpt><trkpt lat="42.45884790974133" lon="14.121091724179422"><ele>160.0</ele><time>2026-03-29T10:34:55.999Z</time></trkpt><trkpt lat="42.45868077647602" lon="14.121264882412959"><ele>160.0</ele><time>2026-03-29T10:34:56.999Z</time></trkpt><trkpt lat="42.458524710334316" lon="14.121422705740018"><ele>160.0</ele><time>2026-03-29T10:34:57.998Z</time></trkpt><trkpt lat="42.45837954322191" lon="14.121572059754401"><ele>160.0</ele><time>2026-03-29T10:34:58.998Z</time></trkpt><trkpt lat="42.458245505616595" lon="14.121716888124535"><ele>160.0</ele><time>2026-03-29T10:34:59.998Z</time></trkpt><trkpt lat="42.4581191377761" lon="14.12186395324054"><ele>160.0</ele><time>2026-03-29T10:35:00.998Z</time></trkpt><trkpt lat="42.458008932590744" lon="14.12201516933716"><ele>160.0</ele><time>2026-03-29T10:35:01.998Z</time></trkpt><trkpt lat="42.4579196951479" lon="14.122178720425708"><ele>159.33333333333334</ele><time>2026-03-29T10:35:02.998Z</time></trkpt><trkpt lat="42.45784525098975" lon="14.122356566353858"><ele>158.66666666666666</ele><time>2026-03-29T10:35:03.998Z</time></trkpt><trkpt lat="42.45777135811631" lon="14.122553675134649"><ele>158.0</ele><time>2026-03-29T10:35:04.998Z</time></trkpt><trkpt lat="42.45770012597166" lon="14.122769808130245"><ele>159.33333333333331</ele><time>2026-03-29T10:35:05.998Z</time></trkpt><trkpt lat="42.45763374052849" lon="14.122999687625848"><ele>160.66666666666666</ele><time>2026-03-29T10:35:06.998Z</time></trkpt><trkpt lat="42.45756510784185" lon="14.123247720764136"><ele>162.0</ele><time>2026-03-29T10:35:07.998Z</time></trkpt><trkpt lat="42.45749728991533" lon="14.123486262591854"><ele>162.66666666666666</ele><time>2026-03-29T10:35:08.998Z</time></trkpt><trkpt lat="42.45743066889609" lon="14.123707282771182"><ele>163.33333333333331</ele><time>2026-03-29T10:35:09.998Z</time></trkpt><trkpt lat="42.45736840897411" lon="14.123903356072933"><ele>164.0</ele><time>2026-03-29T10:35:10.998Z</time></trkpt><trkpt lat="42.45730443548133" lon="14.124102108750282"><ele>165.75</ele><time>2026-03-29T10:35:11.998Z</time></trkpt><trkpt lat="42.45724419472582" lon="14.124282366306701"><ele>167.5</ele><time>2026-03-29T10:35:12.998Z</time></trkpt><trkpt lat="42.45718825259019" lon="14.124464545803264"><ele>169.25</ele><time>2026-03-29T10:35:13.998Z</time></trkpt><trkpt lat="42.45714380416815" lon="14.12464440973218"><ele>171.0</ele><time>2026-03-29T10:35:14.998Z</time></trkpt><trkpt lat="42.457126687941674" lon="14.12483076095173"><ele>172.0</ele><time>2026-03-29T10:35:15.998Z</time></trkpt><trkpt lat="42.45713070076603" lon="14.125020077803807"><ele>173.0</ele><time>2026-03-29T10:35:16.998Z</time></trkpt><trkpt lat="42.457156671700595" lon="14.125220120333976"><ele>174.0</ele><time>2026-03-29T10:35:17.998Z</time></trkpt><trkpt lat="42.45720748851874" lon="14.12544145713894"><ele>174.0</ele><time>2026-03-29T10:35:18.998Z</time></trkpt><trkpt lat="42.457281338393585" lon="14.12567414604019"><ele>174.0</ele><time>2026-03-29T10:35:19.998Z</time></trkpt><trkpt lat="42.45737045415425" lon="14.125919335038235"><ele>174.0</ele><time>2026-03-29T10:35:20.998Z</time></trkpt><trkpt lat="42.457475012545274" lon="14.12616364927647"><ele>171.66666666666666</ele><time>2026-03-29T10:35:21.998Z</time></trkpt><trkpt lat="42.457583871190636" lon="14.1263846865348"><ele>169.33333333333331</ele><time>2026-03-29T10:35:22.998Z</time></trkpt><trkpt lat="42.45769248904699" lon="14.126584425522973"><ele>167.0</ele><time>2026-03-29T10:35:23.998Z</time></trkpt><trkpt lat="42.457795019108985" lon="14.12678262379838"><ele>168.33333333333331</ele><time>2026-03-29T10:35:24.998Z</time></trkpt><trkpt lat="42.45788606251657" lon="14.126956109443995"><ele>169.66666666666666</ele><time>2026-03-29T10:35:26Z</time></trkpt><trkpt lat="42.45799339099592" lon="14.127107851653959"><ele>171.0</ele><time>2026-03-29T10:35:27Z</time></trkpt><trkpt lat="42.458123708483114" lon="14.127230110565323"><ele>171.0</ele><time>2026-03-29T10:35:28Z</time></trkpt><trkpt lat="42.4582495235375" lon="14.127345543336034"><ele>171.0</ele><time>2026-03-29T10:35:29Z</time></trkpt><trkpt lat="42.458332061159496" lon="14.127515003043607"><ele>171.0</ele><time>2026-03-29T10:35:30Z</time></trkpt><trkpt lat="42.45842231548732" lon="14.127705393742495"><ele>168.33333333333334</ele><time>2026-03-29T10:35:31Z</time></trkpt><trkpt lat="42.45849580413876" lon="14.127931532004418"><ele>165.66666666666669</ele><time>2026-03-29T10:35:32Z</time></trkpt><trkpt lat="42.45857437147226" lon="14.128154076612537"><ele>163.0</ele><time>2026-03-29T10:35:33Z</time></trkpt><trkpt lat="42.45864491371362" lon="14.128349805685497"><ele>160.33333333333334</ele><time>2026-03-29T10:35:34Z</time></trkpt><trkpt lat="42.45867783167593" lon="14.128556847861901"><ele>157.66666666666666</ele><time>2026-03-29T10:35:35Z</time></trkpt><trkpt lat="42.45871151343965" lon="14.128778517093618"><ele>155.0</ele><time>2026-03-29T10:35:36Z</time></trkpt><trkpt lat="42.458678216251215" lon="14.129006428370701"><ele>156.66666666666666</ele><time>2026-03-29T10:35:37Z</time></trkpt><trkpt lat="42.458649659538196" lon="14.129230109284386"><ele>158.33333333333334</ele><time>2026-03-29T10:35:38Z</time></trkpt><trkpt lat="42.4585758952686" lon="14.129445181404865"><ele>160.0</ele><time>2026-03-29T10:35:39Z</time></trkpt><trkpt lat="42.458485541357" lon="14.129652601118696"><ele>160.0</ele><time>2026-03-29T10:35:40Z</time></trkpt><trkpt lat="42.458391064544095" lon="14.129841704376133"><ele>160.0</ele><time>2026-03-29T10:35:41Z</time></trkpt><trkpt lat="42.45826452355441" lon="14.12998782623454"><ele>160.0</ele><time>2026-03-29T10:35:42Z</time></trkpt><trkpt lat="42.45812825009495" lon="14.130155724203213"><ele>160.33333333333334</ele><time>2026-03-29T10:35:43Z</time></trkpt><trkpt lat="42.45798665309798" lon="14.130332148937793"><ele>160.66666666666666</ele><time>2026-03-29T10:35:44Z</time></trkpt><trkpt lat="42.4578241195363" lon="14.130487796306253"><ele>161.0</ele><time>2026-03-29T10:35:45Z</time></trkpt><trkpt lat="42.45767597727227" lon="14.130655648340802"><ele>160.66666666666666</ele><time>2026-03-29T10:35:46Z</time></trkpt><trkpt lat="42.45754468055577" lon="14.130873793482845"><ele>160.33333333333334</ele><time>2026-03-29T10:35:47Z</time></trkpt><trkpt lat="42.45741983299062" lon="14.131135561397983"><ele>160.0</ele><time>2026-03-29T10:35:48Z</time></trkpt><trkpt lat="42.45731259973093" lon="14.131407430615393"><ele>158.0</ele><time>2026-03-29T10:35:49Z</time></trkpt><trkpt lat="42.45721361009748" lon="14.1316724799072"><ele>156.0</ele><time>2026-03-29T10:35:50Z</time></trkpt><trkpt lat="42.45710372182856" lon="14.131933429558396"><ele>154.0</ele><time>2026-03-29T10:35:51Z</time></trkpt><trkpt lat="42.456996239224765" lon="14.132193929703266"><ele>158.0</ele><time>2026-03-29T10:35:52Z</time></trkpt><trkpt lat="42.45690513278806" lon="14.132432281703025"><ele>162.0</ele><time>2026-03-29T10:35:53Z</time></trkpt><trkpt lat="42.4568283992966" lon="14.132677850635448"><ele>166.0</ele><time>2026-03-29T10:35:54Z</time></trkpt><trkpt lat="42.4567880860881" lon="14.132932668657347"><ele>166.0</ele><time>2026-03-29T10:35:55Z</time></trkpt><trkpt lat="42.4567581537814" lon="14.13320832365434"><ele>166.0</ele><time>2026-03-29T10:35:56Z</time></trkpt><trkpt lat="42.456726234610606" lon="14.13348166526588"><ele>166.0</ele><time>2026-03-29T10:35:57Z</time></trkpt><trkpt lat="42.45668768822329" lon="14.133746867370478"><ele>166.66666666666669</ele><time>2026-03-29T10:35:58Z</time></trkpt><trkpt lat="42.45662158455826" lon="14.13398073582883"><ele>167.33333333333334</ele><time>2026-03-29T10:35:59Z</time></trkpt><trkpt lat="42.45655820796302" lon="14.134238916223705"><ele>168.0</ele><time>2026-03-29T10:36:00Z</time></trkpt><trkpt lat="42.45647238484738" lon="14.134493277188287"><ele>168.0</ele><time>2026-03-29T10:36:01Z</time></trkpt><trkpt lat="42.45638715748478" lon="14.13475426006438"><ele>168.0</ele><time>2026-03-29T10:36:02Z</time></trkpt><trkpt lat="42.456307231934375" lon="14.13500485397642"><ele>168.0</ele><time>2026-03-29T10:36:02.999Z</time></trkpt><trkpt lat="42.45623874386109" lon="14.135225721784941"><ele>171.0</ele><time>2026-03-29T10:36:03.999Z</time></trkpt><trkpt lat="42.45617755068668" lon="14.13542107076103"><ele>174.0</ele><time>2026-03-29T10:36:04.999Z</time></trkpt><trkpt lat="42.456123145931166" lon="14.135579351676245"><ele>177.0</ele><time>2026-03-29T10:36:05.999Z</time></trkpt><trkpt lat="42.45607134298182" lon="14.13570673167583"><ele>180.0</ele><time>2026-03-29T10:36:06.999Z</time></trkpt><trkpt lat="42.45600987754672" lon="14.13579019277821"><ele>180.0</ele><time>2026-03-29T10:36:07.999Z</time></trkpt><trkpt lat="42.45596523871864" lon="14.135855645426489"><ele>180.0</ele><time>2026-03-29T10:36:08.999Z</time></trkpt><trkpt lat="42.45589947332609" lon="14.135935911430074"><ele>180.0</ele><time>2026-03-29T10:36:10.999Z</time></trkpt><trkpt lat="42.456005038426376" lon="14.136118513759742"><ele>180.0</ele><time>2026-03-29T10:36:16.999Z</time></trkpt><trkpt lat="42.456132644101245" lon="14.136131000263305"><ele>180.0</ele><time>2026-03-29T10:36:17.999Z</time></trkpt><trkpt lat="42.456247398529044" lon="14.136181937992761"><ele>180.0</ele><time>2026-03-29T10:36:18.999Z</time></trkpt><trkpt lat="42.45639876540762" lon="14.136245431216711"><ele>180.0</ele><time>2026-03-29T10:36:19.999Z</time></trkpt><trkpt lat="42.456521460092304" lon="14.136287756067624"><ele>180.0</ele><time>2026-03-29T10:36:20.999Z</time></trkpt><trkpt lat="42.456618385718194" lon="14.136300493226393"><ele>177.4</ele><time>2026-03-29T10:36:21.999Z</time></trkpt><trkpt lat="42.456715545682265" lon="14.136289682271292"><ele>174.8</ele><time>2026-03-29T10:36:22.999Z</time></trkpt><trkpt lat="42.45680925322466" lon="14.136260868953384"><ele>172.2</ele><time>2026-03-29T10:36:23.999Z</time></trkpt><trkpt lat="42.456905991469256" lon="14.136238069377384"><ele>169.6</ele><time>2026-03-29T10:36:24.999Z</time></trkpt><trkpt lat="42.45699832814773" lon="14.13622658987246"><ele>167.0</ele><time>2026-03-29T10:36:25.999Z</time></trkpt><trkpt lat="42.457081759474036" lon="14.13622442804182"><ele>165.5</ele><time>2026-03-29T10:36:26.999Z</time></trkpt><trkpt lat="42.457162675454704" lon="14.136224026088376"><ele>164.0</ele><time>2026-03-29T10:36:27.999Z</time></trkpt><trkpt lat="42.457243427840105" lon="14.136220446770475"><ele>162.5</ele><time>2026-03-29T10:36:28.999Z</time></trkpt><trkpt lat="42.45732105011768" lon="14.136208206365618"><ele>161.0</ele><time>2026-03-29T10:36:29.999Z</time></trkpt><trkpt lat="42.45740073054985" lon="14.136202745960055"><ele>159.5</ele><time>2026-03-29T10:36:30.999Z</time></trkpt><trkpt lat="42.457473346587115" lon="14.13619686588042"><ele>158.0</ele><time>2026-03-29T10:36:31.999Z</time></trkpt><trkpt lat="42.45754072001631" lon="14.13618302992336"><ele>158.0</ele><time>2026-03-29T10:36:32.999Z</time></trkpt><trkpt lat="42.457606990416" lon="14.136169051840186"><ele>158.0</ele><time>2026-03-29T10:36:33.999Z</time></trkpt><trkpt lat="42.45770988869629" lon="14.136143459504614"><ele>158.0</ele><time>2026-03-29T10:36:35.999Z</time></trkpt><trkpt lat="42.457774959135314" lon="14.136140656022008"><ele>158.0</ele><time>2026-03-29T10:36:38.999Z</time></trkpt><trkpt lat="42.45770762542091" lon="14.13614532898252"><ele>158.0</ele><time>2026-03-29T10:37:33Z</time></trkpt><trkpt lat="42.45777496618019" lon="14.136161885119439"><ele>158.0</ele><time>2026-03-29T10:37:55Z</time></trkpt></trkseg></trk></gpx>